<?xml version="1.0" encoding="UTF-8" standalone="no" ?>
<gpx xmlns="http://www.topografix.com/GPX/1/1" xmlns:xsi="http://www.w3.org/2001/XMLSchema-instance" xsi:schemaLocation="http://www.topografix.com/GPX/1/1 http://www.topografix.com/GPX/1/1/gpx.xsd" version="1.1" creator="VisuGPX - https://www.visugpx.com">
  <metadata>
    <name>Le Puy Ste Réparade (La Cride, La Quille)_26 oct. 2022</name>
    <desc><![CDATA[Boucle de 13 km, 270 m]]></desc>
  </metadata>
  <trk>
    <name><![CDATA[Enregistré le 26 oct. 2022 09:34:24]]></name>
    <trkseg>
      <trkpt lat="43.64383" lon="5.43376">
        <ele>372.5</ele>
        <time>2022-10-26T07:34:30.000Z</time>
      </trkpt>
      <trkpt lat="43.64382" lon="5.43374">
        <ele>372.5</ele>
        <time>2022-10-26T07:34:48.000Z</time>
      </trkpt>
      <trkpt lat="43.6438" lon="5.43371">
        <ele>372.5</ele>
        <time>2022-10-26T07:34:53.000Z</time>
      </trkpt>
      <trkpt lat="43.64379" lon="5.43369">
        <ele>372.4</ele>
        <time>2022-10-26T07:34:57.000Z</time>
      </trkpt>
      <trkpt lat="43.64377" lon="5.43368">
        <ele>372.5</ele>
        <time>2022-10-26T07:35:06.000Z</time>
      </trkpt>
      <trkpt lat="43.64379" lon="5.43369">
        <ele>372.4</ele>
        <time>2022-10-26T07:35:21.000Z</time>
      </trkpt>
      <trkpt lat="43.6438" lon="5.43371">
        <ele>372.4</ele>
        <time>2022-10-26T07:35:26.000Z</time>
      </trkpt>
      <trkpt lat="43.64382" lon="5.43372">
        <ele>372.5</ele>
        <time>2022-10-26T07:35:30.000Z</time>
      </trkpt>
      <trkpt lat="43.64384" lon="5.43375">
        <ele>372.5</ele>
        <time>2022-10-26T07:35:56.000Z</time>
      </trkpt>
      <trkpt lat="43.64385" lon="5.43376">
        <ele>372.5</ele>
        <time>2022-10-26T07:36:07.000Z</time>
      </trkpt>
      <trkpt lat="43.64387" lon="5.43377">
        <ele>372.6</ele>
        <time>2022-10-26T07:36:17.000Z</time>
      </trkpt>
      <trkpt lat="43.64385" lon="5.43376">
        <ele>372.5</ele>
        <time>2022-10-26T07:38:23.000Z</time>
      </trkpt>
      <trkpt lat="43.64386" lon="5.43378">
        <ele>372.6</ele>
        <time>2022-10-26T07:38:30.000Z</time>
      </trkpt>
      <trkpt lat="43.64385" lon="5.43376">
        <ele>372.5</ele>
        <time>2022-10-26T07:40:19.000Z</time>
      </trkpt>
      <trkpt lat="43.64384" lon="5.43378">
        <ele>372.6</ele>
        <time>2022-10-26T07:43:12.000Z</time>
      </trkpt>
      <trkpt lat="43.64382" lon="5.43376">
        <ele>372.5</ele>
        <time>2022-10-26T07:43:16.000Z</time>
      </trkpt>
      <trkpt lat="43.64381" lon="5.43375">
        <ele>372.5</ele>
        <time>2022-10-26T07:43:21.000Z</time>
      </trkpt>
      <trkpt lat="43.64382" lon="5.43377">
        <ele>372.5</ele>
        <time>2022-10-26T07:43:44.000Z</time>
      </trkpt>
      <trkpt lat="43.64384" lon="5.43377">
        <ele>372.5</ele>
        <time>2022-10-26T07:43:47.000Z</time>
      </trkpt>
      <trkpt lat="43.64386" lon="5.43375">
        <ele>372.5</ele>
        <time>2022-10-26T07:43:50.000Z</time>
      </trkpt>
      <trkpt lat="43.64386" lon="5.43373">
        <ele>372.4</ele>
        <time>2022-10-26T07:49:05.000Z</time>
      </trkpt>
      <trkpt lat="43.64384" lon="5.4337">
        <ele>372.4</ele>
        <time>2022-10-26T07:49:08.000Z</time>
      </trkpt>
      <trkpt lat="43.64383" lon="5.43369">
        <ele>372.4</ele>
        <time>2022-10-26T07:49:11.000Z</time>
      </trkpt>
      <trkpt lat="43.64381" lon="5.43367">
        <ele>372.4</ele>
        <time>2022-10-26T07:49:14.000Z</time>
      </trkpt>
      <trkpt lat="43.64379" lon="5.43366">
        <ele>372.4</ele>
        <time>2022-10-26T07:49:17.000Z</time>
      </trkpt>
      <trkpt lat="43.64377" lon="5.43365">
        <ele>372.5</ele>
        <time>2022-10-26T07:49:20.000Z</time>
      </trkpt>
      <trkpt lat="43.64375" lon="5.43363">
        <ele>372.5</ele>
        <time>2022-10-26T07:49:22.000Z</time>
      </trkpt>
      <trkpt lat="43.64373" lon="5.43362">
        <ele>372.6</ele>
        <time>2022-10-26T07:49:24.000Z</time>
      </trkpt>
      <trkpt lat="43.64371" lon="5.43361">
        <ele>372.6</ele>
        <time>2022-10-26T07:49:26.000Z</time>
      </trkpt>
      <trkpt lat="43.64369" lon="5.4336">
        <ele>372.6</ele>
        <time>2022-10-26T07:49:30.000Z</time>
      </trkpt>
      <trkpt lat="43.64367" lon="5.43357">
        <ele>372.6</ele>
        <time>2022-10-26T07:49:33.000Z</time>
      </trkpt>
      <trkpt lat="43.64365" lon="5.43355">
        <ele>372.6</ele>
        <time>2022-10-26T07:49:36.000Z</time>
      </trkpt>
      <trkpt lat="43.64363" lon="5.43358">
        <ele>372.8</ele>
        <time>2022-10-26T07:49:39.000Z</time>
      </trkpt>
      <trkpt lat="43.6436" lon="5.43358">
        <ele>372.9</ele>
        <time>2022-10-26T07:49:45.000Z</time>
      </trkpt>
      <trkpt lat="43.64359" lon="5.43358">
        <ele>372.8</ele>
        <time>2022-10-26T07:49:47.000Z</time>
      </trkpt>
      <trkpt lat="43.64356" lon="5.43358">
        <ele>372.7</ele>
        <time>2022-10-26T07:49:51.000Z</time>
      </trkpt>
      <trkpt lat="43.64355" lon="5.43357">
        <ele>372.6</ele>
        <time>2022-10-26T07:49:53.000Z</time>
      </trkpt>
      <trkpt lat="43.64353" lon="5.43355">
        <ele>372.5</ele>
        <time>2022-10-26T07:49:56.000Z</time>
      </trkpt>
      <trkpt lat="43.64351" lon="5.43353">
        <ele>372.4</ele>
        <time>2022-10-26T07:49:59.000Z</time>
      </trkpt>
      <trkpt lat="43.64349" lon="5.43351">
        <ele>372.4</ele>
        <time>2022-10-26T07:50:02.000Z</time>
      </trkpt>
      <trkpt lat="43.64347" lon="5.4335">
        <ele>372.3</ele>
        <time>2022-10-26T07:50:04.000Z</time>
      </trkpt>
      <trkpt lat="43.64345" lon="5.43349">
        <ele>372.2</ele>
        <time>2022-10-26T07:50:06.000Z</time>
      </trkpt>
      <trkpt lat="43.64343" lon="5.43347">
        <ele>372.2</ele>
        <time>2022-10-26T07:50:08.000Z</time>
      </trkpt>
      <trkpt lat="43.6434" lon="5.43346">
        <ele>372.1</ele>
        <time>2022-10-26T07:50:10.000Z</time>
      </trkpt>
      <trkpt lat="43.64338" lon="5.43345">
        <ele>372.1</ele>
        <time>2022-10-26T07:50:12.000Z</time>
      </trkpt>
      <trkpt lat="43.64336" lon="5.43343">
        <ele>372</ele>
        <time>2022-10-26T07:50:15.000Z</time>
      </trkpt>
      <trkpt lat="43.64334" lon="5.43343">
        <ele>372</ele>
        <time>2022-10-26T07:50:17.000Z</time>
      </trkpt>
      <trkpt lat="43.64332" lon="5.43342">
        <ele>371.9</ele>
        <time>2022-10-26T07:50:19.000Z</time>
      </trkpt>
      <trkpt lat="43.6433" lon="5.43342">
        <ele>371.9</ele>
        <time>2022-10-26T07:50:21.000Z</time>
      </trkpt>
      <trkpt lat="43.64328" lon="5.43341">
        <ele>371.8</ele>
        <time>2022-10-26T07:50:23.000Z</time>
      </trkpt>
      <trkpt lat="43.64326" lon="5.43341">
        <ele>371.7</ele>
        <time>2022-10-26T07:50:25.000Z</time>
      </trkpt>
      <trkpt lat="43.64324" lon="5.4334">
        <ele>371.7</ele>
        <time>2022-10-26T07:50:27.000Z</time>
      </trkpt>
      <trkpt lat="43.64322" lon="5.4334">
        <ele>371.6</ele>
        <time>2022-10-26T07:50:29.000Z</time>
      </trkpt>
      <trkpt lat="43.6432" lon="5.43339">
        <ele>371.6</ele>
        <time>2022-10-26T07:50:31.000Z</time>
      </trkpt>
      <trkpt lat="43.64318" lon="5.43338">
        <ele>371.6</ele>
        <time>2022-10-26T07:50:33.000Z</time>
      </trkpt>
      <trkpt lat="43.64316" lon="5.43337">
        <ele>371.7</ele>
        <time>2022-10-26T07:50:35.000Z</time>
      </trkpt>
      <trkpt lat="43.64313" lon="5.43337">
        <ele>371.6</ele>
        <time>2022-10-26T07:50:37.000Z</time>
      </trkpt>
      <trkpt lat="43.64311" lon="5.43336">
        <ele>371.6</ele>
        <time>2022-10-26T07:50:39.000Z</time>
      </trkpt>
      <trkpt lat="43.64309" lon="5.43336">
        <ele>371.7</ele>
        <time>2022-10-26T07:50:41.000Z</time>
      </trkpt>
      <trkpt lat="43.64306" lon="5.43336">
        <ele>371.6</ele>
        <time>2022-10-26T07:50:43.000Z</time>
      </trkpt>
      <trkpt lat="43.64304" lon="5.43336">
        <ele>371.7</ele>
        <time>2022-10-26T07:50:45.000Z</time>
      </trkpt>
      <trkpt lat="43.64302" lon="5.43336">
        <ele>371.8</ele>
        <time>2022-10-26T07:50:47.000Z</time>
      </trkpt>
      <trkpt lat="43.64299" lon="5.43336">
        <ele>371.9</ele>
        <time>2022-10-26T07:50:49.000Z</time>
      </trkpt>
      <trkpt lat="43.64297" lon="5.43336">
        <ele>371.9</ele>
        <time>2022-10-26T07:50:51.000Z</time>
      </trkpt>
      <trkpt lat="43.64295" lon="5.43337">
        <ele>372</ele>
        <time>2022-10-26T07:50:53.000Z</time>
      </trkpt>
      <trkpt lat="43.64292" lon="5.43338">
        <ele>371.9</ele>
        <time>2022-10-26T07:50:55.000Z</time>
      </trkpt>
      <trkpt lat="43.6429" lon="5.4334">
        <ele>371.7</ele>
        <time>2022-10-26T07:50:57.000Z</time>
      </trkpt>
      <trkpt lat="43.64287" lon="5.43343">
        <ele>371.5</ele>
        <time>2022-10-26T07:50:59.000Z</time>
      </trkpt>
      <trkpt lat="43.64286" lon="5.43345">
        <ele>371.4</ele>
        <time>2022-10-26T07:51:01.000Z</time>
      </trkpt>
      <trkpt lat="43.64284" lon="5.43345">
        <ele>371.4</ele>
        <time>2022-10-26T07:51:03.000Z</time>
      </trkpt>
      <trkpt lat="43.64282" lon="5.43346">
        <ele>371.4</ele>
        <time>2022-10-26T07:51:05.000Z</time>
      </trkpt>
      <trkpt lat="43.64279" lon="5.43347">
        <ele>371.5</ele>
        <time>2022-10-26T07:51:07.000Z</time>
      </trkpt>
      <trkpt lat="43.64277" lon="5.43348">
        <ele>371.4</ele>
        <time>2022-10-26T07:51:09.000Z</time>
      </trkpt>
      <trkpt lat="43.64275" lon="5.43347">
        <ele>371.3</ele>
        <time>2022-10-26T07:51:11.000Z</time>
      </trkpt>
      <trkpt lat="43.64273" lon="5.43346">
        <ele>371.1</ele>
        <time>2022-10-26T07:51:14.000Z</time>
      </trkpt>
      <trkpt lat="43.64271" lon="5.43345">
        <ele>371.1</ele>
        <time>2022-10-26T07:51:16.000Z</time>
      </trkpt>
      <trkpt lat="43.6427" lon="5.43344">
        <ele>371</ele>
        <time>2022-10-26T07:51:18.000Z</time>
      </trkpt>
      <trkpt lat="43.64267" lon="5.43343">
        <ele>370.8</ele>
        <time>2022-10-26T07:51:21.000Z</time>
      </trkpt>
      <trkpt lat="43.64264" lon="5.43342">
        <ele>370.6</ele>
        <time>2022-10-26T07:51:24.000Z</time>
      </trkpt>
      <trkpt lat="43.64262" lon="5.43341">
        <ele>370.4</ele>
        <time>2022-10-26T07:51:27.000Z</time>
      </trkpt>
      <trkpt lat="43.6426" lon="5.4334">
        <ele>370.2</ele>
        <time>2022-10-26T07:51:29.000Z</time>
      </trkpt>
      <trkpt lat="43.64258" lon="5.43339">
        <ele>370</ele>
        <time>2022-10-26T07:51:31.000Z</time>
      </trkpt>
      <trkpt lat="43.64257" lon="5.43338">
        <ele>369.8</ele>
        <time>2022-10-26T07:51:33.000Z</time>
      </trkpt>
      <trkpt lat="43.64255" lon="5.43337">
        <ele>369.6</ele>
        <time>2022-10-26T07:51:36.000Z</time>
      </trkpt>
      <trkpt lat="43.64253" lon="5.43334">
        <ele>369.5</ele>
        <time>2022-10-26T07:51:38.000Z</time>
      </trkpt>
      <trkpt lat="43.64252" lon="5.43332">
        <ele>369.5</ele>
        <time>2022-10-26T07:51:40.000Z</time>
      </trkpt>
      <trkpt lat="43.64251" lon="5.4333">
        <ele>369.6</ele>
        <time>2022-10-26T07:51:42.000Z</time>
      </trkpt>
      <trkpt lat="43.6425" lon="5.43328">
        <ele>369.7</ele>
        <time>2022-10-26T07:51:44.000Z</time>
      </trkpt>
      <trkpt lat="43.64248" lon="5.43326">
        <ele>369.6</ele>
        <time>2022-10-26T07:51:46.000Z</time>
      </trkpt>
      <trkpt lat="43.64247" lon="5.43325">
        <ele>369.3</ele>
        <time>2022-10-26T07:51:48.000Z</time>
      </trkpt>
      <trkpt lat="43.64245" lon="5.43323">
        <ele>369.1</ele>
        <time>2022-10-26T07:51:50.000Z</time>
      </trkpt>
      <trkpt lat="43.64243" lon="5.4332">
        <ele>368.9</ele>
        <time>2022-10-26T07:51:53.000Z</time>
      </trkpt>
      <trkpt lat="43.64241" lon="5.43318">
        <ele>368.7</ele>
        <time>2022-10-26T07:51:56.000Z</time>
      </trkpt>
      <trkpt lat="43.64239" lon="5.43316">
        <ele>368.5</ele>
        <time>2022-10-26T07:51:59.000Z</time>
      </trkpt>
      <trkpt lat="43.64238" lon="5.43314">
        <ele>368.5</ele>
        <time>2022-10-26T07:52:01.000Z</time>
      </trkpt>
      <trkpt lat="43.64236" lon="5.43312">
        <ele>368.4</ele>
        <time>2022-10-26T07:52:04.000Z</time>
      </trkpt>
      <trkpt lat="43.64234" lon="5.4331">
        <ele>368.3</ele>
        <time>2022-10-26T07:52:07.000Z</time>
      </trkpt>
      <trkpt lat="43.64233" lon="5.43308">
        <ele>368.3</ele>
        <time>2022-10-26T07:52:09.000Z</time>
      </trkpt>
      <trkpt lat="43.64231" lon="5.43306">
        <ele>368.2</ele>
        <time>2022-10-26T07:52:11.000Z</time>
      </trkpt>
      <trkpt lat="43.6423" lon="5.43304">
        <ele>368.1</ele>
        <time>2022-10-26T07:52:13.000Z</time>
      </trkpt>
      <trkpt lat="43.64229" lon="5.43302">
        <ele>368</ele>
        <time>2022-10-26T07:52:15.000Z</time>
      </trkpt>
      <trkpt lat="43.64227" lon="5.43299">
        <ele>367.8</ele>
        <time>2022-10-26T07:52:17.000Z</time>
      </trkpt>
      <trkpt lat="43.64226" lon="5.43297">
        <ele>367.5</ele>
        <time>2022-10-26T07:52:19.000Z</time>
      </trkpt>
      <trkpt lat="43.64224" lon="5.43295">
        <ele>367.3</ele>
        <time>2022-10-26T07:52:21.000Z</time>
      </trkpt>
      <trkpt lat="43.64222" lon="5.43294">
        <ele>366.9</ele>
        <time>2022-10-26T07:52:23.000Z</time>
      </trkpt>
      <trkpt lat="43.64221" lon="5.43292">
        <ele>366.8</ele>
        <time>2022-10-26T07:52:25.000Z</time>
      </trkpt>
      <trkpt lat="43.64219" lon="5.43291">
        <ele>366.7</ele>
        <time>2022-10-26T07:52:27.000Z</time>
      </trkpt>
      <trkpt lat="43.64217" lon="5.4329">
        <ele>366.5</ele>
        <time>2022-10-26T07:52:29.000Z</time>
      </trkpt>
      <trkpt lat="43.64215" lon="5.43288">
        <ele>366.3</ele>
        <time>2022-10-26T07:52:32.000Z</time>
      </trkpt>
      <trkpt lat="43.64213" lon="5.43287">
        <ele>366.2</ele>
        <time>2022-10-26T07:52:34.000Z</time>
      </trkpt>
      <trkpt lat="43.64211" lon="5.43287">
        <ele>366</ele>
        <time>2022-10-26T07:52:36.000Z</time>
      </trkpt>
      <trkpt lat="43.64209" lon="5.43287">
        <ele>365.8</ele>
        <time>2022-10-26T07:52:38.000Z</time>
      </trkpt>
      <trkpt lat="43.64207" lon="5.43286">
        <ele>365.6</ele>
        <time>2022-10-26T07:52:40.000Z</time>
      </trkpt>
      <trkpt lat="43.64205" lon="5.43286">
        <ele>365.4</ele>
        <time>2022-10-26T07:52:42.000Z</time>
      </trkpt>
      <trkpt lat="43.64202" lon="5.43285">
        <ele>365.2</ele>
        <time>2022-10-26T07:52:44.000Z</time>
      </trkpt>
      <trkpt lat="43.642" lon="5.43285">
        <ele>364.9</ele>
        <time>2022-10-26T07:52:46.000Z</time>
      </trkpt>
      <trkpt lat="43.64198" lon="5.43285">
        <ele>364.6</ele>
        <time>2022-10-26T07:52:48.000Z</time>
      </trkpt>
      <trkpt lat="43.64196" lon="5.43285">
        <ele>364.4</ele>
        <time>2022-10-26T07:52:50.000Z</time>
      </trkpt>
      <trkpt lat="43.64194" lon="5.43285">
        <ele>364.2</ele>
        <time>2022-10-26T07:52:52.000Z</time>
      </trkpt>
      <trkpt lat="43.64192" lon="5.43285">
        <ele>364.1</ele>
        <time>2022-10-26T07:52:54.000Z</time>
      </trkpt>
      <trkpt lat="43.6419" lon="5.43286">
        <ele>364</ele>
        <time>2022-10-26T07:52:56.000Z</time>
      </trkpt>
      <trkpt lat="43.64188" lon="5.43287">
        <ele>363.9</ele>
        <time>2022-10-26T07:52:58.000Z</time>
      </trkpt>
      <trkpt lat="43.64185" lon="5.43287">
        <ele>363.8</ele>
        <time>2022-10-26T07:53:00.000Z</time>
      </trkpt>
      <trkpt lat="43.64183" lon="5.43287">
        <ele>363.8</ele>
        <time>2022-10-26T07:53:02.000Z</time>
      </trkpt>
      <trkpt lat="43.64181" lon="5.43287">
        <ele>363.7</ele>
        <time>2022-10-26T07:53:04.000Z</time>
      </trkpt>
      <trkpt lat="43.64179" lon="5.43286">
        <ele>363.8</ele>
        <time>2022-10-26T07:53:06.000Z</time>
      </trkpt>
      <trkpt lat="43.64177" lon="5.43285">
        <ele>363.8</ele>
        <time>2022-10-26T07:53:08.000Z</time>
      </trkpt>
      <trkpt lat="43.64174" lon="5.43285">
        <ele>363.9</ele>
        <time>2022-10-26T07:53:10.000Z</time>
      </trkpt>
      <trkpt lat="43.64172" lon="5.43284">
        <ele>363.9</ele>
        <time>2022-10-26T07:53:12.000Z</time>
      </trkpt>
      <trkpt lat="43.6417" lon="5.43284">
        <ele>363.9</ele>
        <time>2022-10-26T07:53:14.000Z</time>
      </trkpt>
      <trkpt lat="43.64167" lon="5.43284">
        <ele>364</ele>
        <time>2022-10-26T07:53:16.000Z</time>
      </trkpt>
      <trkpt lat="43.64165" lon="5.43284">
        <ele>363.8</ele>
        <time>2022-10-26T07:53:18.000Z</time>
      </trkpt>
      <trkpt lat="43.64162" lon="5.43284">
        <ele>363.9</ele>
        <time>2022-10-26T07:53:20.000Z</time>
      </trkpt>
      <trkpt lat="43.6416" lon="5.43283">
        <ele>363.9</ele>
        <time>2022-10-26T07:53:22.000Z</time>
      </trkpt>
      <trkpt lat="43.64157" lon="5.43284">
        <ele>363.9</ele>
        <time>2022-10-26T07:53:24.000Z</time>
      </trkpt>
      <trkpt lat="43.64155" lon="5.43284">
        <ele>363.8</ele>
        <time>2022-10-26T07:53:26.000Z</time>
      </trkpt>
      <trkpt lat="43.64153" lon="5.43284">
        <ele>363.8</ele>
        <time>2022-10-26T07:53:28.000Z</time>
      </trkpt>
      <trkpt lat="43.6415" lon="5.43284">
        <ele>363.8</ele>
        <time>2022-10-26T07:53:30.000Z</time>
      </trkpt>
      <trkpt lat="43.64148" lon="5.43283">
        <ele>363.9</ele>
        <time>2022-10-26T07:53:32.000Z</time>
      </trkpt>
      <trkpt lat="43.64146" lon="5.43282">
        <ele>364</ele>
        <time>2022-10-26T07:53:34.000Z</time>
      </trkpt>
      <trkpt lat="43.64144" lon="5.43282">
        <ele>364.2</ele>
        <time>2022-10-26T07:53:36.000Z</time>
      </trkpt>
      <trkpt lat="43.64142" lon="5.43281">
        <ele>364.4</ele>
        <time>2022-10-26T07:53:38.000Z</time>
      </trkpt>
      <trkpt lat="43.64139" lon="5.4328">
        <ele>364.5</ele>
        <time>2022-10-26T07:53:40.000Z</time>
      </trkpt>
      <trkpt lat="43.64137" lon="5.43279">
        <ele>364.8</ele>
        <time>2022-10-26T07:53:42.000Z</time>
      </trkpt>
      <trkpt lat="43.64135" lon="5.43278">
        <ele>365.1</ele>
        <time>2022-10-26T07:53:44.000Z</time>
      </trkpt>
      <trkpt lat="43.64133" lon="5.43278">
        <ele>365.3</ele>
        <time>2022-10-26T07:53:46.000Z</time>
      </trkpt>
      <trkpt lat="43.64131" lon="5.43277">
        <ele>365.5</ele>
        <time>2022-10-26T07:53:48.000Z</time>
      </trkpt>
      <trkpt lat="43.64129" lon="5.43276">
        <ele>365.8</ele>
        <time>2022-10-26T07:53:50.000Z</time>
      </trkpt>
      <trkpt lat="43.64127" lon="5.43275">
        <ele>366.1</ele>
        <time>2022-10-26T07:53:52.000Z</time>
      </trkpt>
      <trkpt lat="43.64125" lon="5.43273">
        <ele>366.5</ele>
        <time>2022-10-26T07:53:54.000Z</time>
      </trkpt>
      <trkpt lat="43.64124" lon="5.43272">
        <ele>366.8</ele>
        <time>2022-10-26T07:53:57.000Z</time>
      </trkpt>
      <trkpt lat="43.64122" lon="5.4327">
        <ele>367.1</ele>
        <time>2022-10-26T07:54:00.000Z</time>
      </trkpt>
      <trkpt lat="43.6412" lon="5.43269">
        <ele>367.3</ele>
        <time>2022-10-26T07:54:03.000Z</time>
      </trkpt>
      <trkpt lat="43.64118" lon="5.43268">
        <ele>367.5</ele>
        <time>2022-10-26T07:54:06.000Z</time>
      </trkpt>
      <trkpt lat="43.64116" lon="5.43267">
        <ele>367.6</ele>
        <time>2022-10-26T07:54:08.000Z</time>
      </trkpt>
      <trkpt lat="43.64114" lon="5.43266">
        <ele>367.8</ele>
        <time>2022-10-26T07:54:11.000Z</time>
      </trkpt>
      <trkpt lat="43.64112" lon="5.43265">
        <ele>367.9</ele>
        <time>2022-10-26T07:54:13.000Z</time>
      </trkpt>
      <trkpt lat="43.64109" lon="5.43263">
        <ele>367.9</ele>
        <time>2022-10-26T07:54:16.000Z</time>
      </trkpt>
      <trkpt lat="43.64107" lon="5.43262">
        <ele>367.8</ele>
        <time>2022-10-26T07:54:18.000Z</time>
      </trkpt>
      <trkpt lat="43.64105" lon="5.43261">
        <ele>367.7</ele>
        <time>2022-10-26T07:54:20.000Z</time>
      </trkpt>
      <trkpt lat="43.64103" lon="5.43261">
        <ele>367.6</ele>
        <time>2022-10-26T07:54:22.000Z</time>
      </trkpt>
      <trkpt lat="43.64101" lon="5.4326">
        <ele>367.5</ele>
        <time>2022-10-26T07:54:25.000Z</time>
      </trkpt>
      <trkpt lat="43.64098" lon="5.4326">
        <ele>367.4</ele>
        <time>2022-10-26T07:54:28.000Z</time>
      </trkpt>
      <trkpt lat="43.64097" lon="5.43258">
        <ele>367.5</ele>
        <time>2022-10-26T07:54:30.000Z</time>
      </trkpt>
      <trkpt lat="43.64095" lon="5.43258">
        <ele>367.4</ele>
        <time>2022-10-26T07:54:32.000Z</time>
      </trkpt>
      <trkpt lat="43.64092" lon="5.43257">
        <ele>367.3</ele>
        <time>2022-10-26T07:54:35.000Z</time>
      </trkpt>
      <trkpt lat="43.64089" lon="5.43256">
        <ele>367.2</ele>
        <time>2022-10-26T07:54:37.000Z</time>
      </trkpt>
      <trkpt lat="43.64086" lon="5.43255">
        <ele>367.2</ele>
        <time>2022-10-26T07:54:39.000Z</time>
      </trkpt>
      <trkpt lat="43.64084" lon="5.43254">
        <ele>367.1</ele>
        <time>2022-10-26T07:54:41.000Z</time>
      </trkpt>
      <trkpt lat="43.64082" lon="5.43253">
        <ele>367.4</ele>
        <time>2022-10-26T07:54:43.000Z</time>
      </trkpt>
      <trkpt lat="43.6408" lon="5.43252">
        <ele>367.5</ele>
        <time>2022-10-26T07:54:45.000Z</time>
      </trkpt>
      <trkpt lat="43.64078" lon="5.43252">
        <ele>367.5</ele>
        <time>2022-10-26T07:54:47.000Z</time>
      </trkpt>
      <trkpt lat="43.64077" lon="5.43252">
        <ele>367.7</ele>
        <time>2022-10-26T07:54:49.000Z</time>
      </trkpt>
      <trkpt lat="43.64075" lon="5.43253">
        <ele>367.4</ele>
        <time>2022-10-26T07:54:51.000Z</time>
      </trkpt>
      <trkpt lat="43.64073" lon="5.43252">
        <ele>367.6</ele>
        <time>2022-10-26T07:54:53.000Z</time>
      </trkpt>
      <trkpt lat="43.64071" lon="5.43251">
        <ele>367.8</ele>
        <time>2022-10-26T07:54:55.000Z</time>
      </trkpt>
      <trkpt lat="43.64069" lon="5.4325">
        <ele>367.9</ele>
        <time>2022-10-26T07:54:57.000Z</time>
      </trkpt>
      <trkpt lat="43.64067" lon="5.4325">
        <ele>368.1</ele>
        <time>2022-10-26T07:55:00.000Z</time>
      </trkpt>
      <trkpt lat="43.64065" lon="5.43249">
        <ele>368.3</ele>
        <time>2022-10-26T07:55:02.000Z</time>
      </trkpt>
      <trkpt lat="43.64063" lon="5.43248">
        <ele>368.5</ele>
        <time>2022-10-26T07:55:04.000Z</time>
      </trkpt>
      <trkpt lat="43.64061" lon="5.43247">
        <ele>368.6</ele>
        <time>2022-10-26T07:55:06.000Z</time>
      </trkpt>
      <trkpt lat="43.64059" lon="5.43246">
        <ele>368.7</ele>
        <time>2022-10-26T07:55:08.000Z</time>
      </trkpt>
      <trkpt lat="43.64057" lon="5.43245">
        <ele>368.9</ele>
        <time>2022-10-26T07:55:10.000Z</time>
      </trkpt>
      <trkpt lat="43.64055" lon="5.43245">
        <ele>368.8</ele>
        <time>2022-10-26T07:55:12.000Z</time>
      </trkpt>
      <trkpt lat="43.64053" lon="5.43244">
        <ele>368.8</ele>
        <time>2022-10-26T07:55:14.000Z</time>
      </trkpt>
      <trkpt lat="43.6405" lon="5.43244">
        <ele>368.7</ele>
        <time>2022-10-26T07:55:16.000Z</time>
      </trkpt>
      <trkpt lat="43.64048" lon="5.43243">
        <ele>368.7</ele>
        <time>2022-10-26T07:55:18.000Z</time>
      </trkpt>
      <trkpt lat="43.64047" lon="5.43242">
        <ele>368.8</ele>
        <time>2022-10-26T07:55:20.000Z</time>
      </trkpt>
      <trkpt lat="43.64045" lon="5.43242">
        <ele>368.7</ele>
        <time>2022-10-26T07:55:22.000Z</time>
      </trkpt>
      <trkpt lat="43.64044" lon="5.43244">
        <ele>368.2</ele>
        <time>2022-10-26T07:55:24.000Z</time>
      </trkpt>
      <trkpt lat="43.64041" lon="5.43244">
        <ele>368.2</ele>
        <time>2022-10-26T07:55:26.000Z</time>
      </trkpt>
      <trkpt lat="43.6404" lon="5.43241">
        <ele>368.6</ele>
        <time>2022-10-26T07:55:28.000Z</time>
      </trkpt>
      <trkpt lat="43.64039" lon="5.4324">
        <ele>368.7</ele>
        <time>2022-10-26T07:55:31.000Z</time>
      </trkpt>
      <trkpt lat="43.64036" lon="5.43239">
        <ele>368.5</ele>
        <time>2022-10-26T07:55:34.000Z</time>
      </trkpt>
      <trkpt lat="43.64034" lon="5.43239">
        <ele>368.5</ele>
        <time>2022-10-26T07:55:37.000Z</time>
      </trkpt>
      <trkpt lat="43.64032" lon="5.43238">
        <ele>368.5</ele>
        <time>2022-10-26T07:55:40.000Z</time>
      </trkpt>
      <trkpt lat="43.64029" lon="5.43237">
        <ele>368.4</ele>
        <time>2022-10-26T07:55:43.000Z</time>
      </trkpt>
      <trkpt lat="43.64027" lon="5.43237">
        <ele>368.3</ele>
        <time>2022-10-26T07:55:46.000Z</time>
      </trkpt>
      <trkpt lat="43.64025" lon="5.43237">
        <ele>368.3</ele>
        <time>2022-10-26T07:55:48.000Z</time>
      </trkpt>
      <trkpt lat="43.64023" lon="5.43237">
        <ele>368.2</ele>
        <time>2022-10-26T07:55:50.000Z</time>
      </trkpt>
      <trkpt lat="43.64021" lon="5.43237">
        <ele>368.2</ele>
        <time>2022-10-26T07:55:52.000Z</time>
      </trkpt>
      <trkpt lat="43.64019" lon="5.43236">
        <ele>368.2</ele>
        <time>2022-10-26T07:55:54.000Z</time>
      </trkpt>
      <trkpt lat="43.64017" lon="5.43235">
        <ele>368.3</ele>
        <time>2022-10-26T07:55:56.000Z</time>
      </trkpt>
      <trkpt lat="43.64015" lon="5.43235">
        <ele>368.3</ele>
        <time>2022-10-26T07:55:58.000Z</time>
      </trkpt>
      <trkpt lat="43.64013" lon="5.43235">
        <ele>368.2</ele>
        <time>2022-10-26T07:56:00.000Z</time>
      </trkpt>
      <trkpt lat="43.6401" lon="5.43235">
        <ele>368.1</ele>
        <time>2022-10-26T07:56:02.000Z</time>
      </trkpt>
      <trkpt lat="43.64008" lon="5.43235">
        <ele>368</ele>
        <time>2022-10-26T07:56:04.000Z</time>
      </trkpt>
      <trkpt lat="43.64006" lon="5.43235">
        <ele>367.9</ele>
        <time>2022-10-26T07:56:06.000Z</time>
      </trkpt>
      <trkpt lat="43.64004" lon="5.43235">
        <ele>367.8</ele>
        <time>2022-10-26T07:56:08.000Z</time>
      </trkpt>
      <trkpt lat="43.64002" lon="5.43236">
        <ele>367.6</ele>
        <time>2022-10-26T07:56:10.000Z</time>
      </trkpt>
      <trkpt lat="43.64" lon="5.43236">
        <ele>367.5</ele>
        <time>2022-10-26T07:56:12.000Z</time>
      </trkpt>
      <trkpt lat="43.63998" lon="5.43236">
        <ele>367.4</ele>
        <time>2022-10-26T07:56:14.000Z</time>
      </trkpt>
      <trkpt lat="43.63996" lon="5.43236">
        <ele>367.3</ele>
        <time>2022-10-26T07:56:16.000Z</time>
      </trkpt>
      <trkpt lat="43.63993" lon="5.43236">
        <ele>367.3</ele>
        <time>2022-10-26T07:56:19.000Z</time>
      </trkpt>
      <trkpt lat="43.63991" lon="5.43235">
        <ele>367.5</ele>
        <time>2022-10-26T07:56:21.000Z</time>
      </trkpt>
      <trkpt lat="43.63989" lon="5.43234">
        <ele>367.6</ele>
        <time>2022-10-26T07:56:23.000Z</time>
      </trkpt>
      <trkpt lat="43.63987" lon="5.43234">
        <ele>367.7</ele>
        <time>2022-10-26T07:56:25.000Z</time>
      </trkpt>
      <trkpt lat="43.63985" lon="5.43233">
        <ele>367.6</ele>
        <time>2022-10-26T07:56:27.000Z</time>
      </trkpt>
      <trkpt lat="43.63982" lon="5.43233">
        <ele>367.6</ele>
        <time>2022-10-26T07:56:29.000Z</time>
      </trkpt>
      <trkpt lat="43.6398" lon="5.43232">
        <ele>367.8</ele>
        <time>2022-10-26T07:56:31.000Z</time>
      </trkpt>
      <trkpt lat="43.63978" lon="5.43231">
        <ele>368.1</ele>
        <time>2022-10-26T07:56:33.000Z</time>
      </trkpt>
      <trkpt lat="43.63976" lon="5.4323">
        <ele>368.1</ele>
        <time>2022-10-26T07:56:35.000Z</time>
      </trkpt>
      <trkpt lat="43.63974" lon="5.43229">
        <ele>368.3</ele>
        <time>2022-10-26T07:56:37.000Z</time>
      </trkpt>
      <trkpt lat="43.63971" lon="5.43228">
        <ele>368.4</ele>
        <time>2022-10-26T07:56:39.000Z</time>
      </trkpt>
      <trkpt lat="43.63969" lon="5.43228">
        <ele>368.6</ele>
        <time>2022-10-26T07:56:41.000Z</time>
      </trkpt>
      <trkpt lat="43.63967" lon="5.43227">
        <ele>368.7</ele>
        <time>2022-10-26T07:56:43.000Z</time>
      </trkpt>
      <trkpt lat="43.63965" lon="5.43227">
        <ele>368.8</ele>
        <time>2022-10-26T07:56:45.000Z</time>
      </trkpt>
      <trkpt lat="43.63963" lon="5.43227">
        <ele>368.7</ele>
        <time>2022-10-26T07:56:47.000Z</time>
      </trkpt>
      <trkpt lat="43.63961" lon="5.43226">
        <ele>368.9</ele>
        <time>2022-10-26T07:56:49.000Z</time>
      </trkpt>
      <trkpt lat="43.63959" lon="5.43226">
        <ele>369</ele>
        <time>2022-10-26T07:56:51.000Z</time>
      </trkpt>
      <trkpt lat="43.63956" lon="5.43226">
        <ele>368.9</ele>
        <time>2022-10-26T07:56:53.000Z</time>
      </trkpt>
      <trkpt lat="43.63954" lon="5.43226">
        <ele>369.1</ele>
        <time>2022-10-26T07:56:55.000Z</time>
      </trkpt>
      <trkpt lat="43.63952" lon="5.43225">
        <ele>369.3</ele>
        <time>2022-10-26T07:56:57.000Z</time>
      </trkpt>
      <trkpt lat="43.6395" lon="5.43224">
        <ele>369.5</ele>
        <time>2022-10-26T07:56:59.000Z</time>
      </trkpt>
      <trkpt lat="43.63948" lon="5.43223">
        <ele>369.7</ele>
        <time>2022-10-26T07:57:01.000Z</time>
      </trkpt>
      <trkpt lat="43.63945" lon="5.43223">
        <ele>369.9</ele>
        <time>2022-10-26T07:57:03.000Z</time>
      </trkpt>
      <trkpt lat="43.63943" lon="5.43222">
        <ele>370</ele>
        <time>2022-10-26T07:57:05.000Z</time>
      </trkpt>
      <trkpt lat="43.63941" lon="5.43221">
        <ele>370.1</ele>
        <time>2022-10-26T07:57:07.000Z</time>
      </trkpt>
      <trkpt lat="43.63939" lon="5.43221">
        <ele>370.1</ele>
        <time>2022-10-26T07:57:09.000Z</time>
      </trkpt>
      <trkpt lat="43.63937" lon="5.4322">
        <ele>370.2</ele>
        <time>2022-10-26T07:57:11.000Z</time>
      </trkpt>
      <trkpt lat="43.63935" lon="5.43219">
        <ele>370.4</ele>
        <time>2022-10-26T07:57:13.000Z</time>
      </trkpt>
      <trkpt lat="43.63933" lon="5.43219">
        <ele>370.4</ele>
        <time>2022-10-26T07:57:15.000Z</time>
      </trkpt>
      <trkpt lat="43.63931" lon="5.43218">
        <ele>370.4</ele>
        <time>2022-10-26T07:57:17.000Z</time>
      </trkpt>
      <trkpt lat="43.63928" lon="5.43217">
        <ele>370.5</ele>
        <time>2022-10-26T07:57:19.000Z</time>
      </trkpt>
      <trkpt lat="43.63926" lon="5.43217">
        <ele>370.6</ele>
        <time>2022-10-26T07:57:21.000Z</time>
      </trkpt>
      <trkpt lat="43.63924" lon="5.43216">
        <ele>370.7</ele>
        <time>2022-10-26T07:57:23.000Z</time>
      </trkpt>
      <trkpt lat="43.63922" lon="5.43216">
        <ele>370.6</ele>
        <time>2022-10-26T07:57:25.000Z</time>
      </trkpt>
      <trkpt lat="43.63919" lon="5.43215">
        <ele>370.6</ele>
        <time>2022-10-26T07:57:27.000Z</time>
      </trkpt>
      <trkpt lat="43.63917" lon="5.43215">
        <ele>370.6</ele>
        <time>2022-10-26T07:57:29.000Z</time>
      </trkpt>
      <trkpt lat="43.63915" lon="5.43214">
        <ele>370.7</ele>
        <time>2022-10-26T07:57:31.000Z</time>
      </trkpt>
      <trkpt lat="43.63913" lon="5.43214">
        <ele>370.6</ele>
        <time>2022-10-26T07:57:33.000Z</time>
      </trkpt>
      <trkpt lat="43.6391" lon="5.43213">
        <ele>370.5</ele>
        <time>2022-10-26T07:57:35.000Z</time>
      </trkpt>
      <trkpt lat="43.63908" lon="5.43213">
        <ele>370.5</ele>
        <time>2022-10-26T07:57:37.000Z</time>
      </trkpt>
      <trkpt lat="43.63906" lon="5.43212">
        <ele>370.4</ele>
        <time>2022-10-26T07:57:39.000Z</time>
      </trkpt>
      <trkpt lat="43.63904" lon="5.43211">
        <ele>370.5</ele>
        <time>2022-10-26T07:57:41.000Z</time>
      </trkpt>
      <trkpt lat="43.63902" lon="5.4321">
        <ele>370.6</ele>
        <time>2022-10-26T07:57:43.000Z</time>
      </trkpt>
      <trkpt lat="43.63899" lon="5.43209">
        <ele>370.5</ele>
        <time>2022-10-26T07:57:45.000Z</time>
      </trkpt>
      <trkpt lat="43.63897" lon="5.43208">
        <ele>370.6</ele>
        <time>2022-10-26T07:57:47.000Z</time>
      </trkpt>
      <trkpt lat="43.63895" lon="5.43208">
        <ele>370.6</ele>
        <time>2022-10-26T07:57:49.000Z</time>
      </trkpt>
      <trkpt lat="43.63893" lon="5.43207">
        <ele>370.5</ele>
        <time>2022-10-26T07:57:51.000Z</time>
      </trkpt>
      <trkpt lat="43.63891" lon="5.43207">
        <ele>370.4</ele>
        <time>2022-10-26T07:57:53.000Z</time>
      </trkpt>
      <trkpt lat="43.63888" lon="5.43206">
        <ele>370.4</ele>
        <time>2022-10-26T07:57:55.000Z</time>
      </trkpt>
      <trkpt lat="43.63887" lon="5.43206">
        <ele>370.5</ele>
        <time>2022-10-26T07:57:57.000Z</time>
      </trkpt>
      <trkpt lat="43.63885" lon="5.43206">
        <ele>370.6</ele>
        <time>2022-10-26T07:57:59.000Z</time>
      </trkpt>
      <trkpt lat="43.63881" lon="5.43206">
        <ele>370.7</ele>
        <time>2022-10-26T07:58:01.000Z</time>
      </trkpt>
      <trkpt lat="43.63879" lon="5.43206">
        <ele>370.8</ele>
        <time>2022-10-26T07:58:03.000Z</time>
      </trkpt>
      <trkpt lat="43.63877" lon="5.43205">
        <ele>371.1</ele>
        <time>2022-10-26T07:58:05.000Z</time>
      </trkpt>
      <trkpt lat="43.63875" lon="5.43205">
        <ele>371.3</ele>
        <time>2022-10-26T07:58:07.000Z</time>
      </trkpt>
      <trkpt lat="43.63873" lon="5.43204">
        <ele>371.5</ele>
        <time>2022-10-26T07:58:09.000Z</time>
      </trkpt>
      <trkpt lat="43.63871" lon="5.43204">
        <ele>371.6</ele>
        <time>2022-10-26T07:58:11.000Z</time>
      </trkpt>
      <trkpt lat="43.63869" lon="5.43203">
        <ele>371.8</ele>
        <time>2022-10-26T07:58:13.000Z</time>
      </trkpt>
      <trkpt lat="43.63867" lon="5.43203">
        <ele>372</ele>
        <time>2022-10-26T07:58:15.000Z</time>
      </trkpt>
      <trkpt lat="43.63864" lon="5.43202">
        <ele>372.2</ele>
        <time>2022-10-26T07:58:17.000Z</time>
      </trkpt>
      <trkpt lat="43.63862" lon="5.43202">
        <ele>372.3</ele>
        <time>2022-10-26T07:58:19.000Z</time>
      </trkpt>
      <trkpt lat="43.6386" lon="5.43202">
        <ele>372.4</ele>
        <time>2022-10-26T07:58:21.000Z</time>
      </trkpt>
      <trkpt lat="43.63858" lon="5.43201">
        <ele>372.6</ele>
        <time>2022-10-26T07:58:23.000Z</time>
      </trkpt>
      <trkpt lat="43.63856" lon="5.43202">
        <ele>372.7</ele>
        <time>2022-10-26T07:58:25.000Z</time>
      </trkpt>
      <trkpt lat="43.63854" lon="5.43202">
        <ele>372.8</ele>
        <time>2022-10-26T07:58:27.000Z</time>
      </trkpt>
      <trkpt lat="43.63851" lon="5.43202">
        <ele>372.8</ele>
        <time>2022-10-26T07:58:29.000Z</time>
      </trkpt>
      <trkpt lat="43.63849" lon="5.43201">
        <ele>373</ele>
        <time>2022-10-26T07:58:31.000Z</time>
      </trkpt>
      <trkpt lat="43.63847" lon="5.43201">
        <ele>373.2</ele>
        <time>2022-10-26T07:58:33.000Z</time>
      </trkpt>
      <trkpt lat="43.63844" lon="5.432">
        <ele>373.4</ele>
        <time>2022-10-26T07:58:35.000Z</time>
      </trkpt>
      <trkpt lat="43.63842" lon="5.43199">
        <ele>373.6</ele>
        <time>2022-10-26T07:58:37.000Z</time>
      </trkpt>
      <trkpt lat="43.63841" lon="5.43199">
        <ele>373.7</ele>
        <time>2022-10-26T07:58:39.000Z</time>
      </trkpt>
      <trkpt lat="43.63839" lon="5.43199">
        <ele>373.7</ele>
        <time>2022-10-26T07:58:41.000Z</time>
      </trkpt>
      <trkpt lat="43.63836" lon="5.432">
        <ele>373.8</ele>
        <time>2022-10-26T07:58:43.000Z</time>
      </trkpt>
      <trkpt lat="43.63834" lon="5.432">
        <ele>373.8</ele>
        <time>2022-10-26T07:58:45.000Z</time>
      </trkpt>
      <trkpt lat="43.63832" lon="5.43199">
        <ele>374</ele>
        <time>2022-10-26T07:58:47.000Z</time>
      </trkpt>
      <trkpt lat="43.6383" lon="5.43199">
        <ele>374</ele>
        <time>2022-10-26T07:58:49.000Z</time>
      </trkpt>
      <trkpt lat="43.63827" lon="5.43198">
        <ele>374.2</ele>
        <time>2022-10-26T07:58:52.000Z</time>
      </trkpt>
      <trkpt lat="43.63825" lon="5.43198">
        <ele>374.2</ele>
        <time>2022-10-26T07:58:54.000Z</time>
      </trkpt>
      <trkpt lat="43.63823" lon="5.43198">
        <ele>374.2</ele>
        <time>2022-10-26T07:58:56.000Z</time>
      </trkpt>
      <trkpt lat="43.63821" lon="5.43198">
        <ele>374.3</ele>
        <time>2022-10-26T07:58:58.000Z</time>
      </trkpt>
      <trkpt lat="43.63818" lon="5.43199">
        <ele>374.1</ele>
        <time>2022-10-26T07:59:00.000Z</time>
      </trkpt>
      <trkpt lat="43.63816" lon="5.43199">
        <ele>374.2</ele>
        <time>2022-10-26T07:59:02.000Z</time>
      </trkpt>
      <trkpt lat="43.63814" lon="5.43199">
        <ele>374.1</ele>
        <time>2022-10-26T07:59:04.000Z</time>
      </trkpt>
      <trkpt lat="43.63812" lon="5.432">
        <ele>374</ele>
        <time>2022-10-26T07:59:06.000Z</time>
      </trkpt>
      <trkpt lat="43.6381" lon="5.43199">
        <ele>374.1</ele>
        <time>2022-10-26T07:59:08.000Z</time>
      </trkpt>
      <trkpt lat="43.63809" lon="5.43198">
        <ele>374.3</ele>
        <time>2022-10-26T07:59:10.000Z</time>
      </trkpt>
      <trkpt lat="43.63806" lon="5.43197">
        <ele>374.5</ele>
        <time>2022-10-26T07:59:12.000Z</time>
      </trkpt>
      <trkpt lat="43.63803" lon="5.43197">
        <ele>374.7</ele>
        <time>2022-10-26T07:59:14.000Z</time>
      </trkpt>
      <trkpt lat="43.63801" lon="5.43196">
        <ele>374.9</ele>
        <time>2022-10-26T07:59:16.000Z</time>
      </trkpt>
      <trkpt lat="43.638" lon="5.43195">
        <ele>375.2</ele>
        <time>2022-10-26T07:59:18.000Z</time>
      </trkpt>
      <trkpt lat="43.63797" lon="5.43194">
        <ele>375.3</ele>
        <time>2022-10-26T07:59:21.000Z</time>
      </trkpt>
      <trkpt lat="43.63795" lon="5.43193">
        <ele>375.4</ele>
        <time>2022-10-26T07:59:23.000Z</time>
      </trkpt>
      <trkpt lat="43.63793" lon="5.43193">
        <ele>375.5</ele>
        <time>2022-10-26T07:59:25.000Z</time>
      </trkpt>
      <trkpt lat="43.63791" lon="5.43192">
        <ele>375.6</ele>
        <time>2022-10-26T07:59:27.000Z</time>
      </trkpt>
      <trkpt lat="43.63789" lon="5.43192">
        <ele>375.7</ele>
        <time>2022-10-26T07:59:29.000Z</time>
      </trkpt>
      <trkpt lat="43.63788" lon="5.43191">
        <ele>375.9</ele>
        <time>2022-10-26T07:59:31.000Z</time>
      </trkpt>
      <trkpt lat="43.63786" lon="5.43191">
        <ele>376</ele>
        <time>2022-10-26T07:59:33.000Z</time>
      </trkpt>
      <trkpt lat="43.63784" lon="5.4319">
        <ele>376.1</ele>
        <time>2022-10-26T07:59:35.000Z</time>
      </trkpt>
      <trkpt lat="43.63782" lon="5.4319">
        <ele>376.2</ele>
        <time>2022-10-26T07:59:37.000Z</time>
      </trkpt>
      <trkpt lat="43.6378" lon="5.43189">
        <ele>376.3</ele>
        <time>2022-10-26T07:59:39.000Z</time>
      </trkpt>
      <trkpt lat="43.63777" lon="5.4319">
        <ele>376.4</ele>
        <time>2022-10-26T07:59:42.000Z</time>
      </trkpt>
      <trkpt lat="43.63775" lon="5.4319">
        <ele>376.6</ele>
        <time>2022-10-26T07:59:45.000Z</time>
      </trkpt>
      <trkpt lat="43.63773" lon="5.43189">
        <ele>376.8</ele>
        <time>2022-10-26T07:59:47.000Z</time>
      </trkpt>
      <trkpt lat="43.63771" lon="5.43189">
        <ele>377</ele>
        <time>2022-10-26T07:59:49.000Z</time>
      </trkpt>
      <trkpt lat="43.63769" lon="5.43189">
        <ele>377.1</ele>
        <time>2022-10-26T07:59:51.000Z</time>
      </trkpt>
      <trkpt lat="43.63767" lon="5.43188">
        <ele>377.4</ele>
        <time>2022-10-26T07:59:53.000Z</time>
      </trkpt>
      <trkpt lat="43.63765" lon="5.43188">
        <ele>377.5</ele>
        <time>2022-10-26T07:59:55.000Z</time>
      </trkpt>
      <trkpt lat="43.63763" lon="5.43187">
        <ele>377.7</ele>
        <time>2022-10-26T07:59:57.000Z</time>
      </trkpt>
      <trkpt lat="43.63761" lon="5.43186">
        <ele>378</ele>
        <time>2022-10-26T07:59:59.000Z</time>
      </trkpt>
      <trkpt lat="43.63759" lon="5.43185">
        <ele>378.2</ele>
        <time>2022-10-26T08:00:01.000Z</time>
      </trkpt>
      <trkpt lat="43.63758" lon="5.43184">
        <ele>378.4</ele>
        <time>2022-10-26T08:00:03.000Z</time>
      </trkpt>
      <trkpt lat="43.63755" lon="5.43183">
        <ele>378.8</ele>
        <time>2022-10-26T08:00:06.000Z</time>
      </trkpt>
      <trkpt lat="43.63753" lon="5.43182">
        <ele>379.1</ele>
        <time>2022-10-26T08:00:09.000Z</time>
      </trkpt>
      <trkpt lat="43.63751" lon="5.43182">
        <ele>379.3</ele>
        <time>2022-10-26T08:00:12.000Z</time>
      </trkpt>
      <trkpt lat="43.63748" lon="5.43181">
        <ele>379.6</ele>
        <time>2022-10-26T08:00:15.000Z</time>
      </trkpt>
      <trkpt lat="43.63746" lon="5.43182">
        <ele>379.8</ele>
        <time>2022-10-26T08:00:19.000Z</time>
      </trkpt>
      <trkpt lat="43.63743" lon="5.43181">
        <ele>380.1</ele>
        <time>2022-10-26T08:00:22.000Z</time>
      </trkpt>
      <trkpt lat="43.63741" lon="5.4318">
        <ele>380.4</ele>
        <time>2022-10-26T08:00:25.000Z</time>
      </trkpt>
      <trkpt lat="43.63739" lon="5.43179">
        <ele>380.8</ele>
        <time>2022-10-26T08:00:28.000Z</time>
      </trkpt>
      <trkpt lat="43.63737" lon="5.43177">
        <ele>381.1</ele>
        <time>2022-10-26T08:00:31.000Z</time>
      </trkpt>
      <trkpt lat="43.63734" lon="5.43177">
        <ele>381.3</ele>
        <time>2022-10-26T08:00:34.000Z</time>
      </trkpt>
      <trkpt lat="43.63733" lon="5.43177">
        <ele>381.6</ele>
        <time>2022-10-26T08:00:36.000Z</time>
      </trkpt>
      <trkpt lat="43.6373" lon="5.43176">
        <ele>381.8</ele>
        <time>2022-10-26T08:00:38.000Z</time>
      </trkpt>
      <trkpt lat="43.63728" lon="5.43175">
        <ele>382.2</ele>
        <time>2022-10-26T08:00:40.000Z</time>
      </trkpt>
      <trkpt lat="43.63725" lon="5.43175">
        <ele>382.5</ele>
        <time>2022-10-26T08:00:42.000Z</time>
      </trkpt>
      <trkpt lat="43.63723" lon="5.43176">
        <ele>382.6</ele>
        <time>2022-10-26T08:00:44.000Z</time>
      </trkpt>
      <trkpt lat="43.63721" lon="5.43175">
        <ele>382.8</ele>
        <time>2022-10-26T08:00:46.000Z</time>
      </trkpt>
      <trkpt lat="43.63719" lon="5.43175">
        <ele>383</ele>
        <time>2022-10-26T08:00:48.000Z</time>
      </trkpt>
      <trkpt lat="43.63717" lon="5.43174">
        <ele>383.2</ele>
        <time>2022-10-26T08:00:51.000Z</time>
      </trkpt>
      <trkpt lat="43.63715" lon="5.43174">
        <ele>383.4</ele>
        <time>2022-10-26T08:00:53.000Z</time>
      </trkpt>
      <trkpt lat="43.63713" lon="5.43173">
        <ele>383.6</ele>
        <time>2022-10-26T08:00:55.000Z</time>
      </trkpt>
      <trkpt lat="43.6371" lon="5.43172">
        <ele>383.8</ele>
        <time>2022-10-26T08:00:57.000Z</time>
      </trkpt>
      <trkpt lat="43.63708" lon="5.43171">
        <ele>384</ele>
        <time>2022-10-26T08:00:59.000Z</time>
      </trkpt>
      <trkpt lat="43.63706" lon="5.43171">
        <ele>384.1</ele>
        <time>2022-10-26T08:01:01.000Z</time>
      </trkpt>
      <trkpt lat="43.63704" lon="5.43171">
        <ele>384.3</ele>
        <time>2022-10-26T08:01:03.000Z</time>
      </trkpt>
      <trkpt lat="43.63702" lon="5.43171">
        <ele>384.4</ele>
        <time>2022-10-26T08:01:05.000Z</time>
      </trkpt>
      <trkpt lat="43.63699" lon="5.4317">
        <ele>384.5</ele>
        <time>2022-10-26T08:01:07.000Z</time>
      </trkpt>
      <trkpt lat="43.63697" lon="5.43171">
        <ele>384.6</ele>
        <time>2022-10-26T08:01:09.000Z</time>
      </trkpt>
      <trkpt lat="43.63695" lon="5.4317">
        <ele>384.8</ele>
        <time>2022-10-26T08:01:11.000Z</time>
      </trkpt>
      <trkpt lat="43.63693" lon="5.4317">
        <ele>384.8</ele>
        <time>2022-10-26T08:01:13.000Z</time>
      </trkpt>
      <trkpt lat="43.6369" lon="5.4317">
        <ele>384.8</ele>
        <time>2022-10-26T08:01:15.000Z</time>
      </trkpt>
      <trkpt lat="43.63688" lon="5.43171">
        <ele>384.8</ele>
        <time>2022-10-26T08:01:17.000Z</time>
      </trkpt>
      <trkpt lat="43.63686" lon="5.4317">
        <ele>384.8</ele>
        <time>2022-10-26T08:01:19.000Z</time>
      </trkpt>
      <trkpt lat="43.63684" lon="5.43171">
        <ele>384.8</ele>
        <time>2022-10-26T08:01:21.000Z</time>
      </trkpt>
      <trkpt lat="43.63681" lon="5.43172">
        <ele>384.8</ele>
        <time>2022-10-26T08:01:23.000Z</time>
      </trkpt>
      <trkpt lat="43.63679" lon="5.43172">
        <ele>384.8</ele>
        <time>2022-10-26T08:01:25.000Z</time>
      </trkpt>
      <trkpt lat="43.63677" lon="5.43173">
        <ele>384.8</ele>
        <time>2022-10-26T08:01:27.000Z</time>
      </trkpt>
      <trkpt lat="43.63675" lon="5.43174">
        <ele>384.8</ele>
        <time>2022-10-26T08:01:29.000Z</time>
      </trkpt>
      <trkpt lat="43.63673" lon="5.43175">
        <ele>384.9</ele>
        <time>2022-10-26T08:01:31.000Z</time>
      </trkpt>
      <trkpt lat="43.6367" lon="5.43177">
        <ele>384.9</ele>
        <time>2022-10-26T08:01:33.000Z</time>
      </trkpt>
      <trkpt lat="43.63668" lon="5.43178">
        <ele>385</ele>
        <time>2022-10-26T08:01:35.000Z</time>
      </trkpt>
      <trkpt lat="43.63665" lon="5.4318">
        <ele>385</ele>
        <time>2022-10-26T08:01:37.000Z</time>
      </trkpt>
      <trkpt lat="43.63664" lon="5.43181">
        <ele>385.1</ele>
        <time>2022-10-26T08:01:39.000Z</time>
      </trkpt>
      <trkpt lat="43.63662" lon="5.43182">
        <ele>385.2</ele>
        <time>2022-10-26T08:01:41.000Z</time>
      </trkpt>
      <trkpt lat="43.6366" lon="5.43183">
        <ele>385.2</ele>
        <time>2022-10-26T08:01:43.000Z</time>
      </trkpt>
      <trkpt lat="43.63658" lon="5.43183">
        <ele>385.3</ele>
        <time>2022-10-26T08:01:45.000Z</time>
      </trkpt>
      <trkpt lat="43.63656" lon="5.43184">
        <ele>385.4</ele>
        <time>2022-10-26T08:01:47.000Z</time>
      </trkpt>
      <trkpt lat="43.63654" lon="5.43184">
        <ele>385.5</ele>
        <time>2022-10-26T08:01:49.000Z</time>
      </trkpt>
      <trkpt lat="43.63651" lon="5.43185">
        <ele>385.5</ele>
        <time>2022-10-26T08:01:51.000Z</time>
      </trkpt>
      <trkpt lat="43.63649" lon="5.43185">
        <ele>385.6</ele>
        <time>2022-10-26T08:01:53.000Z</time>
      </trkpt>
      <trkpt lat="43.63647" lon="5.43186">
        <ele>385.7</ele>
        <time>2022-10-26T08:01:55.000Z</time>
      </trkpt>
      <trkpt lat="43.63645" lon="5.43186">
        <ele>385.8</ele>
        <time>2022-10-26T08:01:57.000Z</time>
      </trkpt>
      <trkpt lat="43.63643" lon="5.43185">
        <ele>385.9</ele>
        <time>2022-10-26T08:01:59.000Z</time>
      </trkpt>
      <trkpt lat="43.63641" lon="5.43185">
        <ele>385.9</ele>
        <time>2022-10-26T08:02:01.000Z</time>
      </trkpt>
      <trkpt lat="43.63639" lon="5.43185">
        <ele>386</ele>
        <time>2022-10-26T08:02:03.000Z</time>
      </trkpt>
      <trkpt lat="43.63637" lon="5.43186">
        <ele>386.1</ele>
        <time>2022-10-26T08:02:05.000Z</time>
      </trkpt>
      <trkpt lat="43.63635" lon="5.43186">
        <ele>386.3</ele>
        <time>2022-10-26T08:02:07.000Z</time>
      </trkpt>
      <trkpt lat="43.63633" lon="5.43186">
        <ele>386.4</ele>
        <time>2022-10-26T08:02:09.000Z</time>
      </trkpt>
      <trkpt lat="43.63631" lon="5.43186">
        <ele>386.6</ele>
        <time>2022-10-26T08:02:11.000Z</time>
      </trkpt>
      <trkpt lat="43.63628" lon="5.43187">
        <ele>386.8</ele>
        <time>2022-10-26T08:02:13.000Z</time>
      </trkpt>
      <trkpt lat="43.63627" lon="5.43188">
        <ele>386.9</ele>
        <time>2022-10-26T08:02:15.000Z</time>
      </trkpt>
      <trkpt lat="43.63625" lon="5.4319">
        <ele>387</ele>
        <time>2022-10-26T08:02:17.000Z</time>
      </trkpt>
      <trkpt lat="43.63624" lon="5.43192">
        <ele>387.1</ele>
        <time>2022-10-26T08:02:19.000Z</time>
      </trkpt>
      <trkpt lat="43.63622" lon="5.43193">
        <ele>387.2</ele>
        <time>2022-10-26T08:02:21.000Z</time>
      </trkpt>
      <trkpt lat="43.63621" lon="5.43195">
        <ele>387.2</ele>
        <time>2022-10-26T08:02:23.000Z</time>
      </trkpt>
      <trkpt lat="43.63619" lon="5.43196">
        <ele>387.2</ele>
        <time>2022-10-26T08:02:25.000Z</time>
      </trkpt>
      <trkpt lat="43.63617" lon="5.43196">
        <ele>387.2</ele>
        <time>2022-10-26T08:02:27.000Z</time>
      </trkpt>
      <trkpt lat="43.63615" lon="5.43197">
        <ele>387.3</ele>
        <time>2022-10-26T08:02:29.000Z</time>
      </trkpt>
      <trkpt lat="43.63613" lon="5.43197">
        <ele>387.4</ele>
        <time>2022-10-26T08:02:31.000Z</time>
      </trkpt>
      <trkpt lat="43.63611" lon="5.43196">
        <ele>387.6</ele>
        <time>2022-10-26T08:02:33.000Z</time>
      </trkpt>
      <trkpt lat="43.63609" lon="5.43197">
        <ele>387.8</ele>
        <time>2022-10-26T08:02:36.000Z</time>
      </trkpt>
      <trkpt lat="43.63607" lon="5.43197">
        <ele>387.9</ele>
        <time>2022-10-26T08:02:38.000Z</time>
      </trkpt>
      <trkpt lat="43.63605" lon="5.43198">
        <ele>387.8</ele>
        <time>2022-10-26T08:02:40.000Z</time>
      </trkpt>
      <trkpt lat="43.63603" lon="5.432">
        <ele>387.8</ele>
        <time>2022-10-26T08:02:42.000Z</time>
      </trkpt>
      <trkpt lat="43.63601" lon="5.43201">
        <ele>387.7</ele>
        <time>2022-10-26T08:02:44.000Z</time>
      </trkpt>
      <trkpt lat="43.636" lon="5.43203">
        <ele>387.6</ele>
        <time>2022-10-26T08:02:46.000Z</time>
      </trkpt>
      <trkpt lat="43.63598" lon="5.43204">
        <ele>387.5</ele>
        <time>2022-10-26T08:02:48.000Z</time>
      </trkpt>
      <trkpt lat="43.63596" lon="5.43206">
        <ele>387.5</ele>
        <time>2022-10-26T08:02:50.000Z</time>
      </trkpt>
      <trkpt lat="43.63594" lon="5.43207">
        <ele>387.5</ele>
        <time>2022-10-26T08:02:52.000Z</time>
      </trkpt>
      <trkpt lat="43.63592" lon="5.43209">
        <ele>387.5</ele>
        <time>2022-10-26T08:02:54.000Z</time>
      </trkpt>
      <trkpt lat="43.63589" lon="5.4321">
        <ele>387.7</ele>
        <time>2022-10-26T08:02:57.000Z</time>
      </trkpt>
      <trkpt lat="43.63587" lon="5.4321">
        <ele>387.8</ele>
        <time>2022-10-26T08:02:59.000Z</time>
      </trkpt>
      <trkpt lat="43.63586" lon="5.43212">
        <ele>387.9</ele>
        <time>2022-10-26T08:03:01.000Z</time>
      </trkpt>
      <trkpt lat="43.63584" lon="5.43213">
        <ele>387.9</ele>
        <time>2022-10-26T08:03:03.000Z</time>
      </trkpt>
      <trkpt lat="43.63582" lon="5.43215">
        <ele>387.8</ele>
        <time>2022-10-26T08:03:05.000Z</time>
      </trkpt>
      <trkpt lat="43.63581" lon="5.43217">
        <ele>387.8</ele>
        <time>2022-10-26T08:03:07.000Z</time>
      </trkpt>
      <trkpt lat="43.63579" lon="5.43219">
        <ele>387.7</ele>
        <time>2022-10-26T08:03:09.000Z</time>
      </trkpt>
      <trkpt lat="43.63577" lon="5.4322">
        <ele>387.7</ele>
        <time>2022-10-26T08:03:11.000Z</time>
      </trkpt>
      <trkpt lat="43.63576" lon="5.43222">
        <ele>387.5</ele>
        <time>2022-10-26T08:03:13.000Z</time>
      </trkpt>
      <trkpt lat="43.63574" lon="5.43224">
        <ele>387.3</ele>
        <time>2022-10-26T08:03:15.000Z</time>
      </trkpt>
      <trkpt lat="43.63573" lon="5.43226">
        <ele>387</ele>
        <time>2022-10-26T08:03:17.000Z</time>
      </trkpt>
      <trkpt lat="43.63571" lon="5.43227">
        <ele>387</ele>
        <time>2022-10-26T08:03:19.000Z</time>
      </trkpt>
      <trkpt lat="43.6357" lon="5.43229">
        <ele>386.8</ele>
        <time>2022-10-26T08:03:21.000Z</time>
      </trkpt>
      <trkpt lat="43.63568" lon="5.43231">
        <ele>386.8</ele>
        <time>2022-10-26T08:03:23.000Z</time>
      </trkpt>
      <trkpt lat="43.63567" lon="5.43233">
        <ele>386.8</ele>
        <time>2022-10-26T08:03:25.000Z</time>
      </trkpt>
      <trkpt lat="43.63565" lon="5.43235">
        <ele>387</ele>
        <time>2022-10-26T08:03:27.000Z</time>
      </trkpt>
      <trkpt lat="43.63563" lon="5.43237">
        <ele>387.2</ele>
        <time>2022-10-26T08:03:29.000Z</time>
      </trkpt>
      <trkpt lat="43.63561" lon="5.43238">
        <ele>387.6</ele>
        <time>2022-10-26T08:03:31.000Z</time>
      </trkpt>
      <trkpt lat="43.63559" lon="5.4324">
        <ele>388</ele>
        <time>2022-10-26T08:03:33.000Z</time>
      </trkpt>
      <trkpt lat="43.63557" lon="5.43242">
        <ele>388.5</ele>
        <time>2022-10-26T08:03:35.000Z</time>
      </trkpt>
      <trkpt lat="43.63556" lon="5.43244">
        <ele>389</ele>
        <time>2022-10-26T08:03:37.000Z</time>
      </trkpt>
      <trkpt lat="43.63554" lon="5.43246">
        <ele>389.1</ele>
        <time>2022-10-26T08:03:39.000Z</time>
      </trkpt>
      <trkpt lat="43.63553" lon="5.43248">
        <ele>389.2</ele>
        <time>2022-10-26T08:03:41.000Z</time>
      </trkpt>
      <trkpt lat="43.63551" lon="5.4325">
        <ele>389.3</ele>
        <time>2022-10-26T08:03:43.000Z</time>
      </trkpt>
      <trkpt lat="43.6355" lon="5.43252">
        <ele>389</ele>
        <time>2022-10-26T08:03:45.000Z</time>
      </trkpt>
      <trkpt lat="43.63548" lon="5.43254">
        <ele>388.8</ele>
        <time>2022-10-26T08:03:47.000Z</time>
      </trkpt>
      <trkpt lat="43.63546" lon="5.43255">
        <ele>388.7</ele>
        <time>2022-10-26T08:03:49.000Z</time>
      </trkpt>
      <trkpt lat="43.63544" lon="5.43258">
        <ele>388.6</ele>
        <time>2022-10-26T08:03:51.000Z</time>
      </trkpt>
      <trkpt lat="43.63543" lon="5.43259">
        <ele>388.5</ele>
        <time>2022-10-26T08:03:53.000Z</time>
      </trkpt>
      <trkpt lat="43.63541" lon="5.43262">
        <ele>388.4</ele>
        <time>2022-10-26T08:03:55.000Z</time>
      </trkpt>
      <trkpt lat="43.6354" lon="5.43263">
        <ele>388.5</ele>
        <time>2022-10-26T08:03:57.000Z</time>
      </trkpt>
      <trkpt lat="43.63538" lon="5.43265">
        <ele>388.6</ele>
        <time>2022-10-26T08:03:59.000Z</time>
      </trkpt>
      <trkpt lat="43.63536" lon="5.43266">
        <ele>388.8</ele>
        <time>2022-10-26T08:04:01.000Z</time>
      </trkpt>
      <trkpt lat="43.63534" lon="5.43267">
        <ele>389</ele>
        <time>2022-10-26T08:04:03.000Z</time>
      </trkpt>
      <trkpt lat="43.63533" lon="5.43269">
        <ele>389.3</ele>
        <time>2022-10-26T08:04:05.000Z</time>
      </trkpt>
      <trkpt lat="43.63531" lon="5.43271">
        <ele>389.5</ele>
        <time>2022-10-26T08:04:07.000Z</time>
      </trkpt>
      <trkpt lat="43.63529" lon="5.43273">
        <ele>390</ele>
        <time>2022-10-26T08:04:10.000Z</time>
      </trkpt>
      <trkpt lat="43.63527" lon="5.43275">
        <ele>390.2</ele>
        <time>2022-10-26T08:04:13.000Z</time>
      </trkpt>
      <trkpt lat="43.63525" lon="5.43277">
        <ele>390.4</ele>
        <time>2022-10-26T08:04:15.000Z</time>
      </trkpt>
      <trkpt lat="43.63523" lon="5.43279">
        <ele>390.4</ele>
        <time>2022-10-26T08:04:17.000Z</time>
      </trkpt>
      <trkpt lat="43.63522" lon="5.43281">
        <ele>390.4</ele>
        <time>2022-10-26T08:04:19.000Z</time>
      </trkpt>
      <trkpt lat="43.6352" lon="5.43282">
        <ele>390.4</ele>
        <time>2022-10-26T08:04:21.000Z</time>
      </trkpt>
      <trkpt lat="43.63518" lon="5.43284">
        <ele>390.4</ele>
        <time>2022-10-26T08:04:23.000Z</time>
      </trkpt>
      <trkpt lat="43.63516" lon="5.43287">
        <ele>390.5</ele>
        <time>2022-10-26T08:04:25.000Z</time>
      </trkpt>
      <trkpt lat="43.63514" lon="5.43288">
        <ele>390.6</ele>
        <time>2022-10-26T08:04:27.000Z</time>
      </trkpt>
      <trkpt lat="43.63512" lon="5.43289">
        <ele>390.6</ele>
        <time>2022-10-26T08:04:29.000Z</time>
      </trkpt>
      <trkpt lat="43.63511" lon="5.43292">
        <ele>390.5</ele>
        <time>2022-10-26T08:04:31.000Z</time>
      </trkpt>
      <trkpt lat="43.6351" lon="5.43293">
        <ele>390.6</ele>
        <time>2022-10-26T08:04:33.000Z</time>
      </trkpt>
      <trkpt lat="43.63508" lon="5.43296">
        <ele>390.6</ele>
        <time>2022-10-26T08:04:35.000Z</time>
      </trkpt>
      <trkpt lat="43.63506" lon="5.43298">
        <ele>390.7</ele>
        <time>2022-10-26T08:04:37.000Z</time>
      </trkpt>
      <trkpt lat="43.63504" lon="5.43301">
        <ele>390.8</ele>
        <time>2022-10-26T08:04:39.000Z</time>
      </trkpt>
      <trkpt lat="43.63502" lon="5.43302">
        <ele>391.1</ele>
        <time>2022-10-26T08:04:41.000Z</time>
      </trkpt>
      <trkpt lat="43.635" lon="5.43303">
        <ele>391.3</ele>
        <time>2022-10-26T08:04:43.000Z</time>
      </trkpt>
      <trkpt lat="43.63498" lon="5.43304">
        <ele>391.4</ele>
        <time>2022-10-26T08:04:45.000Z</time>
      </trkpt>
      <trkpt lat="43.63496" lon="5.43305">
        <ele>391.6</ele>
        <time>2022-10-26T08:04:47.000Z</time>
      </trkpt>
      <trkpt lat="43.63494" lon="5.43306">
        <ele>391.6</ele>
        <time>2022-10-26T08:04:49.000Z</time>
      </trkpt>
      <trkpt lat="43.63492" lon="5.43307">
        <ele>391.5</ele>
        <time>2022-10-26T08:04:51.000Z</time>
      </trkpt>
      <trkpt lat="43.63491" lon="5.43308">
        <ele>391.2</ele>
        <time>2022-10-26T08:04:53.000Z</time>
      </trkpt>
      <trkpt lat="43.63489" lon="5.4331">
        <ele>390.7</ele>
        <time>2022-10-26T08:04:55.000Z</time>
      </trkpt>
      <trkpt lat="43.63487" lon="5.43312">
        <ele>390.5</ele>
        <time>2022-10-26T08:04:57.000Z</time>
      </trkpt>
      <trkpt lat="43.63485" lon="5.43313">
        <ele>390.4</ele>
        <time>2022-10-26T08:04:59.000Z</time>
      </trkpt>
      <trkpt lat="43.63483" lon="5.43314">
        <ele>390.3</ele>
        <time>2022-10-26T08:05:01.000Z</time>
      </trkpt>
      <trkpt lat="43.63481" lon="5.43316">
        <ele>390.3</ele>
        <time>2022-10-26T08:05:03.000Z</time>
      </trkpt>
      <trkpt lat="43.63479" lon="5.43316">
        <ele>390.6</ele>
        <time>2022-10-26T08:05:05.000Z</time>
      </trkpt>
      <trkpt lat="43.63477" lon="5.43315">
        <ele>391.1</ele>
        <time>2022-10-26T08:05:07.000Z</time>
      </trkpt>
      <trkpt lat="43.63475" lon="5.43316">
        <ele>391.3</ele>
        <time>2022-10-26T08:05:09.000Z</time>
      </trkpt>
      <trkpt lat="43.63473" lon="5.43317">
        <ele>391.5</ele>
        <time>2022-10-26T08:05:11.000Z</time>
      </trkpt>
      <trkpt lat="43.63471" lon="5.43317">
        <ele>391.7</ele>
        <time>2022-10-26T08:05:13.000Z</time>
      </trkpt>
      <trkpt lat="43.63469" lon="5.43318">
        <ele>391.8</ele>
        <time>2022-10-26T08:05:15.000Z</time>
      </trkpt>
      <trkpt lat="43.63467" lon="5.43319">
        <ele>392</ele>
        <time>2022-10-26T08:05:17.000Z</time>
      </trkpt>
      <trkpt lat="43.63465" lon="5.4332">
        <ele>392.1</ele>
        <time>2022-10-26T08:05:19.000Z</time>
      </trkpt>
      <trkpt lat="43.63463" lon="5.43321">
        <ele>392.3</ele>
        <time>2022-10-26T08:05:21.000Z</time>
      </trkpt>
      <trkpt lat="43.63461" lon="5.43324">
        <ele>392.3</ele>
        <time>2022-10-26T08:05:24.000Z</time>
      </trkpt>
      <trkpt lat="43.6346" lon="5.43325">
        <ele>392.4</ele>
        <time>2022-10-26T08:05:26.000Z</time>
      </trkpt>
      <trkpt lat="43.63457" lon="5.43326">
        <ele>392.7</ele>
        <time>2022-10-26T08:05:28.000Z</time>
      </trkpt>
      <trkpt lat="43.63455" lon="5.43328">
        <ele>393</ele>
        <time>2022-10-26T08:05:30.000Z</time>
      </trkpt>
      <trkpt lat="43.63454" lon="5.4333">
        <ele>393.1</ele>
        <time>2022-10-26T08:05:32.000Z</time>
      </trkpt>
      <trkpt lat="43.63452" lon="5.43331">
        <ele>393.4</ele>
        <time>2022-10-26T08:05:34.000Z</time>
      </trkpt>
      <trkpt lat="43.6345" lon="5.43332">
        <ele>393.9</ele>
        <time>2022-10-26T08:05:36.000Z</time>
      </trkpt>
      <trkpt lat="43.63448" lon="5.43333">
        <ele>394.3</ele>
        <time>2022-10-26T08:05:38.000Z</time>
      </trkpt>
      <trkpt lat="43.63445" lon="5.43333">
        <ele>394.8</ele>
        <time>2022-10-26T08:05:40.000Z</time>
      </trkpt>
      <trkpt lat="43.63444" lon="5.43335">
        <ele>394.7</ele>
        <time>2022-10-26T08:05:42.000Z</time>
      </trkpt>
      <trkpt lat="43.63442" lon="5.43337">
        <ele>394.3</ele>
        <time>2022-10-26T08:05:44.000Z</time>
      </trkpt>
      <trkpt lat="43.6344" lon="5.43338">
        <ele>394.2</ele>
        <time>2022-10-26T08:05:46.000Z</time>
      </trkpt>
      <trkpt lat="43.63438" lon="5.4334">
        <ele>393.8</ele>
        <time>2022-10-26T08:05:48.000Z</time>
      </trkpt>
      <trkpt lat="43.63437" lon="5.43342">
        <ele>393.5</ele>
        <time>2022-10-26T08:05:50.000Z</time>
      </trkpt>
      <trkpt lat="43.63435" lon="5.43344">
        <ele>393.4</ele>
        <time>2022-10-26T08:05:52.000Z</time>
      </trkpt>
      <trkpt lat="43.63433" lon="5.43345">
        <ele>393.5</ele>
        <time>2022-10-26T08:05:54.000Z</time>
      </trkpt>
      <trkpt lat="43.63431" lon="5.43346">
        <ele>393.6</ele>
        <time>2022-10-26T08:05:56.000Z</time>
      </trkpt>
      <trkpt lat="43.63429" lon="5.43347">
        <ele>394</ele>
        <time>2022-10-26T08:05:58.000Z</time>
      </trkpt>
      <trkpt lat="43.63426" lon="5.43348">
        <ele>394.3</ele>
        <time>2022-10-26T08:06:00.000Z</time>
      </trkpt>
      <trkpt lat="43.63425" lon="5.43349">
        <ele>394.5</ele>
        <time>2022-10-26T08:06:02.000Z</time>
      </trkpt>
      <trkpt lat="43.63422" lon="5.43349">
        <ele>395</ele>
        <time>2022-10-26T08:06:04.000Z</time>
      </trkpt>
      <trkpt lat="43.63421" lon="5.4335">
        <ele>395.3</ele>
        <time>2022-10-26T08:06:06.000Z</time>
      </trkpt>
      <trkpt lat="43.63419" lon="5.4335">
        <ele>395.7</ele>
        <time>2022-10-26T08:06:08.000Z</time>
      </trkpt>
      <trkpt lat="43.63417" lon="5.43351">
        <ele>396.1</ele>
        <time>2022-10-26T08:06:10.000Z</time>
      </trkpt>
      <trkpt lat="43.63415" lon="5.43351">
        <ele>396.2</ele>
        <time>2022-10-26T08:06:12.000Z</time>
      </trkpt>
      <trkpt lat="43.63413" lon="5.43352">
        <ele>396.4</ele>
        <time>2022-10-26T08:06:14.000Z</time>
      </trkpt>
      <trkpt lat="43.6341" lon="5.43352">
        <ele>396.6</ele>
        <time>2022-10-26T08:06:16.000Z</time>
      </trkpt>
      <trkpt lat="43.63408" lon="5.43352">
        <ele>396.7</ele>
        <time>2022-10-26T08:06:18.000Z</time>
      </trkpt>
      <trkpt lat="43.63406" lon="5.43353">
        <ele>396.8</ele>
        <time>2022-10-26T08:06:20.000Z</time>
      </trkpt>
      <trkpt lat="43.63404" lon="5.43353">
        <ele>396.9</ele>
        <time>2022-10-26T08:06:22.000Z</time>
      </trkpt>
      <trkpt lat="43.63402" lon="5.43353">
        <ele>397.1</ele>
        <time>2022-10-26T08:06:24.000Z</time>
      </trkpt>
      <trkpt lat="43.63399" lon="5.43354">
        <ele>397.2</ele>
        <time>2022-10-26T08:06:26.000Z</time>
      </trkpt>
      <trkpt lat="43.63396" lon="5.43354">
        <ele>397.4</ele>
        <time>2022-10-26T08:06:28.000Z</time>
      </trkpt>
      <trkpt lat="43.63394" lon="5.43354">
        <ele>397.6</ele>
        <time>2022-10-26T08:06:30.000Z</time>
      </trkpt>
      <trkpt lat="43.63392" lon="5.43354">
        <ele>397.8</ele>
        <time>2022-10-26T08:06:32.000Z</time>
      </trkpt>
      <trkpt lat="43.6339" lon="5.43354">
        <ele>397.9</ele>
        <time>2022-10-26T08:06:34.000Z</time>
      </trkpt>
      <trkpt lat="43.63388" lon="5.43354">
        <ele>398.1</ele>
        <time>2022-10-26T08:06:36.000Z</time>
      </trkpt>
      <trkpt lat="43.63386" lon="5.43355">
        <ele>398.2</ele>
        <time>2022-10-26T08:06:38.000Z</time>
      </trkpt>
      <trkpt lat="43.63384" lon="5.43355">
        <ele>398.2</ele>
        <time>2022-10-26T08:06:40.000Z</time>
      </trkpt>
      <trkpt lat="43.63382" lon="5.43356">
        <ele>398.3</ele>
        <time>2022-10-26T08:06:42.000Z</time>
      </trkpt>
      <trkpt lat="43.6338" lon="5.43356">
        <ele>398.3</ele>
        <time>2022-10-26T08:06:44.000Z</time>
      </trkpt>
      <trkpt lat="43.63378" lon="5.43357">
        <ele>398.3</ele>
        <time>2022-10-26T08:06:46.000Z</time>
      </trkpt>
      <trkpt lat="43.63376" lon="5.43358">
        <ele>398.4</ele>
        <time>2022-10-26T08:06:48.000Z</time>
      </trkpt>
      <trkpt lat="43.63374" lon="5.43359">
        <ele>398.4</ele>
        <time>2022-10-26T08:06:50.000Z</time>
      </trkpt>
      <trkpt lat="43.63372" lon="5.43359">
        <ele>398.5</ele>
        <time>2022-10-26T08:06:52.000Z</time>
      </trkpt>
      <trkpt lat="43.6337" lon="5.4336">
        <ele>398.6</ele>
        <time>2022-10-26T08:06:54.000Z</time>
      </trkpt>
      <trkpt lat="43.63368" lon="5.4336">
        <ele>398.6</ele>
        <time>2022-10-26T08:06:56.000Z</time>
      </trkpt>
      <trkpt lat="43.63366" lon="5.43361">
        <ele>398.7</ele>
        <time>2022-10-26T08:06:58.000Z</time>
      </trkpt>
      <trkpt lat="43.63363" lon="5.43362">
        <ele>398.6</ele>
        <time>2022-10-26T08:07:00.000Z</time>
      </trkpt>
      <trkpt lat="43.63361" lon="5.43362">
        <ele>398.6</ele>
        <time>2022-10-26T08:07:02.000Z</time>
      </trkpt>
      <trkpt lat="43.63358" lon="5.43363">
        <ele>398.6</ele>
        <time>2022-10-26T08:07:04.000Z</time>
      </trkpt>
      <trkpt lat="43.63356" lon="5.43363">
        <ele>398.4</ele>
        <time>2022-10-26T08:07:07.000Z</time>
      </trkpt>
      <trkpt lat="43.63354" lon="5.43364">
        <ele>398.3</ele>
        <time>2022-10-26T08:07:09.000Z</time>
      </trkpt>
      <trkpt lat="43.63352" lon="5.43365">
        <ele>398.1</ele>
        <time>2022-10-26T08:07:11.000Z</time>
      </trkpt>
      <trkpt lat="43.6335" lon="5.43365">
        <ele>397.9</ele>
        <time>2022-10-26T08:07:13.000Z</time>
      </trkpt>
      <trkpt lat="43.63348" lon="5.43366">
        <ele>397.6</ele>
        <time>2022-10-26T08:07:15.000Z</time>
      </trkpt>
      <trkpt lat="43.63346" lon="5.43367">
        <ele>397.7</ele>
        <time>2022-10-26T08:07:17.000Z</time>
      </trkpt>
      <trkpt lat="43.63344" lon="5.43367">
        <ele>397.5</ele>
        <time>2022-10-26T08:07:19.000Z</time>
      </trkpt>
      <trkpt lat="43.63342" lon="5.43368">
        <ele>397.3</ele>
        <time>2022-10-26T08:07:21.000Z</time>
      </trkpt>
      <trkpt lat="43.6334" lon="5.43369">
        <ele>397.1</ele>
        <time>2022-10-26T08:07:23.000Z</time>
      </trkpt>
      <trkpt lat="43.63338" lon="5.4337">
        <ele>396.9</ele>
        <time>2022-10-26T08:07:25.000Z</time>
      </trkpt>
      <trkpt lat="43.63336" lon="5.43371">
        <ele>396.8</ele>
        <time>2022-10-26T08:07:27.000Z</time>
      </trkpt>
      <trkpt lat="43.63334" lon="5.43371">
        <ele>396.9</ele>
        <time>2022-10-26T08:07:29.000Z</time>
      </trkpt>
      <trkpt lat="43.63332" lon="5.43371">
        <ele>396.8</ele>
        <time>2022-10-26T08:07:31.000Z</time>
      </trkpt>
      <trkpt lat="43.6333" lon="5.43372">
        <ele>396.7</ele>
        <time>2022-10-26T08:07:33.000Z</time>
      </trkpt>
      <trkpt lat="43.63328" lon="5.43373">
        <ele>396.6</ele>
        <time>2022-10-26T08:07:35.000Z</time>
      </trkpt>
      <trkpt lat="43.63326" lon="5.43374">
        <ele>396.5</ele>
        <time>2022-10-26T08:07:37.000Z</time>
      </trkpt>
      <trkpt lat="43.63323" lon="5.43374">
        <ele>396.6</ele>
        <time>2022-10-26T08:07:39.000Z</time>
      </trkpt>
      <trkpt lat="43.63321" lon="5.43374">
        <ele>396.6</ele>
        <time>2022-10-26T08:07:41.000Z</time>
      </trkpt>
      <trkpt lat="43.63319" lon="5.43376">
        <ele>396.3</ele>
        <time>2022-10-26T08:07:44.000Z</time>
      </trkpt>
      <trkpt lat="43.63317" lon="5.43376">
        <ele>396.3</ele>
        <time>2022-10-26T08:07:46.000Z</time>
      </trkpt>
      <trkpt lat="43.63314" lon="5.43377">
        <ele>396.4</ele>
        <time>2022-10-26T08:07:48.000Z</time>
      </trkpt>
      <trkpt lat="43.63312" lon="5.43377">
        <ele>396.4</ele>
        <time>2022-10-26T08:07:50.000Z</time>
      </trkpt>
      <trkpt lat="43.6331" lon="5.43378">
        <ele>396.4</ele>
        <time>2022-10-26T08:07:52.000Z</time>
      </trkpt>
      <trkpt lat="43.63308" lon="5.43378">
        <ele>396.6</ele>
        <time>2022-10-26T08:07:54.000Z</time>
      </trkpt>
      <trkpt lat="43.63306" lon="5.43378">
        <ele>396.6</ele>
        <time>2022-10-26T08:07:56.000Z</time>
      </trkpt>
      <trkpt lat="43.63304" lon="5.43379">
        <ele>396.8</ele>
        <time>2022-10-26T08:07:58.000Z</time>
      </trkpt>
      <trkpt lat="43.63302" lon="5.4338">
        <ele>396.8</ele>
        <time>2022-10-26T08:08:00.000Z</time>
      </trkpt>
      <trkpt lat="43.63299" lon="5.4338">
        <ele>397</ele>
        <time>2022-10-26T08:08:02.000Z</time>
      </trkpt>
      <trkpt lat="43.63296" lon="5.43381">
        <ele>397.1</ele>
        <time>2022-10-26T08:08:04.000Z</time>
      </trkpt>
      <trkpt lat="43.63294" lon="5.43381">
        <ele>397.2</ele>
        <time>2022-10-26T08:08:06.000Z</time>
      </trkpt>
      <trkpt lat="43.63293" lon="5.43383">
        <ele>397.2</ele>
        <time>2022-10-26T08:08:08.000Z</time>
      </trkpt>
      <trkpt lat="43.63291" lon="5.43384">
        <ele>397.1</ele>
        <time>2022-10-26T08:08:10.000Z</time>
      </trkpt>
      <trkpt lat="43.63289" lon="5.43384">
        <ele>397.3</ele>
        <time>2022-10-26T08:08:12.000Z</time>
      </trkpt>
      <trkpt lat="43.63287" lon="5.43386">
        <ele>397.3</ele>
        <time>2022-10-26T08:08:14.000Z</time>
      </trkpt>
      <trkpt lat="43.63285" lon="5.43386">
        <ele>397.4</ele>
        <time>2022-10-26T08:08:16.000Z</time>
      </trkpt>
      <trkpt lat="43.63283" lon="5.43388">
        <ele>397.4</ele>
        <time>2022-10-26T08:08:18.000Z</time>
      </trkpt>
      <trkpt lat="43.6328" lon="5.43389">
        <ele>397.6</ele>
        <time>2022-10-26T08:08:20.000Z</time>
      </trkpt>
      <trkpt lat="43.63279" lon="5.4339">
        <ele>397.4</ele>
        <time>2022-10-26T08:08:22.000Z</time>
      </trkpt>
      <trkpt lat="43.63277" lon="5.43391">
        <ele>397.4</ele>
        <time>2022-10-26T08:08:24.000Z</time>
      </trkpt>
      <trkpt lat="43.63274" lon="5.43392">
        <ele>397.4</ele>
        <time>2022-10-26T08:08:26.000Z</time>
      </trkpt>
      <trkpt lat="43.63272" lon="5.43392">
        <ele>397.6</ele>
        <time>2022-10-26T08:08:28.000Z</time>
      </trkpt>
      <trkpt lat="43.6327" lon="5.43393">
        <ele>397.8</ele>
        <time>2022-10-26T08:08:30.000Z</time>
      </trkpt>
      <trkpt lat="43.63267" lon="5.43393">
        <ele>397.9</ele>
        <time>2022-10-26T08:08:32.000Z</time>
      </trkpt>
      <trkpt lat="43.63264" lon="5.43393">
        <ele>398.3</ele>
        <time>2022-10-26T08:08:34.000Z</time>
      </trkpt>
      <trkpt lat="43.63262" lon="5.43394">
        <ele>398.4</ele>
        <time>2022-10-26T08:08:36.000Z</time>
      </trkpt>
      <trkpt lat="43.6326" lon="5.43394">
        <ele>398.6</ele>
        <time>2022-10-26T08:08:38.000Z</time>
      </trkpt>
      <trkpt lat="43.63258" lon="5.43394">
        <ele>398.7</ele>
        <time>2022-10-26T08:08:40.000Z</time>
      </trkpt>
      <trkpt lat="43.63255" lon="5.43394">
        <ele>399</ele>
        <time>2022-10-26T08:08:42.000Z</time>
      </trkpt>
      <trkpt lat="43.63253" lon="5.43395">
        <ele>399.2</ele>
        <time>2022-10-26T08:08:44.000Z</time>
      </trkpt>
      <trkpt lat="43.63251" lon="5.43395">
        <ele>399.5</ele>
        <time>2022-10-26T08:08:46.000Z</time>
      </trkpt>
      <trkpt lat="43.63249" lon="5.43395">
        <ele>399.6</ele>
        <time>2022-10-26T08:08:48.000Z</time>
      </trkpt>
      <trkpt lat="43.63247" lon="5.43395">
        <ele>399.6</ele>
        <time>2022-10-26T08:08:50.000Z</time>
      </trkpt>
      <trkpt lat="43.63244" lon="5.43396">
        <ele>399.6</ele>
        <time>2022-10-26T08:08:52.000Z</time>
      </trkpt>
      <trkpt lat="43.63242" lon="5.43396">
        <ele>399.5</ele>
        <time>2022-10-26T08:08:54.000Z</time>
      </trkpt>
      <trkpt lat="43.6324" lon="5.43397">
        <ele>399.5</ele>
        <time>2022-10-26T08:08:56.000Z</time>
      </trkpt>
      <trkpt lat="43.63238" lon="5.43397">
        <ele>399.6</ele>
        <time>2022-10-26T08:08:58.000Z</time>
      </trkpt>
      <trkpt lat="43.63236" lon="5.43398">
        <ele>399.5</ele>
        <time>2022-10-26T08:09:00.000Z</time>
      </trkpt>
      <trkpt lat="43.63234" lon="5.43399">
        <ele>399.5</ele>
        <time>2022-10-26T08:09:02.000Z</time>
      </trkpt>
      <trkpt lat="43.63232" lon="5.43399">
        <ele>399.5</ele>
        <time>2022-10-26T08:09:04.000Z</time>
      </trkpt>
      <trkpt lat="43.63229" lon="5.43401">
        <ele>399.4</ele>
        <time>2022-10-26T08:09:06.000Z</time>
      </trkpt>
      <trkpt lat="43.63227" lon="5.43402">
        <ele>399.3</ele>
        <time>2022-10-26T08:09:08.000Z</time>
      </trkpt>
      <trkpt lat="43.63225" lon="5.43404">
        <ele>399.1</ele>
        <time>2022-10-26T08:09:10.000Z</time>
      </trkpt>
      <trkpt lat="43.63223" lon="5.43405">
        <ele>399</ele>
        <time>2022-10-26T08:09:12.000Z</time>
      </trkpt>
      <trkpt lat="43.63221" lon="5.43406">
        <ele>399.1</ele>
        <time>2022-10-26T08:09:14.000Z</time>
      </trkpt>
      <trkpt lat="43.63219" lon="5.43408">
        <ele>398.9</ele>
        <time>2022-10-26T08:09:16.000Z</time>
      </trkpt>
      <trkpt lat="43.63217" lon="5.43409">
        <ele>398.8</ele>
        <time>2022-10-26T08:09:18.000Z</time>
      </trkpt>
      <trkpt lat="43.63216" lon="5.43411">
        <ele>398.7</ele>
        <time>2022-10-26T08:09:20.000Z</time>
      </trkpt>
      <trkpt lat="43.63214" lon="5.43413">
        <ele>398.7</ele>
        <time>2022-10-26T08:09:22.000Z</time>
      </trkpt>
      <trkpt lat="43.63212" lon="5.43415">
        <ele>398.7</ele>
        <time>2022-10-26T08:09:24.000Z</time>
      </trkpt>
      <trkpt lat="43.6321" lon="5.43417">
        <ele>398.6</ele>
        <time>2022-10-26T08:09:26.000Z</time>
      </trkpt>
      <trkpt lat="43.63209" lon="5.4342">
        <ele>398.4</ele>
        <time>2022-10-26T08:09:28.000Z</time>
      </trkpt>
      <trkpt lat="43.63207" lon="5.43422">
        <ele>398.4</ele>
        <time>2022-10-26T08:09:30.000Z</time>
      </trkpt>
      <trkpt lat="43.63205" lon="5.43423">
        <ele>398.5</ele>
        <time>2022-10-26T08:09:32.000Z</time>
      </trkpt>
      <trkpt lat="43.63202" lon="5.43425">
        <ele>398.6</ele>
        <time>2022-10-26T08:09:34.000Z</time>
      </trkpt>
      <trkpt lat="43.632" lon="5.43426">
        <ele>398.8</ele>
        <time>2022-10-26T08:09:36.000Z</time>
      </trkpt>
      <trkpt lat="43.63199" lon="5.43428">
        <ele>398.9</ele>
        <time>2022-10-26T08:09:38.000Z</time>
      </trkpt>
      <trkpt lat="43.63197" lon="5.4343">
        <ele>399.1</ele>
        <time>2022-10-26T08:09:40.000Z</time>
      </trkpt>
      <trkpt lat="43.63195" lon="5.43432">
        <ele>399.2</ele>
        <time>2022-10-26T08:09:42.000Z</time>
      </trkpt>
      <trkpt lat="43.63193" lon="5.43434">
        <ele>399.1</ele>
        <time>2022-10-26T08:09:44.000Z</time>
      </trkpt>
      <trkpt lat="43.63192" lon="5.43437">
        <ele>399</ele>
        <time>2022-10-26T08:09:46.000Z</time>
      </trkpt>
      <trkpt lat="43.6319" lon="5.43439">
        <ele>398.8</ele>
        <time>2022-10-26T08:09:48.000Z</time>
      </trkpt>
      <trkpt lat="43.63188" lon="5.43441">
        <ele>398.8</ele>
        <time>2022-10-26T08:09:50.000Z</time>
      </trkpt>
      <trkpt lat="43.63186" lon="5.43443">
        <ele>398.7</ele>
        <time>2022-10-26T08:09:52.000Z</time>
      </trkpt>
      <trkpt lat="43.63184" lon="5.43444">
        <ele>398.7</ele>
        <time>2022-10-26T08:09:54.000Z</time>
      </trkpt>
      <trkpt lat="43.63183" lon="5.43447">
        <ele>398.5</ele>
        <time>2022-10-26T08:09:56.000Z</time>
      </trkpt>
      <trkpt lat="43.63181" lon="5.43448">
        <ele>398.4</ele>
        <time>2022-10-26T08:09:58.000Z</time>
      </trkpt>
      <trkpt lat="43.63179" lon="5.4345">
        <ele>398.3</ele>
        <time>2022-10-26T08:10:00.000Z</time>
      </trkpt>
      <trkpt lat="43.63177" lon="5.43452">
        <ele>398.3</ele>
        <time>2022-10-26T08:10:02.000Z</time>
      </trkpt>
      <trkpt lat="43.63176" lon="5.43453">
        <ele>398.3</ele>
        <time>2022-10-26T08:10:04.000Z</time>
      </trkpt>
      <trkpt lat="43.63174" lon="5.43455">
        <ele>398.4</ele>
        <time>2022-10-26T08:10:06.000Z</time>
      </trkpt>
      <trkpt lat="43.63172" lon="5.43457">
        <ele>398.4</ele>
        <time>2022-10-26T08:10:08.000Z</time>
      </trkpt>
      <trkpt lat="43.63171" lon="5.43459">
        <ele>398.4</ele>
        <time>2022-10-26T08:10:10.000Z</time>
      </trkpt>
      <trkpt lat="43.63169" lon="5.43461">
        <ele>398.5</ele>
        <time>2022-10-26T08:10:12.000Z</time>
      </trkpt>
      <trkpt lat="43.63167" lon="5.43463">
        <ele>398.7</ele>
        <time>2022-10-26T08:10:14.000Z</time>
      </trkpt>
      <trkpt lat="43.63165" lon="5.43465">
        <ele>398.5</ele>
        <time>2022-10-26T08:10:16.000Z</time>
      </trkpt>
      <trkpt lat="43.63164" lon="5.43468">
        <ele>398.3</ele>
        <time>2022-10-26T08:10:18.000Z</time>
      </trkpt>
      <trkpt lat="43.63162" lon="5.43471">
        <ele>398.1</ele>
        <time>2022-10-26T08:10:20.000Z</time>
      </trkpt>
      <trkpt lat="43.6316" lon="5.43473">
        <ele>397.9</ele>
        <time>2022-10-26T08:10:22.000Z</time>
      </trkpt>
      <trkpt lat="43.63158" lon="5.43475">
        <ele>397.8</ele>
        <time>2022-10-26T08:10:24.000Z</time>
      </trkpt>
      <trkpt lat="43.63156" lon="5.43476">
        <ele>397.8</ele>
        <time>2022-10-26T08:10:26.000Z</time>
      </trkpt>
      <trkpt lat="43.63154" lon="5.43478">
        <ele>397.7</ele>
        <time>2022-10-26T08:10:28.000Z</time>
      </trkpt>
      <trkpt lat="43.63152" lon="5.4348">
        <ele>397.7</ele>
        <time>2022-10-26T08:10:30.000Z</time>
      </trkpt>
      <trkpt lat="43.6315" lon="5.43482">
        <ele>397.8</ele>
        <time>2022-10-26T08:10:32.000Z</time>
      </trkpt>
      <trkpt lat="43.63148" lon="5.43485">
        <ele>397.8</ele>
        <time>2022-10-26T08:10:34.000Z</time>
      </trkpt>
      <trkpt lat="43.63147" lon="5.43488">
        <ele>397.9</ele>
        <time>2022-10-26T08:10:36.000Z</time>
      </trkpt>
      <trkpt lat="43.63145" lon="5.4349">
        <ele>398.1</ele>
        <time>2022-10-26T08:10:38.000Z</time>
      </trkpt>
      <trkpt lat="43.63144" lon="5.43492">
        <ele>398.2</ele>
        <time>2022-10-26T08:10:40.000Z</time>
      </trkpt>
      <trkpt lat="43.63142" lon="5.43495">
        <ele>398.4</ele>
        <time>2022-10-26T08:10:42.000Z</time>
      </trkpt>
      <trkpt lat="43.63141" lon="5.43497">
        <ele>398.6</ele>
        <time>2022-10-26T08:10:44.000Z</time>
      </trkpt>
      <trkpt lat="43.6314" lon="5.435">
        <ele>398.8</ele>
        <time>2022-10-26T08:10:46.000Z</time>
      </trkpt>
      <trkpt lat="43.63139" lon="5.43502">
        <ele>399.1</ele>
        <time>2022-10-26T08:10:48.000Z</time>
      </trkpt>
      <trkpt lat="43.63138" lon="5.43505">
        <ele>399.2</ele>
        <time>2022-10-26T08:10:50.000Z</time>
      </trkpt>
      <trkpt lat="43.63136" lon="5.43508">
        <ele>399.3</ele>
        <time>2022-10-26T08:10:52.000Z</time>
      </trkpt>
      <trkpt lat="43.63135" lon="5.43511">
        <ele>399.5</ele>
        <time>2022-10-26T08:10:54.000Z</time>
      </trkpt>
      <trkpt lat="43.63134" lon="5.43514">
        <ele>399.7</ele>
        <time>2022-10-26T08:10:56.000Z</time>
      </trkpt>
      <trkpt lat="43.63133" lon="5.43516">
        <ele>399.9</ele>
        <time>2022-10-26T08:10:58.000Z</time>
      </trkpt>
      <trkpt lat="43.63131" lon="5.43518">
        <ele>400</ele>
        <time>2022-10-26T08:11:00.000Z</time>
      </trkpt>
      <trkpt lat="43.6313" lon="5.43521">
        <ele>400.2</ele>
        <time>2022-10-26T08:11:02.000Z</time>
      </trkpt>
      <trkpt lat="43.63128" lon="5.43524">
        <ele>400.5</ele>
        <time>2022-10-26T08:11:05.000Z</time>
      </trkpt>
      <trkpt lat="43.63126" lon="5.43526">
        <ele>400.8</ele>
        <time>2022-10-26T08:11:07.000Z</time>
      </trkpt>
      <trkpt lat="43.63125" lon="5.43527">
        <ele>401</ele>
        <time>2022-10-26T08:11:09.000Z</time>
      </trkpt>
      <trkpt lat="43.63123" lon="5.43529">
        <ele>401.2</ele>
        <time>2022-10-26T08:11:11.000Z</time>
      </trkpt>
      <trkpt lat="43.63121" lon="5.43531">
        <ele>401.4</ele>
        <time>2022-10-26T08:11:13.000Z</time>
      </trkpt>
      <trkpt lat="43.63119" lon="5.43533">
        <ele>401.5</ele>
        <time>2022-10-26T08:11:15.000Z</time>
      </trkpt>
      <trkpt lat="43.63117" lon="5.43535">
        <ele>401.7</ele>
        <time>2022-10-26T08:11:17.000Z</time>
      </trkpt>
      <trkpt lat="43.63115" lon="5.43537">
        <ele>402</ele>
        <time>2022-10-26T08:11:19.000Z</time>
      </trkpt>
      <trkpt lat="43.63113" lon="5.43539">
        <ele>402.2</ele>
        <time>2022-10-26T08:11:21.000Z</time>
      </trkpt>
      <trkpt lat="43.63112" lon="5.43541">
        <ele>402.4</ele>
        <time>2022-10-26T08:11:23.000Z</time>
      </trkpt>
      <trkpt lat="43.6311" lon="5.43543">
        <ele>402.6</ele>
        <time>2022-10-26T08:11:25.000Z</time>
      </trkpt>
      <trkpt lat="43.63109" lon="5.43546">
        <ele>402.7</ele>
        <time>2022-10-26T08:11:27.000Z</time>
      </trkpt>
      <trkpt lat="43.63108" lon="5.43549">
        <ele>402.8</ele>
        <time>2022-10-26T08:11:29.000Z</time>
      </trkpt>
      <trkpt lat="43.63106" lon="5.4355">
        <ele>402.9</ele>
        <time>2022-10-26T08:11:31.000Z</time>
      </trkpt>
      <trkpt lat="43.63105" lon="5.43551">
        <ele>403</ele>
        <time>2022-10-26T08:11:33.000Z</time>
      </trkpt>
      <trkpt lat="43.63103" lon="5.43554">
        <ele>403.2</ele>
        <time>2022-10-26T08:11:35.000Z</time>
      </trkpt>
      <trkpt lat="43.631" lon="5.43556">
        <ele>403.4</ele>
        <time>2022-10-26T08:11:37.000Z</time>
      </trkpt>
      <trkpt lat="43.63098" lon="5.43558">
        <ele>403.5</ele>
        <time>2022-10-26T08:11:39.000Z</time>
      </trkpt>
      <trkpt lat="43.63096" lon="5.4356">
        <ele>403.6</ele>
        <time>2022-10-26T08:11:42.000Z</time>
      </trkpt>
      <trkpt lat="43.63093" lon="5.43562">
        <ele>403.8</ele>
        <time>2022-10-26T08:11:45.000Z</time>
      </trkpt>
      <trkpt lat="43.63092" lon="5.43564">
        <ele>403.9</ele>
        <time>2022-10-26T08:11:47.000Z</time>
      </trkpt>
      <trkpt lat="43.63089" lon="5.43566">
        <ele>404.1</ele>
        <time>2022-10-26T08:11:49.000Z</time>
      </trkpt>
      <trkpt lat="43.63088" lon="5.43568">
        <ele>404.2</ele>
        <time>2022-10-26T08:11:51.000Z</time>
      </trkpt>
      <trkpt lat="43.63086" lon="5.43571">
        <ele>404.4</ele>
        <time>2022-10-26T08:11:54.000Z</time>
      </trkpt>
      <trkpt lat="43.63084" lon="5.43572">
        <ele>404.6</ele>
        <time>2022-10-26T08:11:56.000Z</time>
      </trkpt>
      <trkpt lat="43.63083" lon="5.43575">
        <ele>404.7</ele>
        <time>2022-10-26T08:11:58.000Z</time>
      </trkpt>
      <trkpt lat="43.63082" lon="5.43577">
        <ele>404.7</ele>
        <time>2022-10-26T08:12:00.000Z</time>
      </trkpt>
      <trkpt lat="43.63081" lon="5.43579">
        <ele>404.7</ele>
        <time>2022-10-26T08:12:02.000Z</time>
      </trkpt>
      <trkpt lat="43.6308" lon="5.43582">
        <ele>404.8</ele>
        <time>2022-10-26T08:12:04.000Z</time>
      </trkpt>
      <trkpt lat="43.63078" lon="5.43584">
        <ele>404.8</ele>
        <time>2022-10-26T08:12:06.000Z</time>
      </trkpt>
      <trkpt lat="43.63076" lon="5.43586">
        <ele>404.8</ele>
        <time>2022-10-26T08:12:08.000Z</time>
      </trkpt>
      <trkpt lat="43.63074" lon="5.43587">
        <ele>404.7</ele>
        <time>2022-10-26T08:12:10.000Z</time>
      </trkpt>
      <trkpt lat="43.63072" lon="5.43589">
        <ele>404.7</ele>
        <time>2022-10-26T08:12:12.000Z</time>
      </trkpt>
      <trkpt lat="43.63071" lon="5.43591">
        <ele>404.7</ele>
        <time>2022-10-26T08:12:14.000Z</time>
      </trkpt>
      <trkpt lat="43.63069" lon="5.43594">
        <ele>404.7</ele>
        <time>2022-10-26T08:12:16.000Z</time>
      </trkpt>
      <trkpt lat="43.63068" lon="5.43597">
        <ele>404.7</ele>
        <time>2022-10-26T08:12:18.000Z</time>
      </trkpt>
      <trkpt lat="43.63067" lon="5.43599">
        <ele>404.7</ele>
        <time>2022-10-26T08:12:20.000Z</time>
      </trkpt>
      <trkpt lat="43.63066" lon="5.43601">
        <ele>404.8</ele>
        <time>2022-10-26T08:12:22.000Z</time>
      </trkpt>
      <trkpt lat="43.63065" lon="5.43604">
        <ele>404.8</ele>
        <time>2022-10-26T08:12:24.000Z</time>
      </trkpt>
      <trkpt lat="43.63064" lon="5.43607">
        <ele>404.9</ele>
        <time>2022-10-26T08:12:26.000Z</time>
      </trkpt>
      <trkpt lat="43.63063" lon="5.43609">
        <ele>405</ele>
        <time>2022-10-26T08:12:28.000Z</time>
      </trkpt>
      <trkpt lat="43.63063" lon="5.43612">
        <ele>405</ele>
        <time>2022-10-26T08:12:30.000Z</time>
      </trkpt>
      <trkpt lat="43.63062" lon="5.43615">
        <ele>405</ele>
        <time>2022-10-26T08:12:32.000Z</time>
      </trkpt>
      <trkpt lat="43.63062" lon="5.43618">
        <ele>404.9</ele>
        <time>2022-10-26T08:12:34.000Z</time>
      </trkpt>
      <trkpt lat="43.63061" lon="5.4362">
        <ele>404.9</ele>
        <time>2022-10-26T08:12:36.000Z</time>
      </trkpt>
      <trkpt lat="43.63059" lon="5.43623">
        <ele>404.9</ele>
        <time>2022-10-26T08:12:38.000Z</time>
      </trkpt>
      <trkpt lat="43.63058" lon="5.43625">
        <ele>405</ele>
        <time>2022-10-26T08:12:40.000Z</time>
      </trkpt>
      <trkpt lat="43.63057" lon="5.43628">
        <ele>405</ele>
        <time>2022-10-26T08:12:42.000Z</time>
      </trkpt>
      <trkpt lat="43.63056" lon="5.43631">
        <ele>405</ele>
        <time>2022-10-26T08:12:44.000Z</time>
      </trkpt>
      <trkpt lat="43.63054" lon="5.43634">
        <ele>404.9</ele>
        <time>2022-10-26T08:12:47.000Z</time>
      </trkpt>
      <trkpt lat="43.63053" lon="5.43636">
        <ele>404.9</ele>
        <time>2022-10-26T08:12:49.000Z</time>
      </trkpt>
      <trkpt lat="43.63052" lon="5.43639">
        <ele>404.9</ele>
        <time>2022-10-26T08:12:51.000Z</time>
      </trkpt>
      <trkpt lat="43.63051" lon="5.43641">
        <ele>404.8</ele>
        <time>2022-10-26T08:12:53.000Z</time>
      </trkpt>
      <trkpt lat="43.6305" lon="5.43644">
        <ele>404.7</ele>
        <time>2022-10-26T08:12:55.000Z</time>
      </trkpt>
      <trkpt lat="43.63049" lon="5.43647">
        <ele>404.6</ele>
        <time>2022-10-26T08:12:57.000Z</time>
      </trkpt>
      <trkpt lat="43.63047" lon="5.43649">
        <ele>404.6</ele>
        <time>2022-10-26T08:12:59.000Z</time>
      </trkpt>
      <trkpt lat="43.63046" lon="5.43651">
        <ele>404.5</ele>
        <time>2022-10-26T08:13:01.000Z</time>
      </trkpt>
      <trkpt lat="43.63044" lon="5.43653">
        <ele>404.5</ele>
        <time>2022-10-26T08:13:03.000Z</time>
      </trkpt>
      <trkpt lat="43.63042" lon="5.43655">
        <ele>404.5</ele>
        <time>2022-10-26T08:13:05.000Z</time>
      </trkpt>
      <trkpt lat="43.63041" lon="5.43657">
        <ele>404.5</ele>
        <time>2022-10-26T08:13:07.000Z</time>
      </trkpt>
      <trkpt lat="43.63039" lon="5.43659">
        <ele>404.5</ele>
        <time>2022-10-26T08:13:09.000Z</time>
      </trkpt>
      <trkpt lat="43.63037" lon="5.43661">
        <ele>404.6</ele>
        <time>2022-10-26T08:13:11.000Z</time>
      </trkpt>
      <trkpt lat="43.63035" lon="5.43663">
        <ele>404.7</ele>
        <time>2022-10-26T08:13:13.000Z</time>
      </trkpt>
      <trkpt lat="43.63033" lon="5.43665">
        <ele>404.8</ele>
        <time>2022-10-26T08:13:15.000Z</time>
      </trkpt>
      <trkpt lat="43.63031" lon="5.43667">
        <ele>404.9</ele>
        <time>2022-10-26T08:13:17.000Z</time>
      </trkpt>
      <trkpt lat="43.63029" lon="5.43669">
        <ele>404.9</ele>
        <time>2022-10-26T08:13:19.000Z</time>
      </trkpt>
      <trkpt lat="43.63027" lon="5.43671">
        <ele>404.8</ele>
        <time>2022-10-26T08:13:21.000Z</time>
      </trkpt>
      <trkpt lat="43.63025" lon="5.43673">
        <ele>404.7</ele>
        <time>2022-10-26T08:13:23.000Z</time>
      </trkpt>
      <trkpt lat="43.63022" lon="5.43676">
        <ele>404.5</ele>
        <time>2022-10-26T08:13:25.000Z</time>
      </trkpt>
      <trkpt lat="43.6302" lon="5.43678">
        <ele>404.4</ele>
        <time>2022-10-26T08:13:27.000Z</time>
      </trkpt>
      <trkpt lat="43.63018" lon="5.43681">
        <ele>404.3</ele>
        <time>2022-10-26T08:13:29.000Z</time>
      </trkpt>
      <trkpt lat="43.63016" lon="5.43682">
        <ele>404.2</ele>
        <time>2022-10-26T08:13:31.000Z</time>
      </trkpt>
      <trkpt lat="43.63014" lon="5.43684">
        <ele>404.2</ele>
        <time>2022-10-26T08:13:33.000Z</time>
      </trkpt>
      <trkpt lat="43.63012" lon="5.43686">
        <ele>404.1</ele>
        <time>2022-10-26T08:13:35.000Z</time>
      </trkpt>
      <trkpt lat="43.63009" lon="5.43687">
        <ele>404.1</ele>
        <time>2022-10-26T08:13:37.000Z</time>
      </trkpt>
      <trkpt lat="43.63007" lon="5.43688">
        <ele>404.1</ele>
        <time>2022-10-26T08:13:39.000Z</time>
      </trkpt>
      <trkpt lat="43.63005" lon="5.43689">
        <ele>404</ele>
        <time>2022-10-26T08:13:41.000Z</time>
      </trkpt>
      <trkpt lat="43.63003" lon="5.43691">
        <ele>404</ele>
        <time>2022-10-26T08:13:43.000Z</time>
      </trkpt>
      <trkpt lat="43.63001" lon="5.43692">
        <ele>404</ele>
        <time>2022-10-26T08:13:45.000Z</time>
      </trkpt>
      <trkpt lat="43.62998" lon="5.43693">
        <ele>404</ele>
        <time>2022-10-26T08:13:47.000Z</time>
      </trkpt>
      <trkpt lat="43.62996" lon="5.43693">
        <ele>404</ele>
        <time>2022-10-26T08:13:49.000Z</time>
      </trkpt>
      <trkpt lat="43.62994" lon="5.43694">
        <ele>404</ele>
        <time>2022-10-26T08:13:51.000Z</time>
      </trkpt>
      <trkpt lat="43.62991" lon="5.43695">
        <ele>404</ele>
        <time>2022-10-26T08:13:53.000Z</time>
      </trkpt>
      <trkpt lat="43.62989" lon="5.43697">
        <ele>403.9</ele>
        <time>2022-10-26T08:13:55.000Z</time>
      </trkpt>
      <trkpt lat="43.62987" lon="5.43697">
        <ele>403.9</ele>
        <time>2022-10-26T08:13:57.000Z</time>
      </trkpt>
      <trkpt lat="43.62985" lon="5.43698">
        <ele>403.9</ele>
        <time>2022-10-26T08:13:59.000Z</time>
      </trkpt>
      <trkpt lat="43.62983" lon="5.43698">
        <ele>403.9</ele>
        <time>2022-10-26T08:14:01.000Z</time>
      </trkpt>
      <trkpt lat="43.62981" lon="5.43698">
        <ele>403.9</ele>
        <time>2022-10-26T08:14:03.000Z</time>
      </trkpt>
      <trkpt lat="43.62978" lon="5.43698">
        <ele>403.9</ele>
        <time>2022-10-26T08:14:05.000Z</time>
      </trkpt>
      <trkpt lat="43.62975" lon="5.43698">
        <ele>403.9</ele>
        <time>2022-10-26T08:14:07.000Z</time>
      </trkpt>
      <trkpt lat="43.62973" lon="5.43698">
        <ele>403.9</ele>
        <time>2022-10-26T08:14:09.000Z</time>
      </trkpt>
      <trkpt lat="43.6297" lon="5.43697">
        <ele>404</ele>
        <time>2022-10-26T08:14:11.000Z</time>
      </trkpt>
      <trkpt lat="43.62968" lon="5.43696">
        <ele>404.2</ele>
        <time>2022-10-26T08:14:13.000Z</time>
      </trkpt>
      <trkpt lat="43.62966" lon="5.43696">
        <ele>404.4</ele>
        <time>2022-10-26T08:14:15.000Z</time>
      </trkpt>
      <trkpt lat="43.62963" lon="5.43696">
        <ele>404.6</ele>
        <time>2022-10-26T08:14:17.000Z</time>
      </trkpt>
      <trkpt lat="43.62961" lon="5.43696">
        <ele>404.8</ele>
        <time>2022-10-26T08:14:19.000Z</time>
      </trkpt>
      <trkpt lat="43.62958" lon="5.43697">
        <ele>404.9</ele>
        <time>2022-10-26T08:14:21.000Z</time>
      </trkpt>
      <trkpt lat="43.62956" lon="5.43698">
        <ele>405.1</ele>
        <time>2022-10-26T08:14:23.000Z</time>
      </trkpt>
      <trkpt lat="43.62954" lon="5.43698">
        <ele>405.3</ele>
        <time>2022-10-26T08:14:25.000Z</time>
      </trkpt>
      <trkpt lat="43.62951" lon="5.43699">
        <ele>405.5</ele>
        <time>2022-10-26T08:14:27.000Z</time>
      </trkpt>
      <trkpt lat="43.62949" lon="5.437">
        <ele>405.7</ele>
        <time>2022-10-26T08:14:29.000Z</time>
      </trkpt>
      <trkpt lat="43.62947" lon="5.43701">
        <ele>405.8</ele>
        <time>2022-10-26T08:14:31.000Z</time>
      </trkpt>
      <trkpt lat="43.62945" lon="5.43702">
        <ele>406</ele>
        <time>2022-10-26T08:14:33.000Z</time>
      </trkpt>
      <trkpt lat="43.62944" lon="5.43704">
        <ele>406.1</ele>
        <time>2022-10-26T08:14:35.000Z</time>
      </trkpt>
      <trkpt lat="43.62942" lon="5.43705">
        <ele>406.3</ele>
        <time>2022-10-26T08:14:38.000Z</time>
      </trkpt>
      <trkpt lat="43.62944" lon="5.43704">
        <ele>406.1</ele>
        <time>2022-10-26T08:14:59.000Z</time>
      </trkpt>
      <trkpt lat="43.62945" lon="5.43705">
        <ele>405.9</ele>
        <time>2022-10-26T08:16:00.000Z</time>
      </trkpt>
      <trkpt lat="43.62943" lon="5.43704">
        <ele>406.1</ele>
        <time>2022-10-26T08:16:52.000Z</time>
      </trkpt>
      <trkpt lat="43.62945" lon="5.43702">
        <ele>406</ele>
        <time>2022-10-26T08:20:03.000Z</time>
      </trkpt>
      <trkpt lat="43.62947" lon="5.43703">
        <ele>405.8</ele>
        <time>2022-10-26T08:21:35.000Z</time>
      </trkpt>
      <trkpt lat="43.62947" lon="5.43706">
        <ele>405.8</ele>
        <time>2022-10-26T08:22:06.000Z</time>
      </trkpt>
      <trkpt lat="43.62946" lon="5.43709">
        <ele>405.9</ele>
        <time>2022-10-26T08:22:09.000Z</time>
      </trkpt>
      <trkpt lat="43.62945" lon="5.43711">
        <ele>405.9</ele>
        <time>2022-10-26T08:22:11.000Z</time>
      </trkpt>
      <trkpt lat="43.62944" lon="5.43714">
        <ele>406</ele>
        <time>2022-10-26T08:22:13.000Z</time>
      </trkpt>
      <trkpt lat="43.62943" lon="5.43717">
        <ele>406.2</ele>
        <time>2022-10-26T08:22:15.000Z</time>
      </trkpt>
      <trkpt lat="43.62943" lon="5.4372">
        <ele>406.2</ele>
        <time>2022-10-26T08:22:17.000Z</time>
      </trkpt>
      <trkpt lat="43.62942" lon="5.43722">
        <ele>406.3</ele>
        <time>2022-10-26T08:22:19.000Z</time>
      </trkpt>
      <trkpt lat="43.62942" lon="5.43725">
        <ele>406.3</ele>
        <time>2022-10-26T08:22:21.000Z</time>
      </trkpt>
      <trkpt lat="43.62942" lon="5.43728">
        <ele>406.2</ele>
        <time>2022-10-26T08:22:24.000Z</time>
      </trkpt>
      <trkpt lat="43.62941" lon="5.43732">
        <ele>406.1</ele>
        <time>2022-10-26T08:22:27.000Z</time>
      </trkpt>
      <trkpt lat="43.62941" lon="5.43735">
        <ele>406</ele>
        <time>2022-10-26T08:22:29.000Z</time>
      </trkpt>
      <trkpt lat="43.62941" lon="5.43738">
        <ele>406</ele>
        <time>2022-10-26T08:22:31.000Z</time>
      </trkpt>
      <trkpt lat="43.62941" lon="5.43741">
        <ele>405.8</ele>
        <time>2022-10-26T08:22:33.000Z</time>
      </trkpt>
      <trkpt lat="43.62941" lon="5.43744">
        <ele>405.8</ele>
        <time>2022-10-26T08:22:35.000Z</time>
      </trkpt>
      <trkpt lat="43.6294" lon="5.43747">
        <ele>405.7</ele>
        <time>2022-10-26T08:22:37.000Z</time>
      </trkpt>
      <trkpt lat="43.62941" lon="5.4375">
        <ele>405.6</ele>
        <time>2022-10-26T08:22:39.000Z</time>
      </trkpt>
      <trkpt lat="43.62941" lon="5.43753">
        <ele>405.5</ele>
        <time>2022-10-26T08:22:41.000Z</time>
      </trkpt>
      <trkpt lat="43.6294" lon="5.43756">
        <ele>405.4</ele>
        <time>2022-10-26T08:22:43.000Z</time>
      </trkpt>
      <trkpt lat="43.6294" lon="5.43758">
        <ele>405.5</ele>
        <time>2022-10-26T08:22:45.000Z</time>
      </trkpt>
      <trkpt lat="43.62939" lon="5.43762">
        <ele>405.4</ele>
        <time>2022-10-26T08:22:47.000Z</time>
      </trkpt>
      <trkpt lat="43.62939" lon="5.43764">
        <ele>405.4</ele>
        <time>2022-10-26T08:22:49.000Z</time>
      </trkpt>
      <trkpt lat="43.62938" lon="5.43767">
        <ele>405.5</ele>
        <time>2022-10-26T08:22:51.000Z</time>
      </trkpt>
      <trkpt lat="43.62938" lon="5.43769">
        <ele>405.4</ele>
        <time>2022-10-26T08:22:53.000Z</time>
      </trkpt>
      <trkpt lat="43.62938" lon="5.43773">
        <ele>405.3</ele>
        <time>2022-10-26T08:22:55.000Z</time>
      </trkpt>
      <trkpt lat="43.62938" lon="5.43776">
        <ele>405.3</ele>
        <time>2022-10-26T08:22:57.000Z</time>
      </trkpt>
      <trkpt lat="43.62938" lon="5.43779">
        <ele>405.1</ele>
        <time>2022-10-26T08:22:59.000Z</time>
      </trkpt>
      <trkpt lat="43.62939" lon="5.43783">
        <ele>405</ele>
        <time>2022-10-26T08:23:01.000Z</time>
      </trkpt>
      <trkpt lat="43.62938" lon="5.43786">
        <ele>405</ele>
        <time>2022-10-26T08:23:03.000Z</time>
      </trkpt>
      <trkpt lat="43.62938" lon="5.43789">
        <ele>405</ele>
        <time>2022-10-26T08:23:05.000Z</time>
      </trkpt>
      <trkpt lat="43.62937" lon="5.43792">
        <ele>405</ele>
        <time>2022-10-26T08:23:07.000Z</time>
      </trkpt>
      <trkpt lat="43.62937" lon="5.43794">
        <ele>405.1</ele>
        <time>2022-10-26T08:23:09.000Z</time>
      </trkpt>
      <trkpt lat="43.62936" lon="5.43798">
        <ele>405.2</ele>
        <time>2022-10-26T08:23:11.000Z</time>
      </trkpt>
      <trkpt lat="43.62936" lon="5.43801">
        <ele>405.2</ele>
        <time>2022-10-26T08:23:13.000Z</time>
      </trkpt>
      <trkpt lat="43.62936" lon="5.43804">
        <ele>405.2</ele>
        <time>2022-10-26T08:23:15.000Z</time>
      </trkpt>
      <trkpt lat="43.62936" lon="5.43808">
        <ele>405.3</ele>
        <time>2022-10-26T08:23:17.000Z</time>
      </trkpt>
      <trkpt lat="43.62936" lon="5.43811">
        <ele>405.2</ele>
        <time>2022-10-26T08:23:19.000Z</time>
      </trkpt>
      <trkpt lat="43.62936" lon="5.43814">
        <ele>405.1</ele>
        <time>2022-10-26T08:23:21.000Z</time>
      </trkpt>
      <trkpt lat="43.62937" lon="5.43817">
        <ele>404.8</ele>
        <time>2022-10-26T08:23:23.000Z</time>
      </trkpt>
      <trkpt lat="43.62938" lon="5.4382">
        <ele>404.5</ele>
        <time>2022-10-26T08:23:25.000Z</time>
      </trkpt>
      <trkpt lat="43.62938" lon="5.43823">
        <ele>404.4</ele>
        <time>2022-10-26T08:23:27.000Z</time>
      </trkpt>
      <trkpt lat="43.62939" lon="5.43825">
        <ele>404.2</ele>
        <time>2022-10-26T08:23:29.000Z</time>
      </trkpt>
      <trkpt lat="43.62939" lon="5.43828">
        <ele>404</ele>
        <time>2022-10-26T08:23:31.000Z</time>
      </trkpt>
      <trkpt lat="43.62939" lon="5.4383">
        <ele>404</ele>
        <time>2022-10-26T08:23:33.000Z</time>
      </trkpt>
      <trkpt lat="43.6294" lon="5.43834">
        <ele>403.8</ele>
        <time>2022-10-26T08:23:35.000Z</time>
      </trkpt>
      <trkpt lat="43.6294" lon="5.43837">
        <ele>403.4</ele>
        <time>2022-10-26T08:23:37.000Z</time>
      </trkpt>
      <trkpt lat="43.62941" lon="5.43839">
        <ele>403.2</ele>
        <time>2022-10-26T08:23:39.000Z</time>
      </trkpt>
      <trkpt lat="43.6294" lon="5.43842">
        <ele>403.1</ele>
        <time>2022-10-26T08:23:41.000Z</time>
      </trkpt>
      <trkpt lat="43.62941" lon="5.43845">
        <ele>402.9</ele>
        <time>2022-10-26T08:23:43.000Z</time>
      </trkpt>
      <trkpt lat="43.62941" lon="5.43848">
        <ele>402.8</ele>
        <time>2022-10-26T08:23:45.000Z</time>
      </trkpt>
      <trkpt lat="43.62941" lon="5.43851">
        <ele>402.6</ele>
        <time>2022-10-26T08:23:47.000Z</time>
      </trkpt>
      <trkpt lat="43.6294" lon="5.43854">
        <ele>402.6</ele>
        <time>2022-10-26T08:23:49.000Z</time>
      </trkpt>
      <trkpt lat="43.6294" lon="5.43857">
        <ele>402.6</ele>
        <time>2022-10-26T08:23:51.000Z</time>
      </trkpt>
      <trkpt lat="43.62939" lon="5.4386">
        <ele>402.7</ele>
        <time>2022-10-26T08:23:53.000Z</time>
      </trkpt>
      <trkpt lat="43.62939" lon="5.43863">
        <ele>402.7</ele>
        <time>2022-10-26T08:23:55.000Z</time>
      </trkpt>
      <trkpt lat="43.62939" lon="5.43866">
        <ele>402.6</ele>
        <time>2022-10-26T08:23:57.000Z</time>
      </trkpt>
      <trkpt lat="43.62938" lon="5.43868">
        <ele>402.6</ele>
        <time>2022-10-26T08:23:59.000Z</time>
      </trkpt>
      <trkpt lat="43.62938" lon="5.43871">
        <ele>402.6</ele>
        <time>2022-10-26T08:24:01.000Z</time>
      </trkpt>
      <trkpt lat="43.62937" lon="5.43873">
        <ele>402.7</ele>
        <time>2022-10-26T08:24:03.000Z</time>
      </trkpt>
      <trkpt lat="43.62936" lon="5.43876">
        <ele>402.8</ele>
        <time>2022-10-26T08:24:05.000Z</time>
      </trkpt>
      <trkpt lat="43.62935" lon="5.43878">
        <ele>402.9</ele>
        <time>2022-10-26T08:24:07.000Z</time>
      </trkpt>
      <trkpt lat="43.62934" lon="5.43881">
        <ele>402.9</ele>
        <time>2022-10-26T08:24:09.000Z</time>
      </trkpt>
      <trkpt lat="43.62933" lon="5.43884">
        <ele>402.9</ele>
        <time>2022-10-26T08:24:11.000Z</time>
      </trkpt>
      <trkpt lat="43.62932" lon="5.43886">
        <ele>402.9</ele>
        <time>2022-10-26T08:24:13.000Z</time>
      </trkpt>
      <trkpt lat="43.62932" lon="5.43889">
        <ele>402.8</ele>
        <time>2022-10-26T08:24:15.000Z</time>
      </trkpt>
      <trkpt lat="43.6293" lon="5.43892">
        <ele>402.8</ele>
        <time>2022-10-26T08:24:18.000Z</time>
      </trkpt>
      <trkpt lat="43.62929" lon="5.43894">
        <ele>402.9</ele>
        <time>2022-10-26T08:24:20.000Z</time>
      </trkpt>
      <trkpt lat="43.62928" lon="5.43896">
        <ele>403</ele>
        <time>2022-10-26T08:24:22.000Z</time>
      </trkpt>
      <trkpt lat="43.62927" lon="5.43898">
        <ele>403.1</ele>
        <time>2022-10-26T08:24:24.000Z</time>
      </trkpt>
      <trkpt lat="43.62926" lon="5.43901">
        <ele>403.2</ele>
        <time>2022-10-26T08:24:26.000Z</time>
      </trkpt>
      <trkpt lat="43.62925" lon="5.43903">
        <ele>403.3</ele>
        <time>2022-10-26T08:24:28.000Z</time>
      </trkpt>
      <trkpt lat="43.62924" lon="5.43906">
        <ele>403.3</ele>
        <time>2022-10-26T08:24:30.000Z</time>
      </trkpt>
      <trkpt lat="43.62923" lon="5.43909">
        <ele>403.2</ele>
        <time>2022-10-26T08:24:32.000Z</time>
      </trkpt>
      <trkpt lat="43.62922" lon="5.43912">
        <ele>403.2</ele>
        <time>2022-10-26T08:24:34.000Z</time>
      </trkpt>
      <trkpt lat="43.62921" lon="5.43914">
        <ele>403.2</ele>
        <time>2022-10-26T08:24:36.000Z</time>
      </trkpt>
      <trkpt lat="43.6292" lon="5.43917">
        <ele>403.2</ele>
        <time>2022-10-26T08:24:38.000Z</time>
      </trkpt>
      <trkpt lat="43.62919" lon="5.43921">
        <ele>403.4</ele>
        <time>2022-10-26T08:24:41.000Z</time>
      </trkpt>
      <trkpt lat="43.62918" lon="5.43923">
        <ele>403.4</ele>
        <time>2022-10-26T08:24:43.000Z</time>
      </trkpt>
      <trkpt lat="43.62918" lon="5.43926">
        <ele>403.5</ele>
        <time>2022-10-26T08:24:45.000Z</time>
      </trkpt>
      <trkpt lat="43.62917" lon="5.43928">
        <ele>403.5</ele>
        <time>2022-10-26T08:24:47.000Z</time>
      </trkpt>
      <trkpt lat="43.62916" lon="5.43931">
        <ele>403.5</ele>
        <time>2022-10-26T08:24:49.000Z</time>
      </trkpt>
      <trkpt lat="43.62916" lon="5.43934">
        <ele>403.5</ele>
        <time>2022-10-26T08:24:51.000Z</time>
      </trkpt>
      <trkpt lat="43.62915" lon="5.43937">
        <ele>403.4</ele>
        <time>2022-10-26T08:24:53.000Z</time>
      </trkpt>
      <trkpt lat="43.62914" lon="5.4394">
        <ele>403.4</ele>
        <time>2022-10-26T08:24:55.000Z</time>
      </trkpt>
      <trkpt lat="43.62914" lon="5.43944">
        <ele>403.4</ele>
        <time>2022-10-26T08:24:57.000Z</time>
      </trkpt>
      <trkpt lat="43.62913" lon="5.43947">
        <ele>403.3</ele>
        <time>2022-10-26T08:24:59.000Z</time>
      </trkpt>
      <trkpt lat="43.62913" lon="5.4395">
        <ele>403.2</ele>
        <time>2022-10-26T08:25:01.000Z</time>
      </trkpt>
      <trkpt lat="43.62913" lon="5.43953">
        <ele>403.2</ele>
        <time>2022-10-26T08:25:03.000Z</time>
      </trkpt>
      <trkpt lat="43.62912" lon="5.43957">
        <ele>403.1</ele>
        <time>2022-10-26T08:25:05.000Z</time>
      </trkpt>
      <trkpt lat="43.62912" lon="5.43961">
        <ele>403</ele>
        <time>2022-10-26T08:25:07.000Z</time>
      </trkpt>
      <trkpt lat="43.62912" lon="5.43964">
        <ele>403</ele>
        <time>2022-10-26T08:25:09.000Z</time>
      </trkpt>
      <trkpt lat="43.62912" lon="5.43968">
        <ele>402.9</ele>
        <time>2022-10-26T08:25:11.000Z</time>
      </trkpt>
      <trkpt lat="43.62911" lon="5.43971">
        <ele>402.8</ele>
        <time>2022-10-26T08:25:13.000Z</time>
      </trkpt>
      <trkpt lat="43.62911" lon="5.43973">
        <ele>402.8</ele>
        <time>2022-10-26T08:25:15.000Z</time>
      </trkpt>
      <trkpt lat="43.62911" lon="5.43976">
        <ele>402.7</ele>
        <time>2022-10-26T08:25:17.000Z</time>
      </trkpt>
      <trkpt lat="43.6291" lon="5.4398">
        <ele>402.7</ele>
        <time>2022-10-26T08:25:19.000Z</time>
      </trkpt>
      <trkpt lat="43.6291" lon="5.43982">
        <ele>402.6</ele>
        <time>2022-10-26T08:25:21.000Z</time>
      </trkpt>
      <trkpt lat="43.6291" lon="5.43985">
        <ele>402.6</ele>
        <time>2022-10-26T08:25:23.000Z</time>
      </trkpt>
      <trkpt lat="43.62909" lon="5.43988">
        <ele>402.5</ele>
        <time>2022-10-26T08:25:25.000Z</time>
      </trkpt>
      <trkpt lat="43.62908" lon="5.43991">
        <ele>402.5</ele>
        <time>2022-10-26T08:25:27.000Z</time>
      </trkpt>
      <trkpt lat="43.62908" lon="5.43994">
        <ele>402.5</ele>
        <time>2022-10-26T08:25:29.000Z</time>
      </trkpt>
      <trkpt lat="43.62907" lon="5.43997">
        <ele>402.5</ele>
        <time>2022-10-26T08:25:31.000Z</time>
      </trkpt>
      <trkpt lat="43.62906" lon="5.44">
        <ele>402.6</ele>
        <time>2022-10-26T08:25:33.000Z</time>
      </trkpt>
      <trkpt lat="43.62905" lon="5.44003">
        <ele>402.4</ele>
        <time>2022-10-26T08:25:35.000Z</time>
      </trkpt>
      <trkpt lat="43.62904" lon="5.44006">
        <ele>402.3</ele>
        <time>2022-10-26T08:25:37.000Z</time>
      </trkpt>
      <trkpt lat="43.62903" lon="5.44009">
        <ele>402.1</ele>
        <time>2022-10-26T08:25:39.000Z</time>
      </trkpt>
      <trkpt lat="43.62903" lon="5.44012">
        <ele>401.9</ele>
        <time>2022-10-26T08:25:41.000Z</time>
      </trkpt>
      <trkpt lat="43.62902" lon="5.44015">
        <ele>401.9</ele>
        <time>2022-10-26T08:25:43.000Z</time>
      </trkpt>
      <trkpt lat="43.629" lon="5.44018">
        <ele>401.8</ele>
        <time>2022-10-26T08:25:45.000Z</time>
      </trkpt>
      <trkpt lat="43.62899" lon="5.4402">
        <ele>401.8</ele>
        <time>2022-10-26T08:25:47.000Z</time>
      </trkpt>
      <trkpt lat="43.62898" lon="5.44022">
        <ele>401.8</ele>
        <time>2022-10-26T08:25:49.000Z</time>
      </trkpt>
      <trkpt lat="43.62897" lon="5.44025">
        <ele>401.8</ele>
        <time>2022-10-26T08:25:51.000Z</time>
      </trkpt>
      <trkpt lat="43.62896" lon="5.44028">
        <ele>401.8</ele>
        <time>2022-10-26T08:25:53.000Z</time>
      </trkpt>
      <trkpt lat="43.62895" lon="5.4403">
        <ele>401.7</ele>
        <time>2022-10-26T08:25:55.000Z</time>
      </trkpt>
      <trkpt lat="43.62894" lon="5.44033">
        <ele>401.7</ele>
        <time>2022-10-26T08:25:57.000Z</time>
      </trkpt>
      <trkpt lat="43.62893" lon="5.44035">
        <ele>401.7</ele>
        <time>2022-10-26T08:25:59.000Z</time>
      </trkpt>
      <trkpt lat="43.62892" lon="5.44038">
        <ele>401.7</ele>
        <time>2022-10-26T08:26:01.000Z</time>
      </trkpt>
      <trkpt lat="43.62891" lon="5.44041">
        <ele>401.7</ele>
        <time>2022-10-26T08:26:03.000Z</time>
      </trkpt>
      <trkpt lat="43.6289" lon="5.44043">
        <ele>401.7</ele>
        <time>2022-10-26T08:26:05.000Z</time>
      </trkpt>
      <trkpt lat="43.62889" lon="5.44046">
        <ele>401.7</ele>
        <time>2022-10-26T08:26:07.000Z</time>
      </trkpt>
      <trkpt lat="43.62888" lon="5.44049">
        <ele>401.8</ele>
        <time>2022-10-26T08:26:09.000Z</time>
      </trkpt>
      <trkpt lat="43.62887" lon="5.44052">
        <ele>401.7</ele>
        <time>2022-10-26T08:26:11.000Z</time>
      </trkpt>
      <trkpt lat="43.62887" lon="5.44055">
        <ele>401.7</ele>
        <time>2022-10-26T08:26:13.000Z</time>
      </trkpt>
      <trkpt lat="43.62886" lon="5.44058">
        <ele>401.9</ele>
        <time>2022-10-26T08:26:15.000Z</time>
      </trkpt>
      <trkpt lat="43.62886" lon="5.4406">
        <ele>402</ele>
        <time>2022-10-26T08:26:17.000Z</time>
      </trkpt>
      <trkpt lat="43.62885" lon="5.44063">
        <ele>402.1</ele>
        <time>2022-10-26T08:26:19.000Z</time>
      </trkpt>
      <trkpt lat="43.62885" lon="5.44066">
        <ele>402</ele>
        <time>2022-10-26T08:26:21.000Z</time>
      </trkpt>
      <trkpt lat="43.62885" lon="5.44069">
        <ele>402</ele>
        <time>2022-10-26T08:26:23.000Z</time>
      </trkpt>
      <trkpt lat="43.62886" lon="5.44072">
        <ele>401.8</ele>
        <time>2022-10-26T08:26:25.000Z</time>
      </trkpt>
      <trkpt lat="43.62887" lon="5.44075">
        <ele>401.6</ele>
        <time>2022-10-26T08:26:27.000Z</time>
      </trkpt>
      <trkpt lat="43.62888" lon="5.44078">
        <ele>401.3</ele>
        <time>2022-10-26T08:26:29.000Z</time>
      </trkpt>
      <trkpt lat="43.62888" lon="5.44082">
        <ele>401.2</ele>
        <time>2022-10-26T08:26:31.000Z</time>
      </trkpt>
      <trkpt lat="43.62889" lon="5.44085">
        <ele>400.9</ele>
        <time>2022-10-26T08:26:33.000Z</time>
      </trkpt>
      <trkpt lat="43.6289" lon="5.44088">
        <ele>400.8</ele>
        <time>2022-10-26T08:26:35.000Z</time>
      </trkpt>
      <trkpt lat="43.62891" lon="5.44091">
        <ele>400.6</ele>
        <time>2022-10-26T08:26:37.000Z</time>
      </trkpt>
      <trkpt lat="43.62891" lon="5.44094">
        <ele>400.6</ele>
        <time>2022-10-26T08:26:39.000Z</time>
      </trkpt>
      <trkpt lat="43.62891" lon="5.44097">
        <ele>400.5</ele>
        <time>2022-10-26T08:26:41.000Z</time>
      </trkpt>
      <trkpt lat="43.62891" lon="5.44101">
        <ele>400.6</ele>
        <time>2022-10-26T08:26:43.000Z</time>
      </trkpt>
      <trkpt lat="43.62891" lon="5.44104">
        <ele>400.6</ele>
        <time>2022-10-26T08:26:45.000Z</time>
      </trkpt>
      <trkpt lat="43.62891" lon="5.44107">
        <ele>400.7</ele>
        <time>2022-10-26T08:26:47.000Z</time>
      </trkpt>
      <trkpt lat="43.6289" lon="5.4411">
        <ele>400.9</ele>
        <time>2022-10-26T08:26:49.000Z</time>
      </trkpt>
      <trkpt lat="43.62889" lon="5.44112">
        <ele>401</ele>
        <time>2022-10-26T08:26:51.000Z</time>
      </trkpt>
      <trkpt lat="43.62887" lon="5.44115">
        <ele>401</ele>
        <time>2022-10-26T08:26:53.000Z</time>
      </trkpt>
      <trkpt lat="43.62887" lon="5.44118">
        <ele>400.9</ele>
        <time>2022-10-26T08:26:55.000Z</time>
      </trkpt>
      <trkpt lat="43.62886" lon="5.44121">
        <ele>400.9</ele>
        <time>2022-10-26T08:26:57.000Z</time>
      </trkpt>
      <trkpt lat="43.62884" lon="5.44124">
        <ele>401</ele>
        <time>2022-10-26T08:26:59.000Z</time>
      </trkpt>
      <trkpt lat="43.62883" lon="5.44126">
        <ele>401</ele>
        <time>2022-10-26T08:27:01.000Z</time>
      </trkpt>
      <trkpt lat="43.62882" lon="5.44129">
        <ele>401</ele>
        <time>2022-10-26T08:27:03.000Z</time>
      </trkpt>
      <trkpt lat="43.62881" lon="5.44132">
        <ele>401</ele>
        <time>2022-10-26T08:27:05.000Z</time>
      </trkpt>
      <trkpt lat="43.6288" lon="5.44134">
        <ele>400.9</ele>
        <time>2022-10-26T08:27:07.000Z</time>
      </trkpt>
      <trkpt lat="43.62879" lon="5.44137">
        <ele>400.9</ele>
        <time>2022-10-26T08:27:09.000Z</time>
      </trkpt>
      <trkpt lat="43.62878" lon="5.4414">
        <ele>400.8</ele>
        <time>2022-10-26T08:27:11.000Z</time>
      </trkpt>
      <trkpt lat="43.62877" lon="5.44143">
        <ele>400.7</ele>
        <time>2022-10-26T08:27:13.000Z</time>
      </trkpt>
      <trkpt lat="43.62877" lon="5.44146">
        <ele>400.7</ele>
        <time>2022-10-26T08:27:15.000Z</time>
      </trkpt>
      <trkpt lat="43.62876" lon="5.44149">
        <ele>400.5</ele>
        <time>2022-10-26T08:27:17.000Z</time>
      </trkpt>
      <trkpt lat="43.62875" lon="5.44152">
        <ele>400.5</ele>
        <time>2022-10-26T08:27:19.000Z</time>
      </trkpt>
      <trkpt lat="43.62875" lon="5.44155">
        <ele>400.3</ele>
        <time>2022-10-26T08:27:37.000Z</time>
      </trkpt>
      <trkpt lat="43.62874" lon="5.44157">
        <ele>400.5</ele>
        <time>2022-10-26T08:27:39.000Z</time>
      </trkpt>
      <trkpt lat="43.62873" lon="5.44159">
        <ele>400.6</ele>
        <time>2022-10-26T08:27:41.000Z</time>
      </trkpt>
      <trkpt lat="43.62872" lon="5.44162">
        <ele>400.7</ele>
        <time>2022-10-26T08:27:44.000Z</time>
      </trkpt>
      <trkpt lat="43.62871" lon="5.44165">
        <ele>400.6</ele>
        <time>2022-10-26T08:27:47.000Z</time>
      </trkpt>
      <trkpt lat="43.62871" lon="5.44168">
        <ele>400.6</ele>
        <time>2022-10-26T08:27:50.000Z</time>
      </trkpt>
      <trkpt lat="43.6287" lon="5.4417">
        <ele>400.6</ele>
        <time>2022-10-26T08:27:53.000Z</time>
      </trkpt>
      <trkpt lat="43.6287" lon="5.44173">
        <ele>400.7</ele>
        <time>2022-10-26T08:27:56.000Z</time>
      </trkpt>
      <trkpt lat="43.62871" lon="5.44176">
        <ele>400.5</ele>
        <time>2022-10-26T08:27:59.000Z</time>
      </trkpt>
      <trkpt lat="43.62868" lon="5.44177">
        <ele>401</ele>
        <time>2022-10-26T08:28:02.000Z</time>
      </trkpt>
      <trkpt lat="43.62868" lon="5.44179">
        <ele>401.1</ele>
        <time>2022-10-26T08:28:04.000Z</time>
      </trkpt>
      <trkpt lat="43.62867" lon="5.44182">
        <ele>401.3</ele>
        <time>2022-10-26T08:28:06.000Z</time>
      </trkpt>
      <trkpt lat="43.62866" lon="5.44185">
        <ele>401.3</ele>
        <time>2022-10-26T08:28:08.000Z</time>
      </trkpt>
      <trkpt lat="43.62866" lon="5.44188">
        <ele>401.2</ele>
        <time>2022-10-26T08:28:10.000Z</time>
      </trkpt>
      <trkpt lat="43.62866" lon="5.44191">
        <ele>401.2</ele>
        <time>2022-10-26T08:28:13.000Z</time>
      </trkpt>
      <trkpt lat="43.62866" lon="5.44195">
        <ele>401.2</ele>
        <time>2022-10-26T08:28:16.000Z</time>
      </trkpt>
      <trkpt lat="43.62867" lon="5.44197">
        <ele>401</ele>
        <time>2022-10-26T08:29:19.000Z</time>
      </trkpt>
      <trkpt lat="43.62866" lon="5.44199">
        <ele>401.1</ele>
        <time>2022-10-26T08:29:22.000Z</time>
      </trkpt>
      <trkpt lat="43.62865" lon="5.44203">
        <ele>401.2</ele>
        <time>2022-10-26T08:29:25.000Z</time>
      </trkpt>
      <trkpt lat="43.62865" lon="5.44206">
        <ele>401.3</ele>
        <time>2022-10-26T08:29:27.000Z</time>
      </trkpt>
      <trkpt lat="43.62865" lon="5.44209">
        <ele>401.4</ele>
        <time>2022-10-26T08:29:30.000Z</time>
      </trkpt>
      <trkpt lat="43.62864" lon="5.44213">
        <ele>401.5</ele>
        <time>2022-10-26T08:29:33.000Z</time>
      </trkpt>
      <trkpt lat="43.62864" lon="5.44215">
        <ele>401.6</ele>
        <time>2022-10-26T08:29:35.000Z</time>
      </trkpt>
      <trkpt lat="43.62863" lon="5.44218">
        <ele>401.7</ele>
        <time>2022-10-26T08:29:37.000Z</time>
      </trkpt>
      <trkpt lat="43.62862" lon="5.4422">
        <ele>401.8</ele>
        <time>2022-10-26T08:29:39.000Z</time>
      </trkpt>
      <trkpt lat="43.62862" lon="5.44223">
        <ele>401.9</ele>
        <time>2022-10-26T08:29:41.000Z</time>
      </trkpt>
      <trkpt lat="43.62861" lon="5.44225">
        <ele>401.9</ele>
        <time>2022-10-26T08:29:43.000Z</time>
      </trkpt>
      <trkpt lat="43.62861" lon="5.44228">
        <ele>401.9</ele>
        <time>2022-10-26T08:29:45.000Z</time>
      </trkpt>
      <trkpt lat="43.6286" lon="5.44231">
        <ele>401.9</ele>
        <time>2022-10-26T08:29:47.000Z</time>
      </trkpt>
      <trkpt lat="43.62859" lon="5.44233">
        <ele>401.9</ele>
        <time>2022-10-26T08:29:49.000Z</time>
      </trkpt>
      <trkpt lat="43.62859" lon="5.44236">
        <ele>401.9</ele>
        <time>2022-10-26T08:29:51.000Z</time>
      </trkpt>
      <trkpt lat="43.62858" lon="5.44239">
        <ele>401.9</ele>
        <time>2022-10-26T08:29:53.000Z</time>
      </trkpt>
      <trkpt lat="43.62857" lon="5.44241">
        <ele>401.9</ele>
        <time>2022-10-26T08:29:55.000Z</time>
      </trkpt>
      <trkpt lat="43.62856" lon="5.44244">
        <ele>401.8</ele>
        <time>2022-10-26T08:29:57.000Z</time>
      </trkpt>
      <trkpt lat="43.62855" lon="5.44246">
        <ele>401.8</ele>
        <time>2022-10-26T08:29:59.000Z</time>
      </trkpt>
      <trkpt lat="43.62855" lon="5.44249">
        <ele>401.7</ele>
        <time>2022-10-26T08:30:01.000Z</time>
      </trkpt>
      <trkpt lat="43.62854" lon="5.44252">
        <ele>401.7</ele>
        <time>2022-10-26T08:30:03.000Z</time>
      </trkpt>
      <trkpt lat="43.62854" lon="5.44254">
        <ele>401.6</ele>
        <time>2022-10-26T08:30:05.000Z</time>
      </trkpt>
      <trkpt lat="43.62853" lon="5.44257">
        <ele>401.6</ele>
        <time>2022-10-26T08:30:07.000Z</time>
      </trkpt>
      <trkpt lat="43.62852" lon="5.4426">
        <ele>401.5</ele>
        <time>2022-10-26T08:30:09.000Z</time>
      </trkpt>
      <trkpt lat="43.62852" lon="5.44264">
        <ele>401.3</ele>
        <time>2022-10-26T08:30:11.000Z</time>
      </trkpt>
      <trkpt lat="43.62852" lon="5.44267">
        <ele>401.2</ele>
        <time>2022-10-26T08:30:13.000Z</time>
      </trkpt>
      <trkpt lat="43.62852" lon="5.44269">
        <ele>401.1</ele>
        <time>2022-10-26T08:30:15.000Z</time>
      </trkpt>
      <trkpt lat="43.62851" lon="5.44272">
        <ele>401</ele>
        <time>2022-10-26T08:30:17.000Z</time>
      </trkpt>
      <trkpt lat="43.62851" lon="5.44275">
        <ele>400.9</ele>
        <time>2022-10-26T08:30:19.000Z</time>
      </trkpt>
      <trkpt lat="43.6285" lon="5.44277">
        <ele>400.8</ele>
        <time>2022-10-26T08:30:21.000Z</time>
      </trkpt>
      <trkpt lat="43.6285" lon="5.4428">
        <ele>400.7</ele>
        <time>2022-10-26T08:30:23.000Z</time>
      </trkpt>
      <trkpt lat="43.62849" lon="5.44283">
        <ele>400.5</ele>
        <time>2022-10-26T08:30:25.000Z</time>
      </trkpt>
      <trkpt lat="43.62849" lon="5.44286">
        <ele>400.4</ele>
        <time>2022-10-26T08:30:27.000Z</time>
      </trkpt>
      <trkpt lat="43.62848" lon="5.44289">
        <ele>400.3</ele>
        <time>2022-10-26T08:30:29.000Z</time>
      </trkpt>
      <trkpt lat="43.62848" lon="5.44292">
        <ele>400.1</ele>
        <time>2022-10-26T08:30:31.000Z</time>
      </trkpt>
      <trkpt lat="43.62848" lon="5.44296">
        <ele>400</ele>
        <time>2022-10-26T08:30:33.000Z</time>
      </trkpt>
      <trkpt lat="43.62848" lon="5.44299">
        <ele>399.8</ele>
        <time>2022-10-26T08:30:35.000Z</time>
      </trkpt>
      <trkpt lat="43.62847" lon="5.44301">
        <ele>399.8</ele>
        <time>2022-10-26T08:30:37.000Z</time>
      </trkpt>
      <trkpt lat="43.62847" lon="5.44304">
        <ele>399.6</ele>
        <time>2022-10-26T08:30:39.000Z</time>
      </trkpt>
      <trkpt lat="43.62846" lon="5.44307">
        <ele>399.6</ele>
        <time>2022-10-26T08:30:41.000Z</time>
      </trkpt>
      <trkpt lat="43.62845" lon="5.44311">
        <ele>399.5</ele>
        <time>2022-10-26T08:30:44.000Z</time>
      </trkpt>
      <trkpt lat="43.62844" lon="5.44313">
        <ele>399.4</ele>
        <time>2022-10-26T08:30:46.000Z</time>
      </trkpt>
      <trkpt lat="43.62844" lon="5.44317">
        <ele>399.3</ele>
        <time>2022-10-26T08:30:48.000Z</time>
      </trkpt>
      <trkpt lat="43.62844" lon="5.4432">
        <ele>399.2</ele>
        <time>2022-10-26T08:30:50.000Z</time>
      </trkpt>
      <trkpt lat="43.62844" lon="5.44323">
        <ele>399</ele>
        <time>2022-10-26T08:30:52.000Z</time>
      </trkpt>
      <trkpt lat="43.62844" lon="5.44326">
        <ele>398.9</ele>
        <time>2022-10-26T08:30:54.000Z</time>
      </trkpt>
      <trkpt lat="43.62843" lon="5.44328">
        <ele>398.8</ele>
        <time>2022-10-26T08:30:56.000Z</time>
      </trkpt>
      <trkpt lat="43.62843" lon="5.44332">
        <ele>398.7</ele>
        <time>2022-10-26T08:30:58.000Z</time>
      </trkpt>
      <trkpt lat="43.62843" lon="5.44336">
        <ele>398.6</ele>
        <time>2022-10-26T08:31:00.000Z</time>
      </trkpt>
      <trkpt lat="43.62843" lon="5.44339">
        <ele>398.6</ele>
        <time>2022-10-26T08:31:02.000Z</time>
      </trkpt>
      <trkpt lat="43.62842" lon="5.44342">
        <ele>398.6</ele>
        <time>2022-10-26T08:31:04.000Z</time>
      </trkpt>
      <trkpt lat="43.62842" lon="5.44345">
        <ele>398.7</ele>
        <time>2022-10-26T08:31:06.000Z</time>
      </trkpt>
      <trkpt lat="43.62842" lon="5.44348">
        <ele>398.6</ele>
        <time>2022-10-26T08:31:08.000Z</time>
      </trkpt>
      <trkpt lat="43.62841" lon="5.44351">
        <ele>398.7</ele>
        <time>2022-10-26T08:31:10.000Z</time>
      </trkpt>
      <trkpt lat="43.62841" lon="5.44354">
        <ele>398.7</ele>
        <time>2022-10-26T08:31:12.000Z</time>
      </trkpt>
      <trkpt lat="43.62841" lon="5.44357">
        <ele>398.8</ele>
        <time>2022-10-26T08:31:14.000Z</time>
      </trkpt>
      <trkpt lat="43.6284" lon="5.4436">
        <ele>398.8</ele>
        <time>2022-10-26T08:31:16.000Z</time>
      </trkpt>
      <trkpt lat="43.6284" lon="5.44364">
        <ele>398.8</ele>
        <time>2022-10-26T08:31:18.000Z</time>
      </trkpt>
      <trkpt lat="43.6284" lon="5.44366">
        <ele>398.9</ele>
        <time>2022-10-26T08:31:20.000Z</time>
      </trkpt>
      <trkpt lat="43.62839" lon="5.44369">
        <ele>399.1</ele>
        <time>2022-10-26T08:31:22.000Z</time>
      </trkpt>
      <trkpt lat="43.62838" lon="5.44372">
        <ele>399.2</ele>
        <time>2022-10-26T08:31:24.000Z</time>
      </trkpt>
      <trkpt lat="43.62839" lon="5.44375">
        <ele>399.2</ele>
        <time>2022-10-26T08:31:26.000Z</time>
      </trkpt>
      <trkpt lat="43.62838" lon="5.44377">
        <ele>399.3</ele>
        <time>2022-10-26T08:31:28.000Z</time>
      </trkpt>
      <trkpt lat="43.62837" lon="5.44381">
        <ele>399.4</ele>
        <time>2022-10-26T08:31:30.000Z</time>
      </trkpt>
      <trkpt lat="43.62837" lon="5.44384">
        <ele>399.5</ele>
        <time>2022-10-26T08:31:32.000Z</time>
      </trkpt>
      <trkpt lat="43.62836" lon="5.44387">
        <ele>399.6</ele>
        <time>2022-10-26T08:31:34.000Z</time>
      </trkpt>
      <trkpt lat="43.62836" lon="5.44391">
        <ele>399.6</ele>
        <time>2022-10-26T08:31:36.000Z</time>
      </trkpt>
      <trkpt lat="43.62835" lon="5.44394">
        <ele>399.5</ele>
        <time>2022-10-26T08:31:38.000Z</time>
      </trkpt>
      <trkpt lat="43.62835" lon="5.44397">
        <ele>399.5</ele>
        <time>2022-10-26T08:31:40.000Z</time>
      </trkpt>
      <trkpt lat="43.62835" lon="5.444">
        <ele>399.4</ele>
        <time>2022-10-26T08:31:42.000Z</time>
      </trkpt>
      <trkpt lat="43.62834" lon="5.44403">
        <ele>399.4</ele>
        <time>2022-10-26T08:31:44.000Z</time>
      </trkpt>
      <trkpt lat="43.62833" lon="5.44405">
        <ele>399.4</ele>
        <time>2022-10-26T08:31:46.000Z</time>
      </trkpt>
      <trkpt lat="43.62832" lon="5.44409">
        <ele>399.3</ele>
        <time>2022-10-26T08:31:49.000Z</time>
      </trkpt>
      <trkpt lat="43.62831" lon="5.44412">
        <ele>399.3</ele>
        <time>2022-10-26T08:31:51.000Z</time>
      </trkpt>
      <trkpt lat="43.62829" lon="5.44414">
        <ele>399.2</ele>
        <time>2022-10-26T08:31:53.000Z</time>
      </trkpt>
      <trkpt lat="43.62828" lon="5.44417">
        <ele>399.2</ele>
        <time>2022-10-26T08:31:55.000Z</time>
      </trkpt>
      <trkpt lat="43.62827" lon="5.4442">
        <ele>399</ele>
        <time>2022-10-26T08:31:57.000Z</time>
      </trkpt>
      <trkpt lat="43.62826" lon="5.44423">
        <ele>398.8</ele>
        <time>2022-10-26T08:31:59.000Z</time>
      </trkpt>
      <trkpt lat="43.62826" lon="5.44426">
        <ele>398.7</ele>
        <time>2022-10-26T08:32:01.000Z</time>
      </trkpt>
      <trkpt lat="43.62825" lon="5.44429">
        <ele>398.5</ele>
        <time>2022-10-26T08:32:03.000Z</time>
      </trkpt>
      <trkpt lat="43.62824" lon="5.44432">
        <ele>398.4</ele>
        <time>2022-10-26T08:32:05.000Z</time>
      </trkpt>
      <trkpt lat="43.62823" lon="5.44434">
        <ele>398.3</ele>
        <time>2022-10-26T08:32:07.000Z</time>
      </trkpt>
      <trkpt lat="43.62823" lon="5.44436">
        <ele>398.2</ele>
        <time>2022-10-26T08:32:09.000Z</time>
      </trkpt>
      <trkpt lat="43.62822" lon="5.44439">
        <ele>398.1</ele>
        <time>2022-10-26T08:32:11.000Z</time>
      </trkpt>
      <trkpt lat="43.62821" lon="5.44442">
        <ele>398.1</ele>
        <time>2022-10-26T08:32:13.000Z</time>
      </trkpt>
      <trkpt lat="43.62819" lon="5.44445">
        <ele>398</ele>
        <time>2022-10-26T08:32:16.000Z</time>
      </trkpt>
      <trkpt lat="43.62819" lon="5.44448">
        <ele>397.8</ele>
        <time>2022-10-26T08:32:18.000Z</time>
      </trkpt>
      <trkpt lat="43.62818" lon="5.4445">
        <ele>397.7</ele>
        <time>2022-10-26T08:32:20.000Z</time>
      </trkpt>
      <trkpt lat="43.62817" lon="5.44453">
        <ele>397.6</ele>
        <time>2022-10-26T08:32:22.000Z</time>
      </trkpt>
      <trkpt lat="43.62816" lon="5.44455">
        <ele>397.5</ele>
        <time>2022-10-26T08:32:24.000Z</time>
      </trkpt>
      <trkpt lat="43.62815" lon="5.44458">
        <ele>397.4</ele>
        <time>2022-10-26T08:32:26.000Z</time>
      </trkpt>
      <trkpt lat="43.62814" lon="5.44461">
        <ele>397.3</ele>
        <time>2022-10-26T08:32:28.000Z</time>
      </trkpt>
      <trkpt lat="43.62813" lon="5.44464">
        <ele>397.2</ele>
        <time>2022-10-26T08:32:30.000Z</time>
      </trkpt>
      <trkpt lat="43.62813" lon="5.44467">
        <ele>397.1</ele>
        <time>2022-10-26T08:32:32.000Z</time>
      </trkpt>
      <trkpt lat="43.62811" lon="5.44469">
        <ele>397.2</ele>
        <time>2022-10-26T08:32:34.000Z</time>
      </trkpt>
      <trkpt lat="43.6281" lon="5.44472">
        <ele>397.2</ele>
        <time>2022-10-26T08:32:36.000Z</time>
      </trkpt>
      <trkpt lat="43.62809" lon="5.44475">
        <ele>397.4</ele>
        <time>2022-10-26T08:32:38.000Z</time>
      </trkpt>
      <trkpt lat="43.62808" lon="5.44478">
        <ele>397.6</ele>
        <time>2022-10-26T08:32:40.000Z</time>
      </trkpt>
      <trkpt lat="43.62807" lon="5.44481">
        <ele>397.8</ele>
        <time>2022-10-26T08:32:42.000Z</time>
      </trkpt>
      <trkpt lat="43.62806" lon="5.44485">
        <ele>398</ele>
        <time>2022-10-26T08:32:44.000Z</time>
      </trkpt>
      <trkpt lat="43.62805" lon="5.44488">
        <ele>398</ele>
        <time>2022-10-26T08:32:46.000Z</time>
      </trkpt>
      <trkpt lat="43.62804" lon="5.44491">
        <ele>398</ele>
        <time>2022-10-26T08:32:48.000Z</time>
      </trkpt>
      <trkpt lat="43.62802" lon="5.44494">
        <ele>398</ele>
        <time>2022-10-26T08:32:50.000Z</time>
      </trkpt>
      <trkpt lat="43.62801" lon="5.44496">
        <ele>398</ele>
        <time>2022-10-26T08:32:52.000Z</time>
      </trkpt>
      <trkpt lat="43.628" lon="5.44499">
        <ele>398</ele>
        <time>2022-10-26T08:32:56.000Z</time>
      </trkpt>
      <trkpt lat="43.62798" lon="5.445">
        <ele>398</ele>
        <time>2022-10-26T08:32:59.000Z</time>
      </trkpt>
      <trkpt lat="43.62796" lon="5.44499">
        <ele>398</ele>
        <time>2022-10-26T08:33:02.000Z</time>
      </trkpt>
      <trkpt lat="43.62794" lon="5.44497">
        <ele>398</ele>
        <time>2022-10-26T08:33:05.000Z</time>
      </trkpt>
      <trkpt lat="43.62792" lon="5.44496">
        <ele>398</ele>
        <time>2022-10-26T08:33:07.000Z</time>
      </trkpt>
      <trkpt lat="43.6279" lon="5.44495">
        <ele>398</ele>
        <time>2022-10-26T08:33:10.000Z</time>
      </trkpt>
      <trkpt lat="43.62788" lon="5.44493">
        <ele>398</ele>
        <time>2022-10-26T08:33:13.000Z</time>
      </trkpt>
      <trkpt lat="43.62787" lon="5.44492">
        <ele>398</ele>
        <time>2022-10-26T08:33:17.000Z</time>
      </trkpt>
      <trkpt lat="43.62784" lon="5.44491">
        <ele>398</ele>
        <time>2022-10-26T08:33:20.000Z</time>
      </trkpt>
      <trkpt lat="43.62782" lon="5.4449">
        <ele>398</ele>
        <time>2022-10-26T08:33:23.000Z</time>
      </trkpt>
      <trkpt lat="43.6278" lon="5.44488">
        <ele>398</ele>
        <time>2022-10-26T08:33:26.000Z</time>
      </trkpt>
      <trkpt lat="43.62778" lon="5.44487">
        <ele>398</ele>
        <time>2022-10-26T08:33:29.000Z</time>
      </trkpt>
      <trkpt lat="43.62776" lon="5.44486">
        <ele>398.1</ele>
        <time>2022-10-26T08:33:32.000Z</time>
      </trkpt>
      <trkpt lat="43.62774" lon="5.44485">
        <ele>398.3</ele>
        <time>2022-10-26T08:33:34.000Z</time>
      </trkpt>
      <trkpt lat="43.62772" lon="5.44484">
        <ele>398.4</ele>
        <time>2022-10-26T08:33:36.000Z</time>
      </trkpt>
      <trkpt lat="43.6277" lon="5.44483">
        <ele>398.6</ele>
        <time>2022-10-26T08:33:39.000Z</time>
      </trkpt>
      <trkpt lat="43.62768" lon="5.44482">
        <ele>398.8</ele>
        <time>2022-10-26T08:33:41.000Z</time>
      </trkpt>
      <trkpt lat="43.62766" lon="5.44482">
        <ele>399</ele>
        <time>2022-10-26T08:33:43.000Z</time>
      </trkpt>
      <trkpt lat="43.62763" lon="5.44482">
        <ele>399.2</ele>
        <time>2022-10-26T08:33:46.000Z</time>
      </trkpt>
      <trkpt lat="43.62761" lon="5.44484">
        <ele>399.3</ele>
        <time>2022-10-26T08:33:48.000Z</time>
      </trkpt>
      <trkpt lat="43.62759" lon="5.44487">
        <ele>399.3</ele>
        <time>2022-10-26T08:33:51.000Z</time>
      </trkpt>
      <trkpt lat="43.62758" lon="5.4449">
        <ele>399.2</ele>
        <time>2022-10-26T08:33:54.000Z</time>
      </trkpt>
      <trkpt lat="43.62756" lon="5.44493">
        <ele>399.2</ele>
        <time>2022-10-26T08:33:57.000Z</time>
      </trkpt>
      <trkpt lat="43.62755" lon="5.44496">
        <ele>399</ele>
        <time>2022-10-26T08:33:59.000Z</time>
      </trkpt>
      <trkpt lat="43.62754" lon="5.44499">
        <ele>398.9</ele>
        <time>2022-10-26T08:34:01.000Z</time>
      </trkpt>
      <trkpt lat="43.62753" lon="5.44502">
        <ele>398.8</ele>
        <time>2022-10-26T08:34:03.000Z</time>
      </trkpt>
      <trkpt lat="43.62752" lon="5.44505">
        <ele>398.8</ele>
        <time>2022-10-26T08:34:06.000Z</time>
      </trkpt>
      <trkpt lat="43.62751" lon="5.44508">
        <ele>398.7</ele>
        <time>2022-10-26T08:34:08.000Z</time>
      </trkpt>
      <trkpt lat="43.62751" lon="5.44511">
        <ele>398.6</ele>
        <time>2022-10-26T08:34:10.000Z</time>
      </trkpt>
      <trkpt lat="43.62751" lon="5.44514">
        <ele>398.5</ele>
        <time>2022-10-26T08:34:12.000Z</time>
      </trkpt>
      <trkpt lat="43.6275" lon="5.44517">
        <ele>398.4</ele>
        <time>2022-10-26T08:34:15.000Z</time>
      </trkpt>
      <trkpt lat="43.62748" lon="5.4452">
        <ele>398.4</ele>
        <time>2022-10-26T08:34:17.000Z</time>
      </trkpt>
      <trkpt lat="43.62747" lon="5.44522">
        <ele>398.5</ele>
        <time>2022-10-26T08:34:19.000Z</time>
      </trkpt>
      <trkpt lat="43.62746" lon="5.44524">
        <ele>398.5</ele>
        <time>2022-10-26T08:34:21.000Z</time>
      </trkpt>
      <trkpt lat="43.62744" lon="5.44527">
        <ele>398.5</ele>
        <time>2022-10-26T08:34:23.000Z</time>
      </trkpt>
      <trkpt lat="43.62742" lon="5.44529">
        <ele>398.6</ele>
        <time>2022-10-26T08:34:25.000Z</time>
      </trkpt>
      <trkpt lat="43.62741" lon="5.44531">
        <ele>398.7</ele>
        <time>2022-10-26T08:34:27.000Z</time>
      </trkpt>
      <trkpt lat="43.62739" lon="5.44534">
        <ele>398.8</ele>
        <time>2022-10-26T08:34:29.000Z</time>
      </trkpt>
      <trkpt lat="43.62738" lon="5.44536">
        <ele>398.9</ele>
        <time>2022-10-26T08:34:31.000Z</time>
      </trkpt>
      <trkpt lat="43.62737" lon="5.44539">
        <ele>399</ele>
        <time>2022-10-26T08:34:33.000Z</time>
      </trkpt>
      <trkpt lat="43.62736" lon="5.44541">
        <ele>399</ele>
        <time>2022-10-26T08:34:35.000Z</time>
      </trkpt>
      <trkpt lat="43.62734" lon="5.44545">
        <ele>399.1</ele>
        <time>2022-10-26T08:34:38.000Z</time>
      </trkpt>
      <trkpt lat="43.62733" lon="5.44547">
        <ele>399.1</ele>
        <time>2022-10-26T08:34:40.000Z</time>
      </trkpt>
      <trkpt lat="43.62732" lon="5.4455">
        <ele>399.1</ele>
        <time>2022-10-26T08:34:42.000Z</time>
      </trkpt>
      <trkpt lat="43.62731" lon="5.44553">
        <ele>399</ele>
        <time>2022-10-26T08:34:44.000Z</time>
      </trkpt>
      <trkpt lat="43.6273" lon="5.44555">
        <ele>399</ele>
        <time>2022-10-26T08:34:46.000Z</time>
      </trkpt>
      <trkpt lat="43.62728" lon="5.44558">
        <ele>399</ele>
        <time>2022-10-26T08:34:49.000Z</time>
      </trkpt>
      <trkpt lat="43.62727" lon="5.44561">
        <ele>399</ele>
        <time>2022-10-26T08:34:51.000Z</time>
      </trkpt>
      <trkpt lat="43.62726" lon="5.44563">
        <ele>399</ele>
        <time>2022-10-26T08:34:53.000Z</time>
      </trkpt>
      <trkpt lat="43.62724" lon="5.44564">
        <ele>399</ele>
        <time>2022-10-26T08:34:56.000Z</time>
      </trkpt>
      <trkpt lat="43.62723" lon="5.44568">
        <ele>399</ele>
        <time>2022-10-26T08:34:58.000Z</time>
      </trkpt>
      <trkpt lat="43.62723" lon="5.44571">
        <ele>399</ele>
        <time>2022-10-26T08:35:00.000Z</time>
      </trkpt>
      <trkpt lat="43.62722" lon="5.44574">
        <ele>399.1</ele>
        <time>2022-10-26T08:35:02.000Z</time>
      </trkpt>
      <trkpt lat="43.62721" lon="5.44577">
        <ele>399.3</ele>
        <time>2022-10-26T08:35:05.000Z</time>
      </trkpt>
      <trkpt lat="43.62719" lon="5.4458">
        <ele>399.5</ele>
        <time>2022-10-26T08:35:07.000Z</time>
      </trkpt>
      <trkpt lat="43.62718" lon="5.44583">
        <ele>399.6</ele>
        <time>2022-10-26T08:35:09.000Z</time>
      </trkpt>
      <trkpt lat="43.62717" lon="5.44585">
        <ele>399.7</ele>
        <time>2022-10-26T08:35:11.000Z</time>
      </trkpt>
      <trkpt lat="43.62716" lon="5.44588">
        <ele>399.8</ele>
        <time>2022-10-26T08:35:13.000Z</time>
      </trkpt>
      <trkpt lat="43.62715" lon="5.4459">
        <ele>400</ele>
        <time>2022-10-26T08:35:15.000Z</time>
      </trkpt>
      <trkpt lat="43.62715" lon="5.44593">
        <ele>400</ele>
        <time>2022-10-26T08:35:17.000Z</time>
      </trkpt>
      <trkpt lat="43.62714" lon="5.44595">
        <ele>400</ele>
        <time>2022-10-26T08:35:19.000Z</time>
      </trkpt>
      <trkpt lat="43.62714" lon="5.44598">
        <ele>400.1</ele>
        <time>2022-10-26T08:35:21.000Z</time>
      </trkpt>
      <trkpt lat="43.62713" lon="5.44601">
        <ele>400.1</ele>
        <time>2022-10-26T08:35:23.000Z</time>
      </trkpt>
      <trkpt lat="43.62713" lon="5.44603">
        <ele>400.1</ele>
        <time>2022-10-26T08:35:25.000Z</time>
      </trkpt>
      <trkpt lat="43.62712" lon="5.44607">
        <ele>400.2</ele>
        <time>2022-10-26T08:35:27.000Z</time>
      </trkpt>
      <trkpt lat="43.62711" lon="5.44611">
        <ele>400.2</ele>
        <time>2022-10-26T08:35:29.000Z</time>
      </trkpt>
      <trkpt lat="43.6271" lon="5.44613">
        <ele>400.4</ele>
        <time>2022-10-26T08:35:31.000Z</time>
      </trkpt>
      <trkpt lat="43.62709" lon="5.44615">
        <ele>400.6</ele>
        <time>2022-10-26T08:35:33.000Z</time>
      </trkpt>
      <trkpt lat="43.62708" lon="5.44617">
        <ele>400.8</ele>
        <time>2022-10-26T08:35:35.000Z</time>
      </trkpt>
      <trkpt lat="43.62706" lon="5.4462">
        <ele>401.1</ele>
        <time>2022-10-26T08:35:38.000Z</time>
      </trkpt>
      <trkpt lat="43.62704" lon="5.44622">
        <ele>401.4</ele>
        <time>2022-10-26T08:35:41.000Z</time>
      </trkpt>
      <trkpt lat="43.62702" lon="5.44623">
        <ele>401.6</ele>
        <time>2022-10-26T08:35:45.000Z</time>
      </trkpt>
      <trkpt lat="43.627" lon="5.44624">
        <ele>401.8</ele>
        <time>2022-10-26T08:35:47.000Z</time>
      </trkpt>
      <trkpt lat="43.62698" lon="5.44627">
        <ele>402.2</ele>
        <time>2022-10-26T08:35:50.000Z</time>
      </trkpt>
      <trkpt lat="43.62696" lon="5.44629">
        <ele>402.5</ele>
        <time>2022-10-26T08:35:53.000Z</time>
      </trkpt>
      <trkpt lat="43.62695" lon="5.44631">
        <ele>402.7</ele>
        <time>2022-10-26T08:35:56.000Z</time>
      </trkpt>
      <trkpt lat="43.62693" lon="5.44632">
        <ele>403.2</ele>
        <time>2022-10-26T08:35:59.000Z</time>
      </trkpt>
      <trkpt lat="43.62691" lon="5.44634">
        <ele>403.6</ele>
        <time>2022-10-26T08:36:02.000Z</time>
      </trkpt>
      <trkpt lat="43.62689" lon="5.44636">
        <ele>404.1</ele>
        <time>2022-10-26T08:36:05.000Z</time>
      </trkpt>
      <trkpt lat="43.62688" lon="5.44639">
        <ele>404.4</ele>
        <time>2022-10-26T08:36:08.000Z</time>
      </trkpt>
      <trkpt lat="43.62687" lon="5.44641">
        <ele>404.6</ele>
        <time>2022-10-26T08:36:10.000Z</time>
      </trkpt>
      <trkpt lat="43.62686" lon="5.44643">
        <ele>404.9</ele>
        <time>2022-10-26T08:36:12.000Z</time>
      </trkpt>
      <trkpt lat="43.62685" lon="5.44646">
        <ele>405.2</ele>
        <time>2022-10-26T08:36:15.000Z</time>
      </trkpt>
      <trkpt lat="43.62684" lon="5.44649">
        <ele>405.5</ele>
        <time>2022-10-26T08:36:18.000Z</time>
      </trkpt>
      <trkpt lat="43.62683" lon="5.44652">
        <ele>405.7</ele>
        <time>2022-10-26T08:36:20.000Z</time>
      </trkpt>
      <trkpt lat="43.62683" lon="5.44654">
        <ele>405.8</ele>
        <time>2022-10-26T08:36:22.000Z</time>
      </trkpt>
      <trkpt lat="43.62681" lon="5.44656">
        <ele>406.2</ele>
        <time>2022-10-26T08:36:25.000Z</time>
      </trkpt>
      <trkpt lat="43.62679" lon="5.44659">
        <ele>406.7</ele>
        <time>2022-10-26T08:36:28.000Z</time>
      </trkpt>
      <trkpt lat="43.62678" lon="5.4466">
        <ele>407</ele>
        <time>2022-10-26T08:36:30.000Z</time>
      </trkpt>
      <trkpt lat="43.62676" lon="5.44663">
        <ele>407.6</ele>
        <time>2022-10-26T08:36:33.000Z</time>
      </trkpt>
      <trkpt lat="43.62674" lon="5.44664">
        <ele>408.1</ele>
        <time>2022-10-26T08:36:35.000Z</time>
      </trkpt>
      <trkpt lat="43.62673" lon="5.44667">
        <ele>408.5</ele>
        <time>2022-10-26T08:36:39.000Z</time>
      </trkpt>
      <trkpt lat="43.62671" lon="5.4467">
        <ele>409</ele>
        <time>2022-10-26T08:36:42.000Z</time>
      </trkpt>
      <trkpt lat="43.6267" lon="5.44672">
        <ele>409.3</ele>
        <time>2022-10-26T08:36:45.000Z</time>
      </trkpt>
      <trkpt lat="43.62669" lon="5.44676">
        <ele>409.7</ele>
        <time>2022-10-26T08:36:48.000Z</time>
      </trkpt>
      <trkpt lat="43.62668" lon="5.44678">
        <ele>410.1</ele>
        <time>2022-10-26T08:36:50.000Z</time>
      </trkpt>
      <trkpt lat="43.62667" lon="5.4468">
        <ele>410.5</ele>
        <time>2022-10-26T08:36:53.000Z</time>
      </trkpt>
      <trkpt lat="43.62666" lon="5.44683">
        <ele>410.9</ele>
        <time>2022-10-26T08:36:56.000Z</time>
      </trkpt>
      <trkpt lat="43.62665" lon="5.44686">
        <ele>411.4</ele>
        <time>2022-10-26T08:36:59.000Z</time>
      </trkpt>
      <trkpt lat="43.62663" lon="5.44689">
        <ele>412.1</ele>
        <time>2022-10-26T08:37:02.000Z</time>
      </trkpt>
      <trkpt lat="43.62661" lon="5.44692">
        <ele>412.6</ele>
        <time>2022-10-26T08:37:05.000Z</time>
      </trkpt>
      <trkpt lat="43.6266" lon="5.44695">
        <ele>413</ele>
        <time>2022-10-26T08:37:07.000Z</time>
      </trkpt>
      <trkpt lat="43.6266" lon="5.44697">
        <ele>413.3</ele>
        <time>2022-10-26T08:37:09.000Z</time>
      </trkpt>
      <trkpt lat="43.62659" lon="5.447">
        <ele>413.7</ele>
        <time>2022-10-26T08:37:12.000Z</time>
      </trkpt>
      <trkpt lat="43.62658" lon="5.44703">
        <ele>413.9</ele>
        <time>2022-10-26T08:37:15.000Z</time>
      </trkpt>
      <trkpt lat="43.62658" lon="5.44706">
        <ele>413.9</ele>
        <time>2022-10-26T08:37:18.000Z</time>
      </trkpt>
      <trkpt lat="43.62657" lon="5.44708">
        <ele>414.3</ele>
        <time>2022-10-26T08:37:21.000Z</time>
      </trkpt>
      <trkpt lat="43.62656" lon="5.44711">
        <ele>414.6</ele>
        <time>2022-10-26T08:37:23.000Z</time>
      </trkpt>
      <trkpt lat="43.62655" lon="5.44714">
        <ele>414.9</ele>
        <time>2022-10-26T08:37:25.000Z</time>
      </trkpt>
      <trkpt lat="43.62654" lon="5.44717">
        <ele>415.2</ele>
        <time>2022-10-26T08:37:27.000Z</time>
      </trkpt>
      <trkpt lat="43.62653" lon="5.4472">
        <ele>415.4</ele>
        <time>2022-10-26T08:37:30.000Z</time>
      </trkpt>
      <trkpt lat="43.62653" lon="5.44723">
        <ele>415.5</ele>
        <time>2022-10-26T08:37:32.000Z</time>
      </trkpt>
      <trkpt lat="43.62652" lon="5.44726">
        <ele>415.9</ele>
        <time>2022-10-26T08:37:34.000Z</time>
      </trkpt>
      <trkpt lat="43.62652" lon="5.44729">
        <ele>416.2</ele>
        <time>2022-10-26T08:37:37.000Z</time>
      </trkpt>
      <trkpt lat="43.62652" lon="5.44732">
        <ele>416.5</ele>
        <time>2022-10-26T08:37:39.000Z</time>
      </trkpt>
      <trkpt lat="43.62653" lon="5.44735">
        <ele>416.7</ele>
        <time>2022-10-26T08:37:41.000Z</time>
      </trkpt>
      <trkpt lat="43.62653" lon="5.44738">
        <ele>416.9</ele>
        <time>2022-10-26T08:37:43.000Z</time>
      </trkpt>
      <trkpt lat="43.62653" lon="5.44741">
        <ele>417.1</ele>
        <time>2022-10-26T08:37:45.000Z</time>
      </trkpt>
      <trkpt lat="43.62653" lon="5.44743">
        <ele>417.3</ele>
        <time>2022-10-26T08:37:47.000Z</time>
      </trkpt>
      <trkpt lat="43.62653" lon="5.44747">
        <ele>417.7</ele>
        <time>2022-10-26T08:37:50.000Z</time>
      </trkpt>
      <trkpt lat="43.62653" lon="5.4475">
        <ele>417.9</ele>
        <time>2022-10-26T08:37:52.000Z</time>
      </trkpt>
      <trkpt lat="43.62653" lon="5.44753">
        <ele>418.3</ele>
        <time>2022-10-26T08:37:55.000Z</time>
      </trkpt>
      <trkpt lat="43.62653" lon="5.44757">
        <ele>418.8</ele>
        <time>2022-10-26T08:37:58.000Z</time>
      </trkpt>
      <trkpt lat="43.62652" lon="5.4476">
        <ele>419.2</ele>
        <time>2022-10-26T08:38:01.000Z</time>
      </trkpt>
      <trkpt lat="43.62651" lon="5.44763">
        <ele>419.7</ele>
        <time>2022-10-26T08:38:04.000Z</time>
      </trkpt>
      <trkpt lat="43.62651" lon="5.44766">
        <ele>420</ele>
        <time>2022-10-26T08:38:07.000Z</time>
      </trkpt>
      <trkpt lat="43.6265" lon="5.44768">
        <ele>420.4</ele>
        <time>2022-10-26T08:38:10.000Z</time>
      </trkpt>
      <trkpt lat="43.62649" lon="5.44771">
        <ele>420.9</ele>
        <time>2022-10-26T08:38:13.000Z</time>
      </trkpt>
      <trkpt lat="43.62648" lon="5.44774">
        <ele>421.3</ele>
        <time>2022-10-26T08:38:16.000Z</time>
      </trkpt>
      <trkpt lat="43.62646" lon="5.44776">
        <ele>421.8</ele>
        <time>2022-10-26T08:38:20.000Z</time>
      </trkpt>
      <trkpt lat="43.62645" lon="5.44779">
        <ele>422.3</ele>
        <time>2022-10-26T08:38:24.000Z</time>
      </trkpt>
      <trkpt lat="43.62644" lon="5.44782">
        <ele>422.6</ele>
        <time>2022-10-26T08:38:27.000Z</time>
      </trkpt>
      <trkpt lat="43.62643" lon="5.44784">
        <ele>423.1</ele>
        <time>2022-10-26T08:38:30.000Z</time>
      </trkpt>
      <trkpt lat="43.62642" lon="5.44787">
        <ele>423.6</ele>
        <time>2022-10-26T08:38:33.000Z</time>
      </trkpt>
      <trkpt lat="43.6264" lon="5.44789">
        <ele>424</ele>
        <time>2022-10-26T08:38:37.000Z</time>
      </trkpt>
      <trkpt lat="43.6264" lon="5.44791">
        <ele>424.4</ele>
        <time>2022-10-26T08:38:41.000Z</time>
      </trkpt>
      <trkpt lat="43.62639" lon="5.44795">
        <ele>424.8</ele>
        <time>2022-10-26T08:38:45.000Z</time>
      </trkpt>
      <trkpt lat="43.6264" lon="5.44797">
        <ele>425</ele>
        <time>2022-10-26T08:38:48.000Z</time>
      </trkpt>
      <trkpt lat="43.6264" lon="5.44801">
        <ele>425.4</ele>
        <time>2022-10-26T08:38:51.000Z</time>
      </trkpt>
      <trkpt lat="43.62641" lon="5.44804">
        <ele>425.5</ele>
        <time>2022-10-26T08:38:54.000Z</time>
      </trkpt>
      <trkpt lat="43.62642" lon="5.44806">
        <ele>425.6</ele>
        <time>2022-10-26T08:38:56.000Z</time>
      </trkpt>
      <trkpt lat="43.62643" lon="5.44808">
        <ele>425.8</ele>
        <time>2022-10-26T08:38:58.000Z</time>
      </trkpt>
      <trkpt lat="43.62644" lon="5.44811">
        <ele>425.9</ele>
        <time>2022-10-26T08:39:01.000Z</time>
      </trkpt>
      <trkpt lat="43.62645" lon="5.44813">
        <ele>426</ele>
        <time>2022-10-26T08:39:21.000Z</time>
      </trkpt>
      <trkpt lat="43.62645" lon="5.44815">
        <ele>426.3</ele>
        <time>2022-10-26T08:39:28.000Z</time>
      </trkpt>
      <trkpt lat="43.62645" lon="5.44819">
        <ele>426.7</ele>
        <time>2022-10-26T08:39:32.000Z</time>
      </trkpt>
      <trkpt lat="43.62645" lon="5.44822">
        <ele>427</ele>
        <time>2022-10-26T08:39:35.000Z</time>
      </trkpt>
      <trkpt lat="43.62645" lon="5.44825">
        <ele>427.4</ele>
        <time>2022-10-26T08:39:38.000Z</time>
      </trkpt>
      <trkpt lat="43.62645" lon="5.44829">
        <ele>427.8</ele>
        <time>2022-10-26T08:39:41.000Z</time>
      </trkpt>
      <trkpt lat="43.62645" lon="5.44832">
        <ele>428.2</ele>
        <time>2022-10-26T08:39:45.000Z</time>
      </trkpt>
      <trkpt lat="43.62644" lon="5.44836">
        <ele>429</ele>
        <time>2022-10-26T08:39:48.000Z</time>
      </trkpt>
      <trkpt lat="43.62644" lon="5.44839">
        <ele>429.7</ele>
        <time>2022-10-26T08:39:51.000Z</time>
      </trkpt>
      <trkpt lat="43.62642" lon="5.44841">
        <ele>430.5</ele>
        <time>2022-10-26T08:39:54.000Z</time>
      </trkpt>
      <trkpt lat="43.62641" lon="5.44843">
        <ele>431.3</ele>
        <time>2022-10-26T08:39:57.000Z</time>
      </trkpt>
      <trkpt lat="43.62638" lon="5.44843">
        <ele>431.5</ele>
        <time>2022-10-26T08:40:00.000Z</time>
      </trkpt>
      <trkpt lat="43.62636" lon="5.44843">
        <ele>431.4</ele>
        <time>2022-10-26T08:40:02.000Z</time>
      </trkpt>
      <trkpt lat="43.62634" lon="5.44843">
        <ele>431.4</ele>
        <time>2022-10-26T08:40:04.000Z</time>
      </trkpt>
      <trkpt lat="43.62633" lon="5.44843">
        <ele>431.3</ele>
        <time>2022-10-26T08:40:06.000Z</time>
      </trkpt>
      <trkpt lat="43.6263" lon="5.44843">
        <ele>431.4</ele>
        <time>2022-10-26T08:40:09.000Z</time>
      </trkpt>
      <trkpt lat="43.62628" lon="5.44844">
        <ele>431.5</ele>
        <time>2022-10-26T08:40:11.000Z</time>
      </trkpt>
      <trkpt lat="43.62626" lon="5.44845">
        <ele>431.5</ele>
        <time>2022-10-26T08:40:13.000Z</time>
      </trkpt>
      <trkpt lat="43.62624" lon="5.44845">
        <ele>431.5</ele>
        <time>2022-10-26T08:40:15.000Z</time>
      </trkpt>
      <trkpt lat="43.62622" lon="5.44847">
        <ele>431.5</ele>
        <time>2022-10-26T08:40:18.000Z</time>
      </trkpt>
      <trkpt lat="43.6262" lon="5.44847">
        <ele>431.5</ele>
        <time>2022-10-26T08:40:20.000Z</time>
      </trkpt>
      <trkpt lat="43.62618" lon="5.44848">
        <ele>431.4</ele>
        <time>2022-10-26T08:40:22.000Z</time>
      </trkpt>
      <trkpt lat="43.62616" lon="5.44849">
        <ele>431.3</ele>
        <time>2022-10-26T08:40:24.000Z</time>
      </trkpt>
      <trkpt lat="43.62614" lon="5.4485">
        <ele>431.2</ele>
        <time>2022-10-26T08:40:26.000Z</time>
      </trkpt>
      <trkpt lat="43.62612" lon="5.44852">
        <ele>431</ele>
        <time>2022-10-26T08:40:29.000Z</time>
      </trkpt>
      <trkpt lat="43.62611" lon="5.44855">
        <ele>431</ele>
        <time>2022-10-26T08:40:32.000Z</time>
      </trkpt>
      <trkpt lat="43.62611" lon="5.44858">
        <ele>431</ele>
        <time>2022-10-26T08:40:35.000Z</time>
      </trkpt>
      <trkpt lat="43.62611" lon="5.44862">
        <ele>431</ele>
        <time>2022-10-26T08:40:38.000Z</time>
      </trkpt>
      <trkpt lat="43.62609" lon="5.44863">
        <ele>431.2</ele>
        <time>2022-10-26T08:48:19.000Z</time>
      </trkpt>
      <trkpt lat="43.62607" lon="5.44864">
        <ele>431.2</ele>
        <time>2022-10-26T08:48:21.000Z</time>
      </trkpt>
      <trkpt lat="43.62606" lon="5.44866">
        <ele>431.3</ele>
        <time>2022-10-26T08:48:23.000Z</time>
      </trkpt>
      <trkpt lat="43.62604" lon="5.44867">
        <ele>431.3</ele>
        <time>2022-10-26T08:48:25.000Z</time>
      </trkpt>
      <trkpt lat="43.62602" lon="5.44868">
        <ele>431.2</ele>
        <time>2022-10-26T08:48:27.000Z</time>
      </trkpt>
      <trkpt lat="43.626" lon="5.44868">
        <ele>431.1</ele>
        <time>2022-10-26T08:48:29.000Z</time>
      </trkpt>
      <trkpt lat="43.62598" lon="5.4487">
        <ele>431</ele>
        <time>2022-10-26T08:48:31.000Z</time>
      </trkpt>
      <trkpt lat="43.62596" lon="5.44872">
        <ele>430.9</ele>
        <time>2022-10-26T08:48:33.000Z</time>
      </trkpt>
      <trkpt lat="43.62593" lon="5.44873">
        <ele>430.7</ele>
        <time>2022-10-26T08:48:35.000Z</time>
      </trkpt>
      <trkpt lat="43.62591" lon="5.44875">
        <ele>430.5</ele>
        <time>2022-10-26T08:48:37.000Z</time>
      </trkpt>
      <trkpt lat="43.62589" lon="5.44877">
        <ele>430.3</ele>
        <time>2022-10-26T08:48:39.000Z</time>
      </trkpt>
      <trkpt lat="43.62587" lon="5.44878">
        <ele>430</ele>
        <time>2022-10-26T08:48:41.000Z</time>
      </trkpt>
      <trkpt lat="43.62586" lon="5.4488">
        <ele>429.7</ele>
        <time>2022-10-26T08:48:43.000Z</time>
      </trkpt>
      <trkpt lat="43.62584" lon="5.44881">
        <ele>429.3</ele>
        <time>2022-10-26T08:48:45.000Z</time>
      </trkpt>
      <trkpt lat="43.62582" lon="5.44882">
        <ele>429.3</ele>
        <time>2022-10-26T08:48:47.000Z</time>
      </trkpt>
      <trkpt lat="43.62579" lon="5.44883">
        <ele>429.3</ele>
        <time>2022-10-26T08:48:50.000Z</time>
      </trkpt>
      <trkpt lat="43.62577" lon="5.44885">
        <ele>429.3</ele>
        <time>2022-10-26T08:48:53.000Z</time>
      </trkpt>
      <trkpt lat="43.62575" lon="5.44886">
        <ele>429.2</ele>
        <time>2022-10-26T08:48:55.000Z</time>
      </trkpt>
      <trkpt lat="43.62573" lon="5.44887">
        <ele>429.2</ele>
        <time>2022-10-26T08:48:58.000Z</time>
      </trkpt>
      <trkpt lat="43.62571" lon="5.44887">
        <ele>429.1</ele>
        <time>2022-10-26T08:49:01.000Z</time>
      </trkpt>
      <trkpt lat="43.62569" lon="5.44888">
        <ele>429.1</ele>
        <time>2022-10-26T08:49:22.000Z</time>
      </trkpt>
      <trkpt lat="43.62568" lon="5.4489">
        <ele>428.9</ele>
        <time>2022-10-26T08:49:25.000Z</time>
      </trkpt>
      <trkpt lat="43.62566" lon="5.44892">
        <ele>428.8</ele>
        <time>2022-10-26T08:49:29.000Z</time>
      </trkpt>
      <trkpt lat="43.62564" lon="5.44892">
        <ele>428.8</ele>
        <time>2022-10-26T08:49:33.000Z</time>
      </trkpt>
      <trkpt lat="43.62563" lon="5.44894">
        <ele>428.5</ele>
        <time>2022-10-26T08:49:38.000Z</time>
      </trkpt>
      <trkpt lat="43.62562" lon="5.44897">
        <ele>428.3</ele>
        <time>2022-10-26T08:49:42.000Z</time>
      </trkpt>
      <trkpt lat="43.6256" lon="5.44898">
        <ele>428</ele>
        <time>2022-10-26T08:49:45.000Z</time>
      </trkpt>
      <trkpt lat="43.62558" lon="5.449">
        <ele>427.7</ele>
        <time>2022-10-26T08:49:48.000Z</time>
      </trkpt>
      <trkpt lat="43.62557" lon="5.44901">
        <ele>427.4</ele>
        <time>2022-10-26T08:49:51.000Z</time>
      </trkpt>
      <trkpt lat="43.62555" lon="5.44902">
        <ele>427</ele>
        <time>2022-10-26T08:49:54.000Z</time>
      </trkpt>
      <trkpt lat="43.62553" lon="5.44904">
        <ele>426.8</ele>
        <time>2022-10-26T08:49:57.000Z</time>
      </trkpt>
      <trkpt lat="43.62551" lon="5.44906">
        <ele>426.5</ele>
        <time>2022-10-26T08:50:00.000Z</time>
      </trkpt>
      <trkpt lat="43.6255" lon="5.44907">
        <ele>426.3</ele>
        <time>2022-10-26T08:50:03.000Z</time>
      </trkpt>
      <trkpt lat="43.62549" lon="5.44909">
        <ele>425.9</ele>
        <time>2022-10-26T08:50:07.000Z</time>
      </trkpt>
      <trkpt lat="43.62547" lon="5.44911">
        <ele>425.6</ele>
        <time>2022-10-26T08:50:10.000Z</time>
      </trkpt>
      <trkpt lat="43.62546" lon="5.44914">
        <ele>425</ele>
        <time>2022-10-26T08:50:14.000Z</time>
      </trkpt>
      <trkpt lat="43.62545" lon="5.44916">
        <ele>424.7</ele>
        <time>2022-10-26T08:50:16.000Z</time>
      </trkpt>
      <trkpt lat="43.62543" lon="5.44918">
        <ele>424.5</ele>
        <time>2022-10-26T08:50:18.000Z</time>
      </trkpt>
      <trkpt lat="43.62542" lon="5.44919">
        <ele>424.4</ele>
        <time>2022-10-26T08:50:20.000Z</time>
      </trkpt>
      <trkpt lat="43.6254" lon="5.4492">
        <ele>424.2</ele>
        <time>2022-10-26T08:50:22.000Z</time>
      </trkpt>
      <trkpt lat="43.62538" lon="5.44921">
        <ele>424.1</ele>
        <time>2022-10-26T08:50:24.000Z</time>
      </trkpt>
      <trkpt lat="43.62536" lon="5.44922">
        <ele>424</ele>
        <time>2022-10-26T08:50:26.000Z</time>
      </trkpt>
      <trkpt lat="43.62534" lon="5.44923">
        <ele>423.8</ele>
        <time>2022-10-26T08:50:28.000Z</time>
      </trkpt>
      <trkpt lat="43.62532" lon="5.44924">
        <ele>423.7</ele>
        <time>2022-10-26T08:50:30.000Z</time>
      </trkpt>
      <trkpt lat="43.6253" lon="5.44926">
        <ele>423.4</ele>
        <time>2022-10-26T08:50:33.000Z</time>
      </trkpt>
      <trkpt lat="43.62528" lon="5.44927">
        <ele>423.3</ele>
        <time>2022-10-26T08:50:36.000Z</time>
      </trkpt>
      <trkpt lat="43.62525" lon="5.44928">
        <ele>423.4</ele>
        <time>2022-10-26T08:50:39.000Z</time>
      </trkpt>
      <trkpt lat="43.62523" lon="5.44929">
        <ele>423.5</ele>
        <time>2022-10-26T08:50:41.000Z</time>
      </trkpt>
      <trkpt lat="43.62521" lon="5.44929">
        <ele>423.6</ele>
        <time>2022-10-26T08:50:43.000Z</time>
      </trkpt>
      <trkpt lat="43.62519" lon="5.4493">
        <ele>423.7</ele>
        <time>2022-10-26T08:50:45.000Z</time>
      </trkpt>
      <trkpt lat="43.62517" lon="5.44931">
        <ele>423.8</ele>
        <time>2022-10-26T08:50:47.000Z</time>
      </trkpt>
      <trkpt lat="43.62515" lon="5.44932">
        <ele>423.8</ele>
        <time>2022-10-26T08:50:49.000Z</time>
      </trkpt>
      <trkpt lat="43.62513" lon="5.44934">
        <ele>423.7</ele>
        <time>2022-10-26T08:50:51.000Z</time>
      </trkpt>
      <trkpt lat="43.62511" lon="5.44936">
        <ele>423.6</ele>
        <time>2022-10-26T08:50:53.000Z</time>
      </trkpt>
      <trkpt lat="43.6251" lon="5.44938">
        <ele>423.4</ele>
        <time>2022-10-26T08:50:55.000Z</time>
      </trkpt>
      <trkpt lat="43.62508" lon="5.4494">
        <ele>423.2</ele>
        <time>2022-10-26T08:50:57.000Z</time>
      </trkpt>
      <trkpt lat="43.62507" lon="5.44942">
        <ele>423</ele>
        <time>2022-10-26T08:50:59.000Z</time>
      </trkpt>
      <trkpt lat="43.62505" lon="5.44945">
        <ele>422.8</ele>
        <time>2022-10-26T08:51:01.000Z</time>
      </trkpt>
      <trkpt lat="43.62504" lon="5.44948">
        <ele>422.7</ele>
        <time>2022-10-26T08:51:03.000Z</time>
      </trkpt>
      <trkpt lat="43.62503" lon="5.4495">
        <ele>422.5</ele>
        <time>2022-10-26T08:51:05.000Z</time>
      </trkpt>
      <trkpt lat="43.62501" lon="5.44952">
        <ele>422.4</ele>
        <time>2022-10-26T08:51:07.000Z</time>
      </trkpt>
      <trkpt lat="43.62499" lon="5.44955">
        <ele>422.4</ele>
        <time>2022-10-26T08:51:09.000Z</time>
      </trkpt>
      <trkpt lat="43.62497" lon="5.44957">
        <ele>422.6</ele>
        <time>2022-10-26T08:51:11.000Z</time>
      </trkpt>
      <trkpt lat="43.62496" lon="5.44959">
        <ele>422.6</ele>
        <time>2022-10-26T08:51:13.000Z</time>
      </trkpt>
      <trkpt lat="43.62495" lon="5.44961">
        <ele>422.6</ele>
        <time>2022-10-26T08:51:15.000Z</time>
      </trkpt>
      <trkpt lat="43.62494" lon="5.44963">
        <ele>422.6</ele>
        <time>2022-10-26T08:51:17.000Z</time>
      </trkpt>
      <trkpt lat="43.62492" lon="5.44966">
        <ele>422.5</ele>
        <time>2022-10-26T08:51:19.000Z</time>
      </trkpt>
      <trkpt lat="43.6249" lon="5.44968">
        <ele>422.5</ele>
        <time>2022-10-26T08:51:21.000Z</time>
      </trkpt>
      <trkpt lat="43.62489" lon="5.4497">
        <ele>422.4</ele>
        <time>2022-10-26T08:51:23.000Z</time>
      </trkpt>
      <trkpt lat="43.62487" lon="5.44973">
        <ele>422.4</ele>
        <time>2022-10-26T08:51:25.000Z</time>
      </trkpt>
      <trkpt lat="43.62486" lon="5.44974">
        <ele>422.8</ele>
        <time>2022-10-26T08:51:27.000Z</time>
      </trkpt>
      <trkpt lat="43.62484" lon="5.44976">
        <ele>423.1</ele>
        <time>2022-10-26T08:51:29.000Z</time>
      </trkpt>
      <trkpt lat="43.62482" lon="5.44979">
        <ele>423.5</ele>
        <time>2022-10-26T08:51:31.000Z</time>
      </trkpt>
      <trkpt lat="43.6248" lon="5.44981">
        <ele>423.8</ele>
        <time>2022-10-26T08:51:33.000Z</time>
      </trkpt>
      <trkpt lat="43.62478" lon="5.44983">
        <ele>424</ele>
        <time>2022-10-26T08:51:35.000Z</time>
      </trkpt>
      <trkpt lat="43.62476" lon="5.44984">
        <ele>424.2</ele>
        <time>2022-10-26T08:51:37.000Z</time>
      </trkpt>
      <trkpt lat="43.62473" lon="5.44985">
        <ele>424.4</ele>
        <time>2022-10-26T08:51:39.000Z</time>
      </trkpt>
      <trkpt lat="43.62471" lon="5.44986">
        <ele>424.5</ele>
        <time>2022-10-26T08:51:41.000Z</time>
      </trkpt>
      <trkpt lat="43.62469" lon="5.44986">
        <ele>424.7</ele>
        <time>2022-10-26T08:51:43.000Z</time>
      </trkpt>
      <trkpt lat="43.62467" lon="5.44987">
        <ele>424.8</ele>
        <time>2022-10-26T08:51:45.000Z</time>
      </trkpt>
      <trkpt lat="43.62465" lon="5.44987">
        <ele>424.9</ele>
        <time>2022-10-26T08:51:47.000Z</time>
      </trkpt>
      <trkpt lat="43.62462" lon="5.44988">
        <ele>424.9</ele>
        <time>2022-10-26T08:51:49.000Z</time>
      </trkpt>
      <trkpt lat="43.6246" lon="5.44989">
        <ele>424.9</ele>
        <time>2022-10-26T08:51:51.000Z</time>
      </trkpt>
      <trkpt lat="43.62458" lon="5.4499">
        <ele>424.9</ele>
        <time>2022-10-26T08:51:53.000Z</time>
      </trkpt>
      <trkpt lat="43.62456" lon="5.44992">
        <ele>424.8</ele>
        <time>2022-10-26T08:51:55.000Z</time>
      </trkpt>
      <trkpt lat="43.62453" lon="5.44993">
        <ele>424.6</ele>
        <time>2022-10-26T08:51:57.000Z</time>
      </trkpt>
      <trkpt lat="43.62451" lon="5.44995">
        <ele>424.3</ele>
        <time>2022-10-26T08:51:59.000Z</time>
      </trkpt>
      <trkpt lat="43.62449" lon="5.44997">
        <ele>423.8</ele>
        <time>2022-10-26T08:52:01.000Z</time>
      </trkpt>
      <trkpt lat="43.62446" lon="5.44999">
        <ele>423.4</ele>
        <time>2022-10-26T08:52:03.000Z</time>
      </trkpt>
      <trkpt lat="43.62444" lon="5.45">
        <ele>423</ele>
        <time>2022-10-26T08:52:05.000Z</time>
      </trkpt>
      <trkpt lat="43.62443" lon="5.45002">
        <ele>423.2</ele>
        <time>2022-10-26T08:52:07.000Z</time>
      </trkpt>
      <trkpt lat="43.62441" lon="5.45004">
        <ele>423.5</ele>
        <time>2022-10-26T08:52:09.000Z</time>
      </trkpt>
      <trkpt lat="43.62439" lon="5.45005">
        <ele>423.6</ele>
        <time>2022-10-26T08:52:11.000Z</time>
      </trkpt>
      <trkpt lat="43.62437" lon="5.45007">
        <ele>423.7</ele>
        <time>2022-10-26T08:52:13.000Z</time>
      </trkpt>
      <trkpt lat="43.62435" lon="5.45009">
        <ele>423.8</ele>
        <time>2022-10-26T08:52:15.000Z</time>
      </trkpt>
      <trkpt lat="43.62433" lon="5.45011">
        <ele>423.8</ele>
        <time>2022-10-26T08:52:17.000Z</time>
      </trkpt>
      <trkpt lat="43.62432" lon="5.45012">
        <ele>423.8</ele>
        <time>2022-10-26T08:52:19.000Z</time>
      </trkpt>
      <trkpt lat="43.6243" lon="5.45014">
        <ele>423.7</ele>
        <time>2022-10-26T08:52:21.000Z</time>
      </trkpt>
      <trkpt lat="43.62428" lon="5.45016">
        <ele>423.7</ele>
        <time>2022-10-26T08:52:23.000Z</time>
      </trkpt>
      <trkpt lat="43.62427" lon="5.45017">
        <ele>423.5</ele>
        <time>2022-10-26T08:52:25.000Z</time>
      </trkpt>
      <trkpt lat="43.62425" lon="5.45019">
        <ele>423.4</ele>
        <time>2022-10-26T08:52:27.000Z</time>
      </trkpt>
      <trkpt lat="43.62423" lon="5.4502">
        <ele>423.2</ele>
        <time>2022-10-26T08:52:29.000Z</time>
      </trkpt>
      <trkpt lat="43.62421" lon="5.45022">
        <ele>422.9</ele>
        <time>2022-10-26T08:52:31.000Z</time>
      </trkpt>
      <trkpt lat="43.62419" lon="5.45023">
        <ele>422.7</ele>
        <time>2022-10-26T08:52:33.000Z</time>
      </trkpt>
      <trkpt lat="43.62417" lon="5.45025">
        <ele>422.4</ele>
        <time>2022-10-26T08:52:35.000Z</time>
      </trkpt>
      <trkpt lat="43.62415" lon="5.45026">
        <ele>422.2</ele>
        <time>2022-10-26T08:52:37.000Z</time>
      </trkpt>
      <trkpt lat="43.62413" lon="5.45027">
        <ele>422</ele>
        <time>2022-10-26T08:52:39.000Z</time>
      </trkpt>
      <trkpt lat="43.62411" lon="5.45028">
        <ele>421.8</ele>
        <time>2022-10-26T08:52:41.000Z</time>
      </trkpt>
      <trkpt lat="43.62409" lon="5.4503">
        <ele>421.8</ele>
        <time>2022-10-26T08:52:43.000Z</time>
      </trkpt>
      <trkpt lat="43.62407" lon="5.45031">
        <ele>421.7</ele>
        <time>2022-10-26T08:52:45.000Z</time>
      </trkpt>
      <trkpt lat="43.62404" lon="5.45032">
        <ele>421.6</ele>
        <time>2022-10-26T08:52:47.000Z</time>
      </trkpt>
      <trkpt lat="43.62402" lon="5.45034">
        <ele>421.6</ele>
        <time>2022-10-26T08:52:49.000Z</time>
      </trkpt>
      <trkpt lat="43.62399" lon="5.45035">
        <ele>421.5</ele>
        <time>2022-10-26T08:52:51.000Z</time>
      </trkpt>
      <trkpt lat="43.62397" lon="5.45036">
        <ele>421.4</ele>
        <time>2022-10-26T08:52:53.000Z</time>
      </trkpt>
      <trkpt lat="43.62395" lon="5.45038">
        <ele>421.3</ele>
        <time>2022-10-26T08:52:55.000Z</time>
      </trkpt>
      <trkpt lat="43.62392" lon="5.4504">
        <ele>421.2</ele>
        <time>2022-10-26T08:52:57.000Z</time>
      </trkpt>
      <trkpt lat="43.6239" lon="5.45041">
        <ele>421.1</ele>
        <time>2022-10-26T08:52:59.000Z</time>
      </trkpt>
      <trkpt lat="43.62388" lon="5.45043">
        <ele>421</ele>
        <time>2022-10-26T08:53:01.000Z</time>
      </trkpt>
      <trkpt lat="43.62386" lon="5.45045">
        <ele>421</ele>
        <time>2022-10-26T08:53:03.000Z</time>
      </trkpt>
      <trkpt lat="43.62384" lon="5.45046">
        <ele>420.9</ele>
        <time>2022-10-26T08:53:05.000Z</time>
      </trkpt>
      <trkpt lat="43.62382" lon="5.45047">
        <ele>420.8</ele>
        <time>2022-10-26T08:53:07.000Z</time>
      </trkpt>
      <trkpt lat="43.6238" lon="5.45048">
        <ele>420.7</ele>
        <time>2022-10-26T08:53:09.000Z</time>
      </trkpt>
      <trkpt lat="43.62378" lon="5.4505">
        <ele>420.6</ele>
        <time>2022-10-26T08:53:11.000Z</time>
      </trkpt>
      <trkpt lat="43.62376" lon="5.45051">
        <ele>420.4</ele>
        <time>2022-10-26T08:53:13.000Z</time>
      </trkpt>
      <trkpt lat="43.62374" lon="5.45052">
        <ele>420.2</ele>
        <time>2022-10-26T08:53:15.000Z</time>
      </trkpt>
      <trkpt lat="43.62372" lon="5.45053">
        <ele>420</ele>
        <time>2022-10-26T08:53:17.000Z</time>
      </trkpt>
      <trkpt lat="43.6237" lon="5.45054">
        <ele>419.8</ele>
        <time>2022-10-26T08:53:19.000Z</time>
      </trkpt>
      <trkpt lat="43.62367" lon="5.45055">
        <ele>419.5</ele>
        <time>2022-10-26T08:53:21.000Z</time>
      </trkpt>
      <trkpt lat="43.62365" lon="5.45056">
        <ele>419.3</ele>
        <time>2022-10-26T08:53:23.000Z</time>
      </trkpt>
      <trkpt lat="43.62363" lon="5.45056">
        <ele>419.2</ele>
        <time>2022-10-26T08:53:25.000Z</time>
      </trkpt>
      <trkpt lat="43.62361" lon="5.45057">
        <ele>419.1</ele>
        <time>2022-10-26T08:53:27.000Z</time>
      </trkpt>
      <trkpt lat="43.62359" lon="5.45058">
        <ele>419.1</ele>
        <time>2022-10-26T08:53:29.000Z</time>
      </trkpt>
      <trkpt lat="43.62357" lon="5.45059">
        <ele>419.2</ele>
        <time>2022-10-26T08:53:31.000Z</time>
      </trkpt>
      <trkpt lat="43.62355" lon="5.45059">
        <ele>419.1</ele>
        <time>2022-10-26T08:53:33.000Z</time>
      </trkpt>
      <trkpt lat="43.62352" lon="5.4506">
        <ele>419.1</ele>
        <time>2022-10-26T08:53:35.000Z</time>
      </trkpt>
      <trkpt lat="43.6235" lon="5.45061">
        <ele>419.1</ele>
        <time>2022-10-26T08:53:37.000Z</time>
      </trkpt>
      <trkpt lat="43.62348" lon="5.45061">
        <ele>419</ele>
        <time>2022-10-26T08:53:39.000Z</time>
      </trkpt>
      <trkpt lat="43.62346" lon="5.45062">
        <ele>418.9</ele>
        <time>2022-10-26T08:53:41.000Z</time>
      </trkpt>
      <trkpt lat="43.62343" lon="5.45062">
        <ele>418.9</ele>
        <time>2022-10-26T08:53:43.000Z</time>
      </trkpt>
      <trkpt lat="43.62341" lon="5.45063">
        <ele>418.8</ele>
        <time>2022-10-26T08:53:45.000Z</time>
      </trkpt>
      <trkpt lat="43.62339" lon="5.45063">
        <ele>418.7</ele>
        <time>2022-10-26T08:53:47.000Z</time>
      </trkpt>
      <trkpt lat="43.62337" lon="5.45064">
        <ele>418.5</ele>
        <time>2022-10-26T08:53:49.000Z</time>
      </trkpt>
      <trkpt lat="43.62335" lon="5.45065">
        <ele>418.4</ele>
        <time>2022-10-26T08:53:51.000Z</time>
      </trkpt>
      <trkpt lat="43.62333" lon="5.45066">
        <ele>418.3</ele>
        <time>2022-10-26T08:53:53.000Z</time>
      </trkpt>
      <trkpt lat="43.6233" lon="5.45066">
        <ele>418.4</ele>
        <time>2022-10-26T08:53:55.000Z</time>
      </trkpt>
      <trkpt lat="43.62328" lon="5.45067">
        <ele>418.5</ele>
        <time>2022-10-26T08:53:57.000Z</time>
      </trkpt>
      <trkpt lat="43.62326" lon="5.45068">
        <ele>418.5</ele>
        <time>2022-10-26T08:53:59.000Z</time>
      </trkpt>
      <trkpt lat="43.62324" lon="5.45068">
        <ele>418.7</ele>
        <time>2022-10-26T08:54:01.000Z</time>
      </trkpt>
      <trkpt lat="43.62321" lon="5.45068">
        <ele>418.9</ele>
        <time>2022-10-26T08:54:03.000Z</time>
      </trkpt>
      <trkpt lat="43.62319" lon="5.45068">
        <ele>419</ele>
        <time>2022-10-26T08:54:05.000Z</time>
      </trkpt>
      <trkpt lat="43.62317" lon="5.45068">
        <ele>419.1</ele>
        <time>2022-10-26T08:54:07.000Z</time>
      </trkpt>
      <trkpt lat="43.62315" lon="5.45068">
        <ele>419.3</ele>
        <time>2022-10-26T08:54:09.000Z</time>
      </trkpt>
      <trkpt lat="43.62312" lon="5.45068">
        <ele>419.3</ele>
        <time>2022-10-26T08:54:11.000Z</time>
      </trkpt>
      <trkpt lat="43.6231" lon="5.45069">
        <ele>419.4</ele>
        <time>2022-10-26T08:54:13.000Z</time>
      </trkpt>
      <trkpt lat="43.62308" lon="5.45069">
        <ele>419.5</ele>
        <time>2022-10-26T08:54:15.000Z</time>
      </trkpt>
      <trkpt lat="43.62306" lon="5.45069">
        <ele>419.6</ele>
        <time>2022-10-26T08:54:17.000Z</time>
      </trkpt>
      <trkpt lat="43.62303" lon="5.45069">
        <ele>419.7</ele>
        <time>2022-10-26T08:54:19.000Z</time>
      </trkpt>
      <trkpt lat="43.62301" lon="5.45069">
        <ele>419.9</ele>
        <time>2022-10-26T08:54:21.000Z</time>
      </trkpt>
      <trkpt lat="43.62299" lon="5.45069">
        <ele>420.1</ele>
        <time>2022-10-26T08:54:23.000Z</time>
      </trkpt>
      <trkpt lat="43.62296" lon="5.45069">
        <ele>420.3</ele>
        <time>2022-10-26T08:54:25.000Z</time>
      </trkpt>
      <trkpt lat="43.62294" lon="5.45068">
        <ele>420.6</ele>
        <time>2022-10-26T08:54:27.000Z</time>
      </trkpt>
      <trkpt lat="43.62292" lon="5.45068">
        <ele>420.7</ele>
        <time>2022-10-26T08:54:29.000Z</time>
      </trkpt>
      <trkpt lat="43.6229" lon="5.45068">
        <ele>421</ele>
        <time>2022-10-26T08:54:31.000Z</time>
      </trkpt>
      <trkpt lat="43.62288" lon="5.45067">
        <ele>421.3</ele>
        <time>2022-10-26T08:54:33.000Z</time>
      </trkpt>
      <trkpt lat="43.62285" lon="5.45067">
        <ele>421.5</ele>
        <time>2022-10-26T08:54:36.000Z</time>
      </trkpt>
      <trkpt lat="43.62282" lon="5.45067">
        <ele>421.8</ele>
        <time>2022-10-26T08:54:39.000Z</time>
      </trkpt>
      <trkpt lat="43.6228" lon="5.45066">
        <ele>422.1</ele>
        <time>2022-10-26T08:54:41.000Z</time>
      </trkpt>
      <trkpt lat="43.62279" lon="5.45066">
        <ele>422.3</ele>
        <time>2022-10-26T08:54:43.000Z</time>
      </trkpt>
      <trkpt lat="43.62277" lon="5.45066">
        <ele>422.5</ele>
        <time>2022-10-26T08:54:45.000Z</time>
      </trkpt>
      <trkpt lat="43.62275" lon="5.45065">
        <ele>422.7</ele>
        <time>2022-10-26T08:54:47.000Z</time>
      </trkpt>
      <trkpt lat="43.62273" lon="5.45065">
        <ele>422.8</ele>
        <time>2022-10-26T08:54:49.000Z</time>
      </trkpt>
      <trkpt lat="43.62271" lon="5.45065">
        <ele>422.9</ele>
        <time>2022-10-26T08:54:52.000Z</time>
      </trkpt>
      <trkpt lat="43.62268" lon="5.45065">
        <ele>423</ele>
        <time>2022-10-26T08:54:54.000Z</time>
      </trkpt>
      <trkpt lat="43.62266" lon="5.45067">
        <ele>422.8</ele>
        <time>2022-10-26T08:54:56.000Z</time>
      </trkpt>
      <trkpt lat="43.62264" lon="5.45067">
        <ele>422.9</ele>
        <time>2022-10-26T08:54:58.000Z</time>
      </trkpt>
      <trkpt lat="43.62261" lon="5.45067">
        <ele>422.9</ele>
        <time>2022-10-26T08:55:01.000Z</time>
      </trkpt>
      <trkpt lat="43.62259" lon="5.45067">
        <ele>423</ele>
        <time>2022-10-26T08:55:04.000Z</time>
      </trkpt>
      <trkpt lat="43.62256" lon="5.45068">
        <ele>422.9</ele>
        <time>2022-10-26T08:55:06.000Z</time>
      </trkpt>
      <trkpt lat="43.62254" lon="5.45068">
        <ele>423</ele>
        <time>2022-10-26T08:55:09.000Z</time>
      </trkpt>
      <trkpt lat="43.62252" lon="5.45069">
        <ele>423</ele>
        <time>2022-10-26T08:55:11.000Z</time>
      </trkpt>
      <trkpt lat="43.6225" lon="5.45068">
        <ele>423.3</ele>
        <time>2022-10-26T08:55:14.000Z</time>
      </trkpt>
      <trkpt lat="43.62248" lon="5.45069">
        <ele>423.4</ele>
        <time>2022-10-26T08:55:16.000Z</time>
      </trkpt>
      <trkpt lat="43.62246" lon="5.45069">
        <ele>423.6</ele>
        <time>2022-10-26T08:55:19.000Z</time>
      </trkpt>
      <trkpt lat="43.62243" lon="5.4507">
        <ele>423.8</ele>
        <time>2022-10-26T08:55:22.000Z</time>
      </trkpt>
      <trkpt lat="43.62241" lon="5.4507">
        <ele>423.9</ele>
        <time>2022-10-26T08:55:24.000Z</time>
      </trkpt>
      <trkpt lat="43.62239" lon="5.4507">
        <ele>424</ele>
        <time>2022-10-26T08:55:26.000Z</time>
      </trkpt>
      <trkpt lat="43.62237" lon="5.45071">
        <ele>424.1</ele>
        <time>2022-10-26T08:55:28.000Z</time>
      </trkpt>
      <trkpt lat="43.62234" lon="5.45072">
        <ele>424.2</ele>
        <time>2022-10-26T08:55:30.000Z</time>
      </trkpt>
      <trkpt lat="43.62232" lon="5.45073">
        <ele>424.1</ele>
        <time>2022-10-26T08:55:32.000Z</time>
      </trkpt>
      <trkpt lat="43.6223" lon="5.45074">
        <ele>424.3</ele>
        <time>2022-10-26T08:55:34.000Z</time>
      </trkpt>
      <trkpt lat="43.62228" lon="5.45074">
        <ele>424.3</ele>
        <time>2022-10-26T08:55:36.000Z</time>
      </trkpt>
      <trkpt lat="43.62225" lon="5.45076">
        <ele>424.3</ele>
        <time>2022-10-26T08:55:38.000Z</time>
      </trkpt>
      <trkpt lat="43.62223" lon="5.45076">
        <ele>424.4</ele>
        <time>2022-10-26T08:55:40.000Z</time>
      </trkpt>
      <trkpt lat="43.62222" lon="5.45077">
        <ele>424.5</ele>
        <time>2022-10-26T08:55:42.000Z</time>
      </trkpt>
      <trkpt lat="43.62219" lon="5.45078">
        <ele>424.6</ele>
        <time>2022-10-26T08:55:44.000Z</time>
      </trkpt>
      <trkpt lat="43.62216" lon="5.45079">
        <ele>424.8</ele>
        <time>2022-10-26T08:55:46.000Z</time>
      </trkpt>
      <trkpt lat="43.62214" lon="5.4508">
        <ele>424.7</ele>
        <time>2022-10-26T08:55:48.000Z</time>
      </trkpt>
      <trkpt lat="43.62212" lon="5.45081">
        <ele>424.8</ele>
        <time>2022-10-26T08:55:50.000Z</time>
      </trkpt>
      <trkpt lat="43.6221" lon="5.45082">
        <ele>424.9</ele>
        <time>2022-10-26T08:55:53.000Z</time>
      </trkpt>
      <trkpt lat="43.62208" lon="5.45082">
        <ele>425</ele>
        <time>2022-10-26T08:55:55.000Z</time>
      </trkpt>
      <trkpt lat="43.62205" lon="5.45084">
        <ele>424.8</ele>
        <time>2022-10-26T08:55:58.000Z</time>
      </trkpt>
      <trkpt lat="43.62203" lon="5.45085">
        <ele>424.8</ele>
        <time>2022-10-26T08:56:00.000Z</time>
      </trkpt>
      <trkpt lat="43.62201" lon="5.45086">
        <ele>424.7</ele>
        <time>2022-10-26T08:56:02.000Z</time>
      </trkpt>
      <trkpt lat="43.62199" lon="5.45087">
        <ele>424.6</ele>
        <time>2022-10-26T08:56:04.000Z</time>
      </trkpt>
      <trkpt lat="43.62197" lon="5.45088">
        <ele>424.5</ele>
        <time>2022-10-26T08:56:06.000Z</time>
      </trkpt>
      <trkpt lat="43.62195" lon="5.45089">
        <ele>424.5</ele>
        <time>2022-10-26T08:56:08.000Z</time>
      </trkpt>
      <trkpt lat="43.62194" lon="5.45091">
        <ele>424.3</ele>
        <time>2022-10-26T08:56:10.000Z</time>
      </trkpt>
      <trkpt lat="43.62191" lon="5.45093">
        <ele>424.3</ele>
        <time>2022-10-26T08:56:13.000Z</time>
      </trkpt>
      <trkpt lat="43.62189" lon="5.45093">
        <ele>424.7</ele>
        <time>2022-10-26T08:56:15.000Z</time>
      </trkpt>
      <trkpt lat="43.62187" lon="5.45093">
        <ele>425</ele>
        <time>2022-10-26T08:56:17.000Z</time>
      </trkpt>
      <trkpt lat="43.62185" lon="5.45094">
        <ele>425.1</ele>
        <time>2022-10-26T08:56:19.000Z</time>
      </trkpt>
      <trkpt lat="43.62184" lon="5.45095">
        <ele>425.3</ele>
        <time>2022-10-26T08:56:21.000Z</time>
      </trkpt>
      <trkpt lat="43.62182" lon="5.45096">
        <ele>425.5</ele>
        <time>2022-10-26T08:56:23.000Z</time>
      </trkpt>
      <trkpt lat="43.6218" lon="5.45097">
        <ele>425.6</ele>
        <time>2022-10-26T08:56:25.000Z</time>
      </trkpt>
      <trkpt lat="43.62178" lon="5.45099">
        <ele>425.8</ele>
        <time>2022-10-26T08:56:28.000Z</time>
      </trkpt>
      <trkpt lat="43.62176" lon="5.451">
        <ele>426.1</ele>
        <time>2022-10-26T08:56:30.000Z</time>
      </trkpt>
      <trkpt lat="43.62174" lon="5.45101">
        <ele>426.3</ele>
        <time>2022-10-26T08:56:32.000Z</time>
      </trkpt>
      <trkpt lat="43.62172" lon="5.45102">
        <ele>426.5</ele>
        <time>2022-10-26T08:56:34.000Z</time>
      </trkpt>
      <trkpt lat="43.6217" lon="5.45103">
        <ele>426.8</ele>
        <time>2022-10-26T08:56:36.000Z</time>
      </trkpt>
      <trkpt lat="43.62168" lon="5.45104">
        <ele>427</ele>
        <time>2022-10-26T08:56:38.000Z</time>
      </trkpt>
      <trkpt lat="43.62165" lon="5.45105">
        <ele>427.3</ele>
        <time>2022-10-26T08:56:40.000Z</time>
      </trkpt>
      <trkpt lat="43.62163" lon="5.45106">
        <ele>427.5</ele>
        <time>2022-10-26T08:56:42.000Z</time>
      </trkpt>
      <trkpt lat="43.62161" lon="5.45108">
        <ele>427.4</ele>
        <time>2022-10-26T08:56:44.000Z</time>
      </trkpt>
      <trkpt lat="43.62159" lon="5.4511">
        <ele>427.5</ele>
        <time>2022-10-26T08:56:46.000Z</time>
      </trkpt>
      <trkpt lat="43.62157" lon="5.45111">
        <ele>427.4</ele>
        <time>2022-10-26T08:56:48.000Z</time>
      </trkpt>
      <trkpt lat="43.62155" lon="5.45112">
        <ele>427.2</ele>
        <time>2022-10-26T08:56:50.000Z</time>
      </trkpt>
      <trkpt lat="43.62153" lon="5.45114">
        <ele>426.9</ele>
        <time>2022-10-26T08:56:52.000Z</time>
      </trkpt>
      <trkpt lat="43.62151" lon="5.45116">
        <ele>426.7</ele>
        <time>2022-10-26T08:56:55.000Z</time>
      </trkpt>
      <trkpt lat="43.6215" lon="5.45117">
        <ele>426.6</ele>
        <time>2022-10-26T08:56:57.000Z</time>
      </trkpt>
      <trkpt lat="43.62148" lon="5.45119">
        <ele>426.4</ele>
        <time>2022-10-26T08:56:59.000Z</time>
      </trkpt>
      <trkpt lat="43.62146" lon="5.4512">
        <ele>426.7</ele>
        <time>2022-10-26T08:57:02.000Z</time>
      </trkpt>
      <trkpt lat="43.62144" lon="5.45121">
        <ele>426.9</ele>
        <time>2022-10-26T08:57:04.000Z</time>
      </trkpt>
      <trkpt lat="43.62142" lon="5.45121">
        <ele>427.2</ele>
        <time>2022-10-26T08:57:06.000Z</time>
      </trkpt>
      <trkpt lat="43.6214" lon="5.45122">
        <ele>427.6</ele>
        <time>2022-10-26T08:57:08.000Z</time>
      </trkpt>
      <trkpt lat="43.62138" lon="5.45123">
        <ele>427.7</ele>
        <time>2022-10-26T08:57:10.000Z</time>
      </trkpt>
      <trkpt lat="43.62135" lon="5.45124">
        <ele>427.8</ele>
        <time>2022-10-26T08:57:12.000Z</time>
      </trkpt>
      <trkpt lat="43.62133" lon="5.45124">
        <ele>428.1</ele>
        <time>2022-10-26T08:57:14.000Z</time>
      </trkpt>
      <trkpt lat="43.6213" lon="5.45124">
        <ele>428.4</ele>
        <time>2022-10-26T08:57:17.000Z</time>
      </trkpt>
      <trkpt lat="43.62129" lon="5.45125">
        <ele>428.6</ele>
        <time>2022-10-26T08:57:19.000Z</time>
      </trkpt>
      <trkpt lat="43.62126" lon="5.45126">
        <ele>428.8</ele>
        <time>2022-10-26T08:57:21.000Z</time>
      </trkpt>
      <trkpt lat="43.62123" lon="5.45127">
        <ele>428.9</ele>
        <time>2022-10-26T08:57:23.000Z</time>
      </trkpt>
      <trkpt lat="43.6212" lon="5.45128">
        <ele>429.2</ele>
        <time>2022-10-26T08:57:25.000Z</time>
      </trkpt>
      <trkpt lat="43.62117" lon="5.45128">
        <ele>429.5</ele>
        <time>2022-10-26T08:57:27.000Z</time>
      </trkpt>
      <trkpt lat="43.62115" lon="5.45129">
        <ele>429.6</ele>
        <time>2022-10-26T08:57:29.000Z</time>
      </trkpt>
      <trkpt lat="43.62112" lon="5.45131">
        <ele>429.6</ele>
        <time>2022-10-26T08:57:32.000Z</time>
      </trkpt>
      <trkpt lat="43.62112" lon="5.45134">
        <ele>428.9</ele>
        <time>2022-10-26T08:57:33.000Z</time>
      </trkpt>
      <trkpt lat="43.62114" lon="5.45136">
        <ele>428.2</ele>
        <time>2022-10-26T08:57:35.000Z</time>
      </trkpt>
      <trkpt lat="43.62112" lon="5.45139">
        <ele>427.8</ele>
        <time>2022-10-26T08:57:37.000Z</time>
      </trkpt>
      <trkpt lat="43.62109" lon="5.45139">
        <ele>428.1</ele>
        <time>2022-10-26T08:57:39.000Z</time>
      </trkpt>
      <trkpt lat="43.62107" lon="5.45138">
        <ele>428.6</ele>
        <time>2022-10-26T08:57:42.000Z</time>
      </trkpt>
      <trkpt lat="43.62105" lon="5.45137">
        <ele>429.1</ele>
        <time>2022-10-26T08:57:45.000Z</time>
      </trkpt>
      <trkpt lat="43.62103" lon="5.45137">
        <ele>429.4</ele>
        <time>2022-10-26T08:57:48.000Z</time>
      </trkpt>
      <trkpt lat="43.621" lon="5.45137">
        <ele>429.5</ele>
        <time>2022-10-26T08:57:50.000Z</time>
      </trkpt>
      <trkpt lat="43.62098" lon="5.45138">
        <ele>429.6</ele>
        <time>2022-10-26T08:57:52.000Z</time>
      </trkpt>
      <trkpt lat="43.62097" lon="5.45139">
        <ele>429.6</ele>
        <time>2022-10-26T08:57:54.000Z</time>
      </trkpt>
      <trkpt lat="43.62095" lon="5.4514">
        <ele>429.5</ele>
        <time>2022-10-26T08:57:56.000Z</time>
      </trkpt>
      <trkpt lat="43.62093" lon="5.45141">
        <ele>429.5</ele>
        <time>2022-10-26T08:57:58.000Z</time>
      </trkpt>
      <trkpt lat="43.62091" lon="5.45142">
        <ele>429.5</ele>
        <time>2022-10-26T08:58:01.000Z</time>
      </trkpt>
      <trkpt lat="43.62088" lon="5.45142">
        <ele>429.6</ele>
        <time>2022-10-26T08:58:03.000Z</time>
      </trkpt>
      <trkpt lat="43.62086" lon="5.45142">
        <ele>429.8</ele>
        <time>2022-10-26T08:58:05.000Z</time>
      </trkpt>
      <trkpt lat="43.62084" lon="5.45143">
        <ele>429.8</ele>
        <time>2022-10-26T08:58:07.000Z</time>
      </trkpt>
      <trkpt lat="43.62082" lon="5.45144">
        <ele>429.8</ele>
        <time>2022-10-26T08:58:09.000Z</time>
      </trkpt>
      <trkpt lat="43.6208" lon="5.45145">
        <ele>429.7</ele>
        <time>2022-10-26T08:58:11.000Z</time>
      </trkpt>
      <trkpt lat="43.62078" lon="5.45146">
        <ele>429.6</ele>
        <time>2022-10-26T08:58:13.000Z</time>
      </trkpt>
      <trkpt lat="43.62076" lon="5.45147">
        <ele>429.4</ele>
        <time>2022-10-26T08:58:15.000Z</time>
      </trkpt>
      <trkpt lat="43.62074" lon="5.45148">
        <ele>429.3</ele>
        <time>2022-10-26T08:58:17.000Z</time>
      </trkpt>
      <trkpt lat="43.62072" lon="5.45149">
        <ele>429.2</ele>
        <time>2022-10-26T08:58:19.000Z</time>
      </trkpt>
      <trkpt lat="43.6207" lon="5.4515">
        <ele>429.2</ele>
        <time>2022-10-26T08:58:21.000Z</time>
      </trkpt>
      <trkpt lat="43.62068" lon="5.45152">
        <ele>429</ele>
        <time>2022-10-26T08:58:23.000Z</time>
      </trkpt>
      <trkpt lat="43.62067" lon="5.45154">
        <ele>428.8</ele>
        <time>2022-10-26T08:58:25.000Z</time>
      </trkpt>
      <trkpt lat="43.62065" lon="5.45155">
        <ele>428.7</ele>
        <time>2022-10-26T08:58:27.000Z</time>
      </trkpt>
      <trkpt lat="43.62063" lon="5.45157">
        <ele>428.7</ele>
        <time>2022-10-26T08:58:29.000Z</time>
      </trkpt>
      <trkpt lat="43.62061" lon="5.45159">
        <ele>428.6</ele>
        <time>2022-10-26T08:58:31.000Z</time>
      </trkpt>
      <trkpt lat="43.62059" lon="5.4516">
        <ele>428.5</ele>
        <time>2022-10-26T08:58:33.000Z</time>
      </trkpt>
      <trkpt lat="43.62057" lon="5.45161">
        <ele>428.6</ele>
        <time>2022-10-26T08:58:35.000Z</time>
      </trkpt>
      <trkpt lat="43.62055" lon="5.45162">
        <ele>428.7</ele>
        <time>2022-10-26T08:58:37.000Z</time>
      </trkpt>
      <trkpt lat="43.62053" lon="5.45164">
        <ele>428.5</ele>
        <time>2022-10-26T08:58:39.000Z</time>
      </trkpt>
      <trkpt lat="43.62051" lon="5.45166">
        <ele>428.3</ele>
        <time>2022-10-26T08:58:41.000Z</time>
      </trkpt>
      <trkpt lat="43.62049" lon="5.45167">
        <ele>428.1</ele>
        <time>2022-10-26T08:58:43.000Z</time>
      </trkpt>
      <trkpt lat="43.62047" lon="5.45169">
        <ele>427.8</ele>
        <time>2022-10-26T08:58:45.000Z</time>
      </trkpt>
      <trkpt lat="43.62045" lon="5.4517">
        <ele>427.5</ele>
        <time>2022-10-26T08:58:47.000Z</time>
      </trkpt>
      <trkpt lat="43.62043" lon="5.45172">
        <ele>427.2</ele>
        <time>2022-10-26T08:58:49.000Z</time>
      </trkpt>
      <trkpt lat="43.6204" lon="5.45174">
        <ele>426.9</ele>
        <time>2022-10-26T08:58:51.000Z</time>
      </trkpt>
      <trkpt lat="43.62038" lon="5.45175">
        <ele>426.8</ele>
        <time>2022-10-26T08:58:53.000Z</time>
      </trkpt>
      <trkpt lat="43.62036" lon="5.45177">
        <ele>426.7</ele>
        <time>2022-10-26T08:58:55.000Z</time>
      </trkpt>
      <trkpt lat="43.62033" lon="5.45178">
        <ele>426.8</ele>
        <time>2022-10-26T08:58:57.000Z</time>
      </trkpt>
      <trkpt lat="43.62031" lon="5.45179">
        <ele>426.9</ele>
        <time>2022-10-26T08:58:59.000Z</time>
      </trkpt>
      <trkpt lat="43.62029" lon="5.4518">
        <ele>426.9</ele>
        <time>2022-10-26T08:59:01.000Z</time>
      </trkpt>
      <trkpt lat="43.62027" lon="5.45181">
        <ele>427.1</ele>
        <time>2022-10-26T08:59:03.000Z</time>
      </trkpt>
      <trkpt lat="43.62025" lon="5.45182">
        <ele>427.1</ele>
        <time>2022-10-26T08:59:05.000Z</time>
      </trkpt>
      <trkpt lat="43.62023" lon="5.45183">
        <ele>427.1</ele>
        <time>2022-10-26T08:59:07.000Z</time>
      </trkpt>
      <trkpt lat="43.62021" lon="5.45184">
        <ele>427.1</ele>
        <time>2022-10-26T08:59:09.000Z</time>
      </trkpt>
      <trkpt lat="43.62018" lon="5.45185">
        <ele>427.2</ele>
        <time>2022-10-26T08:59:11.000Z</time>
      </trkpt>
      <trkpt lat="43.62016" lon="5.45186">
        <ele>427.2</ele>
        <time>2022-10-26T08:59:13.000Z</time>
      </trkpt>
      <trkpt lat="43.62014" lon="5.45188">
        <ele>427.1</ele>
        <time>2022-10-26T08:59:15.000Z</time>
      </trkpt>
      <trkpt lat="43.62012" lon="5.45189">
        <ele>427</ele>
        <time>2022-10-26T08:59:17.000Z</time>
      </trkpt>
      <trkpt lat="43.6201" lon="5.4519">
        <ele>427.1</ele>
        <time>2022-10-26T08:59:19.000Z</time>
      </trkpt>
      <trkpt lat="43.62008" lon="5.45191">
        <ele>427.1</ele>
        <time>2022-10-26T08:59:21.000Z</time>
      </trkpt>
      <trkpt lat="43.62006" lon="5.45192">
        <ele>427.1</ele>
        <time>2022-10-26T08:59:23.000Z</time>
      </trkpt>
      <trkpt lat="43.62003" lon="5.45193">
        <ele>427.1</ele>
        <time>2022-10-26T08:59:25.000Z</time>
      </trkpt>
      <trkpt lat="43.62002" lon="5.45194">
        <ele>427</ele>
        <time>2022-10-26T08:59:27.000Z</time>
      </trkpt>
      <trkpt lat="43.61999" lon="5.45196">
        <ele>426.8</ele>
        <time>2022-10-26T08:59:29.000Z</time>
      </trkpt>
      <trkpt lat="43.61997" lon="5.45197">
        <ele>426.5</ele>
        <time>2022-10-26T08:59:31.000Z</time>
      </trkpt>
      <trkpt lat="43.61995" lon="5.45198">
        <ele>426.6</ele>
        <time>2022-10-26T08:59:33.000Z</time>
      </trkpt>
      <trkpt lat="43.61993" lon="5.45199">
        <ele>426.5</ele>
        <time>2022-10-26T08:59:35.000Z</time>
      </trkpt>
      <trkpt lat="43.61991" lon="5.452">
        <ele>426.4</ele>
        <time>2022-10-26T08:59:37.000Z</time>
      </trkpt>
      <trkpt lat="43.61988" lon="5.452">
        <ele>426.4</ele>
        <time>2022-10-26T08:59:39.000Z</time>
      </trkpt>
      <trkpt lat="43.61986" lon="5.45202">
        <ele>426.3</ele>
        <time>2022-10-26T08:59:41.000Z</time>
      </trkpt>
      <trkpt lat="43.61984" lon="5.45203">
        <ele>426.3</ele>
        <time>2022-10-26T08:59:43.000Z</time>
      </trkpt>
      <trkpt lat="43.61982" lon="5.45203">
        <ele>426.4</ele>
        <time>2022-10-26T08:59:45.000Z</time>
      </trkpt>
      <trkpt lat="43.6198" lon="5.45204">
        <ele>426.4</ele>
        <time>2022-10-26T08:59:47.000Z</time>
      </trkpt>
      <trkpt lat="43.61978" lon="5.45205">
        <ele>426.4</ele>
        <time>2022-10-26T08:59:49.000Z</time>
      </trkpt>
      <trkpt lat="43.61976" lon="5.45206">
        <ele>426.3</ele>
        <time>2022-10-26T08:59:51.000Z</time>
      </trkpt>
      <trkpt lat="43.61974" lon="5.45207">
        <ele>426.3</ele>
        <time>2022-10-26T08:59:53.000Z</time>
      </trkpt>
      <trkpt lat="43.61971" lon="5.45207">
        <ele>426.3</ele>
        <time>2022-10-26T08:59:55.000Z</time>
      </trkpt>
      <trkpt lat="43.61969" lon="5.45208">
        <ele>426.4</ele>
        <time>2022-10-26T08:59:57.000Z</time>
      </trkpt>
      <trkpt lat="43.61967" lon="5.45208">
        <ele>426.5</ele>
        <time>2022-10-26T08:59:59.000Z</time>
      </trkpt>
      <trkpt lat="43.61965" lon="5.45209">
        <ele>426.6</ele>
        <time>2022-10-26T09:00:01.000Z</time>
      </trkpt>
      <trkpt lat="43.61963" lon="5.45209">
        <ele>426.7</ele>
        <time>2022-10-26T09:00:03.000Z</time>
      </trkpt>
      <trkpt lat="43.61961" lon="5.45209">
        <ele>427</ele>
        <time>2022-10-26T09:00:05.000Z</time>
      </trkpt>
      <trkpt lat="43.61959" lon="5.45209">
        <ele>427</ele>
        <time>2022-10-26T09:00:07.000Z</time>
      </trkpt>
      <trkpt lat="43.61957" lon="5.45209">
        <ele>427.2</ele>
        <time>2022-10-26T09:00:09.000Z</time>
      </trkpt>
      <trkpt lat="43.61955" lon="5.4521">
        <ele>427.3</ele>
        <time>2022-10-26T09:00:11.000Z</time>
      </trkpt>
      <trkpt lat="43.61953" lon="5.45209">
        <ele>427.6</ele>
        <time>2022-10-26T09:00:13.000Z</time>
      </trkpt>
      <trkpt lat="43.61951" lon="5.4521">
        <ele>427.7</ele>
        <time>2022-10-26T09:00:15.000Z</time>
      </trkpt>
      <trkpt lat="43.61949" lon="5.4521">
        <ele>427.6</ele>
        <time>2022-10-26T09:00:17.000Z</time>
      </trkpt>
      <trkpt lat="43.61947" lon="5.45211">
        <ele>427.6</ele>
        <time>2022-10-26T09:00:19.000Z</time>
      </trkpt>
      <trkpt lat="43.61945" lon="5.45212">
        <ele>427.6</ele>
        <time>2022-10-26T09:00:21.000Z</time>
      </trkpt>
      <trkpt lat="43.61943" lon="5.45213">
        <ele>427.5</ele>
        <time>2022-10-26T09:00:23.000Z</time>
      </trkpt>
      <trkpt lat="43.6194" lon="5.45214">
        <ele>427.4</ele>
        <time>2022-10-26T09:00:25.000Z</time>
      </trkpt>
      <trkpt lat="43.61938" lon="5.45216">
        <ele>427.2</ele>
        <time>2022-10-26T09:00:27.000Z</time>
      </trkpt>
      <trkpt lat="43.61935" lon="5.45217">
        <ele>427</ele>
        <time>2022-10-26T09:00:29.000Z</time>
      </trkpt>
      <trkpt lat="43.61933" lon="5.45219">
        <ele>426.7</ele>
        <time>2022-10-26T09:00:31.000Z</time>
      </trkpt>
      <trkpt lat="43.61931" lon="5.4522">
        <ele>426.6</ele>
        <time>2022-10-26T09:00:33.000Z</time>
      </trkpt>
      <trkpt lat="43.61929" lon="5.45221">
        <ele>426.5</ele>
        <time>2022-10-26T09:00:35.000Z</time>
      </trkpt>
      <trkpt lat="43.61927" lon="5.45222">
        <ele>426.3</ele>
        <time>2022-10-26T09:00:37.000Z</time>
      </trkpt>
      <trkpt lat="43.61925" lon="5.45223">
        <ele>426.4</ele>
        <time>2022-10-26T09:00:39.000Z</time>
      </trkpt>
      <trkpt lat="43.61923" lon="5.45224">
        <ele>426.3</ele>
        <time>2022-10-26T09:00:41.000Z</time>
      </trkpt>
      <trkpt lat="43.6192" lon="5.45225">
        <ele>426.3</ele>
        <time>2022-10-26T09:00:43.000Z</time>
      </trkpt>
      <trkpt lat="43.61918" lon="5.45226">
        <ele>426.2</ele>
        <time>2022-10-26T09:00:45.000Z</time>
      </trkpt>
      <trkpt lat="43.61916" lon="5.45228">
        <ele>426.2</ele>
        <time>2022-10-26T09:00:47.000Z</time>
      </trkpt>
      <trkpt lat="43.61913" lon="5.4523">
        <ele>426.1</ele>
        <time>2022-10-26T09:00:49.000Z</time>
      </trkpt>
      <trkpt lat="43.61911" lon="5.45231">
        <ele>426.2</ele>
        <time>2022-10-26T09:00:52.000Z</time>
      </trkpt>
      <trkpt lat="43.61909" lon="5.45231">
        <ele>426.3</ele>
        <time>2022-10-26T09:00:55.000Z</time>
      </trkpt>
      <trkpt lat="43.61907" lon="5.45231">
        <ele>426.6</ele>
        <time>2022-10-26T09:04:14.000Z</time>
      </trkpt>
      <trkpt lat="43.61905" lon="5.45231">
        <ele>426.7</ele>
        <time>2022-10-26T09:04:17.000Z</time>
      </trkpt>
      <trkpt lat="43.61904" lon="5.45232">
        <ele>426.8</ele>
        <time>2022-10-26T09:04:20.000Z</time>
      </trkpt>
      <trkpt lat="43.61902" lon="5.45232">
        <ele>427.1</ele>
        <time>2022-10-26T09:04:23.000Z</time>
      </trkpt>
      <trkpt lat="43.619" lon="5.45231">
        <ele>427.5</ele>
        <time>2022-10-26T09:04:25.000Z</time>
      </trkpt>
      <trkpt lat="43.61898" lon="5.4523">
        <ele>427.9</ele>
        <time>2022-10-26T09:04:29.000Z</time>
      </trkpt>
      <trkpt lat="43.61896" lon="5.45229">
        <ele>428.4</ele>
        <time>2022-10-26T09:04:32.000Z</time>
      </trkpt>
      <trkpt lat="43.61894" lon="5.45228">
        <ele>428.9</ele>
        <time>2022-10-26T09:04:35.000Z</time>
      </trkpt>
      <trkpt lat="43.61892" lon="5.45228">
        <ele>429.1</ele>
        <time>2022-10-26T09:04:38.000Z</time>
      </trkpt>
      <trkpt lat="43.6189" lon="5.45228">
        <ele>429.4</ele>
        <time>2022-10-26T09:04:41.000Z</time>
      </trkpt>
      <trkpt lat="43.61887" lon="5.45228">
        <ele>429.6</ele>
        <time>2022-10-26T09:04:44.000Z</time>
      </trkpt>
      <trkpt lat="43.61885" lon="5.45228">
        <ele>429.9</ele>
        <time>2022-10-26T09:04:47.000Z</time>
      </trkpt>
      <trkpt lat="43.61883" lon="5.45228">
        <ele>430.2</ele>
        <time>2022-10-26T09:04:50.000Z</time>
      </trkpt>
      <trkpt lat="43.61881" lon="5.45227">
        <ele>430.6</ele>
        <time>2022-10-26T09:04:53.000Z</time>
      </trkpt>
      <trkpt lat="43.61879" lon="5.45227">
        <ele>430.8</ele>
        <time>2022-10-26T09:04:57.000Z</time>
      </trkpt>
      <trkpt lat="43.61876" lon="5.45228">
        <ele>430.7</ele>
        <time>2022-10-26T09:05:00.000Z</time>
      </trkpt>
      <trkpt lat="43.61874" lon="5.4523">
        <ele>430.6</ele>
        <time>2022-10-26T09:05:03.000Z</time>
      </trkpt>
      <trkpt lat="43.61872" lon="5.4523">
        <ele>430.6</ele>
        <time>2022-10-26T09:05:06.000Z</time>
      </trkpt>
      <trkpt lat="43.6187" lon="5.45231">
        <ele>430.6</ele>
        <time>2022-10-26T09:05:09.000Z</time>
      </trkpt>
      <trkpt lat="43.61868" lon="5.45231">
        <ele>430.8</ele>
        <time>2022-10-26T09:05:12.000Z</time>
      </trkpt>
      <trkpt lat="43.61866" lon="5.45232">
        <ele>430.8</ele>
        <time>2022-10-26T09:05:15.000Z</time>
      </trkpt>
      <trkpt lat="43.61864" lon="5.45232">
        <ele>431</ele>
        <time>2022-10-26T09:05:18.000Z</time>
      </trkpt>
      <trkpt lat="43.61861" lon="5.45233">
        <ele>431</ele>
        <time>2022-10-26T09:05:21.000Z</time>
      </trkpt>
      <trkpt lat="43.61859" lon="5.45233">
        <ele>431.3</ele>
        <time>2022-10-26T09:05:24.000Z</time>
      </trkpt>
      <trkpt lat="43.61857" lon="5.45233">
        <ele>431.8</ele>
        <time>2022-10-26T09:05:27.000Z</time>
      </trkpt>
      <trkpt lat="43.61855" lon="5.45233">
        <ele>432.3</ele>
        <time>2022-10-26T09:05:30.000Z</time>
      </trkpt>
      <trkpt lat="43.61853" lon="5.45234">
        <ele>432.6</ele>
        <time>2022-10-26T09:05:33.000Z</time>
      </trkpt>
      <trkpt lat="43.61851" lon="5.45233">
        <ele>433.1</ele>
        <time>2022-10-26T09:05:35.000Z</time>
      </trkpt>
      <trkpt lat="43.61849" lon="5.45234">
        <ele>433.5</ele>
        <time>2022-10-26T09:05:38.000Z</time>
      </trkpt>
      <trkpt lat="43.61847" lon="5.45234">
        <ele>433.8</ele>
        <time>2022-10-26T09:05:41.000Z</time>
      </trkpt>
      <trkpt lat="43.61845" lon="5.45235">
        <ele>434.3</ele>
        <time>2022-10-26T09:05:45.000Z</time>
      </trkpt>
      <trkpt lat="43.61843" lon="5.45234">
        <ele>434.8</ele>
        <time>2022-10-26T09:05:48.000Z</time>
      </trkpt>
      <trkpt lat="43.61841" lon="5.45234">
        <ele>435.4</ele>
        <time>2022-10-26T09:05:51.000Z</time>
      </trkpt>
      <trkpt lat="43.61839" lon="5.45235">
        <ele>435.5</ele>
        <time>2022-10-26T09:05:55.000Z</time>
      </trkpt>
      <trkpt lat="43.61837" lon="5.45235">
        <ele>435.9</ele>
        <time>2022-10-26T09:05:58.000Z</time>
      </trkpt>
      <trkpt lat="43.61835" lon="5.45234">
        <ele>436.6</ele>
        <time>2022-10-26T09:06:02.000Z</time>
      </trkpt>
      <trkpt lat="43.61833" lon="5.45234">
        <ele>437.2</ele>
        <time>2022-10-26T09:06:06.000Z</time>
      </trkpt>
      <trkpt lat="43.61831" lon="5.45235">
        <ele>437.6</ele>
        <time>2022-10-26T09:06:10.000Z</time>
      </trkpt>
      <trkpt lat="43.61829" lon="5.45235">
        <ele>438.2</ele>
        <time>2022-10-26T09:06:14.000Z</time>
      </trkpt>
      <trkpt lat="43.61827" lon="5.45235">
        <ele>438.6</ele>
        <time>2022-10-26T09:06:17.000Z</time>
      </trkpt>
      <trkpt lat="43.61824" lon="5.45237">
        <ele>438.9</ele>
        <time>2022-10-26T09:06:22.000Z</time>
      </trkpt>
      <trkpt lat="43.61822" lon="5.45237">
        <ele>439.5</ele>
        <time>2022-10-26T09:06:25.000Z</time>
      </trkpt>
      <trkpt lat="43.6182" lon="5.45237">
        <ele>439.9</ele>
        <time>2022-10-26T09:06:28.000Z</time>
      </trkpt>
      <trkpt lat="43.61818" lon="5.45238">
        <ele>440.2</ele>
        <time>2022-10-26T09:06:31.000Z</time>
      </trkpt>
      <trkpt lat="43.61817" lon="5.4524">
        <ele>440.4</ele>
        <time>2022-10-26T09:06:34.000Z</time>
      </trkpt>
      <trkpt lat="43.61815" lon="5.45242">
        <ele>440.5</ele>
        <time>2022-10-26T09:06:37.000Z</time>
      </trkpt>
      <trkpt lat="43.61812" lon="5.45243">
        <ele>440.8</ele>
        <time>2022-10-26T09:06:41.000Z</time>
      </trkpt>
      <trkpt lat="43.61811" lon="5.45244">
        <ele>441</ele>
        <time>2022-10-26T09:06:45.000Z</time>
      </trkpt>
      <trkpt lat="43.61809" lon="5.45246">
        <ele>441</ele>
        <time>2022-10-26T09:06:48.000Z</time>
      </trkpt>
      <trkpt lat="43.61807" lon="5.45247">
        <ele>441.4</ele>
        <time>2022-10-26T09:06:52.000Z</time>
      </trkpt>
      <trkpt lat="43.61804" lon="5.45247">
        <ele>442.1</ele>
        <time>2022-10-26T09:06:55.000Z</time>
      </trkpt>
      <trkpt lat="43.61802" lon="5.45248">
        <ele>442.6</ele>
        <time>2022-10-26T09:06:58.000Z</time>
      </trkpt>
      <trkpt lat="43.618" lon="5.45249">
        <ele>442.9</ele>
        <time>2022-10-26T09:07:01.000Z</time>
      </trkpt>
      <trkpt lat="43.61798" lon="5.4525">
        <ele>443.4</ele>
        <time>2022-10-26T09:07:05.000Z</time>
      </trkpt>
      <trkpt lat="43.61797" lon="5.45251">
        <ele>443.7</ele>
        <time>2022-10-26T09:07:10.000Z</time>
      </trkpt>
      <trkpt lat="43.61795" lon="5.45252">
        <ele>444.1</ele>
        <time>2022-10-26T09:07:14.000Z</time>
      </trkpt>
      <trkpt lat="43.61793" lon="5.45254">
        <ele>444.4</ele>
        <time>2022-10-26T09:07:18.000Z</time>
      </trkpt>
      <trkpt lat="43.61791" lon="5.45255">
        <ele>444.9</ele>
        <time>2022-10-26T09:07:22.000Z</time>
      </trkpt>
      <trkpt lat="43.61789" lon="5.45256">
        <ele>445.2</ele>
        <time>2022-10-26T09:07:26.000Z</time>
      </trkpt>
      <trkpt lat="43.61788" lon="5.45258">
        <ele>445.5</ele>
        <time>2022-10-26T09:07:30.000Z</time>
      </trkpt>
      <trkpt lat="43.61785" lon="5.45258">
        <ele>446.1</ele>
        <time>2022-10-26T09:07:34.000Z</time>
      </trkpt>
      <trkpt lat="43.61784" lon="5.45259">
        <ele>446.5</ele>
        <time>2022-10-26T09:07:37.000Z</time>
      </trkpt>
      <trkpt lat="43.61782" lon="5.45261">
        <ele>446.7</ele>
        <time>2022-10-26T09:07:40.000Z</time>
      </trkpt>
      <trkpt lat="43.6178" lon="5.45261">
        <ele>447.3</ele>
        <time>2022-10-26T09:07:43.000Z</time>
      </trkpt>
      <trkpt lat="43.61778" lon="5.45262">
        <ele>447.6</ele>
        <time>2022-10-26T09:07:46.000Z</time>
      </trkpt>
      <trkpt lat="43.61776" lon="5.45264">
        <ele>447.8</ele>
        <time>2022-10-26T09:07:50.000Z</time>
      </trkpt>
      <trkpt lat="43.61774" lon="5.45266">
        <ele>448.1</ele>
        <time>2022-10-26T09:07:53.000Z</time>
      </trkpt>
      <trkpt lat="43.61773" lon="5.45267">
        <ele>448.4</ele>
        <time>2022-10-26T09:07:57.000Z</time>
      </trkpt>
      <trkpt lat="43.61771" lon="5.45269">
        <ele>448.6</ele>
        <time>2022-10-26T09:08:00.000Z</time>
      </trkpt>
      <trkpt lat="43.61769" lon="5.45271">
        <ele>448.7</ele>
        <time>2022-10-26T09:08:03.000Z</time>
      </trkpt>
      <trkpt lat="43.61767" lon="5.45273">
        <ele>449.1</ele>
        <time>2022-10-26T09:08:06.000Z</time>
      </trkpt>
      <trkpt lat="43.61765" lon="5.45274">
        <ele>449.5</ele>
        <time>2022-10-26T09:08:09.000Z</time>
      </trkpt>
      <trkpt lat="43.61763" lon="5.45276">
        <ele>449.9</ele>
        <time>2022-10-26T09:08:12.000Z</time>
      </trkpt>
      <trkpt lat="43.61762" lon="5.45279">
        <ele>450.1</ele>
        <time>2022-10-26T09:08:15.000Z</time>
      </trkpt>
      <trkpt lat="43.6176" lon="5.45281">
        <ele>450.5</ele>
        <time>2022-10-26T09:08:18.000Z</time>
      </trkpt>
      <trkpt lat="43.61758" lon="5.45283">
        <ele>451</ele>
        <time>2022-10-26T09:08:21.000Z</time>
      </trkpt>
      <trkpt lat="43.61756" lon="5.45284">
        <ele>451.5</ele>
        <time>2022-10-26T09:08:24.000Z</time>
      </trkpt>
      <trkpt lat="43.61755" lon="5.45285">
        <ele>452</ele>
        <time>2022-10-26T09:08:27.000Z</time>
      </trkpt>
      <trkpt lat="43.61753" lon="5.45287">
        <ele>452.4</ele>
        <time>2022-10-26T09:08:30.000Z</time>
      </trkpt>
      <trkpt lat="43.61752" lon="5.4529">
        <ele>452.5</ele>
        <time>2022-10-26T09:08:33.000Z</time>
      </trkpt>
      <trkpt lat="43.61751" lon="5.45292">
        <ele>452.6</ele>
        <time>2022-10-26T09:08:37.000Z</time>
      </trkpt>
      <trkpt lat="43.61751" lon="5.45295">
        <ele>452.5</ele>
        <time>2022-10-26T09:08:45.000Z</time>
      </trkpt>
      <trkpt lat="43.61751" lon="5.45298">
        <ele>452.4</ele>
        <time>2022-10-26T09:08:48.000Z</time>
      </trkpt>
      <trkpt lat="43.61751" lon="5.45301">
        <ele>452.2</ele>
        <time>2022-10-26T09:08:50.000Z</time>
      </trkpt>
      <trkpt lat="43.6175" lon="5.45303">
        <ele>452.2</ele>
        <time>2022-10-26T09:08:52.000Z</time>
      </trkpt>
      <trkpt lat="43.61749" lon="5.45306">
        <ele>452.3</ele>
        <time>2022-10-26T09:08:54.000Z</time>
      </trkpt>
      <trkpt lat="43.61749" lon="5.45309">
        <ele>452.5</ele>
        <time>2022-10-26T09:08:56.000Z</time>
      </trkpt>
      <trkpt lat="43.61748" lon="5.45311">
        <ele>452.9</ele>
        <time>2022-10-26T09:08:58.000Z</time>
      </trkpt>
      <trkpt lat="43.61747" lon="5.45314">
        <ele>453.1</ele>
        <time>2022-10-26T09:09:00.000Z</time>
      </trkpt>
      <trkpt lat="43.61748" lon="5.45317">
        <ele>453.3</ele>
        <time>2022-10-26T09:09:02.000Z</time>
      </trkpt>
      <trkpt lat="43.61748" lon="5.45321">
        <ele>453.5</ele>
        <time>2022-10-26T09:09:04.000Z</time>
      </trkpt>
      <trkpt lat="43.61748" lon="5.45324">
        <ele>453.7</ele>
        <time>2022-10-26T09:09:06.000Z</time>
      </trkpt>
      <trkpt lat="43.61748" lon="5.45328">
        <ele>453.8</ele>
        <time>2022-10-26T09:09:08.000Z</time>
      </trkpt>
      <trkpt lat="43.61749" lon="5.4533">
        <ele>453.9</ele>
        <time>2022-10-26T09:09:10.000Z</time>
      </trkpt>
      <trkpt lat="43.6175" lon="5.45332">
        <ele>453.9</ele>
        <time>2022-10-26T09:09:12.000Z</time>
      </trkpt>
      <trkpt lat="43.6175" lon="5.45335">
        <ele>454.2</ele>
        <time>2022-10-26T09:09:14.000Z</time>
      </trkpt>
      <trkpt lat="43.6175" lon="5.45338">
        <ele>454.4</ele>
        <time>2022-10-26T09:09:17.000Z</time>
      </trkpt>
      <trkpt lat="43.6175" lon="5.45341">
        <ele>454.6</ele>
        <time>2022-10-26T09:09:19.000Z</time>
      </trkpt>
      <trkpt lat="43.61751" lon="5.45346">
        <ele>454.6</ele>
        <time>2022-10-26T09:09:22.000Z</time>
      </trkpt>
      <trkpt lat="43.61751" lon="5.45348">
        <ele>454.9</ele>
        <time>2022-10-26T09:09:25.000Z</time>
      </trkpt>
      <trkpt lat="43.6175" lon="5.45351">
        <ele>455.3</ele>
        <time>2022-10-26T09:09:28.000Z</time>
      </trkpt>
      <trkpt lat="43.6175" lon="5.45354">
        <ele>455.5</ele>
        <time>2022-10-26T09:09:31.000Z</time>
      </trkpt>
      <trkpt lat="43.61749" lon="5.45357">
        <ele>455.8</ele>
        <time>2022-10-26T09:09:34.000Z</time>
      </trkpt>
      <trkpt lat="43.61749" lon="5.45359">
        <ele>456.1</ele>
        <time>2022-10-26T09:09:37.000Z</time>
      </trkpt>
      <trkpt lat="43.61748" lon="5.45363">
        <ele>456.3</ele>
        <time>2022-10-26T09:09:40.000Z</time>
      </trkpt>
      <trkpt lat="43.61748" lon="5.45366">
        <ele>456.5</ele>
        <time>2022-10-26T09:09:42.000Z</time>
      </trkpt>
      <trkpt lat="43.61747" lon="5.45368">
        <ele>456.8</ele>
        <time>2022-10-26T09:09:44.000Z</time>
      </trkpt>
      <trkpt lat="43.61747" lon="5.45371">
        <ele>456.9</ele>
        <time>2022-10-26T09:09:46.000Z</time>
      </trkpt>
      <trkpt lat="43.61747" lon="5.45374">
        <ele>457</ele>
        <time>2022-10-26T09:09:48.000Z</time>
      </trkpt>
      <trkpt lat="43.61747" lon="5.45376">
        <ele>457.1</ele>
        <time>2022-10-26T09:09:50.000Z</time>
      </trkpt>
      <trkpt lat="43.61746" lon="5.45379">
        <ele>457.4</ele>
        <time>2022-10-26T09:09:52.000Z</time>
      </trkpt>
      <trkpt lat="43.61746" lon="5.45383">
        <ele>457.6</ele>
        <time>2022-10-26T09:09:54.000Z</time>
      </trkpt>
      <trkpt lat="43.61745" lon="5.45386">
        <ele>457.9</ele>
        <time>2022-10-26T09:09:56.000Z</time>
      </trkpt>
      <trkpt lat="43.61745" lon="5.45389">
        <ele>458</ele>
        <time>2022-10-26T09:09:59.000Z</time>
      </trkpt>
      <trkpt lat="43.61746" lon="5.45392">
        <ele>458.1</ele>
        <time>2022-10-26T09:10:03.000Z</time>
      </trkpt>
      <trkpt lat="43.61746" lon="5.45395">
        <ele>458.3</ele>
        <time>2022-10-26T09:10:07.000Z</time>
      </trkpt>
      <trkpt lat="43.61746" lon="5.45397">
        <ele>458.6</ele>
        <time>2022-10-26T09:10:09.000Z</time>
      </trkpt>
      <trkpt lat="43.61746" lon="5.45401">
        <ele>458.8</ele>
        <time>2022-10-26T09:10:11.000Z</time>
      </trkpt>
      <trkpt lat="43.61747" lon="5.45403">
        <ele>458.6</ele>
        <time>2022-10-26T09:10:14.000Z</time>
      </trkpt>
      <trkpt lat="43.6175" lon="5.45405">
        <ele>458.2</ele>
        <time>2022-10-26T09:10:17.000Z</time>
      </trkpt>
      <trkpt lat="43.61752" lon="5.45407">
        <ele>457.5</ele>
        <time>2022-10-26T09:10:19.000Z</time>
      </trkpt>
      <trkpt lat="43.61754" lon="5.4541">
        <ele>457.1</ele>
        <time>2022-10-26T09:10:21.000Z</time>
      </trkpt>
      <trkpt lat="43.61755" lon="5.45413">
        <ele>457</ele>
        <time>2022-10-26T09:10:24.000Z</time>
      </trkpt>
      <trkpt lat="43.61755" lon="5.45416">
        <ele>457.3</ele>
        <time>2022-10-26T09:10:26.000Z</time>
      </trkpt>
      <trkpt lat="43.61755" lon="5.45419">
        <ele>457.2</ele>
        <time>2022-10-26T09:10:28.000Z</time>
      </trkpt>
      <trkpt lat="43.61756" lon="5.45422">
        <ele>456.9</ele>
        <time>2022-10-26T09:10:31.000Z</time>
      </trkpt>
      <trkpt lat="43.61757" lon="5.45424">
        <ele>456.6</ele>
        <time>2022-10-26T09:10:34.000Z</time>
      </trkpt>
      <trkpt lat="43.61758" lon="5.45427">
        <ele>456.7</ele>
        <time>2022-10-26T09:10:37.000Z</time>
      </trkpt>
      <trkpt lat="43.61758" lon="5.4543">
        <ele>456.5</ele>
        <time>2022-10-26T09:10:42.000Z</time>
      </trkpt>
      <trkpt lat="43.61758" lon="5.45433">
        <ele>456.6</ele>
        <time>2022-10-26T09:10:44.000Z</time>
      </trkpt>
      <trkpt lat="43.61758" lon="5.45437">
        <ele>456.8</ele>
        <time>2022-10-26T09:10:47.000Z</time>
      </trkpt>
      <trkpt lat="43.61758" lon="5.45439">
        <ele>457</ele>
        <time>2022-10-26T09:10:49.000Z</time>
      </trkpt>
      <trkpt lat="43.61758" lon="5.45442">
        <ele>457</ele>
        <time>2022-10-26T09:10:51.000Z</time>
      </trkpt>
      <trkpt lat="43.61758" lon="5.45445">
        <ele>457.2</ele>
        <time>2022-10-26T09:10:53.000Z</time>
      </trkpt>
      <trkpt lat="43.61758" lon="5.45448">
        <ele>457.4</ele>
        <time>2022-10-26T09:10:55.000Z</time>
      </trkpt>
      <trkpt lat="43.61758" lon="5.45451">
        <ele>457.6</ele>
        <time>2022-10-26T09:10:57.000Z</time>
      </trkpt>
      <trkpt lat="43.61758" lon="5.45454">
        <ele>457.8</ele>
        <time>2022-10-26T09:11:00.000Z</time>
      </trkpt>
      <trkpt lat="43.61758" lon="5.45457">
        <ele>457.9</ele>
        <time>2022-10-26T09:11:02.000Z</time>
      </trkpt>
      <trkpt lat="43.61759" lon="5.45459">
        <ele>457.9</ele>
        <time>2022-10-26T09:11:04.000Z</time>
      </trkpt>
      <trkpt lat="43.61758" lon="5.45462">
        <ele>458.2</ele>
        <time>2022-10-26T09:11:06.000Z</time>
      </trkpt>
      <trkpt lat="43.61758" lon="5.45466">
        <ele>458.6</ele>
        <time>2022-10-26T09:11:08.000Z</time>
      </trkpt>
      <trkpt lat="43.61758" lon="5.45469">
        <ele>458.7</ele>
        <time>2022-10-26T09:11:10.000Z</time>
      </trkpt>
      <trkpt lat="43.61759" lon="5.45471">
        <ele>458.4</ele>
        <time>2022-10-26T09:11:12.000Z</time>
      </trkpt>
      <trkpt lat="43.61759" lon="5.45474">
        <ele>458.4</ele>
        <time>2022-10-26T09:11:15.000Z</time>
      </trkpt>
      <trkpt lat="43.61759" lon="5.45477">
        <ele>458.6</ele>
        <time>2022-10-26T09:11:18.000Z</time>
      </trkpt>
      <trkpt lat="43.6176" lon="5.4548">
        <ele>458.5</ele>
        <time>2022-10-26T09:11:20.000Z</time>
      </trkpt>
      <trkpt lat="43.6176" lon="5.45483">
        <ele>458.7</ele>
        <time>2022-10-26T09:11:23.000Z</time>
      </trkpt>
      <trkpt lat="43.6176" lon="5.45486">
        <ele>458.8</ele>
        <time>2022-10-26T09:11:34.000Z</time>
      </trkpt>
      <trkpt lat="43.61761" lon="5.45488">
        <ele>458.3</ele>
        <time>2022-10-26T09:13:27.000Z</time>
      </trkpt>
      <trkpt lat="43.61763" lon="5.45489">
        <ele>457.9</ele>
        <time>2022-10-26T09:13:40.000Z</time>
      </trkpt>
      <trkpt lat="43.61764" lon="5.45491">
        <ele>457.5</ele>
        <time>2022-10-26T09:13:42.000Z</time>
      </trkpt>
      <trkpt lat="43.61764" lon="5.45494">
        <ele>457.6</ele>
        <time>2022-10-26T09:13:44.000Z</time>
      </trkpt>
      <trkpt lat="43.61764" lon="5.45497">
        <ele>457.9</ele>
        <time>2022-10-26T09:13:47.000Z</time>
      </trkpt>
      <trkpt lat="43.61764" lon="5.455">
        <ele>458.1</ele>
        <time>2022-10-26T09:13:50.000Z</time>
      </trkpt>
      <trkpt lat="43.61763" lon="5.45503">
        <ele>458.7</ele>
        <time>2022-10-26T09:13:53.000Z</time>
      </trkpt>
      <trkpt lat="43.61764" lon="5.45506">
        <ele>458.7</ele>
        <time>2022-10-26T09:13:55.000Z</time>
      </trkpt>
      <trkpt lat="43.61764" lon="5.45509">
        <ele>458.6</ele>
        <time>2022-10-26T09:13:57.000Z</time>
      </trkpt>
      <trkpt lat="43.61764" lon="5.45512">
        <ele>458.9</ele>
        <time>2022-10-26T09:14:00.000Z</time>
      </trkpt>
      <trkpt lat="43.61764" lon="5.45515">
        <ele>459.2</ele>
        <time>2022-10-26T09:14:02.000Z</time>
      </trkpt>
      <trkpt lat="43.61764" lon="5.45518">
        <ele>459.6</ele>
        <time>2022-10-26T09:14:05.000Z</time>
      </trkpt>
      <trkpt lat="43.61764" lon="5.4552">
        <ele>459.6</ele>
        <time>2022-10-26T09:14:07.000Z</time>
      </trkpt>
      <trkpt lat="43.61765" lon="5.45523">
        <ele>459.6</ele>
        <time>2022-10-26T09:14:09.000Z</time>
      </trkpt>
      <trkpt lat="43.61765" lon="5.45526">
        <ele>459.9</ele>
        <time>2022-10-26T09:14:11.000Z</time>
      </trkpt>
      <trkpt lat="43.61764" lon="5.45529">
        <ele>460.4</ele>
        <time>2022-10-26T09:14:13.000Z</time>
      </trkpt>
      <trkpt lat="43.61764" lon="5.45532">
        <ele>460.8</ele>
        <time>2022-10-26T09:14:16.000Z</time>
      </trkpt>
      <trkpt lat="43.61764" lon="5.45535">
        <ele>460.7</ele>
        <time>2022-10-26T09:14:18.000Z</time>
      </trkpt>
      <trkpt lat="43.61765" lon="5.45538">
        <ele>460.6</ele>
        <time>2022-10-26T09:14:21.000Z</time>
      </trkpt>
      <trkpt lat="43.61766" lon="5.45541">
        <ele>460.5</ele>
        <time>2022-10-26T09:14:24.000Z</time>
      </trkpt>
      <trkpt lat="43.61765" lon="5.45545">
        <ele>460.8</ele>
        <time>2022-10-26T09:14:27.000Z</time>
      </trkpt>
      <trkpt lat="43.61764" lon="5.45549">
        <ele>461.5</ele>
        <time>2022-10-26T09:14:29.000Z</time>
      </trkpt>
      <trkpt lat="43.61764" lon="5.45551">
        <ele>461.5</ele>
        <time>2022-10-26T09:14:31.000Z</time>
      </trkpt>
      <trkpt lat="43.61766" lon="5.45554">
        <ele>461.1</ele>
        <time>2022-10-26T09:14:33.000Z</time>
      </trkpt>
      <trkpt lat="43.61767" lon="5.45557">
        <ele>461</ele>
        <time>2022-10-26T09:14:35.000Z</time>
      </trkpt>
      <trkpt lat="43.61767" lon="5.45559">
        <ele>461.2</ele>
        <time>2022-10-26T09:14:37.000Z</time>
      </trkpt>
      <trkpt lat="43.61766" lon="5.45563">
        <ele>461.9</ele>
        <time>2022-10-26T09:14:40.000Z</time>
      </trkpt>
      <trkpt lat="43.61768" lon="5.45564">
        <ele>461.2</ele>
        <time>2022-10-26T09:14:44.000Z</time>
      </trkpt>
      <trkpt lat="43.61769" lon="5.45567">
        <ele>461.5</ele>
        <time>2022-10-26T09:14:56.000Z</time>
      </trkpt>
      <trkpt lat="43.6177" lon="5.45569">
        <ele>461.2</ele>
        <time>2022-10-26T09:14:58.000Z</time>
      </trkpt>
      <trkpt lat="43.61771" lon="5.45572">
        <ele>461.4</ele>
        <time>2022-10-26T09:15:01.000Z</time>
      </trkpt>
      <trkpt lat="43.61771" lon="5.45575">
        <ele>461.8</ele>
        <time>2022-10-26T09:15:04.000Z</time>
      </trkpt>
      <trkpt lat="43.61771" lon="5.45578">
        <ele>461.9</ele>
        <time>2022-10-26T09:15:06.000Z</time>
      </trkpt>
      <trkpt lat="43.61772" lon="5.45581">
        <ele>462.1</ele>
        <time>2022-10-26T09:15:09.000Z</time>
      </trkpt>
      <trkpt lat="43.61772" lon="5.45584">
        <ele>462.2</ele>
        <time>2022-10-26T09:15:12.000Z</time>
      </trkpt>
      <trkpt lat="43.61772" lon="5.45586">
        <ele>462.8</ele>
        <time>2022-10-26T09:15:16.000Z</time>
      </trkpt>
      <trkpt lat="43.61771" lon="5.45589">
        <ele>463.2</ele>
        <time>2022-10-26T09:15:20.000Z</time>
      </trkpt>
      <trkpt lat="43.61772" lon="5.45591">
        <ele>463.1</ele>
        <time>2022-10-26T09:15:23.000Z</time>
      </trkpt>
      <trkpt lat="43.61774" lon="5.45593">
        <ele>462.8</ele>
        <time>2022-10-26T09:15:25.000Z</time>
      </trkpt>
      <trkpt lat="43.61774" lon="5.45596">
        <ele>463</ele>
        <time>2022-10-26T09:15:28.000Z</time>
      </trkpt>
      <trkpt lat="43.61774" lon="5.45599">
        <ele>463.3</ele>
        <time>2022-10-26T09:15:32.000Z</time>
      </trkpt>
      <trkpt lat="43.61774" lon="5.45602">
        <ele>463.7</ele>
        <time>2022-10-26T09:15:36.000Z</time>
      </trkpt>
      <trkpt lat="43.61774" lon="5.45605">
        <ele>464</ele>
        <time>2022-10-26T09:15:39.000Z</time>
      </trkpt>
      <trkpt lat="43.61775" lon="5.45608">
        <ele>463.9</ele>
        <time>2022-10-26T09:15:41.000Z</time>
      </trkpt>
      <trkpt lat="43.61776" lon="5.45611">
        <ele>463.8</ele>
        <time>2022-10-26T09:15:44.000Z</time>
      </trkpt>
      <trkpt lat="43.61776" lon="5.45614">
        <ele>464.1</ele>
        <time>2022-10-26T09:15:47.000Z</time>
      </trkpt>
      <trkpt lat="43.61777" lon="5.45617">
        <ele>464.2</ele>
        <time>2022-10-26T09:15:50.000Z</time>
      </trkpt>
      <trkpt lat="43.61778" lon="5.45621">
        <ele>464</ele>
        <time>2022-10-26T09:15:53.000Z</time>
      </trkpt>
      <trkpt lat="43.61778" lon="5.45623">
        <ele>464.1</ele>
        <time>2022-10-26T09:15:55.000Z</time>
      </trkpt>
      <trkpt lat="43.61778" lon="5.45626">
        <ele>464.4</ele>
        <time>2022-10-26T09:15:57.000Z</time>
      </trkpt>
      <trkpt lat="43.61779" lon="5.45629">
        <ele>464.5</ele>
        <time>2022-10-26T09:15:59.000Z</time>
      </trkpt>
      <trkpt lat="43.61779" lon="5.45632">
        <ele>464.5</ele>
        <time>2022-10-26T09:16:01.000Z</time>
      </trkpt>
      <trkpt lat="43.61779" lon="5.45634">
        <ele>464.9</ele>
        <time>2022-10-26T09:16:03.000Z</time>
      </trkpt>
      <trkpt lat="43.61779" lon="5.45637">
        <ele>465.1</ele>
        <time>2022-10-26T09:16:05.000Z</time>
      </trkpt>
      <trkpt lat="43.6178" lon="5.45639">
        <ele>465.1</ele>
        <time>2022-10-26T09:16:07.000Z</time>
      </trkpt>
      <trkpt lat="43.6178" lon="5.45643">
        <ele>465.4</ele>
        <time>2022-10-26T09:16:10.000Z</time>
      </trkpt>
      <trkpt lat="43.61781" lon="5.45647">
        <ele>465.5</ele>
        <time>2022-10-26T09:16:13.000Z</time>
      </trkpt>
      <trkpt lat="43.61781" lon="5.4565">
        <ele>465.8</ele>
        <time>2022-10-26T09:16:16.000Z</time>
      </trkpt>
      <trkpt lat="43.61781" lon="5.45653">
        <ele>465.9</ele>
        <time>2022-10-26T09:16:19.000Z</time>
      </trkpt>
      <trkpt lat="43.61782" lon="5.45656">
        <ele>465.9</ele>
        <time>2022-10-26T09:16:22.000Z</time>
      </trkpt>
      <trkpt lat="43.61783" lon="5.45659">
        <ele>465.8</ele>
        <time>2022-10-26T09:16:25.000Z</time>
      </trkpt>
      <trkpt lat="43.61783" lon="5.45662">
        <ele>466.2</ele>
        <time>2022-10-26T09:16:28.000Z</time>
      </trkpt>
      <trkpt lat="43.61784" lon="5.45665">
        <ele>466.3</ele>
        <time>2022-10-26T09:16:31.000Z</time>
      </trkpt>
      <trkpt lat="43.61785" lon="5.45667">
        <ele>466.1</ele>
        <time>2022-10-26T09:16:33.000Z</time>
      </trkpt>
      <trkpt lat="43.61788" lon="5.45668">
        <ele>465.3</ele>
        <time>2022-10-26T09:16:35.000Z</time>
      </trkpt>
      <trkpt lat="43.6179" lon="5.4567">
        <ele>465</ele>
        <time>2022-10-26T09:16:37.000Z</time>
      </trkpt>
      <trkpt lat="43.61791" lon="5.45672">
        <ele>464.8</ele>
        <time>2022-10-26T09:16:39.000Z</time>
      </trkpt>
      <trkpt lat="43.61791" lon="5.45676">
        <ele>465.3</ele>
        <time>2022-10-26T09:16:42.000Z</time>
      </trkpt>
      <trkpt lat="43.61792" lon="5.45678">
        <ele>465.4</ele>
        <time>2022-10-26T09:16:44.000Z</time>
      </trkpt>
      <trkpt lat="43.61794" lon="5.4568">
        <ele>465</ele>
        <time>2022-10-26T09:16:47.000Z</time>
      </trkpt>
      <trkpt lat="43.61796" lon="5.45683">
        <ele>465</ele>
        <time>2022-10-26T09:16:50.000Z</time>
      </trkpt>
      <trkpt lat="43.61796" lon="5.45686">
        <ele>465.5</ele>
        <time>2022-10-26T09:16:52.000Z</time>
      </trkpt>
      <trkpt lat="43.61797" lon="5.45689">
        <ele>465.8</ele>
        <time>2022-10-26T09:16:55.000Z</time>
      </trkpt>
      <trkpt lat="43.61798" lon="5.45691">
        <ele>465.6</ele>
        <time>2022-10-26T09:16:57.000Z</time>
      </trkpt>
      <trkpt lat="43.61799" lon="5.45693">
        <ele>465.7</ele>
        <time>2022-10-26T09:16:59.000Z</time>
      </trkpt>
      <trkpt lat="43.618" lon="5.45696">
        <ele>466</ele>
        <time>2022-10-26T09:17:02.000Z</time>
      </trkpt>
      <trkpt lat="43.618" lon="5.45698">
        <ele>466.1</ele>
        <time>2022-10-26T09:17:05.000Z</time>
      </trkpt>
      <trkpt lat="43.61801" lon="5.45702">
        <ele>466.3</ele>
        <time>2022-10-26T09:17:08.000Z</time>
      </trkpt>
      <trkpt lat="43.61801" lon="5.45704">
        <ele>466.3</ele>
        <time>2022-10-26T09:17:10.000Z</time>
      </trkpt>
      <trkpt lat="43.61802" lon="5.45707">
        <ele>466.4</ele>
        <time>2022-10-26T09:17:12.000Z</time>
      </trkpt>
      <trkpt lat="43.61802" lon="5.4571">
        <ele>466.7</ele>
        <time>2022-10-26T09:17:15.000Z</time>
      </trkpt>
      <trkpt lat="43.61802" lon="5.45713">
        <ele>466.8</ele>
        <time>2022-10-26T09:17:17.000Z</time>
      </trkpt>
      <trkpt lat="43.61803" lon="5.45715">
        <ele>466.9</ele>
        <time>2022-10-26T09:17:19.000Z</time>
      </trkpt>
      <trkpt lat="43.61804" lon="5.45719">
        <ele>466.9</ele>
        <time>2022-10-26T09:17:21.000Z</time>
      </trkpt>
      <trkpt lat="43.61805" lon="5.45722">
        <ele>467.2</ele>
        <time>2022-10-26T09:17:23.000Z</time>
      </trkpt>
      <trkpt lat="43.61804" lon="5.45725">
        <ele>467.4</ele>
        <time>2022-10-26T09:17:25.000Z</time>
      </trkpt>
      <trkpt lat="43.61804" lon="5.45728">
        <ele>467.6</ele>
        <time>2022-10-26T09:17:28.000Z</time>
      </trkpt>
      <trkpt lat="43.61804" lon="5.45731">
        <ele>467.6</ele>
        <time>2022-10-26T09:17:31.000Z</time>
      </trkpt>
      <trkpt lat="43.61803" lon="5.45734">
        <ele>467.8</ele>
        <time>2022-10-26T09:17:34.000Z</time>
      </trkpt>
      <trkpt lat="43.61803" lon="5.45736">
        <ele>468</ele>
        <time>2022-10-26T09:17:36.000Z</time>
      </trkpt>
      <trkpt lat="43.61803" lon="5.45739">
        <ele>467.9</ele>
        <time>2022-10-26T09:17:39.000Z</time>
      </trkpt>
      <trkpt lat="43.61804" lon="5.45742">
        <ele>467.9</ele>
        <time>2022-10-26T09:17:44.000Z</time>
      </trkpt>
      <trkpt lat="43.61805" lon="5.45745">
        <ele>468</ele>
        <time>2022-10-26T09:17:47.000Z</time>
      </trkpt>
      <trkpt lat="43.61804" lon="5.45748">
        <ele>468.1</ele>
        <time>2022-10-26T09:17:50.000Z</time>
      </trkpt>
      <trkpt lat="43.61803" lon="5.45751">
        <ele>468.3</ele>
        <time>2022-10-26T09:17:53.000Z</time>
      </trkpt>
      <trkpt lat="43.61801" lon="5.45753">
        <ele>468.6</ele>
        <time>2022-10-26T09:17:57.000Z</time>
      </trkpt>
      <trkpt lat="43.61799" lon="5.45756">
        <ele>468.8</ele>
        <time>2022-10-26T09:18:00.000Z</time>
      </trkpt>
      <trkpt lat="43.61799" lon="5.45759">
        <ele>468.9</ele>
        <time>2022-10-26T09:18:02.000Z</time>
      </trkpt>
      <trkpt lat="43.61798" lon="5.45762">
        <ele>469</ele>
        <time>2022-10-26T09:18:04.000Z</time>
      </trkpt>
      <trkpt lat="43.61798" lon="5.45766">
        <ele>469.1</ele>
        <time>2022-10-26T09:18:07.000Z</time>
      </trkpt>
      <trkpt lat="43.61797" lon="5.45769">
        <ele>469.2</ele>
        <time>2022-10-26T09:18:10.000Z</time>
      </trkpt>
      <trkpt lat="43.61797" lon="5.45772">
        <ele>469.2</ele>
        <time>2022-10-26T09:18:12.000Z</time>
      </trkpt>
      <trkpt lat="43.61796" lon="5.45775">
        <ele>469.3</ele>
        <time>2022-10-26T09:18:15.000Z</time>
      </trkpt>
      <trkpt lat="43.61795" lon="5.45778">
        <ele>469.4</ele>
        <time>2022-10-26T09:18:18.000Z</time>
      </trkpt>
      <trkpt lat="43.61794" lon="5.45781">
        <ele>469.4</ele>
        <time>2022-10-26T09:18:21.000Z</time>
      </trkpt>
      <trkpt lat="43.61794" lon="5.45784">
        <ele>469.3</ele>
        <time>2022-10-26T09:18:24.000Z</time>
      </trkpt>
      <trkpt lat="43.61793" lon="5.45787">
        <ele>469.3</ele>
        <time>2022-10-26T09:18:26.000Z</time>
      </trkpt>
      <trkpt lat="43.61792" lon="5.4579">
        <ele>469.3</ele>
        <time>2022-10-26T09:18:28.000Z</time>
      </trkpt>
      <trkpt lat="43.6179" lon="5.45793">
        <ele>469.3</ele>
        <time>2022-10-26T09:18:31.000Z</time>
      </trkpt>
      <trkpt lat="43.6179" lon="5.45795">
        <ele>469.2</ele>
        <time>2022-10-26T09:18:33.000Z</time>
      </trkpt>
      <trkpt lat="43.61789" lon="5.45799">
        <ele>469.1</ele>
        <time>2022-10-26T09:18:36.000Z</time>
      </trkpt>
      <trkpt lat="43.61788" lon="5.45801">
        <ele>469.1</ele>
        <time>2022-10-26T09:18:38.000Z</time>
      </trkpt>
      <trkpt lat="43.61787" lon="5.45804">
        <ele>469</ele>
        <time>2022-10-26T09:18:40.000Z</time>
      </trkpt>
      <trkpt lat="43.61787" lon="5.45808">
        <ele>469</ele>
        <time>2022-10-26T09:18:43.000Z</time>
      </trkpt>
      <trkpt lat="43.61787" lon="5.4581">
        <ele>468.9</ele>
        <time>2022-10-26T09:18:45.000Z</time>
      </trkpt>
      <trkpt lat="43.61786" lon="5.45813">
        <ele>468.8</ele>
        <time>2022-10-26T09:18:47.000Z</time>
      </trkpt>
      <trkpt lat="43.61785" lon="5.45815">
        <ele>468.7</ele>
        <time>2022-10-26T09:18:49.000Z</time>
      </trkpt>
      <trkpt lat="43.61784" lon="5.45818">
        <ele>468.7</ele>
        <time>2022-10-26T09:18:51.000Z</time>
      </trkpt>
      <trkpt lat="43.61783" lon="5.45822">
        <ele>468.5</ele>
        <time>2022-10-26T09:18:53.000Z</time>
      </trkpt>
      <trkpt lat="43.61782" lon="5.45826">
        <ele>468.4</ele>
        <time>2022-10-26T09:18:55.000Z</time>
      </trkpt>
      <trkpt lat="43.61781" lon="5.4583">
        <ele>468.2</ele>
        <time>2022-10-26T09:18:58.000Z</time>
      </trkpt>
      <trkpt lat="43.6178" lon="5.45832">
        <ele>468.1</ele>
        <time>2022-10-26T09:19:00.000Z</time>
      </trkpt>
      <trkpt lat="43.61778" lon="5.45836">
        <ele>467.9</ele>
        <time>2022-10-26T09:19:03.000Z</time>
      </trkpt>
      <trkpt lat="43.61778" lon="5.45839">
        <ele>467.8</ele>
        <time>2022-10-26T09:19:05.000Z</time>
      </trkpt>
      <trkpt lat="43.61777" lon="5.45842">
        <ele>467.7</ele>
        <time>2022-10-26T09:19:07.000Z</time>
      </trkpt>
      <trkpt lat="43.61777" lon="5.45845">
        <ele>467.5</ele>
        <time>2022-10-26T09:19:09.000Z</time>
      </trkpt>
      <trkpt lat="43.61776" lon="5.45848">
        <ele>467.4</ele>
        <time>2022-10-26T09:19:11.000Z</time>
      </trkpt>
      <trkpt lat="43.61777" lon="5.45852">
        <ele>467.3</ele>
        <time>2022-10-26T09:19:13.000Z</time>
      </trkpt>
      <trkpt lat="43.61777" lon="5.45854">
        <ele>467.2</ele>
        <time>2022-10-26T09:19:15.000Z</time>
      </trkpt>
      <trkpt lat="43.61777" lon="5.45857">
        <ele>467.1</ele>
        <time>2022-10-26T09:19:17.000Z</time>
      </trkpt>
      <trkpt lat="43.61777" lon="5.4586">
        <ele>467</ele>
        <time>2022-10-26T09:19:20.000Z</time>
      </trkpt>
      <trkpt lat="43.61777" lon="5.45864">
        <ele>466.9</ele>
        <time>2022-10-26T09:19:23.000Z</time>
      </trkpt>
      <trkpt lat="43.61776" lon="5.45866">
        <ele>466.9</ele>
        <time>2022-10-26T09:19:25.000Z</time>
      </trkpt>
      <trkpt lat="43.61775" lon="5.45869">
        <ele>466.9</ele>
        <time>2022-10-26T09:19:28.000Z</time>
      </trkpt>
      <trkpt lat="43.61774" lon="5.45872">
        <ele>466.8</ele>
        <time>2022-10-26T09:19:30.000Z</time>
      </trkpt>
      <trkpt lat="43.61772" lon="5.45875">
        <ele>466.7</ele>
        <time>2022-10-26T09:19:32.000Z</time>
      </trkpt>
      <trkpt lat="43.61771" lon="5.45877">
        <ele>466.6</ele>
        <time>2022-10-26T09:19:34.000Z</time>
      </trkpt>
      <trkpt lat="43.61769" lon="5.45878">
        <ele>466.5</ele>
        <time>2022-10-26T09:19:36.000Z</time>
      </trkpt>
      <trkpt lat="43.61767" lon="5.45879">
        <ele>466.4</ele>
        <time>2022-10-26T09:19:38.000Z</time>
      </trkpt>
      <trkpt lat="43.61765" lon="5.45881">
        <ele>466.2</ele>
        <time>2022-10-26T09:19:41.000Z</time>
      </trkpt>
      <trkpt lat="43.61763" lon="5.45882">
        <ele>466</ele>
        <time>2022-10-26T09:19:43.000Z</time>
      </trkpt>
      <trkpt lat="43.61761" lon="5.45884">
        <ele>465.9</ele>
        <time>2022-10-26T09:19:45.000Z</time>
      </trkpt>
      <trkpt lat="43.61759" lon="5.45885">
        <ele>465.7</ele>
        <time>2022-10-26T09:19:47.000Z</time>
      </trkpt>
      <trkpt lat="43.61757" lon="5.45885">
        <ele>465.6</ele>
        <time>2022-10-26T09:19:49.000Z</time>
      </trkpt>
      <trkpt lat="43.61755" lon="5.45885">
        <ele>465.5</ele>
        <time>2022-10-26T09:19:51.000Z</time>
      </trkpt>
      <trkpt lat="43.61752" lon="5.45886">
        <ele>465.3</ele>
        <time>2022-10-26T09:19:54.000Z</time>
      </trkpt>
      <trkpt lat="43.6175" lon="5.45886">
        <ele>465.1</ele>
        <time>2022-10-26T09:19:56.000Z</time>
      </trkpt>
      <trkpt lat="43.61749" lon="5.45887">
        <ele>465</ele>
        <time>2022-10-26T09:19:58.000Z</time>
      </trkpt>
      <trkpt lat="43.61747" lon="5.45888">
        <ele>464.9</ele>
        <time>2022-10-26T09:20:00.000Z</time>
      </trkpt>
      <trkpt lat="43.61745" lon="5.45888">
        <ele>464.8</ele>
        <time>2022-10-26T09:20:02.000Z</time>
      </trkpt>
      <trkpt lat="43.61743" lon="5.45889">
        <ele>464.7</ele>
        <time>2022-10-26T09:20:04.000Z</time>
      </trkpt>
      <trkpt lat="43.61741" lon="5.4589">
        <ele>464.7</ele>
        <time>2022-10-26T09:20:06.000Z</time>
      </trkpt>
      <trkpt lat="43.61739" lon="5.45891">
        <ele>464.6</ele>
        <time>2022-10-26T09:20:09.000Z</time>
      </trkpt>
      <trkpt lat="43.61736" lon="5.45893">
        <ele>464.5</ele>
        <time>2022-10-26T09:20:11.000Z</time>
      </trkpt>
      <trkpt lat="43.61734" lon="5.45895">
        <ele>464.4</ele>
        <time>2022-10-26T09:20:13.000Z</time>
      </trkpt>
      <trkpt lat="43.61732" lon="5.45897">
        <ele>464.4</ele>
        <time>2022-10-26T09:20:15.000Z</time>
      </trkpt>
      <trkpt lat="43.61731" lon="5.45899">
        <ele>464.3</ele>
        <time>2022-10-26T09:20:17.000Z</time>
      </trkpt>
      <trkpt lat="43.61729" lon="5.45901">
        <ele>464.3</ele>
        <time>2022-10-26T09:20:19.000Z</time>
      </trkpt>
      <trkpt lat="43.61728" lon="5.45904">
        <ele>464.2</ele>
        <time>2022-10-26T09:20:21.000Z</time>
      </trkpt>
      <trkpt lat="43.61726" lon="5.45907">
        <ele>464.2</ele>
        <time>2022-10-26T09:20:23.000Z</time>
      </trkpt>
      <trkpt lat="43.61724" lon="5.45909">
        <ele>464.1</ele>
        <time>2022-10-26T09:20:26.000Z</time>
      </trkpt>
      <trkpt lat="43.61723" lon="5.45911">
        <ele>464</ele>
        <time>2022-10-26T09:20:28.000Z</time>
      </trkpt>
      <trkpt lat="43.61721" lon="5.45913">
        <ele>463.9</ele>
        <time>2022-10-26T09:20:30.000Z</time>
      </trkpt>
      <trkpt lat="43.61719" lon="5.45915">
        <ele>463.8</ele>
        <time>2022-10-26T09:20:32.000Z</time>
      </trkpt>
      <trkpt lat="43.61718" lon="5.45916">
        <ele>463.7</ele>
        <time>2022-10-26T09:20:34.000Z</time>
      </trkpt>
      <trkpt lat="43.61717" lon="5.45918">
        <ele>463.5</ele>
        <time>2022-10-26T09:20:36.000Z</time>
      </trkpt>
      <trkpt lat="43.61714" lon="5.45921">
        <ele>463.3</ele>
        <time>2022-10-26T09:20:39.000Z</time>
      </trkpt>
      <trkpt lat="43.61712" lon="5.45923">
        <ele>463.1</ele>
        <time>2022-10-26T09:20:42.000Z</time>
      </trkpt>
      <trkpt lat="43.61711" lon="5.45925">
        <ele>462.9</ele>
        <time>2022-10-26T09:20:44.000Z</time>
      </trkpt>
      <trkpt lat="43.6171" lon="5.45927">
        <ele>462.7</ele>
        <time>2022-10-26T09:20:46.000Z</time>
      </trkpt>
      <trkpt lat="43.61708" lon="5.45929">
        <ele>462.6</ele>
        <time>2022-10-26T09:20:48.000Z</time>
      </trkpt>
      <trkpt lat="43.61708" lon="5.45932">
        <ele>462.4</ele>
        <time>2022-10-26T09:20:51.000Z</time>
      </trkpt>
      <trkpt lat="43.61706" lon="5.45935">
        <ele>462.2</ele>
        <time>2022-10-26T09:20:54.000Z</time>
      </trkpt>
      <trkpt lat="43.61704" lon="5.45935">
        <ele>462</ele>
        <time>2022-10-26T09:20:57.000Z</time>
      </trkpt>
      <trkpt lat="43.61702" lon="5.45933">
        <ele>461.9</ele>
        <time>2022-10-26T09:21:00.000Z</time>
      </trkpt>
      <trkpt lat="43.617" lon="5.4593">
        <ele>461.9</ele>
        <time>2022-10-26T09:21:03.000Z</time>
      </trkpt>
      <trkpt lat="43.61699" lon="5.45928">
        <ele>461.9</ele>
        <time>2022-10-26T09:21:06.000Z</time>
      </trkpt>
      <trkpt lat="43.61699" lon="5.45925">
        <ele>462.1</ele>
        <time>2022-10-26T09:21:10.000Z</time>
      </trkpt>
      <trkpt lat="43.61699" lon="5.45922">
        <ele>462.1</ele>
        <time>2022-10-26T09:21:12.000Z</time>
      </trkpt>
      <trkpt lat="43.61699" lon="5.45918">
        <ele>462.3</ele>
        <time>2022-10-26T09:21:14.000Z</time>
      </trkpt>
      <trkpt lat="43.61699" lon="5.45915">
        <ele>462.4</ele>
        <time>2022-10-26T09:21:16.000Z</time>
      </trkpt>
      <trkpt lat="43.61699" lon="5.45912">
        <ele>462.5</ele>
        <time>2022-10-26T09:21:18.000Z</time>
      </trkpt>
      <trkpt lat="43.61699" lon="5.45908">
        <ele>462.6</ele>
        <time>2022-10-26T09:21:20.000Z</time>
      </trkpt>
      <trkpt lat="43.61699" lon="5.45905">
        <ele>462.7</ele>
        <time>2022-10-26T09:21:22.000Z</time>
      </trkpt>
      <trkpt lat="43.61699" lon="5.45902">
        <ele>462.8</ele>
        <time>2022-10-26T09:21:25.000Z</time>
      </trkpt>
      <trkpt lat="43.61699" lon="5.45898">
        <ele>462.9</ele>
        <time>2022-10-26T09:21:27.000Z</time>
      </trkpt>
      <trkpt lat="43.61699" lon="5.45895">
        <ele>463</ele>
        <time>2022-10-26T09:21:30.000Z</time>
      </trkpt>
      <trkpt lat="43.617" lon="5.45893">
        <ele>463.1</ele>
        <time>2022-10-26T09:21:32.000Z</time>
      </trkpt>
      <trkpt lat="43.61701" lon="5.4589">
        <ele>463.2</ele>
        <time>2022-10-26T09:21:34.000Z</time>
      </trkpt>
      <trkpt lat="43.61702" lon="5.45888">
        <ele>463.3</ele>
        <time>2022-10-26T09:21:36.000Z</time>
      </trkpt>
      <trkpt lat="43.61703" lon="5.45886">
        <ele>463.4</ele>
        <time>2022-10-26T09:21:38.000Z</time>
      </trkpt>
      <trkpt lat="43.61703" lon="5.45883">
        <ele>463.5</ele>
        <time>2022-10-26T09:21:40.000Z</time>
      </trkpt>
      <trkpt lat="43.61703" lon="5.4588">
        <ele>463.6</ele>
        <time>2022-10-26T09:21:42.000Z</time>
      </trkpt>
      <trkpt lat="43.61703" lon="5.45877">
        <ele>463.7</ele>
        <time>2022-10-26T09:21:45.000Z</time>
      </trkpt>
      <trkpt lat="43.61703" lon="5.45873">
        <ele>463.9</ele>
        <time>2022-10-26T09:21:48.000Z</time>
      </trkpt>
      <trkpt lat="43.61704" lon="5.4587">
        <ele>464</ele>
        <time>2022-10-26T09:21:51.000Z</time>
      </trkpt>
      <trkpt lat="43.61704" lon="5.45867">
        <ele>464.1</ele>
        <time>2022-10-26T09:21:53.000Z</time>
      </trkpt>
      <trkpt lat="43.61705" lon="5.45863">
        <ele>464.3</ele>
        <time>2022-10-26T09:21:56.000Z</time>
      </trkpt>
      <trkpt lat="43.61706" lon="5.4586">
        <ele>464.4</ele>
        <time>2022-10-26T09:21:58.000Z</time>
      </trkpt>
      <trkpt lat="43.61707" lon="5.45858">
        <ele>464.6</ele>
        <time>2022-10-26T09:22:00.000Z</time>
      </trkpt>
      <trkpt lat="43.61707" lon="5.45854">
        <ele>464.7</ele>
        <time>2022-10-26T09:22:02.000Z</time>
      </trkpt>
      <trkpt lat="43.61707" lon="5.45852">
        <ele>464.8</ele>
        <time>2022-10-26T09:22:05.000Z</time>
      </trkpt>
      <trkpt lat="43.61707" lon="5.45848">
        <ele>464.9</ele>
        <time>2022-10-26T09:22:08.000Z</time>
      </trkpt>
      <trkpt lat="43.61708" lon="5.45845">
        <ele>465.1</ele>
        <time>2022-10-26T09:22:11.000Z</time>
      </trkpt>
      <trkpt lat="43.61708" lon="5.45841">
        <ele>465.2</ele>
        <time>2022-10-26T09:22:14.000Z</time>
      </trkpt>
      <trkpt lat="43.61708" lon="5.45838">
        <ele>465.3</ele>
        <time>2022-10-26T09:22:17.000Z</time>
      </trkpt>
      <trkpt lat="43.61708" lon="5.45834">
        <ele>465.5</ele>
        <time>2022-10-26T09:22:20.000Z</time>
      </trkpt>
      <trkpt lat="43.61709" lon="5.45832">
        <ele>465.6</ele>
        <time>2022-10-26T09:22:22.000Z</time>
      </trkpt>
      <trkpt lat="43.61709" lon="5.45829">
        <ele>465.9</ele>
        <time>2022-10-26T09:22:24.000Z</time>
      </trkpt>
      <trkpt lat="43.61709" lon="5.45825">
        <ele>466.1</ele>
        <time>2022-10-26T09:22:26.000Z</time>
      </trkpt>
      <trkpt lat="43.61709" lon="5.45822">
        <ele>466.3</ele>
        <time>2022-10-26T09:22:29.000Z</time>
      </trkpt>
      <trkpt lat="43.61708" lon="5.45819">
        <ele>466.5</ele>
        <time>2022-10-26T09:22:31.000Z</time>
      </trkpt>
      <trkpt lat="43.61708" lon="5.45816">
        <ele>466.8</ele>
        <time>2022-10-26T09:22:34.000Z</time>
      </trkpt>
      <trkpt lat="43.61708" lon="5.45813">
        <ele>467</ele>
        <time>2022-10-26T09:22:37.000Z</time>
      </trkpt>
      <trkpt lat="43.61706" lon="5.4581">
        <ele>467.1</ele>
        <time>2022-10-26T09:22:40.000Z</time>
      </trkpt>
      <trkpt lat="43.61705" lon="5.45807">
        <ele>467.3</ele>
        <time>2022-10-26T09:22:43.000Z</time>
      </trkpt>
      <trkpt lat="43.61705" lon="5.45805">
        <ele>467.5</ele>
        <time>2022-10-26T09:22:45.000Z</time>
      </trkpt>
      <trkpt lat="43.61704" lon="5.45802">
        <ele>467.7</ele>
        <time>2022-10-26T09:22:47.000Z</time>
      </trkpt>
      <trkpt lat="43.61703" lon="5.458">
        <ele>468</ele>
        <time>2022-10-26T09:22:50.000Z</time>
      </trkpt>
      <trkpt lat="43.61702" lon="5.45797">
        <ele>468.2</ele>
        <time>2022-10-26T09:22:52.000Z</time>
      </trkpt>
      <trkpt lat="43.617" lon="5.45794">
        <ele>468.5</ele>
        <time>2022-10-26T09:22:55.000Z</time>
      </trkpt>
      <trkpt lat="43.617" lon="5.45791">
        <ele>468.8</ele>
        <time>2022-10-26T09:22:57.000Z</time>
      </trkpt>
      <trkpt lat="43.61699" lon="5.45788">
        <ele>469.1</ele>
        <time>2022-10-26T09:23:00.000Z</time>
      </trkpt>
      <trkpt lat="43.61698" lon="5.45786">
        <ele>469.4</ele>
        <time>2022-10-26T09:23:03.000Z</time>
      </trkpt>
      <trkpt lat="43.61696" lon="5.45783">
        <ele>469.5</ele>
        <time>2022-10-26T09:23:06.000Z</time>
      </trkpt>
      <trkpt lat="43.61695" lon="5.45781">
        <ele>469.7</ele>
        <time>2022-10-26T09:23:08.000Z</time>
      </trkpt>
      <trkpt lat="43.61695" lon="5.45779">
        <ele>469.9</ele>
        <time>2022-10-26T09:23:11.000Z</time>
      </trkpt>
      <trkpt lat="43.61693" lon="5.45776">
        <ele>470.1</ele>
        <time>2022-10-26T09:23:14.000Z</time>
      </trkpt>
      <trkpt lat="43.61692" lon="5.45773">
        <ele>470.4</ele>
        <time>2022-10-26T09:23:17.000Z</time>
      </trkpt>
      <trkpt lat="43.61692" lon="5.45771">
        <ele>470.9</ele>
        <time>2022-10-26T09:23:20.000Z</time>
      </trkpt>
      <trkpt lat="43.61691" lon="5.45768">
        <ele>471.2</ele>
        <time>2022-10-26T09:23:23.000Z</time>
      </trkpt>
      <trkpt lat="43.6169" lon="5.45765">
        <ele>471.5</ele>
        <time>2022-10-26T09:23:27.000Z</time>
      </trkpt>
      <trkpt lat="43.61689" lon="5.45763">
        <ele>471.7</ele>
        <time>2022-10-26T09:23:29.000Z</time>
      </trkpt>
      <trkpt lat="43.61688" lon="5.45759">
        <ele>472</ele>
        <time>2022-10-26T09:23:32.000Z</time>
      </trkpt>
      <trkpt lat="43.61686" lon="5.45756">
        <ele>472.2</ele>
        <time>2022-10-26T09:23:35.000Z</time>
      </trkpt>
      <trkpt lat="43.61685" lon="5.45754">
        <ele>472.3</ele>
        <time>2022-10-26T09:23:38.000Z</time>
      </trkpt>
      <trkpt lat="43.61684" lon="5.45751">
        <ele>472.5</ele>
        <time>2022-10-26T09:23:41.000Z</time>
      </trkpt>
      <trkpt lat="43.61683" lon="5.45748">
        <ele>472.6</ele>
        <time>2022-10-26T09:23:45.000Z</time>
      </trkpt>
      <trkpt lat="43.61682" lon="5.45746">
        <ele>472.8</ele>
        <time>2022-10-26T09:23:48.000Z</time>
      </trkpt>
      <trkpt lat="43.61681" lon="5.45743">
        <ele>473</ele>
        <time>2022-10-26T09:23:53.000Z</time>
      </trkpt>
      <trkpt lat="43.6168" lon="5.4574">
        <ele>473.2</ele>
        <time>2022-10-26T09:23:55.000Z</time>
      </trkpt>
      <trkpt lat="43.6168" lon="5.45737">
        <ele>473.5</ele>
        <time>2022-10-26T09:23:59.000Z</time>
      </trkpt>
      <trkpt lat="43.61679" lon="5.45734">
        <ele>473.8</ele>
        <time>2022-10-26T09:24:02.000Z</time>
      </trkpt>
      <trkpt lat="43.61678" lon="5.45729">
        <ele>474.2</ele>
        <time>2022-10-26T09:24:05.000Z</time>
      </trkpt>
      <trkpt lat="43.61678" lon="5.45727">
        <ele>474.4</ele>
        <time>2022-10-26T09:24:07.000Z</time>
      </trkpt>
      <trkpt lat="43.61677" lon="5.45724">
        <ele>474.6</ele>
        <time>2022-10-26T09:24:09.000Z</time>
      </trkpt>
      <trkpt lat="43.61677" lon="5.45721">
        <ele>475</ele>
        <time>2022-10-26T09:24:12.000Z</time>
      </trkpt>
      <trkpt lat="43.61677" lon="5.45718">
        <ele>475.1</ele>
        <time>2022-10-26T09:24:14.000Z</time>
      </trkpt>
      <trkpt lat="43.61677" lon="5.45716">
        <ele>475.3</ele>
        <time>2022-10-26T09:24:16.000Z</time>
      </trkpt>
      <trkpt lat="43.61676" lon="5.45712">
        <ele>475.4</ele>
        <time>2022-10-26T09:24:19.000Z</time>
      </trkpt>
      <trkpt lat="43.61675" lon="5.45709">
        <ele>475.4</ele>
        <time>2022-10-26T09:24:21.000Z</time>
      </trkpt>
      <trkpt lat="43.61674" lon="5.45707">
        <ele>475.4</ele>
        <time>2022-10-26T09:24:23.000Z</time>
      </trkpt>
      <trkpt lat="43.61673" lon="5.45704">
        <ele>475.5</ele>
        <time>2022-10-26T09:24:26.000Z</time>
      </trkpt>
      <trkpt lat="43.61673" lon="5.45701">
        <ele>475.6</ele>
        <time>2022-10-26T09:24:28.000Z</time>
      </trkpt>
      <trkpt lat="43.61673" lon="5.45698">
        <ele>475.8</ele>
        <time>2022-10-26T09:24:30.000Z</time>
      </trkpt>
      <trkpt lat="43.61672" lon="5.45694">
        <ele>476</ele>
        <time>2022-10-26T09:24:33.000Z</time>
      </trkpt>
      <trkpt lat="43.61672" lon="5.45692">
        <ele>476.1</ele>
        <time>2022-10-26T09:24:35.000Z</time>
      </trkpt>
      <trkpt lat="43.61671" lon="5.45689">
        <ele>476.2</ele>
        <time>2022-10-26T09:24:37.000Z</time>
      </trkpt>
      <trkpt lat="43.6167" lon="5.45686">
        <ele>476.2</ele>
        <time>2022-10-26T09:24:39.000Z</time>
      </trkpt>
      <trkpt lat="43.61669" lon="5.45683">
        <ele>476.3</ele>
        <time>2022-10-26T09:24:41.000Z</time>
      </trkpt>
      <trkpt lat="43.61668" lon="5.4568">
        <ele>476.3</ele>
        <time>2022-10-26T09:24:44.000Z</time>
      </trkpt>
      <trkpt lat="43.61667" lon="5.45677">
        <ele>476.3</ele>
        <time>2022-10-26T09:24:47.000Z</time>
      </trkpt>
      <trkpt lat="43.61667" lon="5.45674">
        <ele>476.5</ele>
        <time>2022-10-26T09:24:50.000Z</time>
      </trkpt>
      <trkpt lat="43.61665" lon="5.45671">
        <ele>476.4</ele>
        <time>2022-10-26T09:24:52.000Z</time>
      </trkpt>
      <trkpt lat="43.61664" lon="5.45668">
        <ele>476.3</ele>
        <time>2022-10-26T09:24:54.000Z</time>
      </trkpt>
      <trkpt lat="43.61663" lon="5.45665">
        <ele>476.3</ele>
        <time>2022-10-26T09:24:56.000Z</time>
      </trkpt>
      <trkpt lat="43.61663" lon="5.45663">
        <ele>476.5</ele>
        <time>2022-10-26T09:24:58.000Z</time>
      </trkpt>
      <trkpt lat="43.61663" lon="5.45659">
        <ele>476.7</ele>
        <time>2022-10-26T09:25:01.000Z</time>
      </trkpt>
      <trkpt lat="43.61661" lon="5.45657">
        <ele>476.6</ele>
        <time>2022-10-26T09:25:04.000Z</time>
      </trkpt>
      <trkpt lat="43.61659" lon="5.45657">
        <ele>476.2</ele>
        <time>2022-10-26T09:25:07.000Z</time>
      </trkpt>
      <trkpt lat="43.61656" lon="5.45656">
        <ele>475.8</ele>
        <time>2022-10-26T09:25:10.000Z</time>
      </trkpt>
      <trkpt lat="43.61654" lon="5.45656">
        <ele>475.4</ele>
        <time>2022-10-26T09:25:13.000Z</time>
      </trkpt>
      <trkpt lat="43.61653" lon="5.45653">
        <ele>475.4</ele>
        <time>2022-10-26T09:25:16.000Z</time>
      </trkpt>
      <trkpt lat="43.61653" lon="5.45651">
        <ele>475.7</ele>
        <time>2022-10-26T09:25:18.000Z</time>
      </trkpt>
      <trkpt lat="43.61653" lon="5.45648">
        <ele>476.1</ele>
        <time>2022-10-26T09:25:20.000Z</time>
      </trkpt>
      <trkpt lat="43.61654" lon="5.45645">
        <ele>476.6</ele>
        <time>2022-10-26T09:25:23.000Z</time>
      </trkpt>
      <trkpt lat="43.61654" lon="5.45642">
        <ele>476.8</ele>
        <time>2022-10-26T09:25:26.000Z</time>
      </trkpt>
      <trkpt lat="43.61653" lon="5.4564">
        <ele>476.9</ele>
        <time>2022-10-26T09:25:28.000Z</time>
      </trkpt>
      <trkpt lat="43.61652" lon="5.45638">
        <ele>476.9</ele>
        <time>2022-10-26T09:25:30.000Z</time>
      </trkpt>
      <trkpt lat="43.61651" lon="5.45635">
        <ele>476.9</ele>
        <time>2022-10-26T09:25:32.000Z</time>
      </trkpt>
      <trkpt lat="43.61649" lon="5.45633">
        <ele>476.9</ele>
        <time>2022-10-26T09:25:34.000Z</time>
      </trkpt>
      <trkpt lat="43.61647" lon="5.45631">
        <ele>476.8</ele>
        <time>2022-10-26T09:25:37.000Z</time>
      </trkpt>
      <trkpt lat="43.61646" lon="5.45629">
        <ele>476.7</ele>
        <time>2022-10-26T09:25:39.000Z</time>
      </trkpt>
      <trkpt lat="43.61645" lon="5.45627">
        <ele>476.7</ele>
        <time>2022-10-26T09:25:41.000Z</time>
      </trkpt>
      <trkpt lat="43.61643" lon="5.45625">
        <ele>476.6</ele>
        <time>2022-10-26T09:25:43.000Z</time>
      </trkpt>
      <trkpt lat="43.61642" lon="5.45624">
        <ele>476.5</ele>
        <time>2022-10-26T09:25:45.000Z</time>
      </trkpt>
      <trkpt lat="43.6164" lon="5.45622">
        <ele>476.3</ele>
        <time>2022-10-26T09:25:47.000Z</time>
      </trkpt>
      <trkpt lat="43.61638" lon="5.45621">
        <ele>476.2</ele>
        <time>2022-10-26T09:25:49.000Z</time>
      </trkpt>
      <trkpt lat="43.61636" lon="5.4562">
        <ele>476</ele>
        <time>2022-10-26T09:25:52.000Z</time>
      </trkpt>
      <trkpt lat="43.61633" lon="5.45619">
        <ele>475.8</ele>
        <time>2022-10-26T09:25:54.000Z</time>
      </trkpt>
      <trkpt lat="43.61631" lon="5.45619">
        <ele>475.6</ele>
        <time>2022-10-26T09:25:56.000Z</time>
      </trkpt>
      <trkpt lat="43.61629" lon="5.45618">
        <ele>475.4</ele>
        <time>2022-10-26T09:25:58.000Z</time>
      </trkpt>
      <trkpt lat="43.61627" lon="5.45618">
        <ele>475.1</ele>
        <time>2022-10-26T09:26:00.000Z</time>
      </trkpt>
      <trkpt lat="43.61625" lon="5.45617">
        <ele>475</ele>
        <time>2022-10-26T09:26:02.000Z</time>
      </trkpt>
      <trkpt lat="43.61623" lon="5.45616">
        <ele>474.9</ele>
        <time>2022-10-26T09:26:04.000Z</time>
      </trkpt>
      <trkpt lat="43.61621" lon="5.45615">
        <ele>474.7</ele>
        <time>2022-10-26T09:26:06.000Z</time>
      </trkpt>
      <trkpt lat="43.6162" lon="5.45614">
        <ele>474.7</ele>
        <time>2022-10-26T09:26:08.000Z</time>
      </trkpt>
      <trkpt lat="43.61618" lon="5.45612">
        <ele>474.7</ele>
        <time>2022-10-26T09:26:10.000Z</time>
      </trkpt>
      <trkpt lat="43.61616" lon="5.45611">
        <ele>474.6</ele>
        <time>2022-10-26T09:26:12.000Z</time>
      </trkpt>
      <trkpt lat="43.61615" lon="5.45608">
        <ele>474.6</ele>
        <time>2022-10-26T09:26:14.000Z</time>
      </trkpt>
      <trkpt lat="43.61613" lon="5.45606">
        <ele>474.5</ele>
        <time>2022-10-26T09:26:16.000Z</time>
      </trkpt>
      <trkpt lat="43.61611" lon="5.45604">
        <ele>474.4</ele>
        <time>2022-10-26T09:26:18.000Z</time>
      </trkpt>
      <trkpt lat="43.61609" lon="5.45603">
        <ele>474.3</ele>
        <time>2022-10-26T09:26:20.000Z</time>
      </trkpt>
      <trkpt lat="43.61607" lon="5.456">
        <ele>474.3</ele>
        <time>2022-10-26T09:26:22.000Z</time>
      </trkpt>
      <trkpt lat="43.61606" lon="5.45598">
        <ele>474.3</ele>
        <time>2022-10-26T09:26:24.000Z</time>
      </trkpt>
      <trkpt lat="43.61605" lon="5.45595">
        <ele>474.5</ele>
        <time>2022-10-26T09:26:26.000Z</time>
      </trkpt>
      <trkpt lat="43.61605" lon="5.45592">
        <ele>474.7</ele>
        <time>2022-10-26T09:26:28.000Z</time>
      </trkpt>
      <trkpt lat="43.61605" lon="5.45588">
        <ele>475</ele>
        <time>2022-10-26T09:26:30.000Z</time>
      </trkpt>
      <trkpt lat="43.61605" lon="5.45584">
        <ele>475.3</ele>
        <time>2022-10-26T09:26:32.000Z</time>
      </trkpt>
      <trkpt lat="43.61604" lon="5.4558">
        <ele>475.5</ele>
        <time>2022-10-26T09:26:34.000Z</time>
      </trkpt>
      <trkpt lat="43.61603" lon="5.45577">
        <ele>475.7</ele>
        <time>2022-10-26T09:26:37.000Z</time>
      </trkpt>
      <trkpt lat="43.61602" lon="5.45574">
        <ele>475.8</ele>
        <time>2022-10-26T09:26:39.000Z</time>
      </trkpt>
      <trkpt lat="43.61602" lon="5.4557">
        <ele>475.9</ele>
        <time>2022-10-26T09:26:42.000Z</time>
      </trkpt>
      <trkpt lat="43.61601" lon="5.45568">
        <ele>476</ele>
        <time>2022-10-26T09:26:44.000Z</time>
      </trkpt>
      <trkpt lat="43.616" lon="5.45565">
        <ele>476.1</ele>
        <time>2022-10-26T09:26:46.000Z</time>
      </trkpt>
      <trkpt lat="43.616" lon="5.45562">
        <ele>476.4</ele>
        <time>2022-10-26T09:26:49.000Z</time>
      </trkpt>
      <trkpt lat="43.616" lon="5.45559">
        <ele>476.6</ele>
        <time>2022-10-26T09:26:51.000Z</time>
      </trkpt>
      <trkpt lat="43.61601" lon="5.45556">
        <ele>476.9</ele>
        <time>2022-10-26T09:26:53.000Z</time>
      </trkpt>
      <trkpt lat="43.61601" lon="5.45554">
        <ele>477</ele>
        <time>2022-10-26T09:26:55.000Z</time>
      </trkpt>
      <trkpt lat="43.61602" lon="5.45551">
        <ele>477</ele>
        <time>2022-10-26T09:26:57.000Z</time>
      </trkpt>
      <trkpt lat="43.61602" lon="5.45549">
        <ele>477</ele>
        <time>2022-10-26T09:26:59.000Z</time>
      </trkpt>
      <trkpt lat="43.61601" lon="5.45545">
        <ele>476.9</ele>
        <time>2022-10-26T09:27:02.000Z</time>
      </trkpt>
      <trkpt lat="43.616" lon="5.45542">
        <ele>476.8</ele>
        <time>2022-10-26T09:27:05.000Z</time>
      </trkpt>
      <trkpt lat="43.616" lon="5.4554">
        <ele>476.8</ele>
        <time>2022-10-26T09:27:07.000Z</time>
      </trkpt>
      <trkpt lat="43.61601" lon="5.45537">
        <ele>476.9</ele>
        <time>2022-10-26T09:27:09.000Z</time>
      </trkpt>
      <trkpt lat="43.61602" lon="5.45533">
        <ele>477</ele>
        <time>2022-10-26T09:27:11.000Z</time>
      </trkpt>
      <trkpt lat="43.61603" lon="5.4553">
        <ele>477.2</ele>
        <time>2022-10-26T09:27:13.000Z</time>
      </trkpt>
      <trkpt lat="43.61605" lon="5.45527">
        <ele>477.3</ele>
        <time>2022-10-26T09:27:16.000Z</time>
      </trkpt>
      <trkpt lat="43.61606" lon="5.45524">
        <ele>477.4</ele>
        <time>2022-10-26T09:27:18.000Z</time>
      </trkpt>
      <trkpt lat="43.61607" lon="5.45521">
        <ele>477.6</ele>
        <time>2022-10-26T09:27:21.000Z</time>
      </trkpt>
      <trkpt lat="43.61608" lon="5.45518">
        <ele>477.7</ele>
        <time>2022-10-26T09:27:23.000Z</time>
      </trkpt>
      <trkpt lat="43.6161" lon="5.45515">
        <ele>477.9</ele>
        <time>2022-10-26T09:27:25.000Z</time>
      </trkpt>
      <trkpt lat="43.6161" lon="5.45513">
        <ele>477.9</ele>
        <time>2022-10-26T09:27:27.000Z</time>
      </trkpt>
      <trkpt lat="43.61611" lon="5.4551">
        <ele>478</ele>
        <time>2022-10-26T09:27:29.000Z</time>
      </trkpt>
      <trkpt lat="43.6161" lon="5.45507">
        <ele>477.9</ele>
        <time>2022-10-26T09:27:32.000Z</time>
      </trkpt>
      <trkpt lat="43.61611" lon="5.45504">
        <ele>478</ele>
        <time>2022-10-26T09:27:35.000Z</time>
      </trkpt>
      <trkpt lat="43.61613" lon="5.45503">
        <ele>478.2</ele>
        <time>2022-10-26T09:27:38.000Z</time>
      </trkpt>
      <trkpt lat="43.61615" lon="5.45503">
        <ele>478.4</ele>
        <time>2022-10-26T09:27:40.000Z</time>
      </trkpt>
      <trkpt lat="43.61617" lon="5.45504">
        <ele>478.6</ele>
        <time>2022-10-26T09:27:43.000Z</time>
      </trkpt>
      <trkpt lat="43.61619" lon="5.45504">
        <ele>478.8</ele>
        <time>2022-10-26T09:29:13.000Z</time>
      </trkpt>
      <trkpt lat="43.61619" lon="5.45504">
        <ele>478.8</ele>
        <time>2022-10-26T09:29:13.000Z</time>
      </trkpt>
      <trkpt lat="43.6162" lon="5.45502">
        <ele>479</ele>
        <time>2022-10-26T09:30:05.000Z</time>
      </trkpt>
      <trkpt lat="43.6162" lon="5.45502">
        <ele>479</ele>
        <time>2022-10-26T09:30:05.000Z</time>
      </trkpt>
      <trkpt lat="43.61622" lon="5.455">
        <ele>479.1</ele>
        <time>2022-10-26T09:30:08.000Z</time>
      </trkpt>
      <trkpt lat="43.6162" lon="5.45498">
        <ele>479</ele>
        <time>2022-10-26T09:30:12.000Z</time>
      </trkpt>
      <trkpt lat="43.61618" lon="5.45497">
        <ele>478.7</ele>
        <time>2022-10-26T09:30:15.000Z</time>
      </trkpt>
      <trkpt lat="43.61616" lon="5.45497">
        <ele>478.5</ele>
        <time>2022-10-26T09:30:17.000Z</time>
      </trkpt>
      <trkpt lat="43.61614" lon="5.45497">
        <ele>478.3</ele>
        <time>2022-10-26T09:30:19.000Z</time>
      </trkpt>
      <trkpt lat="43.61613" lon="5.45495">
        <ele>478.2</ele>
        <time>2022-10-26T09:30:21.000Z</time>
      </trkpt>
      <trkpt lat="43.61612" lon="5.45493">
        <ele>478.1</ele>
        <time>2022-10-26T09:30:23.000Z</time>
      </trkpt>
      <trkpt lat="43.61611" lon="5.45491">
        <ele>478</ele>
        <time>2022-10-26T09:30:25.000Z</time>
      </trkpt>
      <trkpt lat="43.6161" lon="5.45488">
        <ele>477.9</ele>
        <time>2022-10-26T09:30:27.000Z</time>
      </trkpt>
      <trkpt lat="43.6161" lon="5.45486">
        <ele>477.9</ele>
        <time>2022-10-26T09:30:29.000Z</time>
      </trkpt>
      <trkpt lat="43.61609" lon="5.45483">
        <ele>477.9</ele>
        <time>2022-10-26T09:30:32.000Z</time>
      </trkpt>
      <trkpt lat="43.61609" lon="5.4548">
        <ele>477.8</ele>
        <time>2022-10-26T09:30:35.000Z</time>
      </trkpt>
      <trkpt lat="43.61609" lon="5.45476">
        <ele>477.8</ele>
        <time>2022-10-26T09:30:38.000Z</time>
      </trkpt>
      <trkpt lat="43.61609" lon="5.45473">
        <ele>477.8</ele>
        <time>2022-10-26T09:30:41.000Z</time>
      </trkpt>
      <trkpt lat="43.61609" lon="5.45469">
        <ele>477.8</ele>
        <time>2022-10-26T09:30:44.000Z</time>
      </trkpt>
      <trkpt lat="43.61608" lon="5.45467">
        <ele>477.8</ele>
        <time>2022-10-26T09:30:47.000Z</time>
      </trkpt>
      <trkpt lat="43.61608" lon="5.45464">
        <ele>477.8</ele>
        <time>2022-10-26T09:30:50.000Z</time>
      </trkpt>
      <trkpt lat="43.61608" lon="5.4546">
        <ele>477.8</ele>
        <time>2022-10-26T09:30:53.000Z</time>
      </trkpt>
      <trkpt lat="43.61608" lon="5.45457">
        <ele>477.8</ele>
        <time>2022-10-26T09:30:56.000Z</time>
      </trkpt>
      <trkpt lat="43.61608" lon="5.45454">
        <ele>477.8</ele>
        <time>2022-10-26T09:30:59.000Z</time>
      </trkpt>
      <trkpt lat="43.61607" lon="5.45451">
        <ele>477.8</ele>
        <time>2022-10-26T09:31:02.000Z</time>
      </trkpt>
      <trkpt lat="43.61607" lon="5.45447">
        <ele>477.8</ele>
        <time>2022-10-26T09:31:05.000Z</time>
      </trkpt>
      <trkpt lat="43.61608" lon="5.45444">
        <ele>477.9</ele>
        <time>2022-10-26T09:31:08.000Z</time>
      </trkpt>
      <trkpt lat="43.61608" lon="5.45441">
        <ele>477.9</ele>
        <time>2022-10-26T09:31:11.000Z</time>
      </trkpt>
      <trkpt lat="43.61608" lon="5.45438">
        <ele>477.9</ele>
        <time>2022-10-26T09:31:14.000Z</time>
      </trkpt>
      <trkpt lat="43.61608" lon="5.45435">
        <ele>477.9</ele>
        <time>2022-10-26T09:31:17.000Z</time>
      </trkpt>
      <trkpt lat="43.61608" lon="5.45432">
        <ele>477.9</ele>
        <time>2022-10-26T09:31:20.000Z</time>
      </trkpt>
      <trkpt lat="43.61608" lon="5.45429">
        <ele>477.9</ele>
        <time>2022-10-26T09:31:23.000Z</time>
      </trkpt>
      <trkpt lat="43.61608" lon="5.45426">
        <ele>477.9</ele>
        <time>2022-10-26T09:31:26.000Z</time>
      </trkpt>
      <trkpt lat="43.61608" lon="5.45422">
        <ele>477.9</ele>
        <time>2022-10-26T09:31:29.000Z</time>
      </trkpt>
      <trkpt lat="43.61608" lon="5.45419">
        <ele>477.9</ele>
        <time>2022-10-26T09:31:32.000Z</time>
      </trkpt>
      <trkpt lat="43.61609" lon="5.45416">
        <ele>477.9</ele>
        <time>2022-10-26T09:31:35.000Z</time>
      </trkpt>
      <trkpt lat="43.61609" lon="5.45412">
        <ele>477.8</ele>
        <time>2022-10-26T09:31:38.000Z</time>
      </trkpt>
      <trkpt lat="43.61609" lon="5.45409">
        <ele>477.6</ele>
        <time>2022-10-26T09:31:41.000Z</time>
      </trkpt>
      <trkpt lat="43.61608" lon="5.45406">
        <ele>477.6</ele>
        <time>2022-10-26T09:31:43.000Z</time>
      </trkpt>
      <trkpt lat="43.61608" lon="5.45403">
        <ele>477.4</ele>
        <time>2022-10-26T09:31:46.000Z</time>
      </trkpt>
      <trkpt lat="43.61608" lon="5.45399">
        <ele>477.3</ele>
        <time>2022-10-26T09:31:49.000Z</time>
      </trkpt>
      <trkpt lat="43.61608" lon="5.45396">
        <ele>477.2</ele>
        <time>2022-10-26T09:31:51.000Z</time>
      </trkpt>
      <trkpt lat="43.61607" lon="5.45394">
        <ele>477.2</ele>
        <time>2022-10-26T09:31:53.000Z</time>
      </trkpt>
      <trkpt lat="43.61607" lon="5.4539">
        <ele>477</ele>
        <time>2022-10-26T09:31:56.000Z</time>
      </trkpt>
      <trkpt lat="43.61607" lon="5.45388">
        <ele>477</ele>
        <time>2022-10-26T09:31:58.000Z</time>
      </trkpt>
      <trkpt lat="43.61607" lon="5.45385">
        <ele>477</ele>
        <time>2022-10-26T09:32:00.000Z</time>
      </trkpt>
      <trkpt lat="43.61607" lon="5.45382">
        <ele>477</ele>
        <time>2022-10-26T09:32:03.000Z</time>
      </trkpt>
      <trkpt lat="43.61607" lon="5.45378">
        <ele>477</ele>
        <time>2022-10-26T09:32:06.000Z</time>
      </trkpt>
      <trkpt lat="43.61607" lon="5.45376">
        <ele>477</ele>
        <time>2022-10-26T09:32:08.000Z</time>
      </trkpt>
      <trkpt lat="43.61607" lon="5.45372">
        <ele>477</ele>
        <time>2022-10-26T09:32:10.000Z</time>
      </trkpt>
      <trkpt lat="43.61607" lon="5.4537">
        <ele>477</ele>
        <time>2022-10-26T09:32:12.000Z</time>
      </trkpt>
      <trkpt lat="43.61608" lon="5.45367">
        <ele>477</ele>
        <time>2022-10-26T09:32:14.000Z</time>
      </trkpt>
      <trkpt lat="43.61607" lon="5.45364">
        <ele>477</ele>
        <time>2022-10-26T09:32:16.000Z</time>
      </trkpt>
      <trkpt lat="43.61607" lon="5.45362">
        <ele>477</ele>
        <time>2022-10-26T09:32:18.000Z</time>
      </trkpt>
      <trkpt lat="43.61607" lon="5.45359">
        <ele>477</ele>
        <time>2022-10-26T09:32:20.000Z</time>
      </trkpt>
      <trkpt lat="43.61607" lon="5.45356">
        <ele>477</ele>
        <time>2022-10-26T09:32:22.000Z</time>
      </trkpt>
      <trkpt lat="43.61607" lon="5.45353">
        <ele>477</ele>
        <time>2022-10-26T09:32:24.000Z</time>
      </trkpt>
      <trkpt lat="43.61607" lon="5.4535">
        <ele>477</ele>
        <time>2022-10-26T09:32:26.000Z</time>
      </trkpt>
      <trkpt lat="43.61607" lon="5.45347">
        <ele>477</ele>
        <time>2022-10-26T09:32:28.000Z</time>
      </trkpt>
      <trkpt lat="43.61607" lon="5.45345">
        <ele>477</ele>
        <time>2022-10-26T09:32:30.000Z</time>
      </trkpt>
      <trkpt lat="43.61607" lon="5.45341">
        <ele>477</ele>
        <time>2022-10-26T09:32:32.000Z</time>
      </trkpt>
      <trkpt lat="43.61608" lon="5.45338">
        <ele>477</ele>
        <time>2022-10-26T09:32:34.000Z</time>
      </trkpt>
      <trkpt lat="43.61608" lon="5.45335">
        <ele>477</ele>
        <time>2022-10-26T09:32:36.000Z</time>
      </trkpt>
      <trkpt lat="43.61608" lon="5.45331">
        <ele>477</ele>
        <time>2022-10-26T09:32:39.000Z</time>
      </trkpt>
      <trkpt lat="43.61608" lon="5.45328">
        <ele>477</ele>
        <time>2022-10-26T09:32:42.000Z</time>
      </trkpt>
      <trkpt lat="43.61609" lon="5.45325">
        <ele>477</ele>
        <time>2022-10-26T09:32:45.000Z</time>
      </trkpt>
      <trkpt lat="43.61609" lon="5.45321">
        <ele>477</ele>
        <time>2022-10-26T09:32:47.000Z</time>
      </trkpt>
      <trkpt lat="43.61609" lon="5.45318">
        <ele>477</ele>
        <time>2022-10-26T09:32:50.000Z</time>
      </trkpt>
      <trkpt lat="43.6161" lon="5.45315">
        <ele>477</ele>
        <time>2022-10-26T09:32:52.000Z</time>
      </trkpt>
      <trkpt lat="43.6161" lon="5.45312">
        <ele>477</ele>
        <time>2022-10-26T09:32:54.000Z</time>
      </trkpt>
      <trkpt lat="43.6161" lon="5.4531">
        <ele>477</ele>
        <time>2022-10-26T09:32:56.000Z</time>
      </trkpt>
      <trkpt lat="43.6161" lon="5.45307">
        <ele>477</ele>
        <time>2022-10-26T09:32:58.000Z</time>
      </trkpt>
      <trkpt lat="43.6161" lon="5.45305">
        <ele>477</ele>
        <time>2022-10-26T09:33:00.000Z</time>
      </trkpt>
      <trkpt lat="43.61611" lon="5.45302">
        <ele>477</ele>
        <time>2022-10-26T09:33:02.000Z</time>
      </trkpt>
      <trkpt lat="43.61611" lon="5.45299">
        <ele>477</ele>
        <time>2022-10-26T09:33:04.000Z</time>
      </trkpt>
      <trkpt lat="43.61612" lon="5.45297">
        <ele>477</ele>
        <time>2022-10-26T09:33:06.000Z</time>
      </trkpt>
      <trkpt lat="43.61612" lon="5.45294">
        <ele>476.9</ele>
        <time>2022-10-26T09:33:08.000Z</time>
      </trkpt>
      <trkpt lat="43.61613" lon="5.45292">
        <ele>476.9</ele>
        <time>2022-10-26T09:33:10.000Z</time>
      </trkpt>
      <trkpt lat="43.61614" lon="5.45289">
        <ele>476.9</ele>
        <time>2022-10-26T09:33:12.000Z</time>
      </trkpt>
      <trkpt lat="43.61614" lon="5.45287">
        <ele>476.9</ele>
        <time>2022-10-26T09:33:14.000Z</time>
      </trkpt>
      <trkpt lat="43.61614" lon="5.45284">
        <ele>476.9</ele>
        <time>2022-10-26T09:33:16.000Z</time>
      </trkpt>
      <trkpt lat="43.61614" lon="5.45281">
        <ele>476.9</ele>
        <time>2022-10-26T09:33:18.000Z</time>
      </trkpt>
      <trkpt lat="43.61615" lon="5.45278">
        <ele>476.9</ele>
        <time>2022-10-26T09:33:20.000Z</time>
      </trkpt>
      <trkpt lat="43.61615" lon="5.45275">
        <ele>476.9</ele>
        <time>2022-10-26T09:33:22.000Z</time>
      </trkpt>
      <trkpt lat="43.61616" lon="5.45273">
        <ele>476.8</ele>
        <time>2022-10-26T09:33:24.000Z</time>
      </trkpt>
      <trkpt lat="43.61616" lon="5.4527">
        <ele>476.8</ele>
        <time>2022-10-26T09:33:26.000Z</time>
      </trkpt>
      <trkpt lat="43.61617" lon="5.45267">
        <ele>476.8</ele>
        <time>2022-10-26T09:33:28.000Z</time>
      </trkpt>
      <trkpt lat="43.61617" lon="5.45264">
        <ele>476.8</ele>
        <time>2022-10-26T09:33:30.000Z</time>
      </trkpt>
      <trkpt lat="43.61618" lon="5.45261">
        <ele>476.8</ele>
        <time>2022-10-26T09:33:33.000Z</time>
      </trkpt>
      <trkpt lat="43.61619" lon="5.45258">
        <ele>476.7</ele>
        <time>2022-10-26T09:33:35.000Z</time>
      </trkpt>
      <trkpt lat="43.61619" lon="5.45256">
        <ele>476.7</ele>
        <time>2022-10-26T09:33:37.000Z</time>
      </trkpt>
      <trkpt lat="43.6162" lon="5.45254">
        <ele>476.7</ele>
        <time>2022-10-26T09:33:39.000Z</time>
      </trkpt>
      <trkpt lat="43.61621" lon="5.45252">
        <ele>476.6</ele>
        <time>2022-10-26T09:33:41.000Z</time>
      </trkpt>
      <trkpt lat="43.61623" lon="5.45249">
        <ele>476.6</ele>
        <time>2022-10-26T09:33:43.000Z</time>
      </trkpt>
      <trkpt lat="43.61624" lon="5.45246">
        <ele>476.7</ele>
        <time>2022-10-26T09:33:46.000Z</time>
      </trkpt>
      <trkpt lat="43.61625" lon="5.45243">
        <ele>476.7</ele>
        <time>2022-10-26T09:33:49.000Z</time>
      </trkpt>
      <trkpt lat="43.61627" lon="5.45241">
        <ele>476.8</ele>
        <time>2022-10-26T09:33:52.000Z</time>
      </trkpt>
      <trkpt lat="43.61628" lon="5.45239">
        <ele>476.8</ele>
        <time>2022-10-26T09:33:55.000Z</time>
      </trkpt>
      <trkpt lat="43.61629" lon="5.45236">
        <ele>476.8</ele>
        <time>2022-10-26T09:33:58.000Z</time>
      </trkpt>
      <trkpt lat="43.6163" lon="5.45233">
        <ele>476.9</ele>
        <time>2022-10-26T09:34:01.000Z</time>
      </trkpt>
      <trkpt lat="43.61632" lon="5.45231">
        <ele>476.9</ele>
        <time>2022-10-26T09:34:04.000Z</time>
      </trkpt>
      <trkpt lat="43.61633" lon="5.45229">
        <ele>477</ele>
        <time>2022-10-26T09:34:06.000Z</time>
      </trkpt>
      <trkpt lat="43.61635" lon="5.45227">
        <ele>477</ele>
        <time>2022-10-26T09:34:09.000Z</time>
      </trkpt>
      <trkpt lat="43.61636" lon="5.45223">
        <ele>477.1</ele>
        <time>2022-10-26T09:34:12.000Z</time>
      </trkpt>
      <trkpt lat="43.61636" lon="5.45221">
        <ele>477.1</ele>
        <time>2022-10-26T09:34:14.000Z</time>
      </trkpt>
      <trkpt lat="43.61637" lon="5.45217">
        <ele>477.2</ele>
        <time>2022-10-26T09:34:17.000Z</time>
      </trkpt>
      <trkpt lat="43.61639" lon="5.45215">
        <ele>477.3</ele>
        <time>2022-10-26T09:34:20.000Z</time>
      </trkpt>
      <trkpt lat="43.6164" lon="5.45212">
        <ele>477.3</ele>
        <time>2022-10-26T09:34:23.000Z</time>
      </trkpt>
      <trkpt lat="43.61641" lon="5.45209">
        <ele>477.4</ele>
        <time>2022-10-26T09:34:25.000Z</time>
      </trkpt>
      <trkpt lat="43.61642" lon="5.45207">
        <ele>477.4</ele>
        <time>2022-10-26T09:34:27.000Z</time>
      </trkpt>
      <trkpt lat="43.61644" lon="5.45205">
        <ele>477.4</ele>
        <time>2022-10-26T09:34:30.000Z</time>
      </trkpt>
      <trkpt lat="43.61645" lon="5.45202">
        <ele>477.5</ele>
        <time>2022-10-26T09:34:33.000Z</time>
      </trkpt>
      <trkpt lat="43.61647" lon="5.45198">
        <ele>477.6</ele>
        <time>2022-10-26T09:34:36.000Z</time>
      </trkpt>
      <trkpt lat="43.61648" lon="5.45196">
        <ele>477.6</ele>
        <time>2022-10-26T09:34:38.000Z</time>
      </trkpt>
      <trkpt lat="43.61649" lon="5.45194">
        <ele>477.6</ele>
        <time>2022-10-26T09:34:40.000Z</time>
      </trkpt>
      <trkpt lat="43.6165" lon="5.45192">
        <ele>477.6</ele>
        <time>2022-10-26T09:34:42.000Z</time>
      </trkpt>
      <trkpt lat="43.61651" lon="5.4519">
        <ele>477.6</ele>
        <time>2022-10-26T09:34:44.000Z</time>
      </trkpt>
      <trkpt lat="43.61652" lon="5.45187">
        <ele>477.5</ele>
        <time>2022-10-26T09:34:46.000Z</time>
      </trkpt>
      <trkpt lat="43.61654" lon="5.45184">
        <ele>477.5</ele>
        <time>2022-10-26T09:34:48.000Z</time>
      </trkpt>
      <trkpt lat="43.61655" lon="5.45181">
        <ele>477.4</ele>
        <time>2022-10-26T09:34:50.000Z</time>
      </trkpt>
      <trkpt lat="43.61657" lon="5.4518">
        <ele>477.3</ele>
        <time>2022-10-26T09:34:52.000Z</time>
      </trkpt>
      <trkpt lat="43.61659" lon="5.45179">
        <ele>477.3</ele>
        <time>2022-10-26T09:34:54.000Z</time>
      </trkpt>
      <trkpt lat="43.61661" lon="5.45179">
        <ele>477.2</ele>
        <time>2022-10-26T09:34:56.000Z</time>
      </trkpt>
      <trkpt lat="43.61663" lon="5.4518">
        <ele>477.1</ele>
        <time>2022-10-26T09:34:58.000Z</time>
      </trkpt>
      <trkpt lat="43.61665" lon="5.45182">
        <ele>477</ele>
        <time>2022-10-26T09:35:00.000Z</time>
      </trkpt>
      <trkpt lat="43.61667" lon="5.45183">
        <ele>477</ele>
        <time>2022-10-26T09:35:02.000Z</time>
      </trkpt>
      <trkpt lat="43.61669" lon="5.45184">
        <ele>476.9</ele>
        <time>2022-10-26T09:35:04.000Z</time>
      </trkpt>
      <trkpt lat="43.6167" lon="5.45187">
        <ele>476.8</ele>
        <time>2022-10-26T09:35:07.000Z</time>
      </trkpt>
      <trkpt lat="43.61671" lon="5.45189">
        <ele>476.7</ele>
        <time>2022-10-26T09:35:10.000Z</time>
      </trkpt>
      <trkpt lat="43.61674" lon="5.45189">
        <ele>476.6</ele>
        <time>2022-10-26T09:35:13.000Z</time>
      </trkpt>
      <trkpt lat="43.61676" lon="5.45189">
        <ele>476.5</ele>
        <time>2022-10-26T09:35:15.000Z</time>
      </trkpt>
      <trkpt lat="43.61678" lon="5.45191">
        <ele>476.3</ele>
        <time>2022-10-26T09:35:18.000Z</time>
      </trkpt>
      <trkpt lat="43.6168" lon="5.45192">
        <ele>476.1</ele>
        <time>2022-10-26T09:35:21.000Z</time>
      </trkpt>
      <trkpt lat="43.61683" lon="5.45195">
        <ele>475.8</ele>
        <time>2022-10-26T09:35:24.000Z</time>
      </trkpt>
      <trkpt lat="43.61685" lon="5.45196">
        <ele>475.5</ele>
        <time>2022-10-26T09:35:27.000Z</time>
      </trkpt>
      <trkpt lat="43.61687" lon="5.45197">
        <ele>475.3</ele>
        <time>2022-10-26T09:35:29.000Z</time>
      </trkpt>
      <trkpt lat="43.61689" lon="5.45197">
        <ele>475.1</ele>
        <time>2022-10-26T09:35:32.000Z</time>
      </trkpt>
      <trkpt lat="43.61691" lon="5.45196">
        <ele>475</ele>
        <time>2022-10-26T09:35:35.000Z</time>
      </trkpt>
      <trkpt lat="43.61693" lon="5.45194">
        <ele>475.2</ele>
        <time>2022-10-26T09:35:38.000Z</time>
      </trkpt>
      <trkpt lat="43.61694" lon="5.45192">
        <ele>475.2</ele>
        <time>2022-10-26T09:35:41.000Z</time>
      </trkpt>
      <trkpt lat="43.61695" lon="5.45189">
        <ele>475.3</ele>
        <time>2022-10-26T09:35:44.000Z</time>
      </trkpt>
      <trkpt lat="43.61696" lon="5.45187">
        <ele>475.4</ele>
        <time>2022-10-26T09:35:47.000Z</time>
      </trkpt>
      <trkpt lat="43.61698" lon="5.45184">
        <ele>475.4</ele>
        <time>2022-10-26T09:35:50.000Z</time>
      </trkpt>
      <trkpt lat="43.617" lon="5.45182">
        <ele>475.4</ele>
        <time>2022-10-26T09:35:52.000Z</time>
      </trkpt>
      <trkpt lat="43.61701" lon="5.4518">
        <ele>475.5</ele>
        <time>2022-10-26T09:35:55.000Z</time>
      </trkpt>
      <trkpt lat="43.61703" lon="5.45178">
        <ele>475.6</ele>
        <time>2022-10-26T09:35:58.000Z</time>
      </trkpt>
      <trkpt lat="43.61705" lon="5.45176">
        <ele>475.6</ele>
        <time>2022-10-26T09:36:01.000Z</time>
      </trkpt>
      <trkpt lat="43.61707" lon="5.45173">
        <ele>475.8</ele>
        <time>2022-10-26T09:36:04.000Z</time>
      </trkpt>
      <trkpt lat="43.61708" lon="5.45171">
        <ele>476</ele>
        <time>2022-10-26T09:36:06.000Z</time>
      </trkpt>
      <trkpt lat="43.6171" lon="5.45168">
        <ele>476.3</ele>
        <time>2022-10-26T09:36:08.000Z</time>
      </trkpt>
      <trkpt lat="43.61711" lon="5.45166">
        <ele>476.5</ele>
        <time>2022-10-26T09:36:10.000Z</time>
      </trkpt>
      <trkpt lat="43.61713" lon="5.45164">
        <ele>476.5</ele>
        <time>2022-10-26T09:36:13.000Z</time>
      </trkpt>
      <trkpt lat="43.61715" lon="5.45162">
        <ele>476.6</ele>
        <time>2022-10-26T09:36:16.000Z</time>
      </trkpt>
      <trkpt lat="43.61717" lon="5.45161">
        <ele>476.6</ele>
        <time>2022-10-26T09:36:18.000Z</time>
      </trkpt>
      <trkpt lat="43.61719" lon="5.45159">
        <ele>476.6</ele>
        <time>2022-10-26T09:36:21.000Z</time>
      </trkpt>
      <trkpt lat="43.61721" lon="5.45157">
        <ele>476.7</ele>
        <time>2022-10-26T09:36:24.000Z</time>
      </trkpt>
      <trkpt lat="43.61723" lon="5.45156">
        <ele>476.8</ele>
        <time>2022-10-26T09:36:26.000Z</time>
      </trkpt>
      <trkpt lat="43.61724" lon="5.45154">
        <ele>476.7</ele>
        <time>2022-10-26T09:36:28.000Z</time>
      </trkpt>
      <trkpt lat="43.61726" lon="5.45152">
        <ele>476.8</ele>
        <time>2022-10-26T09:36:31.000Z</time>
      </trkpt>
      <trkpt lat="43.61727" lon="5.45149">
        <ele>476.9</ele>
        <time>2022-10-26T09:36:33.000Z</time>
      </trkpt>
      <trkpt lat="43.61729" lon="5.45146">
        <ele>477.1</ele>
        <time>2022-10-26T09:36:35.000Z</time>
      </trkpt>
      <trkpt lat="43.61731" lon="5.45144">
        <ele>477.2</ele>
        <time>2022-10-26T09:36:37.000Z</time>
      </trkpt>
      <trkpt lat="43.61732" lon="5.45142">
        <ele>477.3</ele>
        <time>2022-10-26T09:36:40.000Z</time>
      </trkpt>
      <trkpt lat="43.61735" lon="5.4514">
        <ele>477.4</ele>
        <time>2022-10-26T09:36:43.000Z</time>
      </trkpt>
      <trkpt lat="43.61736" lon="5.45139">
        <ele>477.5</ele>
        <time>2022-10-26T09:36:45.000Z</time>
      </trkpt>
      <trkpt lat="43.61739" lon="5.45138">
        <ele>477.4</ele>
        <time>2022-10-26T09:36:47.000Z</time>
      </trkpt>
      <trkpt lat="43.61741" lon="5.45138">
        <ele>477.4</ele>
        <time>2022-10-26T09:36:49.000Z</time>
      </trkpt>
      <trkpt lat="43.61743" lon="5.45137">
        <ele>477.4</ele>
        <time>2022-10-26T09:36:51.000Z</time>
      </trkpt>
      <trkpt lat="43.61744" lon="5.45136">
        <ele>477.4</ele>
        <time>2022-10-26T09:36:53.000Z</time>
      </trkpt>
      <trkpt lat="43.61746" lon="5.45136">
        <ele>477.3</ele>
        <time>2022-10-26T09:36:55.000Z</time>
      </trkpt>
      <trkpt lat="43.61748" lon="5.45136">
        <ele>477.3</ele>
        <time>2022-10-26T09:36:57.000Z</time>
      </trkpt>
      <trkpt lat="43.6175" lon="5.45135">
        <ele>477.3</ele>
        <time>2022-10-26T09:36:59.000Z</time>
      </trkpt>
      <trkpt lat="43.61752" lon="5.45134">
        <ele>477.1</ele>
        <time>2022-10-26T09:37:01.000Z</time>
      </trkpt>
      <trkpt lat="43.61754" lon="5.45134">
        <ele>477</ele>
        <time>2022-10-26T09:37:03.000Z</time>
      </trkpt>
      <trkpt lat="43.61756" lon="5.45133">
        <ele>476.9</ele>
        <time>2022-10-26T09:37:05.000Z</time>
      </trkpt>
      <trkpt lat="43.61758" lon="5.45131">
        <ele>476.9</ele>
        <time>2022-10-26T09:37:07.000Z</time>
      </trkpt>
      <trkpt lat="43.6176" lon="5.45131">
        <ele>476.8</ele>
        <time>2022-10-26T09:37:09.000Z</time>
      </trkpt>
      <trkpt lat="43.61763" lon="5.45129">
        <ele>476.8</ele>
        <time>2022-10-26T09:37:11.000Z</time>
      </trkpt>
      <trkpt lat="43.61765" lon="5.45127">
        <ele>476.9</ele>
        <time>2022-10-26T09:37:13.000Z</time>
      </trkpt>
      <trkpt lat="43.61767" lon="5.45126">
        <ele>476.9</ele>
        <time>2022-10-26T09:37:15.000Z</time>
      </trkpt>
      <trkpt lat="43.61769" lon="5.45125">
        <ele>477</ele>
        <time>2022-10-26T09:37:17.000Z</time>
      </trkpt>
      <trkpt lat="43.6177" lon="5.45125">
        <ele>477</ele>
        <time>2022-10-26T09:37:19.000Z</time>
      </trkpt>
      <trkpt lat="43.61772" lon="5.45123">
        <ele>477.2</ele>
        <time>2022-10-26T09:37:21.000Z</time>
      </trkpt>
      <trkpt lat="43.61774" lon="5.45122">
        <ele>477.2</ele>
        <time>2022-10-26T09:37:23.000Z</time>
      </trkpt>
      <trkpt lat="43.61776" lon="5.4512">
        <ele>477.4</ele>
        <time>2022-10-26T09:37:25.000Z</time>
      </trkpt>
      <trkpt lat="43.61779" lon="5.45119">
        <ele>477.5</ele>
        <time>2022-10-26T09:37:27.000Z</time>
      </trkpt>
      <trkpt lat="43.61781" lon="5.45118">
        <ele>477.6</ele>
        <time>2022-10-26T09:37:29.000Z</time>
      </trkpt>
      <trkpt lat="43.61783" lon="5.45117">
        <ele>477.7</ele>
        <time>2022-10-26T09:37:32.000Z</time>
      </trkpt>
      <trkpt lat="43.61785" lon="5.45115">
        <ele>477.9</ele>
        <time>2022-10-26T09:37:35.000Z</time>
      </trkpt>
      <trkpt lat="43.61787" lon="5.45114">
        <ele>478.2</ele>
        <time>2022-10-26T09:37:38.000Z</time>
      </trkpt>
      <trkpt lat="43.61789" lon="5.45112">
        <ele>478.4</ele>
        <time>2022-10-26T09:37:41.000Z</time>
      </trkpt>
      <trkpt lat="43.61792" lon="5.45111">
        <ele>478.5</ele>
        <time>2022-10-26T09:37:44.000Z</time>
      </trkpt>
      <trkpt lat="43.61793" lon="5.4511">
        <ele>478.6</ele>
        <time>2022-10-26T09:37:46.000Z</time>
      </trkpt>
      <trkpt lat="43.61795" lon="5.45108">
        <ele>478.7</ele>
        <time>2022-10-26T09:37:48.000Z</time>
      </trkpt>
      <trkpt lat="43.61797" lon="5.45107">
        <ele>478.7</ele>
        <time>2022-10-26T09:37:50.000Z</time>
      </trkpt>
      <trkpt lat="43.61799" lon="5.45106">
        <ele>478.9</ele>
        <time>2022-10-26T09:37:52.000Z</time>
      </trkpt>
      <trkpt lat="43.61802" lon="5.45104">
        <ele>479.1</ele>
        <time>2022-10-26T09:37:54.000Z</time>
      </trkpt>
      <trkpt lat="43.61803" lon="5.45102">
        <ele>479.3</ele>
        <time>2022-10-26T09:37:56.000Z</time>
      </trkpt>
      <trkpt lat="43.61805" lon="5.451">
        <ele>479.5</ele>
        <time>2022-10-26T09:37:58.000Z</time>
      </trkpt>
      <trkpt lat="43.61808" lon="5.451">
        <ele>479.5</ele>
        <time>2022-10-26T09:38:01.000Z</time>
      </trkpt>
      <trkpt lat="43.6181" lon="5.451">
        <ele>479.3</ele>
        <time>2022-10-26T09:38:03.000Z</time>
      </trkpt>
      <trkpt lat="43.61812" lon="5.45099">
        <ele>479.3</ele>
        <time>2022-10-26T09:38:06.000Z</time>
      </trkpt>
      <trkpt lat="43.61814" lon="5.45098">
        <ele>479.3</ele>
        <time>2022-10-26T09:38:09.000Z</time>
      </trkpt>
      <trkpt lat="43.61816" lon="5.45097">
        <ele>479.3</ele>
        <time>2022-10-26T09:38:11.000Z</time>
      </trkpt>
      <trkpt lat="43.61817" lon="5.45096">
        <ele>479.3</ele>
        <time>2022-10-26T09:38:13.000Z</time>
      </trkpt>
      <trkpt lat="43.61819" lon="5.45096">
        <ele>479.3</ele>
        <time>2022-10-26T09:38:15.000Z</time>
      </trkpt>
      <trkpt lat="43.61821" lon="5.45095">
        <ele>479.4</ele>
        <time>2022-10-26T09:38:17.000Z</time>
      </trkpt>
      <trkpt lat="43.61823" lon="5.45094">
        <ele>479.4</ele>
        <time>2022-10-26T09:38:19.000Z</time>
      </trkpt>
      <trkpt lat="43.61825" lon="5.45093">
        <ele>479.4</ele>
        <time>2022-10-26T09:38:21.000Z</time>
      </trkpt>
      <trkpt lat="43.61826" lon="5.45091">
        <ele>479.7</ele>
        <time>2022-10-26T09:38:24.000Z</time>
      </trkpt>
      <trkpt lat="43.61828" lon="5.4509">
        <ele>479.8</ele>
        <time>2022-10-26T09:38:28.000Z</time>
      </trkpt>
      <trkpt lat="43.6183" lon="5.45089">
        <ele>479.9</ele>
        <time>2022-10-26T09:38:31.000Z</time>
      </trkpt>
      <trkpt lat="43.61832" lon="5.45089">
        <ele>479.8</ele>
        <time>2022-10-26T09:38:35.000Z</time>
      </trkpt>
      <trkpt lat="43.61835" lon="5.45087">
        <ele>480.1</ele>
        <time>2022-10-26T09:38:38.000Z</time>
      </trkpt>
      <trkpt lat="43.61837" lon="5.45086">
        <ele>480.2</ele>
        <time>2022-10-26T09:38:40.000Z</time>
      </trkpt>
      <trkpt lat="43.61838" lon="5.45086">
        <ele>480.3</ele>
        <time>2022-10-26T09:38:42.000Z</time>
      </trkpt>
      <trkpt lat="43.61841" lon="5.45084">
        <ele>480.6</ele>
        <time>2022-10-26T09:38:46.000Z</time>
      </trkpt>
      <trkpt lat="43.61843" lon="5.45083">
        <ele>480.7</ele>
        <time>2022-10-26T09:38:49.000Z</time>
      </trkpt>
      <trkpt lat="43.61845" lon="5.45082">
        <ele>480.7</ele>
        <time>2022-10-26T09:38:52.000Z</time>
      </trkpt>
      <trkpt lat="43.61847" lon="5.45081">
        <ele>480.8</ele>
        <time>2022-10-26T09:38:55.000Z</time>
      </trkpt>
      <trkpt lat="43.61849" lon="5.4508">
        <ele>480.8</ele>
        <time>2022-10-26T09:38:58.000Z</time>
      </trkpt>
      <trkpt lat="43.61851" lon="5.45079">
        <ele>480.9</ele>
        <time>2022-10-26T09:39:01.000Z</time>
      </trkpt>
      <trkpt lat="43.61853" lon="5.45078">
        <ele>481</ele>
        <time>2022-10-26T09:39:04.000Z</time>
      </trkpt>
      <trkpt lat="43.61855" lon="5.45076">
        <ele>481.1</ele>
        <time>2022-10-26T09:39:07.000Z</time>
      </trkpt>
      <trkpt lat="43.61858" lon="5.45075">
        <ele>481.3</ele>
        <time>2022-10-26T09:39:10.000Z</time>
      </trkpt>
      <trkpt lat="43.6186" lon="5.45074">
        <ele>481.4</ele>
        <time>2022-10-26T09:39:13.000Z</time>
      </trkpt>
      <trkpt lat="43.61863" lon="5.45072">
        <ele>481.5</ele>
        <time>2022-10-26T09:39:15.000Z</time>
      </trkpt>
      <trkpt lat="43.61866" lon="5.45071">
        <ele>481.7</ele>
        <time>2022-10-26T09:39:18.000Z</time>
      </trkpt>
      <trkpt lat="43.61868" lon="5.4507">
        <ele>481.8</ele>
        <time>2022-10-26T09:39:21.000Z</time>
      </trkpt>
      <trkpt lat="43.6187" lon="5.45069">
        <ele>481.9</ele>
        <time>2022-10-26T09:39:24.000Z</time>
      </trkpt>
      <trkpt lat="43.61873" lon="5.45068">
        <ele>482</ele>
        <time>2022-10-26T09:39:27.000Z</time>
      </trkpt>
      <trkpt lat="43.61875" lon="5.45067">
        <ele>482.2</ele>
        <time>2022-10-26T09:39:30.000Z</time>
      </trkpt>
      <trkpt lat="43.61877" lon="5.45066">
        <ele>482.3</ele>
        <time>2022-10-26T09:39:32.000Z</time>
      </trkpt>
      <trkpt lat="43.61879" lon="5.45065">
        <ele>482.4</ele>
        <time>2022-10-26T09:39:34.000Z</time>
      </trkpt>
      <trkpt lat="43.61881" lon="5.45064">
        <ele>482.6</ele>
        <time>2022-10-26T09:39:37.000Z</time>
      </trkpt>
      <trkpt lat="43.61883" lon="5.45062">
        <ele>482.9</ele>
        <time>2022-10-26T09:39:40.000Z</time>
      </trkpt>
      <trkpt lat="43.61885" lon="5.45061">
        <ele>483.1</ele>
        <time>2022-10-26T09:39:42.000Z</time>
      </trkpt>
      <trkpt lat="43.61887" lon="5.45059">
        <ele>483.4</ele>
        <time>2022-10-26T09:39:45.000Z</time>
      </trkpt>
      <trkpt lat="43.61888" lon="5.45058">
        <ele>483.5</ele>
        <time>2022-10-26T09:39:47.000Z</time>
      </trkpt>
      <trkpt lat="43.61891" lon="5.45056">
        <ele>484</ele>
        <time>2022-10-26T09:39:50.000Z</time>
      </trkpt>
      <trkpt lat="43.61892" lon="5.45055">
        <ele>484.2</ele>
        <time>2022-10-26T09:39:52.000Z</time>
      </trkpt>
      <trkpt lat="43.61895" lon="5.45054">
        <ele>484.3</ele>
        <time>2022-10-26T09:39:55.000Z</time>
      </trkpt>
      <trkpt lat="43.61896" lon="5.45052">
        <ele>484.5</ele>
        <time>2022-10-26T09:39:57.000Z</time>
      </trkpt>
      <trkpt lat="43.61898" lon="5.45051">
        <ele>484.7</ele>
        <time>2022-10-26T09:39:59.000Z</time>
      </trkpt>
      <trkpt lat="43.61901" lon="5.4505">
        <ele>484.8</ele>
        <time>2022-10-26T09:40:02.000Z</time>
      </trkpt>
      <trkpt lat="43.61903" lon="5.45049">
        <ele>485</ele>
        <time>2022-10-26T09:40:05.000Z</time>
      </trkpt>
      <trkpt lat="43.61905" lon="5.45047">
        <ele>485.2</ele>
        <time>2022-10-26T09:40:08.000Z</time>
      </trkpt>
      <trkpt lat="43.61907" lon="5.45045">
        <ele>485.4</ele>
        <time>2022-10-26T09:40:10.000Z</time>
      </trkpt>
      <trkpt lat="43.61909" lon="5.45044">
        <ele>485.6</ele>
        <time>2022-10-26T09:40:13.000Z</time>
      </trkpt>
      <trkpt lat="43.61912" lon="5.45042">
        <ele>485.8</ele>
        <time>2022-10-26T09:40:16.000Z</time>
      </trkpt>
      <trkpt lat="43.61914" lon="5.45041">
        <ele>485.9</ele>
        <time>2022-10-26T09:40:19.000Z</time>
      </trkpt>
      <trkpt lat="43.61916" lon="5.4504">
        <ele>486.1</ele>
        <time>2022-10-26T09:40:21.000Z</time>
      </trkpt>
      <trkpt lat="43.61918" lon="5.45038">
        <ele>486.2</ele>
        <time>2022-10-26T09:40:24.000Z</time>
      </trkpt>
      <trkpt lat="43.6192" lon="5.45037">
        <ele>486.3</ele>
        <time>2022-10-26T09:40:27.000Z</time>
      </trkpt>
      <trkpt lat="43.61922" lon="5.45036">
        <ele>486.4</ele>
        <time>2022-10-26T09:40:29.000Z</time>
      </trkpt>
      <trkpt lat="43.61924" lon="5.45035">
        <ele>486.5</ele>
        <time>2022-10-26T09:40:32.000Z</time>
      </trkpt>
      <trkpt lat="43.61926" lon="5.45034">
        <ele>486.6</ele>
        <time>2022-10-26T09:40:35.000Z</time>
      </trkpt>
      <trkpt lat="43.61928" lon="5.45033">
        <ele>486.8</ele>
        <time>2022-10-26T09:40:38.000Z</time>
      </trkpt>
      <trkpt lat="43.6193" lon="5.45031">
        <ele>487.1</ele>
        <time>2022-10-26T09:40:41.000Z</time>
      </trkpt>
      <trkpt lat="43.61933" lon="5.45031">
        <ele>487.1</ele>
        <time>2022-10-26T09:40:43.000Z</time>
      </trkpt>
      <trkpt lat="43.61935" lon="5.45031">
        <ele>487.2</ele>
        <time>2022-10-26T09:40:45.000Z</time>
      </trkpt>
      <trkpt lat="43.61937" lon="5.4503">
        <ele>487.4</ele>
        <time>2022-10-26T09:40:47.000Z</time>
      </trkpt>
      <trkpt lat="43.61939" lon="5.45028">
        <ele>487.8</ele>
        <time>2022-10-26T09:40:50.000Z</time>
      </trkpt>
      <trkpt lat="43.61939" lon="5.45025">
        <ele>488</ele>
        <time>2022-10-26T09:40:52.000Z</time>
      </trkpt>
      <trkpt lat="43.61939" lon="5.45022">
        <ele>488.2</ele>
        <time>2022-10-26T09:40:55.000Z</time>
      </trkpt>
      <trkpt lat="43.61939" lon="5.45019">
        <ele>488.4</ele>
        <time>2022-10-26T09:40:57.000Z</time>
      </trkpt>
      <trkpt lat="43.6194" lon="5.45017">
        <ele>488.6</ele>
        <time>2022-10-26T09:40:59.000Z</time>
      </trkpt>
      <trkpt lat="43.61942" lon="5.45015">
        <ele>488.8</ele>
        <time>2022-10-26T09:41:01.000Z</time>
      </trkpt>
      <trkpt lat="43.61944" lon="5.45016">
        <ele>488.9</ele>
        <time>2022-10-26T09:41:04.000Z</time>
      </trkpt>
      <trkpt lat="43.61946" lon="5.45016">
        <ele>488.8</ele>
        <time>2022-10-26T09:41:07.000Z</time>
      </trkpt>
      <trkpt lat="43.61949" lon="5.45016">
        <ele>488.7</ele>
        <time>2022-10-26T09:41:10.000Z</time>
      </trkpt>
      <trkpt lat="43.61951" lon="5.45016">
        <ele>488.7</ele>
        <time>2022-10-26T09:41:13.000Z</time>
      </trkpt>
      <trkpt lat="43.61953" lon="5.45015">
        <ele>488.8</ele>
        <time>2022-10-26T09:41:16.000Z</time>
      </trkpt>
      <trkpt lat="43.61955" lon="5.45014">
        <ele>488.8</ele>
        <time>2022-10-26T09:41:19.000Z</time>
      </trkpt>
      <trkpt lat="43.61956" lon="5.45012">
        <ele>488.9</ele>
        <time>2022-10-26T09:41:21.000Z</time>
      </trkpt>
      <trkpt lat="43.61959" lon="5.45011">
        <ele>489</ele>
        <time>2022-10-26T09:41:23.000Z</time>
      </trkpt>
      <trkpt lat="43.6196" lon="5.4501">
        <ele>489</ele>
        <time>2022-10-26T09:41:25.000Z</time>
      </trkpt>
      <trkpt lat="43.61963" lon="5.4501">
        <ele>489.1</ele>
        <time>2022-10-26T09:41:28.000Z</time>
      </trkpt>
      <trkpt lat="43.61965" lon="5.4501">
        <ele>489</ele>
        <time>2022-10-26T09:41:31.000Z</time>
      </trkpt>
      <trkpt lat="43.61966" lon="5.45008">
        <ele>489.2</ele>
        <time>2022-10-26T09:41:33.000Z</time>
      </trkpt>
      <trkpt lat="43.61968" lon="5.45007">
        <ele>489.3</ele>
        <time>2022-10-26T09:41:35.000Z</time>
      </trkpt>
      <trkpt lat="43.6197" lon="5.45005">
        <ele>489.5</ele>
        <time>2022-10-26T09:41:37.000Z</time>
      </trkpt>
      <trkpt lat="43.61972" lon="5.45004">
        <ele>489.6</ele>
        <time>2022-10-26T09:41:39.000Z</time>
      </trkpt>
      <trkpt lat="43.61975" lon="5.45002">
        <ele>489.7</ele>
        <time>2022-10-26T09:41:42.000Z</time>
      </trkpt>
      <trkpt lat="43.61977" lon="5.45">
        <ele>489.8</ele>
        <time>2022-10-26T09:41:44.000Z</time>
      </trkpt>
      <trkpt lat="43.61979" lon="5.44998">
        <ele>489.8</ele>
        <time>2022-10-26T09:41:47.000Z</time>
      </trkpt>
      <trkpt lat="43.61981" lon="5.44998">
        <ele>489.8</ele>
        <time>2022-10-26T09:41:49.000Z</time>
      </trkpt>
      <trkpt lat="43.61983" lon="5.44997">
        <ele>489.8</ele>
        <time>2022-10-26T09:41:51.000Z</time>
      </trkpt>
      <trkpt lat="43.61985" lon="5.44996">
        <ele>489.7</ele>
        <time>2022-10-26T09:41:54.000Z</time>
      </trkpt>
      <trkpt lat="43.61987" lon="5.44994">
        <ele>489.8</ele>
        <time>2022-10-26T09:41:57.000Z</time>
      </trkpt>
      <trkpt lat="43.6199" lon="5.44993">
        <ele>489.8</ele>
        <time>2022-10-26T09:42:00.000Z</time>
      </trkpt>
      <trkpt lat="43.61992" lon="5.44992">
        <ele>489.8</ele>
        <time>2022-10-26T09:42:03.000Z</time>
      </trkpt>
      <trkpt lat="43.61994" lon="5.4499">
        <ele>489.9</ele>
        <time>2022-10-26T09:42:05.000Z</time>
      </trkpt>
      <trkpt lat="43.61996" lon="5.44989">
        <ele>489.9</ele>
        <time>2022-10-26T09:42:07.000Z</time>
      </trkpt>
      <trkpt lat="43.61998" lon="5.44987">
        <ele>490</ele>
        <time>2022-10-26T09:42:09.000Z</time>
      </trkpt>
      <trkpt lat="43.62" lon="5.44986">
        <ele>490</ele>
        <time>2022-10-26T09:42:11.000Z</time>
      </trkpt>
      <trkpt lat="43.62002" lon="5.44984">
        <ele>490.1</ele>
        <time>2022-10-26T09:42:13.000Z</time>
      </trkpt>
      <trkpt lat="43.62004" lon="5.44982">
        <ele>490.3</ele>
        <time>2022-10-26T09:42:15.000Z</time>
      </trkpt>
      <trkpt lat="43.62006" lon="5.44981">
        <ele>490.4</ele>
        <time>2022-10-26T09:42:17.000Z</time>
      </trkpt>
      <trkpt lat="43.62008" lon="5.44979">
        <ele>490.6</ele>
        <time>2022-10-26T09:42:20.000Z</time>
      </trkpt>
      <trkpt lat="43.6201" lon="5.44977">
        <ele>490.8</ele>
        <time>2022-10-26T09:42:23.000Z</time>
      </trkpt>
      <trkpt lat="43.62012" lon="5.44976">
        <ele>491</ele>
        <time>2022-10-26T09:42:25.000Z</time>
      </trkpt>
      <trkpt lat="43.62014" lon="5.44975">
        <ele>491.2</ele>
        <time>2022-10-26T09:42:27.000Z</time>
      </trkpt>
      <trkpt lat="43.62016" lon="5.44973">
        <ele>491.4</ele>
        <time>2022-10-26T09:42:29.000Z</time>
      </trkpt>
      <trkpt lat="43.62018" lon="5.44972">
        <ele>491.6</ele>
        <time>2022-10-26T09:42:31.000Z</time>
      </trkpt>
      <trkpt lat="43.6202" lon="5.44971">
        <ele>491.7</ele>
        <time>2022-10-26T09:42:33.000Z</time>
      </trkpt>
      <trkpt lat="43.62022" lon="5.44969">
        <ele>491.8</ele>
        <time>2022-10-26T09:42:35.000Z</time>
      </trkpt>
      <trkpt lat="43.62024" lon="5.44968">
        <ele>491.9</ele>
        <time>2022-10-26T09:42:38.000Z</time>
      </trkpt>
      <trkpt lat="43.62026" lon="5.44967">
        <ele>491.9</ele>
        <time>2022-10-26T09:42:40.000Z</time>
      </trkpt>
      <trkpt lat="43.62028" lon="5.44965">
        <ele>492</ele>
        <time>2022-10-26T09:42:42.000Z</time>
      </trkpt>
      <trkpt lat="43.6203" lon="5.44963">
        <ele>491.9</ele>
        <time>2022-10-26T09:42:44.000Z</time>
      </trkpt>
      <trkpt lat="43.62032" lon="5.44962">
        <ele>491.8</ele>
        <time>2022-10-26T09:42:47.000Z</time>
      </trkpt>
      <trkpt lat="43.62035" lon="5.4496">
        <ele>491.7</ele>
        <time>2022-10-26T09:42:50.000Z</time>
      </trkpt>
      <trkpt lat="43.62036" lon="5.44958">
        <ele>491.7</ele>
        <time>2022-10-26T09:42:52.000Z</time>
      </trkpt>
      <trkpt lat="43.62038" lon="5.44956">
        <ele>491.7</ele>
        <time>2022-10-26T09:42:54.000Z</time>
      </trkpt>
      <trkpt lat="43.62041" lon="5.44955">
        <ele>491.7</ele>
        <time>2022-10-26T09:42:57.000Z</time>
      </trkpt>
      <trkpt lat="43.62042" lon="5.44954">
        <ele>491.7</ele>
        <time>2022-10-26T09:42:59.000Z</time>
      </trkpt>
      <trkpt lat="43.62044" lon="5.44953">
        <ele>491.7</ele>
        <time>2022-10-26T09:43:01.000Z</time>
      </trkpt>
      <trkpt lat="43.62046" lon="5.44952">
        <ele>491.7</ele>
        <time>2022-10-26T09:43:03.000Z</time>
      </trkpt>
      <trkpt lat="43.62048" lon="5.44949">
        <ele>491.7</ele>
        <time>2022-10-26T09:43:05.000Z</time>
      </trkpt>
      <trkpt lat="43.62049" lon="5.44947">
        <ele>491.8</ele>
        <time>2022-10-26T09:43:07.000Z</time>
      </trkpt>
      <trkpt lat="43.62051" lon="5.44946">
        <ele>491.9</ele>
        <time>2022-10-26T09:43:10.000Z</time>
      </trkpt>
      <trkpt lat="43.62054" lon="5.44944">
        <ele>492</ele>
        <time>2022-10-26T09:43:13.000Z</time>
      </trkpt>
      <trkpt lat="43.62055" lon="5.44943">
        <ele>492</ele>
        <time>2022-10-26T09:43:15.000Z</time>
      </trkpt>
      <trkpt lat="43.62058" lon="5.44942">
        <ele>492</ele>
        <time>2022-10-26T09:43:18.000Z</time>
      </trkpt>
      <trkpt lat="43.6206" lon="5.44941">
        <ele>492</ele>
        <time>2022-10-26T09:43:20.000Z</time>
      </trkpt>
      <trkpt lat="43.62062" lon="5.44939">
        <ele>492</ele>
        <time>2022-10-26T09:43:23.000Z</time>
      </trkpt>
      <trkpt lat="43.62064" lon="5.44938">
        <ele>492</ele>
        <time>2022-10-26T09:43:26.000Z</time>
      </trkpt>
      <trkpt lat="43.62067" lon="5.44937">
        <ele>492</ele>
        <time>2022-10-26T09:43:29.000Z</time>
      </trkpt>
      <trkpt lat="43.62068" lon="5.44936">
        <ele>492</ele>
        <time>2022-10-26T09:43:31.000Z</time>
      </trkpt>
      <trkpt lat="43.6207" lon="5.44935">
        <ele>492</ele>
        <time>2022-10-26T09:43:33.000Z</time>
      </trkpt>
      <trkpt lat="43.62072" lon="5.44934">
        <ele>492</ele>
        <time>2022-10-26T09:43:35.000Z</time>
      </trkpt>
      <trkpt lat="43.62074" lon="5.44933">
        <ele>492</ele>
        <time>2022-10-26T09:43:37.000Z</time>
      </trkpt>
      <trkpt lat="43.62076" lon="5.44931">
        <ele>492</ele>
        <time>2022-10-26T09:43:40.000Z</time>
      </trkpt>
      <trkpt lat="43.62078" lon="5.44929">
        <ele>492</ele>
        <time>2022-10-26T09:43:43.000Z</time>
      </trkpt>
      <trkpt lat="43.6208" lon="5.44927">
        <ele>492</ele>
        <time>2022-10-26T09:43:46.000Z</time>
      </trkpt>
      <trkpt lat="43.62082" lon="5.44925">
        <ele>492</ele>
        <time>2022-10-26T09:43:49.000Z</time>
      </trkpt>
      <trkpt lat="43.62084" lon="5.44923">
        <ele>492</ele>
        <time>2022-10-26T09:43:52.000Z</time>
      </trkpt>
      <trkpt lat="43.62086" lon="5.44922">
        <ele>491.9</ele>
        <time>2022-10-26T09:43:54.000Z</time>
      </trkpt>
      <trkpt lat="43.62088" lon="5.4492">
        <ele>491.8</ele>
        <time>2022-10-26T09:43:57.000Z</time>
      </trkpt>
      <trkpt lat="43.6209" lon="5.44919">
        <ele>491.7</ele>
        <time>2022-10-26T09:43:59.000Z</time>
      </trkpt>
      <trkpt lat="43.62092" lon="5.44917">
        <ele>491.7</ele>
        <time>2022-10-26T09:44:01.000Z</time>
      </trkpt>
      <trkpt lat="43.62094" lon="5.44915">
        <ele>491.6</ele>
        <time>2022-10-26T09:44:03.000Z</time>
      </trkpt>
      <trkpt lat="43.62096" lon="5.44914">
        <ele>491.5</ele>
        <time>2022-10-26T09:44:05.000Z</time>
      </trkpt>
      <trkpt lat="43.62098" lon="5.44912">
        <ele>491.5</ele>
        <time>2022-10-26T09:44:07.000Z</time>
      </trkpt>
      <trkpt lat="43.621" lon="5.44911">
        <ele>491.4</ele>
        <time>2022-10-26T09:44:09.000Z</time>
      </trkpt>
      <trkpt lat="43.62102" lon="5.44911">
        <ele>491.3</ele>
        <time>2022-10-26T09:44:11.000Z</time>
      </trkpt>
      <trkpt lat="43.62104" lon="5.44911">
        <ele>491.3</ele>
        <time>2022-10-26T09:44:13.000Z</time>
      </trkpt>
      <trkpt lat="43.62106" lon="5.4491">
        <ele>491.2</ele>
        <time>2022-10-26T09:44:15.000Z</time>
      </trkpt>
      <trkpt lat="43.62108" lon="5.44909">
        <ele>491.1</ele>
        <time>2022-10-26T09:44:17.000Z</time>
      </trkpt>
      <trkpt lat="43.62111" lon="5.44908">
        <ele>491</ele>
        <time>2022-10-26T09:44:19.000Z</time>
      </trkpt>
      <trkpt lat="43.62113" lon="5.44908">
        <ele>490.9</ele>
        <time>2022-10-26T09:44:21.000Z</time>
      </trkpt>
      <trkpt lat="43.62115" lon="5.44907">
        <ele>490.9</ele>
        <time>2022-10-26T09:44:23.000Z</time>
      </trkpt>
      <trkpt lat="43.62117" lon="5.44907">
        <ele>490.8</ele>
        <time>2022-10-26T09:44:25.000Z</time>
      </trkpt>
      <trkpt lat="43.62119" lon="5.44906">
        <ele>490.7</ele>
        <time>2022-10-26T09:44:28.000Z</time>
      </trkpt>
      <trkpt lat="43.62122" lon="5.44905">
        <ele>490.6</ele>
        <time>2022-10-26T09:44:31.000Z</time>
      </trkpt>
      <trkpt lat="43.62124" lon="5.44904">
        <ele>490.5</ele>
        <time>2022-10-26T09:44:34.000Z</time>
      </trkpt>
      <trkpt lat="43.62126" lon="5.44903">
        <ele>490.5</ele>
        <time>2022-10-26T09:44:36.000Z</time>
      </trkpt>
      <trkpt lat="43.62129" lon="5.44902">
        <ele>490.4</ele>
        <time>2022-10-26T09:44:40.000Z</time>
      </trkpt>
      <trkpt lat="43.62132" lon="5.44901">
        <ele>490.3</ele>
        <time>2022-10-26T09:44:43.000Z</time>
      </trkpt>
      <trkpt lat="43.62134" lon="5.449">
        <ele>490.2</ele>
        <time>2022-10-26T09:44:46.000Z</time>
      </trkpt>
      <trkpt lat="43.62136" lon="5.44899">
        <ele>490.1</ele>
        <time>2022-10-26T09:44:48.000Z</time>
      </trkpt>
      <trkpt lat="43.62138" lon="5.44897">
        <ele>490</ele>
        <time>2022-10-26T09:44:51.000Z</time>
      </trkpt>
      <trkpt lat="43.6214" lon="5.44896">
        <ele>490</ele>
        <time>2022-10-26T09:44:53.000Z</time>
      </trkpt>
      <trkpt lat="43.62142" lon="5.44895">
        <ele>489.9</ele>
        <time>2022-10-26T09:44:55.000Z</time>
      </trkpt>
      <trkpt lat="43.62144" lon="5.44894">
        <ele>489.8</ele>
        <time>2022-10-26T09:44:58.000Z</time>
      </trkpt>
      <trkpt lat="43.62146" lon="5.44892">
        <ele>489.8</ele>
        <time>2022-10-26T09:45:01.000Z</time>
      </trkpt>
      <trkpt lat="43.62148" lon="5.44891">
        <ele>489.7</ele>
        <time>2022-10-26T09:45:04.000Z</time>
      </trkpt>
      <trkpt lat="43.62151" lon="5.44889">
        <ele>489.6</ele>
        <time>2022-10-26T09:45:07.000Z</time>
      </trkpt>
      <trkpt lat="43.62153" lon="5.44888">
        <ele>489.5</ele>
        <time>2022-10-26T09:45:10.000Z</time>
      </trkpt>
      <trkpt lat="43.62155" lon="5.44887">
        <ele>489.4</ele>
        <time>2022-10-26T09:45:12.000Z</time>
      </trkpt>
      <trkpt lat="43.62157" lon="5.44885">
        <ele>489.4</ele>
        <time>2022-10-26T09:45:14.000Z</time>
      </trkpt>
      <trkpt lat="43.62158" lon="5.44883">
        <ele>489.3</ele>
        <time>2022-10-26T09:45:16.000Z</time>
      </trkpt>
      <trkpt lat="43.6216" lon="5.44882">
        <ele>489.2</ele>
        <time>2022-10-26T09:45:18.000Z</time>
      </trkpt>
      <trkpt lat="43.62162" lon="5.44881">
        <ele>489.2</ele>
        <time>2022-10-26T09:45:20.000Z</time>
      </trkpt>
      <trkpt lat="43.62164" lon="5.44879">
        <ele>489.1</ele>
        <time>2022-10-26T09:45:22.000Z</time>
      </trkpt>
      <trkpt lat="43.62165" lon="5.44878">
        <ele>489</ele>
        <time>2022-10-26T09:45:24.000Z</time>
      </trkpt>
      <trkpt lat="43.62167" lon="5.44878">
        <ele>489</ele>
        <time>2022-10-26T09:45:26.000Z</time>
      </trkpt>
      <trkpt lat="43.62169" lon="5.44879">
        <ele>488.9</ele>
        <time>2022-10-26T09:45:28.000Z</time>
      </trkpt>
      <trkpt lat="43.62171" lon="5.44881">
        <ele>488.9</ele>
        <time>2022-10-26T09:45:30.000Z</time>
      </trkpt>
      <trkpt lat="43.62173" lon="5.44881">
        <ele>488.8</ele>
        <time>2022-10-26T09:45:32.000Z</time>
      </trkpt>
      <trkpt lat="43.62175" lon="5.44882">
        <ele>488.7</ele>
        <time>2022-10-26T09:45:35.000Z</time>
      </trkpt>
      <trkpt lat="43.62176" lon="5.44885">
        <ele>488.7</ele>
        <time>2022-10-26T09:45:37.000Z</time>
      </trkpt>
      <trkpt lat="43.62177" lon="5.44882">
        <ele>488.6</ele>
        <time>2022-10-26T09:45:38.000Z</time>
      </trkpt>
      <trkpt lat="43.62179" lon="5.44884">
        <ele>488.5</ele>
        <time>2022-10-26T09:45:40.000Z</time>
      </trkpt>
      <trkpt lat="43.6218" lon="5.44887">
        <ele>488.5</ele>
        <time>2022-10-26T09:45:42.000Z</time>
      </trkpt>
      <trkpt lat="43.62181" lon="5.4489">
        <ele>488.5</ele>
        <time>2022-10-26T09:45:44.000Z</time>
      </trkpt>
      <trkpt lat="43.62182" lon="5.44893">
        <ele>488.5</ele>
        <time>2022-10-26T09:45:46.000Z</time>
      </trkpt>
      <trkpt lat="43.62182" lon="5.44897">
        <ele>488.5</ele>
        <time>2022-10-26T09:45:48.000Z</time>
      </trkpt>
      <trkpt lat="43.62183" lon="5.449">
        <ele>488.4</ele>
        <time>2022-10-26T09:45:50.000Z</time>
      </trkpt>
      <trkpt lat="43.62183" lon="5.44902">
        <ele>488.4</ele>
        <time>2022-10-26T09:45:52.000Z</time>
      </trkpt>
      <trkpt lat="43.62184" lon="5.44905">
        <ele>488.4</ele>
        <time>2022-10-26T09:45:54.000Z</time>
      </trkpt>
      <trkpt lat="43.62185" lon="5.44906">
        <ele>488.3</ele>
        <time>2022-10-26T09:45:55.000Z</time>
      </trkpt>
      <trkpt lat="43.62188" lon="5.44908">
        <ele>488.2</ele>
        <time>2022-10-26T09:45:57.000Z</time>
      </trkpt>
      <trkpt lat="43.6219" lon="5.44909">
        <ele>488.2</ele>
        <time>2022-10-26T09:45:59.000Z</time>
      </trkpt>
      <trkpt lat="43.62192" lon="5.4491">
        <ele>488.1</ele>
        <time>2022-10-26T09:46:01.000Z</time>
      </trkpt>
      <trkpt lat="43.62194" lon="5.4491">
        <ele>488</ele>
        <time>2022-10-26T09:46:03.000Z</time>
      </trkpt>
      <trkpt lat="43.62197" lon="5.44911">
        <ele>487.8</ele>
        <time>2022-10-26T09:46:06.000Z</time>
      </trkpt>
      <trkpt lat="43.62198" lon="5.44912">
        <ele>487.6</ele>
        <time>2022-10-26T09:46:08.000Z</time>
      </trkpt>
      <trkpt lat="43.62201" lon="5.44912">
        <ele>487.3</ele>
        <time>2022-10-26T09:46:11.000Z</time>
      </trkpt>
      <trkpt lat="43.62204" lon="5.44914">
        <ele>487.1</ele>
        <time>2022-10-26T09:46:14.000Z</time>
      </trkpt>
      <trkpt lat="43.62206" lon="5.44915">
        <ele>486.8</ele>
        <time>2022-10-26T09:46:17.000Z</time>
      </trkpt>
      <trkpt lat="43.62208" lon="5.44916">
        <ele>486.6</ele>
        <time>2022-10-26T09:46:19.000Z</time>
      </trkpt>
      <trkpt lat="43.6221" lon="5.44916">
        <ele>486.4</ele>
        <time>2022-10-26T09:46:21.000Z</time>
      </trkpt>
      <trkpt lat="43.62212" lon="5.44917">
        <ele>486</ele>
        <time>2022-10-26T09:46:24.000Z</time>
      </trkpt>
      <trkpt lat="43.62214" lon="5.44918">
        <ele>485.7</ele>
        <time>2022-10-26T09:46:26.000Z</time>
      </trkpt>
      <trkpt lat="43.62216" lon="5.44919">
        <ele>485.2</ele>
        <time>2022-10-26T09:46:28.000Z</time>
      </trkpt>
      <trkpt lat="43.62218" lon="5.4492">
        <ele>484.9</ele>
        <time>2022-10-26T09:46:31.000Z</time>
      </trkpt>
      <trkpt lat="43.6222" lon="5.4492">
        <ele>484.7</ele>
        <time>2022-10-26T09:46:34.000Z</time>
      </trkpt>
      <trkpt lat="43.62223" lon="5.4492">
        <ele>484.5</ele>
        <time>2022-10-26T09:46:37.000Z</time>
      </trkpt>
      <trkpt lat="43.62225" lon="5.44921">
        <ele>484.2</ele>
        <time>2022-10-26T09:46:40.000Z</time>
      </trkpt>
      <trkpt lat="43.62228" lon="5.4492">
        <ele>484.1</ele>
        <time>2022-10-26T09:46:43.000Z</time>
      </trkpt>
      <trkpt lat="43.6223" lon="5.4492">
        <ele>484</ele>
        <time>2022-10-26T09:46:46.000Z</time>
      </trkpt>
      <trkpt lat="43.62233" lon="5.44921">
        <ele>483.8</ele>
        <time>2022-10-26T09:46:49.000Z</time>
      </trkpt>
      <trkpt lat="43.62235" lon="5.44921">
        <ele>483.7</ele>
        <time>2022-10-26T09:46:52.000Z</time>
      </trkpt>
      <trkpt lat="43.62238" lon="5.44921">
        <ele>483.6</ele>
        <time>2022-10-26T09:46:55.000Z</time>
      </trkpt>
      <trkpt lat="43.6224" lon="5.4492">
        <ele>483.7</ele>
        <time>2022-10-26T09:46:58.000Z</time>
      </trkpt>
      <trkpt lat="43.62242" lon="5.44919">
        <ele>483.7</ele>
        <time>2022-10-26T09:47:00.000Z</time>
      </trkpt>
      <trkpt lat="43.62244" lon="5.44919">
        <ele>483.8</ele>
        <time>2022-10-26T09:47:02.000Z</time>
      </trkpt>
      <trkpt lat="43.62246" lon="5.44917">
        <ele>484</ele>
        <time>2022-10-26T09:47:05.000Z</time>
      </trkpt>
      <trkpt lat="43.62249" lon="5.44917">
        <ele>484</ele>
        <time>2022-10-26T09:47:08.000Z</time>
      </trkpt>
      <trkpt lat="43.62251" lon="5.44917">
        <ele>483.9</ele>
        <time>2022-10-26T09:47:10.000Z</time>
      </trkpt>
      <trkpt lat="43.62253" lon="5.44917">
        <ele>483.8</ele>
        <time>2022-10-26T09:47:13.000Z</time>
      </trkpt>
      <trkpt lat="43.62256" lon="5.44917">
        <ele>483.6</ele>
        <time>2022-10-26T09:47:16.000Z</time>
      </trkpt>
      <trkpt lat="43.62258" lon="5.44916">
        <ele>483.4</ele>
        <time>2022-10-26T09:47:18.000Z</time>
      </trkpt>
      <trkpt lat="43.6226" lon="5.44916">
        <ele>483.3</ele>
        <time>2022-10-26T09:47:20.000Z</time>
      </trkpt>
      <trkpt lat="43.62262" lon="5.44916">
        <ele>483.2</ele>
        <time>2022-10-26T09:47:23.000Z</time>
      </trkpt>
      <trkpt lat="43.62264" lon="5.44915">
        <ele>483</ele>
        <time>2022-10-26T09:47:25.000Z</time>
      </trkpt>
      <trkpt lat="43.62266" lon="5.44915">
        <ele>482.9</ele>
        <time>2022-10-26T09:47:27.000Z</time>
      </trkpt>
      <trkpt lat="43.62268" lon="5.44914">
        <ele>482.8</ele>
        <time>2022-10-26T09:47:29.000Z</time>
      </trkpt>
      <trkpt lat="43.6227" lon="5.44913">
        <ele>482.7</ele>
        <time>2022-10-26T09:47:32.000Z</time>
      </trkpt>
      <trkpt lat="43.62272" lon="5.44912">
        <ele>482.6</ele>
        <time>2022-10-26T09:47:34.000Z</time>
      </trkpt>
      <trkpt lat="43.62274" lon="5.44912">
        <ele>482.4</ele>
        <time>2022-10-26T09:47:36.000Z</time>
      </trkpt>
      <trkpt lat="43.62276" lon="5.44911">
        <ele>482.4</ele>
        <time>2022-10-26T09:47:38.000Z</time>
      </trkpt>
      <trkpt lat="43.62278" lon="5.4491">
        <ele>482.2</ele>
        <time>2022-10-26T09:47:40.000Z</time>
      </trkpt>
      <trkpt lat="43.6228" lon="5.4491">
        <ele>482</ele>
        <time>2022-10-26T09:47:42.000Z</time>
      </trkpt>
      <trkpt lat="43.62282" lon="5.44909">
        <ele>481.8</ele>
        <time>2022-10-26T09:47:44.000Z</time>
      </trkpt>
      <trkpt lat="43.62284" lon="5.44908">
        <ele>481.7</ele>
        <time>2022-10-26T09:47:46.000Z</time>
      </trkpt>
      <trkpt lat="43.62285" lon="5.44907">
        <ele>481.5</ele>
        <time>2022-10-26T09:47:48.000Z</time>
      </trkpt>
      <trkpt lat="43.62287" lon="5.44907">
        <ele>481.4</ele>
        <time>2022-10-26T09:47:50.000Z</time>
      </trkpt>
      <trkpt lat="43.62289" lon="5.44906">
        <ele>481.2</ele>
        <time>2022-10-26T09:47:52.000Z</time>
      </trkpt>
      <trkpt lat="43.62291" lon="5.44906">
        <ele>481</ele>
        <time>2022-10-26T09:47:54.000Z</time>
      </trkpt>
      <trkpt lat="43.62293" lon="5.44906">
        <ele>480.8</ele>
        <time>2022-10-26T09:47:56.000Z</time>
      </trkpt>
      <trkpt lat="43.62296" lon="5.44906">
        <ele>480.5</ele>
        <time>2022-10-26T09:47:58.000Z</time>
      </trkpt>
      <trkpt lat="43.62298" lon="5.44908">
        <ele>480.1</ele>
        <time>2022-10-26T09:47:59.000Z</time>
      </trkpt>
      <trkpt lat="43.62299" lon="5.44912">
        <ele>479.6</ele>
        <time>2022-10-26T09:48:01.000Z</time>
      </trkpt>
      <trkpt lat="43.62299" lon="5.44915">
        <ele>479.3</ele>
        <time>2022-10-26T09:48:04.000Z</time>
      </trkpt>
      <trkpt lat="43.62298" lon="5.44917">
        <ele>478.9</ele>
        <time>2022-10-26T09:48:07.000Z</time>
      </trkpt>
      <trkpt lat="43.62298" lon="5.4492">
        <ele>478</ele>
        <time>2022-10-26T09:48:10.000Z</time>
      </trkpt>
      <trkpt lat="43.62297" lon="5.44922">
        <ele>477.1</ele>
        <time>2022-10-26T09:48:13.000Z</time>
      </trkpt>
      <trkpt lat="43.62298" lon="5.44925">
        <ele>476.1</ele>
        <time>2022-10-26T09:48:16.000Z</time>
      </trkpt>
      <trkpt lat="43.623" lon="5.44924">
        <ele>475.8</ele>
        <time>2022-10-26T09:48:19.000Z</time>
      </trkpt>
      <trkpt lat="43.62303" lon="5.44923">
        <ele>475.7</ele>
        <time>2022-10-26T09:48:22.000Z</time>
      </trkpt>
      <trkpt lat="43.62305" lon="5.44922">
        <ele>475.6</ele>
        <time>2022-10-26T09:48:25.000Z</time>
      </trkpt>
      <trkpt lat="43.62307" lon="5.44921">
        <ele>475.4</ele>
        <time>2022-10-26T09:48:28.000Z</time>
      </trkpt>
      <trkpt lat="43.62309" lon="5.44919">
        <ele>475.3</ele>
        <time>2022-10-26T09:48:31.000Z</time>
      </trkpt>
      <trkpt lat="43.62311" lon="5.44917">
        <ele>475.5</ele>
        <time>2022-10-26T09:48:35.000Z</time>
      </trkpt>
      <trkpt lat="43.62312" lon="5.44915">
        <ele>475.4</ele>
        <time>2022-10-26T09:48:38.000Z</time>
      </trkpt>
      <trkpt lat="43.62313" lon="5.44912">
        <ele>475.5</ele>
        <time>2022-10-26T09:48:41.000Z</time>
      </trkpt>
      <trkpt lat="43.62314" lon="5.4491">
        <ele>475.5</ele>
        <time>2022-10-26T09:48:44.000Z</time>
      </trkpt>
      <trkpt lat="43.62316" lon="5.44909">
        <ele>475.1</ele>
        <time>2022-10-26T09:48:48.000Z</time>
      </trkpt>
      <trkpt lat="43.62318" lon="5.44908">
        <ele>474.2</ele>
        <time>2022-10-26T09:48:52.000Z</time>
      </trkpt>
      <trkpt lat="43.6232" lon="5.44907">
        <ele>473.7</ele>
        <time>2022-10-26T09:49:18.000Z</time>
      </trkpt>
      <trkpt lat="43.62322" lon="5.44906">
        <ele>473.6</ele>
        <time>2022-10-26T09:49:22.000Z</time>
      </trkpt>
      <trkpt lat="43.62324" lon="5.44904">
        <ele>473.6</ele>
        <time>2022-10-26T09:49:25.000Z</time>
      </trkpt>
      <trkpt lat="43.62325" lon="5.44902">
        <ele>473.9</ele>
        <time>2022-10-26T09:49:28.000Z</time>
      </trkpt>
      <trkpt lat="43.62326" lon="5.449">
        <ele>474.2</ele>
        <time>2022-10-26T09:49:30.000Z</time>
      </trkpt>
      <trkpt lat="43.62328" lon="5.44898">
        <ele>475</ele>
        <time>2022-10-26T09:49:33.000Z</time>
      </trkpt>
      <trkpt lat="43.6233" lon="5.44895">
        <ele>475.8</ele>
        <time>2022-10-26T09:49:36.000Z</time>
      </trkpt>
      <trkpt lat="43.62331" lon="5.44893">
        <ele>476.5</ele>
        <time>2022-10-26T09:49:39.000Z</time>
      </trkpt>
      <trkpt lat="43.62332" lon="5.44891">
        <ele>477</ele>
        <time>2022-10-26T09:49:43.000Z</time>
      </trkpt>
      <trkpt lat="43.62334" lon="5.44891">
        <ele>476.7</ele>
        <time>2022-10-26T09:49:47.000Z</time>
      </trkpt>
      <trkpt lat="43.62336" lon="5.44889">
        <ele>476.6</ele>
        <time>2022-10-26T09:49:51.000Z</time>
      </trkpt>
      <trkpt lat="43.62338" lon="5.44889">
        <ele>475.7</ele>
        <time>2022-10-26T09:49:54.000Z</time>
      </trkpt>
      <trkpt lat="43.6234" lon="5.44887">
        <ele>475.1</ele>
        <time>2022-10-26T09:49:57.000Z</time>
      </trkpt>
      <trkpt lat="43.62341" lon="5.44885">
        <ele>474.9</ele>
        <time>2022-10-26T09:50:00.000Z</time>
      </trkpt>
      <trkpt lat="43.62343" lon="5.44884">
        <ele>474.3</ele>
        <time>2022-10-26T09:50:03.000Z</time>
      </trkpt>
      <trkpt lat="43.62345" lon="5.44882">
        <ele>474</ele>
        <time>2022-10-26T09:50:06.000Z</time>
      </trkpt>
      <trkpt lat="43.62347" lon="5.44881">
        <ele>473.4</ele>
        <time>2022-10-26T09:50:09.000Z</time>
      </trkpt>
      <trkpt lat="43.62349" lon="5.4488">
        <ele>473.1</ele>
        <time>2022-10-26T09:50:12.000Z</time>
      </trkpt>
      <trkpt lat="43.62351" lon="5.44878">
        <ele>472.9</ele>
        <time>2022-10-26T09:50:15.000Z</time>
      </trkpt>
      <trkpt lat="43.62352" lon="5.44876">
        <ele>473.1</ele>
        <time>2022-10-26T09:50:18.000Z</time>
      </trkpt>
      <trkpt lat="43.62354" lon="5.44874">
        <ele>473.4</ele>
        <time>2022-10-26T09:50:21.000Z</time>
      </trkpt>
      <trkpt lat="43.62356" lon="5.44872">
        <ele>473.6</ele>
        <time>2022-10-26T09:50:24.000Z</time>
      </trkpt>
      <trkpt lat="43.62358" lon="5.4487">
        <ele>474.2</ele>
        <time>2022-10-26T09:50:27.000Z</time>
      </trkpt>
      <trkpt lat="43.6236" lon="5.44868">
        <ele>474.8</ele>
        <time>2022-10-26T09:50:30.000Z</time>
      </trkpt>
      <trkpt lat="43.62362" lon="5.44866">
        <ele>475.3</ele>
        <time>2022-10-26T09:50:33.000Z</time>
      </trkpt>
      <trkpt lat="43.62365" lon="5.44865">
        <ele>475</ele>
        <time>2022-10-26T09:50:36.000Z</time>
      </trkpt>
      <trkpt lat="43.62367" lon="5.44865">
        <ele>474.2</ele>
        <time>2022-10-26T09:50:39.000Z</time>
      </trkpt>
      <trkpt lat="43.62369" lon="5.44864">
        <ele>473.8</ele>
        <time>2022-10-26T09:50:42.000Z</time>
      </trkpt>
      <trkpt lat="43.62371" lon="5.44863">
        <ele>473.7</ele>
        <time>2022-10-26T09:50:45.000Z</time>
      </trkpt>
      <trkpt lat="43.62373" lon="5.44861">
        <ele>473.8</ele>
        <time>2022-10-26T09:50:48.000Z</time>
      </trkpt>
      <trkpt lat="43.62374" lon="5.4486">
        <ele>473.4</ele>
        <time>2022-10-26T09:50:51.000Z</time>
      </trkpt>
      <trkpt lat="43.62376" lon="5.44858">
        <ele>473.2</ele>
        <time>2022-10-26T09:50:54.000Z</time>
      </trkpt>
      <trkpt lat="43.62378" lon="5.44858">
        <ele>472.6</ele>
        <time>2022-10-26T09:51:00.000Z</time>
      </trkpt>
      <trkpt lat="43.6238" lon="5.44857">
        <ele>472</ele>
        <time>2022-10-26T09:51:03.000Z</time>
      </trkpt>
      <trkpt lat="43.62382" lon="5.44855">
        <ele>472</ele>
        <time>2022-10-26T09:51:06.000Z</time>
      </trkpt>
      <trkpt lat="43.62384" lon="5.44854">
        <ele>471.8</ele>
        <time>2022-10-26T09:51:08.000Z</time>
      </trkpt>
      <trkpt lat="43.62386" lon="5.44852">
        <ele>471.8</ele>
        <time>2022-10-26T09:51:11.000Z</time>
      </trkpt>
      <trkpt lat="43.62388" lon="5.44851">
        <ele>471.6</ele>
        <time>2022-10-26T09:51:13.000Z</time>
      </trkpt>
      <trkpt lat="43.6239" lon="5.4485">
        <ele>471.4</ele>
        <time>2022-10-26T09:51:15.000Z</time>
      </trkpt>
      <trkpt lat="43.62391" lon="5.44848">
        <ele>471.6</ele>
        <time>2022-10-26T09:51:18.000Z</time>
      </trkpt>
      <trkpt lat="43.62393" lon="5.44846">
        <ele>471.5</ele>
        <time>2022-10-26T09:51:21.000Z</time>
      </trkpt>
      <trkpt lat="43.62395" lon="5.44844">
        <ele>471.4</ele>
        <time>2022-10-26T09:51:24.000Z</time>
      </trkpt>
      <trkpt lat="43.62397" lon="5.44844">
        <ele>471</ele>
        <time>2022-10-26T09:51:27.000Z</time>
      </trkpt>
      <trkpt lat="43.62399" lon="5.44842">
        <ele>471</ele>
        <time>2022-10-26T09:51:30.000Z</time>
      </trkpt>
      <trkpt lat="43.624" lon="5.44839">
        <ele>471.4</ele>
        <time>2022-10-26T09:51:33.000Z</time>
      </trkpt>
      <trkpt lat="43.62402" lon="5.44836">
        <ele>472</ele>
        <time>2022-10-26T09:51:36.000Z</time>
      </trkpt>
      <trkpt lat="43.62403" lon="5.44834">
        <ele>472</ele>
        <time>2022-10-26T09:51:38.000Z</time>
      </trkpt>
      <trkpt lat="43.62405" lon="5.44833">
        <ele>472</ele>
        <time>2022-10-26T09:51:40.000Z</time>
      </trkpt>
      <trkpt lat="43.62407" lon="5.4483">
        <ele>471.8</ele>
        <time>2022-10-26T09:51:43.000Z</time>
      </trkpt>
      <trkpt lat="43.62409" lon="5.44828">
        <ele>471.5</ele>
        <time>2022-10-26T09:51:46.000Z</time>
      </trkpt>
      <trkpt lat="43.6241" lon="5.44826">
        <ele>471.4</ele>
        <time>2022-10-26T09:51:48.000Z</time>
      </trkpt>
      <trkpt lat="43.62412" lon="5.44824">
        <ele>471.4</ele>
        <time>2022-10-26T09:51:50.000Z</time>
      </trkpt>
      <trkpt lat="43.62414" lon="5.44823">
        <ele>471.3</ele>
        <time>2022-10-26T09:51:52.000Z</time>
      </trkpt>
      <trkpt lat="43.62416" lon="5.44821">
        <ele>471.3</ele>
        <time>2022-10-26T09:51:55.000Z</time>
      </trkpt>
      <trkpt lat="43.62417" lon="5.44819">
        <ele>471.4</ele>
        <time>2022-10-26T09:51:57.000Z</time>
      </trkpt>
      <trkpt lat="43.62419" lon="5.44818">
        <ele>471.3</ele>
        <time>2022-10-26T09:51:59.000Z</time>
      </trkpt>
      <trkpt lat="43.6242" lon="5.44816">
        <ele>471</ele>
        <time>2022-10-26T09:52:01.000Z</time>
      </trkpt>
      <trkpt lat="43.62422" lon="5.44815">
        <ele>470.7</ele>
        <time>2022-10-26T09:52:04.000Z</time>
      </trkpt>
      <trkpt lat="43.62425" lon="5.44812">
        <ele>470.4</ele>
        <time>2022-10-26T09:52:07.000Z</time>
      </trkpt>
      <trkpt lat="43.62427" lon="5.44811">
        <ele>470.1</ele>
        <time>2022-10-26T09:52:10.000Z</time>
      </trkpt>
      <trkpt lat="43.62429" lon="5.44809">
        <ele>469.9</ele>
        <time>2022-10-26T09:52:13.000Z</time>
      </trkpt>
      <trkpt lat="43.6243" lon="5.44807">
        <ele>469.8</ele>
        <time>2022-10-26T09:52:16.000Z</time>
      </trkpt>
      <trkpt lat="43.62432" lon="5.44805">
        <ele>469.5</ele>
        <time>2022-10-26T09:52:19.000Z</time>
      </trkpt>
      <trkpt lat="43.62434" lon="5.44803">
        <ele>469.2</ele>
        <time>2022-10-26T09:52:22.000Z</time>
      </trkpt>
      <trkpt lat="43.62436" lon="5.44801">
        <ele>468.9</ele>
        <time>2022-10-26T09:52:25.000Z</time>
      </trkpt>
      <trkpt lat="43.62438" lon="5.44799">
        <ele>468.7</ele>
        <time>2022-10-26T09:52:28.000Z</time>
      </trkpt>
      <trkpt lat="43.62438" lon="5.44796">
        <ele>469.1</ele>
        <time>2022-10-26T09:52:31.000Z</time>
      </trkpt>
      <trkpt lat="43.62439" lon="5.44793">
        <ele>469.6</ele>
        <time>2022-10-26T09:52:34.000Z</time>
      </trkpt>
      <trkpt lat="43.6244" lon="5.4479">
        <ele>469.9</ele>
        <time>2022-10-26T09:52:37.000Z</time>
      </trkpt>
      <trkpt lat="43.62442" lon="5.44788">
        <ele>469.8</ele>
        <time>2022-10-26T09:52:40.000Z</time>
      </trkpt>
      <trkpt lat="43.62443" lon="5.44785">
        <ele>470.4</ele>
        <time>2022-10-26T09:52:46.000Z</time>
      </trkpt>
      <trkpt lat="43.62445" lon="5.44783">
        <ele>470.4</ele>
        <time>2022-10-26T09:52:48.000Z</time>
      </trkpt>
      <trkpt lat="43.62447" lon="5.44781">
        <ele>469.8</ele>
        <time>2022-10-26T09:52:51.000Z</time>
      </trkpt>
      <trkpt lat="43.62447" lon="5.44778">
        <ele>470.6</ele>
        <time>2022-10-26T09:52:54.000Z</time>
      </trkpt>
      <trkpt lat="43.62448" lon="5.44775">
        <ele>470.5</ele>
        <time>2022-10-26T09:52:56.000Z</time>
      </trkpt>
      <trkpt lat="43.62449" lon="5.44773">
        <ele>469.8</ele>
        <time>2022-10-26T09:52:58.000Z</time>
      </trkpt>
      <trkpt lat="43.62451" lon="5.44771">
        <ele>469.1</ele>
        <time>2022-10-26T09:53:01.000Z</time>
      </trkpt>
      <trkpt lat="43.62453" lon="5.44769">
        <ele>468.4</ele>
        <time>2022-10-26T09:53:04.000Z</time>
      </trkpt>
      <trkpt lat="43.62454" lon="5.44766">
        <ele>467.8</ele>
        <time>2022-10-26T09:53:07.000Z</time>
      </trkpt>
      <trkpt lat="43.62455" lon="5.44763">
        <ele>467.8</ele>
        <time>2022-10-26T09:53:09.000Z</time>
      </trkpt>
      <trkpt lat="43.62456" lon="5.4476">
        <ele>467.8</ele>
        <time>2022-10-26T09:53:12.000Z</time>
      </trkpt>
      <trkpt lat="43.62456" lon="5.44757">
        <ele>467.9</ele>
        <time>2022-10-26T09:53:16.000Z</time>
      </trkpt>
      <trkpt lat="43.62458" lon="5.44755">
        <ele>467.4</ele>
        <time>2022-10-26T09:53:19.000Z</time>
      </trkpt>
      <trkpt lat="43.62461" lon="5.44753">
        <ele>466.8</ele>
        <time>2022-10-26T09:53:22.000Z</time>
      </trkpt>
      <trkpt lat="43.62462" lon="5.4475">
        <ele>466.7</ele>
        <time>2022-10-26T09:53:24.000Z</time>
      </trkpt>
      <trkpt lat="43.62463" lon="5.44748">
        <ele>466.7</ele>
        <time>2022-10-26T09:53:26.000Z</time>
      </trkpt>
      <trkpt lat="43.62463" lon="5.44745">
        <ele>466.8</ele>
        <time>2022-10-26T09:53:28.000Z</time>
      </trkpt>
      <trkpt lat="43.62464" lon="5.44742">
        <ele>466.8</ele>
        <time>2022-10-26T09:53:30.000Z</time>
      </trkpt>
      <trkpt lat="43.62465" lon="5.44739">
        <ele>466.7</ele>
        <time>2022-10-26T09:53:33.000Z</time>
      </trkpt>
      <trkpt lat="43.62467" lon="5.44736">
        <ele>466.6</ele>
        <time>2022-10-26T09:53:36.000Z</time>
      </trkpt>
      <trkpt lat="43.62468" lon="5.44734">
        <ele>466.4</ele>
        <time>2022-10-26T09:53:38.000Z</time>
      </trkpt>
      <trkpt lat="43.62469" lon="5.44732">
        <ele>466.5</ele>
        <time>2022-10-26T09:53:40.000Z</time>
      </trkpt>
      <trkpt lat="43.6247" lon="5.44729">
        <ele>466.7</ele>
        <time>2022-10-26T09:53:42.000Z</time>
      </trkpt>
      <trkpt lat="43.62471" lon="5.44727">
        <ele>466.7</ele>
        <time>2022-10-26T09:53:44.000Z</time>
      </trkpt>
      <trkpt lat="43.62472" lon="5.44723">
        <ele>466.8</ele>
        <time>2022-10-26T09:53:47.000Z</time>
      </trkpt>
      <trkpt lat="43.62474" lon="5.44722">
        <ele>466.1</ele>
        <time>2022-10-26T09:53:49.000Z</time>
      </trkpt>
      <trkpt lat="43.62475" lon="5.44719">
        <ele>465.6</ele>
        <time>2022-10-26T09:53:52.000Z</time>
      </trkpt>
      <trkpt lat="43.62476" lon="5.44716">
        <ele>465.9</ele>
        <time>2022-10-26T09:53:54.000Z</time>
      </trkpt>
      <trkpt lat="43.62475" lon="5.44713">
        <ele>466.5</ele>
        <time>2022-10-26T09:53:57.000Z</time>
      </trkpt>
      <trkpt lat="43.62475" lon="5.4471">
        <ele>466.8</ele>
        <time>2022-10-26T09:53:59.000Z</time>
      </trkpt>
      <trkpt lat="43.62476" lon="5.44708">
        <ele>466.6</ele>
        <time>2022-10-26T09:54:01.000Z</time>
      </trkpt>
      <trkpt lat="43.62479" lon="5.44706">
        <ele>465.8</ele>
        <time>2022-10-26T09:54:04.000Z</time>
      </trkpt>
      <trkpt lat="43.6248" lon="5.44703">
        <ele>465.6</ele>
        <time>2022-10-26T09:54:07.000Z</time>
      </trkpt>
      <trkpt lat="43.62482" lon="5.44701">
        <ele>465.5</ele>
        <time>2022-10-26T09:54:09.000Z</time>
      </trkpt>
      <trkpt lat="43.62484" lon="5.44698">
        <ele>465.2</ele>
        <time>2022-10-26T09:54:12.000Z</time>
      </trkpt>
      <trkpt lat="43.62485" lon="5.44697">
        <ele>465</ele>
        <time>2022-10-26T09:54:14.000Z</time>
      </trkpt>
      <trkpt lat="43.62486" lon="5.44695">
        <ele>464.9</ele>
        <time>2022-10-26T09:54:16.000Z</time>
      </trkpt>
      <trkpt lat="43.62488" lon="5.44694">
        <ele>464.3</ele>
        <time>2022-10-26T09:54:18.000Z</time>
      </trkpt>
      <trkpt lat="43.6249" lon="5.44694">
        <ele>463.6</ele>
        <time>2022-10-26T09:54:20.000Z</time>
      </trkpt>
      <trkpt lat="43.62492" lon="5.44693">
        <ele>463.1</ele>
        <time>2022-10-26T09:54:22.000Z</time>
      </trkpt>
      <trkpt lat="43.62493" lon="5.44691">
        <ele>463.2</ele>
        <time>2022-10-26T09:54:24.000Z</time>
      </trkpt>
      <trkpt lat="43.62494" lon="5.44688">
        <ele>463.7</ele>
        <time>2022-10-26T09:54:26.000Z</time>
      </trkpt>
      <trkpt lat="43.62493" lon="5.44685">
        <ele>464.4</ele>
        <time>2022-10-26T09:54:28.000Z</time>
      </trkpt>
      <trkpt lat="43.62494" lon="5.44683">
        <ele>464.8</ele>
        <time>2022-10-26T09:54:30.000Z</time>
      </trkpt>
      <trkpt lat="43.62494" lon="5.4468">
        <ele>465.5</ele>
        <time>2022-10-26T09:54:33.000Z</time>
      </trkpt>
      <trkpt lat="43.62495" lon="5.44677">
        <ele>466</ele>
        <time>2022-10-26T09:54:35.000Z</time>
      </trkpt>
      <trkpt lat="43.62496" lon="5.44675">
        <ele>466.3</ele>
        <time>2022-10-26T09:54:38.000Z</time>
      </trkpt>
      <trkpt lat="43.62497" lon="5.44673">
        <ele>466.5</ele>
        <time>2022-10-26T09:54:42.000Z</time>
      </trkpt>
      <trkpt lat="43.62499" lon="5.44672">
        <ele>466.5</ele>
        <time>2022-10-26T09:54:45.000Z</time>
      </trkpt>
      <trkpt lat="43.62502" lon="5.4467">
        <ele>466.2</ele>
        <time>2022-10-26T09:54:50.000Z</time>
      </trkpt>
      <trkpt lat="43.62503" lon="5.44668">
        <ele>466.2</ele>
        <time>2022-10-26T09:54:53.000Z</time>
      </trkpt>
      <trkpt lat="43.62504" lon="5.44665">
        <ele>466.4</ele>
        <time>2022-10-26T09:55:08.000Z</time>
      </trkpt>
      <trkpt lat="43.62505" lon="5.44662">
        <ele>465.8</ele>
        <time>2022-10-26T09:55:11.000Z</time>
      </trkpt>
      <trkpt lat="43.62507" lon="5.44661">
        <ele>465.1</ele>
        <time>2022-10-26T09:55:14.000Z</time>
      </trkpt>
      <trkpt lat="43.62509" lon="5.4466">
        <ele>464.5</ele>
        <time>2022-10-26T09:55:19.000Z</time>
      </trkpt>
      <trkpt lat="43.62511" lon="5.44658">
        <ele>464</ele>
        <time>2022-10-26T09:55:23.000Z</time>
      </trkpt>
      <trkpt lat="43.62512" lon="5.44655">
        <ele>464.1</ele>
        <time>2022-10-26T09:55:27.000Z</time>
      </trkpt>
      <trkpt lat="43.62513" lon="5.44653">
        <ele>463.9</ele>
        <time>2022-10-26T09:55:33.000Z</time>
      </trkpt>
      <trkpt lat="43.62515" lon="5.44651">
        <ele>463.6</ele>
        <time>2022-10-26T09:55:38.000Z</time>
      </trkpt>
      <trkpt lat="43.62516" lon="5.44649">
        <ele>463.8</ele>
        <time>2022-10-26T09:55:42.000Z</time>
      </trkpt>
      <trkpt lat="43.62517" lon="5.44647">
        <ele>463.7</ele>
        <time>2022-10-26T09:55:45.000Z</time>
      </trkpt>
      <trkpt lat="43.6252" lon="5.44646">
        <ele>463.3</ele>
        <time>2022-10-26T09:55:48.000Z</time>
      </trkpt>
      <trkpt lat="43.62522" lon="5.44644">
        <ele>463</ele>
        <time>2022-10-26T09:55:50.000Z</time>
      </trkpt>
      <trkpt lat="43.62523" lon="5.44643">
        <ele>463.1</ele>
        <time>2022-10-26T09:55:52.000Z</time>
      </trkpt>
      <trkpt lat="43.62525" lon="5.44641">
        <ele>463.2</ele>
        <time>2022-10-26T09:55:54.000Z</time>
      </trkpt>
      <trkpt lat="43.62526" lon="5.44638">
        <ele>463.6</ele>
        <time>2022-10-26T09:55:57.000Z</time>
      </trkpt>
      <trkpt lat="43.62527" lon="5.44635">
        <ele>463.8</ele>
        <time>2022-10-26T09:56:00.000Z</time>
      </trkpt>
      <trkpt lat="43.62529" lon="5.44632">
        <ele>463.7</ele>
        <time>2022-10-26T09:56:03.000Z</time>
      </trkpt>
      <trkpt lat="43.62529" lon="5.44628">
        <ele>464.4</ele>
        <time>2022-10-26T09:56:06.000Z</time>
      </trkpt>
      <trkpt lat="43.62529" lon="5.44625">
        <ele>465</ele>
        <time>2022-10-26T09:56:09.000Z</time>
      </trkpt>
      <trkpt lat="43.62531" lon="5.44623">
        <ele>464.3</ele>
        <time>2022-10-26T09:56:12.000Z</time>
      </trkpt>
      <trkpt lat="43.62533" lon="5.44621">
        <ele>463.9</ele>
        <time>2022-10-26T09:56:14.000Z</time>
      </trkpt>
      <trkpt lat="43.62533" lon="5.44618">
        <ele>464.4</ele>
        <time>2022-10-26T09:56:17.000Z</time>
      </trkpt>
      <trkpt lat="43.62534" lon="5.44615">
        <ele>464.7</ele>
        <time>2022-10-26T09:56:19.000Z</time>
      </trkpt>
      <trkpt lat="43.62535" lon="5.44612">
        <ele>464.7</ele>
        <time>2022-10-26T09:56:22.000Z</time>
      </trkpt>
      <trkpt lat="43.62537" lon="5.44609">
        <ele>464.4</ele>
        <time>2022-10-26T09:56:25.000Z</time>
      </trkpt>
      <trkpt lat="43.62538" lon="5.44607">
        <ele>464.1</ele>
        <time>2022-10-26T09:56:28.000Z</time>
      </trkpt>
      <trkpt lat="43.6254" lon="5.44604">
        <ele>464</ele>
        <time>2022-10-26T09:56:31.000Z</time>
      </trkpt>
      <trkpt lat="43.62541" lon="5.44601">
        <ele>464</ele>
        <time>2022-10-26T09:56:34.000Z</time>
      </trkpt>
      <trkpt lat="43.62543" lon="5.44598">
        <ele>464</ele>
        <time>2022-10-26T09:56:37.000Z</time>
      </trkpt>
      <trkpt lat="43.62544" lon="5.44596">
        <ele>464.1</ele>
        <time>2022-10-26T09:56:40.000Z</time>
      </trkpt>
      <trkpt lat="43.62546" lon="5.44594">
        <ele>464.1</ele>
        <time>2022-10-26T09:56:45.000Z</time>
      </trkpt>
      <trkpt lat="43.62548" lon="5.44593">
        <ele>464.2</ele>
        <time>2022-10-26T09:56:50.000Z</time>
      </trkpt>
      <trkpt lat="43.62549" lon="5.4459">
        <ele>464.5</ele>
        <time>2022-10-26T09:56:53.000Z</time>
      </trkpt>
      <trkpt lat="43.62551" lon="5.44588">
        <ele>465.1</ele>
        <time>2022-10-26T09:56:56.000Z</time>
      </trkpt>
      <trkpt lat="43.62552" lon="5.44585">
        <ele>465.7</ele>
        <time>2022-10-26T09:56:59.000Z</time>
      </trkpt>
      <trkpt lat="43.62554" lon="5.44583">
        <ele>466.2</ele>
        <time>2022-10-26T09:57:02.000Z</time>
      </trkpt>
      <trkpt lat="43.62554" lon="5.4458">
        <ele>466.6</ele>
        <time>2022-10-26T09:57:06.000Z</time>
      </trkpt>
      <trkpt lat="43.62556" lon="5.44578">
        <ele>466.9</ele>
        <time>2022-10-26T09:57:09.000Z</time>
      </trkpt>
      <trkpt lat="43.62557" lon="5.44576">
        <ele>466.5</ele>
        <time>2022-10-26T09:57:13.000Z</time>
      </trkpt>
      <trkpt lat="43.62559" lon="5.44575">
        <ele>465.7</ele>
        <time>2022-10-26T09:57:17.000Z</time>
      </trkpt>
      <trkpt lat="43.6256" lon="5.44572">
        <ele>465.5</ele>
        <time>2022-10-26T09:57:21.000Z</time>
      </trkpt>
      <trkpt lat="43.62561" lon="5.4457">
        <ele>465.7</ele>
        <time>2022-10-26T09:57:24.000Z</time>
      </trkpt>
      <trkpt lat="43.62561" lon="5.44567">
        <ele>466.3</ele>
        <time>2022-10-26T09:57:27.000Z</time>
      </trkpt>
      <trkpt lat="43.62561" lon="5.44565">
        <ele>466.4</ele>
        <time>2022-10-26T09:57:30.000Z</time>
      </trkpt>
      <trkpt lat="43.62563" lon="5.44562">
        <ele>465.9</ele>
        <time>2022-10-26T09:57:33.000Z</time>
      </trkpt>
      <trkpt lat="43.62564" lon="5.4456">
        <ele>466.1</ele>
        <time>2022-10-26T09:57:36.000Z</time>
      </trkpt>
      <trkpt lat="43.62565" lon="5.44558">
        <ele>466.4</ele>
        <time>2022-10-26T09:57:39.000Z</time>
      </trkpt>
      <trkpt lat="43.62566" lon="5.44555">
        <ele>466.7</ele>
        <time>2022-10-26T09:57:42.000Z</time>
      </trkpt>
      <trkpt lat="43.62566" lon="5.44553">
        <ele>466.8</ele>
        <time>2022-10-26T09:57:46.000Z</time>
      </trkpt>
      <trkpt lat="43.62568" lon="5.4455">
        <ele>466.8</ele>
        <time>2022-10-26T09:57:49.000Z</time>
      </trkpt>
      <trkpt lat="43.62568" lon="5.44548">
        <ele>467.1</ele>
        <time>2022-10-26T09:57:51.000Z</time>
      </trkpt>
      <trkpt lat="43.62569" lon="5.44545">
        <ele>467.4</ele>
        <time>2022-10-26T09:57:55.000Z</time>
      </trkpt>
      <trkpt lat="43.6257" lon="5.44542">
        <ele>467.6</ele>
        <time>2022-10-26T09:58:00.000Z</time>
      </trkpt>
      <trkpt lat="43.6257" lon="5.4454">
        <ele>468</ele>
        <time>2022-10-26T09:58:02.000Z</time>
      </trkpt>
      <trkpt lat="43.62571" lon="5.44537">
        <ele>468.3</ele>
        <time>2022-10-26T09:58:04.000Z</time>
      </trkpt>
      <trkpt lat="43.62572" lon="5.44534">
        <ele>468.9</ele>
        <time>2022-10-26T09:58:07.000Z</time>
      </trkpt>
      <trkpt lat="43.62573" lon="5.44532">
        <ele>469.3</ele>
        <time>2022-10-26T09:58:09.000Z</time>
      </trkpt>
      <trkpt lat="43.62573" lon="5.44529">
        <ele>469.9</ele>
        <time>2022-10-26T09:58:12.000Z</time>
      </trkpt>
      <trkpt lat="43.62573" lon="5.44526">
        <ele>470.3</ele>
        <time>2022-10-26T09:58:14.000Z</time>
      </trkpt>
      <trkpt lat="43.62573" lon="5.44524">
        <ele>470.5</ele>
        <time>2022-10-26T09:58:16.000Z</time>
      </trkpt>
      <trkpt lat="43.62573" lon="5.4452">
        <ele>470.7</ele>
        <time>2022-10-26T09:58:19.000Z</time>
      </trkpt>
      <trkpt lat="43.62573" lon="5.44517">
        <ele>471</ele>
        <time>2022-10-26T09:58:23.000Z</time>
      </trkpt>
      <trkpt lat="43.62574" lon="5.44514">
        <ele>471.1</ele>
        <time>2022-10-26T09:58:41.000Z</time>
      </trkpt>
      <trkpt lat="43.62575" lon="5.44511">
        <ele>471.3</ele>
        <time>2022-10-26T09:58:44.000Z</time>
      </trkpt>
      <trkpt lat="43.62575" lon="5.44509">
        <ele>471.6</ele>
        <time>2022-10-26T09:58:47.000Z</time>
      </trkpt>
      <trkpt lat="43.62575" lon="5.44506">
        <ele>471.8</ele>
        <time>2022-10-26T09:58:49.000Z</time>
      </trkpt>
      <trkpt lat="43.62575" lon="5.44503">
        <ele>472</ele>
        <time>2022-10-26T09:58:51.000Z</time>
      </trkpt>
      <trkpt lat="43.62576" lon="5.44501">
        <ele>472.2</ele>
        <time>2022-10-26T09:58:53.000Z</time>
      </trkpt>
      <trkpt lat="43.62576" lon="5.44498">
        <ele>472.4</ele>
        <time>2022-10-26T09:58:56.000Z</time>
      </trkpt>
      <trkpt lat="43.62577" lon="5.44495">
        <ele>472.5</ele>
        <time>2022-10-26T09:58:59.000Z</time>
      </trkpt>
      <trkpt lat="43.62577" lon="5.44491">
        <ele>472.7</ele>
        <time>2022-10-26T09:59:02.000Z</time>
      </trkpt>
      <trkpt lat="43.62577" lon="5.44488">
        <ele>472.9</ele>
        <time>2022-10-26T09:59:05.000Z</time>
      </trkpt>
      <trkpt lat="43.62578" lon="5.44485">
        <ele>473.1</ele>
        <time>2022-10-26T09:59:08.000Z</time>
      </trkpt>
      <trkpt lat="43.62578" lon="5.44482">
        <ele>473.2</ele>
        <time>2022-10-26T09:59:12.000Z</time>
      </trkpt>
      <trkpt lat="43.6258" lon="5.4448">
        <ele>473.4</ele>
        <time>2022-10-26T09:59:18.000Z</time>
      </trkpt>
      <trkpt lat="43.62581" lon="5.44478">
        <ele>473.5</ele>
        <time>2022-10-26T09:59:22.000Z</time>
      </trkpt>
      <trkpt lat="43.62583" lon="5.44477">
        <ele>473.6</ele>
        <time>2022-10-26T09:59:26.000Z</time>
      </trkpt>
      <trkpt lat="43.62585" lon="5.44475">
        <ele>473.2</ele>
        <time>2022-10-26T09:59:29.000Z</time>
      </trkpt>
      <trkpt lat="43.62586" lon="5.44472">
        <ele>473.1</ele>
        <time>2022-10-26T09:59:32.000Z</time>
      </trkpt>
      <trkpt lat="43.62587" lon="5.4447">
        <ele>472.8</ele>
        <time>2022-10-26T09:59:35.000Z</time>
      </trkpt>
      <trkpt lat="43.62588" lon="5.44467">
        <ele>472.5</ele>
        <time>2022-10-26T09:59:38.000Z</time>
      </trkpt>
      <trkpt lat="43.62589" lon="5.44464">
        <ele>472.3</ele>
        <time>2022-10-26T09:59:41.000Z</time>
      </trkpt>
      <trkpt lat="43.62589" lon="5.44461">
        <ele>472.4</ele>
        <time>2022-10-26T09:59:43.000Z</time>
      </trkpt>
      <trkpt lat="43.62591" lon="5.44459">
        <ele>472</ele>
        <time>2022-10-26T09:59:45.000Z</time>
      </trkpt>
      <trkpt lat="43.62592" lon="5.44457">
        <ele>471.8</ele>
        <time>2022-10-26T09:59:47.000Z</time>
      </trkpt>
      <trkpt lat="43.62593" lon="5.44454">
        <ele>471.8</ele>
        <time>2022-10-26T09:59:50.000Z</time>
      </trkpt>
      <trkpt lat="43.62593" lon="5.44451">
        <ele>472</ele>
        <time>2022-10-26T10:00:04.000Z</time>
      </trkpt>
      <trkpt lat="43.62591" lon="5.44449">
        <ele>472.9</ele>
        <time>2022-10-26T10:00:09.000Z</time>
      </trkpt>
      <trkpt lat="43.62589" lon="5.44447">
        <ele>473.7</ele>
        <time>2022-10-26T10:00:12.000Z</time>
      </trkpt>
      <trkpt lat="43.62589" lon="5.44444">
        <ele>473.9</ele>
        <time>2022-10-26T10:00:15.000Z</time>
      </trkpt>
      <trkpt lat="43.6259" lon="5.44441">
        <ele>473.9</ele>
        <time>2022-10-26T10:00:17.000Z</time>
      </trkpt>
      <trkpt lat="43.62591" lon="5.44439">
        <ele>473.4</ele>
        <time>2022-10-26T10:00:20.000Z</time>
      </trkpt>
      <trkpt lat="43.62593" lon="5.44437">
        <ele>473</ele>
        <time>2022-10-26T10:00:22.000Z</time>
      </trkpt>
      <trkpt lat="43.62594" lon="5.44434">
        <ele>472.7</ele>
        <time>2022-10-26T10:00:25.000Z</time>
      </trkpt>
      <trkpt lat="43.62594" lon="5.4443">
        <ele>472.9</ele>
        <time>2022-10-26T10:00:28.000Z</time>
      </trkpt>
      <trkpt lat="43.62595" lon="5.44427">
        <ele>472.8</ele>
        <time>2022-10-26T10:00:31.000Z</time>
      </trkpt>
      <trkpt lat="43.62595" lon="5.44424">
        <ele>472.8</ele>
        <time>2022-10-26T10:00:34.000Z</time>
      </trkpt>
      <trkpt lat="43.62595" lon="5.44421">
        <ele>473.1</ele>
        <time>2022-10-26T10:00:37.000Z</time>
      </trkpt>
      <trkpt lat="43.62594" lon="5.44418">
        <ele>473.4</ele>
        <time>2022-10-26T10:00:43.000Z</time>
      </trkpt>
      <trkpt lat="43.62594" lon="5.44415">
        <ele>473.8</ele>
        <time>2022-10-26T10:00:45.000Z</time>
      </trkpt>
      <trkpt lat="43.62594" lon="5.44412">
        <ele>474</ele>
        <time>2022-10-26T10:00:48.000Z</time>
      </trkpt>
      <trkpt lat="43.62594" lon="5.44409">
        <ele>474.1</ele>
        <time>2022-10-26T10:00:51.000Z</time>
      </trkpt>
      <trkpt lat="43.62594" lon="5.44406">
        <ele>474.5</ele>
        <time>2022-10-26T10:00:54.000Z</time>
      </trkpt>
      <trkpt lat="43.62592" lon="5.44404">
        <ele>475</ele>
        <time>2022-10-26T10:00:58.000Z</time>
      </trkpt>
      <trkpt lat="43.62592" lon="5.444">
        <ele>475.5</ele>
        <time>2022-10-26T10:01:01.000Z</time>
      </trkpt>
      <trkpt lat="43.62593" lon="5.44398">
        <ele>475.2</ele>
        <time>2022-10-26T10:01:04.000Z</time>
      </trkpt>
      <trkpt lat="43.62593" lon="5.44395">
        <ele>475.4</ele>
        <time>2022-10-26T10:01:07.000Z</time>
      </trkpt>
      <trkpt lat="43.62594" lon="5.44392">
        <ele>475.4</ele>
        <time>2022-10-26T10:01:10.000Z</time>
      </trkpt>
      <trkpt lat="43.62595" lon="5.44388">
        <ele>475.6</ele>
        <time>2022-10-26T10:01:13.000Z</time>
      </trkpt>
      <trkpt lat="43.62594" lon="5.44385">
        <ele>475.9</ele>
        <time>2022-10-26T10:01:16.000Z</time>
      </trkpt>
      <trkpt lat="43.62595" lon="5.44382">
        <ele>476</ele>
        <time>2022-10-26T10:01:20.000Z</time>
      </trkpt>
      <trkpt lat="43.62595" lon="5.44379">
        <ele>476.2</ele>
        <time>2022-10-26T10:01:22.000Z</time>
      </trkpt>
      <trkpt lat="43.62595" lon="5.44377">
        <ele>476.3</ele>
        <time>2022-10-26T10:01:24.000Z</time>
      </trkpt>
      <trkpt lat="43.62596" lon="5.44374">
        <ele>476.4</ele>
        <time>2022-10-26T10:01:26.000Z</time>
      </trkpt>
      <trkpt lat="43.62596" lon="5.44371">
        <ele>476.5</ele>
        <time>2022-10-26T10:01:28.000Z</time>
      </trkpt>
      <trkpt lat="43.62598" lon="5.44367">
        <ele>476.5</ele>
        <time>2022-10-26T10:01:32.000Z</time>
      </trkpt>
      <trkpt lat="43.62599" lon="5.44365">
        <ele>476.5</ele>
        <time>2022-10-26T10:01:33.000Z</time>
      </trkpt>
      <trkpt lat="43.62597" lon="5.44363">
        <ele>476.9</ele>
        <time>2022-10-26T10:01:37.000Z</time>
      </trkpt>
      <trkpt lat="43.62597" lon="5.44361">
        <ele>477.1</ele>
        <time>2022-10-26T10:01:40.000Z</time>
      </trkpt>
      <trkpt lat="43.62597" lon="5.44358">
        <ele>477.2</ele>
        <time>2022-10-26T10:01:43.000Z</time>
      </trkpt>
      <trkpt lat="43.62597" lon="5.44355">
        <ele>477.3</ele>
        <time>2022-10-26T10:01:46.000Z</time>
      </trkpt>
      <trkpt lat="43.62597" lon="5.44352">
        <ele>477.5</ele>
        <time>2022-10-26T10:01:50.000Z</time>
      </trkpt>
      <trkpt lat="43.62598" lon="5.44348">
        <ele>477.6</ele>
        <time>2022-10-26T10:01:53.000Z</time>
      </trkpt>
      <trkpt lat="43.62599" lon="5.44345">
        <ele>477.7</ele>
        <time>2022-10-26T10:01:56.000Z</time>
      </trkpt>
      <trkpt lat="43.62599" lon="5.44342">
        <ele>477.8</ele>
        <time>2022-10-26T10:01:59.000Z</time>
      </trkpt>
      <trkpt lat="43.626" lon="5.44339">
        <ele>477.8</ele>
        <time>2022-10-26T10:02:02.000Z</time>
      </trkpt>
      <trkpt lat="43.62601" lon="5.44336">
        <ele>477.9</ele>
        <time>2022-10-26T10:02:04.000Z</time>
      </trkpt>
      <trkpt lat="43.62602" lon="5.44333">
        <ele>478</ele>
        <time>2022-10-26T10:02:06.000Z</time>
      </trkpt>
      <trkpt lat="43.62602" lon="5.4433">
        <ele>478.3</ele>
        <time>2022-10-26T10:02:09.000Z</time>
      </trkpt>
      <trkpt lat="43.62603" lon="5.44326">
        <ele>478.5</ele>
        <time>2022-10-26T10:02:12.000Z</time>
      </trkpt>
      <trkpt lat="43.62604" lon="5.44323">
        <ele>478.7</ele>
        <time>2022-10-26T10:02:14.000Z</time>
      </trkpt>
      <trkpt lat="43.62604" lon="5.4432">
        <ele>479</ele>
        <time>2022-10-26T10:02:17.000Z</time>
      </trkpt>
      <trkpt lat="43.62605" lon="5.44317">
        <ele>479.2</ele>
        <time>2022-10-26T10:02:20.000Z</time>
      </trkpt>
      <trkpt lat="43.62606" lon="5.44314">
        <ele>479.4</ele>
        <time>2022-10-26T10:02:22.000Z</time>
      </trkpt>
      <trkpt lat="43.62607" lon="5.44312">
        <ele>479.6</ele>
        <time>2022-10-26T10:02:24.000Z</time>
      </trkpt>
      <trkpt lat="43.62607" lon="5.44309">
        <ele>479.9</ele>
        <time>2022-10-26T10:02:27.000Z</time>
      </trkpt>
      <trkpt lat="43.62609" lon="5.44307">
        <ele>480</ele>
        <time>2022-10-26T10:02:30.000Z</time>
      </trkpt>
      <trkpt lat="43.6261" lon="5.44304">
        <ele>480.2</ele>
        <time>2022-10-26T10:02:33.000Z</time>
      </trkpt>
      <trkpt lat="43.62611" lon="5.44302">
        <ele>480.4</ele>
        <time>2022-10-26T10:02:35.000Z</time>
      </trkpt>
      <trkpt lat="43.62612" lon="5.44299">
        <ele>480.3</ele>
        <time>2022-10-26T10:02:37.000Z</time>
      </trkpt>
      <trkpt lat="43.62613" lon="5.44296">
        <ele>480.3</ele>
        <time>2022-10-26T10:02:40.000Z</time>
      </trkpt>
      <trkpt lat="43.62613" lon="5.44293">
        <ele>480.6</ele>
        <time>2022-10-26T10:02:43.000Z</time>
      </trkpt>
      <trkpt lat="43.62614" lon="5.44291">
        <ele>480.5</ele>
        <time>2022-10-26T10:02:45.000Z</time>
      </trkpt>
      <trkpt lat="43.62616" lon="5.44288">
        <ele>480.5</ele>
        <time>2022-10-26T10:02:48.000Z</time>
      </trkpt>
      <trkpt lat="43.62614" lon="5.44285">
        <ele>481.2</ele>
        <time>2022-10-26T10:02:51.000Z</time>
      </trkpt>
      <trkpt lat="43.62615" lon="5.44282">
        <ele>481.4</ele>
        <time>2022-10-26T10:02:54.000Z</time>
      </trkpt>
      <trkpt lat="43.62616" lon="5.4428">
        <ele>481.3</ele>
        <time>2022-10-26T10:02:56.000Z</time>
      </trkpt>
      <trkpt lat="43.62618" lon="5.44278">
        <ele>481.1</ele>
        <time>2022-10-26T10:02:58.000Z</time>
      </trkpt>
      <trkpt lat="43.62619" lon="5.44276">
        <ele>480.8</ele>
        <time>2022-10-26T10:03:01.000Z</time>
      </trkpt>
      <trkpt lat="43.6262" lon="5.44273">
        <ele>480.6</ele>
        <time>2022-10-26T10:03:04.000Z</time>
      </trkpt>
      <trkpt lat="43.62622" lon="5.4427">
        <ele>480.3</ele>
        <time>2022-10-26T10:03:07.000Z</time>
      </trkpt>
      <trkpt lat="43.62622" lon="5.44268">
        <ele>480.2</ele>
        <time>2022-10-26T10:03:10.000Z</time>
      </trkpt>
      <trkpt lat="43.62624" lon="5.44266">
        <ele>479.9</ele>
        <time>2022-10-26T10:03:13.000Z</time>
      </trkpt>
      <trkpt lat="43.62625" lon="5.44264">
        <ele>479.7</ele>
        <time>2022-10-26T10:03:16.000Z</time>
      </trkpt>
      <trkpt lat="43.62626" lon="5.44261">
        <ele>479.7</ele>
        <time>2022-10-26T10:03:19.000Z</time>
      </trkpt>
      <trkpt lat="43.62627" lon="5.44259">
        <ele>479.6</ele>
        <time>2022-10-26T10:03:23.000Z</time>
      </trkpt>
      <trkpt lat="43.62628" lon="5.44256">
        <ele>479.6</ele>
        <time>2022-10-26T10:03:26.000Z</time>
      </trkpt>
      <trkpt lat="43.62629" lon="5.44253">
        <ele>479.5</ele>
        <time>2022-10-26T10:03:29.000Z</time>
      </trkpt>
      <trkpt lat="43.62631" lon="5.4425">
        <ele>479.5</ele>
        <time>2022-10-26T10:03:32.000Z</time>
      </trkpt>
      <trkpt lat="43.62632" lon="5.44248">
        <ele>479.2</ele>
        <time>2022-10-26T10:03:35.000Z</time>
      </trkpt>
      <trkpt lat="43.62633" lon="5.44244">
        <ele>479</ele>
        <time>2022-10-26T10:03:38.000Z</time>
      </trkpt>
      <trkpt lat="43.62635" lon="5.44242">
        <ele>478.7</ele>
        <time>2022-10-26T10:03:41.000Z</time>
      </trkpt>
      <trkpt lat="43.62636" lon="5.4424">
        <ele>478.4</ele>
        <time>2022-10-26T10:03:43.000Z</time>
      </trkpt>
      <trkpt lat="43.62637" lon="5.44237">
        <ele>478.3</ele>
        <time>2022-10-26T10:03:45.000Z</time>
      </trkpt>
      <trkpt lat="43.62638" lon="5.44234">
        <ele>478.2</ele>
        <time>2022-10-26T10:03:47.000Z</time>
      </trkpt>
      <trkpt lat="43.62638" lon="5.4423">
        <ele>478.1</ele>
        <time>2022-10-26T10:03:49.000Z</time>
      </trkpt>
      <trkpt lat="43.62639" lon="5.44227">
        <ele>478</ele>
        <time>2022-10-26T10:03:51.000Z</time>
      </trkpt>
      <trkpt lat="43.62639" lon="5.44225">
        <ele>477.8</ele>
        <time>2022-10-26T10:03:53.000Z</time>
      </trkpt>
      <trkpt lat="43.6264" lon="5.44221">
        <ele>477.5</ele>
        <time>2022-10-26T10:03:55.000Z</time>
      </trkpt>
      <trkpt lat="43.62641" lon="5.44218">
        <ele>477.3</ele>
        <time>2022-10-26T10:03:57.000Z</time>
      </trkpt>
      <trkpt lat="43.62642" lon="5.44215">
        <ele>477.1</ele>
        <time>2022-10-26T10:04:00.000Z</time>
      </trkpt>
      <trkpt lat="43.62642" lon="5.44212">
        <ele>477.1</ele>
        <time>2022-10-26T10:04:02.000Z</time>
      </trkpt>
      <trkpt lat="43.62643" lon="5.44209">
        <ele>477</ele>
        <time>2022-10-26T10:04:04.000Z</time>
      </trkpt>
      <trkpt lat="43.62643" lon="5.44206">
        <ele>477.3</ele>
        <time>2022-10-26T10:04:08.000Z</time>
      </trkpt>
      <trkpt lat="43.62643" lon="5.44203">
        <ele>477.4</ele>
        <time>2022-10-26T10:04:11.000Z</time>
      </trkpt>
      <trkpt lat="43.62643" lon="5.442">
        <ele>477.5</ele>
        <time>2022-10-26T10:04:14.000Z</time>
      </trkpt>
      <trkpt lat="43.62644" lon="5.44197">
        <ele>477.5</ele>
        <time>2022-10-26T10:04:17.000Z</time>
      </trkpt>
      <trkpt lat="43.62645" lon="5.44194">
        <ele>477.4</ele>
        <time>2022-10-26T10:04:20.000Z</time>
      </trkpt>
      <trkpt lat="43.62645" lon="5.4419">
        <ele>477.3</ele>
        <time>2022-10-26T10:04:23.000Z</time>
      </trkpt>
      <trkpt lat="43.62645" lon="5.44187">
        <ele>477.4</ele>
        <time>2022-10-26T10:04:26.000Z</time>
      </trkpt>
      <trkpt lat="43.62646" lon="5.44184">
        <ele>477.1</ele>
        <time>2022-10-26T10:04:29.000Z</time>
      </trkpt>
      <trkpt lat="43.62647" lon="5.44181">
        <ele>476.9</ele>
        <time>2022-10-26T10:04:32.000Z</time>
      </trkpt>
      <trkpt lat="43.62648" lon="5.44177">
        <ele>476.7</ele>
        <time>2022-10-26T10:04:35.000Z</time>
      </trkpt>
      <trkpt lat="43.62649" lon="5.44175">
        <ele>476.4</ele>
        <time>2022-10-26T10:04:37.000Z</time>
      </trkpt>
      <trkpt lat="43.6265" lon="5.44172">
        <ele>476.4</ele>
        <time>2022-10-26T10:04:39.000Z</time>
      </trkpt>
      <trkpt lat="43.6265" lon="5.44169">
        <ele>476.6</ele>
        <time>2022-10-26T10:04:42.000Z</time>
      </trkpt>
      <trkpt lat="43.6265" lon="5.44166">
        <ele>476.6</ele>
        <time>2022-10-26T10:04:46.000Z</time>
      </trkpt>
      <trkpt lat="43.62651" lon="5.44163">
        <ele>476.4</ele>
        <time>2022-10-26T10:04:49.000Z</time>
      </trkpt>
      <trkpt lat="43.62652" lon="5.4416">
        <ele>476.3</ele>
        <time>2022-10-26T10:04:52.000Z</time>
      </trkpt>
      <trkpt lat="43.62652" lon="5.44156">
        <ele>476.2</ele>
        <time>2022-10-26T10:04:55.000Z</time>
      </trkpt>
      <trkpt lat="43.62652" lon="5.44154">
        <ele>476.3</ele>
        <time>2022-10-26T10:04:58.000Z</time>
      </trkpt>
      <trkpt lat="43.62653" lon="5.44151">
        <ele>476.2</ele>
        <time>2022-10-26T10:05:01.000Z</time>
      </trkpt>
      <trkpt lat="43.62654" lon="5.44148">
        <ele>476.3</ele>
        <time>2022-10-26T10:05:04.000Z</time>
      </trkpt>
      <trkpt lat="43.62654" lon="5.44145">
        <ele>476.2</ele>
        <time>2022-10-26T10:05:06.000Z</time>
      </trkpt>
      <trkpt lat="43.62656" lon="5.44142">
        <ele>476.1</ele>
        <time>2022-10-26T10:05:10.000Z</time>
      </trkpt>
      <trkpt lat="43.62656" lon="5.44139">
        <ele>476.2</ele>
        <time>2022-10-26T10:05:13.000Z</time>
      </trkpt>
      <trkpt lat="43.62657" lon="5.44136">
        <ele>476.4</ele>
        <time>2022-10-26T10:05:16.000Z</time>
      </trkpt>
      <trkpt lat="43.62658" lon="5.44134">
        <ele>476.6</ele>
        <time>2022-10-26T10:05:25.000Z</time>
      </trkpt>
      <trkpt lat="43.62659" lon="5.44132">
        <ele>476.7</ele>
        <time>2022-10-26T10:05:28.000Z</time>
      </trkpt>
      <trkpt lat="43.6266" lon="5.44129">
        <ele>476.9</ele>
        <time>2022-10-26T10:05:31.000Z</time>
      </trkpt>
      <trkpt lat="43.62661" lon="5.44127">
        <ele>477.2</ele>
        <time>2022-10-26T10:05:37.000Z</time>
      </trkpt>
      <trkpt lat="43.62663" lon="5.44125">
        <ele>477.3</ele>
        <time>2022-10-26T10:05:56.000Z</time>
      </trkpt>
      <trkpt lat="43.62665" lon="5.44122">
        <ele>477.8</ele>
        <time>2022-10-26T10:05:59.000Z</time>
      </trkpt>
      <trkpt lat="43.62666" lon="5.44119">
        <ele>478.2</ele>
        <time>2022-10-26T10:06:02.000Z</time>
      </trkpt>
      <trkpt lat="43.62667" lon="5.44117">
        <ele>478.6</ele>
        <time>2022-10-26T10:06:05.000Z</time>
      </trkpt>
      <trkpt lat="43.62668" lon="5.44114">
        <ele>478.8</ele>
        <time>2022-10-26T10:06:07.000Z</time>
      </trkpt>
      <trkpt lat="43.62668" lon="5.44111">
        <ele>479.2</ele>
        <time>2022-10-26T10:06:10.000Z</time>
      </trkpt>
      <trkpt lat="43.62668" lon="5.44108">
        <ele>479.4</ele>
        <time>2022-10-26T10:06:15.000Z</time>
      </trkpt>
      <trkpt lat="43.62669" lon="5.44105">
        <ele>479.3</ele>
        <time>2022-10-26T10:06:17.000Z</time>
      </trkpt>
      <trkpt lat="43.62669" lon="5.44103">
        <ele>479.2</ele>
        <time>2022-10-26T10:06:20.000Z</time>
      </trkpt>
      <trkpt lat="43.6267" lon="5.44099">
        <ele>478.9</ele>
        <time>2022-10-26T10:06:23.000Z</time>
      </trkpt>
      <trkpt lat="43.62671" lon="5.44096">
        <ele>478.6</ele>
        <time>2022-10-26T10:06:26.000Z</time>
      </trkpt>
      <trkpt lat="43.62671" lon="5.44093">
        <ele>478.7</ele>
        <time>2022-10-26T10:06:28.000Z</time>
      </trkpt>
      <trkpt lat="43.62672" lon="5.4409">
        <ele>478.6</ele>
        <time>2022-10-26T10:06:30.000Z</time>
      </trkpt>
      <trkpt lat="43.62672" lon="5.44088">
        <ele>478.7</ele>
        <time>2022-10-26T10:06:32.000Z</time>
      </trkpt>
      <trkpt lat="43.62672" lon="5.44084">
        <ele>478.7</ele>
        <time>2022-10-26T10:06:35.000Z</time>
      </trkpt>
      <trkpt lat="43.62672" lon="5.44082">
        <ele>478.9</ele>
        <time>2022-10-26T10:06:37.000Z</time>
      </trkpt>
      <trkpt lat="43.62671" lon="5.44079">
        <ele>479.4</ele>
        <time>2022-10-26T10:06:39.000Z</time>
      </trkpt>
      <trkpt lat="43.62671" lon="5.44076">
        <ele>479.8</ele>
        <time>2022-10-26T10:06:41.000Z</time>
      </trkpt>
      <trkpt lat="43.6267" lon="5.44073">
        <ele>480.3</ele>
        <time>2022-10-26T10:06:43.000Z</time>
      </trkpt>
      <trkpt lat="43.62669" lon="5.44071">
        <ele>481</ele>
        <time>2022-10-26T10:06:45.000Z</time>
      </trkpt>
      <trkpt lat="43.62669" lon="5.44069">
        <ele>481</ele>
        <time>2022-10-26T10:06:47.000Z</time>
      </trkpt>
      <trkpt lat="43.6267" lon="5.44065">
        <ele>481</ele>
        <time>2022-10-26T10:06:50.000Z</time>
      </trkpt>
      <trkpt lat="43.62669" lon="5.44062">
        <ele>481.3</ele>
        <time>2022-10-26T10:06:53.000Z</time>
      </trkpt>
      <trkpt lat="43.62669" lon="5.44059">
        <ele>481.6</ele>
        <time>2022-10-26T10:06:56.000Z</time>
      </trkpt>
      <trkpt lat="43.62668" lon="5.44057">
        <ele>482.5</ele>
        <time>2022-10-26T10:06:59.000Z</time>
      </trkpt>
      <trkpt lat="43.62667" lon="5.44054">
        <ele>483.1</ele>
        <time>2022-10-26T10:07:02.000Z</time>
      </trkpt>
      <trkpt lat="43.62667" lon="5.44051">
        <ele>483.2</ele>
        <time>2022-10-26T10:07:05.000Z</time>
      </trkpt>
      <trkpt lat="43.62667" lon="5.44048">
        <ele>483.2</ele>
        <time>2022-10-26T10:07:08.000Z</time>
      </trkpt>
      <trkpt lat="43.62668" lon="5.44045">
        <ele>482.8</ele>
        <time>2022-10-26T10:07:10.000Z</time>
      </trkpt>
      <trkpt lat="43.62669" lon="5.44044">
        <ele>482.2</ele>
        <time>2022-10-26T10:07:12.000Z</time>
      </trkpt>
      <trkpt lat="43.62671" lon="5.44042">
        <ele>481.5</ele>
        <time>2022-10-26T10:07:15.000Z</time>
      </trkpt>
      <trkpt lat="43.62672" lon="5.44039">
        <ele>481</ele>
        <time>2022-10-26T10:07:18.000Z</time>
      </trkpt>
      <trkpt lat="43.62673" lon="5.44036">
        <ele>480.8</ele>
        <time>2022-10-26T10:07:20.000Z</time>
      </trkpt>
      <trkpt lat="43.62673" lon="5.44032">
        <ele>481.1</ele>
        <time>2022-10-26T10:07:22.000Z</time>
      </trkpt>
      <trkpt lat="43.62674" lon="5.44029">
        <ele>480.8</ele>
        <time>2022-10-26T10:07:25.000Z</time>
      </trkpt>
      <trkpt lat="43.62675" lon="5.44026">
        <ele>480.5</ele>
        <time>2022-10-26T10:07:28.000Z</time>
      </trkpt>
      <trkpt lat="43.62675" lon="5.44023">
        <ele>480.8</ele>
        <time>2022-10-26T10:07:31.000Z</time>
      </trkpt>
      <trkpt lat="43.62675" lon="5.44021">
        <ele>480.9</ele>
        <time>2022-10-26T10:07:33.000Z</time>
      </trkpt>
      <trkpt lat="43.62675" lon="5.44017">
        <ele>481</ele>
        <time>2022-10-26T10:07:35.000Z</time>
      </trkpt>
      <trkpt lat="43.62676" lon="5.44015">
        <ele>480.9</ele>
        <time>2022-10-26T10:07:38.000Z</time>
      </trkpt>
      <trkpt lat="43.62677" lon="5.44012">
        <ele>480.6</ele>
        <time>2022-10-26T10:07:41.000Z</time>
      </trkpt>
      <trkpt lat="43.62678" lon="5.4401">
        <ele>480.5</ele>
        <time>2022-10-26T10:07:43.000Z</time>
      </trkpt>
      <trkpt lat="43.62679" lon="5.44007">
        <ele>480.4</ele>
        <time>2022-10-26T10:07:46.000Z</time>
      </trkpt>
      <trkpt lat="43.6268" lon="5.44004">
        <ele>480.4</ele>
        <time>2022-10-26T10:07:49.000Z</time>
      </trkpt>
      <trkpt lat="43.6268" lon="5.44">
        <ele>480.6</ele>
        <time>2022-10-26T10:07:52.000Z</time>
      </trkpt>
      <trkpt lat="43.62679" lon="5.43998">
        <ele>481.1</ele>
        <time>2022-10-26T10:07:55.000Z</time>
      </trkpt>
      <trkpt lat="43.62678" lon="5.43995">
        <ele>481.5</ele>
        <time>2022-10-26T10:07:58.000Z</time>
      </trkpt>
      <trkpt lat="43.62677" lon="5.43992">
        <ele>481.7</ele>
        <time>2022-10-26T10:08:01.000Z</time>
      </trkpt>
      <trkpt lat="43.62678" lon="5.43989">
        <ele>481.6</ele>
        <time>2022-10-26T10:08:04.000Z</time>
      </trkpt>
      <trkpt lat="43.62679" lon="5.43987">
        <ele>481.3</ele>
        <time>2022-10-26T10:08:07.000Z</time>
      </trkpt>
      <trkpt lat="43.6268" lon="5.43983">
        <ele>481.3</ele>
        <time>2022-10-26T10:08:10.000Z</time>
      </trkpt>
      <trkpt lat="43.62679" lon="5.43981">
        <ele>481.7</ele>
        <time>2022-10-26T10:08:13.000Z</time>
      </trkpt>
      <trkpt lat="43.62678" lon="5.43978">
        <ele>482.1</ele>
        <time>2022-10-26T10:08:16.000Z</time>
      </trkpt>
      <trkpt lat="43.62677" lon="5.43975">
        <ele>482.3</ele>
        <time>2022-10-26T10:08:19.000Z</time>
      </trkpt>
      <trkpt lat="43.62676" lon="5.43971">
        <ele>482.6</ele>
        <time>2022-10-26T10:08:22.000Z</time>
      </trkpt>
      <trkpt lat="43.62676" lon="5.43968">
        <ele>482.7</ele>
        <time>2022-10-26T10:08:25.000Z</time>
      </trkpt>
      <trkpt lat="43.62677" lon="5.43966">
        <ele>482.7</ele>
        <time>2022-10-26T10:08:27.000Z</time>
      </trkpt>
      <trkpt lat="43.62677" lon="5.43962">
        <ele>482.8</ele>
        <time>2022-10-26T10:08:29.000Z</time>
      </trkpt>
      <trkpt lat="43.62678" lon="5.43959">
        <ele>482.7</ele>
        <time>2022-10-26T10:08:32.000Z</time>
      </trkpt>
      <trkpt lat="43.62679" lon="5.43956">
        <ele>482.7</ele>
        <time>2022-10-26T10:08:35.000Z</time>
      </trkpt>
      <trkpt lat="43.6268" lon="5.43953">
        <ele>482.7</ele>
        <time>2022-10-26T10:08:37.000Z</time>
      </trkpt>
      <trkpt lat="43.62681" lon="5.43951">
        <ele>482.5</ele>
        <time>2022-10-26T10:08:40.000Z</time>
      </trkpt>
      <trkpt lat="43.62683" lon="5.43949">
        <ele>482.3</ele>
        <time>2022-10-26T10:08:43.000Z</time>
      </trkpt>
      <trkpt lat="43.62686" lon="5.4395">
        <ele>481.9</ele>
        <time>2022-10-26T10:08:46.000Z</time>
      </trkpt>
      <trkpt lat="43.62688" lon="5.43951">
        <ele>481.5</ele>
        <time>2022-10-26T10:08:51.000Z</time>
      </trkpt>
      <trkpt lat="43.62689" lon="5.43953">
        <ele>481</ele>
        <time>2022-10-26T10:08:56.000Z</time>
      </trkpt>
      <trkpt lat="43.62691" lon="5.43952">
        <ele>480.8</ele>
        <time>2022-10-26T10:08:58.000Z</time>
      </trkpt>
      <trkpt lat="43.62693" lon="5.4395">
        <ele>480.7</ele>
        <time>2022-10-26T10:09:02.000Z</time>
      </trkpt>
      <trkpt lat="43.62694" lon="5.43949">
        <ele>480.6</ele>
        <time>2022-10-26T10:09:05.000Z</time>
      </trkpt>
      <trkpt lat="43.62696" lon="5.43948">
        <ele>479.8</ele>
        <time>2022-10-26T10:09:13.000Z</time>
      </trkpt>
      <trkpt lat="43.62698" lon="5.43946">
        <ele>478.9</ele>
        <time>2022-10-26T10:09:16.000Z</time>
      </trkpt>
      <trkpt lat="43.627" lon="5.43943">
        <ele>478.2</ele>
        <time>2022-10-26T10:09:20.000Z</time>
      </trkpt>
      <trkpt lat="43.62702" lon="5.43942">
        <ele>477.3</ele>
        <time>2022-10-26T10:09:31.000Z</time>
      </trkpt>
      <trkpt lat="43.62704" lon="5.4394">
        <ele>476.5</ele>
        <time>2022-10-26T10:09:38.000Z</time>
      </trkpt>
      <trkpt lat="43.62705" lon="5.43937">
        <ele>476.2</ele>
        <time>2022-10-26T10:09:43.000Z</time>
      </trkpt>
      <trkpt lat="43.62706" lon="5.43935">
        <ele>476.2</ele>
        <time>2022-10-26T10:09:47.000Z</time>
      </trkpt>
      <trkpt lat="43.62707" lon="5.43933">
        <ele>475.7</ele>
        <time>2022-10-26T10:10:05.000Z</time>
      </trkpt>
      <trkpt lat="43.62708" lon="5.43931">
        <ele>475</ele>
        <time>2022-10-26T10:10:29.000Z</time>
      </trkpt>
      <trkpt lat="43.6271" lon="5.43929">
        <ele>474.4</ele>
        <time>2022-10-26T10:10:41.000Z</time>
      </trkpt>
      <trkpt lat="43.62712" lon="5.43929">
        <ele>473.4</ele>
        <time>2022-10-26T10:10:57.000Z</time>
      </trkpt>
      <trkpt lat="43.62714" lon="5.43927">
        <ele>472.4</ele>
        <time>2022-10-26T10:11:03.000Z</time>
      </trkpt>
      <trkpt lat="43.62715" lon="5.43926">
        <ele>471.7</ele>
        <time>2022-10-26T10:11:09.000Z</time>
      </trkpt>
      <trkpt lat="43.62717" lon="5.43925">
        <ele>470.7</ele>
        <time>2022-10-26T10:11:13.000Z</time>
      </trkpt>
      <trkpt lat="43.62719" lon="5.43923">
        <ele>469.6</ele>
        <time>2022-10-26T10:11:16.000Z</time>
      </trkpt>
      <trkpt lat="43.62721" lon="5.43922">
        <ele>468.7</ele>
        <time>2022-10-26T10:11:19.000Z</time>
      </trkpt>
      <trkpt lat="43.62723" lon="5.43921">
        <ele>467.7</ele>
        <time>2022-10-26T10:11:23.000Z</time>
      </trkpt>
      <trkpt lat="43.62724" lon="5.43919">
        <ele>467.4</ele>
        <time>2022-10-26T10:11:28.000Z</time>
      </trkpt>
      <trkpt lat="43.62726" lon="5.43917">
        <ele>466.8</ele>
        <time>2022-10-26T10:11:31.000Z</time>
      </trkpt>
      <trkpt lat="43.62728" lon="5.43915">
        <ele>466.5</ele>
        <time>2022-10-26T10:11:34.000Z</time>
      </trkpt>
      <trkpt lat="43.62729" lon="5.43912">
        <ele>466.4</ele>
        <time>2022-10-26T10:11:36.000Z</time>
      </trkpt>
      <trkpt lat="43.62731" lon="5.43912">
        <ele>465.9</ele>
        <time>2022-10-26T10:11:50.000Z</time>
      </trkpt>
      <trkpt lat="43.62733" lon="5.4391">
        <ele>465.4</ele>
        <time>2022-10-26T10:11:53.000Z</time>
      </trkpt>
      <trkpt lat="43.62734" lon="5.43912">
        <ele>464.9</ele>
        <time>2022-10-26T10:11:56.000Z</time>
      </trkpt>
      <trkpt lat="43.62736" lon="5.43914">
        <ele>464.3</ele>
        <time>2022-10-26T10:11:59.000Z</time>
      </trkpt>
      <trkpt lat="43.62738" lon="5.43915">
        <ele>463.7</ele>
        <time>2022-10-26T10:12:03.000Z</time>
      </trkpt>
      <trkpt lat="43.6274" lon="5.43915">
        <ele>463.1</ele>
        <time>2022-10-26T10:12:07.000Z</time>
      </trkpt>
      <trkpt lat="43.62742" lon="5.43914">
        <ele>462.5</ele>
        <time>2022-10-26T10:12:13.000Z</time>
      </trkpt>
      <trkpt lat="43.62744" lon="5.43915">
        <ele>461.9</ele>
        <time>2022-10-26T10:12:15.000Z</time>
      </trkpt>
      <trkpt lat="43.62744" lon="5.43918">
        <ele>461.7</ele>
        <time>2022-10-26T10:12:18.000Z</time>
      </trkpt>
      <trkpt lat="43.62746" lon="5.43921">
        <ele>460.8</ele>
        <time>2022-10-26T10:12:27.000Z</time>
      </trkpt>
      <trkpt lat="43.62747" lon="5.43918">
        <ele>460.8</ele>
        <time>2022-10-26T10:12:29.000Z</time>
      </trkpt>
      <trkpt lat="43.62746" lon="5.43915">
        <ele>461.3</ele>
        <time>2022-10-26T10:12:32.000Z</time>
      </trkpt>
      <trkpt lat="43.62746" lon="5.43911">
        <ele>461.7</ele>
        <time>2022-10-26T10:12:35.000Z</time>
      </trkpt>
      <trkpt lat="43.62746" lon="5.43908">
        <ele>461.8</ele>
        <time>2022-10-26T10:12:38.000Z</time>
      </trkpt>
      <trkpt lat="43.62746" lon="5.43905">
        <ele>461.9</ele>
        <time>2022-10-26T10:12:41.000Z</time>
      </trkpt>
      <trkpt lat="43.62747" lon="5.43902">
        <ele>462</ele>
        <time>2022-10-26T10:12:44.000Z</time>
      </trkpt>
      <trkpt lat="43.62747" lon="5.43899">
        <ele>462.2</ele>
        <time>2022-10-26T10:12:46.000Z</time>
      </trkpt>
      <trkpt lat="43.62747" lon="5.43896">
        <ele>462.5</ele>
        <time>2022-10-26T10:12:48.000Z</time>
      </trkpt>
      <trkpt lat="43.62747" lon="5.43893">
        <ele>462.7</ele>
        <time>2022-10-26T10:12:50.000Z</time>
      </trkpt>
      <trkpt lat="43.62747" lon="5.43889">
        <ele>463</ele>
        <time>2022-10-26T10:12:53.000Z</time>
      </trkpt>
      <trkpt lat="43.62747" lon="5.43886">
        <ele>463.4</ele>
        <time>2022-10-26T10:12:56.000Z</time>
      </trkpt>
      <trkpt lat="43.62746" lon="5.43882">
        <ele>463.8</ele>
        <time>2022-10-26T10:12:58.000Z</time>
      </trkpt>
      <trkpt lat="43.62746" lon="5.43879">
        <ele>464.2</ele>
        <time>2022-10-26T10:13:00.000Z</time>
      </trkpt>
      <trkpt lat="43.62746" lon="5.43875">
        <ele>464.2</ele>
        <time>2022-10-26T10:13:03.000Z</time>
      </trkpt>
      <trkpt lat="43.62747" lon="5.43873">
        <ele>464.1</ele>
        <time>2022-10-26T10:13:12.000Z</time>
      </trkpt>
      <trkpt lat="43.62748" lon="5.4387">
        <ele>463.9</ele>
        <time>2022-10-26T10:13:14.000Z</time>
      </trkpt>
      <trkpt lat="43.62749" lon="5.43868">
        <ele>463.9</ele>
        <time>2022-10-26T10:13:16.000Z</time>
      </trkpt>
      <trkpt lat="43.62749" lon="5.43865">
        <ele>464.1</ele>
        <time>2022-10-26T10:13:19.000Z</time>
      </trkpt>
      <trkpt lat="43.62749" lon="5.43862">
        <ele>464.2</ele>
        <time>2022-10-26T10:13:21.000Z</time>
      </trkpt>
      <trkpt lat="43.6275" lon="5.4386">
        <ele>464.1</ele>
        <time>2022-10-26T10:13:23.000Z</time>
      </trkpt>
      <trkpt lat="43.62751" lon="5.43856">
        <ele>463.8</ele>
        <time>2022-10-26T10:13:25.000Z</time>
      </trkpt>
      <trkpt lat="43.62751" lon="5.43853">
        <ele>463.6</ele>
        <time>2022-10-26T10:13:27.000Z</time>
      </trkpt>
      <trkpt lat="43.62752" lon="5.43849">
        <ele>463.5</ele>
        <time>2022-10-26T10:13:30.000Z</time>
      </trkpt>
      <trkpt lat="43.62752" lon="5.43846">
        <ele>463.4</ele>
        <time>2022-10-26T10:13:32.000Z</time>
      </trkpt>
      <trkpt lat="43.62752" lon="5.43843">
        <ele>463.5</ele>
        <time>2022-10-26T10:13:34.000Z</time>
      </trkpt>
      <trkpt lat="43.62751" lon="5.4384">
        <ele>463.6</ele>
        <time>2022-10-26T10:13:36.000Z</time>
      </trkpt>
      <trkpt lat="43.62751" lon="5.43837">
        <ele>463.6</ele>
        <time>2022-10-26T10:13:38.000Z</time>
      </trkpt>
      <trkpt lat="43.62751" lon="5.43833">
        <ele>463.7</ele>
        <time>2022-10-26T10:13:40.000Z</time>
      </trkpt>
      <trkpt lat="43.62751" lon="5.43831">
        <ele>463.9</ele>
        <time>2022-10-26T10:13:42.000Z</time>
      </trkpt>
      <trkpt lat="43.62751" lon="5.43827">
        <ele>464</ele>
        <time>2022-10-26T10:13:45.000Z</time>
      </trkpt>
      <trkpt lat="43.62752" lon="5.43825">
        <ele>463.8</ele>
        <time>2022-10-26T10:13:47.000Z</time>
      </trkpt>
      <trkpt lat="43.62752" lon="5.43822">
        <ele>463.8</ele>
        <time>2022-10-26T10:13:49.000Z</time>
      </trkpt>
      <trkpt lat="43.62753" lon="5.4382">
        <ele>463.5</ele>
        <time>2022-10-26T10:13:51.000Z</time>
      </trkpt>
      <trkpt lat="43.62754" lon="5.43817">
        <ele>463.4</ele>
        <time>2022-10-26T10:13:53.000Z</time>
      </trkpt>
      <trkpt lat="43.62755" lon="5.43814">
        <ele>463.3</ele>
        <time>2022-10-26T10:13:55.000Z</time>
      </trkpt>
      <trkpt lat="43.62756" lon="5.43811">
        <ele>463.1</ele>
        <time>2022-10-26T10:13:57.000Z</time>
      </trkpt>
      <trkpt lat="43.62756" lon="5.43809">
        <ele>462.9</ele>
        <time>2022-10-26T10:13:59.000Z</time>
      </trkpt>
      <trkpt lat="43.62757" lon="5.43805">
        <ele>462.7</ele>
        <time>2022-10-26T10:14:02.000Z</time>
      </trkpt>
      <trkpt lat="43.62757" lon="5.43801">
        <ele>462.5</ele>
        <time>2022-10-26T10:14:05.000Z</time>
      </trkpt>
      <trkpt lat="43.62757" lon="5.43798">
        <ele>462.4</ele>
        <time>2022-10-26T10:14:07.000Z</time>
      </trkpt>
      <trkpt lat="43.62757" lon="5.43795">
        <ele>462.5</ele>
        <time>2022-10-26T10:14:09.000Z</time>
      </trkpt>
      <trkpt lat="43.62756" lon="5.43792">
        <ele>462.7</ele>
        <time>2022-10-26T10:14:11.000Z</time>
      </trkpt>
      <trkpt lat="43.62754" lon="5.43788">
        <ele>463</ele>
        <time>2022-10-26T10:14:13.000Z</time>
      </trkpt>
      <trkpt lat="43.62754" lon="5.43786">
        <ele>463.1</ele>
        <time>2022-10-26T10:14:15.000Z</time>
      </trkpt>
      <trkpt lat="43.62753" lon="5.43782">
        <ele>463.3</ele>
        <time>2022-10-26T10:14:18.000Z</time>
      </trkpt>
      <trkpt lat="43.62753" lon="5.4378">
        <ele>463.3</ele>
        <time>2022-10-26T10:14:20.000Z</time>
      </trkpt>
      <trkpt lat="43.62752" lon="5.43777">
        <ele>463.4</ele>
        <time>2022-10-26T10:14:22.000Z</time>
      </trkpt>
      <trkpt lat="43.62751" lon="5.43774">
        <ele>463.3</ele>
        <time>2022-10-26T10:14:24.000Z</time>
      </trkpt>
      <trkpt lat="43.62751" lon="5.43771">
        <ele>463.3</ele>
        <time>2022-10-26T10:14:26.000Z</time>
      </trkpt>
      <trkpt lat="43.6275" lon="5.43768">
        <ele>463.2</ele>
        <time>2022-10-26T10:14:28.000Z</time>
      </trkpt>
      <trkpt lat="43.6275" lon="5.43765">
        <ele>462.9</ele>
        <time>2022-10-26T10:14:30.000Z</time>
      </trkpt>
      <trkpt lat="43.62749" lon="5.43762">
        <ele>463.1</ele>
        <time>2022-10-26T10:14:32.000Z</time>
      </trkpt>
      <trkpt lat="43.62748" lon="5.4376">
        <ele>463.2</ele>
        <time>2022-10-26T10:14:34.000Z</time>
      </trkpt>
      <trkpt lat="43.62748" lon="5.43757">
        <ele>463.1</ele>
        <time>2022-10-26T10:14:36.000Z</time>
      </trkpt>
      <trkpt lat="43.62747" lon="5.43754">
        <ele>463.1</ele>
        <time>2022-10-26T10:14:38.000Z</time>
      </trkpt>
      <trkpt lat="43.62746" lon="5.43751">
        <ele>463</ele>
        <time>2022-10-26T10:14:40.000Z</time>
      </trkpt>
      <trkpt lat="43.62745" lon="5.43748">
        <ele>463</ele>
        <time>2022-10-26T10:14:42.000Z</time>
      </trkpt>
      <trkpt lat="43.62744" lon="5.43745">
        <ele>462.9</ele>
        <time>2022-10-26T10:14:44.000Z</time>
      </trkpt>
      <trkpt lat="43.62744" lon="5.43742">
        <ele>462.6</ele>
        <time>2022-10-26T10:14:46.000Z</time>
      </trkpt>
      <trkpt lat="43.62744" lon="5.4374">
        <ele>462.4</ele>
        <time>2022-10-26T10:14:48.000Z</time>
      </trkpt>
      <trkpt lat="43.62743" lon="5.43737">
        <ele>462.2</ele>
        <time>2022-10-26T10:14:50.000Z</time>
      </trkpt>
      <trkpt lat="43.62743" lon="5.43734">
        <ele>462</ele>
        <time>2022-10-26T10:14:52.000Z</time>
      </trkpt>
      <trkpt lat="43.62742" lon="5.43732">
        <ele>461.9</ele>
        <time>2022-10-26T10:14:54.000Z</time>
      </trkpt>
      <trkpt lat="43.62741" lon="5.43729">
        <ele>461.7</ele>
        <time>2022-10-26T10:14:56.000Z</time>
      </trkpt>
      <trkpt lat="43.6274" lon="5.43727">
        <ele>461.6</ele>
        <time>2022-10-26T10:14:58.000Z</time>
      </trkpt>
      <trkpt lat="43.6274" lon="5.43724">
        <ele>461.3</ele>
        <time>2022-10-26T10:15:00.000Z</time>
      </trkpt>
      <trkpt lat="43.6274" lon="5.43721">
        <ele>461.1</ele>
        <time>2022-10-26T10:15:02.000Z</time>
      </trkpt>
      <trkpt lat="43.62739" lon="5.43718">
        <ele>460.8</ele>
        <time>2022-10-26T10:15:04.000Z</time>
      </trkpt>
      <trkpt lat="43.62738" lon="5.43715">
        <ele>460.5</ele>
        <time>2022-10-26T10:15:07.000Z</time>
      </trkpt>
      <trkpt lat="43.62738" lon="5.43712">
        <ele>460.2</ele>
        <time>2022-10-26T10:15:09.000Z</time>
      </trkpt>
      <trkpt lat="43.62737" lon="5.4371">
        <ele>460.1</ele>
        <time>2022-10-26T10:15:11.000Z</time>
      </trkpt>
      <trkpt lat="43.62736" lon="5.43707">
        <ele>459.9</ele>
        <time>2022-10-26T10:15:13.000Z</time>
      </trkpt>
      <trkpt lat="43.62734" lon="5.43705">
        <ele>459.9</ele>
        <time>2022-10-26T10:15:15.000Z</time>
      </trkpt>
      <trkpt lat="43.62732" lon="5.43702">
        <ele>459.9</ele>
        <time>2022-10-26T10:15:17.000Z</time>
      </trkpt>
      <trkpt lat="43.6273" lon="5.437">
        <ele>460</ele>
        <time>2022-10-26T10:15:19.000Z</time>
      </trkpt>
      <trkpt lat="43.62729" lon="5.43698">
        <ele>460.1</ele>
        <time>2022-10-26T10:15:22.000Z</time>
      </trkpt>
      <trkpt lat="43.62726" lon="5.43697">
        <ele>460.5</ele>
        <time>2022-10-26T10:15:25.000Z</time>
      </trkpt>
      <trkpt lat="43.62724" lon="5.43697">
        <ele>461</ele>
        <time>2022-10-26T10:15:34.000Z</time>
      </trkpt>
      <trkpt lat="43.62722" lon="5.43694">
        <ele>461.1</ele>
        <time>2022-10-26T10:15:37.000Z</time>
      </trkpt>
      <trkpt lat="43.6272" lon="5.43692">
        <ele>460.9</ele>
        <time>2022-10-26T10:15:40.000Z</time>
      </trkpt>
      <trkpt lat="43.62717" lon="5.4369">
        <ele>460.8</ele>
        <time>2022-10-26T10:15:42.000Z</time>
      </trkpt>
      <trkpt lat="43.62716" lon="5.43689">
        <ele>460.8</ele>
        <time>2022-10-26T10:15:45.000Z</time>
      </trkpt>
      <trkpt lat="43.62713" lon="5.43687">
        <ele>460.7</ele>
        <time>2022-10-26T10:15:48.000Z</time>
      </trkpt>
      <trkpt lat="43.62712" lon="5.43685">
        <ele>460.5</ele>
        <time>2022-10-26T10:15:50.000Z</time>
      </trkpt>
      <trkpt lat="43.62711" lon="5.43683">
        <ele>460.3</ele>
        <time>2022-10-26T10:15:52.000Z</time>
      </trkpt>
      <trkpt lat="43.62709" lon="5.43682">
        <ele>460.2</ele>
        <time>2022-10-26T10:15:54.000Z</time>
      </trkpt>
      <trkpt lat="43.62707" lon="5.4368">
        <ele>460.1</ele>
        <time>2022-10-26T10:15:56.000Z</time>
      </trkpt>
      <trkpt lat="43.62705" lon="5.43679">
        <ele>460.2</ele>
        <time>2022-10-26T10:15:58.000Z</time>
      </trkpt>
      <trkpt lat="43.62703" lon="5.43678">
        <ele>460.1</ele>
        <time>2022-10-26T10:16:00.000Z</time>
      </trkpt>
      <trkpt lat="43.62701" lon="5.43676">
        <ele>460</ele>
        <time>2022-10-26T10:16:02.000Z</time>
      </trkpt>
      <trkpt lat="43.62699" lon="5.43674">
        <ele>459.9</ele>
        <time>2022-10-26T10:16:04.000Z</time>
      </trkpt>
      <trkpt lat="43.62698" lon="5.43673">
        <ele>459.9</ele>
        <time>2022-10-26T10:16:06.000Z</time>
      </trkpt>
      <trkpt lat="43.62696" lon="5.43671">
        <ele>459.8</ele>
        <time>2022-10-26T10:16:08.000Z</time>
      </trkpt>
      <trkpt lat="43.62694" lon="5.4367">
        <ele>459.7</ele>
        <time>2022-10-26T10:16:10.000Z</time>
      </trkpt>
      <trkpt lat="43.62693" lon="5.43668">
        <ele>459.6</ele>
        <time>2022-10-26T10:16:12.000Z</time>
      </trkpt>
      <trkpt lat="43.62691" lon="5.43666">
        <ele>459.4</ele>
        <time>2022-10-26T10:16:14.000Z</time>
      </trkpt>
      <trkpt lat="43.62689" lon="5.43665">
        <ele>459.5</ele>
        <time>2022-10-26T10:16:16.000Z</time>
      </trkpt>
      <trkpt lat="43.62687" lon="5.43664">
        <ele>459.5</ele>
        <time>2022-10-26T10:16:18.000Z</time>
      </trkpt>
      <trkpt lat="43.62685" lon="5.43663">
        <ele>459.5</ele>
        <time>2022-10-26T10:16:20.000Z</time>
      </trkpt>
      <trkpt lat="43.62684" lon="5.43662">
        <ele>459.6</ele>
        <time>2022-10-26T10:16:22.000Z</time>
      </trkpt>
      <trkpt lat="43.62682" lon="5.4366">
        <ele>459.5</ele>
        <time>2022-10-26T10:16:24.000Z</time>
      </trkpt>
      <trkpt lat="43.6268" lon="5.43659">
        <ele>459.5</ele>
        <time>2022-10-26T10:16:26.000Z</time>
      </trkpt>
      <trkpt lat="43.62678" lon="5.43658">
        <ele>459.5</ele>
        <time>2022-10-26T10:16:28.000Z</time>
      </trkpt>
      <trkpt lat="43.62676" lon="5.43656">
        <ele>459.4</ele>
        <time>2022-10-26T10:16:30.000Z</time>
      </trkpt>
      <trkpt lat="43.62675" lon="5.43654">
        <ele>459.2</ele>
        <time>2022-10-26T10:16:32.000Z</time>
      </trkpt>
      <trkpt lat="43.62673" lon="5.43652">
        <ele>459</ele>
        <time>2022-10-26T10:16:34.000Z</time>
      </trkpt>
      <trkpt lat="43.62672" lon="5.4365">
        <ele>458.8</ele>
        <time>2022-10-26T10:16:36.000Z</time>
      </trkpt>
      <trkpt lat="43.62671" lon="5.43648">
        <ele>458.5</ele>
        <time>2022-10-26T10:16:38.000Z</time>
      </trkpt>
      <trkpt lat="43.62669" lon="5.43646">
        <ele>458.2</ele>
        <time>2022-10-26T10:16:40.000Z</time>
      </trkpt>
      <trkpt lat="43.62668" lon="5.43644">
        <ele>457.9</ele>
        <time>2022-10-26T10:16:42.000Z</time>
      </trkpt>
      <trkpt lat="43.62667" lon="5.43642">
        <ele>457.6</ele>
        <time>2022-10-26T10:16:44.000Z</time>
      </trkpt>
      <trkpt lat="43.62665" lon="5.4364">
        <ele>457.5</ele>
        <time>2022-10-26T10:16:46.000Z</time>
      </trkpt>
      <trkpt lat="43.62663" lon="5.43637">
        <ele>457.5</ele>
        <time>2022-10-26T10:16:49.000Z</time>
      </trkpt>
      <trkpt lat="43.62661" lon="5.43635">
        <ele>457.6</ele>
        <time>2022-10-26T10:16:51.000Z</time>
      </trkpt>
      <trkpt lat="43.6266" lon="5.43633">
        <ele>457.4</ele>
        <time>2022-10-26T10:16:53.000Z</time>
      </trkpt>
      <trkpt lat="43.62659" lon="5.43631">
        <ele>457.4</ele>
        <time>2022-10-26T10:16:55.000Z</time>
      </trkpt>
      <trkpt lat="43.62658" lon="5.43629">
        <ele>457.1</ele>
        <time>2022-10-26T10:16:57.000Z</time>
      </trkpt>
      <trkpt lat="43.62656" lon="5.43627">
        <ele>457</ele>
        <time>2022-10-26T10:16:59.000Z</time>
      </trkpt>
      <trkpt lat="43.62655" lon="5.43624">
        <ele>456.8</ele>
        <time>2022-10-26T10:17:01.000Z</time>
      </trkpt>
      <trkpt lat="43.62654" lon="5.43623">
        <ele>456.6</ele>
        <time>2022-10-26T10:17:03.000Z</time>
      </trkpt>
      <trkpt lat="43.62652" lon="5.4362">
        <ele>456.5</ele>
        <time>2022-10-26T10:17:05.000Z</time>
      </trkpt>
      <trkpt lat="43.6265" lon="5.43619">
        <ele>456.4</ele>
        <time>2022-10-26T10:17:07.000Z</time>
      </trkpt>
      <trkpt lat="43.62648" lon="5.43617">
        <ele>456.3</ele>
        <time>2022-10-26T10:17:09.000Z</time>
      </trkpt>
      <trkpt lat="43.62647" lon="5.43615">
        <ele>456.1</ele>
        <time>2022-10-26T10:17:11.000Z</time>
      </trkpt>
      <trkpt lat="43.62645" lon="5.43614">
        <ele>455.9</ele>
        <time>2022-10-26T10:17:13.000Z</time>
      </trkpt>
      <trkpt lat="43.62644" lon="5.43612">
        <ele>455.5</ele>
        <time>2022-10-26T10:17:15.000Z</time>
      </trkpt>
      <trkpt lat="43.62643" lon="5.43609">
        <ele>455.2</ele>
        <time>2022-10-26T10:17:17.000Z</time>
      </trkpt>
      <trkpt lat="43.62641" lon="5.43607">
        <ele>455.1</ele>
        <time>2022-10-26T10:17:19.000Z</time>
      </trkpt>
      <trkpt lat="43.6264" lon="5.43605">
        <ele>454.7</ele>
        <time>2022-10-26T10:17:21.000Z</time>
      </trkpt>
      <trkpt lat="43.62639" lon="5.43602">
        <ele>454.4</ele>
        <time>2022-10-26T10:17:23.000Z</time>
      </trkpt>
      <trkpt lat="43.62638" lon="5.436">
        <ele>454.2</ele>
        <time>2022-10-26T10:17:25.000Z</time>
      </trkpt>
      <trkpt lat="43.62637" lon="5.43598">
        <ele>454.1</ele>
        <time>2022-10-26T10:17:27.000Z</time>
      </trkpt>
      <trkpt lat="43.62635" lon="5.43596">
        <ele>453.9</ele>
        <time>2022-10-26T10:17:29.000Z</time>
      </trkpt>
      <trkpt lat="43.62634" lon="5.43594">
        <ele>453.8</ele>
        <time>2022-10-26T10:17:31.000Z</time>
      </trkpt>
      <trkpt lat="43.62633" lon="5.43592">
        <ele>453.6</ele>
        <time>2022-10-26T10:17:33.000Z</time>
      </trkpt>
      <trkpt lat="43.62631" lon="5.4359">
        <ele>453.2</ele>
        <time>2022-10-26T10:17:35.000Z</time>
      </trkpt>
      <trkpt lat="43.6263" lon="5.43588">
        <ele>453</ele>
        <time>2022-10-26T10:17:37.000Z</time>
      </trkpt>
      <trkpt lat="43.62629" lon="5.43586">
        <ele>452.6</ele>
        <time>2022-10-26T10:17:39.000Z</time>
      </trkpt>
      <trkpt lat="43.62628" lon="5.43583">
        <ele>452.1</ele>
        <time>2022-10-26T10:17:41.000Z</time>
      </trkpt>
      <trkpt lat="43.62628" lon="5.43581">
        <ele>451.7</ele>
        <time>2022-10-26T10:17:43.000Z</time>
      </trkpt>
      <trkpt lat="43.62627" lon="5.43578">
        <ele>451.3</ele>
        <time>2022-10-26T10:17:45.000Z</time>
      </trkpt>
      <trkpt lat="43.62625" lon="5.43576">
        <ele>451.1</ele>
        <time>2022-10-26T10:17:47.000Z</time>
      </trkpt>
      <trkpt lat="43.62624" lon="5.43574">
        <ele>450.8</ele>
        <time>2022-10-26T10:17:49.000Z</time>
      </trkpt>
      <trkpt lat="43.62623" lon="5.43572">
        <ele>450.6</ele>
        <time>2022-10-26T10:17:51.000Z</time>
      </trkpt>
      <trkpt lat="43.62621" lon="5.43571">
        <ele>450.5</ele>
        <time>2022-10-26T10:17:53.000Z</time>
      </trkpt>
      <trkpt lat="43.6262" lon="5.43569">
        <ele>450.3</ele>
        <time>2022-10-26T10:17:55.000Z</time>
      </trkpt>
      <trkpt lat="43.62618" lon="5.43567">
        <ele>450.2</ele>
        <time>2022-10-26T10:17:57.000Z</time>
      </trkpt>
      <trkpt lat="43.62617" lon="5.43564">
        <ele>449.7</ele>
        <time>2022-10-26T10:18:00.000Z</time>
      </trkpt>
      <trkpt lat="43.62617" lon="5.43561">
        <ele>449.2</ele>
        <time>2022-10-26T10:18:02.000Z</time>
      </trkpt>
      <trkpt lat="43.62616" lon="5.43557">
        <ele>448.7</ele>
        <time>2022-10-26T10:18:04.000Z</time>
      </trkpt>
      <trkpt lat="43.62615" lon="5.43555">
        <ele>448.3</ele>
        <time>2022-10-26T10:18:06.000Z</time>
      </trkpt>
      <trkpt lat="43.62616" lon="5.43552">
        <ele>447.7</ele>
        <time>2022-10-26T10:18:09.000Z</time>
      </trkpt>
      <trkpt lat="43.62616" lon="5.43549">
        <ele>447.2</ele>
        <time>2022-10-26T10:18:12.000Z</time>
      </trkpt>
      <trkpt lat="43.62618" lon="5.43547">
        <ele>446.4</ele>
        <time>2022-10-26T10:18:15.000Z</time>
      </trkpt>
      <trkpt lat="43.6262" lon="5.43546">
        <ele>446</ele>
        <time>2022-10-26T10:18:22.000Z</time>
      </trkpt>
      <trkpt lat="43.62622" lon="5.43545">
        <ele>445.4</ele>
        <time>2022-10-26T10:18:25.000Z</time>
      </trkpt>
      <trkpt lat="43.62624" lon="5.43547">
        <ele>445.3</ele>
        <time>2022-10-26T10:18:28.000Z</time>
      </trkpt>
      <trkpt lat="43.62626" lon="5.43548">
        <ele>445.3</ele>
        <time>2022-10-26T10:18:30.000Z</time>
      </trkpt>
      <trkpt lat="43.62629" lon="5.43548">
        <ele>445</ele>
        <time>2022-10-26T10:18:33.000Z</time>
      </trkpt>
      <trkpt lat="43.6263" lon="5.43549">
        <ele>444.9</ele>
        <time>2022-10-26T10:18:35.000Z</time>
      </trkpt>
      <trkpt lat="43.62632" lon="5.4355">
        <ele>444.8</ele>
        <time>2022-10-26T10:18:38.000Z</time>
      </trkpt>
      <trkpt lat="43.62634" lon="5.43551">
        <ele>444.8</ele>
        <time>2022-10-26T10:19:17.000Z</time>
      </trkpt>
      <trkpt lat="43.62635" lon="5.43551">
        <ele>444.6</ele>
        <time>2022-10-26T10:19:20.000Z</time>
      </trkpt>
      <trkpt lat="43.62638" lon="5.43552">
        <ele>444.4</ele>
        <time>2022-10-26T10:19:23.000Z</time>
      </trkpt>
      <trkpt lat="43.6264" lon="5.43552">
        <ele>444.1</ele>
        <time>2022-10-26T10:19:25.000Z</time>
      </trkpt>
      <trkpt lat="43.62642" lon="5.43552">
        <ele>443.3</ele>
        <time>2022-10-26T10:19:28.000Z</time>
      </trkpt>
      <trkpt lat="43.62645" lon="5.43552">
        <ele>442.7</ele>
        <time>2022-10-26T10:19:31.000Z</time>
      </trkpt>
      <trkpt lat="43.62647" lon="5.43553">
        <ele>442.2</ele>
        <time>2022-10-26T10:19:34.000Z</time>
      </trkpt>
      <trkpt lat="43.62649" lon="5.43554">
        <ele>441.9</ele>
        <time>2022-10-26T10:19:36.000Z</time>
      </trkpt>
      <trkpt lat="43.62651" lon="5.43554">
        <ele>441.6</ele>
        <time>2022-10-26T10:19:38.000Z</time>
      </trkpt>
      <trkpt lat="43.62654" lon="5.43556">
        <ele>441.3</ele>
        <time>2022-10-26T10:19:41.000Z</time>
      </trkpt>
      <trkpt lat="43.62656" lon="5.43557">
        <ele>441.1</ele>
        <time>2022-10-26T10:19:44.000Z</time>
      </trkpt>
      <trkpt lat="43.62658" lon="5.43558">
        <ele>441</ele>
        <time>2022-10-26T10:19:46.000Z</time>
      </trkpt>
      <trkpt lat="43.62659" lon="5.43559">
        <ele>440.7</ele>
        <time>2022-10-26T10:19:48.000Z</time>
      </trkpt>
      <trkpt lat="43.62662" lon="5.43559">
        <ele>440.2</ele>
        <time>2022-10-26T10:19:50.000Z</time>
      </trkpt>
      <trkpt lat="43.62664" lon="5.43559">
        <ele>439.8</ele>
        <time>2022-10-26T10:19:52.000Z</time>
      </trkpt>
      <trkpt lat="43.62665" lon="5.4356">
        <ele>439.5</ele>
        <time>2022-10-26T10:19:54.000Z</time>
      </trkpt>
      <trkpt lat="43.62667" lon="5.43562">
        <ele>439.7</ele>
        <time>2022-10-26T10:19:56.000Z</time>
      </trkpt>
      <trkpt lat="43.62668" lon="5.43563">
        <ele>440</ele>
        <time>2022-10-26T10:19:58.000Z</time>
      </trkpt>
      <trkpt lat="43.6267" lon="5.43564">
        <ele>440.1</ele>
        <time>2022-10-26T10:20:01.000Z</time>
      </trkpt>
      <trkpt lat="43.62672" lon="5.43565">
        <ele>440</ele>
        <time>2022-10-26T10:20:03.000Z</time>
      </trkpt>
      <trkpt lat="43.62674" lon="5.43565">
        <ele>439.6</ele>
        <time>2022-10-26T10:20:05.000Z</time>
      </trkpt>
      <trkpt lat="43.62676" lon="5.43566">
        <ele>439.6</ele>
        <time>2022-10-26T10:20:08.000Z</time>
      </trkpt>
      <trkpt lat="43.62678" lon="5.43566">
        <ele>439.5</ele>
        <time>2022-10-26T10:20:10.000Z</time>
      </trkpt>
      <trkpt lat="43.62681" lon="5.43567">
        <ele>439.5</ele>
        <time>2022-10-26T10:20:13.000Z</time>
      </trkpt>
      <trkpt lat="43.62683" lon="5.43568">
        <ele>439.3</ele>
        <time>2022-10-26T10:20:15.000Z</time>
      </trkpt>
      <trkpt lat="43.62685" lon="5.43569">
        <ele>439.2</ele>
        <time>2022-10-26T10:20:18.000Z</time>
      </trkpt>
      <trkpt lat="43.62687" lon="5.43569">
        <ele>438.9</ele>
        <time>2022-10-26T10:20:20.000Z</time>
      </trkpt>
      <trkpt lat="43.6269" lon="5.43569">
        <ele>438.7</ele>
        <time>2022-10-26T10:20:23.000Z</time>
      </trkpt>
      <trkpt lat="43.62692" lon="5.4357">
        <ele>438.4</ele>
        <time>2022-10-26T10:20:26.000Z</time>
      </trkpt>
      <trkpt lat="43.62695" lon="5.43571">
        <ele>438.2</ele>
        <time>2022-10-26T10:20:29.000Z</time>
      </trkpt>
      <trkpt lat="43.62697" lon="5.43572">
        <ele>438</ele>
        <time>2022-10-26T10:20:31.000Z</time>
      </trkpt>
      <trkpt lat="43.62699" lon="5.43572">
        <ele>437.6</ele>
        <time>2022-10-26T10:20:33.000Z</time>
      </trkpt>
      <trkpt lat="43.62701" lon="5.43572">
        <ele>437.3</ele>
        <time>2022-10-26T10:20:36.000Z</time>
      </trkpt>
      <trkpt lat="43.62703" lon="5.43573">
        <ele>437</ele>
        <time>2022-10-26T10:20:38.000Z</time>
      </trkpt>
      <trkpt lat="43.62705" lon="5.43574">
        <ele>436.7</ele>
        <time>2022-10-26T10:20:40.000Z</time>
      </trkpt>
      <trkpt lat="43.62707" lon="5.43574">
        <ele>436.4</ele>
        <time>2022-10-26T10:20:42.000Z</time>
      </trkpt>
      <trkpt lat="43.62709" lon="5.43574">
        <ele>436.1</ele>
        <time>2022-10-26T10:20:44.000Z</time>
      </trkpt>
      <trkpt lat="43.62711" lon="5.43576">
        <ele>435.8</ele>
        <time>2022-10-26T10:20:47.000Z</time>
      </trkpt>
      <trkpt lat="43.62714" lon="5.43577">
        <ele>435.6</ele>
        <time>2022-10-26T10:20:50.000Z</time>
      </trkpt>
      <trkpt lat="43.62716" lon="5.43578">
        <ele>435.2</ele>
        <time>2022-10-26T10:20:53.000Z</time>
      </trkpt>
      <trkpt lat="43.62719" lon="5.43579">
        <ele>434.9</ele>
        <time>2022-10-26T10:20:55.000Z</time>
      </trkpt>
      <trkpt lat="43.62721" lon="5.43579">
        <ele>434.6</ele>
        <time>2022-10-26T10:20:57.000Z</time>
      </trkpt>
      <trkpt lat="43.62723" lon="5.4358">
        <ele>434.3</ele>
        <time>2022-10-26T10:20:59.000Z</time>
      </trkpt>
      <trkpt lat="43.62724" lon="5.43581">
        <ele>434.3</ele>
        <time>2022-10-26T10:21:01.000Z</time>
      </trkpt>
      <trkpt lat="43.62726" lon="5.43583">
        <ele>434.1</ele>
        <time>2022-10-26T10:21:03.000Z</time>
      </trkpt>
      <trkpt lat="43.62728" lon="5.43583">
        <ele>433.9</ele>
        <time>2022-10-26T10:21:05.000Z</time>
      </trkpt>
      <trkpt lat="43.6273" lon="5.43585">
        <ele>433.8</ele>
        <time>2022-10-26T10:21:07.000Z</time>
      </trkpt>
      <trkpt lat="43.62732" lon="5.43585">
        <ele>433.6</ele>
        <time>2022-10-26T10:21:09.000Z</time>
      </trkpt>
      <trkpt lat="43.62734" lon="5.43586">
        <ele>433.5</ele>
        <time>2022-10-26T10:21:11.000Z</time>
      </trkpt>
      <trkpt lat="43.62736" lon="5.43587">
        <ele>433.3</ele>
        <time>2022-10-26T10:21:13.000Z</time>
      </trkpt>
      <trkpt lat="43.62737" lon="5.43589">
        <ele>433.3</ele>
        <time>2022-10-26T10:21:15.000Z</time>
      </trkpt>
      <trkpt lat="43.62739" lon="5.4359">
        <ele>433.2</ele>
        <time>2022-10-26T10:21:17.000Z</time>
      </trkpt>
      <trkpt lat="43.62741" lon="5.43591">
        <ele>433.1</ele>
        <time>2022-10-26T10:21:20.000Z</time>
      </trkpt>
      <trkpt lat="43.62744" lon="5.43592">
        <ele>432.8</ele>
        <time>2022-10-26T10:21:23.000Z</time>
      </trkpt>
      <trkpt lat="43.62747" lon="5.43593">
        <ele>432.4</ele>
        <time>2022-10-26T10:21:26.000Z</time>
      </trkpt>
      <trkpt lat="43.62749" lon="5.43593">
        <ele>431.9</ele>
        <time>2022-10-26T10:21:28.000Z</time>
      </trkpt>
      <trkpt lat="43.62751" lon="5.43593">
        <ele>431.7</ele>
        <time>2022-10-26T10:21:30.000Z</time>
      </trkpt>
      <trkpt lat="43.62753" lon="5.43593">
        <ele>431.6</ele>
        <time>2022-10-26T10:21:32.000Z</time>
      </trkpt>
      <trkpt lat="43.62756" lon="5.43594">
        <ele>431.4</ele>
        <time>2022-10-26T10:21:34.000Z</time>
      </trkpt>
      <trkpt lat="43.62758" lon="5.43593">
        <ele>431.2</ele>
        <time>2022-10-26T10:21:36.000Z</time>
      </trkpt>
      <trkpt lat="43.6276" lon="5.43593">
        <ele>431</ele>
        <time>2022-10-26T10:21:38.000Z</time>
      </trkpt>
      <trkpt lat="43.62762" lon="5.43593">
        <ele>430.9</ele>
        <time>2022-10-26T10:21:40.000Z</time>
      </trkpt>
      <trkpt lat="43.62764" lon="5.43593">
        <ele>430.7</ele>
        <time>2022-10-26T10:21:42.000Z</time>
      </trkpt>
      <trkpt lat="43.62766" lon="5.43593">
        <ele>430.6</ele>
        <time>2022-10-26T10:21:44.000Z</time>
      </trkpt>
      <trkpt lat="43.62768" lon="5.43593">
        <ele>430.4</ele>
        <time>2022-10-26T10:21:46.000Z</time>
      </trkpt>
      <trkpt lat="43.62771" lon="5.43593">
        <ele>430.3</ele>
        <time>2022-10-26T10:21:48.000Z</time>
      </trkpt>
      <trkpt lat="43.62773" lon="5.43593">
        <ele>430.1</ele>
        <time>2022-10-26T10:21:50.000Z</time>
      </trkpt>
      <trkpt lat="43.62775" lon="5.43593">
        <ele>429.9</ele>
        <time>2022-10-26T10:21:52.000Z</time>
      </trkpt>
      <trkpt lat="43.62777" lon="5.43593">
        <ele>429.7</ele>
        <time>2022-10-26T10:21:54.000Z</time>
      </trkpt>
      <trkpt lat="43.62779" lon="5.43593">
        <ele>429.5</ele>
        <time>2022-10-26T10:21:56.000Z</time>
      </trkpt>
      <trkpt lat="43.62781" lon="5.43593">
        <ele>429.2</ele>
        <time>2022-10-26T10:21:58.000Z</time>
      </trkpt>
      <trkpt lat="43.62784" lon="5.43593">
        <ele>429</ele>
        <time>2022-10-26T10:22:00.000Z</time>
      </trkpt>
      <trkpt lat="43.62786" lon="5.43593">
        <ele>428.7</ele>
        <time>2022-10-26T10:22:02.000Z</time>
      </trkpt>
      <trkpt lat="43.62788" lon="5.43593">
        <ele>428.5</ele>
        <time>2022-10-26T10:22:04.000Z</time>
      </trkpt>
      <trkpt lat="43.6279" lon="5.43594">
        <ele>428.3</ele>
        <time>2022-10-26T10:22:06.000Z</time>
      </trkpt>
      <trkpt lat="43.62792" lon="5.43594">
        <ele>428.1</ele>
        <time>2022-10-26T10:22:08.000Z</time>
      </trkpt>
      <trkpt lat="43.62794" lon="5.43595">
        <ele>428</ele>
        <time>2022-10-26T10:22:10.000Z</time>
      </trkpt>
      <trkpt lat="43.62795" lon="5.43597">
        <ele>427.9</ele>
        <time>2022-10-26T10:22:12.000Z</time>
      </trkpt>
      <trkpt lat="43.62797" lon="5.43598">
        <ele>427.8</ele>
        <time>2022-10-26T10:22:14.000Z</time>
      </trkpt>
      <trkpt lat="43.62799" lon="5.436">
        <ele>427.7</ele>
        <time>2022-10-26T10:22:17.000Z</time>
      </trkpt>
      <trkpt lat="43.62801" lon="5.43602">
        <ele>427.7</ele>
        <time>2022-10-26T10:22:20.000Z</time>
      </trkpt>
      <trkpt lat="43.62803" lon="5.43604">
        <ele>427.6</ele>
        <time>2022-10-26T10:22:23.000Z</time>
      </trkpt>
      <trkpt lat="43.62805" lon="5.43606">
        <ele>427.6</ele>
        <time>2022-10-26T10:22:25.000Z</time>
      </trkpt>
      <trkpt lat="43.62806" lon="5.43607">
        <ele>427.3</ele>
        <time>2022-10-26T10:22:27.000Z</time>
      </trkpt>
      <trkpt lat="43.62808" lon="5.43609">
        <ele>427.1</ele>
        <time>2022-10-26T10:22:29.000Z</time>
      </trkpt>
      <trkpt lat="43.62809" lon="5.43612">
        <ele>427.1</ele>
        <time>2022-10-26T10:22:31.000Z</time>
      </trkpt>
      <trkpt lat="43.6281" lon="5.43614">
        <ele>426.9</ele>
        <time>2022-10-26T10:22:34.000Z</time>
      </trkpt>
      <trkpt lat="43.62813" lon="5.43616">
        <ele>426.4</ele>
        <time>2022-10-26T10:22:37.000Z</time>
      </trkpt>
      <trkpt lat="43.62814" lon="5.43618">
        <ele>426.1</ele>
        <time>2022-10-26T10:22:39.000Z</time>
      </trkpt>
      <trkpt lat="43.62816" lon="5.43619">
        <ele>425.6</ele>
        <time>2022-10-26T10:22:41.000Z</time>
      </trkpt>
      <trkpt lat="43.62818" lon="5.4362">
        <ele>425.2</ele>
        <time>2022-10-26T10:22:43.000Z</time>
      </trkpt>
      <trkpt lat="43.6282" lon="5.43622">
        <ele>424.6</ele>
        <time>2022-10-26T10:22:45.000Z</time>
      </trkpt>
      <trkpt lat="43.62822" lon="5.43624">
        <ele>424.2</ele>
        <time>2022-10-26T10:22:48.000Z</time>
      </trkpt>
      <trkpt lat="43.62824" lon="5.43626">
        <ele>423.7</ele>
        <time>2022-10-26T10:22:51.000Z</time>
      </trkpt>
      <trkpt lat="43.62826" lon="5.43627">
        <ele>423.4</ele>
        <time>2022-10-26T10:22:53.000Z</time>
      </trkpt>
      <trkpt lat="43.62828" lon="5.4363">
        <ele>423</ele>
        <time>2022-10-26T10:22:56.000Z</time>
      </trkpt>
      <trkpt lat="43.62829" lon="5.43631">
        <ele>422.6</ele>
        <time>2022-10-26T10:22:58.000Z</time>
      </trkpt>
      <trkpt lat="43.62831" lon="5.43632">
        <ele>422.2</ele>
        <time>2022-10-26T10:23:00.000Z</time>
      </trkpt>
      <trkpt lat="43.62833" lon="5.43633">
        <ele>421.7</ele>
        <time>2022-10-26T10:23:02.000Z</time>
      </trkpt>
      <trkpt lat="43.62834" lon="5.43634">
        <ele>421.2</ele>
        <time>2022-10-26T10:23:04.000Z</time>
      </trkpt>
      <trkpt lat="43.62836" lon="5.43634">
        <ele>420.7</ele>
        <time>2022-10-26T10:23:06.000Z</time>
      </trkpt>
      <trkpt lat="43.62838" lon="5.43635">
        <ele>420.4</ele>
        <time>2022-10-26T10:23:08.000Z</time>
      </trkpt>
      <trkpt lat="43.6284" lon="5.43636">
        <ele>420.1</ele>
        <time>2022-10-26T10:23:10.000Z</time>
      </trkpt>
      <trkpt lat="43.62842" lon="5.43637">
        <ele>419.6</ele>
        <time>2022-10-26T10:23:13.000Z</time>
      </trkpt>
      <trkpt lat="43.62845" lon="5.43639">
        <ele>419.1</ele>
        <time>2022-10-26T10:23:16.000Z</time>
      </trkpt>
      <trkpt lat="43.62846" lon="5.4364">
        <ele>419</ele>
        <time>2022-10-26T10:23:18.000Z</time>
      </trkpt>
      <trkpt lat="43.62848" lon="5.43642">
        <ele>419</ele>
        <time>2022-10-26T10:23:20.000Z</time>
      </trkpt>
      <trkpt lat="43.6285" lon="5.43644">
        <ele>418.8</ele>
        <time>2022-10-26T10:23:22.000Z</time>
      </trkpt>
      <trkpt lat="43.62851" lon="5.43645">
        <ele>418.6</ele>
        <time>2022-10-26T10:23:24.000Z</time>
      </trkpt>
      <trkpt lat="43.62854" lon="5.43647">
        <ele>418.3</ele>
        <time>2022-10-26T10:23:27.000Z</time>
      </trkpt>
      <trkpt lat="43.62856" lon="5.43649">
        <ele>418</ele>
        <time>2022-10-26T10:23:29.000Z</time>
      </trkpt>
      <trkpt lat="43.62858" lon="5.4365">
        <ele>417.8</ele>
        <time>2022-10-26T10:23:32.000Z</time>
      </trkpt>
      <trkpt lat="43.6286" lon="5.43651">
        <ele>417.5</ele>
        <time>2022-10-26T10:23:34.000Z</time>
      </trkpt>
      <trkpt lat="43.62862" lon="5.43653">
        <ele>417.3</ele>
        <time>2022-10-26T10:23:37.000Z</time>
      </trkpt>
      <trkpt lat="43.62864" lon="5.43655">
        <ele>417.2</ele>
        <time>2022-10-26T10:23:40.000Z</time>
      </trkpt>
      <trkpt lat="43.62866" lon="5.43657">
        <ele>417</ele>
        <time>2022-10-26T10:23:43.000Z</time>
      </trkpt>
      <trkpt lat="43.62868" lon="5.43658">
        <ele>416.8</ele>
        <time>2022-10-26T10:23:46.000Z</time>
      </trkpt>
      <trkpt lat="43.6287" lon="5.43661">
        <ele>416.6</ele>
        <time>2022-10-26T10:23:49.000Z</time>
      </trkpt>
      <trkpt lat="43.62872" lon="5.43663">
        <ele>416.4</ele>
        <time>2022-10-26T10:23:52.000Z</time>
      </trkpt>
      <trkpt lat="43.62874" lon="5.43664">
        <ele>416.1</ele>
        <time>2022-10-26T10:23:55.000Z</time>
      </trkpt>
      <trkpt lat="43.62876" lon="5.43666">
        <ele>415.7</ele>
        <time>2022-10-26T10:23:58.000Z</time>
      </trkpt>
      <trkpt lat="43.62878" lon="5.43668">
        <ele>415.4</ele>
        <time>2022-10-26T10:24:01.000Z</time>
      </trkpt>
      <trkpt lat="43.6288" lon="5.43669">
        <ele>414.9</ele>
        <time>2022-10-26T10:24:04.000Z</time>
      </trkpt>
      <trkpt lat="43.62882" lon="5.4367">
        <ele>414.4</ele>
        <time>2022-10-26T10:24:07.000Z</time>
      </trkpt>
      <trkpt lat="43.62884" lon="5.43672">
        <ele>413.9</ele>
        <time>2022-10-26T10:24:10.000Z</time>
      </trkpt>
      <trkpt lat="43.62886" lon="5.43673">
        <ele>413.3</ele>
        <time>2022-10-26T10:24:13.000Z</time>
      </trkpt>
      <trkpt lat="43.62888" lon="5.43675">
        <ele>412.8</ele>
        <time>2022-10-26T10:24:16.000Z</time>
      </trkpt>
      <trkpt lat="43.6289" lon="5.43676">
        <ele>412.5</ele>
        <time>2022-10-26T10:24:18.000Z</time>
      </trkpt>
      <trkpt lat="43.62892" lon="5.43677">
        <ele>412.1</ele>
        <time>2022-10-26T10:24:21.000Z</time>
      </trkpt>
      <trkpt lat="43.62895" lon="5.43678">
        <ele>411.8</ele>
        <time>2022-10-26T10:24:24.000Z</time>
      </trkpt>
      <trkpt lat="43.62897" lon="5.43678">
        <ele>411.4</ele>
        <time>2022-10-26T10:24:27.000Z</time>
      </trkpt>
      <trkpt lat="43.62899" lon="5.4368">
        <ele>411.1</ele>
        <time>2022-10-26T10:24:30.000Z</time>
      </trkpt>
      <trkpt lat="43.62902" lon="5.43681">
        <ele>410.7</ele>
        <time>2022-10-26T10:24:33.000Z</time>
      </trkpt>
      <trkpt lat="43.62904" lon="5.43682">
        <ele>410.4</ele>
        <time>2022-10-26T10:24:35.000Z</time>
      </trkpt>
      <trkpt lat="43.62906" lon="5.43683">
        <ele>410.1</ele>
        <time>2022-10-26T10:24:37.000Z</time>
      </trkpt>
      <trkpt lat="43.62908" lon="5.43684">
        <ele>409.9</ele>
        <time>2022-10-26T10:24:39.000Z</time>
      </trkpt>
      <trkpt lat="43.62909" lon="5.43685">
        <ele>409.6</ele>
        <time>2022-10-26T10:24:41.000Z</time>
      </trkpt>
      <trkpt lat="43.62911" lon="5.43686">
        <ele>409.4</ele>
        <time>2022-10-26T10:24:43.000Z</time>
      </trkpt>
      <trkpt lat="43.62913" lon="5.43686">
        <ele>409.1</ele>
        <time>2022-10-26T10:24:45.000Z</time>
      </trkpt>
      <trkpt lat="43.62915" lon="5.43688">
        <ele>408.8</ele>
        <time>2022-10-26T10:24:48.000Z</time>
      </trkpt>
      <trkpt lat="43.62917" lon="5.43689">
        <ele>408.6</ele>
        <time>2022-10-26T10:24:50.000Z</time>
      </trkpt>
      <trkpt lat="43.62919" lon="5.43689">
        <ele>408.4</ele>
        <time>2022-10-26T10:24:52.000Z</time>
      </trkpt>
      <trkpt lat="43.62921" lon="5.43691">
        <ele>408.2</ele>
        <time>2022-10-26T10:24:55.000Z</time>
      </trkpt>
      <trkpt lat="43.62924" lon="5.43691">
        <ele>408</ele>
        <time>2022-10-26T10:24:57.000Z</time>
      </trkpt>
      <trkpt lat="43.62926" lon="5.43692">
        <ele>407.8</ele>
        <time>2022-10-26T10:24:59.000Z</time>
      </trkpt>
      <trkpt lat="43.62928" lon="5.43693">
        <ele>407.7</ele>
        <time>2022-10-26T10:25:01.000Z</time>
      </trkpt>
      <trkpt lat="43.6293" lon="5.43694">
        <ele>407.5</ele>
        <time>2022-10-26T10:25:03.000Z</time>
      </trkpt>
      <trkpt lat="43.62932" lon="5.43694">
        <ele>407.3</ele>
        <time>2022-10-26T10:25:05.000Z</time>
      </trkpt>
      <trkpt lat="43.62934" lon="5.43694">
        <ele>407.1</ele>
        <time>2022-10-26T10:25:07.000Z</time>
      </trkpt>
      <trkpt lat="43.62937" lon="5.43694">
        <ele>406.8</ele>
        <time>2022-10-26T10:25:09.000Z</time>
      </trkpt>
      <trkpt lat="43.62939" lon="5.43695">
        <ele>406.6</ele>
        <time>2022-10-26T10:25:11.000Z</time>
      </trkpt>
      <trkpt lat="43.62942" lon="5.43695">
        <ele>406.3</ele>
        <time>2022-10-26T10:25:14.000Z</time>
      </trkpt>
      <trkpt lat="43.62944" lon="5.43695">
        <ele>406</ele>
        <time>2022-10-26T10:25:17.000Z</time>
      </trkpt>
      <trkpt lat="43.62946" lon="5.43696">
        <ele>405.9</ele>
        <time>2022-10-26T10:25:19.000Z</time>
      </trkpt>
      <trkpt lat="43.62949" lon="5.43697">
        <ele>405.7</ele>
        <time>2022-10-26T10:25:22.000Z</time>
      </trkpt>
      <trkpt lat="43.62951" lon="5.43697">
        <ele>405.5</ele>
        <time>2022-10-26T10:25:24.000Z</time>
      </trkpt>
      <trkpt lat="43.62954" lon="5.43697">
        <ele>405.3</ele>
        <time>2022-10-26T10:25:27.000Z</time>
      </trkpt>
      <trkpt lat="43.62956" lon="5.43697">
        <ele>405.1</ele>
        <time>2022-10-26T10:25:29.000Z</time>
      </trkpt>
      <trkpt lat="43.62958" lon="5.43696">
        <ele>405</ele>
        <time>2022-10-26T10:25:31.000Z</time>
      </trkpt>
      <trkpt lat="43.6296" lon="5.43696">
        <ele>404.9</ele>
        <time>2022-10-26T10:25:33.000Z</time>
      </trkpt>
      <trkpt lat="43.62962" lon="5.43695">
        <ele>404.8</ele>
        <time>2022-10-26T10:25:35.000Z</time>
      </trkpt>
      <trkpt lat="43.62964" lon="5.43695">
        <ele>404.6</ele>
        <time>2022-10-26T10:25:38.000Z</time>
      </trkpt>
      <trkpt lat="43.62967" lon="5.43695">
        <ele>404.4</ele>
        <time>2022-10-26T10:25:41.000Z</time>
      </trkpt>
      <trkpt lat="43.62969" lon="5.43696">
        <ele>404.2</ele>
        <time>2022-10-26T10:25:44.000Z</time>
      </trkpt>
      <trkpt lat="43.62971" lon="5.43696">
        <ele>404</ele>
        <time>2022-10-26T10:25:47.000Z</time>
      </trkpt>
      <trkpt lat="43.62973" lon="5.43698">
        <ele>403.9</ele>
        <time>2022-10-26T10:25:50.000Z</time>
      </trkpt>
      <trkpt lat="43.62974" lon="5.437">
        <ele>403.8</ele>
        <time>2022-10-26T10:25:53.000Z</time>
      </trkpt>
      <trkpt lat="43.62976" lon="5.43701">
        <ele>403.8</ele>
        <time>2022-10-26T10:25:56.000Z</time>
      </trkpt>
      <trkpt lat="43.62978" lon="5.43701">
        <ele>403.8</ele>
        <time>2022-10-26T10:25:59.000Z</time>
      </trkpt>
      <trkpt lat="43.6298" lon="5.437">
        <ele>403.8</ele>
        <time>2022-10-26T10:26:02.000Z</time>
      </trkpt>
      <trkpt lat="43.6298" lon="5.43702">
        <ele>403.7</ele>
        <time>2022-10-26T10:26:50.000Z</time>
      </trkpt>
      <trkpt lat="43.62979" lon="5.43703">
        <ele>403.7</ele>
        <time>2022-10-26T10:27:22.000Z</time>
      </trkpt>
      <trkpt lat="43.62977" lon="5.43709">
        <ele>403.5</ele>
        <time>2022-10-26T10:27:24.000Z</time>
      </trkpt>
      <trkpt lat="43.62975" lon="5.43708">
        <ele>403.5</ele>
        <time>2022-10-26T10:27:26.000Z</time>
      </trkpt>
      <trkpt lat="43.62973" lon="5.43706">
        <ele>403.6</ele>
        <time>2022-10-26T10:27:28.000Z</time>
      </trkpt>
      <trkpt lat="43.62971" lon="5.43705">
        <ele>403.8</ele>
        <time>2022-10-26T10:27:30.000Z</time>
      </trkpt>
      <trkpt lat="43.62969" lon="5.437">
        <ele>404.1</ele>
        <time>2022-10-26T10:27:32.000Z</time>
      </trkpt>
      <trkpt lat="43.62967" lon="5.43699">
        <ele>404.3</ele>
        <time>2022-10-26T10:27:41.000Z</time>
      </trkpt>
      <trkpt lat="43.62965" lon="5.43699">
        <ele>404.4</ele>
        <time>2022-10-26T10:27:43.000Z</time>
      </trkpt>
      <trkpt lat="43.62963" lon="5.43699">
        <ele>404.6</ele>
        <time>2022-10-26T10:27:47.000Z</time>
      </trkpt>
      <trkpt lat="43.6296" lon="5.437">
        <ele>404.8</ele>
        <time>2022-10-26T10:27:50.000Z</time>
      </trkpt>
      <trkpt lat="43.62958" lon="5.43701">
        <ele>404.9</ele>
        <time>2022-10-26T10:27:53.000Z</time>
      </trkpt>
      <trkpt lat="43.62956" lon="5.43702">
        <ele>405.1</ele>
        <time>2022-10-26T10:27:55.000Z</time>
      </trkpt>
      <trkpt lat="43.62953" lon="5.43703">
        <ele>405.3</ele>
        <time>2022-10-26T10:27:58.000Z</time>
      </trkpt>
      <trkpt lat="43.62951" lon="5.43703">
        <ele>405.4</ele>
        <time>2022-10-26T10:28:00.000Z</time>
      </trkpt>
      <trkpt lat="43.62949" lon="5.43703">
        <ele>405.6</ele>
        <time>2022-10-26T10:28:02.000Z</time>
      </trkpt>
      <trkpt lat="43.62947" lon="5.43705">
        <ele>405.8</ele>
        <time>2022-10-26T10:28:05.000Z</time>
      </trkpt>
      <trkpt lat="43.62946" lon="5.43707">
        <ele>405.9</ele>
        <time>2022-10-26T10:28:07.000Z</time>
      </trkpt>
      <trkpt lat="43.62945" lon="5.43709">
        <ele>406</ele>
        <time>2022-10-26T10:28:09.000Z</time>
      </trkpt>
      <trkpt lat="43.62943" lon="5.43711">
        <ele>406.1</ele>
        <time>2022-10-26T10:28:12.000Z</time>
      </trkpt>
      <trkpt lat="43.62942" lon="5.43713">
        <ele>406.3</ele>
        <time>2022-10-26T10:28:16.000Z</time>
      </trkpt>
      <trkpt lat="43.62941" lon="5.43715">
        <ele>406.5</ele>
        <time>2022-10-26T10:28:20.000Z</time>
      </trkpt>
      <trkpt lat="43.6294" lon="5.43717">
        <ele>406.6</ele>
        <time>2022-10-26T10:28:23.000Z</time>
      </trkpt>
      <trkpt lat="43.62939" lon="5.4372">
        <ele>406.8</ele>
        <time>2022-10-26T10:28:27.000Z</time>
      </trkpt>
      <trkpt lat="43.62937" lon="5.43719">
        <ele>407</ele>
        <time>2022-10-26T10:28:35.000Z</time>
      </trkpt>
      <trkpt lat="43.62938" lon="5.43717">
        <ele>406.9</ele>
        <time>2022-10-26T10:37:02.000Z</time>
      </trkpt>
      <trkpt lat="43.6294" lon="5.43716">
        <ele>406.7</ele>
        <time>2022-10-26T11:25:26.000Z</time>
      </trkpt>
      <trkpt lat="43.62941" lon="5.43715">
        <ele>406.4</ele>
        <time>2022-10-26T11:25:45.000Z</time>
      </trkpt>
      <trkpt lat="43.62944" lon="5.43714">
        <ele>406.1</ele>
        <time>2022-10-26T11:25:47.000Z</time>
      </trkpt>
      <trkpt lat="43.62946" lon="5.43714">
        <ele>405.9</ele>
        <time>2022-10-26T11:25:51.000Z</time>
      </trkpt>
      <trkpt lat="43.62945" lon="5.43711">
        <ele>406</ele>
        <time>2022-10-26T11:25:59.000Z</time>
      </trkpt>
      <trkpt lat="43.62943" lon="5.43713">
        <ele>406.2</ele>
        <time>2022-10-26T11:26:05.000Z</time>
      </trkpt>
      <trkpt lat="43.6294" lon="5.43714">
        <ele>406.6</ele>
        <time>2022-10-26T11:26:06.000Z</time>
      </trkpt>
      <trkpt lat="43.62938" lon="5.43716">
        <ele>406.8</ele>
        <time>2022-10-26T11:26:09.000Z</time>
      </trkpt>
      <trkpt lat="43.62938" lon="5.43712">
        <ele>406.9</ele>
        <time>2022-10-26T11:26:11.000Z</time>
      </trkpt>
      <trkpt lat="43.6294" lon="5.4371">
        <ele>406.6</ele>
        <time>2022-10-26T11:26:13.000Z</time>
      </trkpt>
      <trkpt lat="43.62941" lon="5.43707">
        <ele>406.5</ele>
        <time>2022-10-26T11:26:16.000Z</time>
      </trkpt>
      <trkpt lat="43.62942" lon="5.43704">
        <ele>406.3</ele>
        <time>2022-10-26T11:26:20.000Z</time>
      </trkpt>
      <trkpt lat="43.62943" lon="5.43702">
        <ele>406.2</ele>
        <time>2022-10-26T11:26:23.000Z</time>
      </trkpt>
      <trkpt lat="43.62944" lon="5.43699">
        <ele>406.1</ele>
        <time>2022-10-26T11:26:27.000Z</time>
      </trkpt>
      <trkpt lat="43.62942" lon="5.437">
        <ele>406.3</ele>
        <time>2022-10-26T11:28:41.000Z</time>
      </trkpt>
      <trkpt lat="43.62943" lon="5.43698">
        <ele>406.1</ele>
        <time>2022-10-26T11:29:08.000Z</time>
      </trkpt>
      <trkpt lat="43.62945" lon="5.43698">
        <ele>405.9</ele>
        <time>2022-10-26T11:29:11.000Z</time>
      </trkpt>
      <trkpt lat="43.62947" lon="5.43696">
        <ele>405.8</ele>
        <time>2022-10-26T11:29:15.000Z</time>
      </trkpt>
      <trkpt lat="43.6295" lon="5.43697">
        <ele>405.6</ele>
        <time>2022-10-26T11:29:18.000Z</time>
      </trkpt>
      <trkpt lat="43.62952" lon="5.43698">
        <ele>405.4</ele>
        <time>2022-10-26T11:29:21.000Z</time>
      </trkpt>
      <trkpt lat="43.62954" lon="5.43698">
        <ele>405.3</ele>
        <time>2022-10-26T11:29:24.000Z</time>
      </trkpt>
      <trkpt lat="43.62956" lon="5.43698">
        <ele>405.1</ele>
        <time>2022-10-26T11:29:27.000Z</time>
      </trkpt>
      <trkpt lat="43.62958" lon="5.43698">
        <ele>405</ele>
        <time>2022-10-26T11:29:30.000Z</time>
      </trkpt>
      <trkpt lat="43.6296" lon="5.43698">
        <ele>404.8</ele>
        <time>2022-10-26T11:29:32.000Z</time>
      </trkpt>
      <trkpt lat="43.62962" lon="5.43697">
        <ele>404.7</ele>
        <time>2022-10-26T11:29:35.000Z</time>
      </trkpt>
      <trkpt lat="43.62964" lon="5.43696">
        <ele>404.5</ele>
        <time>2022-10-26T11:29:38.000Z</time>
      </trkpt>
      <trkpt lat="43.62966" lon="5.43694">
        <ele>404.4</ele>
        <time>2022-10-26T11:29:40.000Z</time>
      </trkpt>
      <trkpt lat="43.62967" lon="5.43692">
        <ele>404.2</ele>
        <time>2022-10-26T11:29:42.000Z</time>
      </trkpt>
      <trkpt lat="43.62969" lon="5.43691">
        <ele>404.1</ele>
        <time>2022-10-26T11:29:44.000Z</time>
      </trkpt>
      <trkpt lat="43.62971" lon="5.4369">
        <ele>403.9</ele>
        <time>2022-10-26T11:29:47.000Z</time>
      </trkpt>
      <trkpt lat="43.62973" lon="5.4369">
        <ele>403.8</ele>
        <time>2022-10-26T11:29:50.000Z</time>
      </trkpt>
      <trkpt lat="43.62976" lon="5.43689">
        <ele>403.8</ele>
        <time>2022-10-26T11:29:54.000Z</time>
      </trkpt>
      <trkpt lat="43.62978" lon="5.43688">
        <ele>403.8</ele>
        <time>2022-10-26T11:29:57.000Z</time>
      </trkpt>
      <trkpt lat="43.62981" lon="5.43686">
        <ele>403.8</ele>
        <time>2022-10-26T11:30:00.000Z</time>
      </trkpt>
      <trkpt lat="43.62983" lon="5.43685">
        <ele>403.8</ele>
        <time>2022-10-26T11:30:02.000Z</time>
      </trkpt>
      <trkpt lat="43.62985" lon="5.43683">
        <ele>403.8</ele>
        <time>2022-10-26T11:30:05.000Z</time>
      </trkpt>
      <trkpt lat="43.62987" lon="5.43682">
        <ele>403.8</ele>
        <time>2022-10-26T11:30:08.000Z</time>
      </trkpt>
      <trkpt lat="43.62989" lon="5.43681">
        <ele>403.8</ele>
        <time>2022-10-26T11:30:10.000Z</time>
      </trkpt>
      <trkpt lat="43.62991" lon="5.43679">
        <ele>403.8</ele>
        <time>2022-10-26T11:30:12.000Z</time>
      </trkpt>
      <trkpt lat="43.62993" lon="5.43677">
        <ele>403.8</ele>
        <time>2022-10-26T11:30:14.000Z</time>
      </trkpt>
      <trkpt lat="43.62995" lon="5.43676">
        <ele>403.9</ele>
        <time>2022-10-26T11:30:16.000Z</time>
      </trkpt>
      <trkpt lat="43.62997" lon="5.43674">
        <ele>403.9</ele>
        <time>2022-10-26T11:30:19.000Z</time>
      </trkpt>
      <trkpt lat="43.63" lon="5.43672">
        <ele>404</ele>
        <time>2022-10-26T11:30:22.000Z</time>
      </trkpt>
      <trkpt lat="43.63002" lon="5.43671">
        <ele>404.1</ele>
        <time>2022-10-26T11:30:25.000Z</time>
      </trkpt>
      <trkpt lat="43.63004" lon="5.4367">
        <ele>404.1</ele>
        <time>2022-10-26T11:30:27.000Z</time>
      </trkpt>
      <trkpt lat="43.63006" lon="5.43669">
        <ele>404.2</ele>
        <time>2022-10-26T11:30:29.000Z</time>
      </trkpt>
      <trkpt lat="43.63008" lon="5.43667">
        <ele>404.3</ele>
        <time>2022-10-26T11:30:32.000Z</time>
      </trkpt>
      <trkpt lat="43.6301" lon="5.43666">
        <ele>404.3</ele>
        <time>2022-10-26T11:30:34.000Z</time>
      </trkpt>
      <trkpt lat="43.63012" lon="5.43663">
        <ele>404.3</ele>
        <time>2022-10-26T11:30:36.000Z</time>
      </trkpt>
      <trkpt lat="43.63014" lon="5.43662">
        <ele>404.3</ele>
        <time>2022-10-26T11:30:38.000Z</time>
      </trkpt>
      <trkpt lat="43.63016" lon="5.4366">
        <ele>404.3</ele>
        <time>2022-10-26T11:30:40.000Z</time>
      </trkpt>
      <trkpt lat="43.63018" lon="5.43658">
        <ele>404.3</ele>
        <time>2022-10-26T11:30:43.000Z</time>
      </trkpt>
      <trkpt lat="43.6302" lon="5.43657">
        <ele>404.4</ele>
        <time>2022-10-26T11:30:45.000Z</time>
      </trkpt>
      <trkpt lat="43.63021" lon="5.43656">
        <ele>404.4</ele>
        <time>2022-10-26T11:30:48.000Z</time>
      </trkpt>
      <trkpt lat="43.63023" lon="5.43654">
        <ele>404.4</ele>
        <time>2022-10-26T11:30:50.000Z</time>
      </trkpt>
      <trkpt lat="43.63025" lon="5.43653">
        <ele>404.4</ele>
        <time>2022-10-26T11:30:52.000Z</time>
      </trkpt>
      <trkpt lat="43.63027" lon="5.43653">
        <ele>404.5</ele>
        <time>2022-10-26T11:30:54.000Z</time>
      </trkpt>
      <trkpt lat="43.63028" lon="5.43651">
        <ele>404.4</ele>
        <time>2022-10-26T11:30:56.000Z</time>
      </trkpt>
      <trkpt lat="43.6303" lon="5.43649">
        <ele>404.4</ele>
        <time>2022-10-26T11:30:59.000Z</time>
      </trkpt>
      <trkpt lat="43.63031" lon="5.43647">
        <ele>404.3</ele>
        <time>2022-10-26T11:31:01.000Z</time>
      </trkpt>
      <trkpt lat="43.63032" lon="5.43645">
        <ele>404.3</ele>
        <time>2022-10-26T11:31:03.000Z</time>
      </trkpt>
      <trkpt lat="43.63034" lon="5.43642">
        <ele>404.3</ele>
        <time>2022-10-26T11:31:06.000Z</time>
      </trkpt>
      <trkpt lat="43.63036" lon="5.4364">
        <ele>404.3</ele>
        <time>2022-10-26T11:31:08.000Z</time>
      </trkpt>
      <trkpt lat="43.63037" lon="5.43637">
        <ele>404.3</ele>
        <time>2022-10-26T11:31:10.000Z</time>
      </trkpt>
      <trkpt lat="43.63038" lon="5.43636">
        <ele>404.3</ele>
        <time>2022-10-26T11:31:12.000Z</time>
      </trkpt>
      <trkpt lat="43.6304" lon="5.43634">
        <ele>404.3</ele>
        <time>2022-10-26T11:31:14.000Z</time>
      </trkpt>
      <trkpt lat="43.63041" lon="5.43632">
        <ele>404.4</ele>
        <time>2022-10-26T11:31:16.000Z</time>
      </trkpt>
      <trkpt lat="43.63042" lon="5.4363">
        <ele>404.4</ele>
        <time>2022-10-26T11:31:18.000Z</time>
      </trkpt>
      <trkpt lat="43.63043" lon="5.43627">
        <ele>404.4</ele>
        <time>2022-10-26T11:31:20.000Z</time>
      </trkpt>
      <trkpt lat="43.63045" lon="5.43625">
        <ele>404.4</ele>
        <time>2022-10-26T11:31:22.000Z</time>
      </trkpt>
      <trkpt lat="43.63045" lon="5.43623">
        <ele>404.4</ele>
        <time>2022-10-26T11:31:24.000Z</time>
      </trkpt>
      <trkpt lat="43.63046" lon="5.4362">
        <ele>404.4</ele>
        <time>2022-10-26T11:31:26.000Z</time>
      </trkpt>
      <trkpt lat="43.63047" lon="5.43618">
        <ele>404.5</ele>
        <time>2022-10-26T11:31:28.000Z</time>
      </trkpt>
      <trkpt lat="43.63048" lon="5.43615">
        <ele>404.5</ele>
        <time>2022-10-26T11:31:30.000Z</time>
      </trkpt>
      <trkpt lat="43.63049" lon="5.43612">
        <ele>404.6</ele>
        <time>2022-10-26T11:31:32.000Z</time>
      </trkpt>
      <trkpt lat="43.63051" lon="5.43609">
        <ele>404.6</ele>
        <time>2022-10-26T11:31:34.000Z</time>
      </trkpt>
      <trkpt lat="43.63052" lon="5.43607">
        <ele>404.6</ele>
        <time>2022-10-26T11:31:36.000Z</time>
      </trkpt>
      <trkpt lat="43.63053" lon="5.43604">
        <ele>404.6</ele>
        <time>2022-10-26T11:31:38.000Z</time>
      </trkpt>
      <trkpt lat="43.63054" lon="5.43601">
        <ele>404.5</ele>
        <time>2022-10-26T11:31:40.000Z</time>
      </trkpt>
      <trkpt lat="43.63055" lon="5.43599">
        <ele>404.5</ele>
        <time>2022-10-26T11:31:42.000Z</time>
      </trkpt>
      <trkpt lat="43.63056" lon="5.43597">
        <ele>404.5</ele>
        <time>2022-10-26T11:31:44.000Z</time>
      </trkpt>
      <trkpt lat="43.63057" lon="5.43594">
        <ele>404.4</ele>
        <time>2022-10-26T11:31:46.000Z</time>
      </trkpt>
      <trkpt lat="43.63058" lon="5.43591">
        <ele>404.4</ele>
        <time>2022-10-26T11:31:48.000Z</time>
      </trkpt>
      <trkpt lat="43.63059" lon="5.43589">
        <ele>404.3</ele>
        <time>2022-10-26T11:31:50.000Z</time>
      </trkpt>
      <trkpt lat="43.6306" lon="5.43585">
        <ele>404.2</ele>
        <time>2022-10-26T11:31:53.000Z</time>
      </trkpt>
      <trkpt lat="43.63061" lon="5.43583">
        <ele>404.2</ele>
        <time>2022-10-26T11:31:55.000Z</time>
      </trkpt>
      <trkpt lat="43.63062" lon="5.43578">
        <ele>404.1</ele>
        <time>2022-10-26T11:31:58.000Z</time>
      </trkpt>
      <trkpt lat="43.63063" lon="5.43576">
        <ele>404</ele>
        <time>2022-10-26T11:32:00.000Z</time>
      </trkpt>
      <trkpt lat="43.63064" lon="5.43573">
        <ele>403.9</ele>
        <time>2022-10-26T11:32:02.000Z</time>
      </trkpt>
      <trkpt lat="43.63065" lon="5.4357">
        <ele>403.9</ele>
        <time>2022-10-26T11:32:04.000Z</time>
      </trkpt>
      <trkpt lat="43.63066" lon="5.43568">
        <ele>403.8</ele>
        <time>2022-10-26T11:32:06.000Z</time>
      </trkpt>
      <trkpt lat="43.63067" lon="5.43565">
        <ele>403.7</ele>
        <time>2022-10-26T11:32:08.000Z</time>
      </trkpt>
      <trkpt lat="43.63069" lon="5.43563">
        <ele>403.7</ele>
        <time>2022-10-26T11:32:11.000Z</time>
      </trkpt>
      <trkpt lat="43.6307" lon="5.43561">
        <ele>403.7</ele>
        <time>2022-10-26T11:32:13.000Z</time>
      </trkpt>
      <trkpt lat="43.63071" lon="5.43558">
        <ele>403.7</ele>
        <time>2022-10-26T11:32:15.000Z</time>
      </trkpt>
      <trkpt lat="43.63073" lon="5.43557">
        <ele>403.6</ele>
        <time>2022-10-26T11:32:17.000Z</time>
      </trkpt>
      <trkpt lat="43.63074" lon="5.43555">
        <ele>403.6</ele>
        <time>2022-10-26T11:32:19.000Z</time>
      </trkpt>
      <trkpt lat="43.63076" lon="5.43553">
        <ele>403.5</ele>
        <time>2022-10-26T11:32:21.000Z</time>
      </trkpt>
      <trkpt lat="43.63077" lon="5.43552">
        <ele>403.5</ele>
        <time>2022-10-26T11:32:23.000Z</time>
      </trkpt>
      <trkpt lat="43.63079" lon="5.4355">
        <ele>403.3</ele>
        <time>2022-10-26T11:32:25.000Z</time>
      </trkpt>
      <trkpt lat="43.63081" lon="5.43549">
        <ele>403.3</ele>
        <time>2022-10-26T11:32:27.000Z</time>
      </trkpt>
      <trkpt lat="43.63082" lon="5.43547">
        <ele>403.1</ele>
        <time>2022-10-26T11:32:29.000Z</time>
      </trkpt>
      <trkpt lat="43.63084" lon="5.43546">
        <ele>403</ele>
        <time>2022-10-26T11:32:31.000Z</time>
      </trkpt>
      <trkpt lat="43.63086" lon="5.43545">
        <ele>402.8</ele>
        <time>2022-10-26T11:32:33.000Z</time>
      </trkpt>
      <trkpt lat="43.63088" lon="5.43544">
        <ele>402.7</ele>
        <time>2022-10-26T11:32:35.000Z</time>
      </trkpt>
      <trkpt lat="43.6309" lon="5.43541">
        <ele>402.5</ele>
        <time>2022-10-26T11:32:37.000Z</time>
      </trkpt>
      <trkpt lat="43.63091" lon="5.4354">
        <ele>402.3</ele>
        <time>2022-10-26T11:32:39.000Z</time>
      </trkpt>
      <trkpt lat="43.63093" lon="5.43538">
        <ele>402.2</ele>
        <time>2022-10-26T11:32:41.000Z</time>
      </trkpt>
      <trkpt lat="43.63095" lon="5.43537">
        <ele>402.1</ele>
        <time>2022-10-26T11:32:43.000Z</time>
      </trkpt>
      <trkpt lat="43.63096" lon="5.43534">
        <ele>402</ele>
        <time>2022-10-26T11:32:45.000Z</time>
      </trkpt>
      <trkpt lat="43.63098" lon="5.43533">
        <ele>401.9</ele>
        <time>2022-10-26T11:32:47.000Z</time>
      </trkpt>
      <trkpt lat="43.63101" lon="5.43532">
        <ele>401.9</ele>
        <time>2022-10-26T11:32:50.000Z</time>
      </trkpt>
      <trkpt lat="43.63103" lon="5.4353">
        <ele>401.8</ele>
        <time>2022-10-26T11:32:52.000Z</time>
      </trkpt>
      <trkpt lat="43.63104" lon="5.43529">
        <ele>401.8</ele>
        <time>2022-10-26T11:32:54.000Z</time>
      </trkpt>
      <trkpt lat="43.63106" lon="5.43528">
        <ele>401.8</ele>
        <time>2022-10-26T11:32:56.000Z</time>
      </trkpt>
      <trkpt lat="43.63108" lon="5.43526">
        <ele>401.7</ele>
        <time>2022-10-26T11:32:58.000Z</time>
      </trkpt>
      <trkpt lat="43.6311" lon="5.43525">
        <ele>401.6</ele>
        <time>2022-10-26T11:33:00.000Z</time>
      </trkpt>
      <trkpt lat="43.63112" lon="5.43524">
        <ele>401.5</ele>
        <time>2022-10-26T11:33:02.000Z</time>
      </trkpt>
      <trkpt lat="43.63115" lon="5.43523">
        <ele>401.3</ele>
        <time>2022-10-26T11:33:04.000Z</time>
      </trkpt>
      <trkpt lat="43.63116" lon="5.43522">
        <ele>401.1</ele>
        <time>2022-10-26T11:33:06.000Z</time>
      </trkpt>
      <trkpt lat="43.63118" lon="5.43521">
        <ele>400.9</ele>
        <time>2022-10-26T11:33:08.000Z</time>
      </trkpt>
      <trkpt lat="43.6312" lon="5.43519">
        <ele>400.6</ele>
        <time>2022-10-26T11:33:11.000Z</time>
      </trkpt>
      <trkpt lat="43.63122" lon="5.43519">
        <ele>400.5</ele>
        <time>2022-10-26T11:33:13.000Z</time>
      </trkpt>
      <trkpt lat="43.63124" lon="5.43517">
        <ele>400.3</ele>
        <time>2022-10-26T11:33:15.000Z</time>
      </trkpt>
      <trkpt lat="43.63125" lon="5.43515">
        <ele>400.1</ele>
        <time>2022-10-26T11:33:17.000Z</time>
      </trkpt>
      <trkpt lat="43.63127" lon="5.43514">
        <ele>399.9</ele>
        <time>2022-10-26T11:33:19.000Z</time>
      </trkpt>
      <trkpt lat="43.63129" lon="5.43514">
        <ele>399.8</ele>
        <time>2022-10-26T11:33:21.000Z</time>
      </trkpt>
      <trkpt lat="43.63131" lon="5.43512">
        <ele>399.7</ele>
        <time>2022-10-26T11:33:23.000Z</time>
      </trkpt>
      <trkpt lat="43.63133" lon="5.43511">
        <ele>399.6</ele>
        <time>2022-10-26T11:33:25.000Z</time>
      </trkpt>
      <trkpt lat="43.63135" lon="5.43509">
        <ele>399.4</ele>
        <time>2022-10-26T11:33:27.000Z</time>
      </trkpt>
      <trkpt lat="43.63136" lon="5.43507">
        <ele>399.3</ele>
        <time>2022-10-26T11:33:29.000Z</time>
      </trkpt>
      <trkpt lat="43.63137" lon="5.43504">
        <ele>399.2</ele>
        <time>2022-10-26T11:33:31.000Z</time>
      </trkpt>
      <trkpt lat="43.63138" lon="5.43502">
        <ele>399.1</ele>
        <time>2022-10-26T11:33:33.000Z</time>
      </trkpt>
      <trkpt lat="43.63139" lon="5.435">
        <ele>399</ele>
        <time>2022-10-26T11:33:35.000Z</time>
      </trkpt>
      <trkpt lat="43.6314" lon="5.43497">
        <ele>398.7</ele>
        <time>2022-10-26T11:33:37.000Z</time>
      </trkpt>
      <trkpt lat="43.63142" lon="5.43495">
        <ele>398.5</ele>
        <time>2022-10-26T11:33:39.000Z</time>
      </trkpt>
      <trkpt lat="43.63143" lon="5.43493">
        <ele>398.3</ele>
        <time>2022-10-26T11:33:41.000Z</time>
      </trkpt>
      <trkpt lat="43.63144" lon="5.4349">
        <ele>398.2</ele>
        <time>2022-10-26T11:33:43.000Z</time>
      </trkpt>
      <trkpt lat="43.63145" lon="5.43488">
        <ele>398.1</ele>
        <time>2022-10-26T11:33:45.000Z</time>
      </trkpt>
      <trkpt lat="43.63147" lon="5.43486">
        <ele>398</ele>
        <time>2022-10-26T11:33:47.000Z</time>
      </trkpt>
      <trkpt lat="43.63148" lon="5.43484">
        <ele>397.9</ele>
        <time>2022-10-26T11:33:49.000Z</time>
      </trkpt>
      <trkpt lat="43.63149" lon="5.43482">
        <ele>397.8</ele>
        <time>2022-10-26T11:33:51.000Z</time>
      </trkpt>
      <trkpt lat="43.63151" lon="5.4348">
        <ele>397.8</ele>
        <time>2022-10-26T11:33:53.000Z</time>
      </trkpt>
      <trkpt lat="43.63153" lon="5.43479">
        <ele>397.8</ele>
        <time>2022-10-26T11:33:55.000Z</time>
      </trkpt>
      <trkpt lat="43.63154" lon="5.43477">
        <ele>397.8</ele>
        <time>2022-10-26T11:33:57.000Z</time>
      </trkpt>
      <trkpt lat="43.63156" lon="5.43475">
        <ele>397.9</ele>
        <time>2022-10-26T11:33:59.000Z</time>
      </trkpt>
      <trkpt lat="43.63157" lon="5.43473">
        <ele>398</ele>
        <time>2022-10-26T11:34:01.000Z</time>
      </trkpt>
      <trkpt lat="43.63159" lon="5.43471">
        <ele>398.1</ele>
        <time>2022-10-26T11:34:03.000Z</time>
      </trkpt>
      <trkpt lat="43.63161" lon="5.43469">
        <ele>398.2</ele>
        <time>2022-10-26T11:34:05.000Z</time>
      </trkpt>
      <trkpt lat="43.63163" lon="5.43467">
        <ele>398.3</ele>
        <time>2022-10-26T11:34:07.000Z</time>
      </trkpt>
      <trkpt lat="43.63165" lon="5.43465">
        <ele>398.5</ele>
        <time>2022-10-26T11:34:09.000Z</time>
      </trkpt>
      <trkpt lat="43.63166" lon="5.43463">
        <ele>398.6</ele>
        <time>2022-10-26T11:34:11.000Z</time>
      </trkpt>
      <trkpt lat="43.63168" lon="5.43461">
        <ele>398.6</ele>
        <time>2022-10-26T11:34:13.000Z</time>
      </trkpt>
      <trkpt lat="43.63169" lon="5.43459">
        <ele>398.6</ele>
        <time>2022-10-26T11:34:15.000Z</time>
      </trkpt>
      <trkpt lat="43.6317" lon="5.43457">
        <ele>398.6</ele>
        <time>2022-10-26T11:34:17.000Z</time>
      </trkpt>
      <trkpt lat="43.63172" lon="5.43456">
        <ele>398.5</ele>
        <time>2022-10-26T11:34:19.000Z</time>
      </trkpt>
      <trkpt lat="43.63173" lon="5.43454">
        <ele>398.5</ele>
        <time>2022-10-26T11:34:21.000Z</time>
      </trkpt>
      <trkpt lat="43.63175" lon="5.43452">
        <ele>398.5</ele>
        <time>2022-10-26T11:34:23.000Z</time>
      </trkpt>
      <trkpt lat="43.63177" lon="5.4345">
        <ele>398.6</ele>
        <time>2022-10-26T11:34:25.000Z</time>
      </trkpt>
      <trkpt lat="43.63179" lon="5.43447">
        <ele>398.7</ele>
        <time>2022-10-26T11:34:27.000Z</time>
      </trkpt>
      <trkpt lat="43.63181" lon="5.43446">
        <ele>398.8</ele>
        <time>2022-10-26T11:34:29.000Z</time>
      </trkpt>
      <trkpt lat="43.63182" lon="5.43444">
        <ele>398.9</ele>
        <time>2022-10-26T11:34:31.000Z</time>
      </trkpt>
      <trkpt lat="43.63184" lon="5.43442">
        <ele>398.9</ele>
        <time>2022-10-26T11:34:33.000Z</time>
      </trkpt>
      <trkpt lat="43.63186" lon="5.4344">
        <ele>398.9</ele>
        <time>2022-10-26T11:34:35.000Z</time>
      </trkpt>
      <trkpt lat="43.63188" lon="5.43439">
        <ele>398.9</ele>
        <time>2022-10-26T11:34:37.000Z</time>
      </trkpt>
      <trkpt lat="43.63189" lon="5.43437">
        <ele>399</ele>
        <time>2022-10-26T11:34:39.000Z</time>
      </trkpt>
      <trkpt lat="43.63191" lon="5.43435">
        <ele>399.1</ele>
        <time>2022-10-26T11:34:41.000Z</time>
      </trkpt>
      <trkpt lat="43.63192" lon="5.43433">
        <ele>399.3</ele>
        <time>2022-10-26T11:34:43.000Z</time>
      </trkpt>
      <trkpt lat="43.63194" lon="5.43431">
        <ele>399.5</ele>
        <time>2022-10-26T11:34:45.000Z</time>
      </trkpt>
      <trkpt lat="43.63196" lon="5.43429">
        <ele>399.4</ele>
        <time>2022-10-26T11:34:47.000Z</time>
      </trkpt>
      <trkpt lat="43.63198" lon="5.43428">
        <ele>399.2</ele>
        <time>2022-10-26T11:34:49.000Z</time>
      </trkpt>
      <trkpt lat="43.632" lon="5.43427">
        <ele>398.9</ele>
        <time>2022-10-26T11:34:51.000Z</time>
      </trkpt>
      <trkpt lat="43.63202" lon="5.43425">
        <ele>398.8</ele>
        <time>2022-10-26T11:34:53.000Z</time>
      </trkpt>
      <trkpt lat="43.63203" lon="5.43423">
        <ele>398.7</ele>
        <time>2022-10-26T11:34:55.000Z</time>
      </trkpt>
      <trkpt lat="43.63206" lon="5.43422">
        <ele>398.6</ele>
        <time>2022-10-26T11:34:57.000Z</time>
      </trkpt>
      <trkpt lat="43.63208" lon="5.4342">
        <ele>398.5</ele>
        <time>2022-10-26T11:34:59.000Z</time>
      </trkpt>
      <trkpt lat="43.63209" lon="5.43419">
        <ele>398.5</ele>
        <time>2022-10-26T11:35:01.000Z</time>
      </trkpt>
      <trkpt lat="43.63211" lon="5.43417">
        <ele>398.6</ele>
        <time>2022-10-26T11:35:03.000Z</time>
      </trkpt>
      <trkpt lat="43.63213" lon="5.43415">
        <ele>398.5</ele>
        <time>2022-10-26T11:35:05.000Z</time>
      </trkpt>
      <trkpt lat="43.63215" lon="5.43413">
        <ele>398.7</ele>
        <time>2022-10-26T11:35:07.000Z</time>
      </trkpt>
      <trkpt lat="43.63217" lon="5.43411">
        <ele>398.7</ele>
        <time>2022-10-26T11:35:09.000Z</time>
      </trkpt>
      <trkpt lat="43.63218" lon="5.43409">
        <ele>398.7</ele>
        <time>2022-10-26T11:35:11.000Z</time>
      </trkpt>
      <trkpt lat="43.6322" lon="5.43408">
        <ele>398.8</ele>
        <time>2022-10-26T11:35:13.000Z</time>
      </trkpt>
      <trkpt lat="43.63222" lon="5.43407">
        <ele>398.7</ele>
        <time>2022-10-26T11:35:15.000Z</time>
      </trkpt>
      <trkpt lat="43.63224" lon="5.43406">
        <ele>398.8</ele>
        <time>2022-10-26T11:35:17.000Z</time>
      </trkpt>
      <trkpt lat="43.63226" lon="5.43405">
        <ele>398.8</ele>
        <time>2022-10-26T11:35:19.000Z</time>
      </trkpt>
      <trkpt lat="43.63228" lon="5.43404">
        <ele>398.9</ele>
        <time>2022-10-26T11:35:21.000Z</time>
      </trkpt>
      <trkpt lat="43.6323" lon="5.43403">
        <ele>398.9</ele>
        <time>2022-10-26T11:35:23.000Z</time>
      </trkpt>
      <trkpt lat="43.63232" lon="5.43402">
        <ele>398.9</ele>
        <time>2022-10-26T11:35:25.000Z</time>
      </trkpt>
      <trkpt lat="43.63234" lon="5.43401">
        <ele>399</ele>
        <time>2022-10-26T11:35:27.000Z</time>
      </trkpt>
      <trkpt lat="43.63236" lon="5.43401">
        <ele>399</ele>
        <time>2022-10-26T11:35:29.000Z</time>
      </trkpt>
      <trkpt lat="43.63238" lon="5.434">
        <ele>399.1</ele>
        <time>2022-10-26T11:35:31.000Z</time>
      </trkpt>
      <trkpt lat="43.6324" lon="5.43399">
        <ele>399.1</ele>
        <time>2022-10-26T11:35:33.000Z</time>
      </trkpt>
      <trkpt lat="43.63242" lon="5.43398">
        <ele>399.2</ele>
        <time>2022-10-26T11:35:35.000Z</time>
      </trkpt>
      <trkpt lat="43.63244" lon="5.43397">
        <ele>399.3</ele>
        <time>2022-10-26T11:35:37.000Z</time>
      </trkpt>
      <trkpt lat="43.63246" lon="5.43397">
        <ele>399.3</ele>
        <time>2022-10-26T11:35:39.000Z</time>
      </trkpt>
      <trkpt lat="43.63248" lon="5.43396">
        <ele>399.2</ele>
        <time>2022-10-26T11:35:41.000Z</time>
      </trkpt>
      <trkpt lat="43.6325" lon="5.43396">
        <ele>399.2</ele>
        <time>2022-10-26T11:35:43.000Z</time>
      </trkpt>
      <trkpt lat="43.63252" lon="5.43395">
        <ele>399.2</ele>
        <time>2022-10-26T11:35:45.000Z</time>
      </trkpt>
      <trkpt lat="43.63254" lon="5.43395">
        <ele>399.1</ele>
        <time>2022-10-26T11:35:47.000Z</time>
      </trkpt>
      <trkpt lat="43.63256" lon="5.43394">
        <ele>399</ele>
        <time>2022-10-26T11:35:49.000Z</time>
      </trkpt>
      <trkpt lat="43.63258" lon="5.43393">
        <ele>399</ele>
        <time>2022-10-26T11:35:51.000Z</time>
      </trkpt>
      <trkpt lat="43.63261" lon="5.43393">
        <ele>398.8</ele>
        <time>2022-10-26T11:35:53.000Z</time>
      </trkpt>
      <trkpt lat="43.63263" lon="5.43393">
        <ele>398.5</ele>
        <time>2022-10-26T11:35:55.000Z</time>
      </trkpt>
      <trkpt lat="43.63265" lon="5.43393">
        <ele>398.2</ele>
        <time>2022-10-26T11:35:57.000Z</time>
      </trkpt>
      <trkpt lat="43.63267" lon="5.43393">
        <ele>398</ele>
        <time>2022-10-26T11:35:59.000Z</time>
      </trkpt>
      <trkpt lat="43.63269" lon="5.43392">
        <ele>398</ele>
        <time>2022-10-26T11:36:01.000Z</time>
      </trkpt>
      <trkpt lat="43.63271" lon="5.43392">
        <ele>397.9</ele>
        <time>2022-10-26T11:36:03.000Z</time>
      </trkpt>
      <trkpt lat="43.63274" lon="5.43391">
        <ele>397.9</ele>
        <time>2022-10-26T11:36:05.000Z</time>
      </trkpt>
      <trkpt lat="43.63276" lon="5.4339">
        <ele>398</ele>
        <time>2022-10-26T11:36:07.000Z</time>
      </trkpt>
      <trkpt lat="43.63278" lon="5.43389">
        <ele>398</ele>
        <time>2022-10-26T11:36:09.000Z</time>
      </trkpt>
      <trkpt lat="43.6328" lon="5.43388">
        <ele>397.9</ele>
        <time>2022-10-26T11:36:11.000Z</time>
      </trkpt>
      <trkpt lat="43.63282" lon="5.43387">
        <ele>397.7</ele>
        <time>2022-10-26T11:36:13.000Z</time>
      </trkpt>
      <trkpt lat="43.63284" lon="5.43386">
        <ele>397.7</ele>
        <time>2022-10-26T11:36:15.000Z</time>
      </trkpt>
      <trkpt lat="43.63286" lon="5.43385">
        <ele>397.5</ele>
        <time>2022-10-26T11:36:17.000Z</time>
      </trkpt>
      <trkpt lat="43.63289" lon="5.43384">
        <ele>397.3</ele>
        <time>2022-10-26T11:36:19.000Z</time>
      </trkpt>
      <trkpt lat="43.63291" lon="5.43383">
        <ele>397.2</ele>
        <time>2022-10-26T11:36:21.000Z</time>
      </trkpt>
      <trkpt lat="43.63293" lon="5.43383">
        <ele>397.1</ele>
        <time>2022-10-26T11:36:23.000Z</time>
      </trkpt>
      <trkpt lat="43.63295" lon="5.43382">
        <ele>397.1</ele>
        <time>2022-10-26T11:36:25.000Z</time>
      </trkpt>
      <trkpt lat="43.63297" lon="5.43381">
        <ele>397</ele>
        <time>2022-10-26T11:36:27.000Z</time>
      </trkpt>
      <trkpt lat="43.63299" lon="5.4338">
        <ele>397</ele>
        <time>2022-10-26T11:36:29.000Z</time>
      </trkpt>
      <trkpt lat="43.63301" lon="5.4338">
        <ele>396.8</ele>
        <time>2022-10-26T11:36:31.000Z</time>
      </trkpt>
      <trkpt lat="43.63303" lon="5.43379">
        <ele>396.8</ele>
        <time>2022-10-26T11:36:33.000Z</time>
      </trkpt>
      <trkpt lat="43.63305" lon="5.43378">
        <ele>396.8</ele>
        <time>2022-10-26T11:36:35.000Z</time>
      </trkpt>
      <trkpt lat="43.63307" lon="5.43378">
        <ele>396.8</ele>
        <time>2022-10-26T11:36:37.000Z</time>
      </trkpt>
      <trkpt lat="43.63309" lon="5.43378">
        <ele>396.6</ele>
        <time>2022-10-26T11:36:39.000Z</time>
      </trkpt>
      <trkpt lat="43.63311" lon="5.43377">
        <ele>396.7</ele>
        <time>2022-10-26T11:36:41.000Z</time>
      </trkpt>
      <trkpt lat="43.63314" lon="5.43376">
        <ele>396.8</ele>
        <time>2022-10-26T11:36:44.000Z</time>
      </trkpt>
      <trkpt lat="43.63316" lon="5.43375">
        <ele>396.7</ele>
        <time>2022-10-26T11:36:46.000Z</time>
      </trkpt>
      <trkpt lat="43.63318" lon="5.43375">
        <ele>396.7</ele>
        <time>2022-10-26T11:36:48.000Z</time>
      </trkpt>
      <trkpt lat="43.63321" lon="5.43374">
        <ele>396.6</ele>
        <time>2022-10-26T11:36:50.000Z</time>
      </trkpt>
      <trkpt lat="43.63323" lon="5.43374">
        <ele>396.5</ele>
        <time>2022-10-26T11:36:52.000Z</time>
      </trkpt>
      <trkpt lat="43.63325" lon="5.43373">
        <ele>396.7</ele>
        <time>2022-10-26T11:36:54.000Z</time>
      </trkpt>
      <trkpt lat="43.63327" lon="5.43373">
        <ele>396.7</ele>
        <time>2022-10-26T11:36:56.000Z</time>
      </trkpt>
      <trkpt lat="43.63329" lon="5.43372">
        <ele>396.6</ele>
        <time>2022-10-26T11:36:58.000Z</time>
      </trkpt>
      <trkpt lat="43.63332" lon="5.43372">
        <ele>396.7</ele>
        <time>2022-10-26T11:37:00.000Z</time>
      </trkpt>
      <trkpt lat="43.63334" lon="5.43371">
        <ele>396.8</ele>
        <time>2022-10-26T11:37:02.000Z</time>
      </trkpt>
      <trkpt lat="43.63336" lon="5.43371">
        <ele>396.8</ele>
        <time>2022-10-26T11:37:04.000Z</time>
      </trkpt>
      <trkpt lat="43.63338" lon="5.4337">
        <ele>397</ele>
        <time>2022-10-26T11:37:06.000Z</time>
      </trkpt>
      <trkpt lat="43.6334" lon="5.43369">
        <ele>397.1</ele>
        <time>2022-10-26T11:37:08.000Z</time>
      </trkpt>
      <trkpt lat="43.63342" lon="5.43369">
        <ele>397</ele>
        <time>2022-10-26T11:37:10.000Z</time>
      </trkpt>
      <trkpt lat="43.63344" lon="5.43369">
        <ele>397.1</ele>
        <time>2022-10-26T11:37:12.000Z</time>
      </trkpt>
      <trkpt lat="43.63346" lon="5.43368">
        <ele>397.2</ele>
        <time>2022-10-26T11:37:14.000Z</time>
      </trkpt>
      <trkpt lat="43.63349" lon="5.43367">
        <ele>397.3</ele>
        <time>2022-10-26T11:37:16.000Z</time>
      </trkpt>
      <trkpt lat="43.63351" lon="5.43367">
        <ele>397.5</ele>
        <time>2022-10-26T11:37:18.000Z</time>
      </trkpt>
      <trkpt lat="43.63353" lon="5.43366">
        <ele>397.7</ele>
        <time>2022-10-26T11:37:20.000Z</time>
      </trkpt>
      <trkpt lat="43.63355" lon="5.43365">
        <ele>397.9</ele>
        <time>2022-10-26T11:37:22.000Z</time>
      </trkpt>
      <trkpt lat="43.63358" lon="5.43364">
        <ele>398</ele>
        <time>2022-10-26T11:37:24.000Z</time>
      </trkpt>
      <trkpt lat="43.6336" lon="5.43364">
        <ele>398.1</ele>
        <time>2022-10-26T11:37:26.000Z</time>
      </trkpt>
      <trkpt lat="43.63362" lon="5.43363">
        <ele>398.2</ele>
        <time>2022-10-26T11:37:28.000Z</time>
      </trkpt>
      <trkpt lat="43.63364" lon="5.43363">
        <ele>398.3</ele>
        <time>2022-10-26T11:37:30.000Z</time>
      </trkpt>
      <trkpt lat="43.63366" lon="5.43362">
        <ele>398.4</ele>
        <time>2022-10-26T11:37:32.000Z</time>
      </trkpt>
      <trkpt lat="43.63368" lon="5.43361">
        <ele>398.5</ele>
        <time>2022-10-26T11:37:34.000Z</time>
      </trkpt>
      <trkpt lat="43.63371" lon="5.4336">
        <ele>398.4</ele>
        <time>2022-10-26T11:37:36.000Z</time>
      </trkpt>
      <trkpt lat="43.63373" lon="5.4336">
        <ele>398.4</ele>
        <time>2022-10-26T11:37:38.000Z</time>
      </trkpt>
      <trkpt lat="43.63376" lon="5.43358">
        <ele>398.4</ele>
        <time>2022-10-26T11:37:40.000Z</time>
      </trkpt>
      <trkpt lat="43.63378" lon="5.43357">
        <ele>398.3</ele>
        <time>2022-10-26T11:37:42.000Z</time>
      </trkpt>
      <trkpt lat="43.6338" lon="5.43356">
        <ele>398.3</ele>
        <time>2022-10-26T11:37:44.000Z</time>
      </trkpt>
      <trkpt lat="43.63382" lon="5.43356">
        <ele>398.2</ele>
        <time>2022-10-26T11:37:46.000Z</time>
      </trkpt>
      <trkpt lat="43.63384" lon="5.43355">
        <ele>398.2</ele>
        <time>2022-10-26T11:37:48.000Z</time>
      </trkpt>
      <trkpt lat="43.63386" lon="5.43355">
        <ele>398.1</ele>
        <time>2022-10-26T11:37:50.000Z</time>
      </trkpt>
      <trkpt lat="43.63389" lon="5.43355">
        <ele>398</ele>
        <time>2022-10-26T11:37:52.000Z</time>
      </trkpt>
      <trkpt lat="43.63391" lon="5.43354">
        <ele>397.9</ele>
        <time>2022-10-26T11:37:54.000Z</time>
      </trkpt>
      <trkpt lat="43.63393" lon="5.43354">
        <ele>397.7</ele>
        <time>2022-10-26T11:37:56.000Z</time>
      </trkpt>
      <trkpt lat="43.63395" lon="5.43354">
        <ele>397.5</ele>
        <time>2022-10-26T11:37:58.000Z</time>
      </trkpt>
      <trkpt lat="43.63397" lon="5.43354">
        <ele>397.4</ele>
        <time>2022-10-26T11:38:00.000Z</time>
      </trkpt>
      <trkpt lat="43.634" lon="5.43353">
        <ele>397.3</ele>
        <time>2022-10-26T11:38:02.000Z</time>
      </trkpt>
      <trkpt lat="43.63402" lon="5.43353">
        <ele>397.1</ele>
        <time>2022-10-26T11:38:04.000Z</time>
      </trkpt>
      <trkpt lat="43.63404" lon="5.43353">
        <ele>396.9</ele>
        <time>2022-10-26T11:38:06.000Z</time>
      </trkpt>
      <trkpt lat="43.63406" lon="5.43352">
        <ele>396.9</ele>
        <time>2022-10-26T11:38:08.000Z</time>
      </trkpt>
      <trkpt lat="43.63408" lon="5.43352">
        <ele>396.7</ele>
        <time>2022-10-26T11:38:10.000Z</time>
      </trkpt>
      <trkpt lat="43.6341" lon="5.43352">
        <ele>396.6</ele>
        <time>2022-10-26T11:38:12.000Z</time>
      </trkpt>
      <trkpt lat="43.63413" lon="5.43351">
        <ele>396.5</ele>
        <time>2022-10-26T11:38:14.000Z</time>
      </trkpt>
      <trkpt lat="43.63415" lon="5.43349">
        <ele>396.4</ele>
        <time>2022-10-26T11:38:16.000Z</time>
      </trkpt>
      <trkpt lat="43.63417" lon="5.43349">
        <ele>396.2</ele>
        <time>2022-10-26T11:38:18.000Z</time>
      </trkpt>
      <trkpt lat="43.63419" lon="5.43348">
        <ele>395.8</ele>
        <time>2022-10-26T11:38:20.000Z</time>
      </trkpt>
      <trkpt lat="43.63421" lon="5.43347">
        <ele>395.5</ele>
        <time>2022-10-26T11:38:22.000Z</time>
      </trkpt>
      <trkpt lat="43.63423" lon="5.43346">
        <ele>395.2</ele>
        <time>2022-10-26T11:38:24.000Z</time>
      </trkpt>
      <trkpt lat="43.63425" lon="5.43345">
        <ele>395.1</ele>
        <time>2022-10-26T11:38:26.000Z</time>
      </trkpt>
      <trkpt lat="43.63427" lon="5.43344">
        <ele>394.8</ele>
        <time>2022-10-26T11:38:28.000Z</time>
      </trkpt>
      <trkpt lat="43.63429" lon="5.43344">
        <ele>394.6</ele>
        <time>2022-10-26T11:38:30.000Z</time>
      </trkpt>
      <trkpt lat="43.63431" lon="5.43342">
        <ele>394.5</ele>
        <time>2022-10-26T11:38:32.000Z</time>
      </trkpt>
      <trkpt lat="43.63433" lon="5.43341">
        <ele>394.5</ele>
        <time>2022-10-26T11:38:34.000Z</time>
      </trkpt>
      <trkpt lat="43.63435" lon="5.4334">
        <ele>394.5</ele>
        <time>2022-10-26T11:38:36.000Z</time>
      </trkpt>
      <trkpt lat="43.63437" lon="5.43337">
        <ele>394.8</ele>
        <time>2022-10-26T11:38:38.000Z</time>
      </trkpt>
      <trkpt lat="43.63438" lon="5.43335">
        <ele>395.2</ele>
        <time>2022-10-26T11:38:40.000Z</time>
      </trkpt>
      <trkpt lat="43.6344" lon="5.43334">
        <ele>395.3</ele>
        <time>2022-10-26T11:38:42.000Z</time>
      </trkpt>
      <trkpt lat="43.63442" lon="5.43332">
        <ele>395.3</ele>
        <time>2022-10-26T11:38:44.000Z</time>
      </trkpt>
      <trkpt lat="43.63444" lon="5.43331">
        <ele>395.2</ele>
        <time>2022-10-26T11:38:46.000Z</time>
      </trkpt>
      <trkpt lat="43.63446" lon="5.4333">
        <ele>394.9</ele>
        <time>2022-10-26T11:38:48.000Z</time>
      </trkpt>
      <trkpt lat="43.63448" lon="5.43329">
        <ele>394.4</ele>
        <time>2022-10-26T11:38:50.000Z</time>
      </trkpt>
      <trkpt lat="43.6345" lon="5.43328">
        <ele>394.1</ele>
        <time>2022-10-26T11:38:52.000Z</time>
      </trkpt>
      <trkpt lat="43.63452" lon="5.43327">
        <ele>393.8</ele>
        <time>2022-10-26T11:38:54.000Z</time>
      </trkpt>
      <trkpt lat="43.63454" lon="5.43326">
        <ele>393.5</ele>
        <time>2022-10-26T11:38:56.000Z</time>
      </trkpt>
      <trkpt lat="43.63456" lon="5.43325">
        <ele>393.2</ele>
        <time>2022-10-26T11:38:58.000Z</time>
      </trkpt>
      <trkpt lat="43.63457" lon="5.43324">
        <ele>393</ele>
        <time>2022-10-26T11:39:00.000Z</time>
      </trkpt>
      <trkpt lat="43.63459" lon="5.43322">
        <ele>392.9</ele>
        <time>2022-10-26T11:39:02.000Z</time>
      </trkpt>
      <trkpt lat="43.63461" lon="5.43321">
        <ele>392.8</ele>
        <time>2022-10-26T11:39:04.000Z</time>
      </trkpt>
      <trkpt lat="43.63463" lon="5.43319">
        <ele>392.6</ele>
        <time>2022-10-26T11:39:06.000Z</time>
      </trkpt>
      <trkpt lat="43.63465" lon="5.43318">
        <ele>392.5</ele>
        <time>2022-10-26T11:39:08.000Z</time>
      </trkpt>
      <trkpt lat="43.63467" lon="5.43317">
        <ele>392.5</ele>
        <time>2022-10-26T11:39:10.000Z</time>
      </trkpt>
      <trkpt lat="43.63469" lon="5.43315">
        <ele>392.5</ele>
        <time>2022-10-26T11:39:12.000Z</time>
      </trkpt>
      <trkpt lat="43.63471" lon="5.43314">
        <ele>392.5</ele>
        <time>2022-10-26T11:39:14.000Z</time>
      </trkpt>
      <trkpt lat="43.63472" lon="5.43313">
        <ele>392.3</ele>
        <time>2022-10-26T11:39:16.000Z</time>
      </trkpt>
      <trkpt lat="43.63474" lon="5.43313">
        <ele>392.2</ele>
        <time>2022-10-26T11:39:18.000Z</time>
      </trkpt>
      <trkpt lat="43.63476" lon="5.43312">
        <ele>392.1</ele>
        <time>2022-10-26T11:39:20.000Z</time>
      </trkpt>
      <trkpt lat="43.63478" lon="5.43311">
        <ele>392</ele>
        <time>2022-10-26T11:39:22.000Z</time>
      </trkpt>
      <trkpt lat="43.6348" lon="5.4331">
        <ele>392.1</ele>
        <time>2022-10-26T11:39:24.000Z</time>
      </trkpt>
      <trkpt lat="43.63482" lon="5.43309">
        <ele>392.1</ele>
        <time>2022-10-26T11:39:26.000Z</time>
      </trkpt>
      <trkpt lat="43.63484" lon="5.43308">
        <ele>392.1</ele>
        <time>2022-10-26T11:39:28.000Z</time>
      </trkpt>
      <trkpt lat="43.63486" lon="5.43306">
        <ele>392.3</ele>
        <time>2022-10-26T11:39:30.000Z</time>
      </trkpt>
      <trkpt lat="43.63488" lon="5.43305">
        <ele>392.3</ele>
        <time>2022-10-26T11:39:32.000Z</time>
      </trkpt>
      <trkpt lat="43.6349" lon="5.43304">
        <ele>392.3</ele>
        <time>2022-10-26T11:39:34.000Z</time>
      </trkpt>
      <trkpt lat="43.63492" lon="5.43303">
        <ele>392.2</ele>
        <time>2022-10-26T11:39:36.000Z</time>
      </trkpt>
      <trkpt lat="43.63494" lon="5.43302">
        <ele>392.1</ele>
        <time>2022-10-26T11:39:38.000Z</time>
      </trkpt>
      <trkpt lat="43.63496" lon="5.433">
        <ele>392</ele>
        <time>2022-10-26T11:39:40.000Z</time>
      </trkpt>
      <trkpt lat="43.63498" lon="5.43299">
        <ele>391.9</ele>
        <time>2022-10-26T11:39:42.000Z</time>
      </trkpt>
      <trkpt lat="43.635" lon="5.43298">
        <ele>391.9</ele>
        <time>2022-10-26T11:39:44.000Z</time>
      </trkpt>
      <trkpt lat="43.63502" lon="5.43296">
        <ele>391.6</ele>
        <time>2022-10-26T11:39:46.000Z</time>
      </trkpt>
      <trkpt lat="43.63504" lon="5.43295">
        <ele>391.4</ele>
        <time>2022-10-26T11:39:48.000Z</time>
      </trkpt>
      <trkpt lat="43.63506" lon="5.43294">
        <ele>391.2</ele>
        <time>2022-10-26T11:39:50.000Z</time>
      </trkpt>
      <trkpt lat="43.63508" lon="5.43292">
        <ele>391</ele>
        <time>2022-10-26T11:39:52.000Z</time>
      </trkpt>
      <trkpt lat="43.6351" lon="5.43291">
        <ele>390.9</ele>
        <time>2022-10-26T11:39:54.000Z</time>
      </trkpt>
      <trkpt lat="43.63512" lon="5.43289">
        <ele>390.7</ele>
        <time>2022-10-26T11:39:56.000Z</time>
      </trkpt>
      <trkpt lat="43.63514" lon="5.43287">
        <ele>390.7</ele>
        <time>2022-10-26T11:39:58.000Z</time>
      </trkpt>
      <trkpt lat="43.63515" lon="5.43286">
        <ele>390.6</ele>
        <time>2022-10-26T11:40:00.000Z</time>
      </trkpt>
      <trkpt lat="43.63518" lon="5.43284">
        <ele>390.5</ele>
        <time>2022-10-26T11:40:02.000Z</time>
      </trkpt>
      <trkpt lat="43.63519" lon="5.43283">
        <ele>390.5</ele>
        <time>2022-10-26T11:40:04.000Z</time>
      </trkpt>
      <trkpt lat="43.63521" lon="5.43281">
        <ele>390.5</ele>
        <time>2022-10-26T11:40:06.000Z</time>
      </trkpt>
      <trkpt lat="43.63523" lon="5.43279">
        <ele>390.5</ele>
        <time>2022-10-26T11:40:08.000Z</time>
      </trkpt>
      <trkpt lat="43.63525" lon="5.43277">
        <ele>390.5</ele>
        <time>2022-10-26T11:40:10.000Z</time>
      </trkpt>
      <trkpt lat="43.63526" lon="5.43275">
        <ele>390.3</ele>
        <time>2022-10-26T11:40:12.000Z</time>
      </trkpt>
      <trkpt lat="43.63528" lon="5.43272">
        <ele>390.2</ele>
        <time>2022-10-26T11:40:14.000Z</time>
      </trkpt>
      <trkpt lat="43.6353" lon="5.4327">
        <ele>389.9</ele>
        <time>2022-10-26T11:40:16.000Z</time>
      </trkpt>
      <trkpt lat="43.63531" lon="5.43268">
        <ele>389.6</ele>
        <time>2022-10-26T11:40:18.000Z</time>
      </trkpt>
      <trkpt lat="43.63533" lon="5.43267">
        <ele>389.2</ele>
        <time>2022-10-26T11:40:20.000Z</time>
      </trkpt>
      <trkpt lat="43.63535" lon="5.43266">
        <ele>389</ele>
        <time>2022-10-26T11:40:22.000Z</time>
      </trkpt>
      <trkpt lat="43.63537" lon="5.43264">
        <ele>388.8</ele>
        <time>2022-10-26T11:40:24.000Z</time>
      </trkpt>
      <trkpt lat="43.63539" lon="5.43262">
        <ele>388.7</ele>
        <time>2022-10-26T11:40:26.000Z</time>
      </trkpt>
      <trkpt lat="43.6354" lon="5.4326">
        <ele>388.7</ele>
        <time>2022-10-26T11:40:28.000Z</time>
      </trkpt>
      <trkpt lat="43.63542" lon="5.43259">
        <ele>388.7</ele>
        <time>2022-10-26T11:40:30.000Z</time>
      </trkpt>
      <trkpt lat="43.63544" lon="5.43257">
        <ele>388.7</ele>
        <time>2022-10-26T11:40:32.000Z</time>
      </trkpt>
      <trkpt lat="43.63546" lon="5.43255">
        <ele>388.8</ele>
        <time>2022-10-26T11:40:34.000Z</time>
      </trkpt>
      <trkpt lat="43.63547" lon="5.43254">
        <ele>388.9</ele>
        <time>2022-10-26T11:40:36.000Z</time>
      </trkpt>
      <trkpt lat="43.63549" lon="5.43252">
        <ele>389</ele>
        <time>2022-10-26T11:40:38.000Z</time>
      </trkpt>
      <trkpt lat="43.63551" lon="5.4325">
        <ele>389.2</ele>
        <time>2022-10-26T11:40:40.000Z</time>
      </trkpt>
      <trkpt lat="43.63553" lon="5.43249">
        <ele>389.2</ele>
        <time>2022-10-26T11:40:42.000Z</time>
      </trkpt>
      <trkpt lat="43.63554" lon="5.43246">
        <ele>389.1</ele>
        <time>2022-10-26T11:40:44.000Z</time>
      </trkpt>
      <trkpt lat="43.63555" lon="5.43244">
        <ele>389</ele>
        <time>2022-10-26T11:40:46.000Z</time>
      </trkpt>
      <trkpt lat="43.63556" lon="5.43242">
        <ele>389</ele>
        <time>2022-10-26T11:40:48.000Z</time>
      </trkpt>
      <trkpt lat="43.63556" lon="5.43239">
        <ele>388.8</ele>
        <time>2022-10-26T11:40:50.000Z</time>
      </trkpt>
      <trkpt lat="43.63557" lon="5.43236">
        <ele>388.7</ele>
        <time>2022-10-26T11:40:53.000Z</time>
      </trkpt>
      <trkpt lat="43.63557" lon="5.43234">
        <ele>388.8</ele>
        <time>2022-10-26T11:41:13.000Z</time>
      </trkpt>
      <trkpt lat="43.63557" lon="5.43231">
        <ele>388.8</ele>
        <time>2022-10-26T11:41:17.000Z</time>
      </trkpt>
      <trkpt lat="43.63558" lon="5.43229">
        <ele>388.6</ele>
        <time>2022-10-26T11:43:36.000Z</time>
      </trkpt>
      <trkpt lat="43.63559" lon="5.43226">
        <ele>388.6</ele>
        <time>2022-10-26T11:43:39.000Z</time>
      </trkpt>
      <trkpt lat="43.6356" lon="5.43223">
        <ele>388.6</ele>
        <time>2022-10-26T11:43:41.000Z</time>
      </trkpt>
      <trkpt lat="43.63561" lon="5.43221">
        <ele>388.7</ele>
        <time>2022-10-26T11:43:43.000Z</time>
      </trkpt>
      <trkpt lat="43.63562" lon="5.43217">
        <ele>388.9</ele>
        <time>2022-10-26T11:43:45.000Z</time>
      </trkpt>
      <trkpt lat="43.63563" lon="5.43213">
        <ele>389.2</ele>
        <time>2022-10-26T11:43:47.000Z</time>
      </trkpt>
      <trkpt lat="43.63563" lon="5.4321">
        <ele>389.5</ele>
        <time>2022-10-26T11:43:49.000Z</time>
      </trkpt>
      <trkpt lat="43.63563" lon="5.43206">
        <ele>389.7</ele>
        <time>2022-10-26T11:43:52.000Z</time>
      </trkpt>
      <trkpt lat="43.63564" lon="5.43204">
        <ele>389.9</ele>
        <time>2022-10-26T11:43:54.000Z</time>
      </trkpt>
      <trkpt lat="43.63564" lon="5.43201">
        <ele>390.1</ele>
        <time>2022-10-26T11:43:56.000Z</time>
      </trkpt>
      <trkpt lat="43.63566" lon="5.43198">
        <ele>390.3</ele>
        <time>2022-10-26T11:43:58.000Z</time>
      </trkpt>
      <trkpt lat="43.63567" lon="5.43197">
        <ele>390.4</ele>
        <time>2022-10-26T11:44:00.000Z</time>
      </trkpt>
      <trkpt lat="43.63569" lon="5.43198">
        <ele>390.2</ele>
        <time>2022-10-26T11:44:02.000Z</time>
      </trkpt>
      <trkpt lat="43.63569" lon="5.43203">
        <ele>389.8</ele>
        <time>2022-10-26T11:44:05.000Z</time>
      </trkpt>
      <trkpt lat="43.63571" lon="5.43203">
        <ele>389.7</ele>
        <time>2022-10-26T11:44:06.000Z</time>
      </trkpt>
      <trkpt lat="43.63573" lon="5.432">
        <ele>389.8</ele>
        <time>2022-10-26T11:44:08.000Z</time>
      </trkpt>
      <trkpt lat="43.63574" lon="5.43198">
        <ele>390</ele>
        <time>2022-10-26T11:44:10.000Z</time>
      </trkpt>
      <trkpt lat="43.63575" lon="5.43195">
        <ele>390.2</ele>
        <time>2022-10-26T11:44:12.000Z</time>
      </trkpt>
      <trkpt lat="43.63577" lon="5.43193">
        <ele>390.2</ele>
        <time>2022-10-26T11:44:14.000Z</time>
      </trkpt>
      <trkpt lat="43.63578" lon="5.43191">
        <ele>390.2</ele>
        <time>2022-10-26T11:44:16.000Z</time>
      </trkpt>
      <trkpt lat="43.63579" lon="5.43189">
        <ele>390.1</ele>
        <time>2022-10-26T11:44:18.000Z</time>
      </trkpt>
      <trkpt lat="43.63581" lon="5.43187">
        <ele>390.1</ele>
        <time>2022-10-26T11:44:20.000Z</time>
      </trkpt>
      <trkpt lat="43.63583" lon="5.43186">
        <ele>390</ele>
        <time>2022-10-26T11:44:22.000Z</time>
      </trkpt>
      <trkpt lat="43.63585" lon="5.43186">
        <ele>389.9</ele>
        <time>2022-10-26T11:44:24.000Z</time>
      </trkpt>
      <trkpt lat="43.63587" lon="5.43184">
        <ele>389.7</ele>
        <time>2022-10-26T11:44:26.000Z</time>
      </trkpt>
      <trkpt lat="43.63589" lon="5.43182">
        <ele>389.6</ele>
        <time>2022-10-26T11:44:28.000Z</time>
      </trkpt>
      <trkpt lat="43.63591" lon="5.43181">
        <ele>389.4</ele>
        <time>2022-10-26T11:44:30.000Z</time>
      </trkpt>
      <trkpt lat="43.63593" lon="5.43179">
        <ele>389.3</ele>
        <time>2022-10-26T11:44:32.000Z</time>
      </trkpt>
      <trkpt lat="43.63595" lon="5.43178">
        <ele>389.1</ele>
        <time>2022-10-26T11:44:34.000Z</time>
      </trkpt>
      <trkpt lat="43.63598" lon="5.43178">
        <ele>389</ele>
        <time>2022-10-26T11:44:36.000Z</time>
      </trkpt>
      <trkpt lat="43.636" lon="5.43177">
        <ele>388.8</ele>
        <time>2022-10-26T11:44:38.000Z</time>
      </trkpt>
      <trkpt lat="43.63602" lon="5.43177">
        <ele>388.6</ele>
        <time>2022-10-26T11:44:40.000Z</time>
      </trkpt>
      <trkpt lat="43.63604" lon="5.43176">
        <ele>388.5</ele>
        <time>2022-10-26T11:44:42.000Z</time>
      </trkpt>
      <trkpt lat="43.63606" lon="5.43174">
        <ele>388.4</ele>
        <time>2022-10-26T11:44:44.000Z</time>
      </trkpt>
      <trkpt lat="43.63608" lon="5.43174">
        <ele>388.2</ele>
        <time>2022-10-26T11:44:46.000Z</time>
      </trkpt>
      <trkpt lat="43.63611" lon="5.43174">
        <ele>388</ele>
        <time>2022-10-26T11:44:48.000Z</time>
      </trkpt>
      <trkpt lat="43.63613" lon="5.43175">
        <ele>387.9</ele>
        <time>2022-10-26T11:44:50.000Z</time>
      </trkpt>
      <trkpt lat="43.63615" lon="5.43175">
        <ele>387.7</ele>
        <time>2022-10-26T11:44:52.000Z</time>
      </trkpt>
      <trkpt lat="43.63617" lon="5.43175">
        <ele>387.6</ele>
        <time>2022-10-26T11:44:54.000Z</time>
      </trkpt>
      <trkpt lat="43.63619" lon="5.43175">
        <ele>387.5</ele>
        <time>2022-10-26T11:44:56.000Z</time>
      </trkpt>
      <trkpt lat="43.63621" lon="5.43175">
        <ele>387.3</ele>
        <time>2022-10-26T11:44:58.000Z</time>
      </trkpt>
      <trkpt lat="43.63624" lon="5.43175">
        <ele>387.1</ele>
        <time>2022-10-26T11:45:00.000Z</time>
      </trkpt>
      <trkpt lat="43.63626" lon="5.43178">
        <ele>387</ele>
        <time>2022-10-26T11:45:03.000Z</time>
      </trkpt>
      <trkpt lat="43.63628" lon="5.43178">
        <ele>386.8</ele>
        <time>2022-10-26T11:45:06.000Z</time>
      </trkpt>
      <trkpt lat="43.6363" lon="5.43177">
        <ele>386.6</ele>
        <time>2022-10-26T11:45:09.000Z</time>
      </trkpt>
      <trkpt lat="43.63632" lon="5.43177">
        <ele>386.5</ele>
        <time>2022-10-26T11:45:11.000Z</time>
      </trkpt>
      <trkpt lat="43.63634" lon="5.43178">
        <ele>386.4</ele>
        <time>2022-10-26T11:45:13.000Z</time>
      </trkpt>
      <trkpt lat="43.63636" lon="5.43179">
        <ele>386.2</ele>
        <time>2022-10-26T11:45:15.000Z</time>
      </trkpt>
      <trkpt lat="43.63637" lon="5.4318">
        <ele>386.1</ele>
        <time>2022-10-26T11:45:17.000Z</time>
      </trkpt>
      <trkpt lat="43.63639" lon="5.43183">
        <ele>386</ele>
        <time>2022-10-26T11:45:20.000Z</time>
      </trkpt>
      <trkpt lat="43.63641" lon="5.43185">
        <ele>385.9</ele>
        <time>2022-10-26T11:45:23.000Z</time>
      </trkpt>
      <trkpt lat="43.63643" lon="5.43187">
        <ele>385.9</ele>
        <time>2022-10-26T11:45:25.000Z</time>
      </trkpt>
      <trkpt lat="43.63645" lon="5.43188">
        <ele>385.8</ele>
        <time>2022-10-26T11:45:27.000Z</time>
      </trkpt>
      <trkpt lat="43.63648" lon="5.43187">
        <ele>385.7</ele>
        <time>2022-10-26T11:45:29.000Z</time>
      </trkpt>
      <trkpt lat="43.6365" lon="5.43187">
        <ele>385.6</ele>
        <time>2022-10-26T11:45:31.000Z</time>
      </trkpt>
      <trkpt lat="43.63652" lon="5.43187">
        <ele>385.5</ele>
        <time>2022-10-26T11:45:33.000Z</time>
      </trkpt>
      <trkpt lat="43.63654" lon="5.43186">
        <ele>385.5</ele>
        <time>2022-10-26T11:45:35.000Z</time>
      </trkpt>
      <trkpt lat="43.63656" lon="5.43185">
        <ele>385.4</ele>
        <time>2022-10-26T11:45:37.000Z</time>
      </trkpt>
      <trkpt lat="43.63658" lon="5.43184">
        <ele>385.3</ele>
        <time>2022-10-26T11:45:39.000Z</time>
      </trkpt>
      <trkpt lat="43.6366" lon="5.43183">
        <ele>385.2</ele>
        <time>2022-10-26T11:45:41.000Z</time>
      </trkpt>
      <trkpt lat="43.63662" lon="5.43182">
        <ele>385.2</ele>
        <time>2022-10-26T11:45:43.000Z</time>
      </trkpt>
      <trkpt lat="43.63665" lon="5.43181">
        <ele>385.1</ele>
        <time>2022-10-26T11:45:45.000Z</time>
      </trkpt>
      <trkpt lat="43.63666" lon="5.4318">
        <ele>385</ele>
        <time>2022-10-26T11:45:47.000Z</time>
      </trkpt>
      <trkpt lat="43.63668" lon="5.43179">
        <ele>385</ele>
        <time>2022-10-26T11:45:49.000Z</time>
      </trkpt>
      <trkpt lat="43.6367" lon="5.43177">
        <ele>384.9</ele>
        <time>2022-10-26T11:45:51.000Z</time>
      </trkpt>
      <trkpt lat="43.63672" lon="5.43176">
        <ele>384.9</ele>
        <time>2022-10-26T11:45:53.000Z</time>
      </trkpt>
      <trkpt lat="43.63674" lon="5.43175">
        <ele>384.9</ele>
        <time>2022-10-26T11:45:55.000Z</time>
      </trkpt>
      <trkpt lat="43.63676" lon="5.43174">
        <ele>384.8</ele>
        <time>2022-10-26T11:45:57.000Z</time>
      </trkpt>
      <trkpt lat="43.63678" lon="5.43173">
        <ele>384.8</ele>
        <time>2022-10-26T11:45:59.000Z</time>
      </trkpt>
      <trkpt lat="43.6368" lon="5.43173">
        <ele>384.8</ele>
        <time>2022-10-26T11:46:01.000Z</time>
      </trkpt>
      <trkpt lat="43.63683" lon="5.43171">
        <ele>384.8</ele>
        <time>2022-10-26T11:46:03.000Z</time>
      </trkpt>
      <trkpt lat="43.63685" lon="5.43171">
        <ele>384.8</ele>
        <time>2022-10-26T11:46:05.000Z</time>
      </trkpt>
      <trkpt lat="43.63687" lon="5.43171">
        <ele>384.8</ele>
        <time>2022-10-26T11:46:07.000Z</time>
      </trkpt>
      <trkpt lat="43.63689" lon="5.43173">
        <ele>384.6</ele>
        <time>2022-10-26T11:46:09.000Z</time>
      </trkpt>
      <trkpt lat="43.63691" lon="5.43173">
        <ele>384.6</ele>
        <time>2022-10-26T11:46:11.000Z</time>
      </trkpt>
      <trkpt lat="43.63693" lon="5.43173">
        <ele>384.6</ele>
        <time>2022-10-26T11:46:13.000Z</time>
      </trkpt>
      <trkpt lat="43.63695" lon="5.43173">
        <ele>384.5</ele>
        <time>2022-10-26T11:46:15.000Z</time>
      </trkpt>
      <trkpt lat="43.63697" lon="5.43173">
        <ele>384.5</ele>
        <time>2022-10-26T11:46:17.000Z</time>
      </trkpt>
      <trkpt lat="43.63699" lon="5.43172">
        <ele>384.4</ele>
        <time>2022-10-26T11:46:19.000Z</time>
      </trkpt>
      <trkpt lat="43.63701" lon="5.43172">
        <ele>384.3</ele>
        <time>2022-10-26T11:46:21.000Z</time>
      </trkpt>
      <trkpt lat="43.63703" lon="5.43172">
        <ele>384.2</ele>
        <time>2022-10-26T11:46:23.000Z</time>
      </trkpt>
      <trkpt lat="43.63705" lon="5.43173">
        <ele>384</ele>
        <time>2022-10-26T11:46:25.000Z</time>
      </trkpt>
      <trkpt lat="43.63707" lon="5.43173">
        <ele>383.9</ele>
        <time>2022-10-26T11:46:27.000Z</time>
      </trkpt>
      <trkpt lat="43.63709" lon="5.43174">
        <ele>383.7</ele>
        <time>2022-10-26T11:46:29.000Z</time>
      </trkpt>
      <trkpt lat="43.63711" lon="5.43174">
        <ele>383.5</ele>
        <time>2022-10-26T11:46:31.000Z</time>
      </trkpt>
      <trkpt lat="43.63714" lon="5.43174">
        <ele>383.4</ele>
        <time>2022-10-26T11:46:33.000Z</time>
      </trkpt>
      <trkpt lat="43.63716" lon="5.43175">
        <ele>383.2</ele>
        <time>2022-10-26T11:46:35.000Z</time>
      </trkpt>
      <trkpt lat="43.63718" lon="5.43175">
        <ele>383</ele>
        <time>2022-10-26T11:46:37.000Z</time>
      </trkpt>
      <trkpt lat="43.6372" lon="5.43175">
        <ele>382.9</ele>
        <time>2022-10-26T11:46:39.000Z</time>
      </trkpt>
      <trkpt lat="43.63723" lon="5.43175">
        <ele>382.8</ele>
        <time>2022-10-26T11:46:41.000Z</time>
      </trkpt>
      <trkpt lat="43.63725" lon="5.43175">
        <ele>382.5</ele>
        <time>2022-10-26T11:46:43.000Z</time>
      </trkpt>
      <trkpt lat="43.63727" lon="5.43175">
        <ele>382.3</ele>
        <time>2022-10-26T11:46:45.000Z</time>
      </trkpt>
      <trkpt lat="43.63729" lon="5.43175">
        <ele>382.1</ele>
        <time>2022-10-26T11:46:47.000Z</time>
      </trkpt>
      <trkpt lat="43.63731" lon="5.43176">
        <ele>381.8</ele>
        <time>2022-10-26T11:46:49.000Z</time>
      </trkpt>
      <trkpt lat="43.63733" lon="5.43177">
        <ele>381.4</ele>
        <time>2022-10-26T11:46:51.000Z</time>
      </trkpt>
      <trkpt lat="43.63735" lon="5.43178">
        <ele>381.1</ele>
        <time>2022-10-26T11:46:53.000Z</time>
      </trkpt>
      <trkpt lat="43.63738" lon="5.43178">
        <ele>380.9</ele>
        <time>2022-10-26T11:46:55.000Z</time>
      </trkpt>
      <trkpt lat="43.63739" lon="5.43179">
        <ele>380.6</ele>
        <time>2022-10-26T11:46:57.000Z</time>
      </trkpt>
      <trkpt lat="43.63742" lon="5.43181">
        <ele>380.2</ele>
        <time>2022-10-26T11:47:00.000Z</time>
      </trkpt>
      <trkpt lat="43.63744" lon="5.43182">
        <ele>379.9</ele>
        <time>2022-10-26T11:47:02.000Z</time>
      </trkpt>
      <trkpt lat="43.63746" lon="5.43184">
        <ele>379.5</ele>
        <time>2022-10-26T11:47:05.000Z</time>
      </trkpt>
      <trkpt lat="43.63749" lon="5.43183">
        <ele>379.3</ele>
        <time>2022-10-26T11:47:08.000Z</time>
      </trkpt>
      <trkpt lat="43.63751" lon="5.43182">
        <ele>379.2</ele>
        <time>2022-10-26T11:47:11.000Z</time>
      </trkpt>
      <trkpt lat="43.63753" lon="5.43182">
        <ele>379</ele>
        <time>2022-10-26T11:47:14.000Z</time>
      </trkpt>
      <trkpt lat="43.63755" lon="5.43181">
        <ele>379</ele>
        <time>2022-10-26T11:47:17.000Z</time>
      </trkpt>
      <trkpt lat="43.63757" lon="5.43182">
        <ele>378.7</ele>
        <time>2022-10-26T11:47:20.000Z</time>
      </trkpt>
      <trkpt lat="43.63759" lon="5.43183">
        <ele>378.5</ele>
        <time>2022-10-26T11:47:23.000Z</time>
      </trkpt>
      <trkpt lat="43.63761" lon="5.43184">
        <ele>378.2</ele>
        <time>2022-10-26T11:47:25.000Z</time>
      </trkpt>
      <trkpt lat="43.63762" lon="5.43187">
        <ele>377.8</ele>
        <time>2022-10-26T11:47:28.000Z</time>
      </trkpt>
      <trkpt lat="43.63764" lon="5.43187">
        <ele>377.6</ele>
        <time>2022-10-26T11:47:31.000Z</time>
      </trkpt>
      <trkpt lat="43.63766" lon="5.43187">
        <ele>377.4</ele>
        <time>2022-10-26T11:47:34.000Z</time>
      </trkpt>
      <trkpt lat="43.63768" lon="5.43187">
        <ele>377.3</ele>
        <time>2022-10-26T11:47:36.000Z</time>
      </trkpt>
      <trkpt lat="43.6377" lon="5.43188">
        <ele>377.1</ele>
        <time>2022-10-26T11:47:38.000Z</time>
      </trkpt>
      <trkpt lat="43.63773" lon="5.43189">
        <ele>376.8</ele>
        <time>2022-10-26T11:47:41.000Z</time>
      </trkpt>
      <trkpt lat="43.63775" lon="5.4319">
        <ele>376.6</ele>
        <time>2022-10-26T11:47:43.000Z</time>
      </trkpt>
      <trkpt lat="43.63777" lon="5.4319">
        <ele>376.4</ele>
        <time>2022-10-26T11:47:45.000Z</time>
      </trkpt>
      <trkpt lat="43.63778" lon="5.4319">
        <ele>376.3</ele>
        <time>2022-10-26T11:47:47.000Z</time>
      </trkpt>
      <trkpt lat="43.63781" lon="5.4319">
        <ele>376.2</ele>
        <time>2022-10-26T11:47:50.000Z</time>
      </trkpt>
      <trkpt lat="43.63783" lon="5.4319">
        <ele>376.1</ele>
        <time>2022-10-26T11:47:53.000Z</time>
      </trkpt>
      <trkpt lat="43.63785" lon="5.43191">
        <ele>376</ele>
        <time>2022-10-26T11:47:55.000Z</time>
      </trkpt>
      <trkpt lat="43.63787" lon="5.43192">
        <ele>375.8</ele>
        <time>2022-10-26T11:47:58.000Z</time>
      </trkpt>
      <trkpt lat="43.6379" lon="5.43192">
        <ele>375.7</ele>
        <time>2022-10-26T11:48:01.000Z</time>
      </trkpt>
      <trkpt lat="43.63792" lon="5.43192">
        <ele>375.6</ele>
        <time>2022-10-26T11:48:04.000Z</time>
      </trkpt>
      <trkpt lat="43.63795" lon="5.43193">
        <ele>375.5</ele>
        <time>2022-10-26T11:48:07.000Z</time>
      </trkpt>
      <trkpt lat="43.63797" lon="5.43194">
        <ele>375.4</ele>
        <time>2022-10-26T11:48:10.000Z</time>
      </trkpt>
      <trkpt lat="43.63799" lon="5.43195">
        <ele>375.2</ele>
        <time>2022-10-26T11:48:13.000Z</time>
      </trkpt>
      <trkpt lat="43.63801" lon="5.43195">
        <ele>375</ele>
        <time>2022-10-26T11:48:16.000Z</time>
      </trkpt>
      <trkpt lat="43.63803" lon="5.43197">
        <ele>374.7</ele>
        <time>2022-10-26T11:48:19.000Z</time>
      </trkpt>
      <trkpt lat="43.63805" lon="5.43197">
        <ele>374.6</ele>
        <time>2022-10-26T11:48:21.000Z</time>
      </trkpt>
      <trkpt lat="43.63807" lon="5.43197">
        <ele>374.5</ele>
        <time>2022-10-26T11:48:23.000Z</time>
      </trkpt>
      <trkpt lat="43.6381" lon="5.43198">
        <ele>374.3</ele>
        <time>2022-10-26T11:48:26.000Z</time>
      </trkpt>
      <trkpt lat="43.63812" lon="5.432">
        <ele>374</ele>
        <time>2022-10-26T11:48:29.000Z</time>
      </trkpt>
      <trkpt lat="43.63814" lon="5.432">
        <ele>374</ele>
        <time>2022-10-26T11:48:32.000Z</time>
      </trkpt>
      <trkpt lat="43.63817" lon="5.432">
        <ele>374</ele>
        <time>2022-10-26T11:48:35.000Z</time>
      </trkpt>
      <trkpt lat="43.63819" lon="5.432">
        <ele>374</ele>
        <time>2022-10-26T11:48:38.000Z</time>
      </trkpt>
      <trkpt lat="43.63822" lon="5.43199">
        <ele>374</ele>
        <time>2022-10-26T11:48:40.000Z</time>
      </trkpt>
      <trkpt lat="43.63824" lon="5.432">
        <ele>373.9</ele>
        <time>2022-10-26T11:48:42.000Z</time>
      </trkpt>
      <trkpt lat="43.63826" lon="5.432">
        <ele>373.9</ele>
        <time>2022-10-26T11:48:44.000Z</time>
      </trkpt>
      <trkpt lat="43.63828" lon="5.432">
        <ele>373.9</ele>
        <time>2022-10-26T11:48:46.000Z</time>
      </trkpt>
      <trkpt lat="43.6383" lon="5.432">
        <ele>373.8</ele>
        <time>2022-10-26T11:48:48.000Z</time>
      </trkpt>
      <trkpt lat="43.63832" lon="5.432">
        <ele>373.7</ele>
        <time>2022-10-26T11:48:50.000Z</time>
      </trkpt>
      <trkpt lat="43.63834" lon="5.43201">
        <ele>373.6</ele>
        <time>2022-10-26T11:48:52.000Z</time>
      </trkpt>
      <trkpt lat="43.63835" lon="5.43201">
        <ele>373.4</ele>
        <time>2022-10-26T11:48:54.000Z</time>
      </trkpt>
      <trkpt lat="43.63837" lon="5.43201">
        <ele>373.4</ele>
        <time>2022-10-26T11:48:56.000Z</time>
      </trkpt>
      <trkpt lat="43.63839" lon="5.43201">
        <ele>373.4</ele>
        <time>2022-10-26T11:48:58.000Z</time>
      </trkpt>
      <trkpt lat="43.63842" lon="5.432">
        <ele>373.5</ele>
        <time>2022-10-26T11:49:01.000Z</time>
      </trkpt>
      <trkpt lat="43.63844" lon="5.432">
        <ele>373.5</ele>
        <time>2022-10-26T11:49:03.000Z</time>
      </trkpt>
      <trkpt lat="43.63846" lon="5.432">
        <ele>373.4</ele>
        <time>2022-10-26T11:49:05.000Z</time>
      </trkpt>
      <trkpt lat="43.63847" lon="5.43201">
        <ele>373.2</ele>
        <time>2022-10-26T11:49:07.000Z</time>
      </trkpt>
      <trkpt lat="43.63849" lon="5.43201">
        <ele>373</ele>
        <time>2022-10-26T11:49:09.000Z</time>
      </trkpt>
      <trkpt lat="43.63851" lon="5.43202">
        <ele>372.8</ele>
        <time>2022-10-26T11:49:11.000Z</time>
      </trkpt>
      <trkpt lat="43.63853" lon="5.43202">
        <ele>372.6</ele>
        <time>2022-10-26T11:49:13.000Z</time>
      </trkpt>
      <trkpt lat="43.63855" lon="5.43203">
        <ele>372.4</ele>
        <time>2022-10-26T11:49:15.000Z</time>
      </trkpt>
      <trkpt lat="43.63857" lon="5.43203">
        <ele>372.2</ele>
        <time>2022-10-26T11:49:17.000Z</time>
      </trkpt>
      <trkpt lat="43.63859" lon="5.43204">
        <ele>372</ele>
        <time>2022-10-26T11:49:19.000Z</time>
      </trkpt>
      <trkpt lat="43.63861" lon="5.43204">
        <ele>371.9</ele>
        <time>2022-10-26T11:49:21.000Z</time>
      </trkpt>
      <trkpt lat="43.63863" lon="5.43205">
        <ele>371.7</ele>
        <time>2022-10-26T11:49:23.000Z</time>
      </trkpt>
      <trkpt lat="43.63865" lon="5.43205">
        <ele>371.6</ele>
        <time>2022-10-26T11:49:25.000Z</time>
      </trkpt>
      <trkpt lat="43.63867" lon="5.43205">
        <ele>371.5</ele>
        <time>2022-10-26T11:49:27.000Z</time>
      </trkpt>
      <trkpt lat="43.63869" lon="5.43205">
        <ele>371.4</ele>
        <time>2022-10-26T11:49:29.000Z</time>
      </trkpt>
      <trkpt lat="43.63871" lon="5.43205">
        <ele>371.4</ele>
        <time>2022-10-26T11:49:31.000Z</time>
      </trkpt>
      <trkpt lat="43.63873" lon="5.43205">
        <ele>371.2</ele>
        <time>2022-10-26T11:49:33.000Z</time>
      </trkpt>
      <trkpt lat="43.63876" lon="5.43205">
        <ele>371.2</ele>
        <time>2022-10-26T11:49:35.000Z</time>
      </trkpt>
      <trkpt lat="43.63878" lon="5.43205">
        <ele>371.1</ele>
        <time>2022-10-26T11:49:37.000Z</time>
      </trkpt>
      <trkpt lat="43.6388" lon="5.43205">
        <ele>371</ele>
        <time>2022-10-26T11:49:39.000Z</time>
      </trkpt>
      <trkpt lat="43.63882" lon="5.43206">
        <ele>370.9</ele>
        <time>2022-10-26T11:49:41.000Z</time>
      </trkpt>
      <trkpt lat="43.63885" lon="5.43206">
        <ele>370.7</ele>
        <time>2022-10-26T11:49:44.000Z</time>
      </trkpt>
      <trkpt lat="43.63887" lon="5.43206">
        <ele>370.6</ele>
        <time>2022-10-26T11:49:46.000Z</time>
      </trkpt>
      <trkpt lat="43.63888" lon="5.43207">
        <ele>370.3</ele>
        <time>2022-10-26T11:49:48.000Z</time>
      </trkpt>
      <trkpt lat="43.6389" lon="5.43208">
        <ele>370.1</ele>
        <time>2022-10-26T11:49:50.000Z</time>
      </trkpt>
      <trkpt lat="43.63892" lon="5.43206">
        <ele>370.7</ele>
        <time>2022-10-26T11:49:53.000Z</time>
      </trkpt>
      <trkpt lat="43.63893" lon="5.43205">
        <ele>371</ele>
        <time>2022-10-26T11:49:58.000Z</time>
      </trkpt>
      <trkpt lat="43.63895" lon="5.43203">
        <ele>371.6</ele>
        <time>2022-10-26T11:50:00.000Z</time>
      </trkpt>
      <trkpt lat="43.63897" lon="5.43206">
        <ele>371.2</ele>
        <time>2022-10-26T11:50:02.000Z</time>
      </trkpt>
      <trkpt lat="43.63897" lon="5.43208">
        <ele>370.6</ele>
        <time>2022-10-26T11:50:04.000Z</time>
      </trkpt>
      <trkpt lat="43.63899" lon="5.43211">
        <ele>370.2</ele>
        <time>2022-10-26T11:50:09.000Z</time>
      </trkpt>
      <trkpt lat="43.63901" lon="5.43211">
        <ele>370.3</ele>
        <time>2022-10-26T11:50:12.000Z</time>
      </trkpt>
      <trkpt lat="43.63903" lon="5.43212">
        <ele>370.1</ele>
        <time>2022-10-26T11:50:14.000Z</time>
      </trkpt>
      <trkpt lat="43.63905" lon="5.43212">
        <ele>370.3</ele>
        <time>2022-10-26T11:50:16.000Z</time>
      </trkpt>
      <trkpt lat="43.63907" lon="5.43212">
        <ele>370.4</ele>
        <time>2022-10-26T11:50:18.000Z</time>
      </trkpt>
      <trkpt lat="43.63909" lon="5.43213">
        <ele>370.4</ele>
        <time>2022-10-26T11:50:20.000Z</time>
      </trkpt>
      <trkpt lat="43.63911" lon="5.43213">
        <ele>370.6</ele>
        <time>2022-10-26T11:50:22.000Z</time>
      </trkpt>
      <trkpt lat="43.63912" lon="5.43213">
        <ele>370.6</ele>
        <time>2022-10-26T11:50:24.000Z</time>
      </trkpt>
      <trkpt lat="43.63914" lon="5.43214">
        <ele>370.6</ele>
        <time>2022-10-26T11:50:26.000Z</time>
      </trkpt>
      <trkpt lat="43.63916" lon="5.43215">
        <ele>370.6</ele>
        <time>2022-10-26T11:50:28.000Z</time>
      </trkpt>
      <trkpt lat="43.63919" lon="5.43215">
        <ele>370.7</ele>
        <time>2022-10-26T11:50:30.000Z</time>
      </trkpt>
      <trkpt lat="43.63921" lon="5.43215">
        <ele>370.7</ele>
        <time>2022-10-26T11:50:32.000Z</time>
      </trkpt>
      <trkpt lat="43.63923" lon="5.43215">
        <ele>370.8</ele>
        <time>2022-10-26T11:50:34.000Z</time>
      </trkpt>
      <trkpt lat="43.63925" lon="5.43215">
        <ele>370.8</ele>
        <time>2022-10-26T11:50:36.000Z</time>
      </trkpt>
      <trkpt lat="43.63927" lon="5.43216">
        <ele>370.6</ele>
        <time>2022-10-26T11:50:38.000Z</time>
      </trkpt>
      <trkpt lat="43.63929" lon="5.43217">
        <ele>370.5</ele>
        <time>2022-10-26T11:50:40.000Z</time>
      </trkpt>
      <trkpt lat="43.63931" lon="5.43218">
        <ele>370.4</ele>
        <time>2022-10-26T11:50:42.000Z</time>
      </trkpt>
      <trkpt lat="43.63933" lon="5.43219">
        <ele>370.2</ele>
        <time>2022-10-26T11:50:44.000Z</time>
      </trkpt>
      <trkpt lat="43.63935" lon="5.4322">
        <ele>370.2</ele>
        <time>2022-10-26T11:50:46.000Z</time>
      </trkpt>
      <trkpt lat="43.63937" lon="5.43221">
        <ele>370.1</ele>
        <time>2022-10-26T11:50:48.000Z</time>
      </trkpt>
      <trkpt lat="43.6394" lon="5.43221">
        <ele>370</ele>
        <time>2022-10-26T11:50:50.000Z</time>
      </trkpt>
      <trkpt lat="43.63942" lon="5.43222">
        <ele>370</ele>
        <time>2022-10-26T11:50:52.000Z</time>
      </trkpt>
      <trkpt lat="43.63944" lon="5.43222">
        <ele>369.9</ele>
        <time>2022-10-26T11:50:54.000Z</time>
      </trkpt>
      <trkpt lat="43.63946" lon="5.43223">
        <ele>369.8</ele>
        <time>2022-10-26T11:50:56.000Z</time>
      </trkpt>
      <trkpt lat="43.63948" lon="5.43224">
        <ele>369.6</ele>
        <time>2022-10-26T11:50:58.000Z</time>
      </trkpt>
      <trkpt lat="43.63951" lon="5.43224">
        <ele>369.4</ele>
        <time>2022-10-26T11:51:00.000Z</time>
      </trkpt>
      <trkpt lat="43.63954" lon="5.43224">
        <ele>369.5</ele>
        <time>2022-10-26T11:51:02.000Z</time>
      </trkpt>
      <trkpt lat="43.63956" lon="5.43224">
        <ele>369.5</ele>
        <time>2022-10-26T11:51:04.000Z</time>
      </trkpt>
      <trkpt lat="43.63958" lon="5.43222">
        <ele>370</ele>
        <time>2022-10-26T11:51:06.000Z</time>
      </trkpt>
      <trkpt lat="43.6396" lon="5.43222">
        <ele>370.1</ele>
        <time>2022-10-26T11:51:08.000Z</time>
      </trkpt>
      <trkpt lat="43.63962" lon="5.4322">
        <ele>370.5</ele>
        <time>2022-10-26T11:51:11.000Z</time>
      </trkpt>
      <trkpt lat="43.63964" lon="5.43218">
        <ele>370.9</ele>
        <time>2022-10-26T11:51:15.000Z</time>
      </trkpt>
      <trkpt lat="43.63965" lon="5.43216">
        <ele>371.5</ele>
        <time>2022-10-26T11:51:25.000Z</time>
      </trkpt>
      <trkpt lat="43.63965" lon="5.43214">
        <ele>372.1</ele>
        <time>2022-10-26T11:51:28.000Z</time>
      </trkpt>
      <trkpt lat="43.63966" lon="5.43211">
        <ele>372.8</ele>
        <time>2022-10-26T11:51:38.000Z</time>
      </trkpt>
      <trkpt lat="43.63967" lon="5.43208">
        <ele>373.4</ele>
        <time>2022-10-26T11:51:59.000Z</time>
      </trkpt>
      <trkpt lat="43.63968" lon="5.43206">
        <ele>374</ele>
        <time>2022-10-26T11:52:04.000Z</time>
      </trkpt>
      <trkpt lat="43.63969" lon="5.43204">
        <ele>374.5</ele>
        <time>2022-10-26T11:52:43.000Z</time>
      </trkpt>
      <trkpt lat="43.6397" lon="5.43202">
        <ele>375</ele>
        <time>2022-10-26T11:52:50.000Z</time>
      </trkpt>
      <trkpt lat="43.63971" lon="5.43199">
        <ele>375.7</ele>
        <time>2022-10-26T11:52:53.000Z</time>
      </trkpt>
      <trkpt lat="43.63971" lon="5.43196">
        <ele>376.6</ele>
        <time>2022-10-26T11:52:56.000Z</time>
      </trkpt>
      <trkpt lat="43.63972" lon="5.43193">
        <ele>376.8</ele>
        <time>2022-10-26T11:53:00.000Z</time>
      </trkpt>
      <trkpt lat="43.63974" lon="5.43191">
        <ele>376.7</ele>
        <time>2022-10-26T11:53:04.000Z</time>
      </trkpt>
      <trkpt lat="43.63975" lon="5.43188">
        <ele>376.6</ele>
        <time>2022-10-26T11:53:07.000Z</time>
      </trkpt>
      <trkpt lat="43.63977" lon="5.43185">
        <ele>376.3</ele>
        <time>2022-10-26T11:53:18.000Z</time>
      </trkpt>
      <trkpt lat="43.63979" lon="5.43186">
        <ele>376.5</ele>
        <time>2022-10-26T11:53:21.000Z</time>
      </trkpt>
      <trkpt lat="43.63981" lon="5.43186">
        <ele>376.6</ele>
        <time>2022-10-26T11:53:41.000Z</time>
      </trkpt>
      <trkpt lat="43.63982" lon="5.43187">
        <ele>376.9</ele>
        <time>2022-10-26T11:54:03.000Z</time>
      </trkpt>
      <trkpt lat="43.63985" lon="5.43186">
        <ele>376.9</ele>
        <time>2022-10-26T11:54:05.000Z</time>
      </trkpt>
      <trkpt lat="43.63987" lon="5.43186">
        <ele>377.1</ele>
        <time>2022-10-26T11:54:11.000Z</time>
      </trkpt>
      <trkpt lat="43.63989" lon="5.43188">
        <ele>377.4</ele>
        <time>2022-10-26T11:54:13.000Z</time>
      </trkpt>
      <trkpt lat="43.63991" lon="5.4319">
        <ele>378</ele>
        <time>2022-10-26T11:54:16.000Z</time>
      </trkpt>
      <trkpt lat="43.63993" lon="5.43189">
        <ele>378.1</ele>
        <time>2022-10-26T11:54:18.000Z</time>
      </trkpt>
      <trkpt lat="43.63995" lon="5.43189">
        <ele>378.1</ele>
        <time>2022-10-26T11:54:20.000Z</time>
      </trkpt>
      <trkpt lat="43.63997" lon="5.43188">
        <ele>378.1</ele>
        <time>2022-10-26T11:54:23.000Z</time>
      </trkpt>
      <trkpt lat="43.63999" lon="5.43188">
        <ele>378.2</ele>
        <time>2022-10-26T11:54:26.000Z</time>
      </trkpt>
      <trkpt lat="43.64001" lon="5.43187">
        <ele>378.2</ele>
        <time>2022-10-26T11:54:29.000Z</time>
      </trkpt>
      <trkpt lat="43.64003" lon="5.43187">
        <ele>378.2</ele>
        <time>2022-10-26T11:54:31.000Z</time>
      </trkpt>
      <trkpt lat="43.64006" lon="5.43187">
        <ele>378.3</ele>
        <time>2022-10-26T11:54:34.000Z</time>
      </trkpt>
      <trkpt lat="43.64008" lon="5.43188">
        <ele>378.7</ele>
        <time>2022-10-26T11:54:37.000Z</time>
      </trkpt>
      <trkpt lat="43.6401" lon="5.43189">
        <ele>379.1</ele>
        <time>2022-10-26T11:54:39.000Z</time>
      </trkpt>
      <trkpt lat="43.64012" lon="5.43191">
        <ele>379.6</ele>
        <time>2022-10-26T11:54:42.000Z</time>
      </trkpt>
      <trkpt lat="43.64014" lon="5.43192">
        <ele>379.9</ele>
        <time>2022-10-26T11:54:44.000Z</time>
      </trkpt>
      <trkpt lat="43.64015" lon="5.43193">
        <ele>380.3</ele>
        <time>2022-10-26T11:54:46.000Z</time>
      </trkpt>
      <trkpt lat="43.64018" lon="5.43194">
        <ele>380.6</ele>
        <time>2022-10-26T11:54:49.000Z</time>
      </trkpt>
      <trkpt lat="43.64021" lon="5.43194">
        <ele>380.7</ele>
        <time>2022-10-26T11:54:52.000Z</time>
      </trkpt>
      <trkpt lat="43.64023" lon="5.43194">
        <ele>380.7</ele>
        <time>2022-10-26T11:54:54.000Z</time>
      </trkpt>
      <trkpt lat="43.64025" lon="5.43193">
        <ele>380.6</ele>
        <time>2022-10-26T11:54:57.000Z</time>
      </trkpt>
      <trkpt lat="43.64027" lon="5.43192">
        <ele>380.5</ele>
        <time>2022-10-26T11:54:59.000Z</time>
      </trkpt>
      <trkpt lat="43.6403" lon="5.43192">
        <ele>380.4</ele>
        <time>2022-10-26T11:55:02.000Z</time>
      </trkpt>
      <trkpt lat="43.64032" lon="5.43191">
        <ele>380.3</ele>
        <time>2022-10-26T11:55:04.000Z</time>
      </trkpt>
      <trkpt lat="43.64034" lon="5.4319">
        <ele>380.2</ele>
        <time>2022-10-26T11:55:07.000Z</time>
      </trkpt>
      <trkpt lat="43.64036" lon="5.4319">
        <ele>380.3</ele>
        <time>2022-10-26T11:55:09.000Z</time>
      </trkpt>
      <trkpt lat="43.64038" lon="5.43191">
        <ele>380.4</ele>
        <time>2022-10-26T11:55:11.000Z</time>
      </trkpt>
      <trkpt lat="43.6404" lon="5.43191">
        <ele>380.4</ele>
        <time>2022-10-26T11:55:13.000Z</time>
      </trkpt>
      <trkpt lat="43.64042" lon="5.4319">
        <ele>380.4</ele>
        <time>2022-10-26T11:55:15.000Z</time>
      </trkpt>
      <trkpt lat="43.64044" lon="5.43189">
        <ele>380.2</ele>
        <time>2022-10-26T11:55:17.000Z</time>
      </trkpt>
      <trkpt lat="43.64045" lon="5.43187">
        <ele>380.1</ele>
        <time>2022-10-26T11:55:19.000Z</time>
      </trkpt>
      <trkpt lat="43.64047" lon="5.43186">
        <ele>380</ele>
        <time>2022-10-26T11:55:21.000Z</time>
      </trkpt>
      <trkpt lat="43.64049" lon="5.43186">
        <ele>380.1</ele>
        <time>2022-10-26T11:55:23.000Z</time>
      </trkpt>
      <trkpt lat="43.64051" lon="5.43186">
        <ele>380.2</ele>
        <time>2022-10-26T11:55:26.000Z</time>
      </trkpt>
      <trkpt lat="43.64054" lon="5.43185">
        <ele>380.3</ele>
        <time>2022-10-26T11:55:29.000Z</time>
      </trkpt>
      <trkpt lat="43.64056" lon="5.43184">
        <ele>380.3</ele>
        <time>2022-10-26T11:55:32.000Z</time>
      </trkpt>
      <trkpt lat="43.64058" lon="5.43185">
        <ele>380.4</ele>
        <time>2022-10-26T11:55:34.000Z</time>
      </trkpt>
      <trkpt lat="43.6406" lon="5.43187">
        <ele>380.6</ele>
        <time>2022-10-26T11:55:36.000Z</time>
      </trkpt>
      <trkpt lat="43.64061" lon="5.4319">
        <ele>380.7</ele>
        <time>2022-10-26T11:55:38.000Z</time>
      </trkpt>
      <trkpt lat="43.64061" lon="5.43193">
        <ele>380.9</ele>
        <time>2022-10-26T11:55:41.000Z</time>
      </trkpt>
      <trkpt lat="43.64062" lon="5.43195">
        <ele>380.8</ele>
        <time>2022-10-26T11:55:43.000Z</time>
      </trkpt>
      <trkpt lat="43.64063" lon="5.43197">
        <ele>380.4</ele>
        <time>2022-10-26T11:55:45.000Z</time>
      </trkpt>
      <trkpt lat="43.64066" lon="5.43199">
        <ele>380</ele>
        <time>2022-10-26T11:55:47.000Z</time>
      </trkpt>
      <trkpt lat="43.64068" lon="5.432">
        <ele>379.8</ele>
        <time>2022-10-26T11:55:49.000Z</time>
      </trkpt>
      <trkpt lat="43.6407" lon="5.432">
        <ele>379.7</ele>
        <time>2022-10-26T11:55:51.000Z</time>
      </trkpt>
      <trkpt lat="43.64072" lon="5.432">
        <ele>379.7</ele>
        <time>2022-10-26T11:55:54.000Z</time>
      </trkpt>
      <trkpt lat="43.64074" lon="5.432">
        <ele>379.7</ele>
        <time>2022-10-26T11:55:56.000Z</time>
      </trkpt>
      <trkpt lat="43.64076" lon="5.432">
        <ele>379.9</ele>
        <time>2022-10-26T11:55:58.000Z</time>
      </trkpt>
      <trkpt lat="43.64079" lon="5.43199">
        <ele>380.2</ele>
        <time>2022-10-26T11:56:01.000Z</time>
      </trkpt>
      <trkpt lat="43.64081" lon="5.43198">
        <ele>380.3</ele>
        <time>2022-10-26T11:56:03.000Z</time>
      </trkpt>
      <trkpt lat="43.64082" lon="5.43197">
        <ele>380.5</ele>
        <time>2022-10-26T11:56:05.000Z</time>
      </trkpt>
      <trkpt lat="43.64084" lon="5.43196">
        <ele>380.7</ele>
        <time>2022-10-26T11:56:07.000Z</time>
      </trkpt>
      <trkpt lat="43.64086" lon="5.43195">
        <ele>381</ele>
        <time>2022-10-26T11:56:09.000Z</time>
      </trkpt>
      <trkpt lat="43.64088" lon="5.43194">
        <ele>381</ele>
        <time>2022-10-26T11:56:11.000Z</time>
      </trkpt>
      <trkpt lat="43.6409" lon="5.43194">
        <ele>381</ele>
        <time>2022-10-26T11:56:13.000Z</time>
      </trkpt>
      <trkpt lat="43.6409" lon="5.43198">
        <ele>380.6</ele>
        <time>2022-10-26T11:56:16.000Z</time>
      </trkpt>
      <trkpt lat="43.64093" lon="5.43198">
        <ele>380.6</ele>
        <time>2022-10-26T11:56:20.000Z</time>
      </trkpt>
      <trkpt lat="43.64098" lon="5.432">
        <ele>380.4</ele>
        <time>2022-10-26T11:57:15.000Z</time>
      </trkpt>
      <trkpt lat="43.641" lon="5.43199">
        <ele>380.5</ele>
        <time>2022-10-26T11:57:18.000Z</time>
      </trkpt>
      <trkpt lat="43.64102" lon="5.432">
        <ele>380.5</ele>
        <time>2022-10-26T11:57:21.000Z</time>
      </trkpt>
      <trkpt lat="43.64104" lon="5.43201">
        <ele>380.5</ele>
        <time>2022-10-26T11:57:23.000Z</time>
      </trkpt>
      <trkpt lat="43.64106" lon="5.43201">
        <ele>380.6</ele>
        <time>2022-10-26T11:57:25.000Z</time>
      </trkpt>
      <trkpt lat="43.64108" lon="5.43202">
        <ele>380.6</ele>
        <time>2022-10-26T11:57:27.000Z</time>
      </trkpt>
      <trkpt lat="43.6411" lon="5.43202">
        <ele>380.7</ele>
        <time>2022-10-26T11:57:29.000Z</time>
      </trkpt>
      <trkpt lat="43.64112" lon="5.43203">
        <ele>380.7</ele>
        <time>2022-10-26T11:57:31.000Z</time>
      </trkpt>
      <trkpt lat="43.64114" lon="5.43205">
        <ele>380.7</ele>
        <time>2022-10-26T11:57:33.000Z</time>
      </trkpt>
      <trkpt lat="43.64116" lon="5.43206">
        <ele>380.7</ele>
        <time>2022-10-26T11:57:35.000Z</time>
      </trkpt>
      <trkpt lat="43.64118" lon="5.43207">
        <ele>380.8</ele>
        <time>2022-10-26T11:57:37.000Z</time>
      </trkpt>
      <trkpt lat="43.64121" lon="5.43208">
        <ele>380.9</ele>
        <time>2022-10-26T11:57:39.000Z</time>
      </trkpt>
      <trkpt lat="43.64123" lon="5.43209">
        <ele>380.9</ele>
        <time>2022-10-26T11:57:41.000Z</time>
      </trkpt>
      <trkpt lat="43.64125" lon="5.4321">
        <ele>381</ele>
        <time>2022-10-26T11:57:43.000Z</time>
      </trkpt>
      <trkpt lat="43.64127" lon="5.43211">
        <ele>381</ele>
        <time>2022-10-26T11:57:45.000Z</time>
      </trkpt>
      <trkpt lat="43.6413" lon="5.43211">
        <ele>381.1</ele>
        <time>2022-10-26T11:57:47.000Z</time>
      </trkpt>
      <trkpt lat="43.64132" lon="5.43211">
        <ele>381.2</ele>
        <time>2022-10-26T11:57:49.000Z</time>
      </trkpt>
      <trkpt lat="43.64134" lon="5.43211">
        <ele>381.2</ele>
        <time>2022-10-26T11:57:51.000Z</time>
      </trkpt>
      <trkpt lat="43.64137" lon="5.43211">
        <ele>381.3</ele>
        <time>2022-10-26T11:57:53.000Z</time>
      </trkpt>
      <trkpt lat="43.64139" lon="5.43211">
        <ele>381.4</ele>
        <time>2022-10-26T11:57:55.000Z</time>
      </trkpt>
      <trkpt lat="43.64142" lon="5.43211">
        <ele>381.3</ele>
        <time>2022-10-26T11:57:57.000Z</time>
      </trkpt>
      <trkpt lat="43.64145" lon="5.4321">
        <ele>381.3</ele>
        <time>2022-10-26T11:58:00.000Z</time>
      </trkpt>
      <trkpt lat="43.64147" lon="5.43209">
        <ele>381.3</ele>
        <time>2022-10-26T11:58:02.000Z</time>
      </trkpt>
      <trkpt lat="43.6415" lon="5.43209">
        <ele>381.3</ele>
        <time>2022-10-26T11:58:05.000Z</time>
      </trkpt>
      <trkpt lat="43.64152" lon="5.43209">
        <ele>381.2</ele>
        <time>2022-10-26T11:58:07.000Z</time>
      </trkpt>
      <trkpt lat="43.64155" lon="5.43208">
        <ele>381.3</ele>
        <time>2022-10-26T11:58:09.000Z</time>
      </trkpt>
      <trkpt lat="43.64157" lon="5.43207">
        <ele>381.2</ele>
        <time>2022-10-26T11:58:11.000Z</time>
      </trkpt>
      <trkpt lat="43.64159" lon="5.43207">
        <ele>381.2</ele>
        <time>2022-10-26T11:58:13.000Z</time>
      </trkpt>
      <trkpt lat="43.64162" lon="5.43208">
        <ele>381.1</ele>
        <time>2022-10-26T11:58:16.000Z</time>
      </trkpt>
      <trkpt lat="43.64164" lon="5.43207">
        <ele>381.1</ele>
        <time>2022-10-26T11:58:18.000Z</time>
      </trkpt>
      <trkpt lat="43.64165" lon="5.43208">
        <ele>381.1</ele>
        <time>2022-10-26T11:58:20.000Z</time>
      </trkpt>
      <trkpt lat="43.64168" lon="5.43208">
        <ele>381</ele>
        <time>2022-10-26T11:58:22.000Z</time>
      </trkpt>
      <trkpt lat="43.64169" lon="5.43207">
        <ele>381</ele>
        <time>2022-10-26T11:58:24.000Z</time>
      </trkpt>
      <trkpt lat="43.64172" lon="5.43207">
        <ele>380.9</ele>
        <time>2022-10-26T11:58:26.000Z</time>
      </trkpt>
      <trkpt lat="43.64174" lon="5.43207">
        <ele>380.8</ele>
        <time>2022-10-26T11:58:28.000Z</time>
      </trkpt>
      <trkpt lat="43.64177" lon="5.43207">
        <ele>380.7</ele>
        <time>2022-10-26T11:58:30.000Z</time>
      </trkpt>
      <trkpt lat="43.64179" lon="5.43208">
        <ele>380.6</ele>
        <time>2022-10-26T11:58:32.000Z</time>
      </trkpt>
      <trkpt lat="43.64181" lon="5.43208">
        <ele>380.5</ele>
        <time>2022-10-26T11:58:34.000Z</time>
      </trkpt>
      <trkpt lat="43.64184" lon="5.43209">
        <ele>380.4</ele>
        <time>2022-10-26T11:58:36.000Z</time>
      </trkpt>
      <trkpt lat="43.64187" lon="5.43209">
        <ele>380.2</ele>
        <time>2022-10-26T11:58:38.000Z</time>
      </trkpt>
      <trkpt lat="43.64189" lon="5.43209">
        <ele>380.2</ele>
        <time>2022-10-26T11:58:40.000Z</time>
      </trkpt>
      <trkpt lat="43.64191" lon="5.4321">
        <ele>380</ele>
        <time>2022-10-26T11:58:42.000Z</time>
      </trkpt>
      <trkpt lat="43.64193" lon="5.4321">
        <ele>380</ele>
        <time>2022-10-26T11:58:44.000Z</time>
      </trkpt>
      <trkpt lat="43.64195" lon="5.4321">
        <ele>379.9</ele>
        <time>2022-10-26T11:58:46.000Z</time>
      </trkpt>
      <trkpt lat="43.64197" lon="5.4321">
        <ele>379.9</ele>
        <time>2022-10-26T11:58:48.000Z</time>
      </trkpt>
      <trkpt lat="43.642" lon="5.43211">
        <ele>379.8</ele>
        <time>2022-10-26T11:58:50.000Z</time>
      </trkpt>
      <trkpt lat="43.64202" lon="5.43212">
        <ele>379.8</ele>
        <time>2022-10-26T11:58:52.000Z</time>
      </trkpt>
      <trkpt lat="43.64204" lon="5.43212">
        <ele>379.7</ele>
        <time>2022-10-26T11:58:54.000Z</time>
      </trkpt>
      <trkpt lat="43.64206" lon="5.43212">
        <ele>379.8</ele>
        <time>2022-10-26T11:58:56.000Z</time>
      </trkpt>
      <trkpt lat="43.64208" lon="5.43211">
        <ele>379.8</ele>
        <time>2022-10-26T11:58:58.000Z</time>
      </trkpt>
      <trkpt lat="43.64211" lon="5.43212">
        <ele>379.7</ele>
        <time>2022-10-26T11:59:00.000Z</time>
      </trkpt>
      <trkpt lat="43.64213" lon="5.43213">
        <ele>379.7</ele>
        <time>2022-10-26T11:59:02.000Z</time>
      </trkpt>
      <trkpt lat="43.64215" lon="5.43213">
        <ele>379.6</ele>
        <time>2022-10-26T11:59:04.000Z</time>
      </trkpt>
      <trkpt lat="43.64217" lon="5.43214">
        <ele>379.6</ele>
        <time>2022-10-26T11:59:06.000Z</time>
      </trkpt>
      <trkpt lat="43.64219" lon="5.43215">
        <ele>379.6</ele>
        <time>2022-10-26T11:59:08.000Z</time>
      </trkpt>
      <trkpt lat="43.64222" lon="5.43215">
        <ele>379.5</ele>
        <time>2022-10-26T11:59:10.000Z</time>
      </trkpt>
      <trkpt lat="43.64224" lon="5.43216">
        <ele>379.5</ele>
        <time>2022-10-26T11:59:12.000Z</time>
      </trkpt>
      <trkpt lat="43.64226" lon="5.43217">
        <ele>379.5</ele>
        <time>2022-10-26T11:59:14.000Z</time>
      </trkpt>
      <trkpt lat="43.64228" lon="5.43218">
        <ele>379.5</ele>
        <time>2022-10-26T11:59:16.000Z</time>
      </trkpt>
      <trkpt lat="43.6423" lon="5.43219">
        <ele>379.6</ele>
        <time>2022-10-26T11:59:18.000Z</time>
      </trkpt>
      <trkpt lat="43.64232" lon="5.4322">
        <ele>379.6</ele>
        <time>2022-10-26T11:59:20.000Z</time>
      </trkpt>
      <trkpt lat="43.64234" lon="5.43221">
        <ele>379.5</ele>
        <time>2022-10-26T11:59:22.000Z</time>
      </trkpt>
      <trkpt lat="43.64236" lon="5.43222">
        <ele>379.5</ele>
        <time>2022-10-26T11:59:24.000Z</time>
      </trkpt>
      <trkpt lat="43.64238" lon="5.43223">
        <ele>379.4</ele>
        <time>2022-10-26T11:59:26.000Z</time>
      </trkpt>
      <trkpt lat="43.6424" lon="5.43225">
        <ele>379.3</ele>
        <time>2022-10-26T11:59:28.000Z</time>
      </trkpt>
      <trkpt lat="43.64241" lon="5.43226">
        <ele>379.1</ele>
        <time>2022-10-26T11:59:30.000Z</time>
      </trkpt>
      <trkpt lat="43.64243" lon="5.43229">
        <ele>379</ele>
        <time>2022-10-26T11:59:32.000Z</time>
      </trkpt>
      <trkpt lat="43.64245" lon="5.4323">
        <ele>378.9</ele>
        <time>2022-10-26T11:59:34.000Z</time>
      </trkpt>
      <trkpt lat="43.64246" lon="5.43232">
        <ele>378.9</ele>
        <time>2022-10-26T11:59:36.000Z</time>
      </trkpt>
      <trkpt lat="43.64248" lon="5.43235">
        <ele>378.8</ele>
        <time>2022-10-26T11:59:38.000Z</time>
      </trkpt>
      <trkpt lat="43.64249" lon="5.43237">
        <ele>378.9</ele>
        <time>2022-10-26T11:59:40.000Z</time>
      </trkpt>
      <trkpt lat="43.64251" lon="5.43239">
        <ele>378.9</ele>
        <time>2022-10-26T11:59:42.000Z</time>
      </trkpt>
      <trkpt lat="43.64252" lon="5.43241">
        <ele>378.8</ele>
        <time>2022-10-26T11:59:44.000Z</time>
      </trkpt>
      <trkpt lat="43.64253" lon="5.43243">
        <ele>378.8</ele>
        <time>2022-10-26T11:59:46.000Z</time>
      </trkpt>
      <trkpt lat="43.64255" lon="5.43246">
        <ele>378.7</ele>
        <time>2022-10-26T11:59:48.000Z</time>
      </trkpt>
      <trkpt lat="43.64256" lon="5.43248">
        <ele>378.6</ele>
        <time>2022-10-26T11:59:50.000Z</time>
      </trkpt>
      <trkpt lat="43.64258" lon="5.4325">
        <ele>378.5</ele>
        <time>2022-10-26T11:59:52.000Z</time>
      </trkpt>
      <trkpt lat="43.64259" lon="5.43253">
        <ele>378.6</ele>
        <time>2022-10-26T11:59:54.000Z</time>
      </trkpt>
      <trkpt lat="43.6426" lon="5.43255">
        <ele>378.7</ele>
        <time>2022-10-26T11:59:56.000Z</time>
      </trkpt>
      <trkpt lat="43.64262" lon="5.43257">
        <ele>378.7</ele>
        <time>2022-10-26T11:59:58.000Z</time>
      </trkpt>
      <trkpt lat="43.64264" lon="5.43259">
        <ele>378.8</ele>
        <time>2022-10-26T12:00:00.000Z</time>
      </trkpt>
      <trkpt lat="43.64265" lon="5.43261">
        <ele>378.9</ele>
        <time>2022-10-26T12:00:02.000Z</time>
      </trkpt>
      <trkpt lat="43.64267" lon="5.43263">
        <ele>378.9</ele>
        <time>2022-10-26T12:00:04.000Z</time>
      </trkpt>
      <trkpt lat="43.64269" lon="5.43265">
        <ele>379</ele>
        <time>2022-10-26T12:00:06.000Z</time>
      </trkpt>
      <trkpt lat="43.6427" lon="5.43267">
        <ele>379</ele>
        <time>2022-10-26T12:00:08.000Z</time>
      </trkpt>
      <trkpt lat="43.64272" lon="5.43268">
        <ele>379.1</ele>
        <time>2022-10-26T12:00:10.000Z</time>
      </trkpt>
      <trkpt lat="43.64274" lon="5.43271">
        <ele>379.1</ele>
        <time>2022-10-26T12:00:12.000Z</time>
      </trkpt>
      <trkpt lat="43.64276" lon="5.43272">
        <ele>379.1</ele>
        <time>2022-10-26T12:00:14.000Z</time>
      </trkpt>
      <trkpt lat="43.64277" lon="5.43274">
        <ele>379.1</ele>
        <time>2022-10-26T12:00:16.000Z</time>
      </trkpt>
      <trkpt lat="43.64279" lon="5.43277">
        <ele>379</ele>
        <time>2022-10-26T12:00:18.000Z</time>
      </trkpt>
      <trkpt lat="43.64281" lon="5.43278">
        <ele>378.9</ele>
        <time>2022-10-26T12:00:20.000Z</time>
      </trkpt>
      <trkpt lat="43.64283" lon="5.4328">
        <ele>378.7</ele>
        <time>2022-10-26T12:00:22.000Z</time>
      </trkpt>
      <trkpt lat="43.64285" lon="5.43282">
        <ele>378.6</ele>
        <time>2022-10-26T12:00:24.000Z</time>
      </trkpt>
      <trkpt lat="43.64287" lon="5.43284">
        <ele>378.5</ele>
        <time>2022-10-26T12:00:26.000Z</time>
      </trkpt>
      <trkpt lat="43.64289" lon="5.43285">
        <ele>378.3</ele>
        <time>2022-10-26T12:00:28.000Z</time>
      </trkpt>
      <trkpt lat="43.64291" lon="5.43287">
        <ele>378.2</ele>
        <time>2022-10-26T12:00:30.000Z</time>
      </trkpt>
      <trkpt lat="43.64293" lon="5.43289">
        <ele>378.1</ele>
        <time>2022-10-26T12:00:32.000Z</time>
      </trkpt>
      <trkpt lat="43.64295" lon="5.4329">
        <ele>378</ele>
        <time>2022-10-26T12:00:34.000Z</time>
      </trkpt>
      <trkpt lat="43.64297" lon="5.43291">
        <ele>377.8</ele>
        <time>2022-10-26T12:00:36.000Z</time>
      </trkpt>
      <trkpt lat="43.64299" lon="5.43293">
        <ele>377.7</ele>
        <time>2022-10-26T12:00:38.000Z</time>
      </trkpt>
      <trkpt lat="43.643" lon="5.43295">
        <ele>377.6</ele>
        <time>2022-10-26T12:00:40.000Z</time>
      </trkpt>
      <trkpt lat="43.64302" lon="5.43298">
        <ele>377.4</ele>
        <time>2022-10-26T12:00:42.000Z</time>
      </trkpt>
      <trkpt lat="43.64304" lon="5.43299">
        <ele>377.3</ele>
        <time>2022-10-26T12:00:44.000Z</time>
      </trkpt>
      <trkpt lat="43.64305" lon="5.43302">
        <ele>377.2</ele>
        <time>2022-10-26T12:00:46.000Z</time>
      </trkpt>
      <trkpt lat="43.64307" lon="5.43303">
        <ele>377</ele>
        <time>2022-10-26T12:00:49.000Z</time>
      </trkpt>
      <trkpt lat="43.64309" lon="5.43305">
        <ele>376.9</ele>
        <time>2022-10-26T12:00:52.000Z</time>
      </trkpt>
      <trkpt lat="43.64312" lon="5.43304">
        <ele>376.8</ele>
        <time>2022-10-26T12:00:57.000Z</time>
      </trkpt>
      <trkpt lat="43.64315" lon="5.43303">
        <ele>376.7</ele>
        <time>2022-10-26T12:00:59.000Z</time>
      </trkpt>
      <trkpt lat="43.64317" lon="5.43303">
        <ele>376.6</ele>
        <time>2022-10-26T12:01:01.000Z</time>
      </trkpt>
      <trkpt lat="43.64319" lon="5.43304">
        <ele>376.5</ele>
        <time>2022-10-26T12:01:03.000Z</time>
      </trkpt>
      <trkpt lat="43.64321" lon="5.43304">
        <ele>376.5</ele>
        <time>2022-10-26T12:01:05.000Z</time>
      </trkpt>
      <trkpt lat="43.64324" lon="5.43304">
        <ele>376.4</ele>
        <time>2022-10-26T12:01:07.000Z</time>
      </trkpt>
      <trkpt lat="43.64325" lon="5.43304">
        <ele>376.3</ele>
        <time>2022-10-26T12:01:09.000Z</time>
      </trkpt>
      <trkpt lat="43.64328" lon="5.43304">
        <ele>376.2</ele>
        <time>2022-10-26T12:01:11.000Z</time>
      </trkpt>
      <trkpt lat="43.64329" lon="5.43304">
        <ele>376.2</ele>
        <time>2022-10-26T12:01:13.000Z</time>
      </trkpt>
      <trkpt lat="43.64331" lon="5.43305">
        <ele>376.1</ele>
        <time>2022-10-26T12:01:15.000Z</time>
      </trkpt>
      <trkpt lat="43.64333" lon="5.43306">
        <ele>376</ele>
        <time>2022-10-26T12:01:17.000Z</time>
      </trkpt>
      <trkpt lat="43.64335" lon="5.43307">
        <ele>375.5</ele>
        <time>2022-10-26T12:01:20.000Z</time>
      </trkpt>
      <trkpt lat="43.64337" lon="5.43307">
        <ele>375.2</ele>
        <time>2022-10-26T12:01:23.000Z</time>
      </trkpt>
      <trkpt lat="43.64339" lon="5.43308">
        <ele>374.8</ele>
        <time>2022-10-26T12:01:26.000Z</time>
      </trkpt>
      <trkpt lat="43.64341" lon="5.43308">
        <ele>374.4</ele>
        <time>2022-10-26T12:01:29.000Z</time>
      </trkpt>
      <trkpt lat="43.64343" lon="5.43309">
        <ele>374</ele>
        <time>2022-10-26T12:01:32.000Z</time>
      </trkpt>
      <trkpt lat="43.64344" lon="5.43311">
        <ele>373.7</ele>
        <time>2022-10-26T12:01:36.000Z</time>
      </trkpt>
      <trkpt lat="43.64345" lon="5.43315">
        <ele>373.3</ele>
        <time>2022-10-26T12:01:39.000Z</time>
      </trkpt>
      <trkpt lat="43.64345" lon="5.43317">
        <ele>373.1</ele>
        <time>2022-10-26T12:01:41.000Z</time>
      </trkpt>
      <trkpt lat="43.64346" lon="5.4332">
        <ele>372.8</ele>
        <time>2022-10-26T12:01:44.000Z</time>
      </trkpt>
      <trkpt lat="43.64347" lon="5.43323">
        <ele>372.6</ele>
        <time>2022-10-26T12:01:47.000Z</time>
      </trkpt>
      <trkpt lat="43.64349" lon="5.43325">
        <ele>372.4</ele>
        <time>2022-10-26T12:01:49.000Z</time>
      </trkpt>
      <trkpt lat="43.6435" lon="5.43328">
        <ele>372.2</ele>
        <time>2022-10-26T12:01:51.000Z</time>
      </trkpt>
      <trkpt lat="43.64352" lon="5.43329">
        <ele>372.1</ele>
        <time>2022-10-26T12:01:53.000Z</time>
      </trkpt>
      <trkpt lat="43.64353" lon="5.43331">
        <ele>372</ele>
        <time>2022-10-26T12:01:55.000Z</time>
      </trkpt>
      <trkpt lat="43.64355" lon="5.43334">
        <ele>372</ele>
        <time>2022-10-26T12:01:58.000Z</time>
      </trkpt>
      <trkpt lat="43.64356" lon="5.43337">
        <ele>372.1</ele>
        <time>2022-10-26T12:02:00.000Z</time>
      </trkpt>
      <trkpt lat="43.64358" lon="5.43339">
        <ele>372.2</ele>
        <time>2022-10-26T12:02:03.000Z</time>
      </trkpt>
      <trkpt lat="43.6436" lon="5.43339">
        <ele>372.2</ele>
        <time>2022-10-26T12:02:05.000Z</time>
      </trkpt>
      <trkpt lat="43.64362" lon="5.4334">
        <ele>372.2</ele>
        <time>2022-10-26T12:02:07.000Z</time>
      </trkpt>
      <trkpt lat="43.64364" lon="5.43343">
        <ele>372.2</ele>
        <time>2022-10-26T12:02:10.000Z</time>
      </trkpt>
      <trkpt lat="43.64365" lon="5.43345">
        <ele>372.2</ele>
        <time>2022-10-26T12:02:12.000Z</time>
      </trkpt>
      <trkpt lat="43.64367" lon="5.43347">
        <ele>372.2</ele>
        <time>2022-10-26T12:02:15.000Z</time>
      </trkpt>
      <trkpt lat="43.64369" lon="5.43349">
        <ele>372.2</ele>
        <time>2022-10-26T12:02:18.000Z</time>
      </trkpt>
      <trkpt lat="43.64371" lon="5.43351">
        <ele>372.2</ele>
        <time>2022-10-26T12:02:21.000Z</time>
      </trkpt>
      <trkpt lat="43.64372" lon="5.43353">
        <ele>372.2</ele>
        <time>2022-10-26T12:02:23.000Z</time>
      </trkpt>
      <trkpt lat="43.64374" lon="5.43355">
        <ele>372.2</ele>
        <time>2022-10-26T12:02:25.000Z</time>
      </trkpt>
      <trkpt lat="43.64376" lon="5.43356">
        <ele>372.2</ele>
        <time>2022-10-26T12:02:27.000Z</time>
      </trkpt>
      <trkpt lat="43.64377" lon="5.43357">
        <ele>372.2</ele>
        <time>2022-10-26T12:02:29.000Z</time>
      </trkpt>
      <trkpt lat="43.64379" lon="5.43358">
        <ele>372.2</ele>
        <time>2022-10-26T12:02:31.000Z</time>
      </trkpt>
      <trkpt lat="43.64381" lon="5.4336">
        <ele>372.2</ele>
        <time>2022-10-26T12:02:33.000Z</time>
      </trkpt>
      <trkpt lat="43.64383" lon="5.43361">
        <ele>372.2</ele>
        <time>2022-10-26T12:02:35.000Z</time>
      </trkpt>
      <trkpt lat="43.64385" lon="5.43362">
        <ele>372.2</ele>
        <time>2022-10-26T12:02:37.000Z</time>
      </trkpt>
      <trkpt lat="43.64387" lon="5.43364">
        <ele>372.1</ele>
        <time>2022-10-26T12:02:40.000Z</time>
      </trkpt>
      <trkpt lat="43.64389" lon="5.43365">
        <ele>372.2</ele>
        <time>2022-10-26T12:02:42.000Z</time>
      </trkpt>
      <trkpt lat="43.64391" lon="5.43364">
        <ele>372</ele>
        <time>2022-10-26T12:02:45.000Z</time>
      </trkpt>
      <trkpt lat="43.64393" lon="5.43365">
        <ele>372</ele>
        <time>2022-10-26T12:02:50.000Z</time>
      </trkpt>
      <trkpt lat="43.64395" lon="5.43367">
        <ele>372</ele>
        <time>2022-10-26T12:02:53.000Z</time>
      </trkpt>
      <trkpt lat="43.64397" lon="5.43368">
        <ele>372</ele>
        <time>2022-10-26T12:02:55.000Z</time>
      </trkpt>
      <trkpt lat="43.644" lon="5.43368">
        <ele>372</ele>
        <time>2022-10-26T12:02:57.000Z</time>
      </trkpt>
      <trkpt lat="43.64402" lon="5.43368">
        <ele>371.9</ele>
        <time>2022-10-26T12:03:00.000Z</time>
      </trkpt>
      <trkpt lat="43.64405" lon="5.43369">
        <ele>371.9</ele>
        <time>2022-10-26T12:03:02.000Z</time>
      </trkpt>
      <trkpt lat="43.64407" lon="5.4337">
        <ele>371.9</ele>
        <time>2022-10-26T12:03:04.000Z</time>
      </trkpt>
      <trkpt lat="43.64409" lon="5.43371">
        <ele>371.9</ele>
        <time>2022-10-26T12:03:06.000Z</time>
      </trkpt>
      <trkpt lat="43.64411" lon="5.43372">
        <ele>371.9</ele>
        <time>2022-10-26T12:03:08.000Z</time>
      </trkpt>
      <trkpt lat="43.64414" lon="5.43373">
        <ele>371.9</ele>
        <time>2022-10-26T12:03:10.000Z</time>
      </trkpt>
      <trkpt lat="43.64416" lon="5.43374">
        <ele>372</ele>
        <time>2022-10-26T12:03:13.000Z</time>
      </trkpt>
      <trkpt lat="43.64418" lon="5.43375">
        <ele>371.9</ele>
        <time>2022-10-26T12:03:15.000Z</time>
      </trkpt>
      <trkpt lat="43.64419" lon="5.43377">
        <ele>371.9</ele>
        <time>2022-10-26T12:03:17.000Z</time>
      </trkpt>
      <trkpt lat="43.64421" lon="5.43378">
        <ele>371.9</ele>
        <time>2022-10-26T12:03:19.000Z</time>
      </trkpt>
      <trkpt lat="43.64423" lon="5.43379">
        <ele>371.9</ele>
        <time>2022-10-26T12:03:21.000Z</time>
      </trkpt>
      <trkpt lat="43.64425" lon="5.43381">
        <ele>372</ele>
        <time>2022-10-26T12:03:23.000Z</time>
      </trkpt>
      <trkpt lat="43.64428" lon="5.43382">
        <ele>372</ele>
        <time>2022-10-26T12:03:25.000Z</time>
      </trkpt>
      <trkpt lat="43.6443" lon="5.43384">
        <ele>372.1</ele>
        <time>2022-10-26T12:03:28.000Z</time>
      </trkpt>
      <trkpt lat="43.64432" lon="5.43385">
        <ele>372.3</ele>
        <time>2022-10-26T12:03:30.000Z</time>
      </trkpt>
      <trkpt lat="43.64434" lon="5.43386">
        <ele>372.5</ele>
        <time>2022-10-26T12:03:33.000Z</time>
      </trkpt>
      <trkpt lat="43.64436" lon="5.43388">
        <ele>372.9</ele>
        <time>2022-10-26T12:03:36.000Z</time>
      </trkpt>
      <trkpt lat="43.64438" lon="5.43389">
        <ele>373</ele>
        <time>2022-10-26T12:03:39.000Z</time>
      </trkpt>
      <trkpt lat="43.64439" lon="5.43391">
        <ele>373.1</ele>
        <time>2022-10-26T12:03:42.000Z</time>
      </trkpt>
      <trkpt lat="43.6444" lon="5.43393">
        <ele>373.3</ele>
        <time>2022-10-26T12:04:58.000Z</time>
      </trkpt>
      <trkpt lat="43.64438" lon="5.43393">
        <ele>373.3</ele>
        <time>2022-10-26T12:06:11.000Z</time>
      </trkpt>
      <trkpt lat="43.6444" lon="5.43393">
        <ele>373.3</ele>
        <time>2022-10-26T12:06:27.000Z</time>
      </trkpt>
      <trkpt lat="43.64442" lon="5.43393">
        <ele>373.3</ele>
        <time>2022-10-26T12:06:29.000Z</time>
      </trkpt>
      <trkpt lat="43.64443" lon="5.43395">
        <ele>373.4</ele>
        <time>2022-10-26T12:06:31.000Z</time>
      </trkpt>
      <trkpt lat="43.64445" lon="5.43396">
        <ele>373.5</ele>
        <time>2022-10-26T12:06:33.000Z</time>
      </trkpt>
      <trkpt lat="43.64447" lon="5.43392">
        <ele>373.1</ele>
        <time>2022-10-26T12:06:34.000Z</time>
      </trkpt>
      <trkpt lat="43.64449" lon="5.43392">
        <ele>373.1</ele>
        <time>2022-10-26T12:06:40.000Z</time>
      </trkpt>
      <trkpt lat="43.64451" lon="5.43394">
        <ele>373.2</ele>
        <time>2022-10-26T12:06:42.000Z</time>
      </trkpt>
      <trkpt lat="43.64454" lon="5.43395">
        <ele>373.3</ele>
        <time>2022-10-26T12:06:46.000Z</time>
      </trkpt>
      <trkpt lat="43.64456" lon="5.43397">
        <ele>373.4</ele>
        <time>2022-10-26T12:06:48.000Z</time>
      </trkpt>
      <trkpt lat="43.64458" lon="5.434">
        <ele>373.7</ele>
        <time>2022-10-26T12:06:51.000Z</time>
      </trkpt>
      <trkpt lat="43.6446" lon="5.43401">
        <ele>373.8</ele>
        <time>2022-10-26T12:06:53.000Z</time>
      </trkpt>
      <trkpt lat="43.64462" lon="5.43403">
        <ele>374</ele>
        <time>2022-10-26T12:06:55.000Z</time>
      </trkpt>
      <trkpt lat="43.64464" lon="5.43405">
        <ele>374.2</ele>
        <time>2022-10-26T12:06:57.000Z</time>
      </trkpt>
      <trkpt lat="43.64467" lon="5.43406">
        <ele>374.5</ele>
        <time>2022-10-26T12:06:59.000Z</time>
      </trkpt>
      <trkpt lat="43.64469" lon="5.43408">
        <ele>374.7</ele>
        <time>2022-10-26T12:07:01.000Z</time>
      </trkpt>
      <trkpt lat="43.6447" lon="5.4341">
        <ele>374.9</ele>
        <time>2022-10-26T12:07:03.000Z</time>
      </trkpt>
      <trkpt lat="43.64472" lon="5.43411">
        <ele>375.2</ele>
        <time>2022-10-26T12:07:05.000Z</time>
      </trkpt>
      <trkpt lat="43.64474" lon="5.43412">
        <ele>375.3</ele>
        <time>2022-10-26T12:07:08.000Z</time>
      </trkpt>
      <trkpt lat="43.64476" lon="5.43413">
        <ele>375.4</ele>
        <time>2022-10-26T12:07:10.000Z</time>
      </trkpt>
      <trkpt lat="43.64477" lon="5.43415">
        <ele>375.6</ele>
        <time>2022-10-26T12:07:13.000Z</time>
      </trkpt>
      <trkpt lat="43.64479" lon="5.43417">
        <ele>375.8</ele>
        <time>2022-10-26T12:07:16.000Z</time>
      </trkpt>
      <trkpt lat="43.64481" lon="5.43419">
        <ele>376.1</ele>
        <time>2022-10-26T12:07:19.000Z</time>
      </trkpt>
      <trkpt lat="43.64483" lon="5.43421">
        <ele>376.5</ele>
        <time>2022-10-26T12:07:22.000Z</time>
      </trkpt>
      <trkpt lat="43.64485" lon="5.43424">
        <ele>376.9</ele>
        <time>2022-10-26T12:07:25.000Z</time>
      </trkpt>
      <trkpt lat="43.64486" lon="5.43425">
        <ele>377.2</ele>
        <time>2022-10-26T12:07:27.000Z</time>
      </trkpt>
      <trkpt lat="43.64488" lon="5.43427">
        <ele>377.5</ele>
        <time>2022-10-26T12:07:29.000Z</time>
      </trkpt>
      <trkpt lat="43.6449" lon="5.43429">
        <ele>377.8</ele>
        <time>2022-10-26T12:07:32.000Z</time>
      </trkpt>
      <trkpt lat="43.64491" lon="5.43431">
        <ele>378.3</ele>
        <time>2022-10-26T12:07:35.000Z</time>
      </trkpt>
      <trkpt lat="43.64492" lon="5.43434">
        <ele>378.8</ele>
        <time>2022-10-26T12:07:38.000Z</time>
      </trkpt>
      <trkpt lat="43.64494" lon="5.43436">
        <ele>379.2</ele>
        <time>2022-10-26T12:07:41.000Z</time>
      </trkpt>
      <trkpt lat="43.64496" lon="5.43438">
        <ele>379.6</ele>
        <time>2022-10-26T12:07:44.000Z</time>
      </trkpt>
      <trkpt lat="43.64497" lon="5.4344">
        <ele>380.1</ele>
        <time>2022-10-26T12:07:47.000Z</time>
      </trkpt>
      <trkpt lat="43.64499" lon="5.43442">
        <ele>380.5</ele>
        <time>2022-10-26T12:07:50.000Z</time>
      </trkpt>
      <trkpt lat="43.645" lon="5.43443">
        <ele>380.8</ele>
        <time>2022-10-26T12:07:52.000Z</time>
      </trkpt>
      <trkpt lat="43.64502" lon="5.43445">
        <ele>381.2</ele>
        <time>2022-10-26T12:07:55.000Z</time>
      </trkpt>
      <trkpt lat="43.64504" lon="5.43448">
        <ele>382</ele>
        <time>2022-10-26T12:07:58.000Z</time>
      </trkpt>
      <trkpt lat="43.64505" lon="5.43451">
        <ele>382.6</ele>
        <time>2022-10-26T12:08:01.000Z</time>
      </trkpt>
      <trkpt lat="43.64507" lon="5.43452">
        <ele>383</ele>
        <time>2022-10-26T12:08:04.000Z</time>
      </trkpt>
      <trkpt lat="43.64509" lon="5.43454">
        <ele>383.3</ele>
        <time>2022-10-26T12:08:07.000Z</time>
      </trkpt>
      <trkpt lat="43.6451" lon="5.43456">
        <ele>383.6</ele>
        <time>2022-10-26T12:08:10.000Z</time>
      </trkpt>
      <trkpt lat="43.64513" lon="5.43458">
        <ele>383.9</ele>
        <time>2022-10-26T12:08:14.000Z</time>
      </trkpt>
      <trkpt lat="43.64515" lon="5.43459">
        <ele>384</ele>
        <time>2022-10-26T12:08:16.000Z</time>
      </trkpt>
      <trkpt lat="43.64516" lon="5.4346">
        <ele>384.2</ele>
        <time>2022-10-26T12:08:18.000Z</time>
      </trkpt>
      <trkpt lat="43.64518" lon="5.43462">
        <ele>384.5</ele>
        <time>2022-10-26T12:08:20.000Z</time>
      </trkpt>
      <trkpt lat="43.6452" lon="5.43464">
        <ele>384.6</ele>
        <time>2022-10-26T12:08:22.000Z</time>
      </trkpt>
      <trkpt lat="43.64521" lon="5.43466">
        <ele>384.9</ele>
        <time>2022-10-26T12:08:25.000Z</time>
      </trkpt>
      <trkpt lat="43.64523" lon="5.43468">
        <ele>385.1</ele>
        <time>2022-10-26T12:08:28.000Z</time>
      </trkpt>
      <trkpt lat="43.64525" lon="5.4347">
        <ele>385.1</ele>
        <time>2022-10-26T12:08:31.000Z</time>
      </trkpt>
      <trkpt lat="43.64526" lon="5.43472">
        <ele>385.2</ele>
        <time>2022-10-26T12:08:33.000Z</time>
      </trkpt>
      <trkpt lat="43.64528" lon="5.43474">
        <ele>385.6</ele>
        <time>2022-10-26T12:08:36.000Z</time>
      </trkpt>
      <trkpt lat="43.64529" lon="5.43477">
        <ele>386.4</ele>
        <time>2022-10-26T12:08:39.000Z</time>
      </trkpt>
      <trkpt lat="43.6453" lon="5.43479">
        <ele>386.8</ele>
        <time>2022-10-26T12:08:41.000Z</time>
      </trkpt>
      <trkpt lat="43.64532" lon="5.4348">
        <ele>386.9</ele>
        <time>2022-10-26T12:08:43.000Z</time>
      </trkpt>
      <trkpt lat="43.64534" lon="5.43482">
        <ele>387.2</ele>
        <time>2022-10-26T12:08:45.000Z</time>
      </trkpt>
      <trkpt lat="43.64536" lon="5.43483">
        <ele>387.2</ele>
        <time>2022-10-26T12:08:47.000Z</time>
      </trkpt>
      <trkpt lat="43.64538" lon="5.43484">
        <ele>387.2</ele>
        <time>2022-10-26T12:08:50.000Z</time>
      </trkpt>
      <trkpt lat="43.6454" lon="5.43486">
        <ele>387.3</ele>
        <time>2022-10-26T12:08:52.000Z</time>
      </trkpt>
      <trkpt lat="43.64542" lon="5.43488">
        <ele>387.5</ele>
        <time>2022-10-26T12:08:56.000Z</time>
      </trkpt>
      <trkpt lat="43.64544" lon="5.43489">
        <ele>387.7</ele>
        <time>2022-10-26T12:08:59.000Z</time>
      </trkpt>
      <trkpt lat="43.64546" lon="5.43492">
        <ele>388.1</ele>
        <time>2022-10-26T12:09:02.000Z</time>
      </trkpt>
      <trkpt lat="43.64548" lon="5.43494">
        <ele>388.2</ele>
        <time>2022-10-26T12:09:05.000Z</time>
      </trkpt>
      <trkpt lat="43.6455" lon="5.43496">
        <ele>388.2</ele>
        <time>2022-10-26T12:09:07.000Z</time>
      </trkpt>
      <trkpt lat="43.64552" lon="5.43498">
        <ele>388.4</ele>
        <time>2022-10-26T12:09:10.000Z</time>
      </trkpt>
      <trkpt lat="43.64553" lon="5.435">
        <ele>388.7</ele>
        <time>2022-10-26T12:09:12.000Z</time>
      </trkpt>
      <trkpt lat="43.64554" lon="5.43502">
        <ele>388.9</ele>
        <time>2022-10-26T12:09:14.000Z</time>
      </trkpt>
      <trkpt lat="43.64556" lon="5.43504">
        <ele>389.1</ele>
        <time>2022-10-26T12:09:16.000Z</time>
      </trkpt>
      <trkpt lat="43.64558" lon="5.43506">
        <ele>389.7</ele>
        <time>2022-10-26T12:09:19.000Z</time>
      </trkpt>
      <trkpt lat="43.64559" lon="5.43508">
        <ele>390.2</ele>
        <time>2022-10-26T12:09:21.000Z</time>
      </trkpt>
      <trkpt lat="43.64561" lon="5.4351">
        <ele>390.7</ele>
        <time>2022-10-26T12:09:24.000Z</time>
      </trkpt>
      <trkpt lat="43.64563" lon="5.43511">
        <ele>390.9</ele>
        <time>2022-10-26T12:09:26.000Z</time>
      </trkpt>
      <trkpt lat="43.64565" lon="5.43513">
        <ele>391.2</ele>
        <time>2022-10-26T12:09:28.000Z</time>
      </trkpt>
      <trkpt lat="43.64566" lon="5.43513">
        <ele>391.2</ele>
        <time>2022-10-26T12:09:30.000Z</time>
      </trkpt>
      <trkpt lat="43.64568" lon="5.43514">
        <ele>391.1</ele>
        <time>2022-10-26T12:09:32.000Z</time>
      </trkpt>
      <trkpt lat="43.6457" lon="5.43515">
        <ele>391.3</ele>
        <time>2022-10-26T12:09:34.000Z</time>
      </trkpt>
      <trkpt lat="43.64572" lon="5.43517">
        <ele>391.6</ele>
        <time>2022-10-26T12:09:37.000Z</time>
      </trkpt>
      <trkpt lat="43.64574" lon="5.43519">
        <ele>391.8</ele>
        <time>2022-10-26T12:09:40.000Z</time>
      </trkpt>
      <trkpt lat="43.64576" lon="5.4352">
        <ele>392</ele>
        <time>2022-10-26T12:09:43.000Z</time>
      </trkpt>
      <trkpt lat="43.64577" lon="5.43522">
        <ele>392.3</ele>
        <time>2022-10-26T12:09:46.000Z</time>
      </trkpt>
      <trkpt lat="43.64579" lon="5.43525">
        <ele>392.7</ele>
        <time>2022-10-26T12:09:49.000Z</time>
      </trkpt>
      <trkpt lat="43.64581" lon="5.43527">
        <ele>393</ele>
        <time>2022-10-26T12:09:52.000Z</time>
      </trkpt>
      <trkpt lat="43.64583" lon="5.43528">
        <ele>393.2</ele>
        <time>2022-10-26T12:09:55.000Z</time>
      </trkpt>
      <trkpt lat="43.64585" lon="5.4353">
        <ele>393.3</ele>
        <time>2022-10-26T12:09:58.000Z</time>
      </trkpt>
      <trkpt lat="43.64588" lon="5.43532">
        <ele>393.4</ele>
        <time>2022-10-26T12:10:01.000Z</time>
      </trkpt>
      <trkpt lat="43.6459" lon="5.43533">
        <ele>393.5</ele>
        <time>2022-10-26T12:10:04.000Z</time>
      </trkpt>
      <trkpt lat="43.64592" lon="5.43534">
        <ele>393.7</ele>
        <time>2022-10-26T12:10:07.000Z</time>
      </trkpt>
      <trkpt lat="43.64594" lon="5.43536">
        <ele>393.9</ele>
        <time>2022-10-26T12:10:11.000Z</time>
      </trkpt>
      <trkpt lat="43.64595" lon="5.43538">
        <ele>394.2</ele>
        <time>2022-10-26T12:10:14.000Z</time>
      </trkpt>
      <trkpt lat="43.64597" lon="5.4354">
        <ele>394.6</ele>
        <time>2022-10-26T12:10:17.000Z</time>
      </trkpt>
      <trkpt lat="43.64598" lon="5.43542">
        <ele>395.1</ele>
        <time>2022-10-26T12:10:21.000Z</time>
      </trkpt>
      <trkpt lat="43.646" lon="5.43544">
        <ele>395.5</ele>
        <time>2022-10-26T12:10:25.000Z</time>
      </trkpt>
      <trkpt lat="43.64601" lon="5.43546">
        <ele>395.9</ele>
        <time>2022-10-26T12:10:28.000Z</time>
      </trkpt>
      <trkpt lat="43.64602" lon="5.43549">
        <ele>396.5</ele>
        <time>2022-10-26T12:10:33.000Z</time>
      </trkpt>
      <trkpt lat="43.64604" lon="5.43551">
        <ele>397</ele>
        <time>2022-10-26T12:10:36.000Z</time>
      </trkpt>
      <trkpt lat="43.64604" lon="5.43553">
        <ele>397.6</ele>
        <time>2022-10-26T12:10:39.000Z</time>
      </trkpt>
      <trkpt lat="43.64606" lon="5.43556">
        <ele>398.2</ele>
        <time>2022-10-26T12:10:43.000Z</time>
      </trkpt>
      <trkpt lat="43.64608" lon="5.43557">
        <ele>398.3</ele>
        <time>2022-10-26T12:10:46.000Z</time>
      </trkpt>
      <trkpt lat="43.64609" lon="5.43559">
        <ele>398.4</ele>
        <time>2022-10-26T12:10:49.000Z</time>
      </trkpt>
      <trkpt lat="43.64611" lon="5.4356">
        <ele>398.5</ele>
        <time>2022-10-26T12:10:52.000Z</time>
      </trkpt>
      <trkpt lat="43.64613" lon="5.4356">
        <ele>398.6</ele>
        <time>2022-10-26T12:10:54.000Z</time>
      </trkpt>
      <trkpt lat="43.64615" lon="5.43559">
        <ele>398.7</ele>
        <time>2022-10-26T12:10:56.000Z</time>
      </trkpt>
      <trkpt lat="43.64618" lon="5.43559">
        <ele>398.8</ele>
        <time>2022-10-26T12:10:58.000Z</time>
      </trkpt>
      <trkpt lat="43.64621" lon="5.43558">
        <ele>399</ele>
        <time>2022-10-26T12:11:00.000Z</time>
      </trkpt>
      <trkpt lat="43.64623" lon="5.43557">
        <ele>399.1</ele>
        <time>2022-10-26T12:11:02.000Z</time>
      </trkpt>
      <trkpt lat="43.64625" lon="5.43557">
        <ele>399.2</ele>
        <time>2022-10-26T12:11:04.000Z</time>
      </trkpt>
      <trkpt lat="43.64627" lon="5.43557">
        <ele>399.3</ele>
        <time>2022-10-26T12:11:06.000Z</time>
      </trkpt>
      <trkpt lat="43.64629" lon="5.43557">
        <ele>399.4</ele>
        <time>2022-10-26T12:11:08.000Z</time>
      </trkpt>
      <trkpt lat="43.64631" lon="5.43556">
        <ele>399.5</ele>
        <time>2022-10-26T12:11:10.000Z</time>
      </trkpt>
      <trkpt lat="43.64634" lon="5.43555">
        <ele>399.6</ele>
        <time>2022-10-26T12:11:12.000Z</time>
      </trkpt>
      <trkpt lat="43.64636" lon="5.43555">
        <ele>399.7</ele>
        <time>2022-10-26T12:11:14.000Z</time>
      </trkpt>
      <trkpt lat="43.64638" lon="5.43554">
        <ele>399.5</ele>
        <time>2022-10-26T12:11:16.000Z</time>
      </trkpt>
      <trkpt lat="43.64641" lon="5.43553">
        <ele>399.4</ele>
        <time>2022-10-26T12:11:19.000Z</time>
      </trkpt>
      <trkpt lat="43.64643" lon="5.43552">
        <ele>399.3</ele>
        <time>2022-10-26T12:11:22.000Z</time>
      </trkpt>
      <trkpt lat="43.64645" lon="5.43551">
        <ele>399.4</ele>
        <time>2022-10-26T12:11:24.000Z</time>
      </trkpt>
      <trkpt lat="43.64647" lon="5.43551">
        <ele>399.4</ele>
        <time>2022-10-26T12:11:26.000Z</time>
      </trkpt>
      <trkpt lat="43.64649" lon="5.43549">
        <ele>399.3</ele>
        <time>2022-10-26T12:11:28.000Z</time>
      </trkpt>
      <trkpt lat="43.64651" lon="5.43548">
        <ele>399</ele>
        <time>2022-10-26T12:11:30.000Z</time>
      </trkpt>
      <trkpt lat="43.64654" lon="5.43546">
        <ele>399</ele>
        <time>2022-10-26T12:11:33.000Z</time>
      </trkpt>
      <trkpt lat="43.64656" lon="5.43545">
        <ele>399</ele>
        <time>2022-10-26T12:11:35.000Z</time>
      </trkpt>
      <trkpt lat="43.64659" lon="5.43544">
        <ele>399</ele>
        <time>2022-10-26T12:11:37.000Z</time>
      </trkpt>
      <trkpt lat="43.64661" lon="5.43543">
        <ele>399.1</ele>
        <time>2022-10-26T12:11:39.000Z</time>
      </trkpt>
      <trkpt lat="43.64663" lon="5.43543">
        <ele>399.3</ele>
        <time>2022-10-26T12:11:41.000Z</time>
      </trkpt>
      <trkpt lat="43.64665" lon="5.43542">
        <ele>399.4</ele>
        <time>2022-10-26T12:11:43.000Z</time>
      </trkpt>
      <trkpt lat="43.64667" lon="5.43542">
        <ele>399.8</ele>
        <time>2022-10-26T12:11:45.000Z</time>
      </trkpt>
      <trkpt lat="43.64669" lon="5.43542">
        <ele>400.1</ele>
        <time>2022-10-26T12:11:47.000Z</time>
      </trkpt>
      <trkpt lat="43.64672" lon="5.43542">
        <ele>400.5</ele>
        <time>2022-10-26T12:11:50.000Z</time>
      </trkpt>
      <trkpt lat="43.64674" lon="5.43542">
        <ele>401</ele>
        <time>2022-10-26T12:11:52.000Z</time>
      </trkpt>
      <trkpt lat="43.64676" lon="5.43543">
        <ele>401.8</ele>
        <time>2022-10-26T12:11:55.000Z</time>
      </trkpt>
      <trkpt lat="43.64679" lon="5.43545">
        <ele>402.6</ele>
        <time>2022-10-26T12:11:58.000Z</time>
      </trkpt>
      <trkpt lat="43.64681" lon="5.43545">
        <ele>403.2</ele>
        <time>2022-10-26T12:12:01.000Z</time>
      </trkpt>
      <trkpt lat="43.64683" lon="5.43546">
        <ele>403.7</ele>
        <time>2022-10-26T12:12:03.000Z</time>
      </trkpt>
      <trkpt lat="43.64686" lon="5.43546">
        <ele>404.3</ele>
        <time>2022-10-26T12:12:06.000Z</time>
      </trkpt>
      <trkpt lat="43.64689" lon="5.43546">
        <ele>404.8</ele>
        <time>2022-10-26T12:12:09.000Z</time>
      </trkpt>
      <trkpt lat="43.64691" lon="5.43547">
        <ele>405.5</ele>
        <time>2022-10-26T12:12:12.000Z</time>
      </trkpt>
      <trkpt lat="43.64692" lon="5.43548">
        <ele>406</ele>
        <time>2022-10-26T12:12:16.000Z</time>
      </trkpt>
      <trkpt lat="43.64695" lon="5.43547">
        <ele>406.3</ele>
        <time>2022-10-26T12:12:21.000Z</time>
      </trkpt>
      <trkpt lat="43.64697" lon="5.43547">
        <ele>406.7</ele>
        <time>2022-10-26T12:12:23.000Z</time>
      </trkpt>
      <trkpt lat="43.64699" lon="5.43545">
        <ele>406.7</ele>
        <time>2022-10-26T12:12:26.000Z</time>
      </trkpt>
      <trkpt lat="43.64701" lon="5.43544">
        <ele>406.8</ele>
        <time>2022-10-26T12:12:28.000Z</time>
      </trkpt>
      <trkpt lat="43.64703" lon="5.43542">
        <ele>406.8</ele>
        <time>2022-10-26T12:12:31.000Z</time>
      </trkpt>
      <trkpt lat="43.64705" lon="5.43541">
        <ele>406.9</ele>
        <time>2022-10-26T12:12:33.000Z</time>
      </trkpt>
      <trkpt lat="43.64707" lon="5.43539">
        <ele>407</ele>
        <time>2022-10-26T12:12:36.000Z</time>
      </trkpt>
      <trkpt lat="43.6471" lon="5.43537">
        <ele>407.1</ele>
        <time>2022-10-26T12:12:39.000Z</time>
      </trkpt>
      <trkpt lat="43.64712" lon="5.43536">
        <ele>407.2</ele>
        <time>2022-10-26T12:12:42.000Z</time>
      </trkpt>
      <trkpt lat="43.64713" lon="5.43534">
        <ele>407.3</ele>
        <time>2022-10-26T12:12:45.000Z</time>
      </trkpt>
      <trkpt lat="43.64715" lon="5.43533">
        <ele>407.4</ele>
        <time>2022-10-26T12:12:48.000Z</time>
      </trkpt>
      <trkpt lat="43.64718" lon="5.43531">
        <ele>407.6</ele>
        <time>2022-10-26T12:12:51.000Z</time>
      </trkpt>
      <trkpt lat="43.6472" lon="5.43529">
        <ele>407.8</ele>
        <time>2022-10-26T12:12:53.000Z</time>
      </trkpt>
      <trkpt lat="43.64723" lon="5.43527">
        <ele>407.9</ele>
        <time>2022-10-26T12:12:55.000Z</time>
      </trkpt>
      <trkpt lat="43.64725" lon="5.43525">
        <ele>407.9</ele>
        <time>2022-10-26T12:12:57.000Z</time>
      </trkpt>
      <trkpt lat="43.64726" lon="5.43523">
        <ele>407.8</ele>
        <time>2022-10-26T12:12:59.000Z</time>
      </trkpt>
      <trkpt lat="43.64729" lon="5.43521">
        <ele>407.9</ele>
        <time>2022-10-26T12:13:02.000Z</time>
      </trkpt>
      <trkpt lat="43.64731" lon="5.4352">
        <ele>407.9</ele>
        <time>2022-10-26T12:13:05.000Z</time>
      </trkpt>
      <trkpt lat="43.64732" lon="5.43518">
        <ele>407.9</ele>
        <time>2022-10-26T12:13:07.000Z</time>
      </trkpt>
      <trkpt lat="43.64734" lon="5.43518">
        <ele>408</ele>
        <time>2022-10-26T12:13:10.000Z</time>
      </trkpt>
      <trkpt lat="43.64736" lon="5.43517">
        <ele>408.1</ele>
        <time>2022-10-26T12:13:12.000Z</time>
      </trkpt>
      <trkpt lat="43.64738" lon="5.43515">
        <ele>408.1</ele>
        <time>2022-10-26T12:13:14.000Z</time>
      </trkpt>
      <trkpt lat="43.6474" lon="5.43514">
        <ele>408.1</ele>
        <time>2022-10-26T12:13:16.000Z</time>
      </trkpt>
      <trkpt lat="43.64742" lon="5.43513">
        <ele>408.2</ele>
        <time>2022-10-26T12:13:19.000Z</time>
      </trkpt>
      <trkpt lat="43.64744" lon="5.43512">
        <ele>408.3</ele>
        <time>2022-10-26T12:13:21.000Z</time>
      </trkpt>
      <trkpt lat="43.64746" lon="5.43511">
        <ele>408.2</ele>
        <time>2022-10-26T12:13:23.000Z</time>
      </trkpt>
      <trkpt lat="43.64748" lon="5.4351">
        <ele>408.2</ele>
        <time>2022-10-26T12:13:25.000Z</time>
      </trkpt>
      <trkpt lat="43.6475" lon="5.4351">
        <ele>408.4</ele>
        <time>2022-10-26T12:13:28.000Z</time>
      </trkpt>
      <trkpt lat="43.64753" lon="5.43509">
        <ele>408.8</ele>
        <time>2022-10-26T12:13:31.000Z</time>
      </trkpt>
      <trkpt lat="43.64755" lon="5.43507">
        <ele>408.8</ele>
        <time>2022-10-26T12:13:34.000Z</time>
      </trkpt>
      <trkpt lat="43.64757" lon="5.43506">
        <ele>408.8</ele>
        <time>2022-10-26T12:13:37.000Z</time>
      </trkpt>
      <trkpt lat="43.64759" lon="5.43505">
        <ele>409</ele>
        <time>2022-10-26T12:13:39.000Z</time>
      </trkpt>
      <trkpt lat="43.64761" lon="5.43504">
        <ele>409.4</ele>
        <time>2022-10-26T12:13:42.000Z</time>
      </trkpt>
      <trkpt lat="43.64763" lon="5.43504">
        <ele>409.8</ele>
        <time>2022-10-26T12:13:44.000Z</time>
      </trkpt>
      <trkpt lat="43.64765" lon="5.43504">
        <ele>410.2</ele>
        <time>2022-10-26T12:13:46.000Z</time>
      </trkpt>
      <trkpt lat="43.64767" lon="5.43504">
        <ele>410.6</ele>
        <time>2022-10-26T12:13:48.000Z</time>
      </trkpt>
      <trkpt lat="43.64769" lon="5.43504">
        <ele>411</ele>
        <time>2022-10-26T12:13:50.000Z</time>
      </trkpt>
      <trkpt lat="43.64771" lon="5.43503">
        <ele>411.3</ele>
        <time>2022-10-26T12:13:52.000Z</time>
      </trkpt>
      <trkpt lat="43.64774" lon="5.43503">
        <ele>411.7</ele>
        <time>2022-10-26T12:13:55.000Z</time>
      </trkpt>
      <trkpt lat="43.64776" lon="5.43502">
        <ele>412</ele>
        <time>2022-10-26T12:13:57.000Z</time>
      </trkpt>
      <trkpt lat="43.64778" lon="5.43501">
        <ele>412.2</ele>
        <time>2022-10-26T12:14:00.000Z</time>
      </trkpt>
      <trkpt lat="43.64781" lon="5.435">
        <ele>412.4</ele>
        <time>2022-10-26T12:14:03.000Z</time>
      </trkpt>
      <trkpt lat="43.64783" lon="5.435">
        <ele>412.5</ele>
        <time>2022-10-26T12:14:06.000Z</time>
      </trkpt>
      <trkpt lat="43.64785" lon="5.43499">
        <ele>412.7</ele>
        <time>2022-10-26T12:14:09.000Z</time>
      </trkpt>
      <trkpt lat="43.64787" lon="5.43499">
        <ele>412.7</ele>
        <time>2022-10-26T12:14:11.000Z</time>
      </trkpt>
      <trkpt lat="43.6479" lon="5.43498">
        <ele>412.9</ele>
        <time>2022-10-26T12:14:14.000Z</time>
      </trkpt>
      <trkpt lat="43.64792" lon="5.43498">
        <ele>413.1</ele>
        <time>2022-10-26T12:14:17.000Z</time>
      </trkpt>
      <trkpt lat="43.64795" lon="5.43497">
        <ele>413.1</ele>
        <time>2022-10-26T12:14:20.000Z</time>
      </trkpt>
      <trkpt lat="43.64797" lon="5.43496">
        <ele>413.1</ele>
        <time>2022-10-26T12:14:22.000Z</time>
      </trkpt>
      <trkpt lat="43.64799" lon="5.43494">
        <ele>413</ele>
        <time>2022-10-26T12:14:24.000Z</time>
      </trkpt>
      <trkpt lat="43.648" lon="5.43493">
        <ele>413</ele>
        <time>2022-10-26T12:14:26.000Z</time>
      </trkpt>
      <trkpt lat="43.64802" lon="5.43492">
        <ele>412.9</ele>
        <time>2022-10-26T12:14:28.000Z</time>
      </trkpt>
      <trkpt lat="43.64805" lon="5.43491">
        <ele>412.9</ele>
        <time>2022-10-26T12:14:30.000Z</time>
      </trkpt>
      <trkpt lat="43.64807" lon="5.4349">
        <ele>412.9</ele>
        <time>2022-10-26T12:14:32.000Z</time>
      </trkpt>
      <trkpt lat="43.64808" lon="5.43489">
        <ele>412.9</ele>
        <time>2022-10-26T12:14:34.000Z</time>
      </trkpt>
      <trkpt lat="43.6481" lon="5.43489">
        <ele>412.9</ele>
        <time>2022-10-26T12:14:36.000Z</time>
      </trkpt>
      <trkpt lat="43.64812" lon="5.43488">
        <ele>412.9</ele>
        <time>2022-10-26T12:14:38.000Z</time>
      </trkpt>
      <trkpt lat="43.64814" lon="5.43487">
        <ele>412.9</ele>
        <time>2022-10-26T12:14:40.000Z</time>
      </trkpt>
      <trkpt lat="43.64816" lon="5.43486">
        <ele>413</ele>
        <time>2022-10-26T12:14:42.000Z</time>
      </trkpt>
      <trkpt lat="43.64818" lon="5.43486">
        <ele>413.1</ele>
        <time>2022-10-26T12:14:44.000Z</time>
      </trkpt>
      <trkpt lat="43.6482" lon="5.43486">
        <ele>413.2</ele>
        <time>2022-10-26T12:14:46.000Z</time>
      </trkpt>
      <trkpt lat="43.64822" lon="5.43486">
        <ele>413.3</ele>
        <time>2022-10-26T12:14:48.000Z</time>
      </trkpt>
      <trkpt lat="43.64824" lon="5.43485">
        <ele>413.3</ele>
        <time>2022-10-26T12:14:50.000Z</time>
      </trkpt>
      <trkpt lat="43.64826" lon="5.43484">
        <ele>413.3</ele>
        <time>2022-10-26T12:14:52.000Z</time>
      </trkpt>
      <trkpt lat="43.64828" lon="5.43484">
        <ele>413.4</ele>
        <time>2022-10-26T12:14:54.000Z</time>
      </trkpt>
      <trkpt lat="43.6483" lon="5.43483">
        <ele>413.5</ele>
        <time>2022-10-26T12:14:56.000Z</time>
      </trkpt>
      <trkpt lat="43.64832" lon="5.43483">
        <ele>413.7</ele>
        <time>2022-10-26T12:14:58.000Z</time>
      </trkpt>
      <trkpt lat="43.64834" lon="5.43482">
        <ele>413.6</ele>
        <time>2022-10-26T12:15:00.000Z</time>
      </trkpt>
      <trkpt lat="43.64836" lon="5.43482">
        <ele>413.6</ele>
        <time>2022-10-26T12:15:02.000Z</time>
      </trkpt>
      <trkpt lat="43.64838" lon="5.43481">
        <ele>413.5</ele>
        <time>2022-10-26T12:15:04.000Z</time>
      </trkpt>
      <trkpt lat="43.64841" lon="5.4348">
        <ele>413.4</ele>
        <time>2022-10-26T12:15:06.000Z</time>
      </trkpt>
      <trkpt lat="43.64842" lon="5.43479">
        <ele>413.3</ele>
        <time>2022-10-26T12:15:08.000Z</time>
      </trkpt>
      <trkpt lat="43.64845" lon="5.43479">
        <ele>413.3</ele>
        <time>2022-10-26T12:15:10.000Z</time>
      </trkpt>
      <trkpt lat="43.64846" lon="5.43478">
        <ele>413.3</ele>
        <time>2022-10-26T12:15:12.000Z</time>
      </trkpt>
      <trkpt lat="43.64848" lon="5.43477">
        <ele>413.1</ele>
        <time>2022-10-26T12:15:14.000Z</time>
      </trkpt>
      <trkpt lat="43.6485" lon="5.43476">
        <ele>413</ele>
        <time>2022-10-26T12:15:16.000Z</time>
      </trkpt>
      <trkpt lat="43.64852" lon="5.43475">
        <ele>412.9</ele>
        <time>2022-10-26T12:15:18.000Z</time>
      </trkpt>
      <trkpt lat="43.64854" lon="5.43473">
        <ele>412.6</ele>
        <time>2022-10-26T12:15:20.000Z</time>
      </trkpt>
      <trkpt lat="43.64855" lon="5.43471">
        <ele>412.4</ele>
        <time>2022-10-26T12:15:22.000Z</time>
      </trkpt>
      <trkpt lat="43.64857" lon="5.4347">
        <ele>412.2</ele>
        <time>2022-10-26T12:15:24.000Z</time>
      </trkpt>
      <trkpt lat="43.64859" lon="5.43467">
        <ele>412</ele>
        <time>2022-10-26T12:15:26.000Z</time>
      </trkpt>
      <trkpt lat="43.6486" lon="5.43466">
        <ele>411.8</ele>
        <time>2022-10-26T12:15:28.000Z</time>
      </trkpt>
      <trkpt lat="43.64862" lon="5.43464">
        <ele>411.6</ele>
        <time>2022-10-26T12:15:30.000Z</time>
      </trkpt>
      <trkpt lat="43.64864" lon="5.43462">
        <ele>411.5</ele>
        <time>2022-10-26T12:15:32.000Z</time>
      </trkpt>
      <trkpt lat="43.64865" lon="5.4346">
        <ele>411.3</ele>
        <time>2022-10-26T12:15:34.000Z</time>
      </trkpt>
      <trkpt lat="43.64867" lon="5.43459">
        <ele>411.2</ele>
        <time>2022-10-26T12:15:36.000Z</time>
      </trkpt>
      <trkpt lat="43.64869" lon="5.43457">
        <ele>411.2</ele>
        <time>2022-10-26T12:15:38.000Z</time>
      </trkpt>
      <trkpt lat="43.64871" lon="5.43456">
        <ele>411.1</ele>
        <time>2022-10-26T12:15:40.000Z</time>
      </trkpt>
      <trkpt lat="43.64872" lon="5.43454">
        <ele>411</ele>
        <time>2022-10-26T12:15:42.000Z</time>
      </trkpt>
      <trkpt lat="43.64874" lon="5.43453">
        <ele>410.9</ele>
        <time>2022-10-26T12:15:44.000Z</time>
      </trkpt>
      <trkpt lat="43.64876" lon="5.43451">
        <ele>410.8</ele>
        <time>2022-10-26T12:15:46.000Z</time>
      </trkpt>
      <trkpt lat="43.64878" lon="5.4345">
        <ele>410.8</ele>
        <time>2022-10-26T12:15:48.000Z</time>
      </trkpt>
      <trkpt lat="43.6488" lon="5.43448">
        <ele>410.8</ele>
        <time>2022-10-26T12:15:50.000Z</time>
      </trkpt>
      <trkpt lat="43.64882" lon="5.43448">
        <ele>410.8</ele>
        <time>2022-10-26T12:15:52.000Z</time>
      </trkpt>
      <trkpt lat="43.64884" lon="5.43446">
        <ele>410.8</ele>
        <time>2022-10-26T12:15:54.000Z</time>
      </trkpt>
      <trkpt lat="43.64886" lon="5.43445">
        <ele>410.8</ele>
        <time>2022-10-26T12:15:56.000Z</time>
      </trkpt>
      <trkpt lat="43.64888" lon="5.43444">
        <ele>410.8</ele>
        <time>2022-10-26T12:15:58.000Z</time>
      </trkpt>
      <trkpt lat="43.64891" lon="5.43442">
        <ele>410.6</ele>
        <time>2022-10-26T12:16:00.000Z</time>
      </trkpt>
      <trkpt lat="43.64892" lon="5.43441">
        <ele>410.6</ele>
        <time>2022-10-26T12:16:02.000Z</time>
      </trkpt>
      <trkpt lat="43.64894" lon="5.43442">
        <ele>410.7</ele>
        <time>2022-10-26T12:16:04.000Z</time>
      </trkpt>
      <trkpt lat="43.64896" lon="5.43442">
        <ele>410.7</ele>
        <time>2022-10-26T12:16:06.000Z</time>
      </trkpt>
      <trkpt lat="43.64898" lon="5.43441">
        <ele>410.7</ele>
        <time>2022-10-26T12:16:08.000Z</time>
      </trkpt>
      <trkpt lat="43.649" lon="5.43441">
        <ele>410.7</ele>
        <time>2022-10-26T12:16:10.000Z</time>
      </trkpt>
      <trkpt lat="43.64902" lon="5.4344">
        <ele>410.6</ele>
        <time>2022-10-26T12:16:12.000Z</time>
      </trkpt>
      <trkpt lat="43.64904" lon="5.43439">
        <ele>410.4</ele>
        <time>2022-10-26T12:16:14.000Z</time>
      </trkpt>
      <trkpt lat="43.64907" lon="5.43438">
        <ele>410.4</ele>
        <time>2022-10-26T12:16:16.000Z</time>
      </trkpt>
      <trkpt lat="43.64909" lon="5.43438">
        <ele>410.3</ele>
        <time>2022-10-26T12:16:18.000Z</time>
      </trkpt>
      <trkpt lat="43.64911" lon="5.43437">
        <ele>410.3</ele>
        <time>2022-10-26T12:16:20.000Z</time>
      </trkpt>
      <trkpt lat="43.64913" lon="5.43437">
        <ele>410.2</ele>
        <time>2022-10-26T12:16:22.000Z</time>
      </trkpt>
      <trkpt lat="43.64915" lon="5.43436">
        <ele>410.1</ele>
        <time>2022-10-26T12:16:24.000Z</time>
      </trkpt>
      <trkpt lat="43.64918" lon="5.43435">
        <ele>410.1</ele>
        <time>2022-10-26T12:16:26.000Z</time>
      </trkpt>
      <trkpt lat="43.6492" lon="5.43435">
        <ele>410</ele>
        <time>2022-10-26T12:16:28.000Z</time>
      </trkpt>
      <trkpt lat="43.64922" lon="5.43434">
        <ele>410</ele>
        <time>2022-10-26T12:16:30.000Z</time>
      </trkpt>
      <trkpt lat="43.64924" lon="5.43434">
        <ele>410.1</ele>
        <time>2022-10-26T12:16:32.000Z</time>
      </trkpt>
      <trkpt lat="43.64927" lon="5.43434">
        <ele>410.1</ele>
        <time>2022-10-26T12:16:34.000Z</time>
      </trkpt>
      <trkpt lat="43.64929" lon="5.43434">
        <ele>410.2</ele>
        <time>2022-10-26T12:16:36.000Z</time>
      </trkpt>
      <trkpt lat="43.64931" lon="5.43434">
        <ele>410.2</ele>
        <time>2022-10-26T12:16:38.000Z</time>
      </trkpt>
      <trkpt lat="43.64933" lon="5.43433">
        <ele>410.2</ele>
        <time>2022-10-26T12:16:40.000Z</time>
      </trkpt>
      <trkpt lat="43.64935" lon="5.43432">
        <ele>410.1</ele>
        <time>2022-10-26T12:16:42.000Z</time>
      </trkpt>
      <trkpt lat="43.64937" lon="5.43432">
        <ele>410</ele>
        <time>2022-10-26T12:16:44.000Z</time>
      </trkpt>
      <trkpt lat="43.64939" lon="5.43431">
        <ele>410</ele>
        <time>2022-10-26T12:16:46.000Z</time>
      </trkpt>
      <trkpt lat="43.64941" lon="5.43431">
        <ele>409.9</ele>
        <time>2022-10-26T12:16:48.000Z</time>
      </trkpt>
      <trkpt lat="43.64943" lon="5.4343">
        <ele>409.7</ele>
        <time>2022-10-26T12:16:50.000Z</time>
      </trkpt>
      <trkpt lat="43.64945" lon="5.43428">
        <ele>409.5</ele>
        <time>2022-10-26T12:16:52.000Z</time>
      </trkpt>
      <trkpt lat="43.64947" lon="5.43427">
        <ele>409.3</ele>
        <time>2022-10-26T12:16:54.000Z</time>
      </trkpt>
      <trkpt lat="43.64949" lon="5.43426">
        <ele>409.1</ele>
        <time>2022-10-26T12:16:56.000Z</time>
      </trkpt>
      <trkpt lat="43.64951" lon="5.43424">
        <ele>408.7</ele>
        <time>2022-10-26T12:16:58.000Z</time>
      </trkpt>
      <trkpt lat="43.64953" lon="5.43424">
        <ele>408.7</ele>
        <time>2022-10-26T12:17:00.000Z</time>
      </trkpt>
      <trkpt lat="43.64955" lon="5.43422">
        <ele>408.4</ele>
        <time>2022-10-26T12:17:02.000Z</time>
      </trkpt>
      <trkpt lat="43.64957" lon="5.43422">
        <ele>408.4</ele>
        <time>2022-10-26T12:17:04.000Z</time>
      </trkpt>
      <trkpt lat="43.64959" lon="5.43421">
        <ele>408.4</ele>
        <time>2022-10-26T12:17:06.000Z</time>
      </trkpt>
      <trkpt lat="43.64961" lon="5.4342">
        <ele>408.2</ele>
        <time>2022-10-26T12:17:08.000Z</time>
      </trkpt>
      <trkpt lat="43.64963" lon="5.4342">
        <ele>408.2</ele>
        <time>2022-10-26T12:17:10.000Z</time>
      </trkpt>
      <trkpt lat="43.64965" lon="5.43419">
        <ele>408.1</ele>
        <time>2022-10-26T12:17:13.000Z</time>
      </trkpt>
      <trkpt lat="43.64967" lon="5.43418">
        <ele>408</ele>
        <time>2022-10-26T12:17:15.000Z</time>
      </trkpt>
      <trkpt lat="43.64969" lon="5.43417">
        <ele>407.7</ele>
        <time>2022-10-26T12:17:17.000Z</time>
      </trkpt>
      <trkpt lat="43.64971" lon="5.43415">
        <ele>407.5</ele>
        <time>2022-10-26T12:17:20.000Z</time>
      </trkpt>
      <trkpt lat="43.64973" lon="5.43413">
        <ele>407.2</ele>
        <time>2022-10-26T12:17:22.000Z</time>
      </trkpt>
      <trkpt lat="43.64975" lon="5.43412">
        <ele>406.9</ele>
        <time>2022-10-26T12:17:24.000Z</time>
      </trkpt>
      <trkpt lat="43.64977" lon="5.43411">
        <ele>406.7</ele>
        <time>2022-10-26T12:17:26.000Z</time>
      </trkpt>
      <trkpt lat="43.64979" lon="5.43409">
        <ele>406.5</ele>
        <time>2022-10-26T12:17:28.000Z</time>
      </trkpt>
      <trkpt lat="43.64981" lon="5.43408">
        <ele>406.2</ele>
        <time>2022-10-26T12:17:30.000Z</time>
      </trkpt>
      <trkpt lat="43.64982" lon="5.43406">
        <ele>406</ele>
        <time>2022-10-26T12:17:32.000Z</time>
      </trkpt>
      <trkpt lat="43.64984" lon="5.43405">
        <ele>405.7</ele>
        <time>2022-10-26T12:17:34.000Z</time>
      </trkpt>
      <trkpt lat="43.64986" lon="5.43403">
        <ele>405.3</ele>
        <time>2022-10-26T12:17:36.000Z</time>
      </trkpt>
      <trkpt lat="43.64987" lon="5.43402">
        <ele>405.1</ele>
        <time>2022-10-26T12:17:38.000Z</time>
      </trkpt>
      <trkpt lat="43.64989" lon="5.43401">
        <ele>404.8</ele>
        <time>2022-10-26T12:17:40.000Z</time>
      </trkpt>
      <trkpt lat="43.64991" lon="5.43399">
        <ele>404.5</ele>
        <time>2022-10-26T12:17:42.000Z</time>
      </trkpt>
      <trkpt lat="43.64993" lon="5.43398">
        <ele>404.3</ele>
        <time>2022-10-26T12:17:44.000Z</time>
      </trkpt>
      <trkpt lat="43.64995" lon="5.43397">
        <ele>404.1</ele>
        <time>2022-10-26T12:17:46.000Z</time>
      </trkpt>
      <trkpt lat="43.64997" lon="5.43396">
        <ele>404</ele>
        <time>2022-10-26T12:17:48.000Z</time>
      </trkpt>
      <trkpt lat="43.64999" lon="5.43396">
        <ele>403.9</ele>
        <time>2022-10-26T12:17:50.000Z</time>
      </trkpt>
      <trkpt lat="43.65001" lon="5.43396">
        <ele>403.8</ele>
        <time>2022-10-26T12:17:52.000Z</time>
      </trkpt>
      <trkpt lat="43.65003" lon="5.43395">
        <ele>403.3</ele>
        <time>2022-10-26T12:17:54.000Z</time>
      </trkpt>
      <trkpt lat="43.65005" lon="5.43395">
        <ele>402.9</ele>
        <time>2022-10-26T12:17:56.000Z</time>
      </trkpt>
      <trkpt lat="43.65007" lon="5.43395">
        <ele>402.5</ele>
        <time>2022-10-26T12:17:58.000Z</time>
      </trkpt>
      <trkpt lat="43.65009" lon="5.43396">
        <ele>402.4</ele>
        <time>2022-10-26T12:18:00.000Z</time>
      </trkpt>
      <trkpt lat="43.65011" lon="5.43398">
        <ele>402.4</ele>
        <time>2022-10-26T12:18:02.000Z</time>
      </trkpt>
      <trkpt lat="43.65013" lon="5.43399">
        <ele>402.3</ele>
        <time>2022-10-26T12:18:04.000Z</time>
      </trkpt>
      <trkpt lat="43.65014" lon="5.434">
        <ele>402.3</ele>
        <time>2022-10-26T12:18:06.000Z</time>
      </trkpt>
      <trkpt lat="43.65016" lon="5.43401">
        <ele>402.1</ele>
        <time>2022-10-26T12:18:08.000Z</time>
      </trkpt>
      <trkpt lat="43.65018" lon="5.43403">
        <ele>402</ele>
        <time>2022-10-26T12:18:10.000Z</time>
      </trkpt>
      <trkpt lat="43.6502" lon="5.43404">
        <ele>402</ele>
        <time>2022-10-26T12:18:12.000Z</time>
      </trkpt>
      <trkpt lat="43.65022" lon="5.43405">
        <ele>401.9</ele>
        <time>2022-10-26T12:18:14.000Z</time>
      </trkpt>
      <trkpt lat="43.65024" lon="5.43407">
        <ele>401.9</ele>
        <time>2022-10-26T12:18:17.000Z</time>
      </trkpt>
      <trkpt lat="43.65025" lon="5.43409">
        <ele>401.8</ele>
        <time>2022-10-26T12:18:19.000Z</time>
      </trkpt>
      <trkpt lat="43.65027" lon="5.4341">
        <ele>401.6</ele>
        <time>2022-10-26T12:18:21.000Z</time>
      </trkpt>
      <trkpt lat="43.65029" lon="5.43411">
        <ele>401.6</ele>
        <time>2022-10-26T12:18:23.000Z</time>
      </trkpt>
      <trkpt lat="43.65031" lon="5.43413">
        <ele>401.6</ele>
        <time>2022-10-26T12:18:25.000Z</time>
      </trkpt>
      <trkpt lat="43.65032" lon="5.43414">
        <ele>401.6</ele>
        <time>2022-10-26T12:18:27.000Z</time>
      </trkpt>
      <trkpt lat="43.65034" lon="5.43416">
        <ele>401.7</ele>
        <time>2022-10-26T12:18:29.000Z</time>
      </trkpt>
      <trkpt lat="43.65036" lon="5.43417">
        <ele>401.8</ele>
        <time>2022-10-26T12:18:31.000Z</time>
      </trkpt>
      <trkpt lat="43.65038" lon="5.43419">
        <ele>402</ele>
        <time>2022-10-26T12:18:33.000Z</time>
      </trkpt>
      <trkpt lat="43.65039" lon="5.43421">
        <ele>402.1</ele>
        <time>2022-10-26T12:18:35.000Z</time>
      </trkpt>
      <trkpt lat="43.65041" lon="5.43422">
        <ele>402.1</ele>
        <time>2022-10-26T12:18:37.000Z</time>
      </trkpt>
      <trkpt lat="43.65043" lon="5.43424">
        <ele>402.1</ele>
        <time>2022-10-26T12:18:39.000Z</time>
      </trkpt>
      <trkpt lat="43.65045" lon="5.43426">
        <ele>402.2</ele>
        <time>2022-10-26T12:18:41.000Z</time>
      </trkpt>
      <trkpt lat="43.65046" lon="5.43427">
        <ele>402.1</ele>
        <time>2022-10-26T12:18:43.000Z</time>
      </trkpt>
      <trkpt lat="43.65048" lon="5.43428">
        <ele>401.9</ele>
        <time>2022-10-26T12:18:45.000Z</time>
      </trkpt>
      <trkpt lat="43.6505" lon="5.43429">
        <ele>401.7</ele>
        <time>2022-10-26T12:18:47.000Z</time>
      </trkpt>
      <trkpt lat="43.65052" lon="5.43431">
        <ele>401.5</ele>
        <time>2022-10-26T12:18:49.000Z</time>
      </trkpt>
      <trkpt lat="43.65054" lon="5.43432">
        <ele>401.3</ele>
        <time>2022-10-26T12:18:51.000Z</time>
      </trkpt>
      <trkpt lat="43.65056" lon="5.43433">
        <ele>401</ele>
        <time>2022-10-26T12:18:53.000Z</time>
      </trkpt>
      <trkpt lat="43.65057" lon="5.43435">
        <ele>401</ele>
        <time>2022-10-26T12:18:55.000Z</time>
      </trkpt>
      <trkpt lat="43.65059" lon="5.43436">
        <ele>400.8</ele>
        <time>2022-10-26T12:18:57.000Z</time>
      </trkpt>
      <trkpt lat="43.65061" lon="5.43436">
        <ele>400.6</ele>
        <time>2022-10-26T12:18:59.000Z</time>
      </trkpt>
      <trkpt lat="43.65063" lon="5.43437">
        <ele>400.4</ele>
        <time>2022-10-26T12:19:01.000Z</time>
      </trkpt>
      <trkpt lat="43.65065" lon="5.43438">
        <ele>400.2</ele>
        <time>2022-10-26T12:19:03.000Z</time>
      </trkpt>
      <trkpt lat="43.65067" lon="5.43438">
        <ele>400</ele>
        <time>2022-10-26T12:19:05.000Z</time>
      </trkpt>
      <trkpt lat="43.65069" lon="5.43439">
        <ele>399.7</ele>
        <time>2022-10-26T12:19:07.000Z</time>
      </trkpt>
      <trkpt lat="43.65071" lon="5.4344">
        <ele>399.5</ele>
        <time>2022-10-26T12:19:09.000Z</time>
      </trkpt>
      <trkpt lat="43.65073" lon="5.43441">
        <ele>399.4</ele>
        <time>2022-10-26T12:19:11.000Z</time>
      </trkpt>
      <trkpt lat="43.65075" lon="5.43443">
        <ele>399.3</ele>
        <time>2022-10-26T12:19:13.000Z</time>
      </trkpt>
      <trkpt lat="43.65077" lon="5.43444">
        <ele>399.1</ele>
        <time>2022-10-26T12:19:15.000Z</time>
      </trkpt>
      <trkpt lat="43.65078" lon="5.43445">
        <ele>399</ele>
        <time>2022-10-26T12:19:17.000Z</time>
      </trkpt>
      <trkpt lat="43.6508" lon="5.43447">
        <ele>398.9</ele>
        <time>2022-10-26T12:19:19.000Z</time>
      </trkpt>
      <trkpt lat="43.65082" lon="5.43448">
        <ele>398.7</ele>
        <time>2022-10-26T12:19:21.000Z</time>
      </trkpt>
      <trkpt lat="43.65084" lon="5.43449">
        <ele>398.6</ele>
        <time>2022-10-26T12:19:23.000Z</time>
      </trkpt>
      <trkpt lat="43.65086" lon="5.4345">
        <ele>398.6</ele>
        <time>2022-10-26T12:19:25.000Z</time>
      </trkpt>
      <trkpt lat="43.65088" lon="5.43451">
        <ele>398.6</ele>
        <time>2022-10-26T12:19:27.000Z</time>
      </trkpt>
      <trkpt lat="43.6509" lon="5.43453">
        <ele>398.6</ele>
        <time>2022-10-26T12:19:29.000Z</time>
      </trkpt>
      <trkpt lat="43.65092" lon="5.43454">
        <ele>398.6</ele>
        <time>2022-10-26T12:19:31.000Z</time>
      </trkpt>
      <trkpt lat="43.65093" lon="5.43456">
        <ele>398.6</ele>
        <time>2022-10-26T12:19:33.000Z</time>
      </trkpt>
      <trkpt lat="43.65095" lon="5.43458">
        <ele>398.6</ele>
        <time>2022-10-26T12:19:35.000Z</time>
      </trkpt>
      <trkpt lat="43.65097" lon="5.43459">
        <ele>398.6</ele>
        <time>2022-10-26T12:19:37.000Z</time>
      </trkpt>
      <trkpt lat="43.65099" lon="5.4346">
        <ele>398.4</ele>
        <time>2022-10-26T12:19:39.000Z</time>
      </trkpt>
      <trkpt lat="43.65101" lon="5.43461">
        <ele>398.3</ele>
        <time>2022-10-26T12:19:41.000Z</time>
      </trkpt>
      <trkpt lat="43.65104" lon="5.43461">
        <ele>398.1</ele>
        <time>2022-10-26T12:19:43.000Z</time>
      </trkpt>
      <trkpt lat="43.65106" lon="5.43463">
        <ele>397.9</ele>
        <time>2022-10-26T12:19:45.000Z</time>
      </trkpt>
      <trkpt lat="43.65108" lon="5.43464">
        <ele>397.8</ele>
        <time>2022-10-26T12:19:47.000Z</time>
      </trkpt>
      <trkpt lat="43.65111" lon="5.43465">
        <ele>397.6</ele>
        <time>2022-10-26T12:19:51.000Z</time>
      </trkpt>
      <trkpt lat="43.65112" lon="5.43467">
        <ele>397.6</ele>
        <time>2022-10-26T12:19:57.000Z</time>
      </trkpt>
      <trkpt lat="43.65114" lon="5.43467">
        <ele>397.5</ele>
        <time>2022-10-26T12:20:00.000Z</time>
      </trkpt>
      <trkpt lat="43.65116" lon="5.43468">
        <ele>397.3</ele>
        <time>2022-10-26T12:20:03.000Z</time>
      </trkpt>
      <trkpt lat="43.65117" lon="5.43469">
        <ele>397.3</ele>
        <time>2022-10-26T12:20:05.000Z</time>
      </trkpt>
      <trkpt lat="43.65119" lon="5.43471">
        <ele>397.4</ele>
        <time>2022-10-26T12:20:08.000Z</time>
      </trkpt>
      <trkpt lat="43.6512" lon="5.43475">
        <ele>397.4</ele>
        <time>2022-10-26T12:20:11.000Z</time>
      </trkpt>
      <trkpt lat="43.6512" lon="5.43477">
        <ele>397.4</ele>
        <time>2022-10-26T12:20:13.000Z</time>
      </trkpt>
      <trkpt lat="43.6512" lon="5.43481">
        <ele>397.4</ele>
        <time>2022-10-26T12:20:16.000Z</time>
      </trkpt>
      <trkpt lat="43.6512" lon="5.43483">
        <ele>397.5</ele>
        <time>2022-10-26T12:20:18.000Z</time>
      </trkpt>
      <trkpt lat="43.65119" lon="5.43486">
        <ele>397.7</ele>
        <time>2022-10-26T12:20:20.000Z</time>
      </trkpt>
      <trkpt lat="43.65117" lon="5.43488">
        <ele>397.8</ele>
        <time>2022-10-26T12:20:22.000Z</time>
      </trkpt>
      <trkpt lat="43.65116" lon="5.43489">
        <ele>398</ele>
        <time>2022-10-26T12:20:24.000Z</time>
      </trkpt>
      <trkpt lat="43.65115" lon="5.43491">
        <ele>398.2</ele>
        <time>2022-10-26T12:20:26.000Z</time>
      </trkpt>
      <trkpt lat="43.65114" lon="5.43493">
        <ele>398.4</ele>
        <time>2022-10-26T12:20:28.000Z</time>
      </trkpt>
      <trkpt lat="43.65114" lon="5.43497">
        <ele>398.4</ele>
        <time>2022-10-26T12:20:29.000Z</time>
      </trkpt>
      <trkpt lat="43.65112" lon="5.43496">
        <ele>398.7</ele>
        <time>2022-10-26T12:20:34.000Z</time>
      </trkpt>
      <trkpt lat="43.65111" lon="5.43498">
        <ele>399</ele>
        <time>2022-10-26T12:20:37.000Z</time>
      </trkpt>
      <trkpt lat="43.65109" lon="5.435">
        <ele>399.3</ele>
        <time>2022-10-26T12:20:39.000Z</time>
      </trkpt>
      <trkpt lat="43.65108" lon="5.43502">
        <ele>399.5</ele>
        <time>2022-10-26T12:20:41.000Z</time>
      </trkpt>
      <trkpt lat="43.65106" lon="5.43504">
        <ele>399.7</ele>
        <time>2022-10-26T12:20:43.000Z</time>
      </trkpt>
      <trkpt lat="43.65105" lon="5.43506">
        <ele>399.9</ele>
        <time>2022-10-26T12:20:45.000Z</time>
      </trkpt>
      <trkpt lat="43.65103" lon="5.43508">
        <ele>400.1</ele>
        <time>2022-10-26T12:20:47.000Z</time>
      </trkpt>
      <trkpt lat="43.65101" lon="5.43511">
        <ele>400.3</ele>
        <time>2022-10-26T12:20:49.000Z</time>
      </trkpt>
      <trkpt lat="43.651" lon="5.43513">
        <ele>400.5</ele>
        <time>2022-10-26T12:20:51.000Z</time>
      </trkpt>
      <trkpt lat="43.65099" lon="5.43515">
        <ele>400.6</ele>
        <time>2022-10-26T12:20:53.000Z</time>
      </trkpt>
      <trkpt lat="43.65097" lon="5.43518">
        <ele>400.7</ele>
        <time>2022-10-26T12:20:55.000Z</time>
      </trkpt>
      <trkpt lat="43.65095" lon="5.4352">
        <ele>400.9</ele>
        <time>2022-10-26T12:20:57.000Z</time>
      </trkpt>
      <trkpt lat="43.65094" lon="5.43523">
        <ele>401</ele>
        <time>2022-10-26T12:20:59.000Z</time>
      </trkpt>
      <trkpt lat="43.65092" lon="5.43525">
        <ele>401.1</ele>
        <time>2022-10-26T12:21:02.000Z</time>
      </trkpt>
      <trkpt lat="43.65091" lon="5.43527">
        <ele>401.2</ele>
        <time>2022-10-26T12:21:04.000Z</time>
      </trkpt>
      <trkpt lat="43.65089" lon="5.43529">
        <ele>401.3</ele>
        <time>2022-10-26T12:21:06.000Z</time>
      </trkpt>
      <trkpt lat="43.65088" lon="5.43531">
        <ele>401.4</ele>
        <time>2022-10-26T12:21:08.000Z</time>
      </trkpt>
      <trkpt lat="43.65086" lon="5.43533">
        <ele>401.4</ele>
        <time>2022-10-26T12:21:10.000Z</time>
      </trkpt>
      <trkpt lat="43.65084" lon="5.43535">
        <ele>401.4</ele>
        <time>2022-10-26T12:21:12.000Z</time>
      </trkpt>
      <trkpt lat="43.65082" lon="5.43538">
        <ele>401.5</ele>
        <time>2022-10-26T12:21:14.000Z</time>
      </trkpt>
      <trkpt lat="43.65081" lon="5.43539">
        <ele>401.6</ele>
        <time>2022-10-26T12:21:16.000Z</time>
      </trkpt>
      <trkpt lat="43.65079" lon="5.43541">
        <ele>401.7</ele>
        <time>2022-10-26T12:21:18.000Z</time>
      </trkpt>
      <trkpt lat="43.65077" lon="5.43542">
        <ele>401.8</ele>
        <time>2022-10-26T12:21:20.000Z</time>
      </trkpt>
      <trkpt lat="43.65076" lon="5.43544">
        <ele>401.8</ele>
        <time>2022-10-26T12:21:22.000Z</time>
      </trkpt>
      <trkpt lat="43.65074" lon="5.43546">
        <ele>402</ele>
        <time>2022-10-26T12:21:24.000Z</time>
      </trkpt>
      <trkpt lat="43.65071" lon="5.43547">
        <ele>402.2</ele>
        <time>2022-10-26T12:21:27.000Z</time>
      </trkpt>
      <trkpt lat="43.65069" lon="5.43549">
        <ele>402.3</ele>
        <time>2022-10-26T12:21:29.000Z</time>
      </trkpt>
      <trkpt lat="43.65067" lon="5.4355">
        <ele>402.4</ele>
        <time>2022-10-26T12:21:31.000Z</time>
      </trkpt>
      <trkpt lat="43.65065" lon="5.43552">
        <ele>402.4</ele>
        <time>2022-10-26T12:21:33.000Z</time>
      </trkpt>
      <trkpt lat="43.65063" lon="5.43554">
        <ele>402.4</ele>
        <time>2022-10-26T12:21:35.000Z</time>
      </trkpt>
      <trkpt lat="43.65061" lon="5.43555">
        <ele>402.5</ele>
        <time>2022-10-26T12:21:37.000Z</time>
      </trkpt>
      <trkpt lat="43.65059" lon="5.43557">
        <ele>402.5</ele>
        <time>2022-10-26T12:21:39.000Z</time>
      </trkpt>
      <trkpt lat="43.65057" lon="5.4356">
        <ele>402.6</ele>
        <time>2022-10-26T12:21:41.000Z</time>
      </trkpt>
      <trkpt lat="43.65055" lon="5.43562">
        <ele>402.8</ele>
        <time>2022-10-26T12:21:43.000Z</time>
      </trkpt>
      <trkpt lat="43.65053" lon="5.43564">
        <ele>403.1</ele>
        <time>2022-10-26T12:21:45.000Z</time>
      </trkpt>
      <trkpt lat="43.65051" lon="5.43566">
        <ele>403.4</ele>
        <time>2022-10-26T12:21:47.000Z</time>
      </trkpt>
      <trkpt lat="43.65049" lon="5.43567">
        <ele>403.7</ele>
        <time>2022-10-26T12:21:49.000Z</time>
      </trkpt>
      <trkpt lat="43.65047" lon="5.43569">
        <ele>404</ele>
        <time>2022-10-26T12:21:51.000Z</time>
      </trkpt>
      <trkpt lat="43.65045" lon="5.43571">
        <ele>404.2</ele>
        <time>2022-10-26T12:21:54.000Z</time>
      </trkpt>
      <trkpt lat="43.65044" lon="5.43573">
        <ele>404.4</ele>
        <time>2022-10-26T12:21:56.000Z</time>
      </trkpt>
      <trkpt lat="43.65042" lon="5.43576">
        <ele>404.5</ele>
        <time>2022-10-26T12:21:58.000Z</time>
      </trkpt>
      <trkpt lat="43.6504" lon="5.43577">
        <ele>404.6</ele>
        <time>2022-10-26T12:22:00.000Z</time>
      </trkpt>
      <trkpt lat="43.65039" lon="5.43579">
        <ele>404.6</ele>
        <time>2022-10-26T12:22:02.000Z</time>
      </trkpt>
      <trkpt lat="43.65037" lon="5.43582">
        <ele>404.4</ele>
        <time>2022-10-26T12:22:04.000Z</time>
      </trkpt>
      <trkpt lat="43.65036" lon="5.43584">
        <ele>404.5</ele>
        <time>2022-10-26T12:22:06.000Z</time>
      </trkpt>
      <trkpt lat="43.65035" lon="5.43586">
        <ele>404.4</ele>
        <time>2022-10-26T12:22:08.000Z</time>
      </trkpt>
      <trkpt lat="43.65034" lon="5.43589">
        <ele>404.3</ele>
        <time>2022-10-26T12:22:10.000Z</time>
      </trkpt>
      <trkpt lat="43.65033" lon="5.43591">
        <ele>404.3</ele>
        <time>2022-10-26T12:22:12.000Z</time>
      </trkpt>
      <trkpt lat="43.65032" lon="5.43593">
        <ele>404.3</ele>
        <time>2022-10-26T12:22:14.000Z</time>
      </trkpt>
      <trkpt lat="43.65031" lon="5.43595">
        <ele>404.2</ele>
        <time>2022-10-26T12:22:16.000Z</time>
      </trkpt>
      <trkpt lat="43.6503" lon="5.43598">
        <ele>404.2</ele>
        <time>2022-10-26T12:22:18.000Z</time>
      </trkpt>
      <trkpt lat="43.65029" lon="5.436">
        <ele>404.1</ele>
        <time>2022-10-26T12:22:20.000Z</time>
      </trkpt>
      <trkpt lat="43.65028" lon="5.43602">
        <ele>404</ele>
        <time>2022-10-26T12:22:22.000Z</time>
      </trkpt>
      <trkpt lat="43.65027" lon="5.43605">
        <ele>403.9</ele>
        <time>2022-10-26T12:22:24.000Z</time>
      </trkpt>
      <trkpt lat="43.65026" lon="5.43607">
        <ele>403.8</ele>
        <time>2022-10-26T12:22:26.000Z</time>
      </trkpt>
      <trkpt lat="43.65025" lon="5.4361">
        <ele>403.8</ele>
        <time>2022-10-26T12:22:28.000Z</time>
      </trkpt>
      <trkpt lat="43.65024" lon="5.43613">
        <ele>403.7</ele>
        <time>2022-10-26T12:22:30.000Z</time>
      </trkpt>
      <trkpt lat="43.65023" lon="5.43615">
        <ele>403.7</ele>
        <time>2022-10-26T12:22:32.000Z</time>
      </trkpt>
      <trkpt lat="43.65022" lon="5.43618">
        <ele>403.6</ele>
        <time>2022-10-26T12:22:34.000Z</time>
      </trkpt>
      <trkpt lat="43.6502" lon="5.4362">
        <ele>403.6</ele>
        <time>2022-10-26T12:22:36.000Z</time>
      </trkpt>
      <trkpt lat="43.65019" lon="5.43622">
        <ele>403.6</ele>
        <time>2022-10-26T12:22:38.000Z</time>
      </trkpt>
      <trkpt lat="43.65018" lon="5.43625">
        <ele>403.5</ele>
        <time>2022-10-26T12:22:40.000Z</time>
      </trkpt>
      <trkpt lat="43.65016" lon="5.43627">
        <ele>403.5</ele>
        <time>2022-10-26T12:22:42.000Z</time>
      </trkpt>
      <trkpt lat="43.65015" lon="5.4363">
        <ele>403.4</ele>
        <time>2022-10-26T12:22:44.000Z</time>
      </trkpt>
      <trkpt lat="43.65014" lon="5.43633">
        <ele>403.1</ele>
        <time>2022-10-26T12:22:46.000Z</time>
      </trkpt>
      <trkpt lat="43.65014" lon="5.43636">
        <ele>402.9</ele>
        <time>2022-10-26T12:22:48.000Z</time>
      </trkpt>
      <trkpt lat="43.65012" lon="5.43638">
        <ele>402.9</ele>
        <time>2022-10-26T12:22:50.000Z</time>
      </trkpt>
      <trkpt lat="43.65011" lon="5.4364">
        <ele>402.9</ele>
        <time>2022-10-26T12:22:52.000Z</time>
      </trkpt>
      <trkpt lat="43.65011" lon="5.43642">
        <ele>402.9</ele>
        <time>2022-10-26T12:22:54.000Z</time>
      </trkpt>
      <trkpt lat="43.6501" lon="5.43644">
        <ele>403</ele>
        <time>2022-10-26T12:22:56.000Z</time>
      </trkpt>
      <trkpt lat="43.65008" lon="5.43647">
        <ele>403.2</ele>
        <time>2022-10-26T12:22:59.000Z</time>
      </trkpt>
      <trkpt lat="43.65007" lon="5.43649">
        <ele>403.3</ele>
        <time>2022-10-26T12:23:01.000Z</time>
      </trkpt>
      <trkpt lat="43.65006" lon="5.43651">
        <ele>403.3</ele>
        <time>2022-10-26T12:23:03.000Z</time>
      </trkpt>
      <trkpt lat="43.65004" lon="5.43654">
        <ele>403.3</ele>
        <time>2022-10-26T12:23:05.000Z</time>
      </trkpt>
      <trkpt lat="43.65003" lon="5.43656">
        <ele>403.4</ele>
        <time>2022-10-26T12:23:07.000Z</time>
      </trkpt>
      <trkpt lat="43.65001" lon="5.43657">
        <ele>403.5</ele>
        <time>2022-10-26T12:23:09.000Z</time>
      </trkpt>
      <trkpt lat="43.65" lon="5.4366">
        <ele>403.5</ele>
        <time>2022-10-26T12:23:11.000Z</time>
      </trkpt>
      <trkpt lat="43.64999" lon="5.43662">
        <ele>403.6</ele>
        <time>2022-10-26T12:23:13.000Z</time>
      </trkpt>
      <trkpt lat="43.64997" lon="5.43664">
        <ele>403.6</ele>
        <time>2022-10-26T12:23:15.000Z</time>
      </trkpt>
      <trkpt lat="43.64996" lon="5.43666">
        <ele>403.6</ele>
        <time>2022-10-26T12:23:17.000Z</time>
      </trkpt>
      <trkpt lat="43.64994" lon="5.43669">
        <ele>403.8</ele>
        <time>2022-10-26T12:23:19.000Z</time>
      </trkpt>
      <trkpt lat="43.64992" lon="5.43671">
        <ele>403.9</ele>
        <time>2022-10-26T12:23:21.000Z</time>
      </trkpt>
      <trkpt lat="43.64991" lon="5.43673">
        <ele>404</ele>
        <time>2022-10-26T12:23:23.000Z</time>
      </trkpt>
      <trkpt lat="43.6499" lon="5.43676">
        <ele>404</ele>
        <time>2022-10-26T12:23:25.000Z</time>
      </trkpt>
      <trkpt lat="43.64989" lon="5.43678">
        <ele>404</ele>
        <time>2022-10-26T12:23:27.000Z</time>
      </trkpt>
      <trkpt lat="43.64987" lon="5.4368">
        <ele>404.1</ele>
        <time>2022-10-26T12:23:29.000Z</time>
      </trkpt>
      <trkpt lat="43.64986" lon="5.43682">
        <ele>404.2</ele>
        <time>2022-10-26T12:23:31.000Z</time>
      </trkpt>
      <trkpt lat="43.64984" lon="5.43685">
        <ele>404.3</ele>
        <time>2022-10-26T12:23:33.000Z</time>
      </trkpt>
      <trkpt lat="43.64983" lon="5.43687">
        <ele>404.3</ele>
        <time>2022-10-26T12:23:35.000Z</time>
      </trkpt>
      <trkpt lat="43.64984" lon="5.43684">
        <ele>404.3</ele>
        <time>2022-10-26T12:24:32.000Z</time>
      </trkpt>
      <trkpt lat="43.64983" lon="5.43687">
        <ele>404.2</ele>
        <time>2022-10-26T12:25:06.000Z</time>
      </trkpt>
      <trkpt lat="43.64984" lon="5.43685">
        <ele>404.3</ele>
        <time>2022-10-26T12:26:11.000Z</time>
      </trkpt>
      <trkpt lat="43.64985" lon="5.43682">
        <ele>404.4</ele>
        <time>2022-10-26T12:28:30.000Z</time>
      </trkpt>
      <trkpt lat="43.64983" lon="5.43684">
        <ele>404.4</ele>
        <time>2022-10-26T12:28:36.000Z</time>
      </trkpt>
      <trkpt lat="43.64981" lon="5.43686">
        <ele>404.5</ele>
        <time>2022-10-26T12:28:38.000Z</time>
      </trkpt>
      <trkpt lat="43.6498" lon="5.43689">
        <ele>404.6</ele>
        <time>2022-10-26T12:28:40.000Z</time>
      </trkpt>
      <trkpt lat="43.64978" lon="5.43691">
        <ele>404.6</ele>
        <time>2022-10-26T12:28:42.000Z</time>
      </trkpt>
      <trkpt lat="43.64977" lon="5.43693">
        <ele>404.6</ele>
        <time>2022-10-26T12:28:44.000Z</time>
      </trkpt>
      <trkpt lat="43.64976" lon="5.43695">
        <ele>404.6</ele>
        <time>2022-10-26T12:28:46.000Z</time>
      </trkpt>
      <trkpt lat="43.64975" lon="5.43698">
        <ele>404.5</ele>
        <time>2022-10-26T12:28:48.000Z</time>
      </trkpt>
      <trkpt lat="43.64974" lon="5.437">
        <ele>404.5</ele>
        <time>2022-10-26T12:28:50.000Z</time>
      </trkpt>
      <trkpt lat="43.64973" lon="5.43703">
        <ele>404.4</ele>
        <time>2022-10-26T12:28:52.000Z</time>
      </trkpt>
      <trkpt lat="43.64971" lon="5.43706">
        <ele>404.4</ele>
        <time>2022-10-26T12:28:54.000Z</time>
      </trkpt>
      <trkpt lat="43.6497" lon="5.43708">
        <ele>404.4</ele>
        <time>2022-10-26T12:28:56.000Z</time>
      </trkpt>
      <trkpt lat="43.6497" lon="5.43711">
        <ele>404.4</ele>
        <time>2022-10-26T12:28:58.000Z</time>
      </trkpt>
      <trkpt lat="43.64969" lon="5.43714">
        <ele>404.3</ele>
        <time>2022-10-26T12:29:00.000Z</time>
      </trkpt>
      <trkpt lat="43.64968" lon="5.43716">
        <ele>404.4</ele>
        <time>2022-10-26T12:29:02.000Z</time>
      </trkpt>
      <trkpt lat="43.64967" lon="5.43719">
        <ele>404.4</ele>
        <time>2022-10-26T12:29:04.000Z</time>
      </trkpt>
      <trkpt lat="43.64965" lon="5.43722">
        <ele>404.5</ele>
        <time>2022-10-26T12:29:06.000Z</time>
      </trkpt>
      <trkpt lat="43.64964" lon="5.43726">
        <ele>404.6</ele>
        <time>2022-10-26T12:29:08.000Z</time>
      </trkpt>
      <trkpt lat="43.64963" lon="5.43729">
        <ele>404.6</ele>
        <time>2022-10-26T12:29:10.000Z</time>
      </trkpt>
      <trkpt lat="43.64962" lon="5.43733">
        <ele>404.7</ele>
        <time>2022-10-26T12:29:12.000Z</time>
      </trkpt>
      <trkpt lat="43.64961" lon="5.43735">
        <ele>404.9</ele>
        <time>2022-10-26T12:29:14.000Z</time>
      </trkpt>
      <trkpt lat="43.6496" lon="5.43738">
        <ele>404.9</ele>
        <time>2022-10-26T12:29:16.000Z</time>
      </trkpt>
      <trkpt lat="43.64958" lon="5.43741">
        <ele>405</ele>
        <time>2022-10-26T12:29:19.000Z</time>
      </trkpt>
      <trkpt lat="43.64958" lon="5.43744">
        <ele>405</ele>
        <time>2022-10-26T12:29:21.000Z</time>
      </trkpt>
      <trkpt lat="43.64957" lon="5.43746">
        <ele>405</ele>
        <time>2022-10-26T12:29:23.000Z</time>
      </trkpt>
      <trkpt lat="43.64956" lon="5.43749">
        <ele>405</ele>
        <time>2022-10-26T12:29:25.000Z</time>
      </trkpt>
      <trkpt lat="43.64955" lon="5.43751">
        <ele>404.9</ele>
        <time>2022-10-26T12:29:27.000Z</time>
      </trkpt>
      <trkpt lat="43.64954" lon="5.43755">
        <ele>404.8</ele>
        <time>2022-10-26T12:29:29.000Z</time>
      </trkpt>
      <trkpt lat="43.64952" lon="5.43757">
        <ele>404.6</ele>
        <time>2022-10-26T12:29:31.000Z</time>
      </trkpt>
      <trkpt lat="43.64951" lon="5.4376">
        <ele>404.5</ele>
        <time>2022-10-26T12:29:34.000Z</time>
      </trkpt>
      <trkpt lat="43.6495" lon="5.43762">
        <ele>404.4</ele>
        <time>2022-10-26T12:29:36.000Z</time>
      </trkpt>
      <trkpt lat="43.64947" lon="5.43765">
        <ele>404.5</ele>
        <time>2022-10-26T12:29:38.000Z</time>
      </trkpt>
      <trkpt lat="43.64945" lon="5.43767">
        <ele>404.5</ele>
        <time>2022-10-26T12:29:40.000Z</time>
      </trkpt>
      <trkpt lat="43.64943" lon="5.4377">
        <ele>404.5</ele>
        <time>2022-10-26T12:29:42.000Z</time>
      </trkpt>
      <trkpt lat="43.64941" lon="5.43771">
        <ele>404.7</ele>
        <time>2022-10-26T12:29:44.000Z</time>
      </trkpt>
      <trkpt lat="43.64939" lon="5.43773">
        <ele>404.7</ele>
        <time>2022-10-26T12:29:46.000Z</time>
      </trkpt>
      <trkpt lat="43.64937" lon="5.43774">
        <ele>405</ele>
        <time>2022-10-26T12:29:48.000Z</time>
      </trkpt>
      <trkpt lat="43.64935" lon="5.43775">
        <ele>405.2</ele>
        <time>2022-10-26T12:29:51.000Z</time>
      </trkpt>
      <trkpt lat="43.64933" lon="5.43775">
        <ele>405.5</ele>
        <time>2022-10-26T12:29:53.000Z</time>
      </trkpt>
      <trkpt lat="43.6493" lon="5.43776">
        <ele>405.9</ele>
        <time>2022-10-26T12:29:56.000Z</time>
      </trkpt>
      <trkpt lat="43.64928" lon="5.43776">
        <ele>406.2</ele>
        <time>2022-10-26T12:29:59.000Z</time>
      </trkpt>
      <trkpt lat="43.64926" lon="5.43777">
        <ele>406.4</ele>
        <time>2022-10-26T12:30:02.000Z</time>
      </trkpt>
      <trkpt lat="43.64923" lon="5.43779">
        <ele>406.8</ele>
        <time>2022-10-26T12:30:04.000Z</time>
      </trkpt>
      <trkpt lat="43.64921" lon="5.4378">
        <ele>407.1</ele>
        <time>2022-10-26T12:30:06.000Z</time>
      </trkpt>
      <trkpt lat="43.64919" lon="5.4378">
        <ele>407.5</ele>
        <time>2022-10-26T12:30:08.000Z</time>
      </trkpt>
      <trkpt lat="43.64916" lon="5.4378">
        <ele>408</ele>
        <time>2022-10-26T12:30:11.000Z</time>
      </trkpt>
      <trkpt lat="43.64914" lon="5.43779">
        <ele>408.4</ele>
        <time>2022-10-26T12:30:14.000Z</time>
      </trkpt>
      <trkpt lat="43.64911" lon="5.43779">
        <ele>408.8</ele>
        <time>2022-10-26T12:30:17.000Z</time>
      </trkpt>
      <trkpt lat="43.64909" lon="5.4378">
        <ele>409.2</ele>
        <time>2022-10-26T12:30:20.000Z</time>
      </trkpt>
      <trkpt lat="43.64907" lon="5.43781">
        <ele>409.5</ele>
        <time>2022-10-26T12:30:23.000Z</time>
      </trkpt>
      <trkpt lat="43.64905" lon="5.43783">
        <ele>409.7</ele>
        <time>2022-10-26T12:30:26.000Z</time>
      </trkpt>
      <trkpt lat="43.64904" lon="5.43784">
        <ele>409.8</ele>
        <time>2022-10-26T12:30:28.000Z</time>
      </trkpt>
      <trkpt lat="43.64901" lon="5.43786">
        <ele>410</ele>
        <time>2022-10-26T12:30:31.000Z</time>
      </trkpt>
      <trkpt lat="43.649" lon="5.43788">
        <ele>410.1</ele>
        <time>2022-10-26T12:30:33.000Z</time>
      </trkpt>
      <trkpt lat="43.64898" lon="5.4379">
        <ele>410.2</ele>
        <time>2022-10-26T12:30:35.000Z</time>
      </trkpt>
      <trkpt lat="43.64896" lon="5.43792">
        <ele>410.3</ele>
        <time>2022-10-26T12:30:37.000Z</time>
      </trkpt>
      <trkpt lat="43.64894" lon="5.43794">
        <ele>410.5</ele>
        <time>2022-10-26T12:30:39.000Z</time>
      </trkpt>
      <trkpt lat="43.64892" lon="5.43795">
        <ele>410.7</ele>
        <time>2022-10-26T12:30:41.000Z</time>
      </trkpt>
      <trkpt lat="43.64889" lon="5.43797">
        <ele>410.9</ele>
        <time>2022-10-26T12:30:43.000Z</time>
      </trkpt>
      <trkpt lat="43.64888" lon="5.43798">
        <ele>410.9</ele>
        <time>2022-10-26T12:30:45.000Z</time>
      </trkpt>
      <trkpt lat="43.64886" lon="5.43798">
        <ele>411.1</ele>
        <time>2022-10-26T12:30:47.000Z</time>
      </trkpt>
      <trkpt lat="43.64883" lon="5.43798">
        <ele>411.1</ele>
        <time>2022-10-26T12:30:49.000Z</time>
      </trkpt>
      <trkpt lat="43.64882" lon="5.43796">
        <ele>411.4</ele>
        <time>2022-10-26T12:30:51.000Z</time>
      </trkpt>
      <trkpt lat="43.6488" lon="5.43794">
        <ele>411.8</ele>
        <time>2022-10-26T12:30:53.000Z</time>
      </trkpt>
      <trkpt lat="43.64879" lon="5.43796">
        <ele>411.7</ele>
        <time>2022-10-26T12:30:56.000Z</time>
      </trkpt>
      <trkpt lat="43.64877" lon="5.43797">
        <ele>411.7</ele>
        <time>2022-10-26T12:30:59.000Z</time>
      </trkpt>
      <trkpt lat="43.64874" lon="5.43797">
        <ele>411.8</ele>
        <time>2022-10-26T12:31:02.000Z</time>
      </trkpt>
      <trkpt lat="43.64872" lon="5.43798">
        <ele>411.8</ele>
        <time>2022-10-26T12:31:04.000Z</time>
      </trkpt>
      <trkpt lat="43.64871" lon="5.43798">
        <ele>411.8</ele>
        <time>2022-10-26T12:31:06.000Z</time>
      </trkpt>
      <trkpt lat="43.64869" lon="5.43799">
        <ele>411.8</ele>
        <time>2022-10-26T12:31:08.000Z</time>
      </trkpt>
      <trkpt lat="43.64866" lon="5.43799">
        <ele>411.9</ele>
        <time>2022-10-26T12:31:10.000Z</time>
      </trkpt>
      <trkpt lat="43.64864" lon="5.43799">
        <ele>412</ele>
        <time>2022-10-26T12:31:12.000Z</time>
      </trkpt>
      <trkpt lat="43.64862" lon="5.438">
        <ele>411.9</ele>
        <time>2022-10-26T12:31:14.000Z</time>
      </trkpt>
      <trkpt lat="43.64859" lon="5.438">
        <ele>412.1</ele>
        <time>2022-10-26T12:31:17.000Z</time>
      </trkpt>
      <trkpt lat="43.64856" lon="5.438">
        <ele>412.2</ele>
        <time>2022-10-26T12:31:20.000Z</time>
      </trkpt>
      <trkpt lat="43.64854" lon="5.43801">
        <ele>412.1</ele>
        <time>2022-10-26T12:31:22.000Z</time>
      </trkpt>
      <trkpt lat="43.64851" lon="5.43801">
        <ele>412.1</ele>
        <time>2022-10-26T12:31:25.000Z</time>
      </trkpt>
      <trkpt lat="43.64849" lon="5.43802">
        <ele>412.1</ele>
        <time>2022-10-26T12:31:27.000Z</time>
      </trkpt>
      <trkpt lat="43.64846" lon="5.43803">
        <ele>412</ele>
        <time>2022-10-26T12:31:29.000Z</time>
      </trkpt>
      <trkpt lat="43.64844" lon="5.43804">
        <ele>411.9</ele>
        <time>2022-10-26T12:31:31.000Z</time>
      </trkpt>
      <trkpt lat="43.64842" lon="5.43804">
        <ele>411.9</ele>
        <time>2022-10-26T12:31:34.000Z</time>
      </trkpt>
      <trkpt lat="43.64839" lon="5.43805">
        <ele>411.9</ele>
        <time>2022-10-26T12:31:37.000Z</time>
      </trkpt>
      <trkpt lat="43.64837" lon="5.43806">
        <ele>411.8</ele>
        <time>2022-10-26T12:31:39.000Z</time>
      </trkpt>
      <trkpt lat="43.64835" lon="5.43807">
        <ele>411.5</ele>
        <time>2022-10-26T12:31:41.000Z</time>
      </trkpt>
      <trkpt lat="43.64833" lon="5.43808">
        <ele>411.4</ele>
        <time>2022-10-26T12:31:43.000Z</time>
      </trkpt>
      <trkpt lat="43.64831" lon="5.43809">
        <ele>411.4</ele>
        <time>2022-10-26T12:31:45.000Z</time>
      </trkpt>
      <trkpt lat="43.64828" lon="5.4381">
        <ele>411.2</ele>
        <time>2022-10-26T12:31:47.000Z</time>
      </trkpt>
      <trkpt lat="43.64826" lon="5.4381">
        <ele>411.2</ele>
        <time>2022-10-26T12:31:49.000Z</time>
      </trkpt>
      <trkpt lat="43.64824" lon="5.4381">
        <ele>411.4</ele>
        <time>2022-10-26T12:31:51.000Z</time>
      </trkpt>
      <trkpt lat="43.64821" lon="5.4381">
        <ele>411.5</ele>
        <time>2022-10-26T12:31:53.000Z</time>
      </trkpt>
      <trkpt lat="43.64818" lon="5.43812">
        <ele>411.4</ele>
        <time>2022-10-26T12:31:55.000Z</time>
      </trkpt>
      <trkpt lat="43.64815" lon="5.43812">
        <ele>411.5</ele>
        <time>2022-10-26T12:31:57.000Z</time>
      </trkpt>
      <trkpt lat="43.64813" lon="5.43813">
        <ele>411.3</ele>
        <time>2022-10-26T12:31:59.000Z</time>
      </trkpt>
      <trkpt lat="43.64811" lon="5.43814">
        <ele>411.1</ele>
        <time>2022-10-26T12:32:02.000Z</time>
      </trkpt>
      <trkpt lat="43.64809" lon="5.43815">
        <ele>411</ele>
        <time>2022-10-26T12:32:04.000Z</time>
      </trkpt>
      <trkpt lat="43.64807" lon="5.43816">
        <ele>410.9</ele>
        <time>2022-10-26T12:32:06.000Z</time>
      </trkpt>
      <trkpt lat="43.64804" lon="5.43817">
        <ele>410.9</ele>
        <time>2022-10-26T12:32:09.000Z</time>
      </trkpt>
      <trkpt lat="43.64802" lon="5.43818">
        <ele>410.7</ele>
        <time>2022-10-26T12:32:11.000Z</time>
      </trkpt>
      <trkpt lat="43.648" lon="5.43819">
        <ele>410.7</ele>
        <time>2022-10-26T12:32:13.000Z</time>
      </trkpt>
      <trkpt lat="43.64798" lon="5.43819">
        <ele>410.7</ele>
        <time>2022-10-26T12:32:15.000Z</time>
      </trkpt>
      <trkpt lat="43.64796" lon="5.4382">
        <ele>410.8</ele>
        <time>2022-10-26T12:32:17.000Z</time>
      </trkpt>
      <trkpt lat="43.64794" lon="5.4382">
        <ele>410.9</ele>
        <time>2022-10-26T12:32:19.000Z</time>
      </trkpt>
      <trkpt lat="43.64791" lon="5.43821">
        <ele>410.9</ele>
        <time>2022-10-26T12:32:21.000Z</time>
      </trkpt>
      <trkpt lat="43.64789" lon="5.43822">
        <ele>410.9</ele>
        <time>2022-10-26T12:32:23.000Z</time>
      </trkpt>
      <trkpt lat="43.64787" lon="5.43822">
        <ele>411.1</ele>
        <time>2022-10-26T12:32:25.000Z</time>
      </trkpt>
      <trkpt lat="43.64784" lon="5.43821">
        <ele>411.4</ele>
        <time>2022-10-26T12:32:27.000Z</time>
      </trkpt>
      <trkpt lat="43.64782" lon="5.43821">
        <ele>411.7</ele>
        <time>2022-10-26T12:32:29.000Z</time>
      </trkpt>
      <trkpt lat="43.64779" lon="5.43821">
        <ele>412</ele>
        <time>2022-10-26T12:32:32.000Z</time>
      </trkpt>
      <trkpt lat="43.64777" lon="5.43821">
        <ele>412.2</ele>
        <time>2022-10-26T12:32:34.000Z</time>
      </trkpt>
      <trkpt lat="43.64775" lon="5.43821">
        <ele>412.2</ele>
        <time>2022-10-26T12:32:36.000Z</time>
      </trkpt>
      <trkpt lat="43.64772" lon="5.43822">
        <ele>412.2</ele>
        <time>2022-10-26T12:32:39.000Z</time>
      </trkpt>
      <trkpt lat="43.6477" lon="5.43821">
        <ele>412.4</ele>
        <time>2022-10-26T12:32:42.000Z</time>
      </trkpt>
      <trkpt lat="43.64768" lon="5.43821">
        <ele>412.5</ele>
        <time>2022-10-26T12:32:44.000Z</time>
      </trkpt>
      <trkpt lat="43.64765" lon="5.43822">
        <ele>412.6</ele>
        <time>2022-10-26T12:32:46.000Z</time>
      </trkpt>
      <trkpt lat="43.64763" lon="5.43822">
        <ele>412.6</ele>
        <time>2022-10-26T12:32:48.000Z</time>
      </trkpt>
      <trkpt lat="43.64761" lon="5.43822">
        <ele>412.7</ele>
        <time>2022-10-26T12:32:50.000Z</time>
      </trkpt>
      <trkpt lat="43.64759" lon="5.43822">
        <ele>412.8</ele>
        <time>2022-10-26T12:32:53.000Z</time>
      </trkpt>
      <trkpt lat="43.64756" lon="5.43822">
        <ele>413</ele>
        <time>2022-10-26T12:32:56.000Z</time>
      </trkpt>
      <trkpt lat="43.64754" lon="5.43821">
        <ele>413.2</ele>
        <time>2022-10-26T12:32:58.000Z</time>
      </trkpt>
      <trkpt lat="43.64752" lon="5.43821">
        <ele>413.4</ele>
        <time>2022-10-26T12:33:00.000Z</time>
      </trkpt>
      <trkpt lat="43.6475" lon="5.43821">
        <ele>413.6</ele>
        <time>2022-10-26T12:33:02.000Z</time>
      </trkpt>
      <trkpt lat="43.64748" lon="5.4382">
        <ele>413.7</ele>
        <time>2022-10-26T12:33:04.000Z</time>
      </trkpt>
      <trkpt lat="43.64746" lon="5.43819">
        <ele>413.8</ele>
        <time>2022-10-26T12:33:06.000Z</time>
      </trkpt>
      <trkpt lat="43.64744" lon="5.43818">
        <ele>413.9</ele>
        <time>2022-10-26T12:33:08.000Z</time>
      </trkpt>
      <trkpt lat="43.64742" lon="5.43817">
        <ele>414.1</ele>
        <time>2022-10-26T12:33:10.000Z</time>
      </trkpt>
      <trkpt lat="43.64739" lon="5.43816">
        <ele>414.2</ele>
        <time>2022-10-26T12:33:13.000Z</time>
      </trkpt>
      <trkpt lat="43.64737" lon="5.43815">
        <ele>414.3</ele>
        <time>2022-10-26T12:33:16.000Z</time>
      </trkpt>
      <trkpt lat="43.64735" lon="5.43814">
        <ele>414.5</ele>
        <time>2022-10-26T12:33:19.000Z</time>
      </trkpt>
      <trkpt lat="43.64733" lon="5.43813">
        <ele>414.6</ele>
        <time>2022-10-26T12:33:22.000Z</time>
      </trkpt>
      <trkpt lat="43.64731" lon="5.43812">
        <ele>414.8</ele>
        <time>2022-10-26T12:33:25.000Z</time>
      </trkpt>
      <trkpt lat="43.64729" lon="5.4381">
        <ele>415.2</ele>
        <time>2022-10-26T12:33:28.000Z</time>
      </trkpt>
      <trkpt lat="43.64728" lon="5.43808">
        <ele>415.7</ele>
        <time>2022-10-26T12:33:34.000Z</time>
      </trkpt>
      <trkpt lat="43.64729" lon="5.43805">
        <ele>416.5</ele>
        <time>2022-10-26T12:33:43.000Z</time>
      </trkpt>
      <trkpt lat="43.64731" lon="5.43805">
        <ele>416.8</ele>
        <time>2022-10-26T12:33:45.000Z</time>
      </trkpt>
      <trkpt lat="43.64733" lon="5.43803">
        <ele>417.2</ele>
        <time>2022-10-26T12:33:49.000Z</time>
      </trkpt>
      <trkpt lat="43.64735" lon="5.43802">
        <ele>417.6</ele>
        <time>2022-10-26T12:33:52.000Z</time>
      </trkpt>
      <trkpt lat="43.64735" lon="5.43799">
        <ele>418.3</ele>
        <time>2022-10-26T12:33:56.000Z</time>
      </trkpt>
      <trkpt lat="43.64734" lon="5.43797">
        <ele>418.8</ele>
        <time>2022-10-26T12:33:59.000Z</time>
      </trkpt>
      <trkpt lat="43.64734" lon="5.43794">
        <ele>419.2</ele>
        <time>2022-10-26T12:34:02.000Z</time>
      </trkpt>
      <trkpt lat="43.64733" lon="5.43792">
        <ele>419.6</ele>
        <time>2022-10-26T12:34:05.000Z</time>
      </trkpt>
      <trkpt lat="43.64732" lon="5.4379">
        <ele>419.9</ele>
        <time>2022-10-26T12:34:08.000Z</time>
      </trkpt>
      <trkpt lat="43.64731" lon="5.43787">
        <ele>420.4</ele>
        <time>2022-10-26T12:34:22.000Z</time>
      </trkpt>
      <trkpt lat="43.64733" lon="5.43785">
        <ele>421.1</ele>
        <time>2022-10-26T12:34:26.000Z</time>
      </trkpt>
      <trkpt lat="43.64733" lon="5.43782">
        <ele>421.6</ele>
        <time>2022-10-26T12:34:29.000Z</time>
      </trkpt>
      <trkpt lat="43.64734" lon="5.4378">
        <ele>422.2</ele>
        <time>2022-10-26T12:34:33.000Z</time>
      </trkpt>
      <trkpt lat="43.64736" lon="5.43779">
        <ele>422.8</ele>
        <time>2022-10-26T12:34:37.000Z</time>
      </trkpt>
      <trkpt lat="43.64737" lon="5.43777">
        <ele>423.4</ele>
        <time>2022-10-26T12:34:43.000Z</time>
      </trkpt>
      <trkpt lat="43.64739" lon="5.43774">
        <ele>424.1</ele>
        <time>2022-10-26T12:34:53.000Z</time>
      </trkpt>
      <trkpt lat="43.64741" lon="5.43774">
        <ele>424.6</ele>
        <time>2022-10-26T12:34:58.000Z</time>
      </trkpt>
      <trkpt lat="43.64742" lon="5.43772">
        <ele>425.2</ele>
        <time>2022-10-26T12:35:03.000Z</time>
      </trkpt>
      <trkpt lat="43.64742" lon="5.43769">
        <ele>425.8</ele>
        <time>2022-10-26T12:35:14.000Z</time>
      </trkpt>
      <trkpt lat="43.64744" lon="5.43767">
        <ele>426.5</ele>
        <time>2022-10-26T12:35:19.000Z</time>
      </trkpt>
      <trkpt lat="43.64745" lon="5.43765">
        <ele>427.2</ele>
        <time>2022-10-26T12:35:23.000Z</time>
      </trkpt>
      <trkpt lat="43.64747" lon="5.43764">
        <ele>427.6</ele>
        <time>2022-10-26T12:35:29.000Z</time>
      </trkpt>
      <trkpt lat="43.64748" lon="5.43762">
        <ele>428.2</ele>
        <time>2022-10-26T12:35:34.000Z</time>
      </trkpt>
      <trkpt lat="43.64748" lon="5.43759">
        <ele>428.8</ele>
        <time>2022-10-26T12:35:42.000Z</time>
      </trkpt>
      <trkpt lat="43.64747" lon="5.43756">
        <ele>429.4</ele>
        <time>2022-10-26T12:35:46.000Z</time>
      </trkpt>
      <trkpt lat="43.64748" lon="5.43753">
        <ele>430.1</ele>
        <time>2022-10-26T12:35:50.000Z</time>
      </trkpt>
      <trkpt lat="43.64748" lon="5.4375">
        <ele>430.8</ele>
        <time>2022-10-26T12:35:54.000Z</time>
      </trkpt>
      <trkpt lat="43.64748" lon="5.43747">
        <ele>431.5</ele>
        <time>2022-10-26T12:35:58.000Z</time>
      </trkpt>
      <trkpt lat="43.64748" lon="5.43744">
        <ele>432.2</ele>
        <time>2022-10-26T12:36:02.000Z</time>
      </trkpt>
      <trkpt lat="43.64747" lon="5.43742">
        <ele>432.6</ele>
        <time>2022-10-26T12:36:09.000Z</time>
      </trkpt>
      <trkpt lat="43.64746" lon="5.43739">
        <ele>433.3</ele>
        <time>2022-10-26T12:36:22.000Z</time>
      </trkpt>
      <trkpt lat="43.64748" lon="5.43738">
        <ele>433.8</ele>
        <time>2022-10-26T12:36:26.000Z</time>
      </trkpt>
      <trkpt lat="43.6475" lon="5.43737">
        <ele>434.4</ele>
        <time>2022-10-26T12:36:29.000Z</time>
      </trkpt>
      <trkpt lat="43.64752" lon="5.43736">
        <ele>434.6</ele>
        <time>2022-10-26T12:36:32.000Z</time>
      </trkpt>
      <trkpt lat="43.64753" lon="5.43736">
        <ele>434.5</ele>
        <time>2022-10-26T12:36:35.000Z</time>
      </trkpt>
      <trkpt lat="43.64755" lon="5.43736">
        <ele>434.5</ele>
        <time>2022-10-26T12:36:46.000Z</time>
      </trkpt>
      <trkpt lat="43.64757" lon="5.43734">
        <ele>435.1</ele>
        <time>2022-10-26T12:37:08.000Z</time>
      </trkpt>
      <trkpt lat="43.64757" lon="5.43731">
        <ele>435.9</ele>
        <time>2022-10-26T12:37:19.000Z</time>
      </trkpt>
      <trkpt lat="43.64757" lon="5.43728">
        <ele>436.5</ele>
        <time>2022-10-26T12:37:24.000Z</time>
      </trkpt>
      <trkpt lat="43.64758" lon="5.43725">
        <ele>437.3</ele>
        <time>2022-10-26T12:37:48.000Z</time>
      </trkpt>
      <trkpt lat="43.64757" lon="5.43722">
        <ele>438</ele>
        <time>2022-10-26T12:37:51.000Z</time>
      </trkpt>
      <trkpt lat="43.64759" lon="5.4372">
        <ele>438.4</ele>
        <time>2022-10-26T12:37:54.000Z</time>
      </trkpt>
      <trkpt lat="43.6476" lon="5.43718">
        <ele>438.9</ele>
        <time>2022-10-26T12:37:57.000Z</time>
      </trkpt>
      <trkpt lat="43.64761" lon="5.43716">
        <ele>439.4</ele>
        <time>2022-10-26T12:38:00.000Z</time>
      </trkpt>
      <trkpt lat="43.64762" lon="5.43714">
        <ele>439.8</ele>
        <time>2022-10-26T12:38:03.000Z</time>
      </trkpt>
      <trkpt lat="43.64764" lon="5.43712">
        <ele>440.2</ele>
        <time>2022-10-26T12:38:06.000Z</time>
      </trkpt>
      <trkpt lat="43.64766" lon="5.4371">
        <ele>440.6</ele>
        <time>2022-10-26T12:38:09.000Z</time>
      </trkpt>
      <trkpt lat="43.64767" lon="5.43709">
        <ele>440.9</ele>
        <time>2022-10-26T12:38:11.000Z</time>
      </trkpt>
      <trkpt lat="43.6477" lon="5.43708">
        <ele>441.1</ele>
        <time>2022-10-26T12:38:14.000Z</time>
      </trkpt>
      <trkpt lat="43.64772" lon="5.43707">
        <ele>441.2</ele>
        <time>2022-10-26T12:38:17.000Z</time>
      </trkpt>
      <trkpt lat="43.64774" lon="5.43707">
        <ele>441.2</ele>
        <time>2022-10-26T12:38:20.000Z</time>
      </trkpt>
      <trkpt lat="43.64777" lon="5.43708">
        <ele>441.2</ele>
        <time>2022-10-26T12:38:23.000Z</time>
      </trkpt>
      <trkpt lat="43.6478" lon="5.43707">
        <ele>441.4</ele>
        <time>2022-10-26T12:38:26.000Z</time>
      </trkpt>
      <trkpt lat="43.64782" lon="5.43705">
        <ele>441.8</ele>
        <time>2022-10-26T12:38:28.000Z</time>
      </trkpt>
      <trkpt lat="43.64784" lon="5.43703">
        <ele>442.2</ele>
        <time>2022-10-26T12:38:30.000Z</time>
      </trkpt>
      <trkpt lat="43.64785" lon="5.43701">
        <ele>442.7</ele>
        <time>2022-10-26T12:38:33.000Z</time>
      </trkpt>
      <trkpt lat="43.64785" lon="5.43698">
        <ele>443.4</ele>
        <time>2022-10-26T12:38:37.000Z</time>
      </trkpt>
      <trkpt lat="43.64784" lon="5.43696">
        <ele>443.9</ele>
        <time>2022-10-26T12:38:41.000Z</time>
      </trkpt>
      <trkpt lat="43.64783" lon="5.43694">
        <ele>444.4</ele>
        <time>2022-10-26T12:38:46.000Z</time>
      </trkpt>
      <trkpt lat="43.64782" lon="5.43691">
        <ele>444.9</ele>
        <time>2022-10-26T12:38:51.000Z</time>
      </trkpt>
      <trkpt lat="43.6478" lon="5.4369">
        <ele>445.2</ele>
        <time>2022-10-26T12:38:55.000Z</time>
      </trkpt>
      <trkpt lat="43.64778" lon="5.43689">
        <ele>445.4</ele>
        <time>2022-10-26T12:38:58.000Z</time>
      </trkpt>
      <trkpt lat="43.64776" lon="5.43689">
        <ele>445.4</ele>
        <time>2022-10-26T12:39:01.000Z</time>
      </trkpt>
      <trkpt lat="43.64774" lon="5.43689">
        <ele>445.5</ele>
        <time>2022-10-26T12:39:05.000Z</time>
      </trkpt>
      <trkpt lat="43.64772" lon="5.43688">
        <ele>445.8</ele>
        <time>2022-10-26T12:39:08.000Z</time>
      </trkpt>
      <trkpt lat="43.6477" lon="5.43686">
        <ele>446.3</ele>
        <time>2022-10-26T12:39:11.000Z</time>
      </trkpt>
      <trkpt lat="43.6477" lon="5.43683">
        <ele>447.1</ele>
        <time>2022-10-26T12:39:15.000Z</time>
      </trkpt>
      <trkpt lat="43.64771" lon="5.4368">
        <ele>447.9</ele>
        <time>2022-10-26T12:39:19.000Z</time>
      </trkpt>
      <trkpt lat="43.64772" lon="5.43678">
        <ele>448.5</ele>
        <time>2022-10-26T12:39:23.000Z</time>
      </trkpt>
      <trkpt lat="43.64773" lon="5.43675">
        <ele>449.1</ele>
        <time>2022-10-26T12:39:27.000Z</time>
      </trkpt>
      <trkpt lat="43.64775" lon="5.43673">
        <ele>449.6</ele>
        <time>2022-10-26T12:39:30.000Z</time>
      </trkpt>
      <trkpt lat="43.64777" lon="5.43671">
        <ele>449.9</ele>
        <time>2022-10-26T12:39:33.000Z</time>
      </trkpt>
      <trkpt lat="43.64778" lon="5.43669">
        <ele>450.5</ele>
        <time>2022-10-26T12:39:36.000Z</time>
      </trkpt>
      <trkpt lat="43.6478" lon="5.43666">
        <ele>451</ele>
        <time>2022-10-26T12:39:39.000Z</time>
      </trkpt>
      <trkpt lat="43.64781" lon="5.43664">
        <ele>451.2</ele>
        <time>2022-10-26T12:39:42.000Z</time>
      </trkpt>
      <trkpt lat="43.64781" lon="5.43661">
        <ele>451.4</ele>
        <time>2022-10-26T12:39:45.000Z</time>
      </trkpt>
      <trkpt lat="43.6478" lon="5.43658">
        <ele>451.6</ele>
        <time>2022-10-26T12:39:48.000Z</time>
      </trkpt>
      <trkpt lat="43.64778" lon="5.43657">
        <ele>451.7</ele>
        <time>2022-10-26T12:39:51.000Z</time>
      </trkpt>
      <trkpt lat="43.64776" lon="5.43657">
        <ele>451.8</ele>
        <time>2022-10-26T12:39:53.000Z</time>
      </trkpt>
      <trkpt lat="43.64774" lon="5.43657">
        <ele>451.9</ele>
        <time>2022-10-26T12:39:55.000Z</time>
      </trkpt>
      <trkpt lat="43.64772" lon="5.43659">
        <ele>451.9</ele>
        <time>2022-10-26T12:39:58.000Z</time>
      </trkpt>
      <trkpt lat="43.64769" lon="5.4366">
        <ele>451.9</ele>
        <time>2022-10-26T12:40:01.000Z</time>
      </trkpt>
      <trkpt lat="43.64767" lon="5.43662">
        <ele>452</ele>
        <time>2022-10-26T12:40:04.000Z</time>
      </trkpt>
      <trkpt lat="43.64765" lon="5.43664">
        <ele>452</ele>
        <time>2022-10-26T12:40:07.000Z</time>
      </trkpt>
      <trkpt lat="43.64764" lon="5.43666">
        <ele>452.1</ele>
        <time>2022-10-26T12:40:09.000Z</time>
      </trkpt>
      <trkpt lat="43.64762" lon="5.43667">
        <ele>452</ele>
        <time>2022-10-26T12:40:12.000Z</time>
      </trkpt>
      <trkpt lat="43.6476" lon="5.43666">
        <ele>452.3</ele>
        <time>2022-10-26T12:40:16.000Z</time>
      </trkpt>
      <trkpt lat="43.64758" lon="5.43665">
        <ele>452.5</ele>
        <time>2022-10-26T12:40:19.000Z</time>
      </trkpt>
      <trkpt lat="43.64756" lon="5.43664">
        <ele>452.6</ele>
        <time>2022-10-26T12:40:23.000Z</time>
      </trkpt>
      <trkpt lat="43.64754" lon="5.43666">
        <ele>452.7</ele>
        <time>2022-10-26T12:40:30.000Z</time>
      </trkpt>
      <trkpt lat="43.64752" lon="5.43667">
        <ele>452.8</ele>
        <time>2022-10-26T12:40:34.000Z</time>
      </trkpt>
      <trkpt lat="43.64752" lon="5.43669">
        <ele>452.2</ele>
        <time>2022-10-26T12:40:46.000Z</time>
      </trkpt>
      <trkpt lat="43.64753" lon="5.43671">
        <ele>451.4</ele>
        <time>2022-10-26T12:40:48.000Z</time>
      </trkpt>
      <trkpt lat="43.64753" lon="5.43674">
        <ele>450.4</ele>
        <time>2022-10-26T12:40:51.000Z</time>
      </trkpt>
      <trkpt lat="43.64754" lon="5.43677">
        <ele>449.5</ele>
        <time>2022-10-26T12:40:54.000Z</time>
      </trkpt>
      <trkpt lat="43.64753" lon="5.43679">
        <ele>448.9</ele>
        <time>2022-10-26T12:41:15.000Z</time>
      </trkpt>
      <trkpt lat="43.64751" lon="5.43679">
        <ele>449</ele>
        <time>2022-10-26T12:42:43.000Z</time>
      </trkpt>
      <trkpt lat="43.64749" lon="5.43679">
        <ele>448.7</ele>
        <time>2022-10-26T12:42:46.000Z</time>
      </trkpt>
      <trkpt lat="43.64746" lon="5.43679">
        <ele>447.9</ele>
        <time>2022-10-26T12:42:57.000Z</time>
      </trkpt>
      <trkpt lat="43.64744" lon="5.43678">
        <ele>447.4</ele>
        <time>2022-10-26T12:42:59.000Z</time>
      </trkpt>
      <trkpt lat="43.64742" lon="5.43677">
        <ele>446.9</ele>
        <time>2022-10-26T12:43:02.000Z</time>
      </trkpt>
      <trkpt lat="43.6474" lon="5.43677">
        <ele>446.2</ele>
        <time>2022-10-26T12:43:05.000Z</time>
      </trkpt>
      <trkpt lat="43.64738" lon="5.43677">
        <ele>445.5</ele>
        <time>2022-10-26T12:43:09.000Z</time>
      </trkpt>
      <trkpt lat="43.64736" lon="5.43676">
        <ele>445</ele>
        <time>2022-10-26T12:43:13.000Z</time>
      </trkpt>
      <trkpt lat="43.64734" lon="5.43676">
        <ele>444.4</ele>
        <time>2022-10-26T12:43:18.000Z</time>
      </trkpt>
      <trkpt lat="43.64733" lon="5.43673">
        <ele>444.7</ele>
        <time>2022-10-26T12:44:05.000Z</time>
      </trkpt>
      <trkpt lat="43.64732" lon="5.43672">
        <ele>444.3</ele>
        <time>2022-10-26T12:45:05.000Z</time>
      </trkpt>
      <trkpt lat="43.6473" lon="5.43674">
        <ele>443.4</ele>
        <time>2022-10-26T12:45:08.000Z</time>
      </trkpt>
      <trkpt lat="43.64731" lon="5.43672">
        <ele>443.9</ele>
        <time>2022-10-26T12:46:28.000Z</time>
      </trkpt>
      <trkpt lat="43.6473" lon="5.43669">
        <ele>444</ele>
        <time>2022-10-26T12:46:31.000Z</time>
      </trkpt>
      <trkpt lat="43.6473" lon="5.43666">
        <ele>444.5</ele>
        <time>2022-10-26T12:46:35.000Z</time>
      </trkpt>
      <trkpt lat="43.64731" lon="5.43663">
        <ele>444.6</ele>
        <time>2022-10-26T12:46:38.000Z</time>
      </trkpt>
      <trkpt lat="43.64732" lon="5.4366">
        <ele>444.8</ele>
        <time>2022-10-26T12:46:41.000Z</time>
      </trkpt>
      <trkpt lat="43.64733" lon="5.43657">
        <ele>445.1</ele>
        <time>2022-10-26T12:46:44.000Z</time>
      </trkpt>
      <trkpt lat="43.64734" lon="5.43655">
        <ele>445.4</ele>
        <time>2022-10-26T12:46:46.000Z</time>
      </trkpt>
      <trkpt lat="43.64736" lon="5.43652">
        <ele>446</ele>
        <time>2022-10-26T12:46:48.000Z</time>
      </trkpt>
      <trkpt lat="43.64738" lon="5.4365">
        <ele>447</ele>
        <time>2022-10-26T12:46:50.000Z</time>
      </trkpt>
      <trkpt lat="43.64739" lon="5.43648">
        <ele>447.5</ele>
        <time>2022-10-26T12:46:54.000Z</time>
      </trkpt>
      <trkpt lat="43.64741" lon="5.43646">
        <ele>448.3</ele>
        <time>2022-10-26T12:46:58.000Z</time>
      </trkpt>
      <trkpt lat="43.64742" lon="5.43643">
        <ele>448.9</ele>
        <time>2022-10-26T12:47:01.000Z</time>
      </trkpt>
      <trkpt lat="43.64744" lon="5.43642">
        <ele>449.8</ele>
        <time>2022-10-26T12:47:04.000Z</time>
      </trkpt>
      <trkpt lat="43.64745" lon="5.4364">
        <ele>450.5</ele>
        <time>2022-10-26T12:47:07.000Z</time>
      </trkpt>
      <trkpt lat="43.64747" lon="5.43638">
        <ele>450.6</ele>
        <time>2022-10-26T12:47:11.000Z</time>
      </trkpt>
      <trkpt lat="43.64749" lon="5.43636">
        <ele>451.1</ele>
        <time>2022-10-26T12:47:14.000Z</time>
      </trkpt>
      <trkpt lat="43.64751" lon="5.43635">
        <ele>451.1</ele>
        <time>2022-10-26T12:47:17.000Z</time>
      </trkpt>
      <trkpt lat="43.64753" lon="5.43634">
        <ele>450.7</ele>
        <time>2022-10-26T12:47:20.000Z</time>
      </trkpt>
      <trkpt lat="43.64755" lon="5.43631">
        <ele>449.6</ele>
        <time>2022-10-26T12:47:23.000Z</time>
      </trkpt>
      <trkpt lat="43.64757" lon="5.43629">
        <ele>448.8</ele>
        <time>2022-10-26T12:47:25.000Z</time>
      </trkpt>
      <trkpt lat="43.6476" lon="5.43628">
        <ele>449</ele>
        <time>2022-10-26T12:47:27.000Z</time>
      </trkpt>
      <trkpt lat="43.64762" lon="5.43627">
        <ele>449</ele>
        <time>2022-10-26T12:47:31.000Z</time>
      </trkpt>
      <trkpt lat="43.64764" lon="5.43627">
        <ele>449.1</ele>
        <time>2022-10-26T12:47:34.000Z</time>
      </trkpt>
      <trkpt lat="43.64766" lon="5.43626">
        <ele>449.1</ele>
        <time>2022-10-26T12:47:37.000Z</time>
      </trkpt>
      <trkpt lat="43.64768" lon="5.43625">
        <ele>449.3</ele>
        <time>2022-10-26T12:47:40.000Z</time>
      </trkpt>
      <trkpt lat="43.6477" lon="5.43624">
        <ele>449.4</ele>
        <time>2022-10-26T12:47:43.000Z</time>
      </trkpt>
      <trkpt lat="43.64772" lon="5.43622">
        <ele>449.3</ele>
        <time>2022-10-26T12:47:46.000Z</time>
      </trkpt>
      <trkpt lat="43.64774" lon="5.43621">
        <ele>449.5</ele>
        <time>2022-10-26T12:47:49.000Z</time>
      </trkpt>
      <trkpt lat="43.64776" lon="5.43619">
        <ele>449.7</ele>
        <time>2022-10-26T12:47:52.000Z</time>
      </trkpt>
      <trkpt lat="43.64778" lon="5.43618">
        <ele>449.9</ele>
        <time>2022-10-26T12:47:54.000Z</time>
      </trkpt>
      <trkpt lat="43.64779" lon="5.43616">
        <ele>449.8</ele>
        <time>2022-10-26T12:47:56.000Z</time>
      </trkpt>
      <trkpt lat="43.64781" lon="5.43614">
        <ele>449.6</ele>
        <time>2022-10-26T12:47:58.000Z</time>
      </trkpt>
      <trkpt lat="43.64783" lon="5.43612">
        <ele>449.4</ele>
        <time>2022-10-26T12:48:01.000Z</time>
      </trkpt>
      <trkpt lat="43.64785" lon="5.4361">
        <ele>449</ele>
        <time>2022-10-26T12:48:04.000Z</time>
      </trkpt>
      <trkpt lat="43.64787" lon="5.43608">
        <ele>448.6</ele>
        <time>2022-10-26T12:48:07.000Z</time>
      </trkpt>
      <trkpt lat="43.64788" lon="5.43608">
        <ele>448.7</ele>
        <time>2022-10-26T12:48:10.000Z</time>
      </trkpt>
      <trkpt lat="43.64791" lon="5.43607">
        <ele>448.6</ele>
        <time>2022-10-26T12:48:13.000Z</time>
      </trkpt>
      <trkpt lat="43.64793" lon="5.43607">
        <ele>448.6</ele>
        <time>2022-10-26T12:48:17.000Z</time>
      </trkpt>
      <trkpt lat="43.64795" lon="5.43606">
        <ele>448.7</ele>
        <time>2022-10-26T12:48:19.000Z</time>
      </trkpt>
      <trkpt lat="43.64797" lon="5.43609">
        <ele>449.5</ele>
        <time>2022-10-26T12:48:41.000Z</time>
      </trkpt>
      <trkpt lat="43.64798" lon="5.4361">
        <ele>450.2</ele>
        <time>2022-10-26T12:48:43.000Z</time>
      </trkpt>
      <trkpt lat="43.64799" lon="5.43613">
        <ele>450.7</ele>
        <time>2022-10-26T12:48:46.000Z</time>
      </trkpt>
      <trkpt lat="43.648" lon="5.43615">
        <ele>450.9</ele>
        <time>2022-10-26T12:48:48.000Z</time>
      </trkpt>
      <trkpt lat="43.64801" lon="5.43617">
        <ele>451.2</ele>
        <time>2022-10-26T12:48:51.000Z</time>
      </trkpt>
      <trkpt lat="43.64801" lon="5.43621">
        <ele>451.5</ele>
        <time>2022-10-26T12:48:54.000Z</time>
      </trkpt>
      <trkpt lat="43.648" lon="5.43624">
        <ele>451.7</ele>
        <time>2022-10-26T12:48:56.000Z</time>
      </trkpt>
      <trkpt lat="43.648" lon="5.43627">
        <ele>451.9</ele>
        <time>2022-10-26T12:48:58.000Z</time>
      </trkpt>
      <trkpt lat="43.648" lon="5.43629">
        <ele>452.2</ele>
        <time>2022-10-26T12:49:00.000Z</time>
      </trkpt>
      <trkpt lat="43.648" lon="5.43632">
        <ele>452.4</ele>
        <time>2022-10-26T12:49:03.000Z</time>
      </trkpt>
      <trkpt lat="43.648" lon="5.43635">
        <ele>452.7</ele>
        <time>2022-10-26T12:49:06.000Z</time>
      </trkpt>
      <trkpt lat="43.64802" lon="5.43637">
        <ele>452.8</ele>
        <time>2022-10-26T12:49:10.000Z</time>
      </trkpt>
      <trkpt lat="43.64804" lon="5.43638">
        <ele>453</ele>
        <time>2022-10-26T12:49:13.000Z</time>
      </trkpt>
      <trkpt lat="43.64806" lon="5.43641">
        <ele>452.8</ele>
        <time>2022-10-26T12:49:16.000Z</time>
      </trkpt>
      <trkpt lat="43.64806" lon="5.43644">
        <ele>452.6</ele>
        <time>2022-10-26T12:49:19.000Z</time>
      </trkpt>
      <trkpt lat="43.64807" lon="5.43647">
        <ele>452.3</ele>
        <time>2022-10-26T12:49:21.000Z</time>
      </trkpt>
      <trkpt lat="43.64807" lon="5.4365">
        <ele>452.1</ele>
        <time>2022-10-26T12:49:24.000Z</time>
      </trkpt>
      <trkpt lat="43.64807" lon="5.43653">
        <ele>451.9</ele>
        <time>2022-10-26T12:49:27.000Z</time>
      </trkpt>
      <trkpt lat="43.64808" lon="5.43655">
        <ele>451.7</ele>
        <time>2022-10-26T12:49:38.000Z</time>
      </trkpt>
      <trkpt lat="43.64809" lon="5.43657">
        <ele>451.4</ele>
        <time>2022-10-26T12:49:41.000Z</time>
      </trkpt>
      <trkpt lat="43.64812" lon="5.43657">
        <ele>451.3</ele>
        <time>2022-10-26T12:49:44.000Z</time>
      </trkpt>
      <trkpt lat="43.64815" lon="5.43657">
        <ele>451.2</ele>
        <time>2022-10-26T12:49:47.000Z</time>
      </trkpt>
      <trkpt lat="43.64816" lon="5.43658">
        <ele>451</ele>
        <time>2022-10-26T12:49:49.000Z</time>
      </trkpt>
      <trkpt lat="43.64818" lon="5.4366">
        <ele>450.7</ele>
        <time>2022-10-26T12:49:52.000Z</time>
      </trkpt>
      <trkpt lat="43.6482" lon="5.43662">
        <ele>450.4</ele>
        <time>2022-10-26T12:49:55.000Z</time>
      </trkpt>
      <trkpt lat="43.64822" lon="5.43663">
        <ele>450.2</ele>
        <time>2022-10-26T12:49:57.000Z</time>
      </trkpt>
      <trkpt lat="43.64823" lon="5.43665">
        <ele>449.9</ele>
        <time>2022-10-26T12:50:00.000Z</time>
      </trkpt>
      <trkpt lat="43.64825" lon="5.43666">
        <ele>449.7</ele>
        <time>2022-10-26T12:50:03.000Z</time>
      </trkpt>
      <trkpt lat="43.64826" lon="5.43669">
        <ele>449.1</ele>
        <time>2022-10-26T12:50:06.000Z</time>
      </trkpt>
      <trkpt lat="43.64827" lon="5.43671">
        <ele>448.5</ele>
        <time>2022-10-26T12:50:09.000Z</time>
      </trkpt>
      <trkpt lat="43.64827" lon="5.43674">
        <ele>447.9</ele>
        <time>2022-10-26T12:50:12.000Z</time>
      </trkpt>
      <trkpt lat="43.64828" lon="5.43677">
        <ele>447.1</ele>
        <time>2022-10-26T12:50:15.000Z</time>
      </trkpt>
      <trkpt lat="43.64829" lon="5.43679">
        <ele>446.6</ele>
        <time>2022-10-26T12:50:18.000Z</time>
      </trkpt>
      <trkpt lat="43.64831" lon="5.43682">
        <ele>445.9</ele>
        <time>2022-10-26T12:50:21.000Z</time>
      </trkpt>
      <trkpt lat="43.64832" lon="5.43684">
        <ele>445.4</ele>
        <time>2022-10-26T12:50:30.000Z</time>
      </trkpt>
      <trkpt lat="43.6483" lon="5.43683">
        <ele>445.7</ele>
        <time>2022-10-26T12:51:47.000Z</time>
      </trkpt>
      <trkpt lat="43.64829" lon="5.4368">
        <ele>446.4</ele>
        <time>2022-10-26T12:52:02.000Z</time>
      </trkpt>
      <trkpt lat="43.64827" lon="5.43678">
        <ele>447.1</ele>
        <time>2022-10-26T12:52:05.000Z</time>
      </trkpt>
      <trkpt lat="43.64826" lon="5.43675">
        <ele>447.8</ele>
        <time>2022-10-26T12:52:08.000Z</time>
      </trkpt>
      <trkpt lat="43.64826" lon="5.43672">
        <ele>448.5</ele>
        <time>2022-10-26T12:52:10.000Z</time>
      </trkpt>
      <trkpt lat="43.64825" lon="5.43669">
        <ele>449.1</ele>
        <time>2022-10-26T12:52:13.000Z</time>
      </trkpt>
      <trkpt lat="43.64824" lon="5.43666">
        <ele>449.8</ele>
        <time>2022-10-26T12:52:16.000Z</time>
      </trkpt>
      <trkpt lat="43.64822" lon="5.43664">
        <ele>450</ele>
        <time>2022-10-26T12:52:19.000Z</time>
      </trkpt>
      <trkpt lat="43.6482" lon="5.43663">
        <ele>450.3</ele>
        <time>2022-10-26T12:52:22.000Z</time>
      </trkpt>
      <trkpt lat="43.64818" lon="5.43662">
        <ele>450.6</ele>
        <time>2022-10-26T12:52:25.000Z</time>
      </trkpt>
      <trkpt lat="43.64816" lon="5.4366">
        <ele>450.8</ele>
        <time>2022-10-26T12:52:28.000Z</time>
      </trkpt>
      <trkpt lat="43.64814" lon="5.43659">
        <ele>451</ele>
        <time>2022-10-26T12:52:31.000Z</time>
      </trkpt>
      <trkpt lat="43.64812" lon="5.43658">
        <ele>451.2</ele>
        <time>2022-10-26T12:52:35.000Z</time>
      </trkpt>
      <trkpt lat="43.6481" lon="5.43658">
        <ele>451.4</ele>
        <time>2022-10-26T12:52:38.000Z</time>
      </trkpt>
      <trkpt lat="43.64808" lon="5.43657">
        <ele>451.5</ele>
        <time>2022-10-26T12:52:43.000Z</time>
      </trkpt>
      <trkpt lat="43.64807" lon="5.43655">
        <ele>451.8</ele>
        <time>2022-10-26T12:54:11.000Z</time>
      </trkpt>
      <trkpt lat="43.64805" lon="5.43652">
        <ele>452.1</ele>
        <time>2022-10-26T12:55:52.000Z</time>
      </trkpt>
      <trkpt lat="43.64804" lon="5.43652">
        <ele>452</ele>
        <time>2022-10-26T12:55:55.000Z</time>
      </trkpt>
      <trkpt lat="43.64802" lon="5.43652">
        <ele>452</ele>
        <time>2022-10-26T12:55:58.000Z</time>
      </trkpt>
      <trkpt lat="43.64799" lon="5.43653">
        <ele>452</ele>
        <time>2022-10-26T12:56:02.000Z</time>
      </trkpt>
      <trkpt lat="43.64798" lon="5.43654">
        <ele>451.9</ele>
        <time>2022-10-26T12:56:10.000Z</time>
      </trkpt>
      <trkpt lat="43.648" lon="5.43657">
        <ele>451.7</ele>
        <time>2022-10-26T12:56:25.000Z</time>
      </trkpt>
      <trkpt lat="43.64798" lon="5.43655">
        <ele>451.9</ele>
        <time>2022-10-26T12:56:33.000Z</time>
      </trkpt>
      <trkpt lat="43.648" lon="5.43653">
        <ele>452</ele>
        <time>2022-10-26T12:56:34.000Z</time>
      </trkpt>
      <trkpt lat="43.64802" lon="5.43652">
        <ele>452</ele>
        <time>2022-10-26T12:56:36.000Z</time>
      </trkpt>
      <trkpt lat="43.64803" lon="5.43649">
        <ele>452.3</ele>
        <time>2022-10-26T12:56:39.000Z</time>
      </trkpt>
      <trkpt lat="43.64804" lon="5.43647">
        <ele>452.4</ele>
        <time>2022-10-26T12:56:41.000Z</time>
      </trkpt>
      <trkpt lat="43.64805" lon="5.43644">
        <ele>452.6</ele>
        <time>2022-10-26T12:56:43.000Z</time>
      </trkpt>
      <trkpt lat="43.64806" lon="5.43642">
        <ele>452.8</ele>
        <time>2022-10-26T12:56:45.000Z</time>
      </trkpt>
      <trkpt lat="43.64807" lon="5.4364">
        <ele>452.9</ele>
        <time>2022-10-26T12:56:47.000Z</time>
      </trkpt>
      <trkpt lat="43.64809" lon="5.43639">
        <ele>452.9</ele>
        <time>2022-10-26T12:56:49.000Z</time>
      </trkpt>
      <trkpt lat="43.64811" lon="5.43638">
        <ele>452.8</ele>
        <time>2022-10-26T12:56:51.000Z</time>
      </trkpt>
      <trkpt lat="43.64813" lon="5.43639">
        <ele>452.7</ele>
        <time>2022-10-26T12:56:53.000Z</time>
      </trkpt>
      <trkpt lat="43.64815" lon="5.43639">
        <ele>452.7</ele>
        <time>2022-10-26T12:56:56.000Z</time>
      </trkpt>
      <trkpt lat="43.64817" lon="5.43639">
        <ele>452.6</ele>
        <time>2022-10-26T12:57:00.000Z</time>
      </trkpt>
      <trkpt lat="43.64819" lon="5.43638">
        <ele>452.5</ele>
        <time>2022-10-26T12:57:03.000Z</time>
      </trkpt>
      <trkpt lat="43.64821" lon="5.43637">
        <ele>452.4</ele>
        <time>2022-10-26T12:57:06.000Z</time>
      </trkpt>
      <trkpt lat="43.64823" lon="5.43635">
        <ele>452.2</ele>
        <time>2022-10-26T12:57:10.000Z</time>
      </trkpt>
      <trkpt lat="43.64825" lon="5.43635">
        <ele>452.1</ele>
        <time>2022-10-26T12:57:13.000Z</time>
      </trkpt>
      <trkpt lat="43.64826" lon="5.43633">
        <ele>452</ele>
        <time>2022-10-26T12:57:16.000Z</time>
      </trkpt>
      <trkpt lat="43.64828" lon="5.43633">
        <ele>451.9</ele>
        <time>2022-10-26T12:57:19.000Z</time>
      </trkpt>
      <trkpt lat="43.6483" lon="5.43632">
        <ele>451.8</ele>
        <time>2022-10-26T12:57:22.000Z</time>
      </trkpt>
      <trkpt lat="43.64832" lon="5.43631">
        <ele>451.7</ele>
        <time>2022-10-26T12:57:26.000Z</time>
      </trkpt>
      <trkpt lat="43.64833" lon="5.43628">
        <ele>451.6</ele>
        <time>2022-10-26T12:57:29.000Z</time>
      </trkpt>
      <trkpt lat="43.64834" lon="5.43626">
        <ele>451.5</ele>
        <time>2022-10-26T12:57:32.000Z</time>
      </trkpt>
      <trkpt lat="43.64836" lon="5.43625">
        <ele>451.3</ele>
        <time>2022-10-26T12:57:35.000Z</time>
      </trkpt>
      <trkpt lat="43.64839" lon="5.43625">
        <ele>451.1</ele>
        <time>2022-10-26T12:57:39.000Z</time>
      </trkpt>
      <trkpt lat="43.64841" lon="5.43626">
        <ele>451</ele>
        <time>2022-10-26T12:57:41.000Z</time>
      </trkpt>
      <trkpt lat="43.64843" lon="5.43626">
        <ele>450.8</ele>
        <time>2022-10-26T12:57:43.000Z</time>
      </trkpt>
      <trkpt lat="43.64845" lon="5.43627">
        <ele>450.7</ele>
        <time>2022-10-26T12:57:46.000Z</time>
      </trkpt>
      <trkpt lat="43.64848" lon="5.43627">
        <ele>450.4</ele>
        <time>2022-10-26T12:57:49.000Z</time>
      </trkpt>
      <trkpt lat="43.6485" lon="5.43627">
        <ele>450.3</ele>
        <time>2022-10-26T12:57:52.000Z</time>
      </trkpt>
      <trkpt lat="43.64852" lon="5.43626">
        <ele>450.1</ele>
        <time>2022-10-26T12:57:55.000Z</time>
      </trkpt>
      <trkpt lat="43.64854" lon="5.43624">
        <ele>450.1</ele>
        <time>2022-10-26T12:57:58.000Z</time>
      </trkpt>
      <trkpt lat="43.64856" lon="5.43622">
        <ele>450</ele>
        <time>2022-10-26T12:58:01.000Z</time>
      </trkpt>
      <trkpt lat="43.64858" lon="5.43621">
        <ele>449.9</ele>
        <time>2022-10-26T12:58:04.000Z</time>
      </trkpt>
      <trkpt lat="43.64859" lon="5.43619">
        <ele>449.8</ele>
        <time>2022-10-26T12:58:07.000Z</time>
      </trkpt>
      <trkpt lat="43.64861" lon="5.43617">
        <ele>449.8</ele>
        <time>2022-10-26T12:58:10.000Z</time>
      </trkpt>
      <trkpt lat="43.64862" lon="5.43614">
        <ele>449.8</ele>
        <time>2022-10-26T12:58:13.000Z</time>
      </trkpt>
      <trkpt lat="43.64864" lon="5.43613">
        <ele>449.6</ele>
        <time>2022-10-26T12:58:16.000Z</time>
      </trkpt>
      <trkpt lat="43.64865" lon="5.4361">
        <ele>449.5</ele>
        <time>2022-10-26T12:58:19.000Z</time>
      </trkpt>
      <trkpt lat="43.64866" lon="5.43608">
        <ele>449.2</ele>
        <time>2022-10-26T12:58:22.000Z</time>
      </trkpt>
      <trkpt lat="43.64868" lon="5.43607">
        <ele>448.9</ele>
        <time>2022-10-26T12:58:25.000Z</time>
      </trkpt>
      <trkpt lat="43.6487" lon="5.43605">
        <ele>448.6</ele>
        <time>2022-10-26T12:58:28.000Z</time>
      </trkpt>
      <trkpt lat="43.64871" lon="5.43602">
        <ele>448.3</ele>
        <time>2022-10-26T12:58:31.000Z</time>
      </trkpt>
      <trkpt lat="43.64871" lon="5.43599">
        <ele>448.1</ele>
        <time>2022-10-26T12:58:34.000Z</time>
      </trkpt>
      <trkpt lat="43.64873" lon="5.43597">
        <ele>447.8</ele>
        <time>2022-10-26T12:58:37.000Z</time>
      </trkpt>
      <trkpt lat="43.64875" lon="5.43595">
        <ele>447.6</ele>
        <time>2022-10-26T12:58:40.000Z</time>
      </trkpt>
      <trkpt lat="43.64877" lon="5.43594">
        <ele>447.5</ele>
        <time>2022-10-26T12:58:43.000Z</time>
      </trkpt>
      <trkpt lat="43.6488" lon="5.43592">
        <ele>447.3</ele>
        <time>2022-10-26T12:58:46.000Z</time>
      </trkpt>
      <trkpt lat="43.64881" lon="5.43592">
        <ele>447.2</ele>
        <time>2022-10-26T12:58:48.000Z</time>
      </trkpt>
      <trkpt lat="43.64884" lon="5.4359">
        <ele>447.1</ele>
        <time>2022-10-26T12:58:51.000Z</time>
      </trkpt>
      <trkpt lat="43.64886" lon="5.43589">
        <ele>447.1</ele>
        <time>2022-10-26T12:58:54.000Z</time>
      </trkpt>
      <trkpt lat="43.64889" lon="5.43589">
        <ele>447</ele>
        <time>2022-10-26T12:58:57.000Z</time>
      </trkpt>
      <trkpt lat="43.64891" lon="5.43588">
        <ele>446.8</ele>
        <time>2022-10-26T12:59:00.000Z</time>
      </trkpt>
      <trkpt lat="43.64893" lon="5.43587">
        <ele>446.7</ele>
        <time>2022-10-26T12:59:02.000Z</time>
      </trkpt>
      <trkpt lat="43.64894" lon="5.43584">
        <ele>446.8</ele>
        <time>2022-10-26T12:59:05.000Z</time>
      </trkpt>
      <trkpt lat="43.64896" lon="5.43582">
        <ele>446.4</ele>
        <time>2022-10-26T12:59:08.000Z</time>
      </trkpt>
      <trkpt lat="43.64898" lon="5.43582">
        <ele>446.3</ele>
        <time>2022-10-26T12:59:11.000Z</time>
      </trkpt>
      <trkpt lat="43.649" lon="5.43583">
        <ele>446.5</ele>
        <time>2022-10-26T12:59:14.000Z</time>
      </trkpt>
      <trkpt lat="43.64902" lon="5.43583">
        <ele>446.5</ele>
        <time>2022-10-26T12:59:16.000Z</time>
      </trkpt>
      <trkpt lat="43.64905" lon="5.43583">
        <ele>446.4</ele>
        <time>2022-10-26T12:59:19.000Z</time>
      </trkpt>
      <trkpt lat="43.64907" lon="5.4358">
        <ele>445.9</ele>
        <time>2022-10-26T12:59:21.000Z</time>
      </trkpt>
      <trkpt lat="43.64909" lon="5.43579">
        <ele>445.7</ele>
        <time>2022-10-26T12:59:24.000Z</time>
      </trkpt>
      <trkpt lat="43.6491" lon="5.43577">
        <ele>445.5</ele>
        <time>2022-10-26T12:59:27.000Z</time>
      </trkpt>
      <trkpt lat="43.6491" lon="5.43573">
        <ele>445.1</ele>
        <time>2022-10-26T12:59:30.000Z</time>
      </trkpt>
      <trkpt lat="43.64912" lon="5.43573">
        <ele>445.1</ele>
        <time>2022-10-26T12:59:33.000Z</time>
      </trkpt>
      <trkpt lat="43.64914" lon="5.43571">
        <ele>445</ele>
        <time>2022-10-26T12:59:36.000Z</time>
      </trkpt>
      <trkpt lat="43.64915" lon="5.43569">
        <ele>444.8</ele>
        <time>2022-10-26T12:59:39.000Z</time>
      </trkpt>
      <trkpt lat="43.64916" lon="5.43566">
        <ele>444.7</ele>
        <time>2022-10-26T12:59:42.000Z</time>
      </trkpt>
      <trkpt lat="43.64917" lon="5.43564">
        <ele>444.5</ele>
        <time>2022-10-26T12:59:45.000Z</time>
      </trkpt>
      <trkpt lat="43.64919" lon="5.43563">
        <ele>444.1</ele>
        <time>2022-10-26T12:59:48.000Z</time>
      </trkpt>
      <trkpt lat="43.64921" lon="5.43561">
        <ele>443.7</ele>
        <time>2022-10-26T12:59:51.000Z</time>
      </trkpt>
      <trkpt lat="43.64923" lon="5.4356">
        <ele>443.5</ele>
        <time>2022-10-26T12:59:54.000Z</time>
      </trkpt>
      <trkpt lat="43.64924" lon="5.43558">
        <ele>443.4</ele>
        <time>2022-10-26T12:59:57.000Z</time>
      </trkpt>
      <trkpt lat="43.64926" lon="5.43556">
        <ele>443.3</ele>
        <time>2022-10-26T13:00:00.000Z</time>
      </trkpt>
      <trkpt lat="43.64928" lon="5.43554">
        <ele>442.8</ele>
        <time>2022-10-26T13:00:04.000Z</time>
      </trkpt>
      <trkpt lat="43.64929" lon="5.43553">
        <ele>442.4</ele>
        <time>2022-10-26T13:00:07.000Z</time>
      </trkpt>
      <trkpt lat="43.64931" lon="5.43552">
        <ele>442.1</ele>
        <time>2022-10-26T13:00:09.000Z</time>
      </trkpt>
      <trkpt lat="43.64933" lon="5.43552">
        <ele>441.8</ele>
        <time>2022-10-26T13:00:11.000Z</time>
      </trkpt>
      <trkpt lat="43.64935" lon="5.43553">
        <ele>442</ele>
        <time>2022-10-26T13:00:13.000Z</time>
      </trkpt>
      <trkpt lat="43.64937" lon="5.43555">
        <ele>442.4</ele>
        <time>2022-10-26T13:00:15.000Z</time>
      </trkpt>
      <trkpt lat="43.64938" lon="5.43557">
        <ele>442.1</ele>
        <time>2022-10-26T13:00:18.000Z</time>
      </trkpt>
      <trkpt lat="43.64941" lon="5.43559">
        <ele>441.4</ele>
        <time>2022-10-26T13:00:21.000Z</time>
      </trkpt>
      <trkpt lat="43.64942" lon="5.4356">
        <ele>441.1</ele>
        <time>2022-10-26T13:00:23.000Z</time>
      </trkpt>
      <trkpt lat="43.64944" lon="5.43559">
        <ele>441</ele>
        <time>2022-10-26T13:00:25.000Z</time>
      </trkpt>
      <trkpt lat="43.64946" lon="5.43559">
        <ele>440.6</ele>
        <time>2022-10-26T13:00:27.000Z</time>
      </trkpt>
      <trkpt lat="43.64948" lon="5.43557">
        <ele>440.4</ele>
        <time>2022-10-26T13:00:29.000Z</time>
      </trkpt>
      <trkpt lat="43.6495" lon="5.43556">
        <ele>440.2</ele>
        <time>2022-10-26T13:00:31.000Z</time>
      </trkpt>
      <trkpt lat="43.64951" lon="5.43554">
        <ele>439.4</ele>
        <time>2022-10-26T13:00:33.000Z</time>
      </trkpt>
      <trkpt lat="43.64953" lon="5.43551">
        <ele>438.9</ele>
        <time>2022-10-26T13:00:35.000Z</time>
      </trkpt>
      <trkpt lat="43.64954" lon="5.43549">
        <ele>438.5</ele>
        <time>2022-10-26T13:00:37.000Z</time>
      </trkpt>
      <trkpt lat="43.64955" lon="5.43547">
        <ele>438.1</ele>
        <time>2022-10-26T13:00:39.000Z</time>
      </trkpt>
      <trkpt lat="43.64956" lon="5.43544">
        <ele>437.9</ele>
        <time>2022-10-26T13:00:41.000Z</time>
      </trkpt>
      <trkpt lat="43.64957" lon="5.43542">
        <ele>437.8</ele>
        <time>2022-10-26T13:00:43.000Z</time>
      </trkpt>
      <trkpt lat="43.64958" lon="5.43539">
        <ele>437.7</ele>
        <time>2022-10-26T13:00:45.000Z</time>
      </trkpt>
      <trkpt lat="43.64959" lon="5.43537">
        <ele>437.6</ele>
        <time>2022-10-26T13:00:47.000Z</time>
      </trkpt>
      <trkpt lat="43.6496" lon="5.43535">
        <ele>437.6</ele>
        <time>2022-10-26T13:00:49.000Z</time>
      </trkpt>
      <trkpt lat="43.64961" lon="5.43532">
        <ele>437.7</ele>
        <time>2022-10-26T13:00:52.000Z</time>
      </trkpt>
      <trkpt lat="43.64962" lon="5.43529">
        <ele>437.9</ele>
        <time>2022-10-26T13:00:55.000Z</time>
      </trkpt>
      <trkpt lat="43.64962" lon="5.43526">
        <ele>437.9</ele>
        <time>2022-10-26T13:00:57.000Z</time>
      </trkpt>
      <trkpt lat="43.64963" lon="5.43523">
        <ele>437.6</ele>
        <time>2022-10-26T13:01:00.000Z</time>
      </trkpt>
      <trkpt lat="43.64963" lon="5.43519">
        <ele>437.3</ele>
        <time>2022-10-26T13:01:03.000Z</time>
      </trkpt>
      <trkpt lat="43.64963" lon="5.43516">
        <ele>437</ele>
        <time>2022-10-26T13:01:05.000Z</time>
      </trkpt>
      <trkpt lat="43.64962" lon="5.43514">
        <ele>436.7</ele>
        <time>2022-10-26T13:01:08.000Z</time>
      </trkpt>
      <trkpt lat="43.64961" lon="5.43511">
        <ele>436.4</ele>
        <time>2022-10-26T13:01:13.000Z</time>
      </trkpt>
      <trkpt lat="43.6496" lon="5.43513">
        <ele>436.3</ele>
        <time>2022-10-26T13:01:17.000Z</time>
      </trkpt>
      <trkpt lat="43.64959" lon="5.43516">
        <ele>436.5</ele>
        <time>2022-10-26T13:01:21.000Z</time>
      </trkpt>
      <trkpt lat="43.64957" lon="5.43518">
        <ele>436.6</ele>
        <time>2022-10-26T13:01:24.000Z</time>
      </trkpt>
      <trkpt lat="43.64955" lon="5.43517">
        <ele>436.3</ele>
        <time>2022-10-26T13:01:27.000Z</time>
      </trkpt>
      <trkpt lat="43.64954" lon="5.43515">
        <ele>435.8</ele>
        <time>2022-10-26T13:01:30.000Z</time>
      </trkpt>
      <trkpt lat="43.64954" lon="5.43512">
        <ele>435.4</ele>
        <time>2022-10-26T13:01:33.000Z</time>
      </trkpt>
      <trkpt lat="43.64954" lon="5.43509">
        <ele>435</ele>
        <time>2022-10-26T13:01:37.000Z</time>
      </trkpt>
      <trkpt lat="43.64952" lon="5.43508">
        <ele>434.4</ele>
        <time>2022-10-26T13:01:43.000Z</time>
      </trkpt>
      <trkpt lat="43.6495" lon="5.43507">
        <ele>433.8</ele>
        <time>2022-10-26T13:01:47.000Z</time>
      </trkpt>
      <trkpt lat="43.64948" lon="5.43508">
        <ele>433.5</ele>
        <time>2022-10-26T13:01:51.000Z</time>
      </trkpt>
      <trkpt lat="43.64946" lon="5.43509">
        <ele>433.5</ele>
        <time>2022-10-26T13:01:54.000Z</time>
      </trkpt>
      <trkpt lat="43.64944" lon="5.43511">
        <ele>433.8</ele>
        <time>2022-10-26T13:01:58.000Z</time>
      </trkpt>
      <trkpt lat="43.64943" lon="5.43509">
        <ele>432.9</ele>
        <time>2022-10-26T13:02:02.000Z</time>
      </trkpt>
      <trkpt lat="43.64943" lon="5.43505">
        <ele>432.1</ele>
        <time>2022-10-26T13:02:06.000Z</time>
      </trkpt>
      <trkpt lat="43.64941" lon="5.43504">
        <ele>431.3</ele>
        <time>2022-10-26T13:02:09.000Z</time>
      </trkpt>
      <trkpt lat="43.64939" lon="5.43504">
        <ele>430.9</ele>
        <time>2022-10-26T13:02:11.000Z</time>
      </trkpt>
      <trkpt lat="43.64937" lon="5.43505">
        <ele>430.7</ele>
        <time>2022-10-26T13:02:13.000Z</time>
      </trkpt>
      <trkpt lat="43.64935" lon="5.43506">
        <ele>430.9</ele>
        <time>2022-10-26T13:02:15.000Z</time>
      </trkpt>
      <trkpt lat="43.64933" lon="5.43508">
        <ele>430.9</ele>
        <time>2022-10-26T13:02:17.000Z</time>
      </trkpt>
      <trkpt lat="43.64931" lon="5.43509">
        <ele>430.9</ele>
        <time>2022-10-26T13:02:19.000Z</time>
      </trkpt>
      <trkpt lat="43.64929" lon="5.43511">
        <ele>431</ele>
        <time>2022-10-26T13:02:21.000Z</time>
      </trkpt>
      <trkpt lat="43.64927" lon="5.43513">
        <ele>431.2</ele>
        <time>2022-10-26T13:02:23.000Z</time>
      </trkpt>
      <trkpt lat="43.64925" lon="5.43515">
        <ele>431.2</ele>
        <time>2022-10-26T13:02:25.000Z</time>
      </trkpt>
      <trkpt lat="43.64924" lon="5.43516">
        <ele>431.4</ele>
        <time>2022-10-26T13:02:27.000Z</time>
      </trkpt>
      <trkpt lat="43.64922" lon="5.43517">
        <ele>431.2</ele>
        <time>2022-10-26T13:02:29.000Z</time>
      </trkpt>
      <trkpt lat="43.6492" lon="5.43518">
        <ele>431.2</ele>
        <time>2022-10-26T13:02:31.000Z</time>
      </trkpt>
      <trkpt lat="43.64919" lon="5.43519">
        <ele>431.1</ele>
        <time>2022-10-26T13:02:33.000Z</time>
      </trkpt>
      <trkpt lat="43.64917" lon="5.4352">
        <ele>431</ele>
        <time>2022-10-26T13:02:35.000Z</time>
      </trkpt>
      <trkpt lat="43.64915" lon="5.43521">
        <ele>431</ele>
        <time>2022-10-26T13:02:37.000Z</time>
      </trkpt>
      <trkpt lat="43.64912" lon="5.43521">
        <ele>430.8</ele>
        <time>2022-10-26T13:02:39.000Z</time>
      </trkpt>
      <trkpt lat="43.6491" lon="5.43522">
        <ele>430.9</ele>
        <time>2022-10-26T13:02:41.000Z</time>
      </trkpt>
      <trkpt lat="43.64908" lon="5.43522">
        <ele>430.9</ele>
        <time>2022-10-26T13:02:43.000Z</time>
      </trkpt>
      <trkpt lat="43.64906" lon="5.43524">
        <ele>431.1</ele>
        <time>2022-10-26T13:02:46.000Z</time>
      </trkpt>
      <trkpt lat="43.64903" lon="5.43525">
        <ele>431.2</ele>
        <time>2022-10-26T13:02:49.000Z</time>
      </trkpt>
      <trkpt lat="43.64901" lon="5.43526">
        <ele>431.3</ele>
        <time>2022-10-26T13:02:51.000Z</time>
      </trkpt>
      <trkpt lat="43.64899" lon="5.43528">
        <ele>431.8</ele>
        <time>2022-10-26T13:02:53.000Z</time>
      </trkpt>
      <trkpt lat="43.64897" lon="5.43527">
        <ele>431.5</ele>
        <time>2022-10-26T13:03:01.000Z</time>
      </trkpt>
      <trkpt lat="43.64896" lon="5.43529">
        <ele>431.9</ele>
        <time>2022-10-26T13:03:15.000Z</time>
      </trkpt>
      <trkpt lat="43.64895" lon="5.43532">
        <ele>432.8</ele>
        <time>2022-10-26T13:03:20.000Z</time>
      </trkpt>
      <trkpt lat="43.64897" lon="5.43534">
        <ele>433.6</ele>
        <time>2022-10-26T13:03:25.000Z</time>
      </trkpt>
      <trkpt lat="43.64899" lon="5.43535">
        <ele>434.1</ele>
        <time>2022-10-26T13:03:29.000Z</time>
      </trkpt>
      <trkpt lat="43.64902" lon="5.43534">
        <ele>434.3</ele>
        <time>2022-10-26T13:03:32.000Z</time>
      </trkpt>
      <trkpt lat="43.64904" lon="5.43535">
        <ele>434.6</ele>
        <time>2022-10-26T13:03:35.000Z</time>
      </trkpt>
      <trkpt lat="43.64906" lon="5.43536">
        <ele>435.1</ele>
        <time>2022-10-26T13:03:38.000Z</time>
      </trkpt>
      <trkpt lat="43.64908" lon="5.43537">
        <ele>435.9</ele>
        <time>2022-10-26T13:03:42.000Z</time>
      </trkpt>
      <trkpt lat="43.64907" lon="5.4354">
        <ele>436.7</ele>
        <time>2022-10-26T13:03:45.000Z</time>
      </trkpt>
      <trkpt lat="43.64905" lon="5.43541">
        <ele>436.9</ele>
        <time>2022-10-26T13:03:47.000Z</time>
      </trkpt>
      <trkpt lat="43.64903" lon="5.43543">
        <ele>437.3</ele>
        <time>2022-10-26T13:03:51.000Z</time>
      </trkpt>
      <trkpt lat="43.64901" lon="5.43544">
        <ele>437.7</ele>
        <time>2022-10-26T13:03:54.000Z</time>
      </trkpt>
      <trkpt lat="43.64899" lon="5.43544">
        <ele>437.6</ele>
        <time>2022-10-26T13:03:56.000Z</time>
      </trkpt>
      <trkpt lat="43.64897" lon="5.43545">
        <ele>437.4</ele>
        <time>2022-10-26T13:03:58.000Z</time>
      </trkpt>
      <trkpt lat="43.64896" lon="5.43544">
        <ele>437.1</ele>
        <time>2022-10-26T13:04:01.000Z</time>
      </trkpt>
      <trkpt lat="43.64893" lon="5.43544">
        <ele>436.8</ele>
        <time>2022-10-26T13:04:04.000Z</time>
      </trkpt>
      <trkpt lat="43.64891" lon="5.43544">
        <ele>436.7</ele>
        <time>2022-10-26T13:04:06.000Z</time>
      </trkpt>
      <trkpt lat="43.64889" lon="5.43546">
        <ele>436.7</ele>
        <time>2022-10-26T13:04:10.000Z</time>
      </trkpt>
      <trkpt lat="43.64887" lon="5.43547">
        <ele>436.9</ele>
        <time>2022-10-26T13:04:12.000Z</time>
      </trkpt>
      <trkpt lat="43.64885" lon="5.43548">
        <ele>436.9</ele>
        <time>2022-10-26T13:04:15.000Z</time>
      </trkpt>
      <trkpt lat="43.64883" lon="5.43549">
        <ele>437.2</ele>
        <time>2022-10-26T13:04:18.000Z</time>
      </trkpt>
      <trkpt lat="43.64881" lon="5.43551">
        <ele>437.6</ele>
        <time>2022-10-26T13:04:22.000Z</time>
      </trkpt>
      <trkpt lat="43.64882" lon="5.43555">
        <ele>438.7</ele>
        <time>2022-10-26T13:04:26.000Z</time>
      </trkpt>
      <trkpt lat="43.64882" lon="5.43558">
        <ele>439.6</ele>
        <time>2022-10-26T13:04:31.000Z</time>
      </trkpt>
      <trkpt lat="43.64881" lon="5.4356">
        <ele>440.3</ele>
        <time>2022-10-26T13:04:35.000Z</time>
      </trkpt>
      <trkpt lat="43.6488" lon="5.43562">
        <ele>440.7</ele>
        <time>2022-10-26T13:04:44.000Z</time>
      </trkpt>
      <trkpt lat="43.64879" lon="5.43564">
        <ele>441.2</ele>
        <time>2022-10-26T13:04:52.000Z</time>
      </trkpt>
      <trkpt lat="43.64878" lon="5.43566">
        <ele>441.6</ele>
        <time>2022-10-26T13:05:03.000Z</time>
      </trkpt>
      <trkpt lat="43.64876" lon="5.43567">
        <ele>441.8</ele>
        <time>2022-10-26T13:05:07.000Z</time>
      </trkpt>
      <trkpt lat="43.64874" lon="5.43569">
        <ele>442.2</ele>
        <time>2022-10-26T13:05:11.000Z</time>
      </trkpt>
      <trkpt lat="43.64872" lon="5.4357">
        <ele>442.3</ele>
        <time>2022-10-26T13:05:14.000Z</time>
      </trkpt>
      <trkpt lat="43.6487" lon="5.43571">
        <ele>442.6</ele>
        <time>2022-10-26T13:05:19.000Z</time>
      </trkpt>
      <trkpt lat="43.64868" lon="5.43572">
        <ele>442.9</ele>
        <time>2022-10-26T13:05:22.000Z</time>
      </trkpt>
      <trkpt lat="43.64866" lon="5.43572">
        <ele>442.9</ele>
        <time>2022-10-26T13:05:25.000Z</time>
      </trkpt>
      <trkpt lat="43.64864" lon="5.43574">
        <ele>443.3</ele>
        <time>2022-10-26T13:05:28.000Z</time>
      </trkpt>
      <trkpt lat="43.64861" lon="5.43576">
        <ele>444</ele>
        <time>2022-10-26T13:05:32.000Z</time>
      </trkpt>
      <trkpt lat="43.64859" lon="5.43578">
        <ele>444.6</ele>
        <time>2022-10-26T13:05:35.000Z</time>
      </trkpt>
      <trkpt lat="43.64858" lon="5.4358">
        <ele>445.6</ele>
        <time>2022-10-26T13:05:39.000Z</time>
      </trkpt>
      <trkpt lat="43.64856" lon="5.43581">
        <ele>445.9</ele>
        <time>2022-10-26T13:05:42.000Z</time>
      </trkpt>
      <trkpt lat="43.64854" lon="5.43582">
        <ele>445.9</ele>
        <time>2022-10-26T13:05:45.000Z</time>
      </trkpt>
      <trkpt lat="43.64851" lon="5.43582">
        <ele>445.9</ele>
        <time>2022-10-26T13:05:48.000Z</time>
      </trkpt>
      <trkpt lat="43.64848" lon="5.43583">
        <ele>446</ele>
        <time>2022-10-26T13:05:51.000Z</time>
      </trkpt>
      <trkpt lat="43.64846" lon="5.43584">
        <ele>445.9</ele>
        <time>2022-10-26T13:05:53.000Z</time>
      </trkpt>
      <trkpt lat="43.64844" lon="5.43583">
        <ele>445.8</ele>
        <time>2022-10-26T13:05:55.000Z</time>
      </trkpt>
      <trkpt lat="43.64842" lon="5.43583">
        <ele>445.6</ele>
        <time>2022-10-26T13:05:57.000Z</time>
      </trkpt>
      <trkpt lat="43.6484" lon="5.43584">
        <ele>445.5</ele>
        <time>2022-10-26T13:05:59.000Z</time>
      </trkpt>
      <trkpt lat="43.64837" lon="5.43585">
        <ele>445.5</ele>
        <time>2022-10-26T13:06:01.000Z</time>
      </trkpt>
      <trkpt lat="43.64835" lon="5.43585">
        <ele>445.5</ele>
        <time>2022-10-26T13:06:03.000Z</time>
      </trkpt>
      <trkpt lat="43.64833" lon="5.43586">
        <ele>445.5</ele>
        <time>2022-10-26T13:06:06.000Z</time>
      </trkpt>
      <trkpt lat="43.64831" lon="5.43586">
        <ele>445.5</ele>
        <time>2022-10-26T13:06:08.000Z</time>
      </trkpt>
      <trkpt lat="43.64828" lon="5.43586">
        <ele>445.5</ele>
        <time>2022-10-26T13:06:11.000Z</time>
      </trkpt>
      <trkpt lat="43.64826" lon="5.43586">
        <ele>445.4</ele>
        <time>2022-10-26T13:06:14.000Z</time>
      </trkpt>
      <trkpt lat="43.64824" lon="5.43587">
        <ele>445.4</ele>
        <time>2022-10-26T13:06:17.000Z</time>
      </trkpt>
      <trkpt lat="43.64821" lon="5.43587">
        <ele>445.5</ele>
        <time>2022-10-26T13:06:20.000Z</time>
      </trkpt>
      <trkpt lat="43.64819" lon="5.43588">
        <ele>445.6</ele>
        <time>2022-10-26T13:06:23.000Z</time>
      </trkpt>
      <trkpt lat="43.64817" lon="5.43589">
        <ele>445.8</ele>
        <time>2022-10-26T13:06:25.000Z</time>
      </trkpt>
      <trkpt lat="43.64815" lon="5.4359">
        <ele>445.9</ele>
        <time>2022-10-26T13:06:27.000Z</time>
      </trkpt>
      <trkpt lat="43.64813" lon="5.43592">
        <ele>446.3</ele>
        <time>2022-10-26T13:06:29.000Z</time>
      </trkpt>
      <trkpt lat="43.64811" lon="5.43593">
        <ele>446.5</ele>
        <time>2022-10-26T13:06:32.000Z</time>
      </trkpt>
      <trkpt lat="43.64809" lon="5.43594">
        <ele>446.9</ele>
        <time>2022-10-26T13:06:34.000Z</time>
      </trkpt>
      <trkpt lat="43.64807" lon="5.43595">
        <ele>447</ele>
        <time>2022-10-26T13:06:36.000Z</time>
      </trkpt>
      <trkpt lat="43.64805" lon="5.43596">
        <ele>447.1</ele>
        <time>2022-10-26T13:06:39.000Z</time>
      </trkpt>
      <trkpt lat="43.64802" lon="5.43597">
        <ele>447</ele>
        <time>2022-10-26T13:06:41.000Z</time>
      </trkpt>
      <trkpt lat="43.648" lon="5.43598">
        <ele>446.9</ele>
        <time>2022-10-26T13:06:43.000Z</time>
      </trkpt>
      <trkpt lat="43.64798" lon="5.43599">
        <ele>446.8</ele>
        <time>2022-10-26T13:06:45.000Z</time>
      </trkpt>
      <trkpt lat="43.64796" lon="5.43601">
        <ele>447.1</ele>
        <time>2022-10-26T13:06:48.000Z</time>
      </trkpt>
      <trkpt lat="43.64794" lon="5.43603">
        <ele>447.4</ele>
        <time>2022-10-26T13:06:51.000Z</time>
      </trkpt>
      <trkpt lat="43.64792" lon="5.43604">
        <ele>447.8</ele>
        <time>2022-10-26T13:06:54.000Z</time>
      </trkpt>
      <trkpt lat="43.64791" lon="5.43606">
        <ele>448.3</ele>
        <time>2022-10-26T13:06:57.000Z</time>
      </trkpt>
      <trkpt lat="43.6479" lon="5.43609">
        <ele>449.1</ele>
        <time>2022-10-26T13:07:00.000Z</time>
      </trkpt>
      <trkpt lat="43.64788" lon="5.43612">
        <ele>449.8</ele>
        <time>2022-10-26T13:07:03.000Z</time>
      </trkpt>
      <trkpt lat="43.64786" lon="5.43613">
        <ele>449.8</ele>
        <time>2022-10-26T13:07:05.000Z</time>
      </trkpt>
      <trkpt lat="43.64784" lon="5.43615">
        <ele>450</ele>
        <time>2022-10-26T13:07:08.000Z</time>
      </trkpt>
      <trkpt lat="43.64782" lon="5.43617">
        <ele>450.2</ele>
        <time>2022-10-26T13:07:11.000Z</time>
      </trkpt>
      <trkpt lat="43.64781" lon="5.43619">
        <ele>450.3</ele>
        <time>2022-10-26T13:07:13.000Z</time>
      </trkpt>
      <trkpt lat="43.6478" lon="5.43621">
        <ele>450.6</ele>
        <time>2022-10-26T13:07:15.000Z</time>
      </trkpt>
      <trkpt lat="43.64779" lon="5.43624">
        <ele>450.8</ele>
        <time>2022-10-26T13:07:17.000Z</time>
      </trkpt>
      <trkpt lat="43.64779" lon="5.43626">
        <ele>451.2</ele>
        <time>2022-10-26T13:07:20.000Z</time>
      </trkpt>
      <trkpt lat="43.6478" lon="5.43629">
        <ele>451.6</ele>
        <time>2022-10-26T13:07:22.000Z</time>
      </trkpt>
      <trkpt lat="43.6478" lon="5.43631">
        <ele>452</ele>
        <time>2022-10-26T13:07:24.000Z</time>
      </trkpt>
      <trkpt lat="43.6478" lon="5.43634">
        <ele>452.4</ele>
        <time>2022-10-26T13:07:26.000Z</time>
      </trkpt>
      <trkpt lat="43.64779" lon="5.43637">
        <ele>452.8</ele>
        <time>2022-10-26T13:07:29.000Z</time>
      </trkpt>
      <trkpt lat="43.64777" lon="5.43639">
        <ele>453</ele>
        <time>2022-10-26T13:07:32.000Z</time>
      </trkpt>
      <trkpt lat="43.64775" lon="5.4364">
        <ele>452.9</ele>
        <time>2022-10-26T13:07:34.000Z</time>
      </trkpt>
      <trkpt lat="43.64773" lon="5.43642">
        <ele>452.8</ele>
        <time>2022-10-26T13:07:36.000Z</time>
      </trkpt>
      <trkpt lat="43.64771" lon="5.43644">
        <ele>452.7</ele>
        <time>2022-10-26T13:07:39.000Z</time>
      </trkpt>
      <trkpt lat="43.64769" lon="5.43647">
        <ele>452.6</ele>
        <time>2022-10-26T13:07:42.000Z</time>
      </trkpt>
      <trkpt lat="43.64769" lon="5.43651">
        <ele>452.4</ele>
        <time>2022-10-26T13:07:45.000Z</time>
      </trkpt>
      <trkpt lat="43.6477" lon="5.43654">
        <ele>452.2</ele>
        <time>2022-10-26T13:07:47.000Z</time>
      </trkpt>
      <trkpt lat="43.64771" lon="5.43656">
        <ele>452.1</ele>
        <time>2022-10-26T13:07:49.000Z</time>
      </trkpt>
      <trkpt lat="43.64773" lon="5.43658">
        <ele>451.9</ele>
        <time>2022-10-26T13:07:52.000Z</time>
      </trkpt>
      <trkpt lat="43.64775" lon="5.43658">
        <ele>451.8</ele>
        <time>2022-10-26T13:07:54.000Z</time>
      </trkpt>
      <trkpt lat="43.64777" lon="5.43657">
        <ele>451.7</ele>
        <time>2022-10-26T13:07:57.000Z</time>
      </trkpt>
      <trkpt lat="43.64779" lon="5.43656">
        <ele>451.7</ele>
        <time>2022-10-26T13:08:00.000Z</time>
      </trkpt>
      <trkpt lat="43.64781" lon="5.43657">
        <ele>451.7</ele>
        <time>2022-10-26T13:08:02.000Z</time>
      </trkpt>
      <trkpt lat="43.64783" lon="5.43659">
        <ele>451.6</ele>
        <time>2022-10-26T13:08:05.000Z</time>
      </trkpt>
      <trkpt lat="43.64783" lon="5.43662">
        <ele>451.4</ele>
        <time>2022-10-26T13:08:24.000Z</time>
      </trkpt>
      <trkpt lat="43.64782" lon="5.43665">
        <ele>451.1</ele>
        <time>2022-10-26T13:08:27.000Z</time>
      </trkpt>
      <trkpt lat="43.64781" lon="5.43666">
        <ele>451</ele>
        <time>2022-10-26T13:08:29.000Z</time>
      </trkpt>
      <trkpt lat="43.64779" lon="5.43668">
        <ele>450.7</ele>
        <time>2022-10-26T13:08:32.000Z</time>
      </trkpt>
      <trkpt lat="43.64776" lon="5.4367">
        <ele>450.3</ele>
        <time>2022-10-26T13:08:35.000Z</time>
      </trkpt>
      <trkpt lat="43.64775" lon="5.43672">
        <ele>449.9</ele>
        <time>2022-10-26T13:08:37.000Z</time>
      </trkpt>
      <trkpt lat="43.64773" lon="5.43674">
        <ele>449.4</ele>
        <time>2022-10-26T13:08:40.000Z</time>
      </trkpt>
      <trkpt lat="43.64772" lon="5.43677">
        <ele>448.8</ele>
        <time>2022-10-26T13:08:43.000Z</time>
      </trkpt>
      <trkpt lat="43.64771" lon="5.4368">
        <ele>448</ele>
        <time>2022-10-26T13:08:46.000Z</time>
      </trkpt>
      <trkpt lat="43.64771" lon="5.43683">
        <ele>447.1</ele>
        <time>2022-10-26T13:08:49.000Z</time>
      </trkpt>
      <trkpt lat="43.64772" lon="5.43685">
        <ele>446.5</ele>
        <time>2022-10-26T13:08:51.000Z</time>
      </trkpt>
      <trkpt lat="43.64773" lon="5.43688">
        <ele>445.8</ele>
        <time>2022-10-26T13:08:54.000Z</time>
      </trkpt>
      <trkpt lat="43.64775" lon="5.43689">
        <ele>445.5</ele>
        <time>2022-10-26T13:08:57.000Z</time>
      </trkpt>
      <trkpt lat="43.64778" lon="5.43689">
        <ele>445.5</ele>
        <time>2022-10-26T13:09:00.000Z</time>
      </trkpt>
      <trkpt lat="43.6478" lon="5.43689">
        <ele>445.5</ele>
        <time>2022-10-26T13:09:03.000Z</time>
      </trkpt>
      <trkpt lat="43.64781" lon="5.43688">
        <ele>445.6</ele>
        <time>2022-10-26T13:09:06.000Z</time>
      </trkpt>
      <trkpt lat="43.64783" lon="5.43688">
        <ele>445.7</ele>
        <time>2022-10-26T13:09:09.000Z</time>
      </trkpt>
      <trkpt lat="43.64786" lon="5.43689">
        <ele>445.7</ele>
        <time>2022-10-26T13:09:12.000Z</time>
      </trkpt>
      <trkpt lat="43.64788" lon="5.43688">
        <ele>445.8</ele>
        <time>2022-10-26T13:09:15.000Z</time>
      </trkpt>
      <trkpt lat="43.6479" lon="5.43689">
        <ele>445.7</ele>
        <time>2022-10-26T13:09:18.000Z</time>
      </trkpt>
      <trkpt lat="43.64793" lon="5.4369">
        <ele>445.6</ele>
        <time>2022-10-26T13:09:21.000Z</time>
      </trkpt>
      <trkpt lat="43.64795" lon="5.43691">
        <ele>445.4</ele>
        <time>2022-10-26T13:09:24.000Z</time>
      </trkpt>
      <trkpt lat="43.64797" lon="5.43693">
        <ele>445.1</ele>
        <time>2022-10-26T13:09:27.000Z</time>
      </trkpt>
      <trkpt lat="43.64799" lon="5.43695">
        <ele>444.7</ele>
        <time>2022-10-26T13:09:30.000Z</time>
      </trkpt>
      <trkpt lat="43.64801" lon="5.43697">
        <ele>444.2</ele>
        <time>2022-10-26T13:09:33.000Z</time>
      </trkpt>
      <trkpt lat="43.64802" lon="5.437">
        <ele>443.4</ele>
        <time>2022-10-26T13:09:36.000Z</time>
      </trkpt>
      <trkpt lat="43.64803" lon="5.43703">
        <ele>442.5</ele>
        <time>2022-10-26T13:09:39.000Z</time>
      </trkpt>
      <trkpt lat="43.64803" lon="5.43706">
        <ele>441.5</ele>
        <time>2022-10-26T13:09:42.000Z</time>
      </trkpt>
      <trkpt lat="43.64801" lon="5.43709">
        <ele>440.8</ele>
        <time>2022-10-26T13:09:45.000Z</time>
      </trkpt>
      <trkpt lat="43.64799" lon="5.4371">
        <ele>440.5</ele>
        <time>2022-10-26T13:09:47.000Z</time>
      </trkpt>
      <trkpt lat="43.64797" lon="5.4371">
        <ele>440.5</ele>
        <time>2022-10-26T13:09:49.000Z</time>
      </trkpt>
      <trkpt lat="43.64795" lon="5.43711">
        <ele>440.3</ele>
        <time>2022-10-26T13:09:51.000Z</time>
      </trkpt>
      <trkpt lat="43.64793" lon="5.43712">
        <ele>440.2</ele>
        <time>2022-10-26T13:09:53.000Z</time>
      </trkpt>
      <trkpt lat="43.64791" lon="5.43712">
        <ele>440.2</ele>
        <time>2022-10-26T13:09:55.000Z</time>
      </trkpt>
      <trkpt lat="43.64789" lon="5.43711">
        <ele>440.3</ele>
        <time>2022-10-26T13:09:57.000Z</time>
      </trkpt>
      <trkpt lat="43.64786" lon="5.43709">
        <ele>440.8</ele>
        <time>2022-10-26T13:09:59.000Z</time>
      </trkpt>
      <trkpt lat="43.64785" lon="5.43708">
        <ele>441.1</ele>
        <time>2022-10-26T13:10:01.000Z</time>
      </trkpt>
      <trkpt lat="43.64783" lon="5.43707">
        <ele>441.2</ele>
        <time>2022-10-26T13:10:04.000Z</time>
      </trkpt>
      <trkpt lat="43.6478" lon="5.43707">
        <ele>441.3</ele>
        <time>2022-10-26T13:10:07.000Z</time>
      </trkpt>
      <trkpt lat="43.64778" lon="5.43707">
        <ele>441.4</ele>
        <time>2022-10-26T13:10:09.000Z</time>
      </trkpt>
      <trkpt lat="43.64775" lon="5.43707">
        <ele>441.4</ele>
        <time>2022-10-26T13:10:11.000Z</time>
      </trkpt>
      <trkpt lat="43.64773" lon="5.43707">
        <ele>441.3</ele>
        <time>2022-10-26T13:10:13.000Z</time>
      </trkpt>
      <trkpt lat="43.64771" lon="5.43707">
        <ele>441.2</ele>
        <time>2022-10-26T13:10:16.000Z</time>
      </trkpt>
      <trkpt lat="43.64769" lon="5.43708">
        <ele>441.1</ele>
        <time>2022-10-26T13:10:19.000Z</time>
      </trkpt>
      <trkpt lat="43.64767" lon="5.43709">
        <ele>440.8</ele>
        <time>2022-10-26T13:10:22.000Z</time>
      </trkpt>
      <trkpt lat="43.64765" lon="5.43711">
        <ele>440.5</ele>
        <time>2022-10-26T13:10:25.000Z</time>
      </trkpt>
      <trkpt lat="43.64764" lon="5.43712">
        <ele>440.2</ele>
        <time>2022-10-26T13:10:28.000Z</time>
      </trkpt>
      <trkpt lat="43.64763" lon="5.43714">
        <ele>439.8</ele>
        <time>2022-10-26T13:10:31.000Z</time>
      </trkpt>
      <trkpt lat="43.64761" lon="5.43716">
        <ele>439.3</ele>
        <time>2022-10-26T13:10:34.000Z</time>
      </trkpt>
      <trkpt lat="43.6476" lon="5.43719">
        <ele>438.7</ele>
        <time>2022-10-26T13:10:37.000Z</time>
      </trkpt>
      <trkpt lat="43.6476" lon="5.43722">
        <ele>438</ele>
        <time>2022-10-26T13:10:40.000Z</time>
      </trkpt>
      <trkpt lat="43.64758" lon="5.43724">
        <ele>437.5</ele>
        <time>2022-10-26T13:10:43.000Z</time>
      </trkpt>
      <trkpt lat="43.64757" lon="5.43727">
        <ele>436.9</ele>
        <time>2022-10-26T13:10:46.000Z</time>
      </trkpt>
      <trkpt lat="43.64756" lon="5.43729">
        <ele>436.3</ele>
        <time>2022-10-26T13:10:49.000Z</time>
      </trkpt>
      <trkpt lat="43.64754" lon="5.43731">
        <ele>435.9</ele>
        <time>2022-10-26T13:10:52.000Z</time>
      </trkpt>
      <trkpt lat="43.64752" lon="5.43733">
        <ele>435.4</ele>
        <time>2022-10-26T13:10:55.000Z</time>
      </trkpt>
      <trkpt lat="43.64751" lon="5.43734">
        <ele>435.1</ele>
        <time>2022-10-26T13:10:58.000Z</time>
      </trkpt>
      <trkpt lat="43.64748" lon="5.43735">
        <ele>434.6</ele>
        <time>2022-10-26T13:11:01.000Z</time>
      </trkpt>
      <trkpt lat="43.64746" lon="5.43736">
        <ele>434.1</ele>
        <time>2022-10-26T13:11:04.000Z</time>
      </trkpt>
      <trkpt lat="43.64744" lon="5.43736">
        <ele>433.7</ele>
        <time>2022-10-26T13:11:07.000Z</time>
      </trkpt>
      <trkpt lat="43.64742" lon="5.43736">
        <ele>433.4</ele>
        <time>2022-10-26T13:11:10.000Z</time>
      </trkpt>
      <trkpt lat="43.64739" lon="5.43735">
        <ele>433.1</ele>
        <time>2022-10-26T13:11:13.000Z</time>
      </trkpt>
      <trkpt lat="43.64737" lon="5.43735">
        <ele>432.8</ele>
        <time>2022-10-26T13:11:16.000Z</time>
      </trkpt>
      <trkpt lat="43.64735" lon="5.43735">
        <ele>432.6</ele>
        <time>2022-10-26T13:11:19.000Z</time>
      </trkpt>
      <trkpt lat="43.64733" lon="5.43734">
        <ele>432.5</ele>
        <time>2022-10-26T13:11:22.000Z</time>
      </trkpt>
      <trkpt lat="43.64731" lon="5.43733">
        <ele>432.3</ele>
        <time>2022-10-26T13:11:25.000Z</time>
      </trkpt>
      <trkpt lat="43.64729" lon="5.43732">
        <ele>432.2</ele>
        <time>2022-10-26T13:11:28.000Z</time>
      </trkpt>
      <trkpt lat="43.64727" lon="5.43731">
        <ele>432.1</ele>
        <time>2022-10-26T13:11:31.000Z</time>
      </trkpt>
      <trkpt lat="43.64724" lon="5.4373">
        <ele>431.9</ele>
        <time>2022-10-26T13:11:34.000Z</time>
      </trkpt>
      <trkpt lat="43.64722" lon="5.43729">
        <ele>431.7</ele>
        <time>2022-10-26T13:11:37.000Z</time>
      </trkpt>
      <trkpt lat="43.6472" lon="5.43728">
        <ele>431.4</ele>
        <time>2022-10-26T13:11:40.000Z</time>
      </trkpt>
      <trkpt lat="43.64718" lon="5.43726">
        <ele>430.9</ele>
        <time>2022-10-26T13:11:43.000Z</time>
      </trkpt>
      <trkpt lat="43.64716" lon="5.43725">
        <ele>430.5</ele>
        <time>2022-10-26T13:11:46.000Z</time>
      </trkpt>
      <trkpt lat="43.64714" lon="5.43724">
        <ele>430.1</ele>
        <time>2022-10-26T13:11:49.000Z</time>
      </trkpt>
      <trkpt lat="43.64712" lon="5.43723">
        <ele>429.7</ele>
        <time>2022-10-26T13:11:52.000Z</time>
      </trkpt>
      <trkpt lat="43.6471" lon="5.43721">
        <ele>429.3</ele>
        <time>2022-10-26T13:11:55.000Z</time>
      </trkpt>
      <trkpt lat="43.64708" lon="5.43719">
        <ele>429</ele>
        <time>2022-10-26T13:11:58.000Z</time>
      </trkpt>
      <trkpt lat="43.64707" lon="5.43717">
        <ele>428.7</ele>
        <time>2022-10-26T13:12:01.000Z</time>
      </trkpt>
      <trkpt lat="43.64705" lon="5.43715">
        <ele>428.4</ele>
        <time>2022-10-26T13:12:04.000Z</time>
      </trkpt>
      <trkpt lat="43.64703" lon="5.43713">
        <ele>428.1</ele>
        <time>2022-10-26T13:12:07.000Z</time>
      </trkpt>
      <trkpt lat="43.64701" lon="5.4371">
        <ele>427.9</ele>
        <time>2022-10-26T13:12:10.000Z</time>
      </trkpt>
      <trkpt lat="43.647" lon="5.43708">
        <ele>427.5</ele>
        <time>2022-10-26T13:12:13.000Z</time>
      </trkpt>
      <trkpt lat="43.64698" lon="5.43706">
        <ele>427.1</ele>
        <time>2022-10-26T13:12:16.000Z</time>
      </trkpt>
      <trkpt lat="43.64696" lon="5.43703">
        <ele>426.7</ele>
        <time>2022-10-26T13:12:19.000Z</time>
      </trkpt>
      <trkpt lat="43.64695" lon="5.43701">
        <ele>426.3</ele>
        <time>2022-10-26T13:12:22.000Z</time>
      </trkpt>
      <trkpt lat="43.64693" lon="5.43699">
        <ele>426</ele>
        <time>2022-10-26T13:12:25.000Z</time>
      </trkpt>
      <trkpt lat="43.64692" lon="5.43697">
        <ele>425.6</ele>
        <time>2022-10-26T13:12:28.000Z</time>
      </trkpt>
      <trkpt lat="43.6469" lon="5.43695">
        <ele>425.2</ele>
        <time>2022-10-26T13:12:31.000Z</time>
      </trkpt>
      <trkpt lat="43.64689" lon="5.43693">
        <ele>424.7</ele>
        <time>2022-10-26T13:12:34.000Z</time>
      </trkpt>
      <trkpt lat="43.64687" lon="5.43691">
        <ele>424</ele>
        <time>2022-10-26T13:12:37.000Z</time>
      </trkpt>
      <trkpt lat="43.64685" lon="5.43689">
        <ele>423.4</ele>
        <time>2022-10-26T13:12:40.000Z</time>
      </trkpt>
      <trkpt lat="43.64684" lon="5.43687">
        <ele>422.9</ele>
        <time>2022-10-26T13:12:43.000Z</time>
      </trkpt>
      <trkpt lat="43.64683" lon="5.43684">
        <ele>422.4</ele>
        <time>2022-10-26T13:12:46.000Z</time>
      </trkpt>
      <trkpt lat="43.64681" lon="5.43682">
        <ele>421.8</ele>
        <time>2022-10-26T13:12:49.000Z</time>
      </trkpt>
      <trkpt lat="43.6468" lon="5.43679">
        <ele>421.2</ele>
        <time>2022-10-26T13:12:52.000Z</time>
      </trkpt>
      <trkpt lat="43.64679" lon="5.43677">
        <ele>420.7</ele>
        <time>2022-10-26T13:12:55.000Z</time>
      </trkpt>
      <trkpt lat="43.64677" lon="5.43674">
        <ele>420.1</ele>
        <time>2022-10-26T13:12:58.000Z</time>
      </trkpt>
      <trkpt lat="43.64676" lon="5.43671">
        <ele>419.6</ele>
        <time>2022-10-26T13:13:01.000Z</time>
      </trkpt>
      <trkpt lat="43.64675" lon="5.43669">
        <ele>419.1</ele>
        <time>2022-10-26T13:13:04.000Z</time>
      </trkpt>
      <trkpt lat="43.64674" lon="5.43666">
        <ele>418.5</ele>
        <time>2022-10-26T13:13:07.000Z</time>
      </trkpt>
      <trkpt lat="43.64673" lon="5.43664">
        <ele>417.9</ele>
        <time>2022-10-26T13:13:10.000Z</time>
      </trkpt>
      <trkpt lat="43.64672" lon="5.43661">
        <ele>417.5</ele>
        <time>2022-10-26T13:13:13.000Z</time>
      </trkpt>
      <trkpt lat="43.64672" lon="5.43659">
        <ele>417</ele>
        <time>2022-10-26T13:13:16.000Z</time>
      </trkpt>
      <trkpt lat="43.64671" lon="5.43657">
        <ele>416.4</ele>
        <time>2022-10-26T13:13:19.000Z</time>
      </trkpt>
      <trkpt lat="43.6467" lon="5.43654">
        <ele>415.9</ele>
        <time>2022-10-26T13:13:22.000Z</time>
      </trkpt>
      <trkpt lat="43.64669" lon="5.43651">
        <ele>415.2</ele>
        <time>2022-10-26T13:13:25.000Z</time>
      </trkpt>
      <trkpt lat="43.64667" lon="5.43648">
        <ele>414.7</ele>
        <time>2022-10-26T13:13:28.000Z</time>
      </trkpt>
      <trkpt lat="43.64667" lon="5.43646">
        <ele>414.2</ele>
        <time>2022-10-26T13:13:30.000Z</time>
      </trkpt>
      <trkpt lat="43.64666" lon="5.43643">
        <ele>413.9</ele>
        <time>2022-10-26T13:13:33.000Z</time>
      </trkpt>
      <trkpt lat="43.64665" lon="5.4364">
        <ele>413.7</ele>
        <time>2022-10-26T13:13:36.000Z</time>
      </trkpt>
      <trkpt lat="43.64664" lon="5.43637">
        <ele>413.2</ele>
        <time>2022-10-26T13:13:39.000Z</time>
      </trkpt>
      <trkpt lat="43.64663" lon="5.43634">
        <ele>412.8</ele>
        <time>2022-10-26T13:13:42.000Z</time>
      </trkpt>
      <trkpt lat="43.64661" lon="5.43631">
        <ele>412.3</ele>
        <time>2022-10-26T13:13:45.000Z</time>
      </trkpt>
      <trkpt lat="43.6466" lon="5.43629">
        <ele>411.9</ele>
        <time>2022-10-26T13:13:48.000Z</time>
      </trkpt>
      <trkpt lat="43.64659" lon="5.43627">
        <ele>411.5</ele>
        <time>2022-10-26T13:13:51.000Z</time>
      </trkpt>
      <trkpt lat="43.64658" lon="5.43625">
        <ele>411.1</ele>
        <time>2022-10-26T13:13:54.000Z</time>
      </trkpt>
      <trkpt lat="43.64656" lon="5.43622">
        <ele>410.6</ele>
        <time>2022-10-26T13:13:58.000Z</time>
      </trkpt>
      <trkpt lat="43.64655" lon="5.4362">
        <ele>410.1</ele>
        <time>2022-10-26T13:14:03.000Z</time>
      </trkpt>
      <trkpt lat="43.64653" lon="5.4362">
        <ele>409.6</ele>
        <time>2022-10-26T13:14:09.000Z</time>
      </trkpt>
      <trkpt lat="43.64651" lon="5.4362">
        <ele>409.2</ele>
        <time>2022-10-26T13:14:12.000Z</time>
      </trkpt>
      <trkpt lat="43.64648" lon="5.43621">
        <ele>408.8</ele>
        <time>2022-10-26T13:14:15.000Z</time>
      </trkpt>
      <trkpt lat="43.64647" lon="5.43623">
        <ele>408.5</ele>
        <time>2022-10-26T13:14:18.000Z</time>
      </trkpt>
      <trkpt lat="43.64645" lon="5.43624">
        <ele>408.2</ele>
        <time>2022-10-26T13:14:21.000Z</time>
      </trkpt>
      <trkpt lat="43.64644" lon="5.43626">
        <ele>408.1</ele>
        <time>2022-10-26T13:14:24.000Z</time>
      </trkpt>
      <trkpt lat="43.64643" lon="5.43629">
        <ele>408.3</ele>
        <time>2022-10-26T13:14:28.000Z</time>
      </trkpt>
      <trkpt lat="43.64643" lon="5.43631">
        <ele>408.4</ele>
        <time>2022-10-26T13:14:33.000Z</time>
      </trkpt>
      <trkpt lat="43.64643" lon="5.43628">
        <ele>408.1</ele>
        <time>2022-10-26T13:26:22.000Z</time>
      </trkpt>
      <trkpt lat="43.64645" lon="5.43626">
        <ele>408.3</ele>
        <time>2022-10-26T13:26:24.000Z</time>
      </trkpt>
      <trkpt lat="43.64646" lon="5.43623">
        <ele>408.4</ele>
        <time>2022-10-26T13:26:26.000Z</time>
      </trkpt>
      <trkpt lat="43.64647" lon="5.43621">
        <ele>408.5</ele>
        <time>2022-10-26T13:26:28.000Z</time>
      </trkpt>
      <trkpt lat="43.64648" lon="5.43618">
        <ele>408.5</ele>
        <time>2022-10-26T13:26:30.000Z</time>
      </trkpt>
      <trkpt lat="43.64648" lon="5.43614">
        <ele>408.3</ele>
        <time>2022-10-26T13:26:33.000Z</time>
      </trkpt>
      <trkpt lat="43.64648" lon="5.43612">
        <ele>407.9</ele>
        <time>2022-10-26T13:26:35.000Z</time>
      </trkpt>
      <trkpt lat="43.64646" lon="5.4361">
        <ele>407.4</ele>
        <time>2022-10-26T13:26:37.000Z</time>
      </trkpt>
      <trkpt lat="43.64645" lon="5.43609">
        <ele>407</ele>
        <time>2022-10-26T13:26:40.000Z</time>
      </trkpt>
      <trkpt lat="43.64642" lon="5.43607">
        <ele>406.4</ele>
        <time>2022-10-26T13:26:43.000Z</time>
      </trkpt>
      <trkpt lat="43.64641" lon="5.43604">
        <ele>405.9</ele>
        <time>2022-10-26T13:26:46.000Z</time>
      </trkpt>
      <trkpt lat="43.64639" lon="5.43602">
        <ele>405.4</ele>
        <time>2022-10-26T13:26:49.000Z</time>
      </trkpt>
      <trkpt lat="43.64637" lon="5.43601">
        <ele>405</ele>
        <time>2022-10-26T13:26:52.000Z</time>
      </trkpt>
      <trkpt lat="43.64635" lon="5.43598">
        <ele>404.6</ele>
        <time>2022-10-26T13:26:55.000Z</time>
      </trkpt>
      <trkpt lat="43.64634" lon="5.43596">
        <ele>404.3</ele>
        <time>2022-10-26T13:26:57.000Z</time>
      </trkpt>
      <trkpt lat="43.64632" lon="5.43593">
        <ele>403.9</ele>
        <time>2022-10-26T13:27:00.000Z</time>
      </trkpt>
      <trkpt lat="43.64631" lon="5.43591">
        <ele>403.7</ele>
        <time>2022-10-26T13:27:02.000Z</time>
      </trkpt>
      <trkpt lat="43.6463" lon="5.43589">
        <ele>403.4</ele>
        <time>2022-10-26T13:27:04.000Z</time>
      </trkpt>
      <trkpt lat="43.64628" lon="5.43587">
        <ele>403.1</ele>
        <time>2022-10-26T13:27:07.000Z</time>
      </trkpt>
      <trkpt lat="43.64626" lon="5.43585">
        <ele>402.7</ele>
        <time>2022-10-26T13:27:10.000Z</time>
      </trkpt>
      <trkpt lat="43.64625" lon="5.43582">
        <ele>402.3</ele>
        <time>2022-10-26T13:27:13.000Z</time>
      </trkpt>
      <trkpt lat="43.64623" lon="5.4358">
        <ele>401.9</ele>
        <time>2022-10-26T13:27:16.000Z</time>
      </trkpt>
      <trkpt lat="43.64622" lon="5.43578">
        <ele>401.5</ele>
        <time>2022-10-26T13:27:19.000Z</time>
      </trkpt>
      <trkpt lat="43.64621" lon="5.43575">
        <ele>401</ele>
        <time>2022-10-26T13:27:22.000Z</time>
      </trkpt>
      <trkpt lat="43.64619" lon="5.43573">
        <ele>400.7</ele>
        <time>2022-10-26T13:27:25.000Z</time>
      </trkpt>
      <trkpt lat="43.64618" lon="5.43571">
        <ele>400.3</ele>
        <time>2022-10-26T13:27:28.000Z</time>
      </trkpt>
      <trkpt lat="43.64617" lon="5.43569">
        <ele>400</ele>
        <time>2022-10-26T13:27:31.000Z</time>
      </trkpt>
      <trkpt lat="43.64616" lon="5.43567">
        <ele>399.6</ele>
        <time>2022-10-26T13:27:34.000Z</time>
      </trkpt>
      <trkpt lat="43.64614" lon="5.43565">
        <ele>399.2</ele>
        <time>2022-10-26T13:27:37.000Z</time>
      </trkpt>
      <trkpt lat="43.64613" lon="5.43563">
        <ele>398.9</ele>
        <time>2022-10-26T13:27:39.000Z</time>
      </trkpt>
      <trkpt lat="43.64611" lon="5.43561">
        <ele>398.6</ele>
        <time>2022-10-26T13:27:42.000Z</time>
      </trkpt>
      <trkpt lat="43.6461" lon="5.43559">
        <ele>398.4</ele>
        <time>2022-10-26T13:27:45.000Z</time>
      </trkpt>
      <trkpt lat="43.64608" lon="5.43557">
        <ele>398.3</ele>
        <time>2022-10-26T13:27:48.000Z</time>
      </trkpt>
      <trkpt lat="43.64607" lon="5.43555">
        <ele>398</ele>
        <time>2022-10-26T13:27:50.000Z</time>
      </trkpt>
      <trkpt lat="43.64605" lon="5.43553">
        <ele>397.6</ele>
        <time>2022-10-26T13:27:52.000Z</time>
      </trkpt>
      <trkpt lat="43.64603" lon="5.43551">
        <ele>397</ele>
        <time>2022-10-26T13:27:55.000Z</time>
      </trkpt>
      <trkpt lat="43.64602" lon="5.43549">
        <ele>396.6</ele>
        <time>2022-10-26T13:27:57.000Z</time>
      </trkpt>
      <trkpt lat="43.646" lon="5.43547">
        <ele>396</ele>
        <time>2022-10-26T13:28:00.000Z</time>
      </trkpt>
      <trkpt lat="43.64599" lon="5.43544">
        <ele>395.6</ele>
        <time>2022-10-26T13:28:03.000Z</time>
      </trkpt>
      <trkpt lat="43.64597" lon="5.43542">
        <ele>395.1</ele>
        <time>2022-10-26T13:28:06.000Z</time>
      </trkpt>
      <trkpt lat="43.64595" lon="5.4354">
        <ele>394.6</ele>
        <time>2022-10-26T13:28:09.000Z</time>
      </trkpt>
      <trkpt lat="43.64593" lon="5.43538">
        <ele>394.3</ele>
        <time>2022-10-26T13:28:12.000Z</time>
      </trkpt>
      <trkpt lat="43.64592" lon="5.43536">
        <ele>394</ele>
        <time>2022-10-26T13:28:14.000Z</time>
      </trkpt>
      <trkpt lat="43.6459" lon="5.43534">
        <ele>393.7</ele>
        <time>2022-10-26T13:28:16.000Z</time>
      </trkpt>
      <trkpt lat="43.64589" lon="5.43532">
        <ele>393.4</ele>
        <time>2022-10-26T13:28:18.000Z</time>
      </trkpt>
      <trkpt lat="43.64588" lon="5.43531">
        <ele>393.2</ele>
        <time>2022-10-26T13:28:20.000Z</time>
      </trkpt>
      <trkpt lat="43.64586" lon="5.43529">
        <ele>393.1</ele>
        <time>2022-10-26T13:28:22.000Z</time>
      </trkpt>
      <trkpt lat="43.64584" lon="5.43528">
        <ele>393</ele>
        <time>2022-10-26T13:28:24.000Z</time>
      </trkpt>
      <trkpt lat="43.64583" lon="5.43527">
        <ele>392.9</ele>
        <time>2022-10-26T13:28:26.000Z</time>
      </trkpt>
      <trkpt lat="43.64581" lon="5.43526">
        <ele>392.7</ele>
        <time>2022-10-26T13:28:28.000Z</time>
      </trkpt>
      <trkpt lat="43.64579" lon="5.43525">
        <ele>392.7</ele>
        <time>2022-10-26T13:28:30.000Z</time>
      </trkpt>
      <trkpt lat="43.64577" lon="5.43523">
        <ele>392.6</ele>
        <time>2022-10-26T13:28:32.000Z</time>
      </trkpt>
      <trkpt lat="43.64576" lon="5.43522">
        <ele>392.5</ele>
        <time>2022-10-26T13:28:34.000Z</time>
      </trkpt>
      <trkpt lat="43.64574" lon="5.4352">
        <ele>392.2</ele>
        <time>2022-10-26T13:28:36.000Z</time>
      </trkpt>
      <trkpt lat="43.64573" lon="5.43519">
        <ele>392.1</ele>
        <time>2022-10-26T13:28:38.000Z</time>
      </trkpt>
      <trkpt lat="43.64571" lon="5.43518">
        <ele>391.9</ele>
        <time>2022-10-26T13:28:40.000Z</time>
      </trkpt>
      <trkpt lat="43.64569" lon="5.43515">
        <ele>391.5</ele>
        <time>2022-10-26T13:28:42.000Z</time>
      </trkpt>
      <trkpt lat="43.64567" lon="5.43514">
        <ele>391.2</ele>
        <time>2022-10-26T13:28:44.000Z</time>
      </trkpt>
      <trkpt lat="43.64565" lon="5.43512">
        <ele>390.8</ele>
        <time>2022-10-26T13:28:47.000Z</time>
      </trkpt>
      <trkpt lat="43.64563" lon="5.4351">
        <ele>390.5</ele>
        <time>2022-10-26T13:28:50.000Z</time>
      </trkpt>
      <trkpt lat="43.64561" lon="5.43507">
        <ele>389.9</ele>
        <time>2022-10-26T13:28:53.000Z</time>
      </trkpt>
      <trkpt lat="43.6456" lon="5.43506">
        <ele>389.5</ele>
        <time>2022-10-26T13:28:55.000Z</time>
      </trkpt>
      <trkpt lat="43.64558" lon="5.43504">
        <ele>389.1</ele>
        <time>2022-10-26T13:28:57.000Z</time>
      </trkpt>
      <trkpt lat="43.64557" lon="5.43501">
        <ele>388.3</ele>
        <time>2022-10-26T13:29:00.000Z</time>
      </trkpt>
      <trkpt lat="43.64555" lon="5.43499">
        <ele>388</ele>
        <time>2022-10-26T13:29:03.000Z</time>
      </trkpt>
      <trkpt lat="43.64553" lon="5.43498">
        <ele>388.2</ele>
        <time>2022-10-26T13:29:05.000Z</time>
      </trkpt>
      <trkpt lat="43.64551" lon="5.43497">
        <ele>388.2</ele>
        <time>2022-10-26T13:29:07.000Z</time>
      </trkpt>
      <trkpt lat="43.6455" lon="5.43495">
        <ele>388</ele>
        <time>2022-10-26T13:29:09.000Z</time>
      </trkpt>
      <trkpt lat="43.64548" lon="5.43492">
        <ele>387.8</ele>
        <time>2022-10-26T13:29:18.000Z</time>
      </trkpt>
      <trkpt lat="43.64547" lon="5.4349">
        <ele>387.4</ele>
        <time>2022-10-26T13:29:20.000Z</time>
      </trkpt>
      <trkpt lat="43.64546" lon="5.43488">
        <ele>387.1</ele>
        <time>2022-10-26T13:29:22.000Z</time>
      </trkpt>
      <trkpt lat="43.64544" lon="5.43486">
        <ele>386.9</ele>
        <time>2022-10-26T13:29:26.000Z</time>
      </trkpt>
      <trkpt lat="43.64542" lon="5.43485">
        <ele>386.8</ele>
        <time>2022-10-26T13:29:28.000Z</time>
      </trkpt>
      <trkpt lat="43.6454" lon="5.43482">
        <ele>386.4</ele>
        <time>2022-10-26T13:29:31.000Z</time>
      </trkpt>
      <trkpt lat="43.64538" lon="5.4348">
        <ele>386.2</ele>
        <time>2022-10-26T13:29:35.000Z</time>
      </trkpt>
      <trkpt lat="43.64536" lon="5.4348">
        <ele>386.2</ele>
        <time>2022-10-26T13:29:39.000Z</time>
      </trkpt>
      <trkpt lat="43.64534" lon="5.43478">
        <ele>386</ele>
        <time>2022-10-26T13:29:42.000Z</time>
      </trkpt>
      <trkpt lat="43.64533" lon="5.43476">
        <ele>385.4</ele>
        <time>2022-10-26T13:29:48.000Z</time>
      </trkpt>
      <trkpt lat="43.64532" lon="5.43472">
        <ele>384.6</ele>
        <time>2022-10-26T13:29:50.000Z</time>
      </trkpt>
      <trkpt lat="43.64531" lon="5.43467">
        <ele>383.6</ele>
        <time>2022-10-26T13:29:51.000Z</time>
      </trkpt>
      <trkpt lat="43.6453" lon="5.43464">
        <ele>383.3</ele>
        <time>2022-10-26T13:29:53.000Z</time>
      </trkpt>
      <trkpt lat="43.64527" lon="5.43462">
        <ele>383.3</ele>
        <time>2022-10-26T13:29:55.000Z</time>
      </trkpt>
      <trkpt lat="43.64526" lon="5.43461">
        <ele>383.2</ele>
        <time>2022-10-26T13:29:57.000Z</time>
      </trkpt>
      <trkpt lat="43.64524" lon="5.43458">
        <ele>382.9</ele>
        <time>2022-10-26T13:29:59.000Z</time>
      </trkpt>
      <trkpt lat="43.64522" lon="5.4346">
        <ele>383.4</ele>
        <time>2022-10-26T13:30:02.000Z</time>
      </trkpt>
      <trkpt lat="43.64519" lon="5.43458">
        <ele>383.5</ele>
        <time>2022-10-26T13:30:06.000Z</time>
      </trkpt>
      <trkpt lat="43.64517" lon="5.43457">
        <ele>383.5</ele>
        <time>2022-10-26T13:30:08.000Z</time>
      </trkpt>
      <trkpt lat="43.64514" lon="5.43456">
        <ele>383.4</ele>
        <time>2022-10-26T13:30:11.000Z</time>
      </trkpt>
      <trkpt lat="43.64513" lon="5.43454">
        <ele>383.1</ele>
        <time>2022-10-26T13:30:13.000Z</time>
      </trkpt>
      <trkpt lat="43.64511" lon="5.43452">
        <ele>382.6</ele>
        <time>2022-10-26T13:30:16.000Z</time>
      </trkpt>
      <trkpt lat="43.6451" lon="5.4345">
        <ele>382.1</ele>
        <time>2022-10-26T13:30:19.000Z</time>
      </trkpt>
      <trkpt lat="43.64508" lon="5.43448">
        <ele>381.8</ele>
        <time>2022-10-26T13:30:23.000Z</time>
      </trkpt>
      <trkpt lat="43.64506" lon="5.43445">
        <ele>381</ele>
        <time>2022-10-26T13:30:26.000Z</time>
      </trkpt>
      <trkpt lat="43.64504" lon="5.43443">
        <ele>380.5</ele>
        <time>2022-10-26T13:30:29.000Z</time>
      </trkpt>
      <trkpt lat="43.64502" lon="5.4344">
        <ele>380</ele>
        <time>2022-10-26T13:30:32.000Z</time>
      </trkpt>
      <trkpt lat="43.64501" lon="5.43439">
        <ele>379.7</ele>
        <time>2022-10-26T13:30:34.000Z</time>
      </trkpt>
      <trkpt lat="43.645" lon="5.43437">
        <ele>379.3</ele>
        <time>2022-10-26T13:30:36.000Z</time>
      </trkpt>
      <trkpt lat="43.64499" lon="5.43434">
        <ele>378.8</ele>
        <time>2022-10-26T13:30:38.000Z</time>
      </trkpt>
      <trkpt lat="43.64497" lon="5.43433">
        <ele>378.5</ele>
        <time>2022-10-26T13:30:40.000Z</time>
      </trkpt>
      <trkpt lat="43.64496" lon="5.43432">
        <ele>378.3</ele>
        <time>2022-10-26T13:30:42.000Z</time>
      </trkpt>
      <trkpt lat="43.64494" lon="5.4343">
        <ele>377.9</ele>
        <time>2022-10-26T13:30:44.000Z</time>
      </trkpt>
      <trkpt lat="43.64492" lon="5.43428">
        <ele>377.5</ele>
        <time>2022-10-26T13:30:47.000Z</time>
      </trkpt>
      <trkpt lat="43.64491" lon="5.43425">
        <ele>377</ele>
        <time>2022-10-26T13:30:50.000Z</time>
      </trkpt>
      <trkpt lat="43.64489" lon="5.43423">
        <ele>376.6</ele>
        <time>2022-10-26T13:30:52.000Z</time>
      </trkpt>
      <trkpt lat="43.64487" lon="5.43421">
        <ele>376.4</ele>
        <time>2022-10-26T13:30:54.000Z</time>
      </trkpt>
      <trkpt lat="43.64486" lon="5.43419">
        <ele>376</ele>
        <time>2022-10-26T13:30:56.000Z</time>
      </trkpt>
      <trkpt lat="43.64484" lon="5.43418">
        <ele>375.7</ele>
        <time>2022-10-26T13:30:58.000Z</time>
      </trkpt>
      <trkpt lat="43.64483" lon="5.43416">
        <ele>375.5</ele>
        <time>2022-10-26T13:31:00.000Z</time>
      </trkpt>
      <trkpt lat="43.64481" lon="5.43414">
        <ele>375.4</ele>
        <time>2022-10-26T13:31:02.000Z</time>
      </trkpt>
      <trkpt lat="43.64478" lon="5.43413">
        <ele>375.2</ele>
        <time>2022-10-26T13:31:05.000Z</time>
      </trkpt>
      <trkpt lat="43.64476" lon="5.43412">
        <ele>375.1</ele>
        <time>2022-10-26T13:31:08.000Z</time>
      </trkpt>
      <trkpt lat="43.64473" lon="5.43411">
        <ele>375.1</ele>
        <time>2022-10-26T13:31:10.000Z</time>
      </trkpt>
      <trkpt lat="43.64471" lon="5.4341">
        <ele>375</ele>
        <time>2022-10-26T13:31:12.000Z</time>
      </trkpt>
      <trkpt lat="43.64469" lon="5.43408">
        <ele>374.8</ele>
        <time>2022-10-26T13:31:14.000Z</time>
      </trkpt>
      <trkpt lat="43.64467" lon="5.43407">
        <ele>374.6</ele>
        <time>2022-10-26T13:31:16.000Z</time>
      </trkpt>
      <trkpt lat="43.64465" lon="5.43406">
        <ele>374.4</ele>
        <time>2022-10-26T13:31:18.000Z</time>
      </trkpt>
      <trkpt lat="43.64464" lon="5.43405">
        <ele>374.2</ele>
        <time>2022-10-26T13:31:20.000Z</time>
      </trkpt>
      <trkpt lat="43.64462" lon="5.43403">
        <ele>374</ele>
        <time>2022-10-26T13:31:22.000Z</time>
      </trkpt>
      <trkpt lat="43.6446" lon="5.43402">
        <ele>373.9</ele>
        <time>2022-10-26T13:31:24.000Z</time>
      </trkpt>
      <trkpt lat="43.64457" lon="5.434">
        <ele>373.7</ele>
        <time>2022-10-26T13:31:26.000Z</time>
      </trkpt>
      <trkpt lat="43.64455" lon="5.43399">
        <ele>373.6</ele>
        <time>2022-10-26T13:31:28.000Z</time>
      </trkpt>
      <trkpt lat="43.64453" lon="5.43397">
        <ele>373.5</ele>
        <time>2022-10-26T13:31:30.000Z</time>
      </trkpt>
      <trkpt lat="43.64451" lon="5.43396">
        <ele>373.4</ele>
        <time>2022-10-26T13:31:32.000Z</time>
      </trkpt>
      <trkpt lat="43.64449" lon="5.43395">
        <ele>373.4</ele>
        <time>2022-10-26T13:31:34.000Z</time>
      </trkpt>
      <trkpt lat="43.64447" lon="5.43394">
        <ele>373.3</ele>
        <time>2022-10-26T13:31:36.000Z</time>
      </trkpt>
      <trkpt lat="43.64445" lon="5.43392">
        <ele>373.2</ele>
        <time>2022-10-26T13:31:38.000Z</time>
      </trkpt>
      <trkpt lat="43.64443" lon="5.43391">
        <ele>373.1</ele>
        <time>2022-10-26T13:31:40.000Z</time>
      </trkpt>
      <trkpt lat="43.64441" lon="5.43389">
        <ele>373</ele>
        <time>2022-10-26T13:31:42.000Z</time>
      </trkpt>
      <trkpt lat="43.64439" lon="5.43388">
        <ele>372.7</ele>
        <time>2022-10-26T13:31:44.000Z</time>
      </trkpt>
      <trkpt lat="43.64438" lon="5.43386">
        <ele>372.4</ele>
        <time>2022-10-26T13:31:46.000Z</time>
      </trkpt>
      <trkpt lat="43.64436" lon="5.43385">
        <ele>372.3</ele>
        <time>2022-10-26T13:31:48.000Z</time>
      </trkpt>
      <trkpt lat="43.64434" lon="5.43384">
        <ele>372.1</ele>
        <time>2022-10-26T13:31:50.000Z</time>
      </trkpt>
      <trkpt lat="43.64431" lon="5.43383">
        <ele>371.9</ele>
        <time>2022-10-26T13:31:52.000Z</time>
      </trkpt>
      <trkpt lat="43.64429" lon="5.43381">
        <ele>371.8</ele>
        <time>2022-10-26T13:31:55.000Z</time>
      </trkpt>
      <trkpt lat="43.64427" lon="5.43379">
        <ele>371.7</ele>
        <time>2022-10-26T13:31:58.000Z</time>
      </trkpt>
      <trkpt lat="43.64425" lon="5.43378">
        <ele>371.6</ele>
        <time>2022-10-26T13:32:00.000Z</time>
      </trkpt>
      <trkpt lat="43.64423" lon="5.43376">
        <ele>371.6</ele>
        <time>2022-10-26T13:32:02.000Z</time>
      </trkpt>
      <trkpt lat="43.64421" lon="5.43375">
        <ele>371.6</ele>
        <time>2022-10-26T13:32:04.000Z</time>
      </trkpt>
      <trkpt lat="43.64419" lon="5.43374">
        <ele>371.7</ele>
        <time>2022-10-26T13:32:06.000Z</time>
      </trkpt>
      <trkpt lat="43.64417" lon="5.43373">
        <ele>371.8</ele>
        <time>2022-10-26T13:32:08.000Z</time>
      </trkpt>
      <trkpt lat="43.64415" lon="5.43373">
        <ele>371.9</ele>
        <time>2022-10-26T13:32:10.000Z</time>
      </trkpt>
      <trkpt lat="43.64412" lon="5.43373">
        <ele>371.9</ele>
        <time>2022-10-26T13:32:13.000Z</time>
      </trkpt>
      <trkpt lat="43.6441" lon="5.43374">
        <ele>372</ele>
        <time>2022-10-26T13:32:16.000Z</time>
      </trkpt>
      <trkpt lat="43.64408" lon="5.43374">
        <ele>372.1</ele>
        <time>2022-10-26T13:32:18.000Z</time>
      </trkpt>
      <trkpt lat="43.64406" lon="5.43374">
        <ele>372.1</ele>
        <time>2022-10-26T13:32:20.000Z</time>
      </trkpt>
      <trkpt lat="43.64404" lon="5.43375">
        <ele>372.2</ele>
        <time>2022-10-26T13:32:22.000Z</time>
      </trkpt>
      <trkpt lat="43.64402" lon="5.43376">
        <ele>372.3</ele>
        <time>2022-10-26T13:32:25.000Z</time>
      </trkpt>
      <trkpt lat="43.64401" lon="5.43378">
        <ele>372.4</ele>
        <time>2022-10-26T13:32:27.000Z</time>
      </trkpt>
      <trkpt lat="43.64398" lon="5.4338">
        <ele>372.6</ele>
        <time>2022-10-26T13:32:30.000Z</time>
      </trkpt>
      <trkpt lat="43.64396" lon="5.4338">
        <ele>372.6</ele>
        <time>2022-10-26T13:32:33.000Z</time>
      </trkpt>
      <trkpt lat="43.64394" lon="5.43379">
        <ele>372.6</ele>
        <time>2022-10-26T13:32:36.000Z</time>
      </trkpt>
      <trkpt lat="43.64392" lon="5.43378">
        <ele>372.6</ele>
        <time>2022-10-26T13:32:39.000Z</time>
      </trkpt>
      <trkpt lat="43.6439" lon="5.43377">
        <ele>372.5</ele>
        <time>2022-10-26T13:32:42.000Z</time>
      </trkpt>
      <trkpt lat="43.64388" lon="5.43376">
        <ele>372.5</ele>
        <time>2022-10-26T13:32:45.000Z</time>
      </trkpt>
      <trkpt lat="43.64386" lon="5.43376">
        <ele>372.5</ele>
        <time>2022-10-26T13:32:48.000Z</time>
      </trkpt>
    </trkseg>
  </trk>
</gpx>